<?xml version="1.0" encoding="UTF-8" standalone="no" ?>
<gpx xmlns="http://www.topografix.com/GPX/1/1" xmlns:xsi="http://www.w3.org/2001/XMLSchema-instance" xsi:schemaLocation="http://www.topografix.com/GPX/1/1 http://www.topografix.com/GPX/1/1/gpx.xsd" version="1.1" creator="VisuGPX - https://www.visugpx.com">
  <metadata>
    <name>Aigoual 2022 - Ispagnac - Meyrueis</name>
  </metadata>
  <trk>
    <name><![CDATA[Extraordinaire | Vélo | Strava]]></name>
    <trkseg>
      <trkpt lat="44.37202" lon="3.53316">
        <ele>522.7</ele>
        <time>2020-08-25T06:26:00.000Z</time>
      </trkpt>
      <trkpt lat="44.37203" lon="3.53316">
        <ele>522.7</ele>
        <time>2020-08-25T06:26:02.000Z</time>
      </trkpt>
      <trkpt lat="44.37203" lon="3.53315">
        <ele>522.7</ele>
        <time>2020-08-25T06:26:04.000Z</time>
      </trkpt>
      <trkpt lat="44.37203" lon="3.53315">
        <ele>522.7</ele>
        <time>2020-08-25T06:26:06.000Z</time>
      </trkpt>
      <trkpt lat="44.37203" lon="3.53315">
        <ele>522.7</ele>
        <time>2020-08-25T06:26:07.000Z</time>
      </trkpt>
      <trkpt lat="44.37203" lon="3.53314">
        <ele>522.7</ele>
        <time>2020-08-25T06:26:09.000Z</time>
      </trkpt>
      <trkpt lat="44.37203" lon="3.53314">
        <ele>522.7</ele>
        <time>2020-08-25T06:26:10.000Z</time>
      </trkpt>
      <trkpt lat="44.37201" lon="3.53314">
        <ele>522.7</ele>
        <time>2020-08-25T06:29:38.000Z</time>
      </trkpt>
      <trkpt lat="44.37202" lon="3.53312">
        <ele>522.6</ele>
        <time>2020-08-25T06:29:39.000Z</time>
      </trkpt>
      <trkpt lat="44.37203" lon="3.53309">
        <ele>522.6</ele>
        <time>2020-08-25T06:29:41.000Z</time>
      </trkpt>
      <trkpt lat="44.37205" lon="3.53305">
        <ele>522.5</ele>
        <time>2020-08-25T06:29:42.000Z</time>
      </trkpt>
      <trkpt lat="44.37206" lon="3.53304">
        <ele>522.5</ele>
        <time>2020-08-25T06:29:43.000Z</time>
      </trkpt>
      <trkpt lat="44.37208" lon="3.53303">
        <ele>522.5</ele>
        <time>2020-08-25T06:29:44.000Z</time>
      </trkpt>
      <trkpt lat="44.37209" lon="3.533">
        <ele>522.4</ele>
        <time>2020-08-25T06:29:46.000Z</time>
      </trkpt>
      <trkpt lat="44.37211" lon="3.53295">
        <ele>522.3</ele>
        <time>2020-08-25T06:29:48.000Z</time>
      </trkpt>
      <trkpt lat="44.37211" lon="3.53294">
        <ele>522.3</ele>
        <time>2020-08-25T06:29:49.000Z</time>
      </trkpt>
      <trkpt lat="44.37211" lon="3.53292">
        <ele>522.3</ele>
        <time>2020-08-25T06:29:50.000Z</time>
      </trkpt>
      <trkpt lat="44.37211" lon="3.53287">
        <ele>522.2</ele>
        <time>2020-08-25T06:29:51.000Z</time>
      </trkpt>
      <trkpt lat="44.3721" lon="3.53283">
        <ele>522.2</ele>
        <time>2020-08-25T06:29:53.000Z</time>
      </trkpt>
      <trkpt lat="44.37209" lon="3.53282">
        <ele>522.2</ele>
        <time>2020-08-25T06:29:54.000Z</time>
      </trkpt>
      <trkpt lat="44.37208" lon="3.53281">
        <ele>521.6</ele>
        <time>2020-08-25T06:29:55.000Z</time>
      </trkpt>
      <trkpt lat="44.37207" lon="3.53279">
        <ele>521.5</ele>
        <time>2020-08-25T06:29:56.000Z</time>
      </trkpt>
      <trkpt lat="44.37205" lon="3.53272">
        <ele>521.2</ele>
        <time>2020-08-25T06:29:58.000Z</time>
      </trkpt>
      <trkpt lat="44.37203" lon="3.53269">
        <ele>521</ele>
        <time>2020-08-25T06:29:59.000Z</time>
      </trkpt>
      <trkpt lat="44.37201" lon="3.53266">
        <ele>520.8</ele>
        <time>2020-08-25T06:30:00.000Z</time>
      </trkpt>
      <trkpt lat="44.372" lon="3.53264">
        <ele>520.7</ele>
        <time>2020-08-25T06:30:02.000Z</time>
      </trkpt>
      <trkpt lat="44.37201" lon="3.53264">
        <ele>520.7</ele>
        <time>2020-08-25T06:30:04.000Z</time>
      </trkpt>
      <trkpt lat="44.37201" lon="3.53264">
        <ele>520.6</ele>
        <time>2020-08-25T06:30:06.000Z</time>
      </trkpt>
      <trkpt lat="44.37202" lon="3.53263">
        <ele>520.6</ele>
        <time>2020-08-25T06:30:07.000Z</time>
      </trkpt>
      <trkpt lat="44.37202" lon="3.53263">
        <ele>520.6</ele>
        <time>2020-08-25T06:30:08.000Z</time>
      </trkpt>
      <trkpt lat="44.37202" lon="3.53263">
        <ele>520.6</ele>
        <time>2020-08-25T06:30:09.000Z</time>
      </trkpt>
      <trkpt lat="44.37201" lon="3.53263">
        <ele>520.5</ele>
        <time>2020-08-25T06:30:11.000Z</time>
      </trkpt>
      <trkpt lat="44.37201" lon="3.53263">
        <ele>520.5</ele>
        <time>2020-08-25T06:30:12.000Z</time>
      </trkpt>
      <trkpt lat="44.37201" lon="3.53263">
        <ele>520.5</ele>
        <time>2020-08-25T06:30:14.000Z</time>
      </trkpt>
      <trkpt lat="44.37201" lon="3.53263">
        <ele>520.5</ele>
        <time>2020-08-25T06:30:15.000Z</time>
      </trkpt>
      <trkpt lat="44.37202" lon="3.53263">
        <ele>520.5</ele>
        <time>2020-08-25T06:30:17.000Z</time>
      </trkpt>
      <trkpt lat="44.37202" lon="3.53263">
        <ele>520.5</ele>
        <time>2020-08-25T06:30:18.000Z</time>
      </trkpt>
      <trkpt lat="44.37202" lon="3.53263">
        <ele>520.4</ele>
        <time>2020-08-25T06:30:19.000Z</time>
      </trkpt>
      <trkpt lat="44.37202" lon="3.53264">
        <ele>520.4</ele>
        <time>2020-08-25T06:30:21.000Z</time>
      </trkpt>
      <trkpt lat="44.37201" lon="3.53259">
        <ele>520.1</ele>
        <time>2020-08-25T06:31:36.000Z</time>
      </trkpt>
      <trkpt lat="44.37203" lon="3.53247">
        <ele>519.5</ele>
        <time>2020-08-25T06:31:38.000Z</time>
      </trkpt>
      <trkpt lat="44.37204" lon="3.53239">
        <ele>519</ele>
        <time>2020-08-25T06:31:39.000Z</time>
      </trkpt>
      <trkpt lat="44.37205" lon="3.53232">
        <ele>518.6</ele>
        <time>2020-08-25T06:31:40.000Z</time>
      </trkpt>
      <trkpt lat="44.37206" lon="3.53225">
        <ele>518.3</ele>
        <time>2020-08-25T06:31:41.000Z</time>
      </trkpt>
      <trkpt lat="44.37206" lon="3.53218">
        <ele>517.9</ele>
        <time>2020-08-25T06:31:42.000Z</time>
      </trkpt>
      <trkpt lat="44.37207" lon="3.53213">
        <ele>517.7</ele>
        <time>2020-08-25T06:31:43.000Z</time>
      </trkpt>
      <trkpt lat="44.37207" lon="3.53201">
        <ele>517.2</ele>
        <time>2020-08-25T06:31:45.000Z</time>
      </trkpt>
      <trkpt lat="44.37207" lon="3.53191">
        <ele>516.8</ele>
        <time>2020-08-25T06:31:46.000Z</time>
      </trkpt>
      <trkpt lat="44.37206" lon="3.53184">
        <ele>516.5</ele>
        <time>2020-08-25T06:31:47.000Z</time>
      </trkpt>
      <trkpt lat="44.37205" lon="3.53171">
        <ele>516.1</ele>
        <time>2020-08-25T06:31:49.000Z</time>
      </trkpt>
      <trkpt lat="44.37204" lon="3.53165">
        <ele>515.9</ele>
        <time>2020-08-25T06:31:50.000Z</time>
      </trkpt>
      <trkpt lat="44.37204" lon="3.53158">
        <ele>515.6</ele>
        <time>2020-08-25T06:31:51.000Z</time>
      </trkpt>
      <trkpt lat="44.37205" lon="3.53146">
        <ele>515.2</ele>
        <time>2020-08-25T06:31:53.000Z</time>
      </trkpt>
      <trkpt lat="44.37206" lon="3.53133">
        <ele>515</ele>
        <time>2020-08-25T06:31:55.000Z</time>
      </trkpt>
      <trkpt lat="44.37208" lon="3.53118">
        <ele>514.6</ele>
        <time>2020-08-25T06:31:57.000Z</time>
      </trkpt>
      <trkpt lat="44.3721" lon="3.53111">
        <ele>514.4</ele>
        <time>2020-08-25T06:31:58.000Z</time>
      </trkpt>
      <trkpt lat="44.37212" lon="3.53097">
        <ele>514</ele>
        <time>2020-08-25T06:32:00.000Z</time>
      </trkpt>
      <trkpt lat="44.37213" lon="3.53089">
        <ele>513.9</ele>
        <time>2020-08-25T06:32:01.000Z</time>
      </trkpt>
      <trkpt lat="44.37216" lon="3.53074">
        <ele>513.5</ele>
        <time>2020-08-25T06:32:03.000Z</time>
      </trkpt>
      <trkpt lat="44.37217" lon="3.53067">
        <ele>513.3</ele>
        <time>2020-08-25T06:32:04.000Z</time>
      </trkpt>
      <trkpt lat="44.37219" lon="3.53059">
        <ele>513.1</ele>
        <time>2020-08-25T06:32:05.000Z</time>
      </trkpt>
      <trkpt lat="44.37222" lon="3.53044">
        <ele>512.7</ele>
        <time>2020-08-25T06:32:07.000Z</time>
      </trkpt>
      <trkpt lat="44.37224" lon="3.53036">
        <ele>512.6</ele>
        <time>2020-08-25T06:32:08.000Z</time>
      </trkpt>
      <trkpt lat="44.37227" lon="3.5302">
        <ele>512.3</ele>
        <time>2020-08-25T06:32:10.000Z</time>
      </trkpt>
      <trkpt lat="44.37229" lon="3.53013">
        <ele>512.1</ele>
        <time>2020-08-25T06:32:11.000Z</time>
      </trkpt>
      <trkpt lat="44.3723" lon="3.53006">
        <ele>512</ele>
        <time>2020-08-25T06:32:12.000Z</time>
      </trkpt>
      <trkpt lat="44.37232" lon="3.52998">
        <ele>511.9</ele>
        <time>2020-08-25T06:32:14.000Z</time>
      </trkpt>
      <trkpt lat="44.37234" lon="3.52987">
        <ele>511.7</ele>
        <time>2020-08-25T06:32:16.000Z</time>
      </trkpt>
      <trkpt lat="44.37236" lon="3.52981">
        <ele>511.6</ele>
        <time>2020-08-25T06:32:17.000Z</time>
      </trkpt>
      <trkpt lat="44.37237" lon="3.52976">
        <ele>511.5</ele>
        <time>2020-08-25T06:32:18.000Z</time>
      </trkpt>
      <trkpt lat="44.37237" lon="3.52971">
        <ele>511.4</ele>
        <time>2020-08-25T06:32:19.000Z</time>
      </trkpt>
      <trkpt lat="44.37238" lon="3.52964">
        <ele>511.3</ele>
        <time>2020-08-25T06:32:21.000Z</time>
      </trkpt>
      <trkpt lat="44.37242" lon="3.52955">
        <ele>511.1</ele>
        <time>2020-08-25T06:32:22.000Z</time>
      </trkpt>
      <trkpt lat="44.37244" lon="3.52949">
        <ele>511</ele>
        <time>2020-08-25T06:32:23.000Z</time>
      </trkpt>
      <trkpt lat="44.37246" lon="3.52939">
        <ele>510.8</ele>
        <time>2020-08-25T06:32:25.000Z</time>
      </trkpt>
      <trkpt lat="44.37248" lon="3.52932">
        <ele>510.6</ele>
        <time>2020-08-25T06:32:26.000Z</time>
      </trkpt>
      <trkpt lat="44.3725" lon="3.52925">
        <ele>510.5</ele>
        <time>2020-08-25T06:32:28.000Z</time>
      </trkpt>
      <trkpt lat="44.37252" lon="3.52916">
        <ele>510.4</ele>
        <time>2020-08-25T06:32:29.000Z</time>
      </trkpt>
      <trkpt lat="44.37253" lon="3.52908">
        <ele>510.3</ele>
        <time>2020-08-25T06:32:30.000Z</time>
      </trkpt>
      <trkpt lat="44.37255" lon="3.52903">
        <ele>510.2</ele>
        <time>2020-08-25T06:32:32.000Z</time>
      </trkpt>
      <trkpt lat="44.37257" lon="3.52897">
        <ele>510.1</ele>
        <time>2020-08-25T06:32:33.000Z</time>
      </trkpt>
      <trkpt lat="44.37258" lon="3.52889">
        <ele>510.1</ele>
        <time>2020-08-25T06:32:34.000Z</time>
      </trkpt>
      <trkpt lat="44.37257" lon="3.52882">
        <ele>510</ele>
        <time>2020-08-25T06:32:35.000Z</time>
      </trkpt>
      <trkpt lat="44.37256" lon="3.52876">
        <ele>509.9</ele>
        <time>2020-08-25T06:32:36.000Z</time>
      </trkpt>
      <trkpt lat="44.37252" lon="3.52867">
        <ele>509.7</ele>
        <time>2020-08-25T06:32:38.000Z</time>
      </trkpt>
      <trkpt lat="44.37248" lon="3.52859">
        <ele>509.7</ele>
        <time>2020-08-25T06:32:40.000Z</time>
      </trkpt>
      <trkpt lat="44.37246" lon="3.52853">
        <ele>509.6</ele>
        <time>2020-08-25T06:32:41.000Z</time>
      </trkpt>
      <trkpt lat="44.37244" lon="3.52848">
        <ele>509.6</ele>
        <time>2020-08-25T06:32:42.000Z</time>
      </trkpt>
      <trkpt lat="44.3724" lon="3.52838">
        <ele>509.5</ele>
        <time>2020-08-25T06:32:44.000Z</time>
      </trkpt>
      <trkpt lat="44.37238" lon="3.52832">
        <ele>509.4</ele>
        <time>2020-08-25T06:32:45.000Z</time>
      </trkpt>
      <trkpt lat="44.37235" lon="3.52822">
        <ele>509.4</ele>
        <time>2020-08-25T06:32:46.000Z</time>
      </trkpt>
      <trkpt lat="44.37233" lon="3.52808">
        <ele>509.2</ele>
        <time>2020-08-25T06:32:48.000Z</time>
      </trkpt>
      <trkpt lat="44.37233" lon="3.52797">
        <ele>509.2</ele>
        <time>2020-08-25T06:32:50.000Z</time>
      </trkpt>
      <trkpt lat="44.37234" lon="3.52797">
        <ele>509.2</ele>
        <time>2020-08-25T06:32:51.000Z</time>
      </trkpt>
      <trkpt lat="44.37235" lon="3.52794">
        <ele>509.1</ele>
        <time>2020-08-25T06:32:52.000Z</time>
      </trkpt>
      <trkpt lat="44.37239" lon="3.52785">
        <ele>509.1</ele>
        <time>2020-08-25T06:32:54.000Z</time>
      </trkpt>
      <trkpt lat="44.37243" lon="3.52779">
        <ele>509.1</ele>
        <time>2020-08-25T06:32:55.000Z</time>
      </trkpt>
      <trkpt lat="44.37248" lon="3.52774">
        <ele>509.1</ele>
        <time>2020-08-25T06:32:56.000Z</time>
      </trkpt>
      <trkpt lat="44.37252" lon="3.5277">
        <ele>509.1</ele>
        <time>2020-08-25T06:32:57.000Z</time>
      </trkpt>
      <trkpt lat="44.37255" lon="3.52766">
        <ele>509.1</ele>
        <time>2020-08-25T06:32:59.000Z</time>
      </trkpt>
      <trkpt lat="44.37259" lon="3.52762">
        <ele>509.1</ele>
        <time>2020-08-25T06:33:00.000Z</time>
      </trkpt>
      <trkpt lat="44.37261" lon="3.52759">
        <ele>509.1</ele>
        <time>2020-08-25T06:33:01.000Z</time>
      </trkpt>
      <trkpt lat="44.37265" lon="3.52756">
        <ele>509.1</ele>
        <time>2020-08-25T06:33:03.000Z</time>
      </trkpt>
      <trkpt lat="44.37268" lon="3.52753">
        <ele>509.1</ele>
        <time>2020-08-25T06:33:04.000Z</time>
      </trkpt>
      <trkpt lat="44.37271" lon="3.5275">
        <ele>509.1</ele>
        <time>2020-08-25T06:33:05.000Z</time>
      </trkpt>
      <trkpt lat="44.37273" lon="3.52748">
        <ele>509.1</ele>
        <time>2020-08-25T06:33:06.000Z</time>
      </trkpt>
      <trkpt lat="44.37276" lon="3.52745">
        <ele>509</ele>
        <time>2020-08-25T06:33:07.000Z</time>
      </trkpt>
      <trkpt lat="44.37279" lon="3.52741">
        <ele>508.9</ele>
        <time>2020-08-25T06:33:08.000Z</time>
      </trkpt>
      <trkpt lat="44.37283" lon="3.52736">
        <ele>508.8</ele>
        <time>2020-08-25T06:33:09.000Z</time>
      </trkpt>
      <trkpt lat="44.37287" lon="3.52732">
        <ele>508.6</ele>
        <time>2020-08-25T06:33:11.000Z</time>
      </trkpt>
      <trkpt lat="44.37292" lon="3.52728">
        <ele>508.5</ele>
        <time>2020-08-25T06:33:12.000Z</time>
      </trkpt>
      <trkpt lat="44.37297" lon="3.52723">
        <ele>508.3</ele>
        <time>2020-08-25T06:33:13.000Z</time>
      </trkpt>
      <trkpt lat="44.373" lon="3.52718">
        <ele>508.1</ele>
        <time>2020-08-25T06:33:14.000Z</time>
      </trkpt>
      <trkpt lat="44.37306" lon="3.52711">
        <ele>507.9</ele>
        <time>2020-08-25T06:33:16.000Z</time>
      </trkpt>
      <trkpt lat="44.3731" lon="3.52707">
        <ele>507.7</ele>
        <time>2020-08-25T06:33:18.000Z</time>
      </trkpt>
      <trkpt lat="44.37314" lon="3.52703">
        <ele>507.6</ele>
        <time>2020-08-25T06:33:19.000Z</time>
      </trkpt>
      <trkpt lat="44.37319" lon="3.52697">
        <ele>507.4</ele>
        <time>2020-08-25T06:33:20.000Z</time>
      </trkpt>
      <trkpt lat="44.37323" lon="3.52692">
        <ele>507.2</ele>
        <time>2020-08-25T06:33:22.000Z</time>
      </trkpt>
      <trkpt lat="44.37329" lon="3.52685">
        <ele>507</ele>
        <time>2020-08-25T06:33:23.000Z</time>
      </trkpt>
      <trkpt lat="44.37336" lon="3.52677">
        <ele>506.8</ele>
        <time>2020-08-25T06:33:25.000Z</time>
      </trkpt>
      <trkpt lat="44.37339" lon="3.52672">
        <ele>506.7</ele>
        <time>2020-08-25T06:33:26.000Z</time>
      </trkpt>
      <trkpt lat="44.37347" lon="3.52663">
        <ele>506.5</ele>
        <time>2020-08-25T06:33:27.000Z</time>
      </trkpt>
      <trkpt lat="44.37351" lon="3.52658">
        <ele>506.5</ele>
        <time>2020-08-25T06:33:28.000Z</time>
      </trkpt>
      <trkpt lat="44.37355" lon="3.52653">
        <ele>506.5</ele>
        <time>2020-08-25T06:33:29.000Z</time>
      </trkpt>
      <trkpt lat="44.37359" lon="3.52648">
        <ele>506.5</ele>
        <time>2020-08-25T06:33:30.000Z</time>
      </trkpt>
      <trkpt lat="44.37366" lon="3.5264">
        <ele>506.5</ele>
        <time>2020-08-25T06:33:32.000Z</time>
      </trkpt>
      <trkpt lat="44.37368" lon="3.52639">
        <ele>506.5</ele>
        <time>2020-08-25T06:33:33.000Z</time>
      </trkpt>
      <trkpt lat="44.37372" lon="3.52634">
        <ele>506.6</ele>
        <time>2020-08-25T06:33:34.000Z</time>
      </trkpt>
      <trkpt lat="44.37377" lon="3.52627">
        <ele>506.6</ele>
        <time>2020-08-25T06:33:36.000Z</time>
      </trkpt>
      <trkpt lat="44.37382" lon="3.5262">
        <ele>506.8</ele>
        <time>2020-08-25T06:33:37.000Z</time>
      </trkpt>
      <trkpt lat="44.37386" lon="3.52616">
        <ele>506.9</ele>
        <time>2020-08-25T06:33:38.000Z</time>
      </trkpt>
      <trkpt lat="44.37391" lon="3.52608">
        <ele>507.2</ele>
        <time>2020-08-25T06:33:40.000Z</time>
      </trkpt>
      <trkpt lat="44.37395" lon="3.52604">
        <ele>507.4</ele>
        <time>2020-08-25T06:33:41.000Z</time>
      </trkpt>
      <trkpt lat="44.37399" lon="3.52599">
        <ele>507.8</ele>
        <time>2020-08-25T06:33:43.000Z</time>
      </trkpt>
      <trkpt lat="44.37401" lon="3.52597">
        <ele>508.1</ele>
        <time>2020-08-25T06:33:44.000Z</time>
      </trkpt>
      <trkpt lat="44.37403" lon="3.52594">
        <ele>508.3</ele>
        <time>2020-08-25T06:33:45.000Z</time>
      </trkpt>
      <trkpt lat="44.37405" lon="3.52589">
        <ele>508.7</ele>
        <time>2020-08-25T06:33:46.000Z</time>
      </trkpt>
      <trkpt lat="44.37406" lon="3.52587">
        <ele>508.9</ele>
        <time>2020-08-25T06:33:47.000Z</time>
      </trkpt>
      <trkpt lat="44.37407" lon="3.52584">
        <ele>509.1</ele>
        <time>2020-08-25T06:33:48.000Z</time>
      </trkpt>
      <trkpt lat="44.37408" lon="3.52579">
        <ele>509.6</ele>
        <time>2020-08-25T06:33:50.000Z</time>
      </trkpt>
      <trkpt lat="44.37406" lon="3.52575">
        <ele>510</ele>
        <time>2020-08-25T06:33:52.000Z</time>
      </trkpt>
      <trkpt lat="44.37405" lon="3.52572">
        <ele>510.2</ele>
        <time>2020-08-25T06:33:54.000Z</time>
      </trkpt>
      <trkpt lat="44.37405" lon="3.52569">
        <ele>510.4</ele>
        <time>2020-08-25T06:33:55.000Z</time>
      </trkpt>
      <trkpt lat="44.37403" lon="3.52566">
        <ele>510.6</ele>
        <time>2020-08-25T06:33:57.000Z</time>
      </trkpt>
      <trkpt lat="44.37402" lon="3.52562">
        <ele>510.9</ele>
        <time>2020-08-25T06:33:58.000Z</time>
      </trkpt>
      <trkpt lat="44.37401" lon="3.52558">
        <ele>511.2</ele>
        <time>2020-08-25T06:33:59.000Z</time>
      </trkpt>
      <trkpt lat="44.37401" lon="3.52557">
        <ele>511.3</ele>
        <time>2020-08-25T06:34:00.000Z</time>
      </trkpt>
      <trkpt lat="44.37399" lon="3.52553">
        <ele>511.5</ele>
        <time>2020-08-25T06:34:02.000Z</time>
      </trkpt>
      <trkpt lat="44.37398" lon="3.52551">
        <ele>511.7</ele>
        <time>2020-08-25T06:34:03.000Z</time>
      </trkpt>
      <trkpt lat="44.37398" lon="3.5255">
        <ele>511.8</ele>
        <time>2020-08-25T06:34:04.000Z</time>
      </trkpt>
      <trkpt lat="44.37396" lon="3.52545">
        <ele>512.1</ele>
        <time>2020-08-25T06:34:06.000Z</time>
      </trkpt>
      <trkpt lat="44.37395" lon="3.52543">
        <ele>512.2</ele>
        <time>2020-08-25T06:34:07.000Z</time>
      </trkpt>
      <trkpt lat="44.37394" lon="3.52541">
        <ele>512.4</ele>
        <time>2020-08-25T06:34:09.000Z</time>
      </trkpt>
      <trkpt lat="44.37394" lon="3.52538">
        <ele>512.5</ele>
        <time>2020-08-25T06:34:10.000Z</time>
      </trkpt>
      <trkpt lat="44.37393" lon="3.52536">
        <ele>512.6</ele>
        <time>2020-08-25T06:34:11.000Z</time>
      </trkpt>
      <trkpt lat="44.37392" lon="3.52535">
        <ele>512.7</ele>
        <time>2020-08-25T06:34:12.000Z</time>
      </trkpt>
      <trkpt lat="44.37392" lon="3.52532">
        <ele>512.8</ele>
        <time>2020-08-25T06:34:13.000Z</time>
      </trkpt>
      <trkpt lat="44.37392" lon="3.5253">
        <ele>512.9</ele>
        <time>2020-08-25T06:34:15.000Z</time>
      </trkpt>
      <trkpt lat="44.37392" lon="3.5253">
        <ele>512.9</ele>
        <time>2020-08-25T06:34:16.000Z</time>
      </trkpt>
      <trkpt lat="44.37392" lon="3.5253">
        <ele>513</ele>
        <time>2020-08-25T06:34:17.000Z</time>
      </trkpt>
      <trkpt lat="44.37392" lon="3.52531">
        <ele>513</ele>
        <time>2020-08-25T06:34:19.000Z</time>
      </trkpt>
      <trkpt lat="44.37392" lon="3.52532">
        <ele>513</ele>
        <time>2020-08-25T06:34:21.000Z</time>
      </trkpt>
      <trkpt lat="44.37392" lon="3.52532">
        <ele>513</ele>
        <time>2020-08-25T06:34:23.000Z</time>
      </trkpt>
      <trkpt lat="44.37389" lon="3.52527">
        <ele>513.2</ele>
        <time>2020-08-25T06:35:47.000Z</time>
      </trkpt>
      <trkpt lat="44.37389" lon="3.52522">
        <ele>513.4</ele>
        <time>2020-08-25T06:35:49.000Z</time>
      </trkpt>
      <trkpt lat="44.37388" lon="3.5252">
        <ele>513.4</ele>
        <time>2020-08-25T06:35:50.000Z</time>
      </trkpt>
      <trkpt lat="44.37385" lon="3.52521">
        <ele>513.4</ele>
        <time>2020-08-25T06:35:52.000Z</time>
      </trkpt>
      <trkpt lat="44.37384" lon="3.5252">
        <ele>513.5</ele>
        <time>2020-08-25T06:35:53.000Z</time>
      </trkpt>
      <trkpt lat="44.37383" lon="3.52518">
        <ele>513.5</ele>
        <time>2020-08-25T06:35:54.000Z</time>
      </trkpt>
      <trkpt lat="44.37381" lon="3.52514">
        <ele>513.4</ele>
        <time>2020-08-25T06:35:56.000Z</time>
      </trkpt>
      <trkpt lat="44.3738" lon="3.5251">
        <ele>513.4</ele>
        <time>2020-08-25T06:35:57.000Z</time>
      </trkpt>
      <trkpt lat="44.37379" lon="3.52505">
        <ele>513.3</ele>
        <time>2020-08-25T06:35:59.000Z</time>
      </trkpt>
      <trkpt lat="44.37371" lon="3.52484">
        <ele>512.4</ele>
        <time>2020-08-25T06:36:00.000Z</time>
      </trkpt>
      <trkpt lat="44.37363" lon="3.52466">
        <ele>511.5</ele>
        <time>2020-08-25T06:36:02.000Z</time>
      </trkpt>
      <trkpt lat="44.37353" lon="3.5245">
        <ele>510.9</ele>
        <time>2020-08-25T06:36:04.000Z</time>
      </trkpt>
      <trkpt lat="44.37348" lon="3.52443">
        <ele>510.6</ele>
        <time>2020-08-25T06:36:05.000Z</time>
      </trkpt>
      <trkpt lat="44.37343" lon="3.52437">
        <ele>510.6</ele>
        <time>2020-08-25T06:36:06.000Z</time>
      </trkpt>
      <trkpt lat="44.37339" lon="3.52432">
        <ele>510.6</ele>
        <time>2020-08-25T06:36:07.000Z</time>
      </trkpt>
      <trkpt lat="44.3733" lon="3.52424">
        <ele>510.8</ele>
        <time>2020-08-25T06:36:09.000Z</time>
      </trkpt>
      <trkpt lat="44.37325" lon="3.52428">
        <ele>511</ele>
        <time>2020-08-25T06:36:11.000Z</time>
      </trkpt>
      <trkpt lat="44.37322" lon="3.5243">
        <ele>511</ele>
        <time>2020-08-25T06:36:12.000Z</time>
      </trkpt>
      <trkpt lat="44.37321" lon="3.52435">
        <ele>511</ele>
        <time>2020-08-25T06:36:13.000Z</time>
      </trkpt>
      <trkpt lat="44.37323" lon="3.52438">
        <ele>511</ele>
        <time>2020-08-25T06:36:14.000Z</time>
      </trkpt>
      <trkpt lat="44.37324" lon="3.52443">
        <ele>511</ele>
        <time>2020-08-25T06:36:16.000Z</time>
      </trkpt>
      <trkpt lat="44.37324" lon="3.5245">
        <ele>511.1</ele>
        <time>2020-08-25T06:36:17.000Z</time>
      </trkpt>
      <trkpt lat="44.37323" lon="3.52457">
        <ele>511.1</ele>
        <time>2020-08-25T06:36:18.000Z</time>
      </trkpt>
      <trkpt lat="44.37321" lon="3.52463">
        <ele>511.1</ele>
        <time>2020-08-25T06:36:19.000Z</time>
      </trkpt>
      <trkpt lat="44.3732" lon="3.52468">
        <ele>511.1</ele>
        <time>2020-08-25T06:36:21.000Z</time>
      </trkpt>
      <trkpt lat="44.3732" lon="3.52469">
        <ele>511.1</ele>
        <time>2020-08-25T06:36:22.000Z</time>
      </trkpt>
      <trkpt lat="44.37321" lon="3.52468">
        <ele>511.1</ele>
        <time>2020-08-25T06:36:24.000Z</time>
      </trkpt>
      <trkpt lat="44.3732" lon="3.52468">
        <ele>511.1</ele>
        <time>2020-08-25T06:36:25.000Z</time>
      </trkpt>
      <trkpt lat="44.3732" lon="3.52469">
        <ele>511.1</ele>
        <time>2020-08-25T06:36:26.000Z</time>
      </trkpt>
      <trkpt lat="44.3732" lon="3.52469">
        <ele>511.1</ele>
        <time>2020-08-25T06:36:28.000Z</time>
      </trkpt>
      <trkpt lat="44.3732" lon="3.52469">
        <ele>511.1</ele>
        <time>2020-08-25T06:36:29.000Z</time>
      </trkpt>
      <trkpt lat="44.3732" lon="3.52469">
        <ele>511.1</ele>
        <time>2020-08-25T06:36:30.000Z</time>
      </trkpt>
      <trkpt lat="44.3732" lon="3.52469">
        <ele>511.1</ele>
        <time>2020-08-25T06:36:31.000Z</time>
      </trkpt>
      <trkpt lat="44.37316" lon="3.52466">
        <ele>511.1</ele>
        <time>2020-08-25T06:36:35.000Z</time>
      </trkpt>
      <trkpt lat="44.37314" lon="3.52465">
        <ele>511.1</ele>
        <time>2020-08-25T06:36:36.000Z</time>
      </trkpt>
      <trkpt lat="44.37312" lon="3.52468">
        <ele>511.1</ele>
        <time>2020-08-25T06:36:38.000Z</time>
      </trkpt>
      <trkpt lat="44.37312" lon="3.52474">
        <ele>511.1</ele>
        <time>2020-08-25T06:36:39.000Z</time>
      </trkpt>
      <trkpt lat="44.37312" lon="3.5248">
        <ele>511.1</ele>
        <time>2020-08-25T06:36:40.000Z</time>
      </trkpt>
      <trkpt lat="44.37314" lon="3.52487">
        <ele>511.1</ele>
        <time>2020-08-25T06:36:41.000Z</time>
      </trkpt>
      <trkpt lat="44.37321" lon="3.52497">
        <ele>511.2</ele>
        <time>2020-08-25T06:36:42.000Z</time>
      </trkpt>
      <trkpt lat="44.37334" lon="3.525">
        <ele>511.1</ele>
        <time>2020-08-25T06:36:44.000Z</time>
      </trkpt>
      <trkpt lat="44.3734" lon="3.525">
        <ele>511.1</ele>
        <time>2020-08-25T06:36:45.000Z</time>
      </trkpt>
      <trkpt lat="44.37344" lon="3.525">
        <ele>511.1</ele>
        <time>2020-08-25T06:36:46.000Z</time>
      </trkpt>
      <trkpt lat="44.37348" lon="3.52501">
        <ele>511.1</ele>
        <time>2020-08-25T06:36:48.000Z</time>
      </trkpt>
      <trkpt lat="44.37351" lon="3.52504">
        <ele>511.1</ele>
        <time>2020-08-25T06:36:49.000Z</time>
      </trkpt>
      <trkpt lat="44.37351" lon="3.52505">
        <ele>511.1</ele>
        <time>2020-08-25T06:36:50.000Z</time>
      </trkpt>
      <trkpt lat="44.37351" lon="3.52505">
        <ele>511.1</ele>
        <time>2020-08-25T06:36:51.000Z</time>
      </trkpt>
      <trkpt lat="44.3735" lon="3.52506">
        <ele>511.1</ele>
        <time>2020-08-25T06:36:52.000Z</time>
      </trkpt>
      <trkpt lat="44.3735" lon="3.52507">
        <ele>511.1</ele>
        <time>2020-08-25T06:36:54.000Z</time>
      </trkpt>
      <trkpt lat="44.37349" lon="3.52508">
        <ele>511.1</ele>
        <time>2020-08-25T06:36:55.000Z</time>
      </trkpt>
      <trkpt lat="44.37348" lon="3.52509">
        <ele>511.1</ele>
        <time>2020-08-25T06:36:57.000Z</time>
      </trkpt>
      <trkpt lat="44.37348" lon="3.52509">
        <ele>511.1</ele>
        <time>2020-08-25T06:36:58.000Z</time>
      </trkpt>
      <trkpt lat="44.37347" lon="3.5251">
        <ele>511.1</ele>
        <time>2020-08-25T06:37:00.000Z</time>
      </trkpt>
      <trkpt lat="44.37347" lon="3.52511">
        <ele>511.1</ele>
        <time>2020-08-25T06:37:31.000Z</time>
      </trkpt>
      <trkpt lat="44.37346" lon="3.52512">
        <ele>511.1</ele>
        <time>2020-08-25T06:37:33.000Z</time>
      </trkpt>
      <trkpt lat="44.37346" lon="3.52513">
        <ele>511.1</ele>
        <time>2020-08-25T06:37:34.000Z</time>
      </trkpt>
      <trkpt lat="44.37342" lon="3.52511">
        <ele>511.1</ele>
        <time>2020-08-25T06:37:35.000Z</time>
      </trkpt>
      <trkpt lat="44.37337" lon="3.52507">
        <ele>511.1</ele>
        <time>2020-08-25T06:37:37.000Z</time>
      </trkpt>
      <trkpt lat="44.37335" lon="3.52504">
        <ele>511.1</ele>
        <time>2020-08-25T06:37:38.000Z</time>
      </trkpt>
      <trkpt lat="44.3733" lon="3.52497">
        <ele>511.1</ele>
        <time>2020-08-25T06:37:40.000Z</time>
      </trkpt>
      <trkpt lat="44.37326" lon="3.52492">
        <ele>511.1</ele>
        <time>2020-08-25T06:37:41.000Z</time>
      </trkpt>
      <trkpt lat="44.37322" lon="3.52488">
        <ele>511.1</ele>
        <time>2020-08-25T06:37:43.000Z</time>
      </trkpt>
      <trkpt lat="44.37319" lon="3.52485">
        <ele>511.1</ele>
        <time>2020-08-25T06:37:44.000Z</time>
      </trkpt>
      <trkpt lat="44.37317" lon="3.5248">
        <ele>511.1</ele>
        <time>2020-08-25T06:37:45.000Z</time>
      </trkpt>
      <trkpt lat="44.37317" lon="3.52478">
        <ele>511.1</ele>
        <time>2020-08-25T06:37:46.000Z</time>
      </trkpt>
      <trkpt lat="44.37319" lon="3.52473">
        <ele>511.1</ele>
        <time>2020-08-25T06:37:48.000Z</time>
      </trkpt>
      <trkpt lat="44.3732" lon="3.52471">
        <ele>511.1</ele>
        <time>2020-08-25T06:37:49.000Z</time>
      </trkpt>
      <trkpt lat="44.37321" lon="3.52469">
        <ele>511.1</ele>
        <time>2020-08-25T06:37:50.000Z</time>
      </trkpt>
      <trkpt lat="44.37322" lon="3.52463">
        <ele>511.1</ele>
        <time>2020-08-25T06:37:52.000Z</time>
      </trkpt>
      <trkpt lat="44.37323" lon="3.52457">
        <ele>511.1</ele>
        <time>2020-08-25T06:37:54.000Z</time>
      </trkpt>
      <trkpt lat="44.37324" lon="3.5245">
        <ele>511</ele>
        <time>2020-08-25T06:37:56.000Z</time>
      </trkpt>
      <trkpt lat="44.37324" lon="3.52449">
        <ele>511</ele>
        <time>2020-08-25T06:37:57.000Z</time>
      </trkpt>
      <trkpt lat="44.37325" lon="3.52447">
        <ele>511</ele>
        <time>2020-08-25T06:37:58.000Z</time>
      </trkpt>
      <trkpt lat="44.37325" lon="3.52444">
        <ele>511</ele>
        <time>2020-08-25T06:37:59.000Z</time>
      </trkpt>
      <trkpt lat="44.37326" lon="3.5244">
        <ele>511</ele>
        <time>2020-08-25T06:38:01.000Z</time>
      </trkpt>
      <trkpt lat="44.37327" lon="3.52438">
        <ele>511</ele>
        <time>2020-08-25T06:38:02.000Z</time>
      </trkpt>
      <trkpt lat="44.37327" lon="3.52437">
        <ele>511</ele>
        <time>2020-08-25T06:38:03.000Z</time>
      </trkpt>
      <trkpt lat="44.37327" lon="3.52438">
        <ele>511</ele>
        <time>2020-08-25T06:38:05.000Z</time>
      </trkpt>
      <trkpt lat="44.37327" lon="3.52437">
        <ele>511</ele>
        <time>2020-08-25T06:38:06.000Z</time>
      </trkpt>
      <trkpt lat="44.37327" lon="3.52436">
        <ele>511</ele>
        <time>2020-08-25T06:38:08.000Z</time>
      </trkpt>
      <trkpt lat="44.37326" lon="3.52435">
        <ele>511</ele>
        <time>2020-08-25T06:38:09.000Z</time>
      </trkpt>
      <trkpt lat="44.37326" lon="3.52435">
        <ele>511</ele>
        <time>2020-08-25T06:38:11.000Z</time>
      </trkpt>
      <trkpt lat="44.37326" lon="3.52434">
        <ele>511</ele>
        <time>2020-08-25T06:38:12.000Z</time>
      </trkpt>
      <trkpt lat="44.37325" lon="3.52433">
        <ele>511</ele>
        <time>2020-08-25T06:38:14.000Z</time>
      </trkpt>
      <trkpt lat="44.37325" lon="3.52433">
        <ele>511</ele>
        <time>2020-08-25T06:38:15.000Z</time>
      </trkpt>
      <trkpt lat="44.37326" lon="3.52433">
        <ele>511</ele>
        <time>2020-08-25T06:38:16.000Z</time>
      </trkpt>
      <trkpt lat="44.37326" lon="3.52434">
        <ele>511</ele>
        <time>2020-08-25T06:38:18.000Z</time>
      </trkpt>
      <trkpt lat="44.37326" lon="3.52426">
        <ele>510.9</ele>
        <time>2020-08-25T06:38:47.000Z</time>
      </trkpt>
      <trkpt lat="44.37326" lon="3.52425">
        <ele>511.1</ele>
        <time>2020-08-25T06:38:48.000Z</time>
      </trkpt>
      <trkpt lat="44.37326" lon="3.52424">
        <ele>511.1</ele>
        <time>2020-08-25T06:38:49.000Z</time>
      </trkpt>
      <trkpt lat="44.37327" lon="3.52423">
        <ele>511.2</ele>
        <time>2020-08-25T06:38:51.000Z</time>
      </trkpt>
      <trkpt lat="44.37327" lon="3.52422">
        <ele>511.3</ele>
        <time>2020-08-25T06:38:52.000Z</time>
      </trkpt>
      <trkpt lat="44.37328" lon="3.52422">
        <ele>511.5</ele>
        <time>2020-08-25T06:38:53.000Z</time>
      </trkpt>
      <trkpt lat="44.37328" lon="3.52421">
        <ele>511.6</ele>
        <time>2020-08-25T06:38:54.000Z</time>
      </trkpt>
      <trkpt lat="44.37328" lon="3.52419">
        <ele>511.7</ele>
        <time>2020-08-25T06:38:56.000Z</time>
      </trkpt>
      <trkpt lat="44.37328" lon="3.52419">
        <ele>511.8</ele>
        <time>2020-08-25T06:38:57.000Z</time>
      </trkpt>
      <trkpt lat="44.37326" lon="3.52417">
        <ele>512.1</ele>
        <time>2020-08-25T06:38:58.000Z</time>
      </trkpt>
      <trkpt lat="44.37325" lon="3.52416">
        <ele>512.3</ele>
        <time>2020-08-25T06:39:00.000Z</time>
      </trkpt>
      <trkpt lat="44.37323" lon="3.52416">
        <ele>512.5</ele>
        <time>2020-08-25T06:39:01.000Z</time>
      </trkpt>
      <trkpt lat="44.37322" lon="3.52415">
        <ele>512.7</ele>
        <time>2020-08-25T06:39:02.000Z</time>
      </trkpt>
      <trkpt lat="44.3732" lon="3.52414">
        <ele>513</ele>
        <time>2020-08-25T06:39:03.000Z</time>
      </trkpt>
      <trkpt lat="44.37319" lon="3.52413">
        <ele>513.2</ele>
        <time>2020-08-25T06:39:05.000Z</time>
      </trkpt>
      <trkpt lat="44.37317" lon="3.52412">
        <ele>513.4</ele>
        <time>2020-08-25T06:39:44.000Z</time>
      </trkpt>
      <trkpt lat="44.37316" lon="3.52412">
        <ele>513.6</ele>
        <time>2020-08-25T06:39:46.000Z</time>
      </trkpt>
      <trkpt lat="44.37315" lon="3.52411">
        <ele>513.8</ele>
        <time>2020-08-25T06:39:47.000Z</time>
      </trkpt>
      <trkpt lat="44.37311" lon="3.52411">
        <ele>514.1</ele>
        <time>2020-08-25T06:39:49.000Z</time>
      </trkpt>
      <trkpt lat="44.37309" lon="3.52411">
        <ele>514.2</ele>
        <time>2020-08-25T06:39:50.000Z</time>
      </trkpt>
      <trkpt lat="44.37307" lon="3.52411">
        <ele>514.4</ele>
        <time>2020-08-25T06:39:51.000Z</time>
      </trkpt>
      <trkpt lat="44.37301" lon="3.52411">
        <ele>514.7</ele>
        <time>2020-08-25T06:39:53.000Z</time>
      </trkpt>
      <trkpt lat="44.37295" lon="3.52411">
        <ele>515.1</ele>
        <time>2020-08-25T06:39:54.000Z</time>
      </trkpt>
      <trkpt lat="44.37291" lon="3.52411">
        <ele>515.3</ele>
        <time>2020-08-25T06:39:55.000Z</time>
      </trkpt>
      <trkpt lat="44.37288" lon="3.52411">
        <ele>515.4</ele>
        <time>2020-08-25T06:39:56.000Z</time>
      </trkpt>
      <trkpt lat="44.37282" lon="3.52412">
        <ele>515.7</ele>
        <time>2020-08-25T06:39:58.000Z</time>
      </trkpt>
      <trkpt lat="44.37275" lon="3.52414">
        <ele>515.9</ele>
        <time>2020-08-25T06:40:00.000Z</time>
      </trkpt>
      <trkpt lat="44.3727" lon="3.52416">
        <ele>516</ele>
        <time>2020-08-25T06:40:02.000Z</time>
      </trkpt>
      <trkpt lat="44.37267" lon="3.52417">
        <ele>516</ele>
        <time>2020-08-25T06:40:03.000Z</time>
      </trkpt>
      <trkpt lat="44.37262" lon="3.52419">
        <ele>516.1</ele>
        <time>2020-08-25T06:40:05.000Z</time>
      </trkpt>
      <trkpt lat="44.37258" lon="3.5242">
        <ele>516.1</ele>
        <time>2020-08-25T06:40:07.000Z</time>
      </trkpt>
      <trkpt lat="44.37254" lon="3.52421">
        <ele>516.2</ele>
        <time>2020-08-25T06:40:08.000Z</time>
      </trkpt>
      <trkpt lat="44.37251" lon="3.52423">
        <ele>516.2</ele>
        <time>2020-08-25T06:40:09.000Z</time>
      </trkpt>
      <trkpt lat="44.37248" lon="3.52424">
        <ele>516.2</ele>
        <time>2020-08-25T06:40:10.000Z</time>
      </trkpt>
      <trkpt lat="44.37244" lon="3.52425">
        <ele>516.3</ele>
        <time>2020-08-25T06:40:12.000Z</time>
      </trkpt>
      <trkpt lat="44.3724" lon="3.52426">
        <ele>516.3</ele>
        <time>2020-08-25T06:40:13.000Z</time>
      </trkpt>
      <trkpt lat="44.37237" lon="3.52428">
        <ele>516.3</ele>
        <time>2020-08-25T06:40:14.000Z</time>
      </trkpt>
      <trkpt lat="44.37234" lon="3.52429">
        <ele>516.3</ele>
        <time>2020-08-25T06:40:15.000Z</time>
      </trkpt>
      <trkpt lat="44.37228" lon="3.52431">
        <ele>516.3</ele>
        <time>2020-08-25T06:40:17.000Z</time>
      </trkpt>
      <trkpt lat="44.37222" lon="3.52432">
        <ele>516.3</ele>
        <time>2020-08-25T06:40:19.000Z</time>
      </trkpt>
      <trkpt lat="44.37218" lon="3.52432">
        <ele>516.2</ele>
        <time>2020-08-25T06:40:20.000Z</time>
      </trkpt>
      <trkpt lat="44.37211" lon="3.52432">
        <ele>516.2</ele>
        <time>2020-08-25T06:40:22.000Z</time>
      </trkpt>
      <trkpt lat="44.37204" lon="3.52434">
        <ele>516.2</ele>
        <time>2020-08-25T06:40:24.000Z</time>
      </trkpt>
      <trkpt lat="44.372" lon="3.52436">
        <ele>516.2</ele>
        <time>2020-08-25T06:40:25.000Z</time>
      </trkpt>
      <trkpt lat="44.37195" lon="3.52438">
        <ele>516.2</ele>
        <time>2020-08-25T06:40:27.000Z</time>
      </trkpt>
      <trkpt lat="44.37191" lon="3.5244">
        <ele>516.2</ele>
        <time>2020-08-25T06:40:28.000Z</time>
      </trkpt>
      <trkpt lat="44.37187" lon="3.52441">
        <ele>516.2</ele>
        <time>2020-08-25T06:40:29.000Z</time>
      </trkpt>
      <trkpt lat="44.37182" lon="3.52443">
        <ele>516.2</ele>
        <time>2020-08-25T06:40:30.000Z</time>
      </trkpt>
      <trkpt lat="44.37176" lon="3.52447">
        <ele>516.2</ele>
        <time>2020-08-25T06:40:32.000Z</time>
      </trkpt>
      <trkpt lat="44.3717" lon="3.52451">
        <ele>516.1</ele>
        <time>2020-08-25T06:40:34.000Z</time>
      </trkpt>
      <trkpt lat="44.37168" lon="3.52453">
        <ele>516.1</ele>
        <time>2020-08-25T06:40:35.000Z</time>
      </trkpt>
      <trkpt lat="44.37165" lon="3.52455">
        <ele>516.1</ele>
        <time>2020-08-25T06:40:36.000Z</time>
      </trkpt>
      <trkpt lat="44.3716" lon="3.52458">
        <ele>516</ele>
        <time>2020-08-25T06:40:38.000Z</time>
      </trkpt>
      <trkpt lat="44.37156" lon="3.52459">
        <ele>516</ele>
        <time>2020-08-25T06:40:39.000Z</time>
      </trkpt>
      <trkpt lat="44.37151" lon="3.52463">
        <ele>516</ele>
        <time>2020-08-25T06:40:41.000Z</time>
      </trkpt>
      <trkpt lat="44.37148" lon="3.52464">
        <ele>515.9</ele>
        <time>2020-08-25T06:40:42.000Z</time>
      </trkpt>
      <trkpt lat="44.37145" lon="3.52465">
        <ele>515.9</ele>
        <time>2020-08-25T06:40:43.000Z</time>
      </trkpt>
      <trkpt lat="44.37141" lon="3.52467">
        <ele>515.8</ele>
        <time>2020-08-25T06:40:44.000Z</time>
      </trkpt>
      <trkpt lat="44.37136" lon="3.52467">
        <ele>515.8</ele>
        <time>2020-08-25T06:40:46.000Z</time>
      </trkpt>
      <trkpt lat="44.37131" lon="3.52468">
        <ele>515.7</ele>
        <time>2020-08-25T06:40:48.000Z</time>
      </trkpt>
      <trkpt lat="44.37127" lon="3.52469">
        <ele>515.7</ele>
        <time>2020-08-25T06:40:49.000Z</time>
      </trkpt>
      <trkpt lat="44.37124" lon="3.5247">
        <ele>515.6</ele>
        <time>2020-08-25T06:40:50.000Z</time>
      </trkpt>
      <trkpt lat="44.37118" lon="3.52471">
        <ele>515.5</ele>
        <time>2020-08-25T06:40:52.000Z</time>
      </trkpt>
      <trkpt lat="44.37115" lon="3.52472">
        <ele>515.5</ele>
        <time>2020-08-25T06:40:53.000Z</time>
      </trkpt>
      <trkpt lat="44.3711" lon="3.52473">
        <ele>515.4</ele>
        <time>2020-08-25T06:40:55.000Z</time>
      </trkpt>
      <trkpt lat="44.37106" lon="3.52474">
        <ele>515.3</ele>
        <time>2020-08-25T06:40:57.000Z</time>
      </trkpt>
      <trkpt lat="44.37101" lon="3.52474">
        <ele>515.2</ele>
        <time>2020-08-25T06:40:59.000Z</time>
      </trkpt>
      <trkpt lat="44.37098" lon="3.52475">
        <ele>515.1</ele>
        <time>2020-08-25T06:41:01.000Z</time>
      </trkpt>
      <trkpt lat="44.37095" lon="3.52476">
        <ele>515.1</ele>
        <time>2020-08-25T06:41:03.000Z</time>
      </trkpt>
      <trkpt lat="44.37093" lon="3.52476">
        <ele>515.1</ele>
        <time>2020-08-25T06:41:04.000Z</time>
      </trkpt>
      <trkpt lat="44.37092" lon="3.52476">
        <ele>515</ele>
        <time>2020-08-25T06:41:05.000Z</time>
      </trkpt>
      <trkpt lat="44.37091" lon="3.52476">
        <ele>515</ele>
        <time>2020-08-25T06:41:06.000Z</time>
      </trkpt>
      <trkpt lat="44.37085" lon="3.52477">
        <ele>515</ele>
        <time>2020-08-25T06:41:08.000Z</time>
      </trkpt>
      <trkpt lat="44.37082" lon="3.52478">
        <ele>515</ele>
        <time>2020-08-25T06:41:09.000Z</time>
      </trkpt>
      <trkpt lat="44.37079" lon="3.52478">
        <ele>515</ele>
        <time>2020-08-25T06:41:10.000Z</time>
      </trkpt>
      <trkpt lat="44.37073" lon="3.52479">
        <ele>514.9</ele>
        <time>2020-08-25T06:41:12.000Z</time>
      </trkpt>
      <trkpt lat="44.37066" lon="3.52481">
        <ele>514.8</ele>
        <time>2020-08-25T06:41:14.000Z</time>
      </trkpt>
      <trkpt lat="44.3706" lon="3.52484">
        <ele>514.7</ele>
        <time>2020-08-25T06:41:16.000Z</time>
      </trkpt>
      <trkpt lat="44.37057" lon="3.52484">
        <ele>514.6</ele>
        <time>2020-08-25T06:41:17.000Z</time>
      </trkpt>
      <trkpt lat="44.37053" lon="3.52486">
        <ele>514.5</ele>
        <time>2020-08-25T06:41:18.000Z</time>
      </trkpt>
      <trkpt lat="44.37045" lon="3.52488">
        <ele>514.4</ele>
        <time>2020-08-25T06:41:20.000Z</time>
      </trkpt>
      <trkpt lat="44.37041" lon="3.5249">
        <ele>514.3</ele>
        <time>2020-08-25T06:41:21.000Z</time>
      </trkpt>
      <trkpt lat="44.37035" lon="3.52492">
        <ele>514.2</ele>
        <time>2020-08-25T06:41:23.000Z</time>
      </trkpt>
      <trkpt lat="44.37027" lon="3.52493">
        <ele>514.2</ele>
        <time>2020-08-25T06:41:25.000Z</time>
      </trkpt>
      <trkpt lat="44.37021" lon="3.52495">
        <ele>514.1</ele>
        <time>2020-08-25T06:41:27.000Z</time>
      </trkpt>
      <trkpt lat="44.37018" lon="3.52496">
        <ele>514.1</ele>
        <time>2020-08-25T06:41:28.000Z</time>
      </trkpt>
      <trkpt lat="44.37012" lon="3.52497">
        <ele>514.1</ele>
        <time>2020-08-25T06:41:30.000Z</time>
      </trkpt>
      <trkpt lat="44.37006" lon="3.52498">
        <ele>514</ele>
        <time>2020-08-25T06:41:32.000Z</time>
      </trkpt>
      <trkpt lat="44.37003" lon="3.52498">
        <ele>514</ele>
        <time>2020-08-25T06:41:33.000Z</time>
      </trkpt>
      <trkpt lat="44.36999" lon="3.52499">
        <ele>514</ele>
        <time>2020-08-25T06:41:34.000Z</time>
      </trkpt>
      <trkpt lat="44.36993" lon="3.525">
        <ele>513.9</ele>
        <time>2020-08-25T06:41:36.000Z</time>
      </trkpt>
      <trkpt lat="44.36989" lon="3.52499">
        <ele>513.9</ele>
        <time>2020-08-25T06:41:37.000Z</time>
      </trkpt>
      <trkpt lat="44.36982" lon="3.525">
        <ele>513.8</ele>
        <time>2020-08-25T06:41:39.000Z</time>
      </trkpt>
      <trkpt lat="44.36978" lon="3.52501">
        <ele>513.8</ele>
        <time>2020-08-25T06:41:40.000Z</time>
      </trkpt>
      <trkpt lat="44.36975" lon="3.52502">
        <ele>513.8</ele>
        <time>2020-08-25T06:41:41.000Z</time>
      </trkpt>
      <trkpt lat="44.36972" lon="3.52503">
        <ele>513.8</ele>
        <time>2020-08-25T06:41:42.000Z</time>
      </trkpt>
      <trkpt lat="44.36965" lon="3.52505">
        <ele>513.8</ele>
        <time>2020-08-25T06:41:44.000Z</time>
      </trkpt>
      <trkpt lat="44.36961" lon="3.52506">
        <ele>513.8</ele>
        <time>2020-08-25T06:41:45.000Z</time>
      </trkpt>
      <trkpt lat="44.36954" lon="3.52508">
        <ele>513.8</ele>
        <time>2020-08-25T06:41:47.000Z</time>
      </trkpt>
      <trkpt lat="44.3695" lon="3.52509">
        <ele>513.8</ele>
        <time>2020-08-25T06:41:48.000Z</time>
      </trkpt>
      <trkpt lat="44.36943" lon="3.5251">
        <ele>513.7</ele>
        <time>2020-08-25T06:41:50.000Z</time>
      </trkpt>
      <trkpt lat="44.36936" lon="3.5251">
        <ele>513.6</ele>
        <time>2020-08-25T06:41:52.000Z</time>
      </trkpt>
      <trkpt lat="44.36932" lon="3.52511">
        <ele>513.6</ele>
        <time>2020-08-25T06:41:53.000Z</time>
      </trkpt>
      <trkpt lat="44.36926" lon="3.52512">
        <ele>513.5</ele>
        <time>2020-08-25T06:41:55.000Z</time>
      </trkpt>
      <trkpt lat="44.36919" lon="3.52513">
        <ele>513.4</ele>
        <time>2020-08-25T06:41:57.000Z</time>
      </trkpt>
      <trkpt lat="44.36915" lon="3.52513">
        <ele>513.4</ele>
        <time>2020-08-25T06:41:58.000Z</time>
      </trkpt>
      <trkpt lat="44.36912" lon="3.52513">
        <ele>513.4</ele>
        <time>2020-08-25T06:41:59.000Z</time>
      </trkpt>
      <trkpt lat="44.36904" lon="3.52513">
        <ele>513.4</ele>
        <time>2020-08-25T06:42:01.000Z</time>
      </trkpt>
      <trkpt lat="44.36897" lon="3.52513">
        <ele>513.5</ele>
        <time>2020-08-25T06:42:03.000Z</time>
      </trkpt>
      <trkpt lat="44.36889" lon="3.52511">
        <ele>513.8</ele>
        <time>2020-08-25T06:42:05.000Z</time>
      </trkpt>
      <trkpt lat="44.36881" lon="3.52511">
        <ele>514.1</ele>
        <time>2020-08-25T06:42:07.000Z</time>
      </trkpt>
      <trkpt lat="44.36878" lon="3.52511">
        <ele>514.2</ele>
        <time>2020-08-25T06:42:08.000Z</time>
      </trkpt>
      <trkpt lat="44.36871" lon="3.52513">
        <ele>514.5</ele>
        <time>2020-08-25T06:42:10.000Z</time>
      </trkpt>
      <trkpt lat="44.36867" lon="3.52513">
        <ele>514.6</ele>
        <time>2020-08-25T06:42:11.000Z</time>
      </trkpt>
      <trkpt lat="44.36861" lon="3.52512">
        <ele>514.9</ele>
        <time>2020-08-25T06:42:13.000Z</time>
      </trkpt>
      <trkpt lat="44.36855" lon="3.52514">
        <ele>515.1</ele>
        <time>2020-08-25T06:42:15.000Z</time>
      </trkpt>
      <trkpt lat="44.3685" lon="3.52516">
        <ele>515.1</ele>
        <time>2020-08-25T06:42:17.000Z</time>
      </trkpt>
      <trkpt lat="44.36846" lon="3.52516">
        <ele>515.1</ele>
        <time>2020-08-25T06:42:18.000Z</time>
      </trkpt>
      <trkpt lat="44.36844" lon="3.52516">
        <ele>515.2</ele>
        <time>2020-08-25T06:42:19.000Z</time>
      </trkpt>
      <trkpt lat="44.36842" lon="3.52516">
        <ele>515.2</ele>
        <time>2020-08-25T06:42:20.000Z</time>
      </trkpt>
      <trkpt lat="44.36835" lon="3.52516">
        <ele>515.2</ele>
        <time>2020-08-25T06:42:22.000Z</time>
      </trkpt>
      <trkpt lat="44.36829" lon="3.52516">
        <ele>515.2</ele>
        <time>2020-08-25T06:42:24.000Z</time>
      </trkpt>
      <trkpt lat="44.36826" lon="3.52517">
        <ele>515.2</ele>
        <time>2020-08-25T06:42:25.000Z</time>
      </trkpt>
      <trkpt lat="44.36819" lon="3.52518">
        <ele>515.3</ele>
        <time>2020-08-25T06:42:27.000Z</time>
      </trkpt>
      <trkpt lat="44.36815" lon="3.52519">
        <ele>515.4</ele>
        <time>2020-08-25T06:42:28.000Z</time>
      </trkpt>
      <trkpt lat="44.36811" lon="3.5252">
        <ele>515.5</ele>
        <time>2020-08-25T06:42:29.000Z</time>
      </trkpt>
      <trkpt lat="44.36807" lon="3.5252">
        <ele>515.6</ele>
        <time>2020-08-25T06:42:30.000Z</time>
      </trkpt>
      <trkpt lat="44.368" lon="3.52522">
        <ele>515.8</ele>
        <time>2020-08-25T06:42:32.000Z</time>
      </trkpt>
      <trkpt lat="44.36795" lon="3.52524">
        <ele>516.1</ele>
        <time>2020-08-25T06:42:34.000Z</time>
      </trkpt>
      <trkpt lat="44.36789" lon="3.52526">
        <ele>516.3</ele>
        <time>2020-08-25T06:42:36.000Z</time>
      </trkpt>
      <trkpt lat="44.36784" lon="3.52529">
        <ele>516.6</ele>
        <time>2020-08-25T06:42:38.000Z</time>
      </trkpt>
      <trkpt lat="44.36778" lon="3.52532">
        <ele>516.9</ele>
        <time>2020-08-25T06:42:40.000Z</time>
      </trkpt>
      <trkpt lat="44.36774" lon="3.52536">
        <ele>517.3</ele>
        <time>2020-08-25T06:42:42.000Z</time>
      </trkpt>
      <trkpt lat="44.36771" lon="3.52538">
        <ele>517.5</ele>
        <time>2020-08-25T06:42:43.000Z</time>
      </trkpt>
      <trkpt lat="44.3677" lon="3.52539">
        <ele>517.6</ele>
        <time>2020-08-25T06:42:44.000Z</time>
      </trkpt>
      <trkpt lat="44.36768" lon="3.52542">
        <ele>517.8</ele>
        <time>2020-08-25T06:42:46.000Z</time>
      </trkpt>
      <trkpt lat="44.36765" lon="3.52545">
        <ele>518</ele>
        <time>2020-08-25T06:42:47.000Z</time>
      </trkpt>
      <trkpt lat="44.36764" lon="3.52547">
        <ele>518.1</ele>
        <time>2020-08-25T06:42:48.000Z</time>
      </trkpt>
      <trkpt lat="44.3676" lon="3.52549">
        <ele>518.4</ele>
        <time>2020-08-25T06:42:50.000Z</time>
      </trkpt>
      <trkpt lat="44.36757" lon="3.5255">
        <ele>518.6</ele>
        <time>2020-08-25T06:42:51.000Z</time>
      </trkpt>
      <trkpt lat="44.36753" lon="3.52552">
        <ele>518.9</ele>
        <time>2020-08-25T06:42:53.000Z</time>
      </trkpt>
      <trkpt lat="44.36751" lon="3.52554">
        <ele>519.1</ele>
        <time>2020-08-25T06:42:54.000Z</time>
      </trkpt>
      <trkpt lat="44.36747" lon="3.52556">
        <ele>519.4</ele>
        <time>2020-08-25T06:42:56.000Z</time>
      </trkpt>
      <trkpt lat="44.36743" lon="3.52557">
        <ele>519.6</ele>
        <time>2020-08-25T06:42:57.000Z</time>
      </trkpt>
      <trkpt lat="44.36742" lon="3.52557">
        <ele>519.7</ele>
        <time>2020-08-25T06:42:58.000Z</time>
      </trkpt>
      <trkpt lat="44.36739" lon="3.52557">
        <ele>520</ele>
        <time>2020-08-25T06:42:59.000Z</time>
      </trkpt>
      <trkpt lat="44.36733" lon="3.52558">
        <ele>520.3</ele>
        <time>2020-08-25T06:43:01.000Z</time>
      </trkpt>
      <trkpt lat="44.36732" lon="3.52558">
        <ele>520.5</ele>
        <time>2020-08-25T06:43:02.000Z</time>
      </trkpt>
      <trkpt lat="44.3673" lon="3.52559">
        <ele>520.6</ele>
        <time>2020-08-25T06:43:03.000Z</time>
      </trkpt>
      <trkpt lat="44.36728" lon="3.52559">
        <ele>520.8</ele>
        <time>2020-08-25T06:43:04.000Z</time>
      </trkpt>
      <trkpt lat="44.36724" lon="3.5256">
        <ele>521</ele>
        <time>2020-08-25T06:43:06.000Z</time>
      </trkpt>
      <trkpt lat="44.3672" lon="3.52562">
        <ele>521.3</ele>
        <time>2020-08-25T06:43:07.000Z</time>
      </trkpt>
      <trkpt lat="44.36719" lon="3.52562">
        <ele>521.4</ele>
        <time>2020-08-25T06:43:08.000Z</time>
      </trkpt>
      <trkpt lat="44.36717" lon="3.52562">
        <ele>521.5</ele>
        <time>2020-08-25T06:43:09.000Z</time>
      </trkpt>
      <trkpt lat="44.36713" lon="3.52563">
        <ele>521.8</ele>
        <time>2020-08-25T06:43:11.000Z</time>
      </trkpt>
      <trkpt lat="44.3671" lon="3.52563">
        <ele>522.1</ele>
        <time>2020-08-25T06:43:12.000Z</time>
      </trkpt>
      <trkpt lat="44.36706" lon="3.52564">
        <ele>522.4</ele>
        <time>2020-08-25T06:43:14.000Z</time>
      </trkpt>
      <trkpt lat="44.36702" lon="3.52565">
        <ele>522.7</ele>
        <time>2020-08-25T06:43:16.000Z</time>
      </trkpt>
      <trkpt lat="44.36699" lon="3.52566">
        <ele>522.9</ele>
        <time>2020-08-25T06:43:17.000Z</time>
      </trkpt>
      <trkpt lat="44.36697" lon="3.52566">
        <ele>523.1</ele>
        <time>2020-08-25T06:43:18.000Z</time>
      </trkpt>
      <trkpt lat="44.36693" lon="3.52567">
        <ele>523.4</ele>
        <time>2020-08-25T06:43:20.000Z</time>
      </trkpt>
      <trkpt lat="44.36689" lon="3.52568">
        <ele>523.6</ele>
        <time>2020-08-25T06:43:21.000Z</time>
      </trkpt>
      <trkpt lat="44.36688" lon="3.52569">
        <ele>523.7</ele>
        <time>2020-08-25T06:43:22.000Z</time>
      </trkpt>
      <trkpt lat="44.36685" lon="3.5257">
        <ele>523.9</ele>
        <time>2020-08-25T06:43:24.000Z</time>
      </trkpt>
      <trkpt lat="44.36682" lon="3.52571">
        <ele>524.1</ele>
        <time>2020-08-25T06:43:25.000Z</time>
      </trkpt>
      <trkpt lat="44.36679" lon="3.52574">
        <ele>524.4</ele>
        <time>2020-08-25T06:43:27.000Z</time>
      </trkpt>
      <trkpt lat="44.36676" lon="3.52576">
        <ele>524.7</ele>
        <time>2020-08-25T06:43:29.000Z</time>
      </trkpt>
      <trkpt lat="44.36672" lon="3.52579">
        <ele>525</ele>
        <time>2020-08-25T06:43:30.000Z</time>
      </trkpt>
      <trkpt lat="44.36672" lon="3.5258">
        <ele>525.1</ele>
        <time>2020-08-25T06:43:31.000Z</time>
      </trkpt>
      <trkpt lat="44.36668" lon="3.52584">
        <ele>525.4</ele>
        <time>2020-08-25T06:43:33.000Z</time>
      </trkpt>
      <trkpt lat="44.36665" lon="3.52587">
        <ele>525.7</ele>
        <time>2020-08-25T06:43:34.000Z</time>
      </trkpt>
      <trkpt lat="44.36664" lon="3.52587">
        <ele>525.8</ele>
        <time>2020-08-25T06:43:35.000Z</time>
      </trkpt>
      <trkpt lat="44.36662" lon="3.5259">
        <ele>526</ele>
        <time>2020-08-25T06:43:36.000Z</time>
      </trkpt>
      <trkpt lat="44.36661" lon="3.52591">
        <ele>526.1</ele>
        <time>2020-08-25T06:43:37.000Z</time>
      </trkpt>
      <trkpt lat="44.36659" lon="3.52595">
        <ele>526.4</ele>
        <time>2020-08-25T06:43:39.000Z</time>
      </trkpt>
      <trkpt lat="44.36658" lon="3.52598">
        <ele>526.6</ele>
        <time>2020-08-25T06:43:40.000Z</time>
      </trkpt>
      <trkpt lat="44.36657" lon="3.526">
        <ele>526.8</ele>
        <time>2020-08-25T06:43:42.000Z</time>
      </trkpt>
      <trkpt lat="44.36655" lon="3.52603">
        <ele>527</ele>
        <time>2020-08-25T06:43:43.000Z</time>
      </trkpt>
      <trkpt lat="44.36653" lon="3.52605">
        <ele>527.2</ele>
        <time>2020-08-25T06:43:45.000Z</time>
      </trkpt>
      <trkpt lat="44.3665" lon="3.52606">
        <ele>527.4</ele>
        <time>2020-08-25T06:43:46.000Z</time>
      </trkpt>
      <trkpt lat="44.36648" lon="3.52607">
        <ele>527.6</ele>
        <time>2020-08-25T06:43:47.000Z</time>
      </trkpt>
      <trkpt lat="44.36645" lon="3.52607">
        <ele>527.9</ele>
        <time>2020-08-25T06:43:49.000Z</time>
      </trkpt>
      <trkpt lat="44.36641" lon="3.52607">
        <ele>528.2</ele>
        <time>2020-08-25T06:43:50.000Z</time>
      </trkpt>
      <trkpt lat="44.36641" lon="3.52607">
        <ele>528.3</ele>
        <time>2020-08-25T06:43:51.000Z</time>
      </trkpt>
      <trkpt lat="44.36639" lon="3.52605">
        <ele>528.4</ele>
        <time>2020-08-25T06:43:52.000Z</time>
      </trkpt>
      <trkpt lat="44.36636" lon="3.52602">
        <ele>528.7</ele>
        <time>2020-08-25T06:43:54.000Z</time>
      </trkpt>
      <trkpt lat="44.36635" lon="3.526">
        <ele>528.8</ele>
        <time>2020-08-25T06:43:55.000Z</time>
      </trkpt>
      <trkpt lat="44.36634" lon="3.52599">
        <ele>529</ele>
        <time>2020-08-25T06:43:56.000Z</time>
      </trkpt>
      <trkpt lat="44.36631" lon="3.52594">
        <ele>529.4</ele>
        <time>2020-08-25T06:43:58.000Z</time>
      </trkpt>
      <trkpt lat="44.3663" lon="3.52592">
        <ele>529.5</ele>
        <time>2020-08-25T06:44:00.000Z</time>
      </trkpt>
      <trkpt lat="44.36629" lon="3.5259">
        <ele>529.6</ele>
        <time>2020-08-25T06:44:01.000Z</time>
      </trkpt>
      <trkpt lat="44.36628" lon="3.52587">
        <ele>529.9</ele>
        <time>2020-08-25T06:44:03.000Z</time>
      </trkpt>
      <trkpt lat="44.36628" lon="3.52585">
        <ele>529.9</ele>
        <time>2020-08-25T06:44:04.000Z</time>
      </trkpt>
      <trkpt lat="44.36624" lon="3.52581">
        <ele>530.4</ele>
        <time>2020-08-25T06:44:06.000Z</time>
      </trkpt>
      <trkpt lat="44.36623" lon="3.52579">
        <ele>530.5</ele>
        <time>2020-08-25T06:44:07.000Z</time>
      </trkpt>
      <trkpt lat="44.36621" lon="3.52578">
        <ele>530.6</ele>
        <time>2020-08-25T06:44:08.000Z</time>
      </trkpt>
      <trkpt lat="44.36618" lon="3.52575">
        <ele>530.9</ele>
        <time>2020-08-25T06:44:10.000Z</time>
      </trkpt>
      <trkpt lat="44.36615" lon="3.52573">
        <ele>531.1</ele>
        <time>2020-08-25T06:44:12.000Z</time>
      </trkpt>
      <trkpt lat="44.36613" lon="3.52572">
        <ele>531.3</ele>
        <time>2020-08-25T06:44:13.000Z</time>
      </trkpt>
      <trkpt lat="44.36612" lon="3.52571">
        <ele>531.4</ele>
        <time>2020-08-25T06:44:14.000Z</time>
      </trkpt>
      <trkpt lat="44.36608" lon="3.52571">
        <ele>531.7</ele>
        <time>2020-08-25T06:44:16.000Z</time>
      </trkpt>
      <trkpt lat="44.36606" lon="3.52571">
        <ele>531.8</ele>
        <time>2020-08-25T06:44:17.000Z</time>
      </trkpt>
      <trkpt lat="44.36603" lon="3.52571">
        <ele>532</ele>
        <time>2020-08-25T06:44:19.000Z</time>
      </trkpt>
      <trkpt lat="44.366" lon="3.52571">
        <ele>532.3</ele>
        <time>2020-08-25T06:44:21.000Z</time>
      </trkpt>
      <trkpt lat="44.36597" lon="3.52571">
        <ele>532.5</ele>
        <time>2020-08-25T06:44:23.000Z</time>
      </trkpt>
      <trkpt lat="44.36594" lon="3.52571">
        <ele>532.7</ele>
        <time>2020-08-25T06:44:24.000Z</time>
      </trkpt>
      <trkpt lat="44.36591" lon="3.52573">
        <ele>532.9</ele>
        <time>2020-08-25T06:44:26.000Z</time>
      </trkpt>
      <trkpt lat="44.36589" lon="3.52573">
        <ele>533.1</ele>
        <time>2020-08-25T06:44:27.000Z</time>
      </trkpt>
      <trkpt lat="44.36586" lon="3.52574">
        <ele>533.3</ele>
        <time>2020-08-25T06:44:29.000Z</time>
      </trkpt>
      <trkpt lat="44.36584" lon="3.52574">
        <ele>533.4</ele>
        <time>2020-08-25T06:44:30.000Z</time>
      </trkpt>
      <trkpt lat="44.36583" lon="3.52575">
        <ele>533.6</ele>
        <time>2020-08-25T06:44:31.000Z</time>
      </trkpt>
      <trkpt lat="44.3658" lon="3.52574">
        <ele>533.8</ele>
        <time>2020-08-25T06:44:33.000Z</time>
      </trkpt>
      <trkpt lat="44.36579" lon="3.52574">
        <ele>533.9</ele>
        <time>2020-08-25T06:44:34.000Z</time>
      </trkpt>
      <trkpt lat="44.36576" lon="3.52575">
        <ele>534</ele>
        <time>2020-08-25T06:44:35.000Z</time>
      </trkpt>
      <trkpt lat="44.36574" lon="3.52575">
        <ele>534.2</ele>
        <time>2020-08-25T06:44:37.000Z</time>
      </trkpt>
      <trkpt lat="44.36572" lon="3.52575">
        <ele>534.4</ele>
        <time>2020-08-25T06:44:38.000Z</time>
      </trkpt>
      <trkpt lat="44.36568" lon="3.52576">
        <ele>534.6</ele>
        <time>2020-08-25T06:44:40.000Z</time>
      </trkpt>
      <trkpt lat="44.36567" lon="3.52577">
        <ele>534.8</ele>
        <time>2020-08-25T06:44:41.000Z</time>
      </trkpt>
      <trkpt lat="44.36564" lon="3.52577">
        <ele>535</ele>
        <time>2020-08-25T06:44:43.000Z</time>
      </trkpt>
      <trkpt lat="44.36562" lon="3.52577">
        <ele>535.1</ele>
        <time>2020-08-25T06:44:44.000Z</time>
      </trkpt>
      <trkpt lat="44.3656" lon="3.52578">
        <ele>535.2</ele>
        <time>2020-08-25T06:44:45.000Z</time>
      </trkpt>
      <trkpt lat="44.36558" lon="3.52579">
        <ele>535.4</ele>
        <time>2020-08-25T06:44:46.000Z</time>
      </trkpt>
      <trkpt lat="44.36557" lon="3.5258">
        <ele>535.5</ele>
        <time>2020-08-25T06:44:47.000Z</time>
      </trkpt>
      <trkpt lat="44.36554" lon="3.52581">
        <ele>535.7</ele>
        <time>2020-08-25T06:44:49.000Z</time>
      </trkpt>
      <trkpt lat="44.36552" lon="3.52582">
        <ele>535.8</ele>
        <time>2020-08-25T06:44:50.000Z</time>
      </trkpt>
      <trkpt lat="44.36549" lon="3.52583">
        <ele>536</ele>
        <time>2020-08-25T06:44:52.000Z</time>
      </trkpt>
      <trkpt lat="44.36546" lon="3.52583">
        <ele>536.1</ele>
        <time>2020-08-25T06:44:53.000Z</time>
      </trkpt>
      <trkpt lat="44.36543" lon="3.52582">
        <ele>536.3</ele>
        <time>2020-08-25T06:44:55.000Z</time>
      </trkpt>
      <trkpt lat="44.36541" lon="3.52582">
        <ele>536.4</ele>
        <time>2020-08-25T06:44:56.000Z</time>
      </trkpt>
      <trkpt lat="44.36538" lon="3.5258">
        <ele>536.6</ele>
        <time>2020-08-25T06:44:58.000Z</time>
      </trkpt>
      <trkpt lat="44.36536" lon="3.52578">
        <ele>536.8</ele>
        <time>2020-08-25T06:45:00.000Z</time>
      </trkpt>
      <trkpt lat="44.36534" lon="3.52577">
        <ele>537.1</ele>
        <time>2020-08-25T06:45:01.000Z</time>
      </trkpt>
      <trkpt lat="44.36533" lon="3.52576">
        <ele>537.1</ele>
        <time>2020-08-25T06:45:02.000Z</time>
      </trkpt>
      <trkpt lat="44.3653" lon="3.52574">
        <ele>537.1</ele>
        <time>2020-08-25T06:45:04.000Z</time>
      </trkpt>
      <trkpt lat="44.36528" lon="3.52573">
        <ele>537.1</ele>
        <time>2020-08-25T06:45:05.000Z</time>
      </trkpt>
      <trkpt lat="44.36523" lon="3.52571">
        <ele>537.2</ele>
        <time>2020-08-25T06:45:07.000Z</time>
      </trkpt>
      <trkpt lat="44.3652" lon="3.5257">
        <ele>537.2</ele>
        <time>2020-08-25T06:45:08.000Z</time>
      </trkpt>
      <trkpt lat="44.36517" lon="3.52569">
        <ele>537.2</ele>
        <time>2020-08-25T06:45:09.000Z</time>
      </trkpt>
      <trkpt lat="44.36514" lon="3.52569">
        <ele>537.2</ele>
        <time>2020-08-25T06:45:10.000Z</time>
      </trkpt>
      <trkpt lat="44.36509" lon="3.52567">
        <ele>537.1</ele>
        <time>2020-08-25T06:45:12.000Z</time>
      </trkpt>
      <trkpt lat="44.36505" lon="3.52566">
        <ele>537.1</ele>
        <time>2020-08-25T06:45:13.000Z</time>
      </trkpt>
      <trkpt lat="44.36503" lon="3.52565">
        <ele>537.1</ele>
        <time>2020-08-25T06:45:14.000Z</time>
      </trkpt>
      <trkpt lat="44.36498" lon="3.52564">
        <ele>537</ele>
        <time>2020-08-25T06:45:16.000Z</time>
      </trkpt>
      <trkpt lat="44.36495" lon="3.52564">
        <ele>537</ele>
        <time>2020-08-25T06:45:17.000Z</time>
      </trkpt>
      <trkpt lat="44.36492" lon="3.52564">
        <ele>537</ele>
        <time>2020-08-25T06:45:18.000Z</time>
      </trkpt>
      <trkpt lat="44.36488" lon="3.52564">
        <ele>537</ele>
        <time>2020-08-25T06:45:19.000Z</time>
      </trkpt>
      <trkpt lat="44.36484" lon="3.52564">
        <ele>536.9</ele>
        <time>2020-08-25T06:45:21.000Z</time>
      </trkpt>
      <trkpt lat="44.3648" lon="3.52564">
        <ele>536.9</ele>
        <time>2020-08-25T06:45:22.000Z</time>
      </trkpt>
      <trkpt lat="44.36477" lon="3.52564">
        <ele>536.9</ele>
        <time>2020-08-25T06:45:23.000Z</time>
      </trkpt>
      <trkpt lat="44.36473" lon="3.52563">
        <ele>536.9</ele>
        <time>2020-08-25T06:45:24.000Z</time>
      </trkpt>
      <trkpt lat="44.36469" lon="3.52563">
        <ele>536.9</ele>
        <time>2020-08-25T06:45:25.000Z</time>
      </trkpt>
      <trkpt lat="44.36465" lon="3.52563">
        <ele>537</ele>
        <time>2020-08-25T06:45:27.000Z</time>
      </trkpt>
      <trkpt lat="44.3646" lon="3.52563">
        <ele>537</ele>
        <time>2020-08-25T06:45:28.000Z</time>
      </trkpt>
      <trkpt lat="44.36454" lon="3.52564">
        <ele>537</ele>
        <time>2020-08-25T06:45:30.000Z</time>
      </trkpt>
      <trkpt lat="44.3645" lon="3.52565">
        <ele>537.1</ele>
        <time>2020-08-25T06:45:31.000Z</time>
      </trkpt>
      <trkpt lat="44.36445" lon="3.52565">
        <ele>537.1</ele>
        <time>2020-08-25T06:45:33.000Z</time>
      </trkpt>
      <trkpt lat="44.36441" lon="3.52566">
        <ele>537.1</ele>
        <time>2020-08-25T06:45:34.000Z</time>
      </trkpt>
      <trkpt lat="44.36438" lon="3.52566">
        <ele>537.1</ele>
        <time>2020-08-25T06:45:35.000Z</time>
      </trkpt>
      <trkpt lat="44.36434" lon="3.52566">
        <ele>537</ele>
        <time>2020-08-25T06:45:36.000Z</time>
      </trkpt>
      <trkpt lat="44.36432" lon="3.52566">
        <ele>537</ele>
        <time>2020-08-25T06:45:37.000Z</time>
      </trkpt>
      <trkpt lat="44.36427" lon="3.52567">
        <ele>537</ele>
        <time>2020-08-25T06:45:38.000Z</time>
      </trkpt>
      <trkpt lat="44.36423" lon="3.52567">
        <ele>536.9</ele>
        <time>2020-08-25T06:45:40.000Z</time>
      </trkpt>
      <trkpt lat="44.36419" lon="3.52566">
        <ele>536.8</ele>
        <time>2020-08-25T06:45:41.000Z</time>
      </trkpt>
      <trkpt lat="44.36415" lon="3.52567">
        <ele>536.7</ele>
        <time>2020-08-25T06:45:42.000Z</time>
      </trkpt>
      <trkpt lat="44.3641" lon="3.52568">
        <ele>536.6</ele>
        <time>2020-08-25T06:45:44.000Z</time>
      </trkpt>
      <trkpt lat="44.36405" lon="3.52569">
        <ele>536.5</ele>
        <time>2020-08-25T06:45:45.000Z</time>
      </trkpt>
      <trkpt lat="44.36398" lon="3.5257">
        <ele>536.4</ele>
        <time>2020-08-25T06:45:47.000Z</time>
      </trkpt>
      <trkpt lat="44.36392" lon="3.5257">
        <ele>536.3</ele>
        <time>2020-08-25T06:45:48.000Z</time>
      </trkpt>
      <trkpt lat="44.36384" lon="3.52568">
        <ele>536.1</ele>
        <time>2020-08-25T06:45:50.000Z</time>
      </trkpt>
      <trkpt lat="44.36378" lon="3.52566">
        <ele>536</ele>
        <time>2020-08-25T06:45:51.000Z</time>
      </trkpt>
      <trkpt lat="44.36372" lon="3.52565">
        <ele>535.8</ele>
        <time>2020-08-25T06:45:52.000Z</time>
      </trkpt>
      <trkpt lat="44.36366" lon="3.52562">
        <ele>535.6</ele>
        <time>2020-08-25T06:45:54.000Z</time>
      </trkpt>
      <trkpt lat="44.3636" lon="3.52559">
        <ele>535.5</ele>
        <time>2020-08-25T06:45:55.000Z</time>
      </trkpt>
      <trkpt lat="44.36354" lon="3.52557">
        <ele>535.3</ele>
        <time>2020-08-25T06:45:57.000Z</time>
      </trkpt>
      <trkpt lat="44.36344" lon="3.52553">
        <ele>535</ele>
        <time>2020-08-25T06:45:58.000Z</time>
      </trkpt>
      <trkpt lat="44.36338" lon="3.52551">
        <ele>534.8</ele>
        <time>2020-08-25T06:45:59.000Z</time>
      </trkpt>
      <trkpt lat="44.36327" lon="3.52548">
        <ele>534.5</ele>
        <time>2020-08-25T06:46:01.000Z</time>
      </trkpt>
      <trkpt lat="44.36316" lon="3.52545">
        <ele>534.3</ele>
        <time>2020-08-25T06:46:03.000Z</time>
      </trkpt>
      <trkpt lat="44.36311" lon="3.52544">
        <ele>534.2</ele>
        <time>2020-08-25T06:46:04.000Z</time>
      </trkpt>
      <trkpt lat="44.36301" lon="3.52544">
        <ele>533.9</ele>
        <time>2020-08-25T06:46:06.000Z</time>
      </trkpt>
      <trkpt lat="44.36295" lon="3.52543">
        <ele>533.8</ele>
        <time>2020-08-25T06:46:07.000Z</time>
      </trkpt>
      <trkpt lat="44.36284" lon="3.52543">
        <ele>533.5</ele>
        <time>2020-08-25T06:46:09.000Z</time>
      </trkpt>
      <trkpt lat="44.36279" lon="3.52541">
        <ele>533.3</ele>
        <time>2020-08-25T06:46:10.000Z</time>
      </trkpt>
      <trkpt lat="44.36273" lon="3.52539">
        <ele>533.2</ele>
        <time>2020-08-25T06:46:11.000Z</time>
      </trkpt>
      <trkpt lat="44.36263" lon="3.52532">
        <ele>532.9</ele>
        <time>2020-08-25T06:46:13.000Z</time>
      </trkpt>
      <trkpt lat="44.36252" lon="3.52525">
        <ele>532.6</ele>
        <time>2020-08-25T06:46:15.000Z</time>
      </trkpt>
      <trkpt lat="44.36247" lon="3.52521">
        <ele>532.5</ele>
        <time>2020-08-25T06:46:16.000Z</time>
      </trkpt>
      <trkpt lat="44.36236" lon="3.52521">
        <ele>532.2</ele>
        <time>2020-08-25T06:46:18.000Z</time>
      </trkpt>
      <trkpt lat="44.36224" lon="3.52519">
        <ele>532</ele>
        <time>2020-08-25T06:46:20.000Z</time>
      </trkpt>
      <trkpt lat="44.36214" lon="3.52513">
        <ele>531.9</ele>
        <time>2020-08-25T06:46:22.000Z</time>
      </trkpt>
      <trkpt lat="44.3621" lon="3.5251">
        <ele>531.9</ele>
        <time>2020-08-25T06:46:23.000Z</time>
      </trkpt>
      <trkpt lat="44.36203" lon="3.52502">
        <ele>531.8</ele>
        <time>2020-08-25T06:46:25.000Z</time>
      </trkpt>
      <trkpt lat="44.36194" lon="3.52494">
        <ele>531.7</ele>
        <time>2020-08-25T06:46:27.000Z</time>
      </trkpt>
      <trkpt lat="44.36184" lon="3.52489">
        <ele>531.6</ele>
        <time>2020-08-25T06:46:29.000Z</time>
      </trkpt>
      <trkpt lat="44.36179" lon="3.52487">
        <ele>531.5</ele>
        <time>2020-08-25T06:46:30.000Z</time>
      </trkpt>
      <trkpt lat="44.3617" lon="3.52486">
        <ele>531.4</ele>
        <time>2020-08-25T06:46:32.000Z</time>
      </trkpt>
      <trkpt lat="44.36165" lon="3.52485">
        <ele>531.4</ele>
        <time>2020-08-25T06:46:33.000Z</time>
      </trkpt>
      <trkpt lat="44.3616" lon="3.52485">
        <ele>531.3</ele>
        <time>2020-08-25T06:46:34.000Z</time>
      </trkpt>
      <trkpt lat="44.36151" lon="3.52485">
        <ele>531.3</ele>
        <time>2020-08-25T06:46:36.000Z</time>
      </trkpt>
      <trkpt lat="44.36146" lon="3.52485">
        <ele>531.3</ele>
        <time>2020-08-25T06:46:37.000Z</time>
      </trkpt>
      <trkpt lat="44.3614" lon="3.52485">
        <ele>531.3</ele>
        <time>2020-08-25T06:46:39.000Z</time>
      </trkpt>
      <trkpt lat="44.36136" lon="3.52486">
        <ele>531.3</ele>
        <time>2020-08-25T06:46:40.000Z</time>
      </trkpt>
      <trkpt lat="44.36128" lon="3.52486">
        <ele>531.3</ele>
        <time>2020-08-25T06:46:42.000Z</time>
      </trkpt>
      <trkpt lat="44.36124" lon="3.52486">
        <ele>531.3</ele>
        <time>2020-08-25T06:46:43.000Z</time>
      </trkpt>
      <trkpt lat="44.36117" lon="3.52486">
        <ele>531.2</ele>
        <time>2020-08-25T06:46:45.000Z</time>
      </trkpt>
      <trkpt lat="44.3611" lon="3.52487">
        <ele>531.1</ele>
        <time>2020-08-25T06:46:47.000Z</time>
      </trkpt>
      <trkpt lat="44.36102" lon="3.52487">
        <ele>530.7</ele>
        <time>2020-08-25T06:46:49.000Z</time>
      </trkpt>
      <trkpt lat="44.36093" lon="3.52487">
        <ele>530</ele>
        <time>2020-08-25T06:46:51.000Z</time>
      </trkpt>
      <trkpt lat="44.36087" lon="3.52487">
        <ele>529.5</ele>
        <time>2020-08-25T06:46:52.000Z</time>
      </trkpt>
      <trkpt lat="44.36081" lon="3.52487">
        <ele>528.9</ele>
        <time>2020-08-25T06:46:53.000Z</time>
      </trkpt>
      <trkpt lat="44.36067" lon="3.52486">
        <ele>527.6</ele>
        <time>2020-08-25T06:46:55.000Z</time>
      </trkpt>
      <trkpt lat="44.36059" lon="3.52483">
        <ele>526.9</ele>
        <time>2020-08-25T06:46:56.000Z</time>
      </trkpt>
      <trkpt lat="44.36045" lon="3.52477">
        <ele>525.9</ele>
        <time>2020-08-25T06:46:58.000Z</time>
      </trkpt>
      <trkpt lat="44.3603" lon="3.52472">
        <ele>525</ele>
        <time>2020-08-25T06:47:00.000Z</time>
      </trkpt>
      <trkpt lat="44.36023" lon="3.52471">
        <ele>524.6</ele>
        <time>2020-08-25T06:47:01.000Z</time>
      </trkpt>
      <trkpt lat="44.36009" lon="3.5247">
        <ele>524</ele>
        <time>2020-08-25T06:47:03.000Z</time>
      </trkpt>
      <trkpt lat="44.36002" lon="3.5247">
        <ele>523.8</ele>
        <time>2020-08-25T06:47:04.000Z</time>
      </trkpt>
      <trkpt lat="44.35995" lon="3.5247">
        <ele>523.6</ele>
        <time>2020-08-25T06:47:05.000Z</time>
      </trkpt>
      <trkpt lat="44.35988" lon="3.52469">
        <ele>523.4</ele>
        <time>2020-08-25T06:47:06.000Z</time>
      </trkpt>
      <trkpt lat="44.35982" lon="3.52469">
        <ele>523.2</ele>
        <time>2020-08-25T06:47:07.000Z</time>
      </trkpt>
      <trkpt lat="44.3597" lon="3.52467">
        <ele>522.8</ele>
        <time>2020-08-25T06:47:09.000Z</time>
      </trkpt>
      <trkpt lat="44.35958" lon="3.52461">
        <ele>522.3</ele>
        <time>2020-08-25T06:47:11.000Z</time>
      </trkpt>
      <trkpt lat="44.35952" lon="3.52458">
        <ele>522</ele>
        <time>2020-08-25T06:47:12.000Z</time>
      </trkpt>
      <trkpt lat="44.3594" lon="3.5245">
        <ele>521.6</ele>
        <time>2020-08-25T06:47:14.000Z</time>
      </trkpt>
      <trkpt lat="44.35933" lon="3.52445">
        <ele>521.4</ele>
        <time>2020-08-25T06:47:15.000Z</time>
      </trkpt>
      <trkpt lat="44.35921" lon="3.52436">
        <ele>520.9</ele>
        <time>2020-08-25T06:47:17.000Z</time>
      </trkpt>
      <trkpt lat="44.35909" lon="3.52428">
        <ele>520.4</ele>
        <time>2020-08-25T06:47:19.000Z</time>
      </trkpt>
      <trkpt lat="44.35896" lon="3.52421">
        <ele>519.9</ele>
        <time>2020-08-25T06:47:21.000Z</time>
      </trkpt>
      <trkpt lat="44.35889" lon="3.52418">
        <ele>519.7</ele>
        <time>2020-08-25T06:47:22.000Z</time>
      </trkpt>
      <trkpt lat="44.35874" lon="3.5241">
        <ele>519.2</ele>
        <time>2020-08-25T06:47:24.000Z</time>
      </trkpt>
      <trkpt lat="44.35867" lon="3.52407">
        <ele>519.1</ele>
        <time>2020-08-25T06:47:25.000Z</time>
      </trkpt>
      <trkpt lat="44.35853" lon="3.52403">
        <ele>519.1</ele>
        <time>2020-08-25T06:47:27.000Z</time>
      </trkpt>
      <trkpt lat="44.35839" lon="3.52398">
        <ele>519.2</ele>
        <time>2020-08-25T06:47:29.000Z</time>
      </trkpt>
      <trkpt lat="44.35826" lon="3.52395">
        <ele>519.4</ele>
        <time>2020-08-25T06:47:31.000Z</time>
      </trkpt>
      <trkpt lat="44.35813" lon="3.52392">
        <ele>519.6</ele>
        <time>2020-08-25T06:47:33.000Z</time>
      </trkpt>
      <trkpt lat="44.35801" lon="3.52389">
        <ele>519.9</ele>
        <time>2020-08-25T06:47:35.000Z</time>
      </trkpt>
      <trkpt lat="44.35796" lon="3.52388">
        <ele>520</ele>
        <time>2020-08-25T06:47:36.000Z</time>
      </trkpt>
      <trkpt lat="44.35791" lon="3.52387">
        <ele>520.1</ele>
        <time>2020-08-25T06:47:37.000Z</time>
      </trkpt>
      <trkpt lat="44.35782" lon="3.52385">
        <ele>520.3</ele>
        <time>2020-08-25T06:47:39.000Z</time>
      </trkpt>
      <trkpt lat="44.35779" lon="3.52384">
        <ele>520.4</ele>
        <time>2020-08-25T06:47:40.000Z</time>
      </trkpt>
      <trkpt lat="44.3577" lon="3.52381">
        <ele>520.5</ele>
        <time>2020-08-25T06:47:42.000Z</time>
      </trkpt>
      <trkpt lat="44.35764" lon="3.52379">
        <ele>520.6</ele>
        <time>2020-08-25T06:47:43.000Z</time>
      </trkpt>
      <trkpt lat="44.35754" lon="3.52377">
        <ele>520.8</ele>
        <time>2020-08-25T06:47:45.000Z</time>
      </trkpt>
      <trkpt lat="44.35749" lon="3.52375">
        <ele>520.8</ele>
        <time>2020-08-25T06:47:46.000Z</time>
      </trkpt>
      <trkpt lat="44.35739" lon="3.52371">
        <ele>520.8</ele>
        <time>2020-08-25T06:47:48.000Z</time>
      </trkpt>
      <trkpt lat="44.35733" lon="3.52368">
        <ele>520.7</ele>
        <time>2020-08-25T06:47:50.000Z</time>
      </trkpt>
      <trkpt lat="44.35727" lon="3.52365">
        <ele>520.6</ele>
        <time>2020-08-25T06:47:52.000Z</time>
      </trkpt>
      <trkpt lat="44.35718" lon="3.52364">
        <ele>520.4</ele>
        <time>2020-08-25T06:47:54.000Z</time>
      </trkpt>
      <trkpt lat="44.35713" lon="3.52366">
        <ele>520.3</ele>
        <time>2020-08-25T06:47:55.000Z</time>
      </trkpt>
      <trkpt lat="44.35704" lon="3.52372">
        <ele>520.1</ele>
        <time>2020-08-25T06:47:57.000Z</time>
      </trkpt>
      <trkpt lat="44.35697" lon="3.52378">
        <ele>520.2</ele>
        <time>2020-08-25T06:47:59.000Z</time>
      </trkpt>
      <trkpt lat="44.35688" lon="3.52385">
        <ele>520.2</ele>
        <time>2020-08-25T06:48:01.000Z</time>
      </trkpt>
      <trkpt lat="44.35684" lon="3.52388">
        <ele>520.1</ele>
        <time>2020-08-25T06:48:02.000Z</time>
      </trkpt>
      <trkpt lat="44.3568" lon="3.52389">
        <ele>520.1</ele>
        <time>2020-08-25T06:48:03.000Z</time>
      </trkpt>
      <trkpt lat="44.35672" lon="3.5239">
        <ele>519.8</ele>
        <time>2020-08-25T06:48:05.000Z</time>
      </trkpt>
      <trkpt lat="44.35668" lon="3.5239">
        <ele>519.6</ele>
        <time>2020-08-25T06:48:06.000Z</time>
      </trkpt>
      <trkpt lat="44.3566" lon="3.5239">
        <ele>519.3</ele>
        <time>2020-08-25T06:48:08.000Z</time>
      </trkpt>
      <trkpt lat="44.35657" lon="3.5239">
        <ele>519.1</ele>
        <time>2020-08-25T06:48:09.000Z</time>
      </trkpt>
      <trkpt lat="44.35648" lon="3.52392">
        <ele>518.7</ele>
        <time>2020-08-25T06:48:11.000Z</time>
      </trkpt>
      <trkpt lat="44.3564" lon="3.52394">
        <ele>518.5</ele>
        <time>2020-08-25T06:48:13.000Z</time>
      </trkpt>
      <trkpt lat="44.35634" lon="3.52391">
        <ele>518.4</ele>
        <time>2020-08-25T06:48:15.000Z</time>
      </trkpt>
      <trkpt lat="44.35632" lon="3.52388">
        <ele>518.4</ele>
        <time>2020-08-25T06:48:17.000Z</time>
      </trkpt>
      <trkpt lat="44.35632" lon="3.52387">
        <ele>518.4</ele>
        <time>2020-08-25T06:48:18.000Z</time>
      </trkpt>
      <trkpt lat="44.35631" lon="3.52383">
        <ele>518.4</ele>
        <time>2020-08-25T06:48:20.000Z</time>
      </trkpt>
      <trkpt lat="44.35631" lon="3.52382">
        <ele>518.4</ele>
        <time>2020-08-25T06:48:21.000Z</time>
      </trkpt>
      <trkpt lat="44.3563" lon="3.5238">
        <ele>518.4</ele>
        <time>2020-08-25T06:48:22.000Z</time>
      </trkpt>
      <trkpt lat="44.35629" lon="3.52375">
        <ele>518.4</ele>
        <time>2020-08-25T06:48:24.000Z</time>
      </trkpt>
      <trkpt lat="44.35629" lon="3.5237">
        <ele>518.5</ele>
        <time>2020-08-25T06:48:25.000Z</time>
      </trkpt>
      <trkpt lat="44.3563" lon="3.52367">
        <ele>518.5</ele>
        <time>2020-08-25T06:48:26.000Z</time>
      </trkpt>
      <trkpt lat="44.35631" lon="3.52365">
        <ele>518.5</ele>
        <time>2020-08-25T06:48:27.000Z</time>
      </trkpt>
      <trkpt lat="44.35632" lon="3.52364">
        <ele>518.6</ele>
        <time>2020-08-25T06:48:29.000Z</time>
      </trkpt>
      <trkpt lat="44.35633" lon="3.52363">
        <ele>518.6</ele>
        <time>2020-08-25T06:48:30.000Z</time>
      </trkpt>
      <trkpt lat="44.35634" lon="3.52362">
        <ele>518.6</ele>
        <time>2020-08-25T06:48:31.000Z</time>
      </trkpt>
      <trkpt lat="44.35633" lon="3.52357">
        <ele>518.7</ele>
        <time>2020-08-25T06:48:33.000Z</time>
      </trkpt>
      <trkpt lat="44.35633" lon="3.52355">
        <ele>518.7</ele>
        <time>2020-08-25T06:48:34.000Z</time>
      </trkpt>
      <trkpt lat="44.35632" lon="3.52353">
        <ele>518.8</ele>
        <time>2020-08-25T06:48:35.000Z</time>
      </trkpt>
      <trkpt lat="44.35629" lon="3.5235">
        <ele>519</ele>
        <time>2020-08-25T06:48:37.000Z</time>
      </trkpt>
      <trkpt lat="44.35626" lon="3.52346">
        <ele>519.2</ele>
        <time>2020-08-25T06:48:38.000Z</time>
      </trkpt>
      <trkpt lat="44.35624" lon="3.52343">
        <ele>519.3</ele>
        <time>2020-08-25T06:48:40.000Z</time>
      </trkpt>
      <trkpt lat="44.35623" lon="3.52342">
        <ele>519.3</ele>
        <time>2020-08-25T06:48:41.000Z</time>
      </trkpt>
      <trkpt lat="44.35619" lon="3.52338">
        <ele>519.4</ele>
        <time>2020-08-25T06:48:42.000Z</time>
      </trkpt>
      <trkpt lat="44.35618" lon="3.52336">
        <ele>519.4</ele>
        <time>2020-08-25T06:48:43.000Z</time>
      </trkpt>
      <trkpt lat="44.35614" lon="3.52332">
        <ele>519.4</ele>
        <time>2020-08-25T06:48:44.000Z</time>
      </trkpt>
      <trkpt lat="44.35611" lon="3.52329">
        <ele>519.4</ele>
        <time>2020-08-25T06:48:46.000Z</time>
      </trkpt>
      <trkpt lat="44.3561" lon="3.52328">
        <ele>519.4</ele>
        <time>2020-08-25T06:48:47.000Z</time>
      </trkpt>
      <trkpt lat="44.35607" lon="3.52326">
        <ele>519.3</ele>
        <time>2020-08-25T06:48:48.000Z</time>
      </trkpt>
      <trkpt lat="44.35604" lon="3.52323">
        <ele>519.3</ele>
        <time>2020-08-25T06:48:49.000Z</time>
      </trkpt>
      <trkpt lat="44.35599" lon="3.5232">
        <ele>519.1</ele>
        <time>2020-08-25T06:48:51.000Z</time>
      </trkpt>
      <trkpt lat="44.35597" lon="3.52316">
        <ele>519</ele>
        <time>2020-08-25T06:48:52.000Z</time>
      </trkpt>
      <trkpt lat="44.35596" lon="3.52315">
        <ele>519</ele>
        <time>2020-08-25T06:48:53.000Z</time>
      </trkpt>
      <trkpt lat="44.35595" lon="3.52311">
        <ele>518.9</ele>
        <time>2020-08-25T06:48:55.000Z</time>
      </trkpt>
      <trkpt lat="44.35594" lon="3.52309">
        <ele>518.8</ele>
        <time>2020-08-25T06:48:56.000Z</time>
      </trkpt>
      <trkpt lat="44.35591" lon="3.52302">
        <ele>518.6</ele>
        <time>2020-08-25T06:48:57.000Z</time>
      </trkpt>
      <trkpt lat="44.3559" lon="3.52298">
        <ele>518.5</ele>
        <time>2020-08-25T06:48:58.000Z</time>
      </trkpt>
      <trkpt lat="44.35589" lon="3.52297">
        <ele>518.5</ele>
        <time>2020-08-25T06:48:59.000Z</time>
      </trkpt>
      <trkpt lat="44.35587" lon="3.52292">
        <ele>518.4</ele>
        <time>2020-08-25T06:49:01.000Z</time>
      </trkpt>
      <trkpt lat="44.35585" lon="3.52289">
        <ele>518.3</ele>
        <time>2020-08-25T06:49:02.000Z</time>
      </trkpt>
      <trkpt lat="44.35566" lon="3.52257">
        <ele>518.3</ele>
        <time>2020-08-25T06:49:04.000Z</time>
      </trkpt>
      <trkpt lat="44.35563" lon="3.52252">
        <ele>518.2</ele>
        <time>2020-08-25T06:49:05.000Z</time>
      </trkpt>
      <trkpt lat="44.3556" lon="3.52247">
        <ele>518.2</ele>
        <time>2020-08-25T06:49:06.000Z</time>
      </trkpt>
      <trkpt lat="44.35557" lon="3.52241">
        <ele>518.3</ele>
        <time>2020-08-25T06:49:07.000Z</time>
      </trkpt>
      <trkpt lat="44.35555" lon="3.52236">
        <ele>518.3</ele>
        <time>2020-08-25T06:49:09.000Z</time>
      </trkpt>
      <trkpt lat="44.35551" lon="3.5223">
        <ele>518.4</ele>
        <time>2020-08-25T06:49:10.000Z</time>
      </trkpt>
      <trkpt lat="44.35549" lon="3.52227">
        <ele>518.5</ele>
        <time>2020-08-25T06:49:11.000Z</time>
      </trkpt>
      <trkpt lat="44.35547" lon="3.52224">
        <ele>518.6</ele>
        <time>2020-08-25T06:49:13.000Z</time>
      </trkpt>
      <trkpt lat="44.35544" lon="3.5222">
        <ele>518.7</ele>
        <time>2020-08-25T06:49:14.000Z</time>
      </trkpt>
      <trkpt lat="44.35541" lon="3.52216">
        <ele>518.8</ele>
        <time>2020-08-25T06:49:15.000Z</time>
      </trkpt>
      <trkpt lat="44.35538" lon="3.52209">
        <ele>518.9</ele>
        <time>2020-08-25T06:49:16.000Z</time>
      </trkpt>
      <trkpt lat="44.35535" lon="3.52205">
        <ele>519</ele>
        <time>2020-08-25T06:49:17.000Z</time>
      </trkpt>
      <trkpt lat="44.35534" lon="3.52203">
        <ele>519</ele>
        <time>2020-08-25T06:49:18.000Z</time>
      </trkpt>
      <trkpt lat="44.35531" lon="3.52198">
        <ele>518.9</ele>
        <time>2020-08-25T06:49:19.000Z</time>
      </trkpt>
      <trkpt lat="44.35528" lon="3.52193">
        <ele>518.9</ele>
        <time>2020-08-25T06:49:21.000Z</time>
      </trkpt>
      <trkpt lat="44.35525" lon="3.52188">
        <ele>518.8</ele>
        <time>2020-08-25T06:49:22.000Z</time>
      </trkpt>
      <trkpt lat="44.3552" lon="3.52182">
        <ele>518.7</ele>
        <time>2020-08-25T06:49:23.000Z</time>
      </trkpt>
      <trkpt lat="44.35518" lon="3.52179">
        <ele>518.6</ele>
        <time>2020-08-25T06:49:24.000Z</time>
      </trkpt>
      <trkpt lat="44.35514" lon="3.52174">
        <ele>518.6</ele>
        <time>2020-08-25T06:49:26.000Z</time>
      </trkpt>
      <trkpt lat="44.3551" lon="3.5217">
        <ele>518.6</ele>
        <time>2020-08-25T06:49:27.000Z</time>
      </trkpt>
      <trkpt lat="44.35506" lon="3.52167">
        <ele>518.7</ele>
        <time>2020-08-25T06:49:28.000Z</time>
      </trkpt>
      <trkpt lat="44.35501" lon="3.52163">
        <ele>518.8</ele>
        <time>2020-08-25T06:49:30.000Z</time>
      </trkpt>
      <trkpt lat="44.35496" lon="3.52159">
        <ele>518.9</ele>
        <time>2020-08-25T06:49:31.000Z</time>
      </trkpt>
      <trkpt lat="44.35491" lon="3.52156">
        <ele>519</ele>
        <time>2020-08-25T06:49:32.000Z</time>
      </trkpt>
      <trkpt lat="44.35484" lon="3.52148">
        <ele>519.1</ele>
        <time>2020-08-25T06:49:34.000Z</time>
      </trkpt>
      <trkpt lat="44.35481" lon="3.52148">
        <ele>519.1</ele>
        <time>2020-08-25T06:49:35.000Z</time>
      </trkpt>
      <trkpt lat="44.35467" lon="3.52138">
        <ele>519.4</ele>
        <time>2020-08-25T06:49:36.000Z</time>
      </trkpt>
      <trkpt lat="44.35463" lon="3.52134">
        <ele>519.6</ele>
        <time>2020-08-25T06:49:38.000Z</time>
      </trkpt>
      <trkpt lat="44.35459" lon="3.5213">
        <ele>519.8</ele>
        <time>2020-08-25T06:49:39.000Z</time>
      </trkpt>
      <trkpt lat="44.35456" lon="3.52127">
        <ele>520</ele>
        <time>2020-08-25T06:49:40.000Z</time>
      </trkpt>
      <trkpt lat="44.35453" lon="3.52124">
        <ele>520.2</ele>
        <time>2020-08-25T06:49:41.000Z</time>
      </trkpt>
      <trkpt lat="44.35449" lon="3.52119">
        <ele>520.4</ele>
        <time>2020-08-25T06:49:42.000Z</time>
      </trkpt>
      <trkpt lat="44.35445" lon="3.52115">
        <ele>520.6</ele>
        <time>2020-08-25T06:49:44.000Z</time>
      </trkpt>
      <trkpt lat="44.35444" lon="3.52114">
        <ele>520.7</ele>
        <time>2020-08-25T06:49:45.000Z</time>
      </trkpt>
      <trkpt lat="44.35443" lon="3.52113">
        <ele>520.8</ele>
        <time>2020-08-25T06:49:46.000Z</time>
      </trkpt>
      <trkpt lat="44.3544" lon="3.5211">
        <ele>520.9</ele>
        <time>2020-08-25T06:49:47.000Z</time>
      </trkpt>
      <trkpt lat="44.35433" lon="3.52104">
        <ele>521.3</ele>
        <time>2020-08-25T06:49:49.000Z</time>
      </trkpt>
      <trkpt lat="44.3543" lon="3.52102">
        <ele>521.4</ele>
        <time>2020-08-25T06:49:50.000Z</time>
      </trkpt>
      <trkpt lat="44.35428" lon="3.52099">
        <ele>521.5</ele>
        <time>2020-08-25T06:49:51.000Z</time>
      </trkpt>
      <trkpt lat="44.35426" lon="3.52095">
        <ele>521.7</ele>
        <time>2020-08-25T06:49:52.000Z</time>
      </trkpt>
      <trkpt lat="44.35421" lon="3.52088">
        <ele>521.9</ele>
        <time>2020-08-25T06:49:54.000Z</time>
      </trkpt>
      <trkpt lat="44.35419" lon="3.52085">
        <ele>521.9</ele>
        <time>2020-08-25T06:49:55.000Z</time>
      </trkpt>
      <trkpt lat="44.35415" lon="3.5208">
        <ele>522</ele>
        <time>2020-08-25T06:49:56.000Z</time>
      </trkpt>
      <trkpt lat="44.35408" lon="3.52072">
        <ele>522</ele>
        <time>2020-08-25T06:49:58.000Z</time>
      </trkpt>
      <trkpt lat="44.35396" lon="3.52062">
        <ele>521.8</ele>
        <time>2020-08-25T06:50:00.000Z</time>
      </trkpt>
      <trkpt lat="44.35389" lon="3.52057">
        <ele>521.8</ele>
        <time>2020-08-25T06:50:01.000Z</time>
      </trkpt>
      <trkpt lat="44.35385" lon="3.52056">
        <ele>521.9</ele>
        <time>2020-08-25T06:50:02.000Z</time>
      </trkpt>
      <trkpt lat="44.35382" lon="3.52055">
        <ele>522</ele>
        <time>2020-08-25T06:50:03.000Z</time>
      </trkpt>
      <trkpt lat="44.35377" lon="3.52052">
        <ele>522.3</ele>
        <time>2020-08-25T06:50:05.000Z</time>
      </trkpt>
      <trkpt lat="44.35372" lon="3.52047">
        <ele>522.7</ele>
        <time>2020-08-25T06:50:06.000Z</time>
      </trkpt>
      <trkpt lat="44.35365" lon="3.52038">
        <ele>523.3</ele>
        <time>2020-08-25T06:50:08.000Z</time>
      </trkpt>
      <trkpt lat="44.35362" lon="3.52035">
        <ele>523.6</ele>
        <time>2020-08-25T06:50:09.000Z</time>
      </trkpt>
      <trkpt lat="44.3536" lon="3.52033">
        <ele>523.6</ele>
        <time>2020-08-25T06:50:10.000Z</time>
      </trkpt>
      <trkpt lat="44.35357" lon="3.52029">
        <ele>523.8</ele>
        <time>2020-08-25T06:50:12.000Z</time>
      </trkpt>
      <trkpt lat="44.35354" lon="3.52027">
        <ele>523.9</ele>
        <time>2020-08-25T06:50:13.000Z</time>
      </trkpt>
      <trkpt lat="44.35348" lon="3.52021">
        <ele>523.9</ele>
        <time>2020-08-25T06:50:15.000Z</time>
      </trkpt>
      <trkpt lat="44.35344" lon="3.52017">
        <ele>523.8</ele>
        <time>2020-08-25T06:50:16.000Z</time>
      </trkpt>
      <trkpt lat="44.35343" lon="3.52015">
        <ele>523.8</ele>
        <time>2020-08-25T06:50:17.000Z</time>
      </trkpt>
      <trkpt lat="44.35341" lon="3.52009">
        <ele>523.7</ele>
        <time>2020-08-25T06:50:19.000Z</time>
      </trkpt>
      <trkpt lat="44.3534" lon="3.52004">
        <ele>523.7</ele>
        <time>2020-08-25T06:50:20.000Z</time>
      </trkpt>
      <trkpt lat="44.35336" lon="3.51995">
        <ele>523.7</ele>
        <time>2020-08-25T06:50:21.000Z</time>
      </trkpt>
      <trkpt lat="44.35334" lon="3.51992">
        <ele>523.7</ele>
        <time>2020-08-25T06:50:22.000Z</time>
      </trkpt>
      <trkpt lat="44.3533" lon="3.51989">
        <ele>523.8</ele>
        <time>2020-08-25T06:50:24.000Z</time>
      </trkpt>
      <trkpt lat="44.35327" lon="3.51985">
        <ele>523.8</ele>
        <time>2020-08-25T06:50:26.000Z</time>
      </trkpt>
      <trkpt lat="44.35324" lon="3.51981">
        <ele>523.9</ele>
        <time>2020-08-25T06:50:27.000Z</time>
      </trkpt>
      <trkpt lat="44.35321" lon="3.51977">
        <ele>524</ele>
        <time>2020-08-25T06:50:28.000Z</time>
      </trkpt>
      <trkpt lat="44.3532" lon="3.51976">
        <ele>524</ele>
        <time>2020-08-25T06:50:29.000Z</time>
      </trkpt>
      <trkpt lat="44.35318" lon="3.51973">
        <ele>524</ele>
        <time>2020-08-25T06:50:30.000Z</time>
      </trkpt>
      <trkpt lat="44.35314" lon="3.5197">
        <ele>524</ele>
        <time>2020-08-25T06:50:31.000Z</time>
      </trkpt>
      <trkpt lat="44.35309" lon="3.51967">
        <ele>523.9</ele>
        <time>2020-08-25T06:50:33.000Z</time>
      </trkpt>
      <trkpt lat="44.35287" lon="3.51951">
        <ele>522.4</ele>
        <time>2020-08-25T06:50:34.000Z</time>
      </trkpt>
      <trkpt lat="44.35265" lon="3.5194">
        <ele>520.3</ele>
        <time>2020-08-25T06:50:36.000Z</time>
      </trkpt>
      <trkpt lat="44.35245" lon="3.51937">
        <ele>518.4</ele>
        <time>2020-08-25T06:50:38.000Z</time>
      </trkpt>
      <trkpt lat="44.35229" lon="3.51938">
        <ele>517.2</ele>
        <time>2020-08-25T06:50:40.000Z</time>
      </trkpt>
      <trkpt lat="44.35217" lon="3.5194">
        <ele>516.4</ele>
        <time>2020-08-25T06:50:42.000Z</time>
      </trkpt>
      <trkpt lat="44.35209" lon="3.51938">
        <ele>516</ele>
        <time>2020-08-25T06:50:44.000Z</time>
      </trkpt>
      <trkpt lat="44.35204" lon="3.51939">
        <ele>515.7</ele>
        <time>2020-08-25T06:50:46.000Z</time>
      </trkpt>
      <trkpt lat="44.35201" lon="3.5194">
        <ele>515.6</ele>
        <time>2020-08-25T06:50:47.000Z</time>
      </trkpt>
      <trkpt lat="44.35192" lon="3.51943">
        <ele>515.2</ele>
        <time>2020-08-25T06:50:48.000Z</time>
      </trkpt>
      <trkpt lat="44.3519" lon="3.51945">
        <ele>515.1</ele>
        <time>2020-08-25T06:50:50.000Z</time>
      </trkpt>
      <trkpt lat="44.35199" lon="3.51947">
        <ele>514.7</ele>
        <time>2020-08-25T06:50:52.000Z</time>
      </trkpt>
      <trkpt lat="44.35196" lon="3.51942">
        <ele>514.6</ele>
        <time>2020-08-25T06:50:53.000Z</time>
      </trkpt>
      <trkpt lat="44.35188" lon="3.51943">
        <ele>514.4</ele>
        <time>2020-08-25T06:50:54.000Z</time>
      </trkpt>
      <trkpt lat="44.35166" lon="3.51957">
        <ele>514.5</ele>
        <time>2020-08-25T06:50:56.000Z</time>
      </trkpt>
      <trkpt lat="44.35163" lon="3.5196">
        <ele>514.5</ele>
        <time>2020-08-25T06:50:57.000Z</time>
      </trkpt>
      <trkpt lat="44.35161" lon="3.51964">
        <ele>514.6</ele>
        <time>2020-08-25T06:50:59.000Z</time>
      </trkpt>
      <trkpt lat="44.35155" lon="3.51969">
        <ele>514.9</ele>
        <time>2020-08-25T06:51:00.000Z</time>
      </trkpt>
      <trkpt lat="44.35147" lon="3.51974">
        <ele>515.2</ele>
        <time>2020-08-25T06:51:01.000Z</time>
      </trkpt>
      <trkpt lat="44.35141" lon="3.51976">
        <ele>515.6</ele>
        <time>2020-08-25T06:51:02.000Z</time>
      </trkpt>
      <trkpt lat="44.35131" lon="3.51981">
        <ele>516.1</ele>
        <time>2020-08-25T06:51:04.000Z</time>
      </trkpt>
      <trkpt lat="44.35125" lon="3.51984">
        <ele>516.4</ele>
        <time>2020-08-25T06:51:05.000Z</time>
      </trkpt>
      <trkpt lat="44.3512" lon="3.51985">
        <ele>516.7</ele>
        <time>2020-08-25T06:51:06.000Z</time>
      </trkpt>
      <trkpt lat="44.35116" lon="3.51985">
        <ele>516.9</ele>
        <time>2020-08-25T06:51:08.000Z</time>
      </trkpt>
      <trkpt lat="44.35108" lon="3.51986">
        <ele>517.4</ele>
        <time>2020-08-25T06:51:09.000Z</time>
      </trkpt>
      <trkpt lat="44.35103" lon="3.51985">
        <ele>517.6</ele>
        <time>2020-08-25T06:51:11.000Z</time>
      </trkpt>
      <trkpt lat="44.35101" lon="3.51986">
        <ele>517.7</ele>
        <time>2020-08-25T06:51:12.000Z</time>
      </trkpt>
      <trkpt lat="44.35097" lon="3.51987">
        <ele>517.8</ele>
        <time>2020-08-25T06:51:13.000Z</time>
      </trkpt>
      <trkpt lat="44.35094" lon="3.51987">
        <ele>517.9</ele>
        <time>2020-08-25T06:51:14.000Z</time>
      </trkpt>
      <trkpt lat="44.35092" lon="3.51987">
        <ele>518</ele>
        <time>2020-08-25T06:51:15.000Z</time>
      </trkpt>
      <trkpt lat="44.35085" lon="3.5199">
        <ele>518.1</ele>
        <time>2020-08-25T06:51:17.000Z</time>
      </trkpt>
      <trkpt lat="44.35082" lon="3.51991">
        <ele>518.1</ele>
        <time>2020-08-25T06:51:18.000Z</time>
      </trkpt>
      <trkpt lat="44.35069" lon="3.52003">
        <ele>518</ele>
        <time>2020-08-25T06:51:19.000Z</time>
      </trkpt>
      <trkpt lat="44.35057" lon="3.52012">
        <ele>517.7</ele>
        <time>2020-08-25T06:51:20.000Z</time>
      </trkpt>
      <trkpt lat="44.35044" lon="3.52021">
        <ele>517.3</ele>
        <time>2020-08-25T06:51:21.000Z</time>
      </trkpt>
      <trkpt lat="44.35045" lon="3.52026">
        <ele>517.3</ele>
        <time>2020-08-25T06:51:22.000Z</time>
      </trkpt>
      <trkpt lat="44.35045" lon="3.5203">
        <ele>517.2</ele>
        <time>2020-08-25T06:51:24.000Z</time>
      </trkpt>
      <trkpt lat="44.35042" lon="3.52026">
        <ele>517.2</ele>
        <time>2020-08-25T06:51:25.000Z</time>
      </trkpt>
      <trkpt lat="44.35037" lon="3.52025">
        <ele>517.2</ele>
        <time>2020-08-25T06:51:27.000Z</time>
      </trkpt>
      <trkpt lat="44.35031" lon="3.52026">
        <ele>517.2</ele>
        <time>2020-08-25T06:51:28.000Z</time>
      </trkpt>
      <trkpt lat="44.35027" lon="3.52028">
        <ele>517.3</ele>
        <time>2020-08-25T06:51:29.000Z</time>
      </trkpt>
      <trkpt lat="44.35024" lon="3.52029">
        <ele>517.4</ele>
        <time>2020-08-25T06:51:30.000Z</time>
      </trkpt>
      <trkpt lat="44.35017" lon="3.52032">
        <ele>517.8</ele>
        <time>2020-08-25T06:51:31.000Z</time>
      </trkpt>
      <trkpt lat="44.35" lon="3.52038">
        <ele>518.7</ele>
        <time>2020-08-25T06:51:33.000Z</time>
      </trkpt>
      <trkpt lat="44.34979" lon="3.52043">
        <ele>519.8</ele>
        <time>2020-08-25T06:51:35.000Z</time>
      </trkpt>
      <trkpt lat="44.34967" lon="3.52044">
        <ele>520.2</ele>
        <time>2020-08-25T06:51:37.000Z</time>
      </trkpt>
      <trkpt lat="44.34961" lon="3.52045">
        <ele>520.3</ele>
        <time>2020-08-25T06:51:38.000Z</time>
      </trkpt>
      <trkpt lat="44.34946" lon="3.52043">
        <ele>520.3</ele>
        <time>2020-08-25T06:51:40.000Z</time>
      </trkpt>
      <trkpt lat="44.34943" lon="3.52043">
        <ele>520.2</ele>
        <time>2020-08-25T06:51:41.000Z</time>
      </trkpt>
      <trkpt lat="44.34939" lon="3.52041">
        <ele>520.1</ele>
        <time>2020-08-25T06:51:42.000Z</time>
      </trkpt>
      <trkpt lat="44.34932" lon="3.52039">
        <ele>520.2</ele>
        <time>2020-08-25T06:51:44.000Z</time>
      </trkpt>
      <trkpt lat="44.34928" lon="3.52037">
        <ele>520.4</ele>
        <time>2020-08-25T06:51:45.000Z</time>
      </trkpt>
      <trkpt lat="44.34921" lon="3.52035">
        <ele>520.8</ele>
        <time>2020-08-25T06:51:47.000Z</time>
      </trkpt>
      <trkpt lat="44.34916" lon="3.52035">
        <ele>521.1</ele>
        <time>2020-08-25T06:51:49.000Z</time>
      </trkpt>
      <trkpt lat="44.34914" lon="3.52034">
        <ele>521.3</ele>
        <time>2020-08-25T06:51:50.000Z</time>
      </trkpt>
      <trkpt lat="44.34909" lon="3.52034">
        <ele>521.6</ele>
        <time>2020-08-25T06:51:52.000Z</time>
      </trkpt>
      <trkpt lat="44.34903" lon="3.52034">
        <ele>521.9</ele>
        <time>2020-08-25T06:51:54.000Z</time>
      </trkpt>
      <trkpt lat="44.34899" lon="3.52034">
        <ele>522</ele>
        <time>2020-08-25T06:51:56.000Z</time>
      </trkpt>
      <trkpt lat="44.34896" lon="3.52034">
        <ele>522</ele>
        <time>2020-08-25T06:51:57.000Z</time>
      </trkpt>
      <trkpt lat="44.3489" lon="3.52032">
        <ele>522.2</ele>
        <time>2020-08-25T06:51:59.000Z</time>
      </trkpt>
      <trkpt lat="44.34886" lon="3.52031">
        <ele>522.3</ele>
        <time>2020-08-25T06:52:00.000Z</time>
      </trkpt>
      <trkpt lat="44.34884" lon="3.52031">
        <ele>522.4</ele>
        <time>2020-08-25T06:52:01.000Z</time>
      </trkpt>
      <trkpt lat="44.34879" lon="3.5203">
        <ele>522.6</ele>
        <time>2020-08-25T06:52:03.000Z</time>
      </trkpt>
      <trkpt lat="44.34875" lon="3.52029">
        <ele>522.8</ele>
        <time>2020-08-25T06:52:05.000Z</time>
      </trkpt>
      <trkpt lat="44.34872" lon="3.52027">
        <ele>523</ele>
        <time>2020-08-25T06:52:07.000Z</time>
      </trkpt>
      <trkpt lat="44.34871" lon="3.52026">
        <ele>523.1</ele>
        <time>2020-08-25T06:52:08.000Z</time>
      </trkpt>
      <trkpt lat="44.3487" lon="3.52025">
        <ele>523.2</ele>
        <time>2020-08-25T06:52:09.000Z</time>
      </trkpt>
      <trkpt lat="44.34867" lon="3.52023">
        <ele>523.4</ele>
        <time>2020-08-25T06:52:11.000Z</time>
      </trkpt>
      <trkpt lat="44.34866" lon="3.52021">
        <ele>523.5</ele>
        <time>2020-08-25T06:52:12.000Z</time>
      </trkpt>
      <trkpt lat="44.34864" lon="3.52017">
        <ele>523.8</ele>
        <time>2020-08-25T06:52:14.000Z</time>
      </trkpt>
      <trkpt lat="44.34864" lon="3.52017">
        <ele>523.9</ele>
        <time>2020-08-25T06:52:15.000Z</time>
      </trkpt>
      <trkpt lat="44.34865" lon="3.52017">
        <ele>523.9</ele>
        <time>2020-08-25T06:52:16.000Z</time>
      </trkpt>
      <trkpt lat="44.34865" lon="3.52017">
        <ele>524</ele>
        <time>2020-08-25T06:52:17.000Z</time>
      </trkpt>
      <trkpt lat="44.34864" lon="3.52016">
        <ele>524.1</ele>
        <time>2020-08-25T06:52:19.000Z</time>
      </trkpt>
      <trkpt lat="44.34864" lon="3.52015">
        <ele>524.1</ele>
        <time>2020-08-25T06:52:21.000Z</time>
      </trkpt>
      <trkpt lat="44.34864" lon="3.52015">
        <ele>524.1</ele>
        <time>2020-08-25T06:52:22.000Z</time>
      </trkpt>
      <trkpt lat="44.34864" lon="3.52014">
        <ele>524.2</ele>
        <time>2020-08-25T06:52:24.000Z</time>
      </trkpt>
      <trkpt lat="44.34864" lon="3.52013">
        <ele>524.3</ele>
        <time>2020-08-25T06:52:25.000Z</time>
      </trkpt>
      <trkpt lat="44.34863" lon="3.52011">
        <ele>524.4</ele>
        <time>2020-08-25T06:52:26.000Z</time>
      </trkpt>
      <trkpt lat="44.34863" lon="3.52009">
        <ele>524.6</ele>
        <time>2020-08-25T06:52:28.000Z</time>
      </trkpt>
      <trkpt lat="44.34854" lon="3.51985">
        <ele>527.1</ele>
        <time>2020-08-25T06:52:47.000Z</time>
      </trkpt>
      <trkpt lat="44.34853" lon="3.51984">
        <ele>527.4</ele>
        <time>2020-08-25T06:52:48.000Z</time>
      </trkpt>
      <trkpt lat="44.34852" lon="3.51982">
        <ele>527.6</ele>
        <time>2020-08-25T06:52:49.000Z</time>
      </trkpt>
      <trkpt lat="44.34852" lon="3.51981">
        <ele>527.7</ele>
        <time>2020-08-25T06:52:51.000Z</time>
      </trkpt>
      <trkpt lat="44.34852" lon="3.51979">
        <ele>528.1</ele>
        <time>2020-08-25T06:52:53.000Z</time>
      </trkpt>
      <trkpt lat="44.34852" lon="3.51978">
        <ele>528.1</ele>
        <time>2020-08-25T06:52:54.000Z</time>
      </trkpt>
      <trkpt lat="44.34852" lon="3.51977">
        <ele>528.3</ele>
        <time>2020-08-25T06:52:56.000Z</time>
      </trkpt>
      <trkpt lat="44.34852" lon="3.51976">
        <ele>528.4</ele>
        <time>2020-08-25T06:52:57.000Z</time>
      </trkpt>
      <trkpt lat="44.34852" lon="3.51975">
        <ele>528.5</ele>
        <time>2020-08-25T06:52:58.000Z</time>
      </trkpt>
      <trkpt lat="44.34852" lon="3.51974">
        <ele>528.7</ele>
        <time>2020-08-25T06:52:59.000Z</time>
      </trkpt>
      <trkpt lat="44.34851" lon="3.51972">
        <ele>528.9</ele>
        <time>2020-08-25T06:53:01.000Z</time>
      </trkpt>
      <trkpt lat="44.34845" lon="3.5196">
        <ele>530.7</ele>
        <time>2020-08-25T06:53:15.000Z</time>
      </trkpt>
      <trkpt lat="44.34844" lon="3.51958">
        <ele>531</ele>
        <time>2020-08-25T06:53:16.000Z</time>
      </trkpt>
      <trkpt lat="44.34844" lon="3.51956">
        <ele>531.2</ele>
        <time>2020-08-25T06:53:17.000Z</time>
      </trkpt>
      <trkpt lat="44.34843" lon="3.51955">
        <ele>531.3</ele>
        <time>2020-08-25T06:53:19.000Z</time>
      </trkpt>
      <trkpt lat="44.34842" lon="3.51954">
        <ele>531.5</ele>
        <time>2020-08-25T06:53:21.000Z</time>
      </trkpt>
      <trkpt lat="44.34841" lon="3.51953">
        <ele>531.6</ele>
        <time>2020-08-25T06:53:22.000Z</time>
      </trkpt>
      <trkpt lat="44.3484" lon="3.51952">
        <ele>531.8</ele>
        <time>2020-08-25T06:53:23.000Z</time>
      </trkpt>
      <trkpt lat="44.34839" lon="3.51949">
        <ele>532.2</ele>
        <time>2020-08-25T06:53:25.000Z</time>
      </trkpt>
      <trkpt lat="44.34838" lon="3.51948">
        <ele>532.3</ele>
        <time>2020-08-25T06:53:27.000Z</time>
      </trkpt>
      <trkpt lat="44.34838" lon="3.51947">
        <ele>532.3</ele>
        <time>2020-08-25T06:53:28.000Z</time>
      </trkpt>
      <trkpt lat="44.34837" lon="3.51946">
        <ele>532.4</ele>
        <time>2020-08-25T06:53:29.000Z</time>
      </trkpt>
      <trkpt lat="44.34836" lon="3.51944">
        <ele>532.7</ele>
        <time>2020-08-25T06:53:31.000Z</time>
      </trkpt>
      <trkpt lat="44.34836" lon="3.51943">
        <ele>532.8</ele>
        <time>2020-08-25T06:53:32.000Z</time>
      </trkpt>
      <trkpt lat="44.34835" lon="3.51939">
        <ele>533.1</ele>
        <time>2020-08-25T06:53:33.000Z</time>
      </trkpt>
      <trkpt lat="44.34835" lon="3.51938">
        <ele>533.2</ele>
        <time>2020-08-25T06:53:34.000Z</time>
      </trkpt>
      <trkpt lat="44.34835" lon="3.51936">
        <ele>533.4</ele>
        <time>2020-08-25T06:53:36.000Z</time>
      </trkpt>
      <trkpt lat="44.34835" lon="3.51935">
        <ele>533.5</ele>
        <time>2020-08-25T06:53:37.000Z</time>
      </trkpt>
      <trkpt lat="44.34835" lon="3.51932">
        <ele>533.7</ele>
        <time>2020-08-25T06:53:39.000Z</time>
      </trkpt>
      <trkpt lat="44.34834" lon="3.51931">
        <ele>533.8</ele>
        <time>2020-08-25T06:53:40.000Z</time>
      </trkpt>
      <trkpt lat="44.34834" lon="3.5193">
        <ele>533.9</ele>
        <time>2020-08-25T06:53:41.000Z</time>
      </trkpt>
      <trkpt lat="44.34834" lon="3.51929">
        <ele>534</ele>
        <time>2020-08-25T06:53:43.000Z</time>
      </trkpt>
      <trkpt lat="44.3483" lon="3.51919">
        <ele>535.3</ele>
        <time>2020-08-25T06:53:57.000Z</time>
      </trkpt>
      <trkpt lat="44.34828" lon="3.51916">
        <ele>535.8</ele>
        <time>2020-08-25T06:53:58.000Z</time>
      </trkpt>
      <trkpt lat="44.34828" lon="3.51915">
        <ele>535.9</ele>
        <time>2020-08-25T06:54:00.000Z</time>
      </trkpt>
      <trkpt lat="44.34827" lon="3.51914">
        <ele>536.2</ele>
        <time>2020-08-25T06:54:01.000Z</time>
      </trkpt>
      <trkpt lat="44.34827" lon="3.51913">
        <ele>536.3</ele>
        <time>2020-08-25T06:54:03.000Z</time>
      </trkpt>
      <trkpt lat="44.34826" lon="3.51913">
        <ele>536.3</ele>
        <time>2020-08-25T06:54:04.000Z</time>
      </trkpt>
      <trkpt lat="44.34826" lon="3.51912">
        <ele>536.4</ele>
        <time>2020-08-25T06:54:05.000Z</time>
      </trkpt>
      <trkpt lat="44.34825" lon="3.51909">
        <ele>536.8</ele>
        <time>2020-08-25T06:54:07.000Z</time>
      </trkpt>
      <trkpt lat="44.34825" lon="3.51907">
        <ele>537.1</ele>
        <time>2020-08-25T06:54:08.000Z</time>
      </trkpt>
      <trkpt lat="44.34825" lon="3.51905">
        <ele>537.4</ele>
        <time>2020-08-25T06:54:09.000Z</time>
      </trkpt>
      <trkpt lat="44.34825" lon="3.51903">
        <ele>537.6</ele>
        <time>2020-08-25T06:54:11.000Z</time>
      </trkpt>
      <trkpt lat="44.34825" lon="3.51901">
        <ele>537.9</ele>
        <time>2020-08-25T06:54:27.000Z</time>
      </trkpt>
      <trkpt lat="44.34825" lon="3.51899">
        <ele>538.1</ele>
        <time>2020-08-25T06:54:28.000Z</time>
      </trkpt>
      <trkpt lat="44.34825" lon="3.51897">
        <ele>538.4</ele>
        <time>2020-08-25T06:54:29.000Z</time>
      </trkpt>
      <trkpt lat="44.34825" lon="3.51894">
        <ele>538.6</ele>
        <time>2020-08-25T06:54:30.000Z</time>
      </trkpt>
      <trkpt lat="44.34825" lon="3.51894">
        <ele>538.7</ele>
        <time>2020-08-25T06:54:32.000Z</time>
      </trkpt>
      <trkpt lat="44.34825" lon="3.51891">
        <ele>539</ele>
        <time>2020-08-25T06:54:33.000Z</time>
      </trkpt>
      <trkpt lat="44.34825" lon="3.51891">
        <ele>539</ele>
        <time>2020-08-25T06:54:35.000Z</time>
      </trkpt>
      <trkpt lat="44.34825" lon="3.51891">
        <ele>539</ele>
        <time>2020-08-25T06:54:36.000Z</time>
      </trkpt>
      <trkpt lat="44.34825" lon="3.51891">
        <ele>539</ele>
        <time>2020-08-25T06:54:38.000Z</time>
      </trkpt>
      <trkpt lat="44.34825" lon="3.51891">
        <ele>539</ele>
        <time>2020-08-25T06:54:39.000Z</time>
      </trkpt>
      <trkpt lat="44.34826" lon="3.5189">
        <ele>539.1</ele>
        <time>2020-08-25T06:54:41.000Z</time>
      </trkpt>
      <trkpt lat="44.34826" lon="3.51888">
        <ele>539.4</ele>
        <time>2020-08-25T06:54:42.000Z</time>
      </trkpt>
      <trkpt lat="44.34826" lon="3.51888">
        <ele>539.4</ele>
        <time>2020-08-25T06:54:44.000Z</time>
      </trkpt>
      <trkpt lat="44.34826" lon="3.51886">
        <ele>539.5</ele>
        <time>2020-08-25T06:54:45.000Z</time>
      </trkpt>
      <trkpt lat="44.34826" lon="3.51883">
        <ele>539.9</ele>
        <time>2020-08-25T06:54:46.000Z</time>
      </trkpt>
      <trkpt lat="44.34826" lon="3.51881">
        <ele>540</ele>
        <time>2020-08-25T06:54:48.000Z</time>
      </trkpt>
      <trkpt lat="44.34826" lon="3.5188">
        <ele>540.2</ele>
        <time>2020-08-25T06:54:49.000Z</time>
      </trkpt>
      <trkpt lat="44.34826" lon="3.51878">
        <ele>540.4</ele>
        <time>2020-08-25T06:54:51.000Z</time>
      </trkpt>
      <trkpt lat="44.34826" lon="3.51876">
        <ele>540.6</ele>
        <time>2020-08-25T06:54:52.000Z</time>
      </trkpt>
      <trkpt lat="44.34826" lon="3.51874">
        <ele>540.7</ele>
        <time>2020-08-25T06:54:54.000Z</time>
      </trkpt>
      <trkpt lat="44.34826" lon="3.51872">
        <ele>540.9</ele>
        <time>2020-08-25T06:54:55.000Z</time>
      </trkpt>
      <trkpt lat="44.34826" lon="3.5187">
        <ele>541.1</ele>
        <time>2020-08-25T06:54:56.000Z</time>
      </trkpt>
      <trkpt lat="44.34826" lon="3.51867">
        <ele>541.3</ele>
        <time>2020-08-25T06:54:58.000Z</time>
      </trkpt>
      <trkpt lat="44.34826" lon="3.51865">
        <ele>541.5</ele>
        <time>2020-08-25T06:54:59.000Z</time>
      </trkpt>
      <trkpt lat="44.34826" lon="3.51865">
        <ele>541.5</ele>
        <time>2020-08-25T06:55:00.000Z</time>
      </trkpt>
      <trkpt lat="44.34827" lon="3.51864">
        <ele>541.6</ele>
        <time>2020-08-25T06:55:02.000Z</time>
      </trkpt>
      <trkpt lat="44.34827" lon="3.51862">
        <ele>541.8</ele>
        <time>2020-08-25T06:55:04.000Z</time>
      </trkpt>
      <trkpt lat="44.34828" lon="3.5186">
        <ele>541.9</ele>
        <time>2020-08-25T06:55:05.000Z</time>
      </trkpt>
      <trkpt lat="44.34829" lon="3.51858">
        <ele>542</ele>
        <time>2020-08-25T06:55:07.000Z</time>
      </trkpt>
      <trkpt lat="44.34829" lon="3.51858">
        <ele>542.1</ele>
        <time>2020-08-25T06:55:08.000Z</time>
      </trkpt>
      <trkpt lat="44.34831" lon="3.51856">
        <ele>542.3</ele>
        <time>2020-08-25T06:55:10.000Z</time>
      </trkpt>
      <trkpt lat="44.34831" lon="3.51856">
        <ele>542.3</ele>
        <time>2020-08-25T06:55:11.000Z</time>
      </trkpt>
      <trkpt lat="44.34831" lon="3.51855">
        <ele>542.3</ele>
        <time>2020-08-25T06:55:12.000Z</time>
      </trkpt>
      <trkpt lat="44.34831" lon="3.51854">
        <ele>542.4</ele>
        <time>2020-08-25T06:55:14.000Z</time>
      </trkpt>
      <trkpt lat="44.34832" lon="3.51854">
        <ele>542.4</ele>
        <time>2020-08-25T06:55:15.000Z</time>
      </trkpt>
      <trkpt lat="44.34832" lon="3.51852">
        <ele>542.5</ele>
        <time>2020-08-25T06:55:16.000Z</time>
      </trkpt>
      <trkpt lat="44.34832" lon="3.51852">
        <ele>542.5</ele>
        <time>2020-08-25T06:55:17.000Z</time>
      </trkpt>
      <trkpt lat="44.34831" lon="3.5185">
        <ele>542.6</ele>
        <time>2020-08-25T06:55:19.000Z</time>
      </trkpt>
      <trkpt lat="44.3483" lon="3.51842">
        <ele>542.9</ele>
        <time>2020-08-25T06:55:28.000Z</time>
      </trkpt>
      <trkpt lat="44.34831" lon="3.51837">
        <ele>543</ele>
        <time>2020-08-25T06:55:30.000Z</time>
      </trkpt>
      <trkpt lat="44.34831" lon="3.51835">
        <ele>543</ele>
        <time>2020-08-25T06:55:31.000Z</time>
      </trkpt>
      <trkpt lat="44.34831" lon="3.51833">
        <ele>543</ele>
        <time>2020-08-25T06:55:32.000Z</time>
      </trkpt>
      <trkpt lat="44.34831" lon="3.51831">
        <ele>543.1</ele>
        <time>2020-08-25T06:55:33.000Z</time>
      </trkpt>
      <trkpt lat="44.34831" lon="3.51829">
        <ele>543.1</ele>
        <time>2020-08-25T06:55:35.000Z</time>
      </trkpt>
      <trkpt lat="44.34833" lon="3.51825">
        <ele>543.1</ele>
        <time>2020-08-25T06:55:36.000Z</time>
      </trkpt>
      <trkpt lat="44.34833" lon="3.51823">
        <ele>543.1</ele>
        <time>2020-08-25T06:55:37.000Z</time>
      </trkpt>
      <trkpt lat="44.34834" lon="3.5182">
        <ele>543.1</ele>
        <time>2020-08-25T06:55:39.000Z</time>
      </trkpt>
      <trkpt lat="44.34835" lon="3.51818">
        <ele>543.1</ele>
        <time>2020-08-25T06:55:40.000Z</time>
      </trkpt>
      <trkpt lat="44.34835" lon="3.51813">
        <ele>543.1</ele>
        <time>2020-08-25T06:55:42.000Z</time>
      </trkpt>
      <trkpt lat="44.34835" lon="3.51811">
        <ele>543.1</ele>
        <time>2020-08-25T06:55:43.000Z</time>
      </trkpt>
      <trkpt lat="44.34834" lon="3.51809">
        <ele>543.1</ele>
        <time>2020-08-25T06:55:45.000Z</time>
      </trkpt>
      <trkpt lat="44.34833" lon="3.51807">
        <ele>543.2</ele>
        <time>2020-08-25T06:55:46.000Z</time>
      </trkpt>
      <trkpt lat="44.34833" lon="3.51806">
        <ele>543.2</ele>
        <time>2020-08-25T06:55:47.000Z</time>
      </trkpt>
      <trkpt lat="44.34831" lon="3.51802">
        <ele>543.3</ele>
        <time>2020-08-25T06:55:49.000Z</time>
      </trkpt>
      <trkpt lat="44.34831" lon="3.518">
        <ele>543.4</ele>
        <time>2020-08-25T06:55:51.000Z</time>
      </trkpt>
      <trkpt lat="44.3483" lon="3.51798">
        <ele>543.4</ele>
        <time>2020-08-25T06:55:52.000Z</time>
      </trkpt>
      <trkpt lat="44.3483" lon="3.51796">
        <ele>543.5</ele>
        <time>2020-08-25T06:55:53.000Z</time>
      </trkpt>
      <trkpt lat="44.34829" lon="3.51794">
        <ele>543.6</ele>
        <time>2020-08-25T06:55:54.000Z</time>
      </trkpt>
      <trkpt lat="44.34829" lon="3.5179">
        <ele>543.8</ele>
        <time>2020-08-25T06:55:56.000Z</time>
      </trkpt>
      <trkpt lat="44.34829" lon="3.51789">
        <ele>543.8</ele>
        <time>2020-08-25T06:55:57.000Z</time>
      </trkpt>
      <trkpt lat="44.34829" lon="3.51786">
        <ele>543.9</ele>
        <time>2020-08-25T06:55:58.000Z</time>
      </trkpt>
      <trkpt lat="44.34829" lon="3.51783">
        <ele>544.1</ele>
        <time>2020-08-25T06:56:00.000Z</time>
      </trkpt>
      <trkpt lat="44.3483" lon="3.51778">
        <ele>544.3</ele>
        <time>2020-08-25T06:56:02.000Z</time>
      </trkpt>
      <trkpt lat="44.3483" lon="3.51776">
        <ele>544.4</ele>
        <time>2020-08-25T06:56:03.000Z</time>
      </trkpt>
      <trkpt lat="44.34831" lon="3.51774">
        <ele>544.5</ele>
        <time>2020-08-25T06:56:04.000Z</time>
      </trkpt>
      <trkpt lat="44.34833" lon="3.5177">
        <ele>544.7</ele>
        <time>2020-08-25T06:56:05.000Z</time>
      </trkpt>
      <trkpt lat="44.34835" lon="3.51765">
        <ele>544.9</ele>
        <time>2020-08-25T06:56:07.000Z</time>
      </trkpt>
      <trkpt lat="44.34837" lon="3.51761">
        <ele>544.9</ele>
        <time>2020-08-25T06:56:09.000Z</time>
      </trkpt>
      <trkpt lat="44.34837" lon="3.5176">
        <ele>544.9</ele>
        <time>2020-08-25T06:56:10.000Z</time>
      </trkpt>
      <trkpt lat="44.34838" lon="3.51758">
        <ele>544.9</ele>
        <time>2020-08-25T06:56:11.000Z</time>
      </trkpt>
      <trkpt lat="44.3484" lon="3.51754">
        <ele>544.9</ele>
        <time>2020-08-25T06:56:13.000Z</time>
      </trkpt>
      <trkpt lat="44.34844" lon="3.51745">
        <ele>544.7</ele>
        <time>2020-08-25T06:56:14.000Z</time>
      </trkpt>
      <trkpt lat="44.34846" lon="3.51741">
        <ele>544.5</ele>
        <time>2020-08-25T06:56:15.000Z</time>
      </trkpt>
      <trkpt lat="44.34847" lon="3.5174">
        <ele>544.4</ele>
        <time>2020-08-25T06:56:16.000Z</time>
      </trkpt>
      <trkpt lat="44.3485" lon="3.51737">
        <ele>544.2</ele>
        <time>2020-08-25T06:56:18.000Z</time>
      </trkpt>
      <trkpt lat="44.34853" lon="3.51735">
        <ele>543.9</ele>
        <time>2020-08-25T06:56:19.000Z</time>
      </trkpt>
      <trkpt lat="44.34857" lon="3.51733">
        <ele>543.6</ele>
        <time>2020-08-25T06:56:21.000Z</time>
      </trkpt>
      <trkpt lat="44.34858" lon="3.51728">
        <ele>543.3</ele>
        <time>2020-08-25T06:56:23.000Z</time>
      </trkpt>
      <trkpt lat="44.3486" lon="3.51722">
        <ele>542.9</ele>
        <time>2020-08-25T06:56:24.000Z</time>
      </trkpt>
      <trkpt lat="44.34861" lon="3.51719">
        <ele>542.7</ele>
        <time>2020-08-25T06:56:25.000Z</time>
      </trkpt>
      <trkpt lat="44.34864" lon="3.51714">
        <ele>542.3</ele>
        <time>2020-08-25T06:56:27.000Z</time>
      </trkpt>
      <trkpt lat="44.34865" lon="3.51712">
        <ele>542.1</ele>
        <time>2020-08-25T06:56:28.000Z</time>
      </trkpt>
      <trkpt lat="44.34866" lon="3.5171">
        <ele>542</ele>
        <time>2020-08-25T06:56:29.000Z</time>
      </trkpt>
      <trkpt lat="44.34868" lon="3.51706">
        <ele>541.7</ele>
        <time>2020-08-25T06:56:31.000Z</time>
      </trkpt>
      <trkpt lat="44.34869" lon="3.51705">
        <ele>541.6</ele>
        <time>2020-08-25T06:56:32.000Z</time>
      </trkpt>
      <trkpt lat="44.34869" lon="3.51702">
        <ele>541.3</ele>
        <time>2020-08-25T06:56:34.000Z</time>
      </trkpt>
      <trkpt lat="44.3487" lon="3.51701">
        <ele>541.3</ele>
        <time>2020-08-25T06:56:35.000Z</time>
      </trkpt>
      <trkpt lat="44.3487" lon="3.517">
        <ele>541.1</ele>
        <time>2020-08-25T06:56:37.000Z</time>
      </trkpt>
      <trkpt lat="44.3487" lon="3.51697">
        <ele>540.9</ele>
        <time>2020-08-25T06:56:38.000Z</time>
      </trkpt>
      <trkpt lat="44.34871" lon="3.51694">
        <ele>540.6</ele>
        <time>2020-08-25T06:56:39.000Z</time>
      </trkpt>
      <trkpt lat="44.34871" lon="3.51687">
        <ele>539.9</ele>
        <time>2020-08-25T06:56:41.000Z</time>
      </trkpt>
      <trkpt lat="44.34872" lon="3.51682">
        <ele>539.3</ele>
        <time>2020-08-25T06:56:42.000Z</time>
      </trkpt>
      <trkpt lat="44.34872" lon="3.51681">
        <ele>539.1</ele>
        <time>2020-08-25T06:56:43.000Z</time>
      </trkpt>
      <trkpt lat="44.34873" lon="3.51675">
        <ele>538.4</ele>
        <time>2020-08-25T06:56:45.000Z</time>
      </trkpt>
      <trkpt lat="44.34873" lon="3.51673">
        <ele>538.1</ele>
        <time>2020-08-25T06:56:46.000Z</time>
      </trkpt>
      <trkpt lat="44.34874" lon="3.51667">
        <ele>537.1</ele>
        <time>2020-08-25T06:56:47.000Z</time>
      </trkpt>
      <trkpt lat="44.34877" lon="3.51658">
        <ele>535.7</ele>
        <time>2020-08-25T06:56:49.000Z</time>
      </trkpt>
      <trkpt lat="44.34879" lon="3.51653">
        <ele>534.8</ele>
        <time>2020-08-25T06:56:50.000Z</time>
      </trkpt>
      <trkpt lat="44.34883" lon="3.51646">
        <ele>533.8</ele>
        <time>2020-08-25T06:56:51.000Z</time>
      </trkpt>
      <trkpt lat="44.34887" lon="3.51637">
        <ele>532.6</ele>
        <time>2020-08-25T06:56:53.000Z</time>
      </trkpt>
      <trkpt lat="44.34893" lon="3.51625">
        <ele>531.6</ele>
        <time>2020-08-25T06:56:54.000Z</time>
      </trkpt>
      <trkpt lat="44.34895" lon="3.51618">
        <ele>531.4</ele>
        <time>2020-08-25T06:56:55.000Z</time>
      </trkpt>
      <trkpt lat="44.34898" lon="3.51613">
        <ele>531.6</ele>
        <time>2020-08-25T06:56:57.000Z</time>
      </trkpt>
      <trkpt lat="44.349" lon="3.51609">
        <ele>531.8</ele>
        <time>2020-08-25T06:56:58.000Z</time>
      </trkpt>
      <trkpt lat="44.34902" lon="3.51605">
        <ele>532.1</ele>
        <time>2020-08-25T06:56:59.000Z</time>
      </trkpt>
      <trkpt lat="44.34903" lon="3.51604">
        <ele>532.3</ele>
        <time>2020-08-25T06:57:00.000Z</time>
      </trkpt>
      <trkpt lat="44.34904" lon="3.51601">
        <ele>532.5</ele>
        <time>2020-08-25T06:57:01.000Z</time>
      </trkpt>
      <trkpt lat="44.34904" lon="3.516">
        <ele>532.6</ele>
        <time>2020-08-25T06:57:03.000Z</time>
      </trkpt>
      <trkpt lat="44.34904" lon="3.516">
        <ele>532.6</ele>
        <time>2020-08-25T06:57:04.000Z</time>
      </trkpt>
      <trkpt lat="44.34904" lon="3.516">
        <ele>532.7</ele>
        <time>2020-08-25T06:57:05.000Z</time>
      </trkpt>
      <trkpt lat="44.34904" lon="3.516">
        <ele>532.7</ele>
        <time>2020-08-25T06:57:07.000Z</time>
      </trkpt>
      <trkpt lat="44.34904" lon="3.516">
        <ele>532.7</ele>
        <time>2020-08-25T06:57:09.000Z</time>
      </trkpt>
      <trkpt lat="44.34904" lon="3.51598">
        <ele>532.9</ele>
        <time>2020-08-25T06:57:11.000Z</time>
      </trkpt>
      <trkpt lat="44.34906" lon="3.51595">
        <ele>533.4</ele>
        <time>2020-08-25T06:57:15.000Z</time>
      </trkpt>
      <trkpt lat="44.34907" lon="3.51593">
        <ele>533.6</ele>
        <time>2020-08-25T06:57:16.000Z</time>
      </trkpt>
      <trkpt lat="44.34908" lon="3.51588">
        <ele>534.3</ele>
        <time>2020-08-25T06:57:18.000Z</time>
      </trkpt>
      <trkpt lat="44.34908" lon="3.51588">
        <ele>534.3</ele>
        <time>2020-08-25T06:57:19.000Z</time>
      </trkpt>
      <trkpt lat="44.34908" lon="3.51586">
        <ele>534.6</ele>
        <time>2020-08-25T06:57:21.000Z</time>
      </trkpt>
      <trkpt lat="44.34908" lon="3.51583">
        <ele>534.9</ele>
        <time>2020-08-25T06:57:22.000Z</time>
      </trkpt>
      <trkpt lat="44.34908" lon="3.5158">
        <ele>535.2</ele>
        <time>2020-08-25T06:57:24.000Z</time>
      </trkpt>
      <trkpt lat="44.34908" lon="3.51579">
        <ele>535.3</ele>
        <time>2020-08-25T06:57:26.000Z</time>
      </trkpt>
      <trkpt lat="44.34908" lon="3.51578">
        <ele>535.4</ele>
        <time>2020-08-25T06:57:27.000Z</time>
      </trkpt>
      <trkpt lat="44.34908" lon="3.51576">
        <ele>535.6</ele>
        <time>2020-08-25T06:57:28.000Z</time>
      </trkpt>
      <trkpt lat="44.34909" lon="3.51573">
        <ele>535.8</ele>
        <time>2020-08-25T06:57:30.000Z</time>
      </trkpt>
      <trkpt lat="44.34909" lon="3.5157">
        <ele>536</ele>
        <time>2020-08-25T06:57:31.000Z</time>
      </trkpt>
      <trkpt lat="44.34909" lon="3.51569">
        <ele>536.1</ele>
        <time>2020-08-25T06:57:32.000Z</time>
      </trkpt>
      <trkpt lat="44.34909" lon="3.51568">
        <ele>536.1</ele>
        <time>2020-08-25T06:57:33.000Z</time>
      </trkpt>
      <trkpt lat="44.34909" lon="3.51567">
        <ele>536.2</ele>
        <time>2020-08-25T06:57:34.000Z</time>
      </trkpt>
      <trkpt lat="44.34909" lon="3.51565">
        <ele>536.3</ele>
        <time>2020-08-25T06:57:35.000Z</time>
      </trkpt>
      <trkpt lat="44.34909" lon="3.51564">
        <ele>536.3</ele>
        <time>2020-08-25T06:57:36.000Z</time>
      </trkpt>
      <trkpt lat="44.34909" lon="3.51563">
        <ele>536.4</ele>
        <time>2020-08-25T06:57:38.000Z</time>
      </trkpt>
      <trkpt lat="44.34909" lon="3.51564">
        <ele>536.4</ele>
        <time>2020-08-25T06:57:39.000Z</time>
      </trkpt>
      <trkpt lat="44.34909" lon="3.51564">
        <ele>536.4</ele>
        <time>2020-08-25T06:57:40.000Z</time>
      </trkpt>
      <trkpt lat="44.34909" lon="3.51564">
        <ele>536.4</ele>
        <time>2020-08-25T06:57:42.000Z</time>
      </trkpt>
      <trkpt lat="44.34908" lon="3.51565">
        <ele>536.5</ele>
        <time>2020-08-25T06:57:44.000Z</time>
      </trkpt>
      <trkpt lat="44.34908" lon="3.51565">
        <ele>536.5</ele>
        <time>2020-08-25T06:57:46.000Z</time>
      </trkpt>
      <trkpt lat="44.34913" lon="3.5155">
        <ele>536.6</ele>
        <time>2020-08-25T07:02:14.000Z</time>
      </trkpt>
      <trkpt lat="44.34915" lon="3.51543">
        <ele>536.6</ele>
        <time>2020-08-25T07:02:16.000Z</time>
      </trkpt>
      <trkpt lat="44.34914" lon="3.51544">
        <ele>536.6</ele>
        <time>2020-08-25T07:02:18.000Z</time>
      </trkpt>
      <trkpt lat="44.34914" lon="3.51546">
        <ele>536.6</ele>
        <time>2020-08-25T07:02:19.000Z</time>
      </trkpt>
      <trkpt lat="44.34917" lon="3.51541">
        <ele>536.6</ele>
        <time>2020-08-25T07:02:20.000Z</time>
      </trkpt>
      <trkpt lat="44.3492" lon="3.51535">
        <ele>536.7</ele>
        <time>2020-08-25T07:02:22.000Z</time>
      </trkpt>
      <trkpt lat="44.34921" lon="3.5153">
        <ele>536.8</ele>
        <time>2020-08-25T07:02:23.000Z</time>
      </trkpt>
      <trkpt lat="44.34922" lon="3.51528">
        <ele>536.8</ele>
        <time>2020-08-25T07:02:24.000Z</time>
      </trkpt>
      <trkpt lat="44.34924" lon="3.51522">
        <ele>536.9</ele>
        <time>2020-08-25T07:02:26.000Z</time>
      </trkpt>
      <trkpt lat="44.34925" lon="3.51515">
        <ele>537</ele>
        <time>2020-08-25T07:02:27.000Z</time>
      </trkpt>
      <trkpt lat="44.34927" lon="3.51511">
        <ele>537</ele>
        <time>2020-08-25T07:02:28.000Z</time>
      </trkpt>
      <trkpt lat="44.34928" lon="3.51507">
        <ele>537</ele>
        <time>2020-08-25T07:02:29.000Z</time>
      </trkpt>
      <trkpt lat="44.34929" lon="3.51504">
        <ele>537</ele>
        <time>2020-08-25T07:02:30.000Z</time>
      </trkpt>
      <trkpt lat="44.34931" lon="3.51497">
        <ele>537</ele>
        <time>2020-08-25T07:02:32.000Z</time>
      </trkpt>
      <trkpt lat="44.34932" lon="3.51492">
        <ele>536.9</ele>
        <time>2020-08-25T07:02:33.000Z</time>
      </trkpt>
      <trkpt lat="44.34935" lon="3.51486">
        <ele>536.9</ele>
        <time>2020-08-25T07:02:34.000Z</time>
      </trkpt>
      <trkpt lat="44.34936" lon="3.51483">
        <ele>536.9</ele>
        <time>2020-08-25T07:02:35.000Z</time>
      </trkpt>
      <trkpt lat="44.34938" lon="3.51479">
        <ele>536.8</ele>
        <time>2020-08-25T07:02:37.000Z</time>
      </trkpt>
      <trkpt lat="44.3494" lon="3.51473">
        <ele>536.6</ele>
        <time>2020-08-25T07:02:38.000Z</time>
      </trkpt>
      <trkpt lat="44.34941" lon="3.51469">
        <ele>536.5</ele>
        <time>2020-08-25T07:02:40.000Z</time>
      </trkpt>
      <trkpt lat="44.34943" lon="3.51464">
        <ele>536.3</ele>
        <time>2020-08-25T07:02:41.000Z</time>
      </trkpt>
      <trkpt lat="44.34945" lon="3.51458">
        <ele>536.1</ele>
        <time>2020-08-25T07:02:43.000Z</time>
      </trkpt>
      <trkpt lat="44.34946" lon="3.51453">
        <ele>536</ele>
        <time>2020-08-25T07:02:44.000Z</time>
      </trkpt>
      <trkpt lat="44.34948" lon="3.5145">
        <ele>535.9</ele>
        <time>2020-08-25T07:02:45.000Z</time>
      </trkpt>
      <trkpt lat="44.34951" lon="3.51444">
        <ele>535.9</ele>
        <time>2020-08-25T07:02:47.000Z</time>
      </trkpt>
      <trkpt lat="44.34953" lon="3.5144">
        <ele>535.8</ele>
        <time>2020-08-25T07:02:48.000Z</time>
      </trkpt>
      <trkpt lat="44.34954" lon="3.51435">
        <ele>535.8</ele>
        <time>2020-08-25T07:02:49.000Z</time>
      </trkpt>
      <trkpt lat="44.34956" lon="3.51431">
        <ele>535.8</ele>
        <time>2020-08-25T07:02:51.000Z</time>
      </trkpt>
      <trkpt lat="44.34957" lon="3.51427">
        <ele>535.8</ele>
        <time>2020-08-25T07:02:52.000Z</time>
      </trkpt>
      <trkpt lat="44.34958" lon="3.51422">
        <ele>535.8</ele>
        <time>2020-08-25T07:02:53.000Z</time>
      </trkpt>
      <trkpt lat="44.34959" lon="3.5142">
        <ele>535.8</ele>
        <time>2020-08-25T07:02:54.000Z</time>
      </trkpt>
      <trkpt lat="44.3496" lon="3.51416">
        <ele>535.9</ele>
        <time>2020-08-25T07:02:55.000Z</time>
      </trkpt>
      <trkpt lat="44.34961" lon="3.51412">
        <ele>535.9</ele>
        <time>2020-08-25T07:02:56.000Z</time>
      </trkpt>
      <trkpt lat="44.34963" lon="3.51408">
        <ele>536.1</ele>
        <time>2020-08-25T07:02:58.000Z</time>
      </trkpt>
      <trkpt lat="44.34964" lon="3.51404">
        <ele>536.2</ele>
        <time>2020-08-25T07:02:59.000Z</time>
      </trkpt>
      <trkpt lat="44.34965" lon="3.514">
        <ele>536.3</ele>
        <time>2020-08-25T07:03:00.000Z</time>
      </trkpt>
      <trkpt lat="44.34966" lon="3.51396">
        <ele>536.5</ele>
        <time>2020-08-25T07:03:01.000Z</time>
      </trkpt>
      <trkpt lat="44.34968" lon="3.51393">
        <ele>536.7</ele>
        <time>2020-08-25T07:03:02.000Z</time>
      </trkpt>
      <trkpt lat="44.34969" lon="3.5139">
        <ele>536.9</ele>
        <time>2020-08-25T07:03:03.000Z</time>
      </trkpt>
      <trkpt lat="44.34971" lon="3.51387">
        <ele>537.1</ele>
        <time>2020-08-25T07:03:05.000Z</time>
      </trkpt>
      <trkpt lat="44.34971" lon="3.51383">
        <ele>537.3</ele>
        <time>2020-08-25T07:03:06.000Z</time>
      </trkpt>
      <trkpt lat="44.34971" lon="3.51382">
        <ele>537.4</ele>
        <time>2020-08-25T07:03:08.000Z</time>
      </trkpt>
      <trkpt lat="44.34971" lon="3.5138">
        <ele>537.5</ele>
        <time>2020-08-25T07:03:09.000Z</time>
      </trkpt>
      <trkpt lat="44.34972" lon="3.51378">
        <ele>537.6</ele>
        <time>2020-08-25T07:03:11.000Z</time>
      </trkpt>
      <trkpt lat="44.34972" lon="3.51377">
        <ele>537.7</ele>
        <time>2020-08-25T07:03:12.000Z</time>
      </trkpt>
      <trkpt lat="44.34973" lon="3.51375">
        <ele>537.9</ele>
        <time>2020-08-25T07:03:13.000Z</time>
      </trkpt>
      <trkpt lat="44.34973" lon="3.51373">
        <ele>538</ele>
        <time>2020-08-25T07:03:14.000Z</time>
      </trkpt>
      <trkpt lat="44.34973" lon="3.5137">
        <ele>538.2</ele>
        <time>2020-08-25T07:03:16.000Z</time>
      </trkpt>
      <trkpt lat="44.34973" lon="3.51369">
        <ele>538.3</ele>
        <time>2020-08-25T07:03:17.000Z</time>
      </trkpt>
      <trkpt lat="44.34974" lon="3.51368">
        <ele>538.3</ele>
        <time>2020-08-25T07:03:18.000Z</time>
      </trkpt>
      <trkpt lat="44.34974" lon="3.51365">
        <ele>538.5</ele>
        <time>2020-08-25T07:03:20.000Z</time>
      </trkpt>
      <trkpt lat="44.34974" lon="3.51364">
        <ele>538.5</ele>
        <time>2020-08-25T07:03:21.000Z</time>
      </trkpt>
      <trkpt lat="44.34973" lon="3.51363">
        <ele>538.6</ele>
        <time>2020-08-25T07:03:22.000Z</time>
      </trkpt>
      <trkpt lat="44.34973" lon="3.51363">
        <ele>538.6</ele>
        <time>2020-08-25T07:03:24.000Z</time>
      </trkpt>
      <trkpt lat="44.34972" lon="3.51362">
        <ele>538.7</ele>
        <time>2020-08-25T07:03:25.000Z</time>
      </trkpt>
      <trkpt lat="44.34971" lon="3.51363">
        <ele>538.7</ele>
        <time>2020-08-25T07:03:26.000Z</time>
      </trkpt>
      <trkpt lat="44.34969" lon="3.51363">
        <ele>538.7</ele>
        <time>2020-08-25T07:03:28.000Z</time>
      </trkpt>
      <trkpt lat="44.34968" lon="3.51363">
        <ele>538.7</ele>
        <time>2020-08-25T07:03:29.000Z</time>
      </trkpt>
      <trkpt lat="44.34967" lon="3.51363">
        <ele>538.8</ele>
        <time>2020-08-25T07:03:30.000Z</time>
      </trkpt>
      <trkpt lat="44.34966" lon="3.51363">
        <ele>538.8</ele>
        <time>2020-08-25T07:03:32.000Z</time>
      </trkpt>
      <trkpt lat="44.34966" lon="3.51364">
        <ele>538.7</ele>
        <time>2020-08-25T07:03:34.000Z</time>
      </trkpt>
      <trkpt lat="44.34966" lon="3.51364">
        <ele>538.7</ele>
        <time>2020-08-25T07:03:36.000Z</time>
      </trkpt>
      <trkpt lat="44.34965" lon="3.51365">
        <ele>538.7</ele>
        <time>2020-08-25T07:03:37.000Z</time>
      </trkpt>
      <trkpt lat="44.34964" lon="3.51365">
        <ele>538.7</ele>
        <time>2020-08-25T07:03:38.000Z</time>
      </trkpt>
      <trkpt lat="44.34962" lon="3.51365">
        <ele>538.6</ele>
        <time>2020-08-25T07:03:40.000Z</time>
      </trkpt>
      <trkpt lat="44.3496" lon="3.51365">
        <ele>538.6</ele>
        <time>2020-08-25T07:03:41.000Z</time>
      </trkpt>
      <trkpt lat="44.34959" lon="3.51365">
        <ele>538.5</ele>
        <time>2020-08-25T07:03:43.000Z</time>
      </trkpt>
      <trkpt lat="44.34957" lon="3.51364">
        <ele>538.3</ele>
        <time>2020-08-25T07:03:44.000Z</time>
      </trkpt>
      <trkpt lat="44.34953" lon="3.51364">
        <ele>538.1</ele>
        <time>2020-08-25T07:03:46.000Z</time>
      </trkpt>
      <trkpt lat="44.3495" lon="3.51364">
        <ele>537.8</ele>
        <time>2020-08-25T07:03:47.000Z</time>
      </trkpt>
      <trkpt lat="44.34945" lon="3.51365">
        <ele>537.4</ele>
        <time>2020-08-25T07:03:48.000Z</time>
      </trkpt>
      <trkpt lat="44.34941" lon="3.51366">
        <ele>537.2</ele>
        <time>2020-08-25T07:03:50.000Z</time>
      </trkpt>
      <trkpt lat="44.34934" lon="3.51369">
        <ele>536.8</ele>
        <time>2020-08-25T07:03:52.000Z</time>
      </trkpt>
      <trkpt lat="44.3493" lon="3.51371">
        <ele>536.7</ele>
        <time>2020-08-25T07:03:53.000Z</time>
      </trkpt>
      <trkpt lat="44.34925" lon="3.51374">
        <ele>536.6</ele>
        <time>2020-08-25T07:03:55.000Z</time>
      </trkpt>
      <trkpt lat="44.34921" lon="3.51375">
        <ele>536.7</ele>
        <time>2020-08-25T07:03:56.000Z</time>
      </trkpt>
      <trkpt lat="44.34919" lon="3.51377">
        <ele>536.7</ele>
        <time>2020-08-25T07:03:57.000Z</time>
      </trkpt>
      <trkpt lat="44.34916" lon="3.51379">
        <ele>536.8</ele>
        <time>2020-08-25T07:03:58.000Z</time>
      </trkpt>
      <trkpt lat="44.34913" lon="3.51381">
        <ele>536.9</ele>
        <time>2020-08-25T07:04:00.000Z</time>
      </trkpt>
      <trkpt lat="44.34912" lon="3.51381">
        <ele>537</ele>
        <time>2020-08-25T07:04:01.000Z</time>
      </trkpt>
      <trkpt lat="44.3491" lon="3.51383">
        <ele>537.1</ele>
        <time>2020-08-25T07:04:02.000Z</time>
      </trkpt>
      <trkpt lat="44.34907" lon="3.51384">
        <ele>537.3</ele>
        <time>2020-08-25T07:04:04.000Z</time>
      </trkpt>
      <trkpt lat="44.34906" lon="3.51385">
        <ele>537.4</ele>
        <time>2020-08-25T07:04:05.000Z</time>
      </trkpt>
      <trkpt lat="44.34904" lon="3.51386">
        <ele>537.5</ele>
        <time>2020-08-25T07:04:07.000Z</time>
      </trkpt>
      <trkpt lat="44.34903" lon="3.51388">
        <ele>537.6</ele>
        <time>2020-08-25T07:04:09.000Z</time>
      </trkpt>
      <trkpt lat="44.34902" lon="3.51388">
        <ele>537.7</ele>
        <time>2020-08-25T07:04:10.000Z</time>
      </trkpt>
      <trkpt lat="44.349" lon="3.5139">
        <ele>537.9</ele>
        <time>2020-08-25T07:04:11.000Z</time>
      </trkpt>
      <trkpt lat="44.34899" lon="3.5139">
        <ele>538</ele>
        <time>2020-08-25T07:04:12.000Z</time>
      </trkpt>
      <trkpt lat="44.34897" lon="3.51391">
        <ele>538.2</ele>
        <time>2020-08-25T07:04:13.000Z</time>
      </trkpt>
      <trkpt lat="44.34896" lon="3.51392">
        <ele>538.3</ele>
        <time>2020-08-25T07:04:15.000Z</time>
      </trkpt>
      <trkpt lat="44.34895" lon="3.51392">
        <ele>538.3</ele>
        <time>2020-08-25T07:04:16.000Z</time>
      </trkpt>
      <trkpt lat="44.34893" lon="3.51392">
        <ele>538.4</ele>
        <time>2020-08-25T07:04:17.000Z</time>
      </trkpt>
      <trkpt lat="44.34891" lon="3.51394">
        <ele>538.6</ele>
        <time>2020-08-25T07:04:19.000Z</time>
      </trkpt>
      <trkpt lat="44.34889" lon="3.51395">
        <ele>538.7</ele>
        <time>2020-08-25T07:04:21.000Z</time>
      </trkpt>
      <trkpt lat="44.34889" lon="3.51396">
        <ele>538.8</ele>
        <time>2020-08-25T07:04:22.000Z</time>
      </trkpt>
      <trkpt lat="44.34888" lon="3.51396">
        <ele>538.8</ele>
        <time>2020-08-25T07:04:23.000Z</time>
      </trkpt>
      <trkpt lat="44.34886" lon="3.51397">
        <ele>538.9</ele>
        <time>2020-08-25T07:04:24.000Z</time>
      </trkpt>
      <trkpt lat="44.34886" lon="3.51397">
        <ele>538.9</ele>
        <time>2020-08-25T07:04:25.000Z</time>
      </trkpt>
      <trkpt lat="44.34884" lon="3.51398">
        <ele>539</ele>
        <time>2020-08-25T07:04:27.000Z</time>
      </trkpt>
      <trkpt lat="44.34883" lon="3.51399">
        <ele>539</ele>
        <time>2020-08-25T07:04:28.000Z</time>
      </trkpt>
      <trkpt lat="44.3488" lon="3.514">
        <ele>539.1</ele>
        <time>2020-08-25T07:04:31.000Z</time>
      </trkpt>
      <trkpt lat="44.34878" lon="3.514">
        <ele>539.1</ele>
        <time>2020-08-25T07:04:33.000Z</time>
      </trkpt>
      <trkpt lat="44.34877" lon="3.514">
        <ele>539.2</ele>
        <time>2020-08-25T07:04:34.000Z</time>
      </trkpt>
      <trkpt lat="44.34875" lon="3.514">
        <ele>539.2</ele>
        <time>2020-08-25T07:04:35.000Z</time>
      </trkpt>
      <trkpt lat="44.34873" lon="3.51401">
        <ele>539.2</ele>
        <time>2020-08-25T07:04:37.000Z</time>
      </trkpt>
      <trkpt lat="44.3487" lon="3.51401">
        <ele>539.2</ele>
        <time>2020-08-25T07:04:39.000Z</time>
      </trkpt>
      <trkpt lat="44.34869" lon="3.51401">
        <ele>539.1</ele>
        <time>2020-08-25T07:04:40.000Z</time>
      </trkpt>
      <trkpt lat="44.34869" lon="3.51401">
        <ele>539.1</ele>
        <time>2020-08-25T07:04:41.000Z</time>
      </trkpt>
      <trkpt lat="44.34867" lon="3.51402">
        <ele>539.1</ele>
        <time>2020-08-25T07:04:42.000Z</time>
      </trkpt>
      <trkpt lat="44.34864" lon="3.51406">
        <ele>539</ele>
        <time>2020-08-25T07:04:44.000Z</time>
      </trkpt>
      <trkpt lat="44.34862" lon="3.51409">
        <ele>538.9</ele>
        <time>2020-08-25T07:04:45.000Z</time>
      </trkpt>
      <trkpt lat="44.34861" lon="3.5141">
        <ele>538.9</ele>
        <time>2020-08-25T07:04:46.000Z</time>
      </trkpt>
      <trkpt lat="44.34859" lon="3.51413">
        <ele>538.9</ele>
        <time>2020-08-25T07:04:48.000Z</time>
      </trkpt>
      <trkpt lat="44.34856" lon="3.51416">
        <ele>538.9</ele>
        <time>2020-08-25T07:04:49.000Z</time>
      </trkpt>
      <trkpt lat="44.34853" lon="3.51418">
        <ele>538.9</ele>
        <time>2020-08-25T07:04:50.000Z</time>
      </trkpt>
      <trkpt lat="44.3485" lon="3.51421">
        <ele>538.9</ele>
        <time>2020-08-25T07:04:52.000Z</time>
      </trkpt>
      <trkpt lat="44.34847" lon="3.51423">
        <ele>539.1</ele>
        <time>2020-08-25T07:04:53.000Z</time>
      </trkpt>
      <trkpt lat="44.34842" lon="3.51427">
        <ele>539.2</ele>
        <time>2020-08-25T07:04:54.000Z</time>
      </trkpt>
      <trkpt lat="44.34837" lon="3.5143">
        <ele>539.3</ele>
        <time>2020-08-25T07:04:56.000Z</time>
      </trkpt>
      <trkpt lat="44.34833" lon="3.51431">
        <ele>539.4</ele>
        <time>2020-08-25T07:04:57.000Z</time>
      </trkpt>
      <trkpt lat="44.3483" lon="3.51432">
        <ele>539.5</ele>
        <time>2020-08-25T07:04:58.000Z</time>
      </trkpt>
      <trkpt lat="44.34826" lon="3.51433">
        <ele>539.5</ele>
        <time>2020-08-25T07:04:59.000Z</time>
      </trkpt>
      <trkpt lat="44.34821" lon="3.51434">
        <ele>539.5</ele>
        <time>2020-08-25T07:05:01.000Z</time>
      </trkpt>
      <trkpt lat="44.34817" lon="3.51436">
        <ele>539.5</ele>
        <time>2020-08-25T07:05:02.000Z</time>
      </trkpt>
      <trkpt lat="44.34812" lon="3.51438">
        <ele>539.5</ele>
        <time>2020-08-25T07:05:04.000Z</time>
      </trkpt>
      <trkpt lat="44.34809" lon="3.51441">
        <ele>539.5</ele>
        <time>2020-08-25T07:05:05.000Z</time>
      </trkpt>
      <trkpt lat="44.34808" lon="3.51445">
        <ele>539.5</ele>
        <time>2020-08-25T07:05:06.000Z</time>
      </trkpt>
      <trkpt lat="44.34806" lon="3.5145">
        <ele>539.6</ele>
        <time>2020-08-25T07:05:08.000Z</time>
      </trkpt>
      <trkpt lat="44.34804" lon="3.51454">
        <ele>539.7</ele>
        <time>2020-08-25T07:05:09.000Z</time>
      </trkpt>
      <trkpt lat="44.34802" lon="3.51457">
        <ele>539.8</ele>
        <time>2020-08-25T07:05:10.000Z</time>
      </trkpt>
      <trkpt lat="44.34801" lon="3.5146">
        <ele>539.9</ele>
        <time>2020-08-25T07:05:11.000Z</time>
      </trkpt>
      <trkpt lat="44.34799" lon="3.51463">
        <ele>540</ele>
        <time>2020-08-25T07:05:13.000Z</time>
      </trkpt>
      <trkpt lat="44.34796" lon="3.51465">
        <ele>540.1</ele>
        <time>2020-08-25T07:05:14.000Z</time>
      </trkpt>
      <trkpt lat="44.34795" lon="3.51466">
        <ele>540.1</ele>
        <time>2020-08-25T07:05:15.000Z</time>
      </trkpt>
      <trkpt lat="44.34793" lon="3.5147">
        <ele>540.3</ele>
        <time>2020-08-25T07:05:17.000Z</time>
      </trkpt>
      <trkpt lat="44.34792" lon="3.51471">
        <ele>540.3</ele>
        <time>2020-08-25T07:05:18.000Z</time>
      </trkpt>
      <trkpt lat="44.3479" lon="3.51475">
        <ele>540.5</ele>
        <time>2020-08-25T07:05:19.000Z</time>
      </trkpt>
      <trkpt lat="44.34789" lon="3.51476">
        <ele>540.5</ele>
        <time>2020-08-25T07:05:20.000Z</time>
      </trkpt>
      <trkpt lat="44.34787" lon="3.51478">
        <ele>540.7</ele>
        <time>2020-08-25T07:05:21.000Z</time>
      </trkpt>
      <trkpt lat="44.34785" lon="3.51481">
        <ele>540.9</ele>
        <time>2020-08-25T07:05:23.000Z</time>
      </trkpt>
      <trkpt lat="44.34784" lon="3.51482">
        <ele>541</ele>
        <time>2020-08-25T07:05:24.000Z</time>
      </trkpt>
      <trkpt lat="44.34782" lon="3.51483">
        <ele>541.1</ele>
        <time>2020-08-25T07:05:25.000Z</time>
      </trkpt>
      <trkpt lat="44.34781" lon="3.51486">
        <ele>541.3</ele>
        <time>2020-08-25T07:05:27.000Z</time>
      </trkpt>
      <trkpt lat="44.34779" lon="3.51488">
        <ele>541.5</ele>
        <time>2020-08-25T07:05:28.000Z</time>
      </trkpt>
      <trkpt lat="44.34776" lon="3.5149">
        <ele>541.7</ele>
        <time>2020-08-25T07:05:30.000Z</time>
      </trkpt>
      <trkpt lat="44.34773" lon="3.51491">
        <ele>542</ele>
        <time>2020-08-25T07:05:32.000Z</time>
      </trkpt>
      <trkpt lat="44.3477" lon="3.51493">
        <ele>542.2</ele>
        <time>2020-08-25T07:05:33.000Z</time>
      </trkpt>
      <trkpt lat="44.34767" lon="3.51494">
        <ele>542.3</ele>
        <time>2020-08-25T07:05:34.000Z</time>
      </trkpt>
      <trkpt lat="44.34764" lon="3.51497">
        <ele>542.5</ele>
        <time>2020-08-25T07:05:36.000Z</time>
      </trkpt>
      <trkpt lat="44.34759" lon="3.515">
        <ele>542.6</ele>
        <time>2020-08-25T07:05:38.000Z</time>
      </trkpt>
      <trkpt lat="44.34757" lon="3.51501">
        <ele>542.6</ele>
        <time>2020-08-25T07:05:39.000Z</time>
      </trkpt>
      <trkpt lat="44.34756" lon="3.51501">
        <ele>542.6</ele>
        <time>2020-08-25T07:05:40.000Z</time>
      </trkpt>
      <trkpt lat="44.34752" lon="3.51502">
        <ele>542.6</ele>
        <time>2020-08-25T07:05:42.000Z</time>
      </trkpt>
      <trkpt lat="44.3475" lon="3.51502">
        <ele>542.5</ele>
        <time>2020-08-25T07:05:43.000Z</time>
      </trkpt>
      <trkpt lat="44.34746" lon="3.51503">
        <ele>542.4</ele>
        <time>2020-08-25T07:05:44.000Z</time>
      </trkpt>
      <trkpt lat="44.34743" lon="3.51504">
        <ele>542.3</ele>
        <time>2020-08-25T07:05:45.000Z</time>
      </trkpt>
      <trkpt lat="44.34739" lon="3.51505">
        <ele>542.1</ele>
        <time>2020-08-25T07:05:46.000Z</time>
      </trkpt>
      <trkpt lat="44.34734" lon="3.51506">
        <ele>541.9</ele>
        <time>2020-08-25T07:05:47.000Z</time>
      </trkpt>
      <trkpt lat="44.34731" lon="3.51506">
        <ele>541.9</ele>
        <time>2020-08-25T07:05:48.000Z</time>
      </trkpt>
      <trkpt lat="44.34728" lon="3.51507">
        <ele>541.9</ele>
        <time>2020-08-25T07:05:49.000Z</time>
      </trkpt>
      <trkpt lat="44.34723" lon="3.51507">
        <ele>541.9</ele>
        <time>2020-08-25T07:05:51.000Z</time>
      </trkpt>
      <trkpt lat="44.34722" lon="3.51507">
        <ele>541.8</ele>
        <time>2020-08-25T07:05:52.000Z</time>
      </trkpt>
      <trkpt lat="44.3472" lon="3.51507">
        <ele>541.8</ele>
        <time>2020-08-25T07:05:53.000Z</time>
      </trkpt>
      <trkpt lat="44.34717" lon="3.51507">
        <ele>541.7</ele>
        <time>2020-08-25T07:05:54.000Z</time>
      </trkpt>
      <trkpt lat="44.34713" lon="3.51507">
        <ele>541.6</ele>
        <time>2020-08-25T07:05:55.000Z</time>
      </trkpt>
      <trkpt lat="44.34708" lon="3.51506">
        <ele>541.2</ele>
        <time>2020-08-25T07:05:56.000Z</time>
      </trkpt>
      <trkpt lat="44.34693" lon="3.51506">
        <ele>540.5</ele>
        <time>2020-08-25T07:05:58.000Z</time>
      </trkpt>
      <trkpt lat="44.34686" lon="3.51511">
        <ele>540.3</ele>
        <time>2020-08-25T07:06:00.000Z</time>
      </trkpt>
      <trkpt lat="44.34684" lon="3.51516">
        <ele>540.3</ele>
        <time>2020-08-25T07:06:01.000Z</time>
      </trkpt>
      <trkpt lat="44.34681" lon="3.51518">
        <ele>540.3</ele>
        <time>2020-08-25T07:06:02.000Z</time>
      </trkpt>
      <trkpt lat="44.34678" lon="3.51519">
        <ele>540.3</ele>
        <time>2020-08-25T07:06:03.000Z</time>
      </trkpt>
      <trkpt lat="44.34676" lon="3.5152">
        <ele>540.3</ele>
        <time>2020-08-25T07:06:05.000Z</time>
      </trkpt>
      <trkpt lat="44.34672" lon="3.51522">
        <ele>540.3</ele>
        <time>2020-08-25T07:06:06.000Z</time>
      </trkpt>
      <trkpt lat="44.34672" lon="3.51522">
        <ele>540.3</ele>
        <time>2020-08-25T07:06:07.000Z</time>
      </trkpt>
      <trkpt lat="44.34669" lon="3.51523">
        <ele>540.3</ele>
        <time>2020-08-25T07:06:08.000Z</time>
      </trkpt>
      <trkpt lat="44.34666" lon="3.51523">
        <ele>540.2</ele>
        <time>2020-08-25T07:06:10.000Z</time>
      </trkpt>
      <trkpt lat="44.34664" lon="3.51522">
        <ele>540.2</ele>
        <time>2020-08-25T07:06:11.000Z</time>
      </trkpt>
      <trkpt lat="44.34662" lon="3.51521">
        <ele>540.2</ele>
        <time>2020-08-25T07:06:13.000Z</time>
      </trkpt>
      <trkpt lat="44.3466" lon="3.51521">
        <ele>540.1</ele>
        <time>2020-08-25T07:06:14.000Z</time>
      </trkpt>
      <trkpt lat="44.34657" lon="3.5152">
        <ele>540</ele>
        <time>2020-08-25T07:06:16.000Z</time>
      </trkpt>
      <trkpt lat="44.34654" lon="3.5152">
        <ele>539.9</ele>
        <time>2020-08-25T07:06:17.000Z</time>
      </trkpt>
      <trkpt lat="44.34648" lon="3.5152">
        <ele>539.5</ele>
        <time>2020-08-25T07:06:19.000Z</time>
      </trkpt>
      <trkpt lat="44.34645" lon="3.5152">
        <ele>539.2</ele>
        <time>2020-08-25T07:06:20.000Z</time>
      </trkpt>
      <trkpt lat="44.34642" lon="3.51519">
        <ele>538.9</ele>
        <time>2020-08-25T07:06:21.000Z</time>
      </trkpt>
      <trkpt lat="44.3464" lon="3.51519">
        <ele>538.7</ele>
        <time>2020-08-25T07:06:22.000Z</time>
      </trkpt>
      <trkpt lat="44.34637" lon="3.5152">
        <ele>538.3</ele>
        <time>2020-08-25T07:06:24.000Z</time>
      </trkpt>
      <trkpt lat="44.34634" lon="3.5152">
        <ele>538</ele>
        <time>2020-08-25T07:06:25.000Z</time>
      </trkpt>
      <trkpt lat="44.3463" lon="3.51519">
        <ele>537.5</ele>
        <time>2020-08-25T07:06:27.000Z</time>
      </trkpt>
      <trkpt lat="44.34627" lon="3.51517">
        <ele>537.2</ele>
        <time>2020-08-25T07:06:28.000Z</time>
      </trkpt>
      <trkpt lat="44.34626" lon="3.51516">
        <ele>537.1</ele>
        <time>2020-08-25T07:06:29.000Z</time>
      </trkpt>
      <trkpt lat="44.34623" lon="3.51514">
        <ele>536.8</ele>
        <time>2020-08-25T07:06:30.000Z</time>
      </trkpt>
      <trkpt lat="44.3462" lon="3.51512">
        <ele>536.5</ele>
        <time>2020-08-25T07:06:31.000Z</time>
      </trkpt>
      <trkpt lat="44.34617" lon="3.51509">
        <ele>536.2</ele>
        <time>2020-08-25T07:06:32.000Z</time>
      </trkpt>
      <trkpt lat="44.34613" lon="3.51505">
        <ele>535.6</ele>
        <time>2020-08-25T07:06:34.000Z</time>
      </trkpt>
      <trkpt lat="44.34611" lon="3.515">
        <ele>535.2</ele>
        <time>2020-08-25T07:06:35.000Z</time>
      </trkpt>
      <trkpt lat="44.3461" lon="3.51499">
        <ele>535.1</ele>
        <time>2020-08-25T07:06:36.000Z</time>
      </trkpt>
      <trkpt lat="44.34606" lon="3.51497">
        <ele>534.6</ele>
        <time>2020-08-25T07:06:38.000Z</time>
      </trkpt>
      <trkpt lat="44.34601" lon="3.51497">
        <ele>533.8</ele>
        <time>2020-08-25T07:06:39.000Z</time>
      </trkpt>
      <trkpt lat="44.34598" lon="3.51497">
        <ele>533.3</ele>
        <time>2020-08-25T07:06:40.000Z</time>
      </trkpt>
      <trkpt lat="44.34589" lon="3.51489">
        <ele>531.3</ele>
        <time>2020-08-25T07:06:42.000Z</time>
      </trkpt>
      <trkpt lat="44.34582" lon="3.51482">
        <ele>529.9</ele>
        <time>2020-08-25T07:06:43.000Z</time>
      </trkpt>
      <trkpt lat="44.34579" lon="3.51484">
        <ele>529.4</ele>
        <time>2020-08-25T07:06:45.000Z</time>
      </trkpt>
      <trkpt lat="44.34577" lon="3.51482">
        <ele>529.1</ele>
        <time>2020-08-25T07:06:46.000Z</time>
      </trkpt>
      <trkpt lat="44.34576" lon="3.51479">
        <ele>528.7</ele>
        <time>2020-08-25T07:06:47.000Z</time>
      </trkpt>
      <trkpt lat="44.34573" lon="3.51474">
        <ele>528.1</ele>
        <time>2020-08-25T07:06:49.000Z</time>
      </trkpt>
      <trkpt lat="44.34571" lon="3.51468">
        <ele>527.5</ele>
        <time>2020-08-25T07:06:50.000Z</time>
      </trkpt>
      <trkpt lat="44.34563" lon="3.51456">
        <ele>526.4</ele>
        <time>2020-08-25T07:06:52.000Z</time>
      </trkpt>
      <trkpt lat="44.3455" lon="3.51444">
        <ele>525</ele>
        <time>2020-08-25T07:06:53.000Z</time>
      </trkpt>
      <trkpt lat="44.3454" lon="3.51438">
        <ele>524</ele>
        <time>2020-08-25T07:06:55.000Z</time>
      </trkpt>
      <trkpt lat="44.34539" lon="3.51438">
        <ele>523.9</ele>
        <time>2020-08-25T07:06:57.000Z</time>
      </trkpt>
      <trkpt lat="44.34543" lon="3.51437">
        <ele>523.6</ele>
        <time>2020-08-25T07:06:58.000Z</time>
      </trkpt>
      <trkpt lat="44.34544" lon="3.51435">
        <ele>523.4</ele>
        <time>2020-08-25T07:06:59.000Z</time>
      </trkpt>
      <trkpt lat="44.34544" lon="3.51432">
        <ele>523.3</ele>
        <time>2020-08-25T07:07:00.000Z</time>
      </trkpt>
      <trkpt lat="44.34543" lon="3.5143">
        <ele>523.2</ele>
        <time>2020-08-25T07:07:02.000Z</time>
      </trkpt>
      <trkpt lat="44.34543" lon="3.51428">
        <ele>523.1</ele>
        <time>2020-08-25T07:07:03.000Z</time>
      </trkpt>
      <trkpt lat="44.34544" lon="3.51427">
        <ele>523</ele>
        <time>2020-08-25T07:07:04.000Z</time>
      </trkpt>
      <trkpt lat="44.34545" lon="3.51425">
        <ele>522.9</ele>
        <time>2020-08-25T07:07:05.000Z</time>
      </trkpt>
      <trkpt lat="44.34544" lon="3.51419">
        <ele>522.7</ele>
        <time>2020-08-25T07:07:07.000Z</time>
      </trkpt>
      <trkpt lat="44.34544" lon="3.51416">
        <ele>522.5</ele>
        <time>2020-08-25T07:07:08.000Z</time>
      </trkpt>
      <trkpt lat="44.34542" lon="3.51408">
        <ele>522.2</ele>
        <time>2020-08-25T07:07:09.000Z</time>
      </trkpt>
      <trkpt lat="44.34532" lon="3.51398">
        <ele>521.3</ele>
        <time>2020-08-25T07:07:11.000Z</time>
      </trkpt>
      <trkpt lat="44.3452" lon="3.5139">
        <ele>520.4</ele>
        <time>2020-08-25T07:07:13.000Z</time>
      </trkpt>
      <trkpt lat="44.34511" lon="3.51382">
        <ele>519.8</ele>
        <time>2020-08-25T07:07:14.000Z</time>
      </trkpt>
      <trkpt lat="44.34501" lon="3.51375">
        <ele>519</ele>
        <time>2020-08-25T07:07:15.000Z</time>
      </trkpt>
      <trkpt lat="44.34496" lon="3.51372">
        <ele>518.5</ele>
        <time>2020-08-25T07:07:16.000Z</time>
      </trkpt>
      <trkpt lat="44.34479" lon="3.51355">
        <ele>516.4</ele>
        <time>2020-08-25T07:07:18.000Z</time>
      </trkpt>
      <trkpt lat="44.34477" lon="3.51353">
        <ele>516.2</ele>
        <time>2020-08-25T07:07:19.000Z</time>
      </trkpt>
      <trkpt lat="44.34479" lon="3.51351">
        <ele>515.9</ele>
        <time>2020-08-25T07:07:21.000Z</time>
      </trkpt>
      <trkpt lat="44.34483" lon="3.51352">
        <ele>515.6</ele>
        <time>2020-08-25T07:07:22.000Z</time>
      </trkpt>
      <trkpt lat="44.34482" lon="3.51352">
        <ele>515.5</ele>
        <time>2020-08-25T07:07:23.000Z</time>
      </trkpt>
      <trkpt lat="44.3448" lon="3.51351">
        <ele>515.3</ele>
        <time>2020-08-25T07:07:24.000Z</time>
      </trkpt>
      <trkpt lat="44.34476" lon="3.51348">
        <ele>514.9</ele>
        <time>2020-08-25T07:07:25.000Z</time>
      </trkpt>
      <trkpt lat="44.34474" lon="3.51345">
        <ele>514.7</ele>
        <time>2020-08-25T07:07:27.000Z</time>
      </trkpt>
      <trkpt lat="44.34472" lon="3.51339">
        <ele>514.3</ele>
        <time>2020-08-25T07:07:28.000Z</time>
      </trkpt>
      <trkpt lat="44.34467" lon="3.51334">
        <ele>513.9</ele>
        <time>2020-08-25T07:07:30.000Z</time>
      </trkpt>
      <trkpt lat="44.34453" lon="3.51328">
        <ele>513.1</ele>
        <time>2020-08-25T07:07:31.000Z</time>
      </trkpt>
      <trkpt lat="44.34446" lon="3.51325">
        <ele>512.7</ele>
        <time>2020-08-25T07:07:33.000Z</time>
      </trkpt>
      <trkpt lat="44.34438" lon="3.51322">
        <ele>512.3</ele>
        <time>2020-08-25T07:07:34.000Z</time>
      </trkpt>
      <trkpt lat="44.34435" lon="3.51316">
        <ele>512</ele>
        <time>2020-08-25T07:07:35.000Z</time>
      </trkpt>
      <trkpt lat="44.34433" lon="3.51312">
        <ele>511.8</ele>
        <time>2020-08-25T07:07:37.000Z</time>
      </trkpt>
      <trkpt lat="44.3443" lon="3.51308">
        <ele>511.5</ele>
        <time>2020-08-25T07:07:38.000Z</time>
      </trkpt>
      <trkpt lat="44.34428" lon="3.51304">
        <ele>511</ele>
        <time>2020-08-25T07:07:39.000Z</time>
      </trkpt>
      <trkpt lat="44.34426" lon="3.51299">
        <ele>510.5</ele>
        <time>2020-08-25T07:07:40.000Z</time>
      </trkpt>
      <trkpt lat="44.34422" lon="3.51292">
        <ele>509.6</ele>
        <time>2020-08-25T07:07:41.000Z</time>
      </trkpt>
      <trkpt lat="44.34419" lon="3.51288">
        <ele>509.2</ele>
        <time>2020-08-25T07:07:43.000Z</time>
      </trkpt>
      <trkpt lat="44.34417" lon="3.51286">
        <ele>508.9</ele>
        <time>2020-08-25T07:07:44.000Z</time>
      </trkpt>
      <trkpt lat="44.34414" lon="3.51282">
        <ele>508.5</ele>
        <time>2020-08-25T07:07:46.000Z</time>
      </trkpt>
      <trkpt lat="44.34411" lon="3.51279">
        <ele>508.1</ele>
        <time>2020-08-25T07:07:48.000Z</time>
      </trkpt>
      <trkpt lat="44.34409" lon="3.51277">
        <ele>507.8</ele>
        <time>2020-08-25T07:07:49.000Z</time>
      </trkpt>
      <trkpt lat="44.34408" lon="3.51275">
        <ele>507.6</ele>
        <time>2020-08-25T07:07:50.000Z</time>
      </trkpt>
      <trkpt lat="44.34406" lon="3.51273">
        <ele>507.5</ele>
        <time>2020-08-25T07:07:51.000Z</time>
      </trkpt>
      <trkpt lat="44.34405" lon="3.51271">
        <ele>507.3</ele>
        <time>2020-08-25T07:07:53.000Z</time>
      </trkpt>
      <trkpt lat="44.34403" lon="3.51269">
        <ele>507.1</ele>
        <time>2020-08-25T07:07:54.000Z</time>
      </trkpt>
      <trkpt lat="44.34402" lon="3.51267">
        <ele>507</ele>
        <time>2020-08-25T07:07:56.000Z</time>
      </trkpt>
      <trkpt lat="44.34401" lon="3.51265">
        <ele>506.8</ele>
        <time>2020-08-25T07:08:04.000Z</time>
      </trkpt>
      <trkpt lat="44.34399" lon="3.51263">
        <ele>506.7</ele>
        <time>2020-08-25T07:08:05.000Z</time>
      </trkpt>
      <trkpt lat="44.34398" lon="3.51261">
        <ele>506.6</ele>
        <time>2020-08-25T07:08:06.000Z</time>
      </trkpt>
      <trkpt lat="44.34396" lon="3.51258">
        <ele>506.5</ele>
        <time>2020-08-25T07:08:08.000Z</time>
      </trkpt>
      <trkpt lat="44.34395" lon="3.51257">
        <ele>506.4</ele>
        <time>2020-08-25T07:08:09.000Z</time>
      </trkpt>
      <trkpt lat="44.34394" lon="3.51256">
        <ele>506.4</ele>
        <time>2020-08-25T07:08:11.000Z</time>
      </trkpt>
      <trkpt lat="44.34393" lon="3.51254">
        <ele>506.3</ele>
        <time>2020-08-25T07:08:12.000Z</time>
      </trkpt>
      <trkpt lat="44.34392" lon="3.51253">
        <ele>506.3</ele>
        <time>2020-08-25T07:08:13.000Z</time>
      </trkpt>
      <trkpt lat="44.3439" lon="3.5125">
        <ele>506.2</ele>
        <time>2020-08-25T07:08:15.000Z</time>
      </trkpt>
      <trkpt lat="44.34389" lon="3.51249">
        <ele>506.2</ele>
        <time>2020-08-25T07:08:16.000Z</time>
      </trkpt>
      <trkpt lat="44.34388" lon="3.51247">
        <ele>506.1</ele>
        <time>2020-08-25T07:08:17.000Z</time>
      </trkpt>
      <trkpt lat="44.34383" lon="3.51244">
        <ele>505.9</ele>
        <time>2020-08-25T07:08:19.000Z</time>
      </trkpt>
      <trkpt lat="44.34382" lon="3.51243">
        <ele>505.9</ele>
        <time>2020-08-25T07:08:20.000Z</time>
      </trkpt>
      <trkpt lat="44.34378" lon="3.51241">
        <ele>505.8</ele>
        <time>2020-08-25T07:08:22.000Z</time>
      </trkpt>
      <trkpt lat="44.34376" lon="3.51239">
        <ele>505.7</ele>
        <time>2020-08-25T07:08:23.000Z</time>
      </trkpt>
      <trkpt lat="44.34375" lon="3.51238">
        <ele>505.6</ele>
        <time>2020-08-25T07:08:24.000Z</time>
      </trkpt>
      <trkpt lat="44.34372" lon="3.51234">
        <ele>505.5</ele>
        <time>2020-08-25T07:08:25.000Z</time>
      </trkpt>
      <trkpt lat="44.34371" lon="3.51233">
        <ele>505.5</ele>
        <time>2020-08-25T07:08:26.000Z</time>
      </trkpt>
      <trkpt lat="44.34371" lon="3.51228">
        <ele>505.3</ele>
        <time>2020-08-25T07:08:28.000Z</time>
      </trkpt>
      <trkpt lat="44.34368" lon="3.51225">
        <ele>505.2</ele>
        <time>2020-08-25T07:08:29.000Z</time>
      </trkpt>
      <trkpt lat="44.34366" lon="3.51222">
        <ele>505.1</ele>
        <time>2020-08-25T07:08:30.000Z</time>
      </trkpt>
      <trkpt lat="44.34364" lon="3.51219">
        <ele>505</ele>
        <time>2020-08-25T07:08:31.000Z</time>
      </trkpt>
      <trkpt lat="44.34362" lon="3.51216">
        <ele>504.9</ele>
        <time>2020-08-25T07:08:32.000Z</time>
      </trkpt>
      <trkpt lat="44.34359" lon="3.51212">
        <ele>504.7</ele>
        <time>2020-08-25T07:08:34.000Z</time>
      </trkpt>
      <trkpt lat="44.34358" lon="3.51208">
        <ele>504.6</ele>
        <time>2020-08-25T07:08:35.000Z</time>
      </trkpt>
      <trkpt lat="44.34358" lon="3.51203">
        <ele>504.4</ele>
        <time>2020-08-25T07:08:36.000Z</time>
      </trkpt>
      <trkpt lat="44.34356" lon="3.51198">
        <ele>504</ele>
        <time>2020-08-25T07:08:38.000Z</time>
      </trkpt>
      <trkpt lat="44.34354" lon="3.51194">
        <ele>503.7</ele>
        <time>2020-08-25T07:08:39.000Z</time>
      </trkpt>
      <trkpt lat="44.34351" lon="3.5119">
        <ele>503.3</ele>
        <time>2020-08-25T07:08:40.000Z</time>
      </trkpt>
      <trkpt lat="44.34348" lon="3.51181">
        <ele>502.6</ele>
        <time>2020-08-25T07:08:41.000Z</time>
      </trkpt>
      <trkpt lat="44.34346" lon="3.51175">
        <ele>502.1</ele>
        <time>2020-08-25T07:08:43.000Z</time>
      </trkpt>
      <trkpt lat="44.34345" lon="3.5117">
        <ele>501.8</ele>
        <time>2020-08-25T07:08:44.000Z</time>
      </trkpt>
      <trkpt lat="44.34342" lon="3.51163">
        <ele>501.4</ele>
        <time>2020-08-25T07:08:46.000Z</time>
      </trkpt>
      <trkpt lat="44.3434" lon="3.51158">
        <ele>501.3</ele>
        <time>2020-08-25T07:08:48.000Z</time>
      </trkpt>
      <trkpt lat="44.34338" lon="3.51155">
        <ele>501.2</ele>
        <time>2020-08-25T07:08:49.000Z</time>
      </trkpt>
      <trkpt lat="44.34338" lon="3.51153">
        <ele>501.1</ele>
        <time>2020-08-25T07:08:50.000Z</time>
      </trkpt>
      <trkpt lat="44.34336" lon="3.51149">
        <ele>501.1</ele>
        <time>2020-08-25T07:08:51.000Z</time>
      </trkpt>
      <trkpt lat="44.34331" lon="3.5114">
        <ele>500.9</ele>
        <time>2020-08-25T07:08:54.000Z</time>
      </trkpt>
      <trkpt lat="44.34329" lon="3.51136">
        <ele>500.8</ele>
        <time>2020-08-25T07:08:55.000Z</time>
      </trkpt>
      <trkpt lat="44.34327" lon="3.51132">
        <ele>500.6</ele>
        <time>2020-08-25T07:08:56.000Z</time>
      </trkpt>
      <trkpt lat="44.34323" lon="3.51121">
        <ele>500</ele>
        <time>2020-08-25T07:08:57.000Z</time>
      </trkpt>
      <trkpt lat="44.34316" lon="3.51105">
        <ele>498.6</ele>
        <time>2020-08-25T07:08:59.000Z</time>
      </trkpt>
      <trkpt lat="44.34312" lon="3.51095">
        <ele>497.6</ele>
        <time>2020-08-25T07:09:00.000Z</time>
      </trkpt>
      <trkpt lat="44.3431" lon="3.51091">
        <ele>497.2</ele>
        <time>2020-08-25T07:09:01.000Z</time>
      </trkpt>
      <trkpt lat="44.34309" lon="3.51089">
        <ele>497</ele>
        <time>2020-08-25T07:09:02.000Z</time>
      </trkpt>
      <trkpt lat="44.34308" lon="3.51086">
        <ele>496.7</ele>
        <time>2020-08-25T07:09:04.000Z</time>
      </trkpt>
      <trkpt lat="44.34305" lon="3.51082">
        <ele>496.2</ele>
        <time>2020-08-25T07:09:05.000Z</time>
      </trkpt>
      <trkpt lat="44.34303" lon="3.5108">
        <ele>496</ele>
        <time>2020-08-25T07:09:06.000Z</time>
      </trkpt>
      <trkpt lat="44.34302" lon="3.51078">
        <ele>495.9</ele>
        <time>2020-08-25T07:09:07.000Z</time>
      </trkpt>
      <trkpt lat="44.343" lon="3.51075">
        <ele>495.7</ele>
        <time>2020-08-25T07:09:09.000Z</time>
      </trkpt>
      <trkpt lat="44.34299" lon="3.51072">
        <ele>495.6</ele>
        <time>2020-08-25T07:09:10.000Z</time>
      </trkpt>
      <trkpt lat="44.34299" lon="3.51071">
        <ele>495.5</ele>
        <time>2020-08-25T07:09:11.000Z</time>
      </trkpt>
      <trkpt lat="44.34296" lon="3.51068">
        <ele>495.4</ele>
        <time>2020-08-25T07:09:13.000Z</time>
      </trkpt>
      <trkpt lat="44.34296" lon="3.51067">
        <ele>495.4</ele>
        <time>2020-08-25T07:09:14.000Z</time>
      </trkpt>
      <trkpt lat="44.34295" lon="3.51066">
        <ele>495.4</ele>
        <time>2020-08-25T07:09:15.000Z</time>
      </trkpt>
      <trkpt lat="44.34293" lon="3.51062">
        <ele>495.4</ele>
        <time>2020-08-25T07:09:17.000Z</time>
      </trkpt>
      <trkpt lat="44.34291" lon="3.51059">
        <ele>495.4</ele>
        <time>2020-08-25T07:09:18.000Z</time>
      </trkpt>
      <trkpt lat="44.34288" lon="3.51054">
        <ele>495.5</ele>
        <time>2020-08-25T07:09:19.000Z</time>
      </trkpt>
      <trkpt lat="44.34285" lon="3.51049">
        <ele>495.5</ele>
        <time>2020-08-25T07:09:20.000Z</time>
      </trkpt>
      <trkpt lat="44.34285" lon="3.51048">
        <ele>495.5</ele>
        <time>2020-08-25T07:09:21.000Z</time>
      </trkpt>
      <trkpt lat="44.34283" lon="3.51044">
        <ele>495.6</ele>
        <time>2020-08-25T07:09:23.000Z</time>
      </trkpt>
      <trkpt lat="44.34281" lon="3.5104">
        <ele>495.6</ele>
        <time>2020-08-25T07:09:24.000Z</time>
      </trkpt>
      <trkpt lat="44.34279" lon="3.51034">
        <ele>495.7</ele>
        <time>2020-08-25T07:09:25.000Z</time>
      </trkpt>
      <trkpt lat="44.34277" lon="3.5103">
        <ele>495.8</ele>
        <time>2020-08-25T07:09:27.000Z</time>
      </trkpt>
      <trkpt lat="44.34276" lon="3.51028">
        <ele>495.8</ele>
        <time>2020-08-25T07:09:28.000Z</time>
      </trkpt>
      <trkpt lat="44.34274" lon="3.51025">
        <ele>495.8</ele>
        <time>2020-08-25T07:09:29.000Z</time>
      </trkpt>
      <trkpt lat="44.34272" lon="3.51022">
        <ele>495.9</ele>
        <time>2020-08-25T07:09:31.000Z</time>
      </trkpt>
      <trkpt lat="44.3427" lon="3.51017">
        <ele>496</ele>
        <time>2020-08-25T07:09:32.000Z</time>
      </trkpt>
      <trkpt lat="44.34268" lon="3.51013">
        <ele>496.1</ele>
        <time>2020-08-25T07:09:34.000Z</time>
      </trkpt>
      <trkpt lat="44.34267" lon="3.51009">
        <ele>496.2</ele>
        <time>2020-08-25T07:09:35.000Z</time>
      </trkpt>
      <trkpt lat="44.34264" lon="3.51002">
        <ele>496.3</ele>
        <time>2020-08-25T07:09:37.000Z</time>
      </trkpt>
      <trkpt lat="44.34263" lon="3.50999">
        <ele>496.3</ele>
        <time>2020-08-25T07:09:38.000Z</time>
      </trkpt>
      <trkpt lat="44.34261" lon="3.50994">
        <ele>496.4</ele>
        <time>2020-08-25T07:09:40.000Z</time>
      </trkpt>
      <trkpt lat="44.3426" lon="3.50992">
        <ele>496.5</ele>
        <time>2020-08-25T07:09:41.000Z</time>
      </trkpt>
      <trkpt lat="44.34259" lon="3.50989">
        <ele>496.5</ele>
        <time>2020-08-25T07:09:42.000Z</time>
      </trkpt>
      <trkpt lat="44.34257" lon="3.50986">
        <ele>496.6</ele>
        <time>2020-08-25T07:09:44.000Z</time>
      </trkpt>
      <trkpt lat="44.34255" lon="3.50982">
        <ele>496.7</ele>
        <time>2020-08-25T07:09:45.000Z</time>
      </trkpt>
      <trkpt lat="44.34254" lon="3.50977">
        <ele>496.7</ele>
        <time>2020-08-25T07:09:46.000Z</time>
      </trkpt>
      <trkpt lat="44.34253" lon="3.50975">
        <ele>496.8</ele>
        <time>2020-08-25T07:09:47.000Z</time>
      </trkpt>
      <trkpt lat="44.34251" lon="3.50968">
        <ele>496.9</ele>
        <time>2020-08-25T07:09:49.000Z</time>
      </trkpt>
      <trkpt lat="44.3425" lon="3.50964">
        <ele>497</ele>
        <time>2020-08-25T07:09:50.000Z</time>
      </trkpt>
      <trkpt lat="44.3425" lon="3.50961">
        <ele>497.1</ele>
        <time>2020-08-25T07:09:51.000Z</time>
      </trkpt>
      <trkpt lat="44.34249" lon="3.50959">
        <ele>497.1</ele>
        <time>2020-08-25T07:09:53.000Z</time>
      </trkpt>
      <trkpt lat="44.34249" lon="3.50956">
        <ele>497.2</ele>
        <time>2020-08-25T07:09:54.000Z</time>
      </trkpt>
      <trkpt lat="44.34249" lon="3.50953">
        <ele>497.3</ele>
        <time>2020-08-25T07:09:56.000Z</time>
      </trkpt>
      <trkpt lat="44.34249" lon="3.50951">
        <ele>497.4</ele>
        <time>2020-08-25T07:09:57.000Z</time>
      </trkpt>
      <trkpt lat="44.34248" lon="3.50944">
        <ele>497.7</ele>
        <time>2020-08-25T07:09:59.000Z</time>
      </trkpt>
      <trkpt lat="44.34248" lon="3.50942">
        <ele>497.8</ele>
        <time>2020-08-25T07:10:00.000Z</time>
      </trkpt>
      <trkpt lat="44.34248" lon="3.5094">
        <ele>497.9</ele>
        <time>2020-08-25T07:10:01.000Z</time>
      </trkpt>
      <trkpt lat="44.34248" lon="3.50935">
        <ele>498.2</ele>
        <time>2020-08-25T07:10:02.000Z</time>
      </trkpt>
      <trkpt lat="44.34247" lon="3.5093">
        <ele>498.5</ele>
        <time>2020-08-25T07:10:04.000Z</time>
      </trkpt>
      <trkpt lat="44.34247" lon="3.50928">
        <ele>498.6</ele>
        <time>2020-08-25T07:10:05.000Z</time>
      </trkpt>
      <trkpt lat="44.34247" lon="3.50922">
        <ele>499</ele>
        <time>2020-08-25T07:10:07.000Z</time>
      </trkpt>
      <trkpt lat="44.34246" lon="3.50917">
        <ele>499.5</ele>
        <time>2020-08-25T07:10:08.000Z</time>
      </trkpt>
      <trkpt lat="44.34246" lon="3.50915">
        <ele>499.6</ele>
        <time>2020-08-25T07:10:09.000Z</time>
      </trkpt>
      <trkpt lat="44.34246" lon="3.5091">
        <ele>500</ele>
        <time>2020-08-25T07:10:11.000Z</time>
      </trkpt>
      <trkpt lat="44.34245" lon="3.50907">
        <ele>500.4</ele>
        <time>2020-08-25T07:10:13.000Z</time>
      </trkpt>
      <trkpt lat="44.34244" lon="3.50904">
        <ele>500.7</ele>
        <time>2020-08-25T07:10:14.000Z</time>
      </trkpt>
      <trkpt lat="44.34243" lon="3.50901">
        <ele>501.1</ele>
        <time>2020-08-25T07:10:16.000Z</time>
      </trkpt>
      <trkpt lat="44.34241" lon="3.50895">
        <ele>501.9</ele>
        <time>2020-08-25T07:10:17.000Z</time>
      </trkpt>
      <trkpt lat="44.3424" lon="3.50893">
        <ele>502.1</ele>
        <time>2020-08-25T07:10:18.000Z</time>
      </trkpt>
      <trkpt lat="44.34239" lon="3.50892">
        <ele>502.3</ele>
        <time>2020-08-25T07:10:19.000Z</time>
      </trkpt>
      <trkpt lat="44.34238" lon="3.50889">
        <ele>502.8</ele>
        <time>2020-08-25T07:10:21.000Z</time>
      </trkpt>
      <trkpt lat="44.34236" lon="3.50886">
        <ele>503.2</ele>
        <time>2020-08-25T07:10:22.000Z</time>
      </trkpt>
      <trkpt lat="44.34235" lon="3.50884">
        <ele>503.5</ele>
        <time>2020-08-25T07:10:24.000Z</time>
      </trkpt>
      <trkpt lat="44.34235" lon="3.50884">
        <ele>503.7</ele>
        <time>2020-08-25T07:10:25.000Z</time>
      </trkpt>
      <trkpt lat="44.34234" lon="3.50882">
        <ele>503.9</ele>
        <time>2020-08-25T07:10:27.000Z</time>
      </trkpt>
      <trkpt lat="44.34233" lon="3.50881">
        <ele>504.1</ele>
        <time>2020-08-25T07:10:28.000Z</time>
      </trkpt>
      <trkpt lat="44.34233" lon="3.50881">
        <ele>504.2</ele>
        <time>2020-08-25T07:10:29.000Z</time>
      </trkpt>
      <trkpt lat="44.34232" lon="3.50877">
        <ele>504.7</ele>
        <time>2020-08-25T07:10:30.000Z</time>
      </trkpt>
      <trkpt lat="44.34232" lon="3.50877">
        <ele>504.8</ele>
        <time>2020-08-25T07:10:32.000Z</time>
      </trkpt>
      <trkpt lat="44.34232" lon="3.50876">
        <ele>505</ele>
        <time>2020-08-25T07:10:33.000Z</time>
      </trkpt>
      <trkpt lat="44.34231" lon="3.50875">
        <ele>505.2</ele>
        <time>2020-08-25T07:10:35.000Z</time>
      </trkpt>
      <trkpt lat="44.34231" lon="3.50873">
        <ele>505.4</ele>
        <time>2020-08-25T07:10:36.000Z</time>
      </trkpt>
      <trkpt lat="44.34229" lon="3.50869">
        <ele>506.1</ele>
        <time>2020-08-25T07:10:37.000Z</time>
      </trkpt>
      <trkpt lat="44.34229" lon="3.50868">
        <ele>506.2</ele>
        <time>2020-08-25T07:10:39.000Z</time>
      </trkpt>
      <trkpt lat="44.34229" lon="3.50868">
        <ele>506.2</ele>
        <time>2020-08-25T07:10:40.000Z</time>
      </trkpt>
      <trkpt lat="44.34229" lon="3.50868">
        <ele>506.3</ele>
        <time>2020-08-25T07:10:42.000Z</time>
      </trkpt>
      <trkpt lat="44.34228" lon="3.50867">
        <ele>506.4</ele>
        <time>2020-08-25T07:10:43.000Z</time>
      </trkpt>
      <trkpt lat="44.34228" lon="3.50866">
        <ele>506.7</ele>
        <time>2020-08-25T07:10:45.000Z</time>
      </trkpt>
      <trkpt lat="44.34228" lon="3.50865">
        <ele>506.8</ele>
        <time>2020-08-25T07:10:46.000Z</time>
      </trkpt>
      <trkpt lat="44.34224" lon="3.50858">
        <ele>508.2</ele>
        <time>2020-08-25T07:10:54.000Z</time>
      </trkpt>
      <trkpt lat="44.34222" lon="3.50857">
        <ele>508.7</ele>
        <time>2020-08-25T07:10:56.000Z</time>
      </trkpt>
      <trkpt lat="44.34221" lon="3.50856">
        <ele>508.9</ele>
        <time>2020-08-25T07:10:57.000Z</time>
      </trkpt>
      <trkpt lat="44.34221" lon="3.50855">
        <ele>509.1</ele>
        <time>2020-08-25T07:10:59.000Z</time>
      </trkpt>
      <trkpt lat="44.3422" lon="3.50854">
        <ele>509.3</ele>
        <time>2020-08-25T07:11:00.000Z</time>
      </trkpt>
      <trkpt lat="44.3422" lon="3.50852">
        <ele>509.6</ele>
        <time>2020-08-25T07:11:02.000Z</time>
      </trkpt>
      <trkpt lat="44.34219" lon="3.50851">
        <ele>509.8</ele>
        <time>2020-08-25T07:11:03.000Z</time>
      </trkpt>
      <trkpt lat="44.34219" lon="3.5085">
        <ele>509.9</ele>
        <time>2020-08-25T07:11:04.000Z</time>
      </trkpt>
      <trkpt lat="44.34218" lon="3.50849">
        <ele>510.2</ele>
        <time>2020-08-25T07:11:06.000Z</time>
      </trkpt>
      <trkpt lat="44.34218" lon="3.50848">
        <ele>510.4</ele>
        <time>2020-08-25T07:11:07.000Z</time>
      </trkpt>
      <trkpt lat="44.34217" lon="3.50847">
        <ele>510.6</ele>
        <time>2020-08-25T07:11:09.000Z</time>
      </trkpt>
      <trkpt lat="44.34217" lon="3.50847">
        <ele>510.7</ele>
        <time>2020-08-25T07:11:10.000Z</time>
      </trkpt>
      <trkpt lat="44.34216" lon="3.50846">
        <ele>510.9</ele>
        <time>2020-08-25T07:11:12.000Z</time>
      </trkpt>
      <trkpt lat="44.34216" lon="3.50845">
        <ele>511</ele>
        <time>2020-08-25T07:11:13.000Z</time>
      </trkpt>
      <trkpt lat="44.34215" lon="3.50844">
        <ele>511.3</ele>
        <time>2020-08-25T07:11:15.000Z</time>
      </trkpt>
      <trkpt lat="44.34215" lon="3.50843">
        <ele>511.5</ele>
        <time>2020-08-25T07:11:16.000Z</time>
      </trkpt>
      <trkpt lat="44.34214" lon="3.50842">
        <ele>511.7</ele>
        <time>2020-08-25T07:11:17.000Z</time>
      </trkpt>
      <trkpt lat="44.34213" lon="3.50841">
        <ele>512</ele>
        <time>2020-08-25T07:11:18.000Z</time>
      </trkpt>
      <trkpt lat="44.34213" lon="3.5084">
        <ele>512.1</ele>
        <time>2020-08-25T07:11:20.000Z</time>
      </trkpt>
      <trkpt lat="44.34213" lon="3.50838">
        <ele>512.4</ele>
        <time>2020-08-25T07:11:22.000Z</time>
      </trkpt>
      <trkpt lat="44.34212" lon="3.50837">
        <ele>512.6</ele>
        <time>2020-08-25T07:11:24.000Z</time>
      </trkpt>
      <trkpt lat="44.34212" lon="3.50836">
        <ele>512.7</ele>
        <time>2020-08-25T07:11:25.000Z</time>
      </trkpt>
      <trkpt lat="44.34212" lon="3.50835">
        <ele>512.8</ele>
        <time>2020-08-25T07:11:27.000Z</time>
      </trkpt>
      <trkpt lat="44.34212" lon="3.50834">
        <ele>513</ele>
        <time>2020-08-25T07:11:28.000Z</time>
      </trkpt>
      <trkpt lat="44.34211" lon="3.50833">
        <ele>513.2</ele>
        <time>2020-08-25T07:11:29.000Z</time>
      </trkpt>
      <trkpt lat="44.3421" lon="3.50832">
        <ele>513.5</ele>
        <time>2020-08-25T07:11:31.000Z</time>
      </trkpt>
      <trkpt lat="44.3421" lon="3.50831">
        <ele>513.6</ele>
        <time>2020-08-25T07:11:32.000Z</time>
      </trkpt>
      <trkpt lat="44.3421" lon="3.5083">
        <ele>513.8</ele>
        <time>2020-08-25T07:11:34.000Z</time>
      </trkpt>
      <trkpt lat="44.34209" lon="3.50829">
        <ele>514</ele>
        <time>2020-08-25T07:11:35.000Z</time>
      </trkpt>
      <trkpt lat="44.34209" lon="3.50829">
        <ele>514.1</ele>
        <time>2020-08-25T07:11:37.000Z</time>
      </trkpt>
      <trkpt lat="44.34209" lon="3.50829">
        <ele>514.1</ele>
        <time>2020-08-25T07:11:38.000Z</time>
      </trkpt>
      <trkpt lat="44.34208" lon="3.50828">
        <ele>514.2</ele>
        <time>2020-08-25T07:11:39.000Z</time>
      </trkpt>
      <trkpt lat="44.34208" lon="3.50828">
        <ele>514.3</ele>
        <time>2020-08-25T07:11:40.000Z</time>
      </trkpt>
      <trkpt lat="44.34208" lon="3.50827">
        <ele>514.4</ele>
        <time>2020-08-25T07:11:41.000Z</time>
      </trkpt>
      <trkpt lat="44.34208" lon="3.50826">
        <ele>514.5</ele>
        <time>2020-08-25T07:11:43.000Z</time>
      </trkpt>
      <trkpt lat="44.34208" lon="3.50825">
        <ele>514.7</ele>
        <time>2020-08-25T07:11:45.000Z</time>
      </trkpt>
      <trkpt lat="44.34208" lon="3.50809">
        <ele>516.2</ele>
        <time>2020-08-25T07:17:53.000Z</time>
      </trkpt>
      <trkpt lat="44.34209" lon="3.50812">
        <ele>516.4</ele>
        <time>2020-08-25T07:17:55.000Z</time>
      </trkpt>
      <trkpt lat="44.34209" lon="3.50812">
        <ele>516.4</ele>
        <time>2020-08-25T07:17:57.000Z</time>
      </trkpt>
      <trkpt lat="44.34209" lon="3.50812">
        <ele>516.4</ele>
        <time>2020-08-25T07:17:58.000Z</time>
      </trkpt>
      <trkpt lat="44.34209" lon="3.5081">
        <ele>516.4</ele>
        <time>2020-08-25T07:18:00.000Z</time>
      </trkpt>
      <trkpt lat="44.3421" lon="3.5081">
        <ele>516.4</ele>
        <time>2020-08-25T07:18:02.000Z</time>
      </trkpt>
      <trkpt lat="44.3421" lon="3.5081">
        <ele>516.4</ele>
        <time>2020-08-25T07:18:03.000Z</time>
      </trkpt>
      <trkpt lat="44.3421" lon="3.5081">
        <ele>516.4</ele>
        <time>2020-08-25T07:18:05.000Z</time>
      </trkpt>
      <trkpt lat="44.3421" lon="3.50809">
        <ele>516.4</ele>
        <time>2020-08-25T07:18:07.000Z</time>
      </trkpt>
      <trkpt lat="44.3421" lon="3.50809">
        <ele>516.4</ele>
        <time>2020-08-25T07:18:09.000Z</time>
      </trkpt>
      <trkpt lat="44.34209" lon="3.50806">
        <ele>516.4</ele>
        <time>2020-08-25T07:18:34.000Z</time>
      </trkpt>
      <trkpt lat="44.34209" lon="3.50805">
        <ele>516.4</ele>
        <time>2020-08-25T07:18:36.000Z</time>
      </trkpt>
      <trkpt lat="44.34208" lon="3.50805">
        <ele>516.4</ele>
        <time>2020-08-25T07:18:38.000Z</time>
      </trkpt>
      <trkpt lat="44.34208" lon="3.50805">
        <ele>516.4</ele>
        <time>2020-08-25T07:18:40.000Z</time>
      </trkpt>
      <trkpt lat="44.34208" lon="3.50804">
        <ele>516.4</ele>
        <time>2020-08-25T07:18:42.000Z</time>
      </trkpt>
      <trkpt lat="44.34208" lon="3.50805">
        <ele>516.4</ele>
        <time>2020-08-25T07:18:43.000Z</time>
      </trkpt>
      <trkpt lat="44.34208" lon="3.50805">
        <ele>516.4</ele>
        <time>2020-08-25T07:18:45.000Z</time>
      </trkpt>
      <trkpt lat="44.34208" lon="3.50805">
        <ele>516.4</ele>
        <time>2020-08-25T07:18:46.000Z</time>
      </trkpt>
      <trkpt lat="44.34208" lon="3.50805">
        <ele>516.4</ele>
        <time>2020-08-25T07:18:47.000Z</time>
      </trkpt>
      <trkpt lat="44.34208" lon="3.50805">
        <ele>516.4</ele>
        <time>2020-08-25T07:18:48.000Z</time>
      </trkpt>
      <trkpt lat="44.34208" lon="3.50805">
        <ele>516.4</ele>
        <time>2020-08-25T07:18:50.000Z</time>
      </trkpt>
      <trkpt lat="44.34208" lon="3.50805">
        <ele>516.4</ele>
        <time>2020-08-25T07:18:52.000Z</time>
      </trkpt>
      <trkpt lat="44.34208" lon="3.50805">
        <ele>516.4</ele>
        <time>2020-08-25T07:18:53.000Z</time>
      </trkpt>
      <trkpt lat="44.34208" lon="3.50805">
        <ele>516.4</ele>
        <time>2020-08-25T07:18:55.000Z</time>
      </trkpt>
      <trkpt lat="44.34208" lon="3.50804">
        <ele>516.4</ele>
        <time>2020-08-25T07:18:57.000Z</time>
      </trkpt>
      <trkpt lat="44.34208" lon="3.50804">
        <ele>516.4</ele>
        <time>2020-08-25T07:18:59.000Z</time>
      </trkpt>
      <trkpt lat="44.34208" lon="3.50804">
        <ele>516.3</ele>
        <time>2020-08-25T07:19:01.000Z</time>
      </trkpt>
      <trkpt lat="44.34208" lon="3.50803">
        <ele>516.3</ele>
        <time>2020-08-25T07:19:03.000Z</time>
      </trkpt>
      <trkpt lat="44.34208" lon="3.50802">
        <ele>516.3</ele>
        <time>2020-08-25T07:19:04.000Z</time>
      </trkpt>
      <trkpt lat="44.34207" lon="3.508">
        <ele>516.2</ele>
        <time>2020-08-25T07:19:06.000Z</time>
      </trkpt>
      <trkpt lat="44.34206" lon="3.50799">
        <ele>516.1</ele>
        <time>2020-08-25T07:19:08.000Z</time>
      </trkpt>
      <trkpt lat="44.34204" lon="3.50798">
        <ele>516</ele>
        <time>2020-08-25T07:19:10.000Z</time>
      </trkpt>
      <trkpt lat="44.34204" lon="3.50797">
        <ele>516</ele>
        <time>2020-08-25T07:19:11.000Z</time>
      </trkpt>
      <trkpt lat="44.34203" lon="3.50797">
        <ele>515.9</ele>
        <time>2020-08-25T07:19:12.000Z</time>
      </trkpt>
      <trkpt lat="44.34202" lon="3.50796">
        <ele>515.8</ele>
        <time>2020-08-25T07:19:13.000Z</time>
      </trkpt>
      <trkpt lat="44.34201" lon="3.50794">
        <ele>515.6</ele>
        <time>2020-08-25T07:19:15.000Z</time>
      </trkpt>
      <trkpt lat="44.342" lon="3.50793">
        <ele>515.6</ele>
        <time>2020-08-25T07:19:17.000Z</time>
      </trkpt>
      <trkpt lat="44.342" lon="3.50793">
        <ele>515.5</ele>
        <time>2020-08-25T07:19:19.000Z</time>
      </trkpt>
      <trkpt lat="44.342" lon="3.50792">
        <ele>515.5</ele>
        <time>2020-08-25T07:19:21.000Z</time>
      </trkpt>
      <trkpt lat="44.342" lon="3.5079">
        <ele>515.3</ele>
        <time>2020-08-25T07:19:23.000Z</time>
      </trkpt>
      <trkpt lat="44.34199" lon="3.50788">
        <ele>515.2</ele>
        <time>2020-08-25T07:19:24.000Z</time>
      </trkpt>
      <trkpt lat="44.34198" lon="3.50786">
        <ele>515</ele>
        <time>2020-08-25T07:19:25.000Z</time>
      </trkpt>
      <trkpt lat="44.34197" lon="3.50781">
        <ele>514.5</ele>
        <time>2020-08-25T07:19:27.000Z</time>
      </trkpt>
      <trkpt lat="44.34196" lon="3.5078">
        <ele>514.4</ele>
        <time>2020-08-25T07:19:29.000Z</time>
      </trkpt>
      <trkpt lat="44.34195" lon="3.50779">
        <ele>514.2</ele>
        <time>2020-08-25T07:19:31.000Z</time>
      </trkpt>
      <trkpt lat="44.34194" lon="3.50778">
        <ele>514.1</ele>
        <time>2020-08-25T07:19:33.000Z</time>
      </trkpt>
      <trkpt lat="44.34194" lon="3.50777">
        <ele>513.9</ele>
        <time>2020-08-25T07:19:34.000Z</time>
      </trkpt>
      <trkpt lat="44.34193" lon="3.50776">
        <ele>513.8</ele>
        <time>2020-08-25T07:19:36.000Z</time>
      </trkpt>
      <trkpt lat="44.34192" lon="3.50775">
        <ele>513.6</ele>
        <time>2020-08-25T07:19:37.000Z</time>
      </trkpt>
      <trkpt lat="44.34191" lon="3.50774">
        <ele>513.5</ele>
        <time>2020-08-25T07:20:06.000Z</time>
      </trkpt>
      <trkpt lat="44.34191" lon="3.50773">
        <ele>513.3</ele>
        <time>2020-08-25T07:20:07.000Z</time>
      </trkpt>
      <trkpt lat="44.3419" lon="3.50772">
        <ele>513.2</ele>
        <time>2020-08-25T07:20:08.000Z</time>
      </trkpt>
      <trkpt lat="44.34188" lon="3.5077">
        <ele>512.8</ele>
        <time>2020-08-25T07:20:09.000Z</time>
      </trkpt>
      <trkpt lat="44.34188" lon="3.50768">
        <ele>512.6</ele>
        <time>2020-08-25T07:20:10.000Z</time>
      </trkpt>
      <trkpt lat="44.34188" lon="3.50763">
        <ele>512</ele>
        <time>2020-08-25T07:20:12.000Z</time>
      </trkpt>
      <trkpt lat="44.34189" lon="3.5076">
        <ele>511.8</ele>
        <time>2020-08-25T07:20:13.000Z</time>
      </trkpt>
      <trkpt lat="44.34187" lon="3.50755">
        <ele>511.3</ele>
        <time>2020-08-25T07:20:15.000Z</time>
      </trkpt>
      <trkpt lat="44.34186" lon="3.50747">
        <ele>510.6</ele>
        <time>2020-08-25T07:20:16.000Z</time>
      </trkpt>
      <trkpt lat="44.34187" lon="3.5074">
        <ele>510.2</ele>
        <time>2020-08-25T07:20:17.000Z</time>
      </trkpt>
      <trkpt lat="44.34188" lon="3.50733">
        <ele>509.6</ele>
        <time>2020-08-25T07:20:19.000Z</time>
      </trkpt>
      <trkpt lat="44.34188" lon="3.50727">
        <ele>509.2</ele>
        <time>2020-08-25T07:20:20.000Z</time>
      </trkpt>
      <trkpt lat="44.34188" lon="3.50722">
        <ele>508.9</ele>
        <time>2020-08-25T07:20:21.000Z</time>
      </trkpt>
      <trkpt lat="44.34188" lon="3.50718">
        <ele>508.6</ele>
        <time>2020-08-25T07:20:22.000Z</time>
      </trkpt>
      <trkpt lat="44.34188" lon="3.50714">
        <ele>508.3</ele>
        <time>2020-08-25T07:20:24.000Z</time>
      </trkpt>
      <trkpt lat="44.34187" lon="3.5071">
        <ele>508</ele>
        <time>2020-08-25T07:20:25.000Z</time>
      </trkpt>
      <trkpt lat="44.34186" lon="3.50706">
        <ele>507.8</ele>
        <time>2020-08-25T07:20:26.000Z</time>
      </trkpt>
      <trkpt lat="44.34184" lon="3.50702">
        <ele>507.5</ele>
        <time>2020-08-25T07:20:27.000Z</time>
      </trkpt>
      <trkpt lat="44.34181" lon="3.50693">
        <ele>507.1</ele>
        <time>2020-08-25T07:20:29.000Z</time>
      </trkpt>
      <trkpt lat="44.34179" lon="3.50688">
        <ele>506.9</ele>
        <time>2020-08-25T07:20:30.000Z</time>
      </trkpt>
      <trkpt lat="44.34176" lon="3.50684">
        <ele>506.7</ele>
        <time>2020-08-25T07:20:31.000Z</time>
      </trkpt>
      <trkpt lat="44.34174" lon="3.50677">
        <ele>506.2</ele>
        <time>2020-08-25T07:20:33.000Z</time>
      </trkpt>
      <trkpt lat="44.34174" lon="3.50671">
        <ele>505.9</ele>
        <time>2020-08-25T07:20:34.000Z</time>
      </trkpt>
      <trkpt lat="44.34174" lon="3.50667">
        <ele>505.6</ele>
        <time>2020-08-25T07:20:35.000Z</time>
      </trkpt>
      <trkpt lat="44.34176" lon="3.50664">
        <ele>505.3</ele>
        <time>2020-08-25T07:20:37.000Z</time>
      </trkpt>
      <trkpt lat="44.34176" lon="3.50659">
        <ele>505</ele>
        <time>2020-08-25T07:20:38.000Z</time>
      </trkpt>
      <trkpt lat="44.34176" lon="3.50657">
        <ele>504.9</ele>
        <time>2020-08-25T07:20:39.000Z</time>
      </trkpt>
      <trkpt lat="44.34175" lon="3.50653">
        <ele>504.6</ele>
        <time>2020-08-25T07:20:40.000Z</time>
      </trkpt>
      <trkpt lat="44.34173" lon="3.50649">
        <ele>504.3</ele>
        <time>2020-08-25T07:20:41.000Z</time>
      </trkpt>
      <trkpt lat="44.34172" lon="3.50643">
        <ele>504</ele>
        <time>2020-08-25T07:20:43.000Z</time>
      </trkpt>
      <trkpt lat="44.34169" lon="3.50636">
        <ele>503.7</ele>
        <time>2020-08-25T07:20:44.000Z</time>
      </trkpt>
      <trkpt lat="44.34166" lon="3.5063">
        <ele>503.3</ele>
        <time>2020-08-25T07:20:45.000Z</time>
      </trkpt>
      <trkpt lat="44.34162" lon="3.50622">
        <ele>502.9</ele>
        <time>2020-08-25T07:20:46.000Z</time>
      </trkpt>
      <trkpt lat="44.3416" lon="3.50618">
        <ele>502.6</ele>
        <time>2020-08-25T07:20:48.000Z</time>
      </trkpt>
      <trkpt lat="44.34158" lon="3.50613">
        <ele>502.3</ele>
        <time>2020-08-25T07:20:49.000Z</time>
      </trkpt>
      <trkpt lat="44.34156" lon="3.5061">
        <ele>502.1</ele>
        <time>2020-08-25T07:20:50.000Z</time>
      </trkpt>
      <trkpt lat="44.34154" lon="3.50604">
        <ele>501.7</ele>
        <time>2020-08-25T07:20:52.000Z</time>
      </trkpt>
      <trkpt lat="44.34154" lon="3.50599">
        <ele>501.3</ele>
        <time>2020-08-25T07:20:53.000Z</time>
      </trkpt>
      <trkpt lat="44.34153" lon="3.50593">
        <ele>500.8</ele>
        <time>2020-08-25T07:20:55.000Z</time>
      </trkpt>
      <trkpt lat="44.34152" lon="3.50591">
        <ele>500.6</ele>
        <time>2020-08-25T07:20:56.000Z</time>
      </trkpt>
      <trkpt lat="44.3415" lon="3.50587">
        <ele>500.1</ele>
        <time>2020-08-25T07:20:58.000Z</time>
      </trkpt>
      <trkpt lat="44.3415" lon="3.50584">
        <ele>499.9</ele>
        <time>2020-08-25T07:20:59.000Z</time>
      </trkpt>
      <trkpt lat="44.34149" lon="3.50582">
        <ele>499.7</ele>
        <time>2020-08-25T07:21:00.000Z</time>
      </trkpt>
      <trkpt lat="44.34148" lon="3.5058">
        <ele>499.5</ele>
        <time>2020-08-25T07:21:01.000Z</time>
      </trkpt>
      <trkpt lat="44.34146" lon="3.50577">
        <ele>499</ele>
        <time>2020-08-25T07:21:03.000Z</time>
      </trkpt>
      <trkpt lat="44.34144" lon="3.50572">
        <ele>498.6</ele>
        <time>2020-08-25T07:21:04.000Z</time>
      </trkpt>
      <trkpt lat="44.34143" lon="3.5057">
        <ele>498.4</ele>
        <time>2020-08-25T07:21:05.000Z</time>
      </trkpt>
      <trkpt lat="44.34141" lon="3.50566">
        <ele>498</ele>
        <time>2020-08-25T07:21:07.000Z</time>
      </trkpt>
      <trkpt lat="44.3414" lon="3.50562">
        <ele>497.6</ele>
        <time>2020-08-25T07:21:08.000Z</time>
      </trkpt>
      <trkpt lat="44.34138" lon="3.50557">
        <ele>497.2</ele>
        <time>2020-08-25T07:21:10.000Z</time>
      </trkpt>
      <trkpt lat="44.34136" lon="3.50552">
        <ele>496.8</ele>
        <time>2020-08-25T07:21:11.000Z</time>
      </trkpt>
      <trkpt lat="44.34134" lon="3.50548">
        <ele>496.5</ele>
        <time>2020-08-25T07:21:12.000Z</time>
      </trkpt>
      <trkpt lat="44.34132" lon="3.50542">
        <ele>496.1</ele>
        <time>2020-08-25T07:21:13.000Z</time>
      </trkpt>
      <trkpt lat="44.34131" lon="3.5054">
        <ele>496</ele>
        <time>2020-08-25T07:21:14.000Z</time>
      </trkpt>
      <trkpt lat="44.34128" lon="3.50536">
        <ele>495.7</ele>
        <time>2020-08-25T07:21:16.000Z</time>
      </trkpt>
      <trkpt lat="44.34126" lon="3.50532">
        <ele>495.4</ele>
        <time>2020-08-25T07:21:17.000Z</time>
      </trkpt>
      <trkpt lat="44.34125" lon="3.50528">
        <ele>495.2</ele>
        <time>2020-08-25T07:21:19.000Z</time>
      </trkpt>
      <trkpt lat="44.34122" lon="3.50524">
        <ele>494.9</ele>
        <time>2020-08-25T07:21:20.000Z</time>
      </trkpt>
      <trkpt lat="44.34122" lon="3.5052">
        <ele>494.6</ele>
        <time>2020-08-25T07:21:21.000Z</time>
      </trkpt>
      <trkpt lat="44.34124" lon="3.50515">
        <ele>494.3</ele>
        <time>2020-08-25T07:21:23.000Z</time>
      </trkpt>
      <trkpt lat="44.34124" lon="3.50514">
        <ele>494.2</ele>
        <time>2020-08-25T07:21:24.000Z</time>
      </trkpt>
      <trkpt lat="44.34127" lon="3.50508">
        <ele>494</ele>
        <time>2020-08-25T07:21:25.000Z</time>
      </trkpt>
      <trkpt lat="44.34129" lon="3.50503">
        <ele>493.7</ele>
        <time>2020-08-25T07:21:26.000Z</time>
      </trkpt>
      <trkpt lat="44.3413" lon="3.50497">
        <ele>493.5</ele>
        <time>2020-08-25T07:21:27.000Z</time>
      </trkpt>
      <trkpt lat="44.34129" lon="3.50492">
        <ele>493.4</ele>
        <time>2020-08-25T07:21:29.000Z</time>
      </trkpt>
      <trkpt lat="44.34128" lon="3.50486">
        <ele>493.3</ele>
        <time>2020-08-25T07:21:30.000Z</time>
      </trkpt>
      <trkpt lat="44.34126" lon="3.50478">
        <ele>493.2</ele>
        <time>2020-08-25T07:21:31.000Z</time>
      </trkpt>
      <trkpt lat="44.34124" lon="3.50471">
        <ele>493.1</ele>
        <time>2020-08-25T07:21:32.000Z</time>
      </trkpt>
      <trkpt lat="44.34123" lon="3.50465">
        <ele>493.1</ele>
        <time>2020-08-25T07:21:33.000Z</time>
      </trkpt>
      <trkpt lat="44.34121" lon="3.50456">
        <ele>493.1</ele>
        <time>2020-08-25T07:21:34.000Z</time>
      </trkpt>
      <trkpt lat="44.3412" lon="3.50451">
        <ele>493.1</ele>
        <time>2020-08-25T07:21:35.000Z</time>
      </trkpt>
      <trkpt lat="44.34118" lon="3.50446">
        <ele>493.1</ele>
        <time>2020-08-25T07:21:37.000Z</time>
      </trkpt>
      <trkpt lat="44.34116" lon="3.50441">
        <ele>493.2</ele>
        <time>2020-08-25T07:21:38.000Z</time>
      </trkpt>
      <trkpt lat="44.34114" lon="3.50436">
        <ele>493.2</ele>
        <time>2020-08-25T07:21:39.000Z</time>
      </trkpt>
      <trkpt lat="44.34109" lon="3.50427">
        <ele>493.4</ele>
        <time>2020-08-25T07:21:41.000Z</time>
      </trkpt>
      <trkpt lat="44.34107" lon="3.50422">
        <ele>493.4</ele>
        <time>2020-08-25T07:21:42.000Z</time>
      </trkpt>
      <trkpt lat="44.34104" lon="3.50414">
        <ele>493.6</ele>
        <time>2020-08-25T07:21:44.000Z</time>
      </trkpt>
      <trkpt lat="44.34102" lon="3.50408">
        <ele>493.7</ele>
        <time>2020-08-25T07:21:45.000Z</time>
      </trkpt>
      <trkpt lat="44.341" lon="3.504">
        <ele>493.9</ele>
        <time>2020-08-25T07:21:47.000Z</time>
      </trkpt>
      <trkpt lat="44.34097" lon="3.50391">
        <ele>494.1</ele>
        <time>2020-08-25T07:21:48.000Z</time>
      </trkpt>
      <trkpt lat="44.34096" lon="3.50385">
        <ele>494.3</ele>
        <time>2020-08-25T07:21:49.000Z</time>
      </trkpt>
      <trkpt lat="44.34094" lon="3.50379">
        <ele>494.5</ele>
        <time>2020-08-25T07:21:50.000Z</time>
      </trkpt>
      <trkpt lat="44.34092" lon="3.5037">
        <ele>494.6</ele>
        <time>2020-08-25T07:21:52.000Z</time>
      </trkpt>
      <trkpt lat="44.34091" lon="3.50363">
        <ele>494.6</ele>
        <time>2020-08-25T07:21:53.000Z</time>
      </trkpt>
      <trkpt lat="44.34089" lon="3.50356">
        <ele>494.6</ele>
        <time>2020-08-25T07:21:54.000Z</time>
      </trkpt>
      <trkpt lat="44.34087" lon="3.50351">
        <ele>494.6</ele>
        <time>2020-08-25T07:21:56.000Z</time>
      </trkpt>
      <trkpt lat="44.34085" lon="3.50346">
        <ele>494.6</ele>
        <time>2020-08-25T07:21:57.000Z</time>
      </trkpt>
      <trkpt lat="44.34083" lon="3.5034">
        <ele>494.6</ele>
        <time>2020-08-25T07:21:58.000Z</time>
      </trkpt>
      <trkpt lat="44.34082" lon="3.50335">
        <ele>494.7</ele>
        <time>2020-08-25T07:21:59.000Z</time>
      </trkpt>
      <trkpt lat="44.34079" lon="3.50327">
        <ele>494.7</ele>
        <time>2020-08-25T07:22:01.000Z</time>
      </trkpt>
      <trkpt lat="44.34077" lon="3.50321">
        <ele>494.7</ele>
        <time>2020-08-25T07:22:02.000Z</time>
      </trkpt>
      <trkpt lat="44.34075" lon="3.50314">
        <ele>494.8</ele>
        <time>2020-08-25T07:22:03.000Z</time>
      </trkpt>
      <trkpt lat="44.34072" lon="3.50306">
        <ele>494.8</ele>
        <time>2020-08-25T07:22:05.000Z</time>
      </trkpt>
      <trkpt lat="44.3407" lon="3.503">
        <ele>494.8</ele>
        <time>2020-08-25T07:22:06.000Z</time>
      </trkpt>
      <trkpt lat="44.34068" lon="3.50295">
        <ele>494.7</ele>
        <time>2020-08-25T07:22:07.000Z</time>
      </trkpt>
      <trkpt lat="44.34065" lon="3.50289">
        <ele>494.7</ele>
        <time>2020-08-25T07:22:09.000Z</time>
      </trkpt>
      <trkpt lat="44.34063" lon="3.50283">
        <ele>494.7</ele>
        <time>2020-08-25T07:22:10.000Z</time>
      </trkpt>
      <trkpt lat="44.34061" lon="3.50276">
        <ele>494.6</ele>
        <time>2020-08-25T07:22:11.000Z</time>
      </trkpt>
      <trkpt lat="44.34058" lon="3.5027">
        <ele>494.6</ele>
        <time>2020-08-25T07:22:12.000Z</time>
      </trkpt>
      <trkpt lat="44.34056" lon="3.50265">
        <ele>494.6</ele>
        <time>2020-08-25T07:22:13.000Z</time>
      </trkpt>
      <trkpt lat="44.34054" lon="3.50259">
        <ele>494.6</ele>
        <time>2020-08-25T07:22:15.000Z</time>
      </trkpt>
      <trkpt lat="44.34052" lon="3.50251">
        <ele>494.6</ele>
        <time>2020-08-25T07:22:16.000Z</time>
      </trkpt>
      <trkpt lat="44.34051" lon="3.50245">
        <ele>494.5</ele>
        <time>2020-08-25T07:22:17.000Z</time>
      </trkpt>
      <trkpt lat="44.34049" lon="3.50237">
        <ele>494.4</ele>
        <time>2020-08-25T07:22:19.000Z</time>
      </trkpt>
      <trkpt lat="44.34047" lon="3.50232">
        <ele>494.4</ele>
        <time>2020-08-25T07:22:20.000Z</time>
      </trkpt>
      <trkpt lat="44.34046" lon="3.50226">
        <ele>494.2</ele>
        <time>2020-08-25T07:22:21.000Z</time>
      </trkpt>
      <trkpt lat="44.34044" lon="3.50221">
        <ele>494.2</ele>
        <time>2020-08-25T07:22:22.000Z</time>
      </trkpt>
      <trkpt lat="44.34042" lon="3.50213">
        <ele>494.1</ele>
        <time>2020-08-25T07:22:24.000Z</time>
      </trkpt>
      <trkpt lat="44.34041" lon="3.50207">
        <ele>494</ele>
        <time>2020-08-25T07:22:25.000Z</time>
      </trkpt>
      <trkpt lat="44.34039" lon="3.50201">
        <ele>494</ele>
        <time>2020-08-25T07:22:26.000Z</time>
      </trkpt>
      <trkpt lat="44.34038" lon="3.50194">
        <ele>493.9</ele>
        <time>2020-08-25T07:22:27.000Z</time>
      </trkpt>
      <trkpt lat="44.34036" lon="3.50185">
        <ele>493.9</ele>
        <time>2020-08-25T07:22:29.000Z</time>
      </trkpt>
      <trkpt lat="44.34033" lon="3.5017">
        <ele>493.8</ele>
        <time>2020-08-25T07:22:30.000Z</time>
      </trkpt>
      <trkpt lat="44.34031" lon="3.50164">
        <ele>493.7</ele>
        <time>2020-08-25T07:22:31.000Z</time>
      </trkpt>
      <trkpt lat="44.34027" lon="3.50151">
        <ele>493.5</ele>
        <time>2020-08-25T07:22:33.000Z</time>
      </trkpt>
      <trkpt lat="44.34025" lon="3.50144">
        <ele>493.4</ele>
        <time>2020-08-25T07:22:34.000Z</time>
      </trkpt>
      <trkpt lat="44.34021" lon="3.50133">
        <ele>493.2</ele>
        <time>2020-08-25T07:22:36.000Z</time>
      </trkpt>
      <trkpt lat="44.34018" lon="3.50126">
        <ele>493.1</ele>
        <time>2020-08-25T07:22:37.000Z</time>
      </trkpt>
      <trkpt lat="44.34016" lon="3.50121">
        <ele>493.1</ele>
        <time>2020-08-25T07:22:38.000Z</time>
      </trkpt>
      <trkpt lat="44.34012" lon="3.5011">
        <ele>493</ele>
        <time>2020-08-25T07:22:40.000Z</time>
      </trkpt>
      <trkpt lat="44.3401" lon="3.50105">
        <ele>493</ele>
        <time>2020-08-25T07:22:41.000Z</time>
      </trkpt>
      <trkpt lat="44.34009" lon="3.50099">
        <ele>493</ele>
        <time>2020-08-25T07:22:42.000Z</time>
      </trkpt>
      <trkpt lat="44.34006" lon="3.50089">
        <ele>492.9</ele>
        <time>2020-08-25T07:22:44.000Z</time>
      </trkpt>
      <trkpt lat="44.34004" lon="3.50083">
        <ele>492.9</ele>
        <time>2020-08-25T07:22:45.000Z</time>
      </trkpt>
      <trkpt lat="44.34002" lon="3.50077">
        <ele>492.8</ele>
        <time>2020-08-25T07:22:46.000Z</time>
      </trkpt>
      <trkpt lat="44.33996" lon="3.50064">
        <ele>492.9</ele>
        <time>2020-08-25T07:22:48.000Z</time>
      </trkpt>
      <trkpt lat="44.33991" lon="3.50053">
        <ele>492.9</ele>
        <time>2020-08-25T07:22:50.000Z</time>
      </trkpt>
      <trkpt lat="44.33988" lon="3.50048">
        <ele>492.9</ele>
        <time>2020-08-25T07:22:51.000Z</time>
      </trkpt>
      <trkpt lat="44.33983" lon="3.50039">
        <ele>492.9</ele>
        <time>2020-08-25T07:22:53.000Z</time>
      </trkpt>
      <trkpt lat="44.33979" lon="3.50031">
        <ele>493</ele>
        <time>2020-08-25T07:22:55.000Z</time>
      </trkpt>
      <trkpt lat="44.33976" lon="3.50026">
        <ele>493</ele>
        <time>2020-08-25T07:22:56.000Z</time>
      </trkpt>
      <trkpt lat="44.33971" lon="3.50017">
        <ele>493</ele>
        <time>2020-08-25T07:22:58.000Z</time>
      </trkpt>
      <trkpt lat="44.33968" lon="3.50011">
        <ele>493.1</ele>
        <time>2020-08-25T07:23:00.000Z</time>
      </trkpt>
      <trkpt lat="44.33965" lon="3.50006">
        <ele>493.1</ele>
        <time>2020-08-25T07:23:01.000Z</time>
      </trkpt>
      <trkpt lat="44.33962" lon="3.50001">
        <ele>493.1</ele>
        <time>2020-08-25T07:23:02.000Z</time>
      </trkpt>
      <trkpt lat="44.33958" lon="3.49995">
        <ele>493.2</ele>
        <time>2020-08-25T07:23:03.000Z</time>
      </trkpt>
      <trkpt lat="44.33953" lon="3.49987">
        <ele>493.3</ele>
        <time>2020-08-25T07:23:05.000Z</time>
      </trkpt>
      <trkpt lat="44.33947" lon="3.49979">
        <ele>493.6</ele>
        <time>2020-08-25T07:23:07.000Z</time>
      </trkpt>
      <trkpt lat="44.33941" lon="3.49972">
        <ele>493.8</ele>
        <time>2020-08-25T07:23:08.000Z</time>
      </trkpt>
      <trkpt lat="44.33936" lon="3.49965">
        <ele>493.9</ele>
        <time>2020-08-25T07:23:10.000Z</time>
      </trkpt>
      <trkpt lat="44.33931" lon="3.4996">
        <ele>494</ele>
        <time>2020-08-25T07:23:12.000Z</time>
      </trkpt>
      <trkpt lat="44.33928" lon="3.49956">
        <ele>494</ele>
        <time>2020-08-25T07:23:13.000Z</time>
      </trkpt>
      <trkpt lat="44.33924" lon="3.49953">
        <ele>494.1</ele>
        <time>2020-08-25T07:23:14.000Z</time>
      </trkpt>
      <trkpt lat="44.33919" lon="3.49948">
        <ele>494.2</ele>
        <time>2020-08-25T07:23:15.000Z</time>
      </trkpt>
      <trkpt lat="44.33916" lon="3.49944">
        <ele>494.2</ele>
        <time>2020-08-25T07:23:16.000Z</time>
      </trkpt>
      <trkpt lat="44.33913" lon="3.4994">
        <ele>494.3</ele>
        <time>2020-08-25T07:23:17.000Z</time>
      </trkpt>
      <trkpt lat="44.33909" lon="3.49935">
        <ele>494.3</ele>
        <time>2020-08-25T07:23:19.000Z</time>
      </trkpt>
      <trkpt lat="44.33905" lon="3.4993">
        <ele>494.3</ele>
        <time>2020-08-25T07:23:20.000Z</time>
      </trkpt>
      <trkpt lat="44.33902" lon="3.49926">
        <ele>494.4</ele>
        <time>2020-08-25T07:23:21.000Z</time>
      </trkpt>
      <trkpt lat="44.33898" lon="3.49923">
        <ele>494.4</ele>
        <time>2020-08-25T07:23:22.000Z</time>
      </trkpt>
      <trkpt lat="44.33895" lon="3.4992">
        <ele>494.4</ele>
        <time>2020-08-25T07:23:23.000Z</time>
      </trkpt>
      <trkpt lat="44.33891" lon="3.49916">
        <ele>494.4</ele>
        <time>2020-08-25T07:23:25.000Z</time>
      </trkpt>
      <trkpt lat="44.33885" lon="3.4991">
        <ele>494.3</ele>
        <time>2020-08-25T07:23:27.000Z</time>
      </trkpt>
      <trkpt lat="44.33881" lon="3.49905">
        <ele>494.2</ele>
        <time>2020-08-25T07:23:29.000Z</time>
      </trkpt>
      <trkpt lat="44.33876" lon="3.49898">
        <ele>494.1</ele>
        <time>2020-08-25T07:23:30.000Z</time>
      </trkpt>
      <trkpt lat="44.33871" lon="3.49892">
        <ele>494</ele>
        <time>2020-08-25T07:23:32.000Z</time>
      </trkpt>
      <trkpt lat="44.33865" lon="3.49885">
        <ele>493.9</ele>
        <time>2020-08-25T07:23:33.000Z</time>
      </trkpt>
      <trkpt lat="44.33859" lon="3.49879">
        <ele>493.9</ele>
        <time>2020-08-25T07:23:35.000Z</time>
      </trkpt>
      <trkpt lat="44.33855" lon="3.49875">
        <ele>493.8</ele>
        <time>2020-08-25T07:23:36.000Z</time>
      </trkpt>
      <trkpt lat="44.3385" lon="3.4987">
        <ele>493.8</ele>
        <time>2020-08-25T07:23:37.000Z</time>
      </trkpt>
      <trkpt lat="44.33846" lon="3.49867">
        <ele>493.8</ele>
        <time>2020-08-25T07:23:38.000Z</time>
      </trkpt>
      <trkpt lat="44.33837" lon="3.49861">
        <ele>493.8</ele>
        <time>2020-08-25T07:23:40.000Z</time>
      </trkpt>
      <trkpt lat="44.33832" lon="3.49859">
        <ele>493.9</ele>
        <time>2020-08-25T07:23:41.000Z</time>
      </trkpt>
      <trkpt lat="44.33827" lon="3.49856">
        <ele>494</ele>
        <time>2020-08-25T07:23:42.000Z</time>
      </trkpt>
      <trkpt lat="44.33822" lon="3.49853">
        <ele>494.1</ele>
        <time>2020-08-25T07:23:43.000Z</time>
      </trkpt>
      <trkpt lat="44.33817" lon="3.4985">
        <ele>494.2</ele>
        <time>2020-08-25T07:23:44.000Z</time>
      </trkpt>
      <trkpt lat="44.33813" lon="3.49847">
        <ele>494.3</ele>
        <time>2020-08-25T07:23:45.000Z</time>
      </trkpt>
      <trkpt lat="44.33806" lon="3.49842">
        <ele>494.5</ele>
        <time>2020-08-25T07:23:47.000Z</time>
      </trkpt>
      <trkpt lat="44.33801" lon="3.49837">
        <ele>494.6</ele>
        <time>2020-08-25T07:23:49.000Z</time>
      </trkpt>
      <trkpt lat="44.33798" lon="3.49834">
        <ele>494.7</ele>
        <time>2020-08-25T07:23:50.000Z</time>
      </trkpt>
      <trkpt lat="44.33794" lon="3.49828">
        <ele>494.8</ele>
        <time>2020-08-25T07:23:52.000Z</time>
      </trkpt>
      <trkpt lat="44.33791" lon="3.49823">
        <ele>494.8</ele>
        <time>2020-08-25T07:23:53.000Z</time>
      </trkpt>
      <trkpt lat="44.33787" lon="3.49819">
        <ele>494.9</ele>
        <time>2020-08-25T07:23:54.000Z</time>
      </trkpt>
      <trkpt lat="44.33781" lon="3.49812">
        <ele>494.9</ele>
        <time>2020-08-25T07:23:56.000Z</time>
      </trkpt>
      <trkpt lat="44.33771" lon="3.49805">
        <ele>494.9</ele>
        <time>2020-08-25T07:23:58.000Z</time>
      </trkpt>
      <trkpt lat="44.33765" lon="3.49801">
        <ele>494.9</ele>
        <time>2020-08-25T07:23:59.000Z</time>
      </trkpt>
      <trkpt lat="44.33757" lon="3.49797">
        <ele>494.8</ele>
        <time>2020-08-25T07:24:01.000Z</time>
      </trkpt>
      <trkpt lat="44.33752" lon="3.49795">
        <ele>494.8</ele>
        <time>2020-08-25T07:24:02.000Z</time>
      </trkpt>
      <trkpt lat="44.33747" lon="3.49792">
        <ele>494.7</ele>
        <time>2020-08-25T07:24:03.000Z</time>
      </trkpt>
      <trkpt lat="44.33738" lon="3.49788">
        <ele>494.6</ele>
        <time>2020-08-25T07:24:05.000Z</time>
      </trkpt>
      <trkpt lat="44.33728" lon="3.49783">
        <ele>494.4</ele>
        <time>2020-08-25T07:24:07.000Z</time>
      </trkpt>
      <trkpt lat="44.33723" lon="3.4978">
        <ele>494.4</ele>
        <time>2020-08-25T07:24:08.000Z</time>
      </trkpt>
      <trkpt lat="44.33718" lon="3.49777">
        <ele>494.3</ele>
        <time>2020-08-25T07:24:09.000Z</time>
      </trkpt>
      <trkpt lat="44.33709" lon="3.49771">
        <ele>494.1</ele>
        <time>2020-08-25T07:24:11.000Z</time>
      </trkpt>
      <trkpt lat="44.337" lon="3.49764">
        <ele>494</ele>
        <time>2020-08-25T07:24:13.000Z</time>
      </trkpt>
      <trkpt lat="44.33695" lon="3.49762">
        <ele>493.9</ele>
        <time>2020-08-25T07:24:14.000Z</time>
      </trkpt>
      <trkpt lat="44.33684" lon="3.49756">
        <ele>493.7</ele>
        <time>2020-08-25T07:24:16.000Z</time>
      </trkpt>
      <trkpt lat="44.33679" lon="3.49753">
        <ele>493.7</ele>
        <time>2020-08-25T07:24:17.000Z</time>
      </trkpt>
      <trkpt lat="44.3367" lon="3.49747">
        <ele>493.7</ele>
        <time>2020-08-25T07:24:19.000Z</time>
      </trkpt>
      <trkpt lat="44.33665" lon="3.49743">
        <ele>493.7</ele>
        <time>2020-08-25T07:24:20.000Z</time>
      </trkpt>
      <trkpt lat="44.33655" lon="3.49737">
        <ele>493.8</ele>
        <time>2020-08-25T07:24:22.000Z</time>
      </trkpt>
      <trkpt lat="44.3365" lon="3.49735">
        <ele>493.9</ele>
        <time>2020-08-25T07:24:23.000Z</time>
      </trkpt>
      <trkpt lat="44.33639" lon="3.49734">
        <ele>494</ele>
        <time>2020-08-25T07:24:25.000Z</time>
      </trkpt>
      <trkpt lat="44.33629" lon="3.49736">
        <ele>494.2</ele>
        <time>2020-08-25T07:24:27.000Z</time>
      </trkpt>
      <trkpt lat="44.33621" lon="3.49739">
        <ele>494.3</ele>
        <time>2020-08-25T07:24:29.000Z</time>
      </trkpt>
      <trkpt lat="44.33613" lon="3.49742">
        <ele>494.4</ele>
        <time>2020-08-25T07:24:31.000Z</time>
      </trkpt>
      <trkpt lat="44.33603" lon="3.49745">
        <ele>494.4</ele>
        <time>2020-08-25T07:24:33.000Z</time>
      </trkpt>
      <trkpt lat="44.33597" lon="3.49745">
        <ele>494.4</ele>
        <time>2020-08-25T07:24:34.000Z</time>
      </trkpt>
      <trkpt lat="44.33592" lon="3.49744">
        <ele>494.4</ele>
        <time>2020-08-25T07:24:35.000Z</time>
      </trkpt>
      <trkpt lat="44.33582" lon="3.49743">
        <ele>494.4</ele>
        <time>2020-08-25T07:24:37.000Z</time>
      </trkpt>
      <trkpt lat="44.33572" lon="3.49742">
        <ele>494.5</ele>
        <time>2020-08-25T07:24:39.000Z</time>
      </trkpt>
      <trkpt lat="44.33567" lon="3.49741">
        <ele>494.5</ele>
        <time>2020-08-25T07:24:40.000Z</time>
      </trkpt>
      <trkpt lat="44.33563" lon="3.49741">
        <ele>494.5</ele>
        <time>2020-08-25T07:24:41.000Z</time>
      </trkpt>
      <trkpt lat="44.33559" lon="3.4974">
        <ele>494.5</ele>
        <time>2020-08-25T07:24:42.000Z</time>
      </trkpt>
      <trkpt lat="44.33552" lon="3.49739">
        <ele>494.4</ele>
        <time>2020-08-25T07:24:44.000Z</time>
      </trkpt>
      <trkpt lat="44.33548" lon="3.49739">
        <ele>494.4</ele>
        <time>2020-08-25T07:24:45.000Z</time>
      </trkpt>
      <trkpt lat="44.33543" lon="3.49738">
        <ele>494.3</ele>
        <time>2020-08-25T07:24:46.000Z</time>
      </trkpt>
      <trkpt lat="44.33539" lon="3.49738">
        <ele>494.2</ele>
        <time>2020-08-25T07:24:47.000Z</time>
      </trkpt>
      <trkpt lat="44.33532" lon="3.49738">
        <ele>494.1</ele>
        <time>2020-08-25T07:24:48.000Z</time>
      </trkpt>
      <trkpt lat="44.33528" lon="3.49738">
        <ele>494.1</ele>
        <time>2020-08-25T07:24:49.000Z</time>
      </trkpt>
      <trkpt lat="44.3352" lon="3.49735">
        <ele>494</ele>
        <time>2020-08-25T07:24:51.000Z</time>
      </trkpt>
      <trkpt lat="44.33515" lon="3.49734">
        <ele>493.9</ele>
        <time>2020-08-25T07:24:52.000Z</time>
      </trkpt>
      <trkpt lat="44.33505" lon="3.49733">
        <ele>493.8</ele>
        <time>2020-08-25T07:24:53.000Z</time>
      </trkpt>
      <trkpt lat="44.33494" lon="3.49731">
        <ele>493.7</ele>
        <time>2020-08-25T07:24:55.000Z</time>
      </trkpt>
      <trkpt lat="44.33483" lon="3.49728">
        <ele>493.7</ele>
        <time>2020-08-25T07:24:57.000Z</time>
      </trkpt>
      <trkpt lat="44.33479" lon="3.49727">
        <ele>493.7</ele>
        <time>2020-08-25T07:24:58.000Z</time>
      </trkpt>
      <trkpt lat="44.33474" lon="3.49726">
        <ele>493.7</ele>
        <time>2020-08-25T07:24:59.000Z</time>
      </trkpt>
      <trkpt lat="44.33463" lon="3.49723">
        <ele>493.6</ele>
        <time>2020-08-25T07:25:01.000Z</time>
      </trkpt>
      <trkpt lat="44.33459" lon="3.49722">
        <ele>493.6</ele>
        <time>2020-08-25T07:25:02.000Z</time>
      </trkpt>
      <trkpt lat="44.33449" lon="3.4972">
        <ele>493.6</ele>
        <time>2020-08-25T07:25:04.000Z</time>
      </trkpt>
      <trkpt lat="44.33438" lon="3.49717">
        <ele>493.5</ele>
        <time>2020-08-25T07:25:06.000Z</time>
      </trkpt>
      <trkpt lat="44.33433" lon="3.49716">
        <ele>493.4</ele>
        <time>2020-08-25T07:25:07.000Z</time>
      </trkpt>
      <trkpt lat="44.33428" lon="3.49715">
        <ele>493.4</ele>
        <time>2020-08-25T07:25:08.000Z</time>
      </trkpt>
      <trkpt lat="44.33418" lon="3.49714">
        <ele>493.4</ele>
        <time>2020-08-25T07:25:10.000Z</time>
      </trkpt>
      <trkpt lat="44.33413" lon="3.49714">
        <ele>493.4</ele>
        <time>2020-08-25T07:25:11.000Z</time>
      </trkpt>
      <trkpt lat="44.33407" lon="3.49715">
        <ele>493.4</ele>
        <time>2020-08-25T07:25:13.000Z</time>
      </trkpt>
      <trkpt lat="44.33399" lon="3.4972">
        <ele>493.4</ele>
        <time>2020-08-25T07:25:14.000Z</time>
      </trkpt>
      <trkpt lat="44.33395" lon="3.49722">
        <ele>493.5</ele>
        <time>2020-08-25T07:25:15.000Z</time>
      </trkpt>
      <trkpt lat="44.3339" lon="3.49723">
        <ele>493.6</ele>
        <time>2020-08-25T07:25:17.000Z</time>
      </trkpt>
      <trkpt lat="44.33388" lon="3.49724">
        <ele>493.6</ele>
        <time>2020-08-25T07:25:18.000Z</time>
      </trkpt>
      <trkpt lat="44.33382" lon="3.49729">
        <ele>493.8</ele>
        <time>2020-08-25T07:25:20.000Z</time>
      </trkpt>
      <trkpt lat="44.33375" lon="3.49733">
        <ele>494</ele>
        <time>2020-08-25T07:25:22.000Z</time>
      </trkpt>
      <trkpt lat="44.33372" lon="3.49735">
        <ele>494.1</ele>
        <time>2020-08-25T07:25:23.000Z</time>
      </trkpt>
      <trkpt lat="44.33371" lon="3.49735">
        <ele>494.2</ele>
        <time>2020-08-25T07:25:24.000Z</time>
      </trkpt>
      <trkpt lat="44.33368" lon="3.49737">
        <ele>494.3</ele>
        <time>2020-08-25T07:25:26.000Z</time>
      </trkpt>
      <trkpt lat="44.33367" lon="3.49737">
        <ele>494.4</ele>
        <time>2020-08-25T07:25:27.000Z</time>
      </trkpt>
      <trkpt lat="44.33362" lon="3.49738">
        <ele>494.6</ele>
        <time>2020-08-25T07:25:29.000Z</time>
      </trkpt>
      <trkpt lat="44.33359" lon="3.49738">
        <ele>494.8</ele>
        <time>2020-08-25T07:25:31.000Z</time>
      </trkpt>
      <trkpt lat="44.33357" lon="3.49739">
        <ele>494.9</ele>
        <time>2020-08-25T07:25:32.000Z</time>
      </trkpt>
      <trkpt lat="44.33351" lon="3.4974">
        <ele>495.2</ele>
        <time>2020-08-25T07:25:34.000Z</time>
      </trkpt>
      <trkpt lat="44.33345" lon="3.4974">
        <ele>495.6</ele>
        <time>2020-08-25T07:25:35.000Z</time>
      </trkpt>
      <trkpt lat="44.33338" lon="3.49739">
        <ele>496.1</ele>
        <time>2020-08-25T07:25:37.000Z</time>
      </trkpt>
      <trkpt lat="44.33334" lon="3.49738">
        <ele>496.3</ele>
        <time>2020-08-25T07:25:38.000Z</time>
      </trkpt>
      <trkpt lat="44.33322" lon="3.49735">
        <ele>497.2</ele>
        <time>2020-08-25T07:25:40.000Z</time>
      </trkpt>
      <trkpt lat="44.33316" lon="3.49731">
        <ele>497.8</ele>
        <time>2020-08-25T07:25:42.000Z</time>
      </trkpt>
      <trkpt lat="44.33311" lon="3.49729">
        <ele>498.2</ele>
        <time>2020-08-25T07:25:44.000Z</time>
      </trkpt>
      <trkpt lat="44.33307" lon="3.49725">
        <ele>498.5</ele>
        <time>2020-08-25T07:25:46.000Z</time>
      </trkpt>
      <trkpt lat="44.33305" lon="3.49724">
        <ele>498.7</ele>
        <time>2020-08-25T07:25:47.000Z</time>
      </trkpt>
      <trkpt lat="44.33302" lon="3.49721">
        <ele>499</ele>
        <time>2020-08-25T07:25:49.000Z</time>
      </trkpt>
      <trkpt lat="44.33299" lon="3.49719">
        <ele>499.3</ele>
        <time>2020-08-25T07:25:51.000Z</time>
      </trkpt>
      <trkpt lat="44.33297" lon="3.49717">
        <ele>499.4</ele>
        <time>2020-08-25T07:25:52.000Z</time>
      </trkpt>
      <trkpt lat="44.33295" lon="3.49716">
        <ele>499.5</ele>
        <time>2020-08-25T07:25:53.000Z</time>
      </trkpt>
      <trkpt lat="44.33292" lon="3.49713">
        <ele>499.8</ele>
        <time>2020-08-25T07:25:55.000Z</time>
      </trkpt>
      <trkpt lat="44.33289" lon="3.4971">
        <ele>500</ele>
        <time>2020-08-25T07:25:57.000Z</time>
      </trkpt>
      <trkpt lat="44.33288" lon="3.49709">
        <ele>500</ele>
        <time>2020-08-25T07:25:58.000Z</time>
      </trkpt>
      <trkpt lat="44.33285" lon="3.49706">
        <ele>500.2</ele>
        <time>2020-08-25T07:26:00.000Z</time>
      </trkpt>
      <trkpt lat="44.33283" lon="3.49702">
        <ele>500.3</ele>
        <time>2020-08-25T07:26:01.000Z</time>
      </trkpt>
      <trkpt lat="44.33283" lon="3.49701">
        <ele>500.4</ele>
        <time>2020-08-25T07:26:02.000Z</time>
      </trkpt>
      <trkpt lat="44.33281" lon="3.49697">
        <ele>500.5</ele>
        <time>2020-08-25T07:26:03.000Z</time>
      </trkpt>
      <trkpt lat="44.3328" lon="3.49696">
        <ele>500.6</ele>
        <time>2020-08-25T07:26:04.000Z</time>
      </trkpt>
      <trkpt lat="44.33279" lon="3.49694">
        <ele>500.7</ele>
        <time>2020-08-25T07:26:05.000Z</time>
      </trkpt>
      <trkpt lat="44.33277" lon="3.49689">
        <ele>500.8</ele>
        <time>2020-08-25T07:26:07.000Z</time>
      </trkpt>
      <trkpt lat="44.33277" lon="3.49688">
        <ele>500.8</ele>
        <time>2020-08-25T07:26:09.000Z</time>
      </trkpt>
      <trkpt lat="44.33277" lon="3.49689">
        <ele>500.8</ele>
        <time>2020-08-25T07:26:11.000Z</time>
      </trkpt>
      <trkpt lat="44.33277" lon="3.49689">
        <ele>500.8</ele>
        <time>2020-08-25T07:26:13.000Z</time>
      </trkpt>
      <trkpt lat="44.33277" lon="3.49689">
        <ele>500.8</ele>
        <time>2020-08-25T07:26:14.000Z</time>
      </trkpt>
      <trkpt lat="44.33277" lon="3.49689">
        <ele>500.8</ele>
        <time>2020-08-25T07:26:15.000Z</time>
      </trkpt>
      <trkpt lat="44.33277" lon="3.49689">
        <ele>500.8</ele>
        <time>2020-08-25T07:26:17.000Z</time>
      </trkpt>
      <trkpt lat="44.33272" lon="3.49693">
        <ele>501</ele>
        <time>2020-08-25T07:27:24.000Z</time>
      </trkpt>
      <trkpt lat="44.33269" lon="3.49694">
        <ele>501.1</ele>
        <time>2020-08-25T07:27:26.000Z</time>
      </trkpt>
      <trkpt lat="44.33265" lon="3.49695">
        <ele>501.2</ele>
        <time>2020-08-25T07:27:28.000Z</time>
      </trkpt>
      <trkpt lat="44.33261" lon="3.49695">
        <ele>501.3</ele>
        <time>2020-08-25T07:27:29.000Z</time>
      </trkpt>
      <trkpt lat="44.33259" lon="3.49694">
        <ele>501.4</ele>
        <time>2020-08-25T07:27:30.000Z</time>
      </trkpt>
      <trkpt lat="44.33255" lon="3.49693">
        <ele>501.5</ele>
        <time>2020-08-25T07:27:32.000Z</time>
      </trkpt>
      <trkpt lat="44.33251" lon="3.49691">
        <ele>501.7</ele>
        <time>2020-08-25T07:27:34.000Z</time>
      </trkpt>
      <trkpt lat="44.33249" lon="3.4969">
        <ele>501.8</ele>
        <time>2020-08-25T07:27:35.000Z</time>
      </trkpt>
      <trkpt lat="44.33242" lon="3.49686">
        <ele>502.2</ele>
        <time>2020-08-25T07:27:37.000Z</time>
      </trkpt>
      <trkpt lat="44.33239" lon="3.49684">
        <ele>502.4</ele>
        <time>2020-08-25T07:27:39.000Z</time>
      </trkpt>
      <trkpt lat="44.33235" lon="3.49682">
        <ele>502.7</ele>
        <time>2020-08-25T07:27:41.000Z</time>
      </trkpt>
      <trkpt lat="44.33231" lon="3.49679">
        <ele>503</ele>
        <time>2020-08-25T07:27:43.000Z</time>
      </trkpt>
      <trkpt lat="44.33227" lon="3.49676">
        <ele>503.3</ele>
        <time>2020-08-25T07:27:45.000Z</time>
      </trkpt>
      <trkpt lat="44.33224" lon="3.49674">
        <ele>503.4</ele>
        <time>2020-08-25T07:27:46.000Z</time>
      </trkpt>
      <trkpt lat="44.33223" lon="3.49673">
        <ele>503.5</ele>
        <time>2020-08-25T07:27:47.000Z</time>
      </trkpt>
      <trkpt lat="44.33221" lon="3.49672">
        <ele>503.6</ele>
        <time>2020-08-25T07:27:48.000Z</time>
      </trkpt>
      <trkpt lat="44.33218" lon="3.4967">
        <ele>503.8</ele>
        <time>2020-08-25T07:27:50.000Z</time>
      </trkpt>
      <trkpt lat="44.33214" lon="3.49668">
        <ele>504.1</ele>
        <time>2020-08-25T07:27:52.000Z</time>
      </trkpt>
      <trkpt lat="44.3321" lon="3.49665">
        <ele>504.3</ele>
        <time>2020-08-25T07:27:54.000Z</time>
      </trkpt>
      <trkpt lat="44.33208" lon="3.49664">
        <ele>504.4</ele>
        <time>2020-08-25T07:27:56.000Z</time>
      </trkpt>
      <trkpt lat="44.33207" lon="3.49662">
        <ele>504.6</ele>
        <time>2020-08-25T07:27:58.000Z</time>
      </trkpt>
      <trkpt lat="44.33206" lon="3.49661">
        <ele>504.6</ele>
        <time>2020-08-25T07:27:59.000Z</time>
      </trkpt>
      <trkpt lat="44.33205" lon="3.49658">
        <ele>504.8</ele>
        <time>2020-08-25T07:28:01.000Z</time>
      </trkpt>
      <trkpt lat="44.33204" lon="3.49658">
        <ele>504.8</ele>
        <time>2020-08-25T07:28:02.000Z</time>
      </trkpt>
      <trkpt lat="44.33199" lon="3.49651">
        <ele>505.2</ele>
        <time>2020-08-25T07:28:04.000Z</time>
      </trkpt>
      <trkpt lat="44.33196" lon="3.49648">
        <ele>505.4</ele>
        <time>2020-08-25T07:28:05.000Z</time>
      </trkpt>
      <trkpt lat="44.33198" lon="3.49649">
        <ele>505.5</ele>
        <time>2020-08-25T07:28:06.000Z</time>
      </trkpt>
      <trkpt lat="44.33198" lon="3.49648">
        <ele>505.6</ele>
        <time>2020-08-25T07:28:08.000Z</time>
      </trkpt>
      <trkpt lat="44.33194" lon="3.49641">
        <ele>505.9</ele>
        <time>2020-08-25T07:28:10.000Z</time>
      </trkpt>
      <trkpt lat="44.3319" lon="3.49635">
        <ele>506.2</ele>
        <time>2020-08-25T07:28:11.000Z</time>
      </trkpt>
      <trkpt lat="44.33188" lon="3.4963">
        <ele>506.4</ele>
        <time>2020-08-25T07:28:12.000Z</time>
      </trkpt>
      <trkpt lat="44.33182" lon="3.49621">
        <ele>506.8</ele>
        <time>2020-08-25T07:28:14.000Z</time>
      </trkpt>
      <trkpt lat="44.33181" lon="3.49619">
        <ele>506.9</ele>
        <time>2020-08-25T07:28:15.000Z</time>
      </trkpt>
      <trkpt lat="44.33184" lon="3.49623">
        <ele>507.1</ele>
        <time>2020-08-25T07:28:17.000Z</time>
      </trkpt>
      <trkpt lat="44.33185" lon="3.49624">
        <ele>507.1</ele>
        <time>2020-08-25T07:28:18.000Z</time>
      </trkpt>
      <trkpt lat="44.33186" lon="3.49625">
        <ele>507.2</ele>
        <time>2020-08-25T07:28:20.000Z</time>
      </trkpt>
      <trkpt lat="44.33187" lon="3.49625">
        <ele>507.2</ele>
        <time>2020-08-25T07:28:21.000Z</time>
      </trkpt>
      <trkpt lat="44.33187" lon="3.49623">
        <ele>507.3</ele>
        <time>2020-08-25T07:28:23.000Z</time>
      </trkpt>
      <trkpt lat="44.33186" lon="3.4962">
        <ele>507.4</ele>
        <time>2020-08-25T07:28:25.000Z</time>
      </trkpt>
      <trkpt lat="44.33185" lon="3.49619">
        <ele>507.4</ele>
        <time>2020-08-25T07:28:26.000Z</time>
      </trkpt>
      <trkpt lat="44.33183" lon="3.49614">
        <ele>507.6</ele>
        <time>2020-08-25T07:28:28.000Z</time>
      </trkpt>
      <trkpt lat="44.33182" lon="3.49611">
        <ele>507.7</ele>
        <time>2020-08-25T07:28:30.000Z</time>
      </trkpt>
      <trkpt lat="44.33181" lon="3.4961">
        <ele>507.8</ele>
        <time>2020-08-25T07:28:31.000Z</time>
      </trkpt>
      <trkpt lat="44.3318" lon="3.49605">
        <ele>507.9</ele>
        <time>2020-08-25T07:28:33.000Z</time>
      </trkpt>
      <trkpt lat="44.33179" lon="3.49603">
        <ele>508</ele>
        <time>2020-08-25T07:28:34.000Z</time>
      </trkpt>
      <trkpt lat="44.33179" lon="3.49599">
        <ele>508.1</ele>
        <time>2020-08-25T07:28:36.000Z</time>
      </trkpt>
      <trkpt lat="44.33172" lon="3.49585">
        <ele>508.5</ele>
        <time>2020-08-25T07:28:38.000Z</time>
      </trkpt>
      <trkpt lat="44.33162" lon="3.49567">
        <ele>509.1</ele>
        <time>2020-08-25T07:28:40.000Z</time>
      </trkpt>
      <trkpt lat="44.3316" lon="3.49558">
        <ele>509.3</ele>
        <time>2020-08-25T07:28:42.000Z</time>
      </trkpt>
      <trkpt lat="44.33159" lon="3.49555">
        <ele>509.3</ele>
        <time>2020-08-25T07:28:43.000Z</time>
      </trkpt>
      <trkpt lat="44.33159" lon="3.49553">
        <ele>509.4</ele>
        <time>2020-08-25T07:28:44.000Z</time>
      </trkpt>
      <trkpt lat="44.3316" lon="3.49549">
        <ele>509.4</ele>
        <time>2020-08-25T07:28:45.000Z</time>
      </trkpt>
      <trkpt lat="44.33166" lon="3.49537">
        <ele>509.7</ele>
        <time>2020-08-25T07:28:47.000Z</time>
      </trkpt>
      <trkpt lat="44.33172" lon="3.49525">
        <ele>510</ele>
        <time>2020-08-25T07:28:49.000Z</time>
      </trkpt>
      <trkpt lat="44.33175" lon="3.49514">
        <ele>510.2</ele>
        <time>2020-08-25T07:28:51.000Z</time>
      </trkpt>
      <trkpt lat="44.33178" lon="3.49505">
        <ele>510.4</ele>
        <time>2020-08-25T07:28:52.000Z</time>
      </trkpt>
      <trkpt lat="44.33178" lon="3.49497">
        <ele>510.5</ele>
        <time>2020-08-25T07:28:54.000Z</time>
      </trkpt>
      <trkpt lat="44.33178" lon="3.49492">
        <ele>510.6</ele>
        <time>2020-08-25T07:28:55.000Z</time>
      </trkpt>
      <trkpt lat="44.33178" lon="3.49491">
        <ele>510.6</ele>
        <time>2020-08-25T07:28:56.000Z</time>
      </trkpt>
      <trkpt lat="44.33178" lon="3.49486">
        <ele>510.7</ele>
        <time>2020-08-25T07:28:57.000Z</time>
      </trkpt>
      <trkpt lat="44.33178" lon="3.49479">
        <ele>510.8</ele>
        <time>2020-08-25T07:28:59.000Z</time>
      </trkpt>
      <trkpt lat="44.33178" lon="3.49475">
        <ele>510.8</ele>
        <time>2020-08-25T07:29:00.000Z</time>
      </trkpt>
      <trkpt lat="44.33178" lon="3.4947">
        <ele>510.9</ele>
        <time>2020-08-25T07:29:01.000Z</time>
      </trkpt>
      <trkpt lat="44.3318" lon="3.4946">
        <ele>511.1</ele>
        <time>2020-08-25T07:29:03.000Z</time>
      </trkpt>
      <trkpt lat="44.3318" lon="3.49456">
        <ele>511.1</ele>
        <time>2020-08-25T07:29:04.000Z</time>
      </trkpt>
      <trkpt lat="44.33182" lon="3.49448">
        <ele>511.2</ele>
        <time>2020-08-25T07:29:06.000Z</time>
      </trkpt>
      <trkpt lat="44.33183" lon="3.49442">
        <ele>511.3</ele>
        <time>2020-08-25T07:29:07.000Z</time>
      </trkpt>
      <trkpt lat="44.33186" lon="3.49433">
        <ele>511.4</ele>
        <time>2020-08-25T07:29:09.000Z</time>
      </trkpt>
      <trkpt lat="44.33187" lon="3.49429">
        <ele>511.5</ele>
        <time>2020-08-25T07:29:10.000Z</time>
      </trkpt>
      <trkpt lat="44.33191" lon="3.49423">
        <ele>511.6</ele>
        <time>2020-08-25T07:29:12.000Z</time>
      </trkpt>
      <trkpt lat="44.33194" lon="3.49416">
        <ele>511.7</ele>
        <time>2020-08-25T07:29:14.000Z</time>
      </trkpt>
      <trkpt lat="44.33197" lon="3.49409">
        <ele>511.8</ele>
        <time>2020-08-25T07:29:16.000Z</time>
      </trkpt>
      <trkpt lat="44.33198" lon="3.49406">
        <ele>511.9</ele>
        <time>2020-08-25T07:29:17.000Z</time>
      </trkpt>
      <trkpt lat="44.33199" lon="3.49402">
        <ele>512</ele>
        <time>2020-08-25T07:29:19.000Z</time>
      </trkpt>
      <trkpt lat="44.33201" lon="3.49397">
        <ele>512</ele>
        <time>2020-08-25T07:29:20.000Z</time>
      </trkpt>
      <trkpt lat="44.33202" lon="3.49392">
        <ele>512.1</ele>
        <time>2020-08-25T07:29:21.000Z</time>
      </trkpt>
      <trkpt lat="44.33204" lon="3.49386">
        <ele>512.2</ele>
        <time>2020-08-25T07:29:23.000Z</time>
      </trkpt>
      <trkpt lat="44.33205" lon="3.49383">
        <ele>512.2</ele>
        <time>2020-08-25T07:29:24.000Z</time>
      </trkpt>
      <trkpt lat="44.3321" lon="3.49376">
        <ele>512.3</ele>
        <time>2020-08-25T07:29:26.000Z</time>
      </trkpt>
      <trkpt lat="44.33213" lon="3.49372">
        <ele>512.4</ele>
        <time>2020-08-25T07:29:28.000Z</time>
      </trkpt>
      <trkpt lat="44.33215" lon="3.4937">
        <ele>512.4</ele>
        <time>2020-08-25T07:29:29.000Z</time>
      </trkpt>
      <trkpt lat="44.33216" lon="3.4937">
        <ele>512.4</ele>
        <time>2020-08-25T07:29:30.000Z</time>
      </trkpt>
      <trkpt lat="44.33216" lon="3.4937">
        <ele>512.4</ele>
        <time>2020-08-25T07:29:32.000Z</time>
      </trkpt>
      <trkpt lat="44.33215" lon="3.4937">
        <ele>512.4</ele>
        <time>2020-08-25T07:29:34.000Z</time>
      </trkpt>
      <trkpt lat="44.33215" lon="3.4937">
        <ele>512.4</ele>
        <time>2020-08-25T07:29:36.000Z</time>
      </trkpt>
      <trkpt lat="44.33215" lon="3.4937">
        <ele>512.4</ele>
        <time>2020-08-25T07:29:38.000Z</time>
      </trkpt>
      <trkpt lat="44.33215" lon="3.49369">
        <ele>512.5</ele>
        <time>2020-08-25T07:29:39.000Z</time>
      </trkpt>
      <trkpt lat="44.33216" lon="3.49366">
        <ele>512.5</ele>
        <time>2020-08-25T07:29:41.000Z</time>
      </trkpt>
      <trkpt lat="44.33217" lon="3.49366">
        <ele>512.5</ele>
        <time>2020-08-25T07:29:42.000Z</time>
      </trkpt>
      <trkpt lat="44.3322" lon="3.49362">
        <ele>512.5</ele>
        <time>2020-08-25T07:29:44.000Z</time>
      </trkpt>
      <trkpt lat="44.33221" lon="3.49361">
        <ele>512.6</ele>
        <time>2020-08-25T07:29:45.000Z</time>
      </trkpt>
      <trkpt lat="44.33221" lon="3.4936">
        <ele>512.6</ele>
        <time>2020-08-25T07:29:46.000Z</time>
      </trkpt>
      <trkpt lat="44.33222" lon="3.49359">
        <ele>512.6</ele>
        <time>2020-08-25T07:29:47.000Z</time>
      </trkpt>
      <trkpt lat="44.33224" lon="3.49356">
        <ele>512.7</ele>
        <time>2020-08-25T07:29:49.000Z</time>
      </trkpt>
      <trkpt lat="44.33227" lon="3.49351">
        <ele>512.8</ele>
        <time>2020-08-25T07:29:51.000Z</time>
      </trkpt>
      <trkpt lat="44.33233" lon="3.49342">
        <ele>513</ele>
        <time>2020-08-25T07:29:53.000Z</time>
      </trkpt>
      <trkpt lat="44.33238" lon="3.49333">
        <ele>513.2</ele>
        <time>2020-08-25T07:29:55.000Z</time>
      </trkpt>
      <trkpt lat="44.33242" lon="3.49325">
        <ele>513.4</ele>
        <time>2020-08-25T07:29:57.000Z</time>
      </trkpt>
      <trkpt lat="44.33246" lon="3.49319">
        <ele>513.5</ele>
        <time>2020-08-25T07:29:58.000Z</time>
      </trkpt>
      <trkpt lat="44.33252" lon="3.49309">
        <ele>513.8</ele>
        <time>2020-08-25T07:30:00.000Z</time>
      </trkpt>
      <trkpt lat="44.33255" lon="3.49305">
        <ele>513.9</ele>
        <time>2020-08-25T07:30:01.000Z</time>
      </trkpt>
      <trkpt lat="44.3326" lon="3.49298">
        <ele>514.1</ele>
        <time>2020-08-25T07:30:03.000Z</time>
      </trkpt>
      <trkpt lat="44.33262" lon="3.49296">
        <ele>514.2</ele>
        <time>2020-08-25T07:30:04.000Z</time>
      </trkpt>
      <trkpt lat="44.33264" lon="3.49294">
        <ele>514.2</ele>
        <time>2020-08-25T07:30:05.000Z</time>
      </trkpt>
      <trkpt lat="44.33269" lon="3.4929">
        <ele>514.4</ele>
        <time>2020-08-25T07:30:07.000Z</time>
      </trkpt>
      <trkpt lat="44.33273" lon="3.49286">
        <ele>514.5</ele>
        <time>2020-08-25T07:30:09.000Z</time>
      </trkpt>
      <trkpt lat="44.33278" lon="3.49283">
        <ele>514.7</ele>
        <time>2020-08-25T07:30:11.000Z</time>
      </trkpt>
      <trkpt lat="44.33284" lon="3.49279">
        <ele>514.8</ele>
        <time>2020-08-25T07:30:13.000Z</time>
      </trkpt>
      <trkpt lat="44.33288" lon="3.49276">
        <ele>514.9</ele>
        <time>2020-08-25T07:30:14.000Z</time>
      </trkpt>
      <trkpt lat="44.33292" lon="3.49272">
        <ele>515</ele>
        <time>2020-08-25T07:30:16.000Z</time>
      </trkpt>
      <trkpt lat="44.33297" lon="3.49269">
        <ele>515.1</ele>
        <time>2020-08-25T07:30:17.000Z</time>
      </trkpt>
      <trkpt lat="44.33302" lon="3.49265">
        <ele>515.2</ele>
        <time>2020-08-25T07:30:19.000Z</time>
      </trkpt>
      <trkpt lat="44.3331" lon="3.4926">
        <ele>515.4</ele>
        <time>2020-08-25T07:30:21.000Z</time>
      </trkpt>
      <trkpt lat="44.33314" lon="3.49256">
        <ele>515.5</ele>
        <time>2020-08-25T07:30:23.000Z</time>
      </trkpt>
      <trkpt lat="44.33319" lon="3.49252">
        <ele>515.6</ele>
        <time>2020-08-25T07:30:25.000Z</time>
      </trkpt>
      <trkpt lat="44.33322" lon="3.4925">
        <ele>515.7</ele>
        <time>2020-08-25T07:30:26.000Z</time>
      </trkpt>
      <trkpt lat="44.33328" lon="3.49244">
        <ele>515.9</ele>
        <time>2020-08-25T07:30:28.000Z</time>
      </trkpt>
      <trkpt lat="44.33333" lon="3.49241">
        <ele>516.1</ele>
        <time>2020-08-25T07:30:30.000Z</time>
      </trkpt>
      <trkpt lat="44.33336" lon="3.49239">
        <ele>516.2</ele>
        <time>2020-08-25T07:30:31.000Z</time>
      </trkpt>
      <trkpt lat="44.3334" lon="3.49236">
        <ele>516.3</ele>
        <time>2020-08-25T07:30:32.000Z</time>
      </trkpt>
      <trkpt lat="44.33343" lon="3.49233">
        <ele>516.4</ele>
        <time>2020-08-25T07:30:33.000Z</time>
      </trkpt>
      <trkpt lat="44.33349" lon="3.49227">
        <ele>516.5</ele>
        <time>2020-08-25T07:30:35.000Z</time>
      </trkpt>
      <trkpt lat="44.33353" lon="3.49224">
        <ele>516.6</ele>
        <time>2020-08-25T07:30:36.000Z</time>
      </trkpt>
      <trkpt lat="44.33358" lon="3.49218">
        <ele>516.7</ele>
        <time>2020-08-25T07:30:38.000Z</time>
      </trkpt>
      <trkpt lat="44.33364" lon="3.49212">
        <ele>517</ele>
        <time>2020-08-25T07:30:40.000Z</time>
      </trkpt>
      <trkpt lat="44.33368" lon="3.49209">
        <ele>517.2</ele>
        <time>2020-08-25T07:30:41.000Z</time>
      </trkpt>
      <trkpt lat="44.33373" lon="3.49205">
        <ele>517.5</ele>
        <time>2020-08-25T07:30:43.000Z</time>
      </trkpt>
      <trkpt lat="44.33378" lon="3.492">
        <ele>517.7</ele>
        <time>2020-08-25T07:30:45.000Z</time>
      </trkpt>
      <trkpt lat="44.33381" lon="3.49197">
        <ele>517.9</ele>
        <time>2020-08-25T07:30:46.000Z</time>
      </trkpt>
      <trkpt lat="44.33387" lon="3.49193">
        <ele>518.2</ele>
        <time>2020-08-25T07:30:48.000Z</time>
      </trkpt>
      <trkpt lat="44.33389" lon="3.4919">
        <ele>518.4</ele>
        <time>2020-08-25T07:30:49.000Z</time>
      </trkpt>
      <trkpt lat="44.33395" lon="3.49186">
        <ele>518.7</ele>
        <time>2020-08-25T07:30:51.000Z</time>
      </trkpt>
      <trkpt lat="44.33399" lon="3.49182">
        <ele>518.9</ele>
        <time>2020-08-25T07:30:53.000Z</time>
      </trkpt>
      <trkpt lat="44.33403" lon="3.49179">
        <ele>519.1</ele>
        <time>2020-08-25T07:30:54.000Z</time>
      </trkpt>
      <trkpt lat="44.33406" lon="3.49175">
        <ele>519.3</ele>
        <time>2020-08-25T07:30:56.000Z</time>
      </trkpt>
      <trkpt lat="44.33409" lon="3.49173">
        <ele>519.5</ele>
        <time>2020-08-25T07:30:57.000Z</time>
      </trkpt>
      <trkpt lat="44.33413" lon="3.49169">
        <ele>519.6</ele>
        <time>2020-08-25T07:30:58.000Z</time>
      </trkpt>
      <trkpt lat="44.33416" lon="3.49166">
        <ele>519.8</ele>
        <time>2020-08-25T07:30:59.000Z</time>
      </trkpt>
      <trkpt lat="44.33417" lon="3.49165">
        <ele>519.9</ele>
        <time>2020-08-25T07:31:00.000Z</time>
      </trkpt>
      <trkpt lat="44.33421" lon="3.4916">
        <ele>520.1</ele>
        <time>2020-08-25T07:31:02.000Z</time>
      </trkpt>
      <trkpt lat="44.33423" lon="3.49158">
        <ele>520.2</ele>
        <time>2020-08-25T07:31:03.000Z</time>
      </trkpt>
      <trkpt lat="44.33425" lon="3.49156">
        <ele>520.4</ele>
        <time>2020-08-25T07:31:04.000Z</time>
      </trkpt>
      <trkpt lat="44.3343" lon="3.49151">
        <ele>520.7</ele>
        <time>2020-08-25T07:31:06.000Z</time>
      </trkpt>
      <trkpt lat="44.33434" lon="3.49147">
        <ele>520.9</ele>
        <time>2020-08-25T07:31:08.000Z</time>
      </trkpt>
      <trkpt lat="44.33436" lon="3.49144">
        <ele>521.1</ele>
        <time>2020-08-25T07:31:09.000Z</time>
      </trkpt>
      <trkpt lat="44.33438" lon="3.49142">
        <ele>521.2</ele>
        <time>2020-08-25T07:31:10.000Z</time>
      </trkpt>
      <trkpt lat="44.33442" lon="3.49138">
        <ele>521.4</ele>
        <time>2020-08-25T07:31:12.000Z</time>
      </trkpt>
      <trkpt lat="44.33445" lon="3.49133">
        <ele>521.7</ele>
        <time>2020-08-25T07:31:14.000Z</time>
      </trkpt>
      <trkpt lat="44.33448" lon="3.4913">
        <ele>521.9</ele>
        <time>2020-08-25T07:31:15.000Z</time>
      </trkpt>
      <trkpt lat="44.3345" lon="3.49124">
        <ele>522.1</ele>
        <time>2020-08-25T07:31:17.000Z</time>
      </trkpt>
      <trkpt lat="44.33451" lon="3.4912">
        <ele>522.3</ele>
        <time>2020-08-25T07:31:18.000Z</time>
      </trkpt>
      <trkpt lat="44.33451" lon="3.49114">
        <ele>522.6</ele>
        <time>2020-08-25T07:31:20.000Z</time>
      </trkpt>
      <trkpt lat="44.3345" lon="3.49108">
        <ele>522.8</ele>
        <time>2020-08-25T07:31:22.000Z</time>
      </trkpt>
      <trkpt lat="44.33449" lon="3.49104">
        <ele>522.9</ele>
        <time>2020-08-25T07:31:23.000Z</time>
      </trkpt>
      <trkpt lat="44.33447" lon="3.49099">
        <ele>523.1</ele>
        <time>2020-08-25T07:31:25.000Z</time>
      </trkpt>
      <trkpt lat="44.33445" lon="3.49096">
        <ele>523.3</ele>
        <time>2020-08-25T07:31:26.000Z</time>
      </trkpt>
      <trkpt lat="44.33442" lon="3.4909">
        <ele>523.6</ele>
        <time>2020-08-25T07:31:28.000Z</time>
      </trkpt>
      <trkpt lat="44.33439" lon="3.49086">
        <ele>523.7</ele>
        <time>2020-08-25T07:31:29.000Z</time>
      </trkpt>
      <trkpt lat="44.33438" lon="3.49085">
        <ele>523.8</ele>
        <time>2020-08-25T07:31:30.000Z</time>
      </trkpt>
      <trkpt lat="44.33437" lon="3.49082">
        <ele>524</ele>
        <time>2020-08-25T07:31:31.000Z</time>
      </trkpt>
      <trkpt lat="44.33434" lon="3.49078">
        <ele>524.1</ele>
        <time>2020-08-25T07:31:32.000Z</time>
      </trkpt>
      <trkpt lat="44.33431" lon="3.49073">
        <ele>524.4</ele>
        <time>2020-08-25T07:31:34.000Z</time>
      </trkpt>
      <trkpt lat="44.33429" lon="3.4907">
        <ele>524.5</ele>
        <time>2020-08-25T07:31:35.000Z</time>
      </trkpt>
      <trkpt lat="44.33428" lon="3.49069">
        <ele>524.6</ele>
        <time>2020-08-25T07:31:36.000Z</time>
      </trkpt>
      <trkpt lat="44.33425" lon="3.49064">
        <ele>524.8</ele>
        <time>2020-08-25T07:31:38.000Z</time>
      </trkpt>
      <trkpt lat="44.33421" lon="3.4906">
        <ele>525</ele>
        <time>2020-08-25T07:31:40.000Z</time>
      </trkpt>
      <trkpt lat="44.33418" lon="3.49057">
        <ele>525.2</ele>
        <time>2020-08-25T07:31:41.000Z</time>
      </trkpt>
      <trkpt lat="44.33415" lon="3.49054">
        <ele>525.4</ele>
        <time>2020-08-25T07:31:43.000Z</time>
      </trkpt>
      <trkpt lat="44.33412" lon="3.4905">
        <ele>525.6</ele>
        <time>2020-08-25T07:31:44.000Z</time>
      </trkpt>
      <trkpt lat="44.33409" lon="3.49048">
        <ele>525.7</ele>
        <time>2020-08-25T07:31:45.000Z</time>
      </trkpt>
      <trkpt lat="44.33406" lon="3.49044">
        <ele>525.9</ele>
        <time>2020-08-25T07:31:47.000Z</time>
      </trkpt>
      <trkpt lat="44.33403" lon="3.49042">
        <ele>526.1</ele>
        <time>2020-08-25T07:31:49.000Z</time>
      </trkpt>
      <trkpt lat="44.33398" lon="3.49037">
        <ele>526.5</ele>
        <time>2020-08-25T07:31:51.000Z</time>
      </trkpt>
      <trkpt lat="44.33394" lon="3.49033">
        <ele>526.7</ele>
        <time>2020-08-25T07:31:53.000Z</time>
      </trkpt>
      <trkpt lat="44.33392" lon="3.49031">
        <ele>526.8</ele>
        <time>2020-08-25T07:31:54.000Z</time>
      </trkpt>
      <trkpt lat="44.33391" lon="3.4903">
        <ele>526.9</ele>
        <time>2020-08-25T07:31:55.000Z</time>
      </trkpt>
      <trkpt lat="44.33387" lon="3.49026">
        <ele>527.1</ele>
        <time>2020-08-25T07:31:57.000Z</time>
      </trkpt>
      <trkpt lat="44.33384" lon="3.49023">
        <ele>527.3</ele>
        <time>2020-08-25T07:31:58.000Z</time>
      </trkpt>
      <trkpt lat="44.33382" lon="3.49022">
        <ele>527.3</ele>
        <time>2020-08-25T07:31:59.000Z</time>
      </trkpt>
      <trkpt lat="44.33378" lon="3.49019">
        <ele>527.5</ele>
        <time>2020-08-25T07:32:01.000Z</time>
      </trkpt>
      <trkpt lat="44.33375" lon="3.49014">
        <ele>527.7</ele>
        <time>2020-08-25T07:32:03.000Z</time>
      </trkpt>
      <trkpt lat="44.33371" lon="3.4901">
        <ele>527.8</ele>
        <time>2020-08-25T07:32:05.000Z</time>
      </trkpt>
      <trkpt lat="44.33368" lon="3.49007">
        <ele>527.9</ele>
        <time>2020-08-25T07:32:07.000Z</time>
      </trkpt>
      <trkpt lat="44.33365" lon="3.49004">
        <ele>528</ele>
        <time>2020-08-25T07:32:08.000Z</time>
      </trkpt>
      <trkpt lat="44.33363" lon="3.49001">
        <ele>528</ele>
        <time>2020-08-25T07:32:10.000Z</time>
      </trkpt>
      <trkpt lat="44.3336" lon="3.48997">
        <ele>528</ele>
        <time>2020-08-25T07:32:11.000Z</time>
      </trkpt>
      <trkpt lat="44.33359" lon="3.48995">
        <ele>528</ele>
        <time>2020-08-25T07:32:12.000Z</time>
      </trkpt>
      <trkpt lat="44.33355" lon="3.48989">
        <ele>528</ele>
        <time>2020-08-25T07:32:14.000Z</time>
      </trkpt>
      <trkpt lat="44.33353" lon="3.48986">
        <ele>527.9</ele>
        <time>2020-08-25T07:32:15.000Z</time>
      </trkpt>
      <trkpt lat="44.33352" lon="3.48983">
        <ele>527.9</ele>
        <time>2020-08-25T07:32:16.000Z</time>
      </trkpt>
      <trkpt lat="44.33349" lon="3.48975">
        <ele>527.6</ele>
        <time>2020-08-25T07:32:18.000Z</time>
      </trkpt>
      <trkpt lat="44.33345" lon="3.48967">
        <ele>527.3</ele>
        <time>2020-08-25T07:32:20.000Z</time>
      </trkpt>
      <trkpt lat="44.33342" lon="3.48958">
        <ele>527</ele>
        <time>2020-08-25T07:32:22.000Z</time>
      </trkpt>
      <trkpt lat="44.33339" lon="3.48952">
        <ele>526.7</ele>
        <time>2020-08-25T07:32:23.000Z</time>
      </trkpt>
      <trkpt lat="44.33336" lon="3.48945">
        <ele>526.3</ele>
        <time>2020-08-25T07:32:24.000Z</time>
      </trkpt>
      <trkpt lat="44.33328" lon="3.48933">
        <ele>525.6</ele>
        <time>2020-08-25T07:32:26.000Z</time>
      </trkpt>
      <trkpt lat="44.3332" lon="3.48926">
        <ele>524.9</ele>
        <time>2020-08-25T07:32:28.000Z</time>
      </trkpt>
      <trkpt lat="44.33315" lon="3.48924">
        <ele>524.5</ele>
        <time>2020-08-25T07:32:29.000Z</time>
      </trkpt>
      <trkpt lat="44.33305" lon="3.48919">
        <ele>523.8</ele>
        <time>2020-08-25T07:32:31.000Z</time>
      </trkpt>
      <trkpt lat="44.333" lon="3.48915">
        <ele>523.4</ele>
        <time>2020-08-25T07:32:32.000Z</time>
      </trkpt>
      <trkpt lat="44.33296" lon="3.48911">
        <ele>523.1</ele>
        <time>2020-08-25T07:32:33.000Z</time>
      </trkpt>
      <trkpt lat="44.33292" lon="3.48907">
        <ele>522.8</ele>
        <time>2020-08-25T07:32:34.000Z</time>
      </trkpt>
      <trkpt lat="44.33284" lon="3.489">
        <ele>522.1</ele>
        <time>2020-08-25T07:32:36.000Z</time>
      </trkpt>
      <trkpt lat="44.33279" lon="3.48896">
        <ele>521.8</ele>
        <time>2020-08-25T07:32:37.000Z</time>
      </trkpt>
      <trkpt lat="44.33269" lon="3.48887">
        <ele>521.2</ele>
        <time>2020-08-25T07:32:39.000Z</time>
      </trkpt>
      <trkpt lat="44.33266" lon="3.4888">
        <ele>521</ele>
        <time>2020-08-25T07:32:40.000Z</time>
      </trkpt>
      <trkpt lat="44.33266" lon="3.48863">
        <ele>520.4</ele>
        <time>2020-08-25T07:32:42.000Z</time>
      </trkpt>
      <trkpt lat="44.33268" lon="3.48859">
        <ele>520.2</ele>
        <time>2020-08-25T07:32:43.000Z</time>
      </trkpt>
      <trkpt lat="44.33277" lon="3.48847">
        <ele>519.8</ele>
        <time>2020-08-25T07:32:45.000Z</time>
      </trkpt>
      <trkpt lat="44.33281" lon="3.48841">
        <ele>519.5</ele>
        <time>2020-08-25T07:32:46.000Z</time>
      </trkpt>
      <trkpt lat="44.33288" lon="3.48828">
        <ele>518.9</ele>
        <time>2020-08-25T07:32:48.000Z</time>
      </trkpt>
      <trkpt lat="44.3329" lon="3.48821">
        <ele>518.6</ele>
        <time>2020-08-25T07:32:49.000Z</time>
      </trkpt>
      <trkpt lat="44.33294" lon="3.48806">
        <ele>517.9</ele>
        <time>2020-08-25T07:32:51.000Z</time>
      </trkpt>
      <trkpt lat="44.33295" lon="3.48798">
        <ele>517.6</ele>
        <time>2020-08-25T07:32:52.000Z</time>
      </trkpt>
      <trkpt lat="44.33295" lon="3.48782">
        <ele>516.9</ele>
        <time>2020-08-25T07:32:54.000Z</time>
      </trkpt>
      <trkpt lat="44.33293" lon="3.48773">
        <ele>516.4</ele>
        <time>2020-08-25T07:32:55.000Z</time>
      </trkpt>
      <trkpt lat="44.33287" lon="3.48756">
        <ele>515.3</ele>
        <time>2020-08-25T07:32:57.000Z</time>
      </trkpt>
      <trkpt lat="44.33283" lon="3.48747">
        <ele>514.7</ele>
        <time>2020-08-25T07:32:58.000Z</time>
      </trkpt>
      <trkpt lat="44.33278" lon="3.48738">
        <ele>514</ele>
        <time>2020-08-25T07:32:59.000Z</time>
      </trkpt>
      <trkpt lat="44.33272" lon="3.48717">
        <ele>512.5</ele>
        <time>2020-08-25T07:33:01.000Z</time>
      </trkpt>
      <trkpt lat="44.33272" lon="3.48692">
        <ele>511.3</ele>
        <time>2020-08-25T07:33:03.000Z</time>
      </trkpt>
      <trkpt lat="44.33274" lon="3.4868">
        <ele>510.8</ele>
        <time>2020-08-25T07:33:04.000Z</time>
      </trkpt>
      <trkpt lat="44.33276" lon="3.48667">
        <ele>510.1</ele>
        <time>2020-08-25T07:33:05.000Z</time>
      </trkpt>
      <trkpt lat="44.33275" lon="3.48641">
        <ele>508.4</ele>
        <time>2020-08-25T07:33:07.000Z</time>
      </trkpt>
      <trkpt lat="44.33273" lon="3.48614">
        <ele>506.7</ele>
        <time>2020-08-25T07:33:09.000Z</time>
      </trkpt>
      <trkpt lat="44.33272" lon="3.48601">
        <ele>505.9</ele>
        <time>2020-08-25T07:33:10.000Z</time>
      </trkpt>
      <trkpt lat="44.33272" lon="3.48587">
        <ele>505</ele>
        <time>2020-08-25T07:33:11.000Z</time>
      </trkpt>
      <trkpt lat="44.33271" lon="3.48573">
        <ele>504.2</ele>
        <time>2020-08-25T07:33:12.000Z</time>
      </trkpt>
      <trkpt lat="44.33273" lon="3.48542">
        <ele>502.8</ele>
        <time>2020-08-25T07:33:14.000Z</time>
      </trkpt>
      <trkpt lat="44.33282" lon="3.48516">
        <ele>501.9</ele>
        <time>2020-08-25T07:33:16.000Z</time>
      </trkpt>
      <trkpt lat="44.33287" lon="3.48504">
        <ele>501.4</ele>
        <time>2020-08-25T07:33:17.000Z</time>
      </trkpt>
      <trkpt lat="44.33292" lon="3.48477">
        <ele>500.4</ele>
        <time>2020-08-25T07:33:19.000Z</time>
      </trkpt>
      <trkpt lat="44.33294" lon="3.48448">
        <ele>499.3</ele>
        <time>2020-08-25T07:33:21.000Z</time>
      </trkpt>
      <trkpt lat="44.33295" lon="3.48433">
        <ele>498.8</ele>
        <time>2020-08-25T07:33:22.000Z</time>
      </trkpt>
      <trkpt lat="44.33297" lon="3.48419">
        <ele>498.5</ele>
        <time>2020-08-25T07:33:23.000Z</time>
      </trkpt>
      <trkpt lat="44.33301" lon="3.48393">
        <ele>498.7</ele>
        <time>2020-08-25T07:33:25.000Z</time>
      </trkpt>
      <trkpt lat="44.33304" lon="3.48381">
        <ele>499</ele>
        <time>2020-08-25T07:33:26.000Z</time>
      </trkpt>
      <trkpt lat="44.33308" lon="3.48361">
        <ele>499.7</ele>
        <time>2020-08-25T07:33:28.000Z</time>
      </trkpt>
      <trkpt lat="44.33314" lon="3.48346">
        <ele>500.4</ele>
        <time>2020-08-25T07:33:30.000Z</time>
      </trkpt>
      <trkpt lat="44.33318" lon="3.4834">
        <ele>500.7</ele>
        <time>2020-08-25T07:33:31.000Z</time>
      </trkpt>
      <trkpt lat="44.33321" lon="3.48335">
        <ele>501</ele>
        <time>2020-08-25T07:33:32.000Z</time>
      </trkpt>
      <trkpt lat="44.33323" lon="3.48333">
        <ele>501.2</ele>
        <time>2020-08-25T07:33:33.000Z</time>
      </trkpt>
      <trkpt lat="44.33327" lon="3.48325">
        <ele>501.5</ele>
        <time>2020-08-25T07:33:35.000Z</time>
      </trkpt>
      <trkpt lat="44.33329" lon="3.48321">
        <ele>501.7</ele>
        <time>2020-08-25T07:33:36.000Z</time>
      </trkpt>
      <trkpt lat="44.33332" lon="3.48313">
        <ele>502</ele>
        <time>2020-08-25T07:33:38.000Z</time>
      </trkpt>
      <trkpt lat="44.33335" lon="3.48307">
        <ele>502.2</ele>
        <time>2020-08-25T07:33:39.000Z</time>
      </trkpt>
      <trkpt lat="44.33333" lon="3.48304">
        <ele>502.3</ele>
        <time>2020-08-25T07:33:41.000Z</time>
      </trkpt>
      <trkpt lat="44.33339" lon="3.48297">
        <ele>502.6</ele>
        <time>2020-08-25T07:33:43.000Z</time>
      </trkpt>
      <trkpt lat="44.33346" lon="3.48289">
        <ele>502.8</ele>
        <time>2020-08-25T07:33:45.000Z</time>
      </trkpt>
      <trkpt lat="44.33351" lon="3.48282">
        <ele>502.9</ele>
        <time>2020-08-25T07:33:47.000Z</time>
      </trkpt>
      <trkpt lat="44.33355" lon="3.48278">
        <ele>503</ele>
        <time>2020-08-25T07:33:48.000Z</time>
      </trkpt>
      <trkpt lat="44.33357" lon="3.48274">
        <ele>503</ele>
        <time>2020-08-25T07:33:49.000Z</time>
      </trkpt>
      <trkpt lat="44.33361" lon="3.48268">
        <ele>503.2</ele>
        <time>2020-08-25T07:33:51.000Z</time>
      </trkpt>
      <trkpt lat="44.33363" lon="3.48265">
        <ele>503.2</ele>
        <time>2020-08-25T07:33:52.000Z</time>
      </trkpt>
      <trkpt lat="44.33365" lon="3.4826">
        <ele>503.3</ele>
        <time>2020-08-25T07:33:53.000Z</time>
      </trkpt>
      <trkpt lat="44.33368" lon="3.48255">
        <ele>503.4</ele>
        <time>2020-08-25T07:33:55.000Z</time>
      </trkpt>
      <trkpt lat="44.33371" lon="3.4825">
        <ele>503.4</ele>
        <time>2020-08-25T07:33:56.000Z</time>
      </trkpt>
      <trkpt lat="44.33374" lon="3.48245">
        <ele>503.5</ele>
        <time>2020-08-25T07:33:58.000Z</time>
      </trkpt>
      <trkpt lat="44.33378" lon="3.4824">
        <ele>503.5</ele>
        <time>2020-08-25T07:34:00.000Z</time>
      </trkpt>
      <trkpt lat="44.33381" lon="3.48236">
        <ele>503.4</ele>
        <time>2020-08-25T07:34:02.000Z</time>
      </trkpt>
      <trkpt lat="44.33384" lon="3.48232">
        <ele>503.4</ele>
        <time>2020-08-25T07:34:03.000Z</time>
      </trkpt>
      <trkpt lat="44.33386" lon="3.48227">
        <ele>503.2</ele>
        <time>2020-08-25T07:34:04.000Z</time>
      </trkpt>
      <trkpt lat="44.33388" lon="3.48223">
        <ele>503.1</ele>
        <time>2020-08-25T07:34:05.000Z</time>
      </trkpt>
      <trkpt lat="44.33389" lon="3.48218">
        <ele>502.9</ele>
        <time>2020-08-25T07:34:06.000Z</time>
      </trkpt>
      <trkpt lat="44.33392" lon="3.48211">
        <ele>502.6</ele>
        <time>2020-08-25T07:34:07.000Z</time>
      </trkpt>
      <trkpt lat="44.33397" lon="3.48197">
        <ele>502</ele>
        <time>2020-08-25T07:34:09.000Z</time>
      </trkpt>
      <trkpt lat="44.334" lon="3.4819">
        <ele>501.8</ele>
        <time>2020-08-25T07:34:10.000Z</time>
      </trkpt>
      <trkpt lat="44.33403" lon="3.48184">
        <ele>501.7</ele>
        <time>2020-08-25T07:34:11.000Z</time>
      </trkpt>
      <trkpt lat="44.33406" lon="3.48177">
        <ele>501.5</ele>
        <time>2020-08-25T07:34:12.000Z</time>
      </trkpt>
      <trkpt lat="44.33412" lon="3.48166">
        <ele>501.3</ele>
        <time>2020-08-25T07:34:14.000Z</time>
      </trkpt>
      <trkpt lat="44.33416" lon="3.48154">
        <ele>501.1</ele>
        <time>2020-08-25T07:34:16.000Z</time>
      </trkpt>
      <trkpt lat="44.33418" lon="3.48144">
        <ele>500.9</ele>
        <time>2020-08-25T07:34:18.000Z</time>
      </trkpt>
      <trkpt lat="44.33419" lon="3.48138">
        <ele>500.8</ele>
        <time>2020-08-25T07:34:20.000Z</time>
      </trkpt>
      <trkpt lat="44.33422" lon="3.48128">
        <ele>500.6</ele>
        <time>2020-08-25T07:34:21.000Z</time>
      </trkpt>
      <trkpt lat="44.33424" lon="3.48121">
        <ele>500.4</ele>
        <time>2020-08-25T07:34:23.000Z</time>
      </trkpt>
      <trkpt lat="44.33426" lon="3.48114">
        <ele>500.2</ele>
        <time>2020-08-25T07:34:24.000Z</time>
      </trkpt>
      <trkpt lat="44.33427" lon="3.48108">
        <ele>500</ele>
        <time>2020-08-25T07:34:25.000Z</time>
      </trkpt>
      <trkpt lat="44.33428" lon="3.48102">
        <ele>499.7</ele>
        <time>2020-08-25T07:34:26.000Z</time>
      </trkpt>
      <trkpt lat="44.33429" lon="3.48094">
        <ele>499.3</ele>
        <time>2020-08-25T07:34:27.000Z</time>
      </trkpt>
      <trkpt lat="44.3343" lon="3.48086">
        <ele>499</ele>
        <time>2020-08-25T07:34:28.000Z</time>
      </trkpt>
      <trkpt lat="44.33432" lon="3.48074">
        <ele>498.5</ele>
        <time>2020-08-25T07:34:30.000Z</time>
      </trkpt>
      <trkpt lat="44.33433" lon="3.48065">
        <ele>498.2</ele>
        <time>2020-08-25T07:34:32.000Z</time>
      </trkpt>
      <trkpt lat="44.33434" lon="3.48059">
        <ele>497.9</ele>
        <time>2020-08-25T07:34:33.000Z</time>
      </trkpt>
      <trkpt lat="44.33435" lon="3.48053">
        <ele>497.8</ele>
        <time>2020-08-25T07:34:35.000Z</time>
      </trkpt>
      <trkpt lat="44.33436" lon="3.48048">
        <ele>498.5</ele>
        <time>2020-08-25T07:34:36.000Z</time>
      </trkpt>
      <trkpt lat="44.33437" lon="3.48044">
        <ele>499.2</ele>
        <time>2020-08-25T07:34:38.000Z</time>
      </trkpt>
      <trkpt lat="44.33438" lon="3.48041">
        <ele>499.7</ele>
        <time>2020-08-25T07:34:39.000Z</time>
      </trkpt>
      <trkpt lat="44.33438" lon="3.48039">
        <ele>499.9</ele>
        <time>2020-08-25T07:34:41.000Z</time>
      </trkpt>
      <trkpt lat="44.33437" lon="3.4804">
        <ele>500.1</ele>
        <time>2020-08-25T07:34:43.000Z</time>
      </trkpt>
      <trkpt lat="44.33437" lon="3.48041">
        <ele>500.1</ele>
        <time>2020-08-25T07:34:44.000Z</time>
      </trkpt>
      <trkpt lat="44.33437" lon="3.48041">
        <ele>500.2</ele>
        <time>2020-08-25T07:34:45.000Z</time>
      </trkpt>
      <trkpt lat="44.33437" lon="3.48041">
        <ele>500.2</ele>
        <time>2020-08-25T07:34:46.000Z</time>
      </trkpt>
      <trkpt lat="44.33437" lon="3.48041">
        <ele>500.2</ele>
        <time>2020-08-25T07:34:47.000Z</time>
      </trkpt>
      <trkpt lat="44.33437" lon="3.48041">
        <ele>500.2</ele>
        <time>2020-08-25T07:34:49.000Z</time>
      </trkpt>
      <trkpt lat="44.33438" lon="3.48035">
        <ele>501.1</ele>
        <time>2020-08-25T07:35:36.000Z</time>
      </trkpt>
      <trkpt lat="44.33439" lon="3.48029">
        <ele>501.9</ele>
        <time>2020-08-25T07:35:38.000Z</time>
      </trkpt>
      <trkpt lat="44.33439" lon="3.48025">
        <ele>502.5</ele>
        <time>2020-08-25T07:35:39.000Z</time>
      </trkpt>
      <trkpt lat="44.33439" lon="3.48015">
        <ele>504</ele>
        <time>2020-08-25T07:35:41.000Z</time>
      </trkpt>
      <trkpt lat="44.33439" lon="3.48004">
        <ele>503.8</ele>
        <time>2020-08-25T07:35:43.000Z</time>
      </trkpt>
      <trkpt lat="44.3344" lon="3.47993">
        <ele>503.5</ele>
        <time>2020-08-25T07:35:45.000Z</time>
      </trkpt>
      <trkpt lat="44.33438" lon="3.47978">
        <ele>503.1</ele>
        <time>2020-08-25T07:35:47.000Z</time>
      </trkpt>
      <trkpt lat="44.33438" lon="3.4797">
        <ele>503</ele>
        <time>2020-08-25T07:35:48.000Z</time>
      </trkpt>
      <trkpt lat="44.33439" lon="3.47963">
        <ele>502.9</ele>
        <time>2020-08-25T07:35:49.000Z</time>
      </trkpt>
      <trkpt lat="44.33439" lon="3.47948">
        <ele>502.7</ele>
        <time>2020-08-25T07:35:51.000Z</time>
      </trkpt>
      <trkpt lat="44.33439" lon="3.4794">
        <ele>502.6</ele>
        <time>2020-08-25T07:35:52.000Z</time>
      </trkpt>
      <trkpt lat="44.33438" lon="3.47927">
        <ele>502.6</ele>
        <time>2020-08-25T07:35:54.000Z</time>
      </trkpt>
      <trkpt lat="44.33438" lon="3.47913">
        <ele>502.7</ele>
        <time>2020-08-25T07:35:56.000Z</time>
      </trkpt>
      <trkpt lat="44.33438" lon="3.47907">
        <ele>502.8</ele>
        <time>2020-08-25T07:35:57.000Z</time>
      </trkpt>
      <trkpt lat="44.33438" lon="3.47898">
        <ele>503</ele>
        <time>2020-08-25T07:35:59.000Z</time>
      </trkpt>
      <trkpt lat="44.33438" lon="3.47894">
        <ele>503.1</ele>
        <time>2020-08-25T07:36:00.000Z</time>
      </trkpt>
      <trkpt lat="44.33438" lon="3.47886">
        <ele>503.3</ele>
        <time>2020-08-25T07:36:02.000Z</time>
      </trkpt>
      <trkpt lat="44.33438" lon="3.47879">
        <ele>503.6</ele>
        <time>2020-08-25T07:36:04.000Z</time>
      </trkpt>
      <trkpt lat="44.33439" lon="3.47873">
        <ele>503.8</ele>
        <time>2020-08-25T07:36:06.000Z</time>
      </trkpt>
      <trkpt lat="44.33439" lon="3.47871">
        <ele>503.9</ele>
        <time>2020-08-25T07:36:07.000Z</time>
      </trkpt>
      <trkpt lat="44.33439" lon="3.47868">
        <ele>503.9</ele>
        <time>2020-08-25T07:36:09.000Z</time>
      </trkpt>
      <trkpt lat="44.33438" lon="3.47866">
        <ele>504</ele>
        <time>2020-08-25T07:36:10.000Z</time>
      </trkpt>
      <trkpt lat="44.33438" lon="3.47863">
        <ele>504.1</ele>
        <time>2020-08-25T07:36:11.000Z</time>
      </trkpt>
      <trkpt lat="44.33438" lon="3.47858">
        <ele>504.3</ele>
        <time>2020-08-25T07:36:13.000Z</time>
      </trkpt>
      <trkpt lat="44.33438" lon="3.47849">
        <ele>504.6</ele>
        <time>2020-08-25T07:36:14.000Z</time>
      </trkpt>
      <trkpt lat="44.33437" lon="3.47836">
        <ele>505</ele>
        <time>2020-08-25T07:36:16.000Z</time>
      </trkpt>
      <trkpt lat="44.33437" lon="3.47826">
        <ele>505.3</ele>
        <time>2020-08-25T07:36:18.000Z</time>
      </trkpt>
      <trkpt lat="44.33437" lon="3.47821">
        <ele>505.5</ele>
        <time>2020-08-25T07:36:19.000Z</time>
      </trkpt>
      <trkpt lat="44.33437" lon="3.47817">
        <ele>505.6</ele>
        <time>2020-08-25T07:36:20.000Z</time>
      </trkpt>
      <trkpt lat="44.33437" lon="3.4781">
        <ele>505.7</ele>
        <time>2020-08-25T07:36:22.000Z</time>
      </trkpt>
      <trkpt lat="44.33437" lon="3.47803">
        <ele>505.9</ele>
        <time>2020-08-25T07:36:24.000Z</time>
      </trkpt>
      <trkpt lat="44.33437" lon="3.47797">
        <ele>506.1</ele>
        <time>2020-08-25T07:36:25.000Z</time>
      </trkpt>
      <trkpt lat="44.33437" lon="3.47793">
        <ele>506.2</ele>
        <time>2020-08-25T07:36:26.000Z</time>
      </trkpt>
      <trkpt lat="44.33437" lon="3.47786">
        <ele>506.4</ele>
        <time>2020-08-25T07:36:28.000Z</time>
      </trkpt>
      <trkpt lat="44.33437" lon="3.4778">
        <ele>506.6</ele>
        <time>2020-08-25T07:36:29.000Z</time>
      </trkpt>
      <trkpt lat="44.33437" lon="3.47777">
        <ele>506.7</ele>
        <time>2020-08-25T07:36:30.000Z</time>
      </trkpt>
      <trkpt lat="44.33437" lon="3.47769">
        <ele>506.9</ele>
        <time>2020-08-25T07:36:32.000Z</time>
      </trkpt>
      <trkpt lat="44.33437" lon="3.47765">
        <ele>507</ele>
        <time>2020-08-25T07:36:33.000Z</time>
      </trkpt>
      <trkpt lat="44.33436" lon="3.47757">
        <ele>507.2</ele>
        <time>2020-08-25T07:36:35.000Z</time>
      </trkpt>
      <trkpt lat="44.33437" lon="3.47752">
        <ele>507.3</ele>
        <time>2020-08-25T07:36:36.000Z</time>
      </trkpt>
      <trkpt lat="44.33437" lon="3.47745">
        <ele>507.5</ele>
        <time>2020-08-25T07:36:38.000Z</time>
      </trkpt>
      <trkpt lat="44.33437" lon="3.47741">
        <ele>507.6</ele>
        <time>2020-08-25T07:36:39.000Z</time>
      </trkpt>
      <trkpt lat="44.33439" lon="3.47733">
        <ele>507.8</ele>
        <time>2020-08-25T07:36:41.000Z</time>
      </trkpt>
      <trkpt lat="44.33439" lon="3.47729">
        <ele>508</ele>
        <time>2020-08-25T07:36:42.000Z</time>
      </trkpt>
      <trkpt lat="44.33442" lon="3.4772">
        <ele>508.3</ele>
        <time>2020-08-25T07:36:44.000Z</time>
      </trkpt>
      <trkpt lat="44.33444" lon="3.47716">
        <ele>508.4</ele>
        <time>2020-08-25T07:36:45.000Z</time>
      </trkpt>
      <trkpt lat="44.33446" lon="3.47712">
        <ele>508.6</ele>
        <time>2020-08-25T07:36:46.000Z</time>
      </trkpt>
      <trkpt lat="44.33448" lon="3.47706">
        <ele>508.8</ele>
        <time>2020-08-25T07:36:48.000Z</time>
      </trkpt>
      <trkpt lat="44.3345" lon="3.47703">
        <ele>509</ele>
        <time>2020-08-25T07:36:49.000Z</time>
      </trkpt>
      <trkpt lat="44.33454" lon="3.47697">
        <ele>509.2</ele>
        <time>2020-08-25T07:36:51.000Z</time>
      </trkpt>
      <trkpt lat="44.33457" lon="3.47691">
        <ele>509.5</ele>
        <time>2020-08-25T07:36:53.000Z</time>
      </trkpt>
      <trkpt lat="44.33459" lon="3.47688">
        <ele>509.6</ele>
        <time>2020-08-25T07:36:54.000Z</time>
      </trkpt>
      <trkpt lat="44.33463" lon="3.47683">
        <ele>509.9</ele>
        <time>2020-08-25T07:36:56.000Z</time>
      </trkpt>
      <trkpt lat="44.33465" lon="3.4768">
        <ele>510</ele>
        <time>2020-08-25T07:36:57.000Z</time>
      </trkpt>
      <trkpt lat="44.33468" lon="3.47675">
        <ele>510.2</ele>
        <time>2020-08-25T07:36:59.000Z</time>
      </trkpt>
      <trkpt lat="44.33472" lon="3.47669">
        <ele>510.5</ele>
        <time>2020-08-25T07:37:01.000Z</time>
      </trkpt>
      <trkpt lat="44.33473" lon="3.47666">
        <ele>510.6</ele>
        <time>2020-08-25T07:37:02.000Z</time>
      </trkpt>
      <trkpt lat="44.33476" lon="3.4766">
        <ele>510.8</ele>
        <time>2020-08-25T07:37:04.000Z</time>
      </trkpt>
      <trkpt lat="44.33478" lon="3.47656">
        <ele>511</ele>
        <time>2020-08-25T07:37:06.000Z</time>
      </trkpt>
      <trkpt lat="44.33479" lon="3.47653">
        <ele>511.1</ele>
        <time>2020-08-25T07:37:07.000Z</time>
      </trkpt>
      <trkpt lat="44.33482" lon="3.47647">
        <ele>511.3</ele>
        <time>2020-08-25T07:37:09.000Z</time>
      </trkpt>
      <trkpt lat="44.33486" lon="3.47641">
        <ele>511.6</ele>
        <time>2020-08-25T07:37:11.000Z</time>
      </trkpt>
      <trkpt lat="44.33487" lon="3.47638">
        <ele>511.7</ele>
        <time>2020-08-25T07:37:12.000Z</time>
      </trkpt>
      <trkpt lat="44.33489" lon="3.47635">
        <ele>511.8</ele>
        <time>2020-08-25T07:37:13.000Z</time>
      </trkpt>
      <trkpt lat="44.33491" lon="3.47629">
        <ele>512</ele>
        <time>2020-08-25T07:37:15.000Z</time>
      </trkpt>
      <trkpt lat="44.33493" lon="3.47624">
        <ele>512.1</ele>
        <time>2020-08-25T07:37:16.000Z</time>
      </trkpt>
      <trkpt lat="44.33495" lon="3.47621">
        <ele>512.2</ele>
        <time>2020-08-25T07:37:17.000Z</time>
      </trkpt>
      <trkpt lat="44.33498" lon="3.47615">
        <ele>512.5</ele>
        <time>2020-08-25T07:37:19.000Z</time>
      </trkpt>
      <trkpt lat="44.335" lon="3.47608">
        <ele>512.7</ele>
        <time>2020-08-25T07:37:21.000Z</time>
      </trkpt>
      <trkpt lat="44.33503" lon="3.47602">
        <ele>513</ele>
        <time>2020-08-25T07:37:23.000Z</time>
      </trkpt>
      <trkpt lat="44.33505" lon="3.47596">
        <ele>513.2</ele>
        <time>2020-08-25T07:37:25.000Z</time>
      </trkpt>
      <trkpt lat="44.33507" lon="3.47589">
        <ele>513.4</ele>
        <time>2020-08-25T07:37:27.000Z</time>
      </trkpt>
      <trkpt lat="44.3351" lon="3.47584">
        <ele>513.6</ele>
        <time>2020-08-25T07:37:29.000Z</time>
      </trkpt>
      <trkpt lat="44.33512" lon="3.47577">
        <ele>513.8</ele>
        <time>2020-08-25T07:37:31.000Z</time>
      </trkpt>
      <trkpt lat="44.33514" lon="3.47573">
        <ele>514</ele>
        <time>2020-08-25T07:37:32.000Z</time>
      </trkpt>
      <trkpt lat="44.33515" lon="3.47571">
        <ele>514.1</ele>
        <time>2020-08-25T07:37:33.000Z</time>
      </trkpt>
      <trkpt lat="44.33518" lon="3.47565">
        <ele>514.3</ele>
        <time>2020-08-25T07:37:35.000Z</time>
      </trkpt>
      <trkpt lat="44.33519" lon="3.47561">
        <ele>514.5</ele>
        <time>2020-08-25T07:37:36.000Z</time>
      </trkpt>
      <trkpt lat="44.33523" lon="3.47552">
        <ele>514.8</ele>
        <time>2020-08-25T07:37:38.000Z</time>
      </trkpt>
      <trkpt lat="44.33524" lon="3.47548">
        <ele>515</ele>
        <time>2020-08-25T07:37:39.000Z</time>
      </trkpt>
      <trkpt lat="44.33526" lon="3.47541">
        <ele>515.3</ele>
        <time>2020-08-25T07:37:41.000Z</time>
      </trkpt>
      <trkpt lat="44.33526" lon="3.47538">
        <ele>515.4</ele>
        <time>2020-08-25T07:37:42.000Z</time>
      </trkpt>
      <trkpt lat="44.33527" lon="3.47532">
        <ele>515.7</ele>
        <time>2020-08-25T07:37:44.000Z</time>
      </trkpt>
      <trkpt lat="44.33526" lon="3.47527">
        <ele>515.9</ele>
        <time>2020-08-25T07:37:46.000Z</time>
      </trkpt>
      <trkpt lat="44.33526" lon="3.47525">
        <ele>516</ele>
        <time>2020-08-25T07:37:47.000Z</time>
      </trkpt>
      <trkpt lat="44.33525" lon="3.47523">
        <ele>516.1</ele>
        <time>2020-08-25T07:37:48.000Z</time>
      </trkpt>
      <trkpt lat="44.33524" lon="3.4752">
        <ele>516.3</ele>
        <time>2020-08-25T07:37:49.000Z</time>
      </trkpt>
      <trkpt lat="44.33522" lon="3.47515">
        <ele>516.5</ele>
        <time>2020-08-25T07:37:51.000Z</time>
      </trkpt>
      <trkpt lat="44.33521" lon="3.47514">
        <ele>516.6</ele>
        <time>2020-08-25T07:37:52.000Z</time>
      </trkpt>
      <trkpt lat="44.33518" lon="3.4751">
        <ele>516.8</ele>
        <time>2020-08-25T07:37:54.000Z</time>
      </trkpt>
      <trkpt lat="44.33516" lon="3.47504">
        <ele>517.1</ele>
        <time>2020-08-25T07:37:56.000Z</time>
      </trkpt>
      <trkpt lat="44.33514" lon="3.47501">
        <ele>517.3</ele>
        <time>2020-08-25T07:37:57.000Z</time>
      </trkpt>
      <trkpt lat="44.33511" lon="3.47496">
        <ele>517.6</ele>
        <time>2020-08-25T07:37:59.000Z</time>
      </trkpt>
      <trkpt lat="44.33509" lon="3.47493">
        <ele>517.7</ele>
        <time>2020-08-25T07:38:00.000Z</time>
      </trkpt>
      <trkpt lat="44.33506" lon="3.47489">
        <ele>518</ele>
        <time>2020-08-25T07:38:02.000Z</time>
      </trkpt>
      <trkpt lat="44.33504" lon="3.47483">
        <ele>518.2</ele>
        <time>2020-08-25T07:38:04.000Z</time>
      </trkpt>
      <trkpt lat="44.33503" lon="3.47482">
        <ele>518.3</ele>
        <time>2020-08-25T07:38:05.000Z</time>
      </trkpt>
      <trkpt lat="44.33502" lon="3.47481">
        <ele>518.4</ele>
        <time>2020-08-25T07:38:06.000Z</time>
      </trkpt>
      <trkpt lat="44.33499" lon="3.47475">
        <ele>518.7</ele>
        <time>2020-08-25T07:38:08.000Z</time>
      </trkpt>
      <trkpt lat="44.33496" lon="3.4747">
        <ele>519</ele>
        <time>2020-08-25T07:38:10.000Z</time>
      </trkpt>
      <trkpt lat="44.33494" lon="3.47466">
        <ele>519.2</ele>
        <time>2020-08-25T07:38:11.000Z</time>
      </trkpt>
      <trkpt lat="44.33494" lon="3.47465">
        <ele>519.3</ele>
        <time>2020-08-25T07:38:12.000Z</time>
      </trkpt>
      <trkpt lat="44.33493" lon="3.47464">
        <ele>519.4</ele>
        <time>2020-08-25T07:38:13.000Z</time>
      </trkpt>
      <trkpt lat="44.33492" lon="3.47462">
        <ele>519.5</ele>
        <time>2020-08-25T07:38:14.000Z</time>
      </trkpt>
      <trkpt lat="44.33489" lon="3.47456">
        <ele>519.8</ele>
        <time>2020-08-25T07:38:16.000Z</time>
      </trkpt>
      <trkpt lat="44.33486" lon="3.47451">
        <ele>520.1</ele>
        <time>2020-08-25T07:38:18.000Z</time>
      </trkpt>
      <trkpt lat="44.33484" lon="3.47449">
        <ele>520.2</ele>
        <time>2020-08-25T07:38:19.000Z</time>
      </trkpt>
      <trkpt lat="44.33481" lon="3.47444">
        <ele>520.4</ele>
        <time>2020-08-25T07:38:21.000Z</time>
      </trkpt>
      <trkpt lat="44.33478" lon="3.47441">
        <ele>520.6</ele>
        <time>2020-08-25T07:38:23.000Z</time>
      </trkpt>
      <trkpt lat="44.33476" lon="3.47435">
        <ele>520.8</ele>
        <time>2020-08-25T07:38:25.000Z</time>
      </trkpt>
      <trkpt lat="44.33475" lon="3.47428">
        <ele>520.9</ele>
        <time>2020-08-25T07:38:27.000Z</time>
      </trkpt>
      <trkpt lat="44.33476" lon="3.47421">
        <ele>521.1</ele>
        <time>2020-08-25T07:38:29.000Z</time>
      </trkpt>
      <trkpt lat="44.33478" lon="3.47418">
        <ele>521.2</ele>
        <time>2020-08-25T07:38:30.000Z</time>
      </trkpt>
      <trkpt lat="44.33481" lon="3.47414">
        <ele>521.3</ele>
        <time>2020-08-25T07:38:32.000Z</time>
      </trkpt>
      <trkpt lat="44.33484" lon="3.47412">
        <ele>521.4</ele>
        <time>2020-08-25T07:38:33.000Z</time>
      </trkpt>
      <trkpt lat="44.33487" lon="3.47412">
        <ele>521.5</ele>
        <time>2020-08-25T07:38:34.000Z</time>
      </trkpt>
      <trkpt lat="44.33488" lon="3.47412">
        <ele>521.6</ele>
        <time>2020-08-25T07:38:35.000Z</time>
      </trkpt>
      <trkpt lat="44.33492" lon="3.47412">
        <ele>521.7</ele>
        <time>2020-08-25T07:38:37.000Z</time>
      </trkpt>
      <trkpt lat="44.33495" lon="3.47413">
        <ele>521.8</ele>
        <time>2020-08-25T07:38:38.000Z</time>
      </trkpt>
      <trkpt lat="44.335" lon="3.47413">
        <ele>522</ele>
        <time>2020-08-25T07:38:40.000Z</time>
      </trkpt>
      <trkpt lat="44.33507" lon="3.47414">
        <ele>522.3</ele>
        <time>2020-08-25T07:38:42.000Z</time>
      </trkpt>
      <trkpt lat="44.33511" lon="3.47414">
        <ele>522.5</ele>
        <time>2020-08-25T07:38:44.000Z</time>
      </trkpt>
      <trkpt lat="44.33516" lon="3.47415">
        <ele>522.7</ele>
        <time>2020-08-25T07:38:45.000Z</time>
      </trkpt>
      <trkpt lat="44.33518" lon="3.47415">
        <ele>522.8</ele>
        <time>2020-08-25T07:38:46.000Z</time>
      </trkpt>
      <trkpt lat="44.33523" lon="3.47415">
        <ele>523</ele>
        <time>2020-08-25T07:38:48.000Z</time>
      </trkpt>
      <trkpt lat="44.33527" lon="3.47415">
        <ele>523.1</ele>
        <time>2020-08-25T07:38:49.000Z</time>
      </trkpt>
      <trkpt lat="44.33529" lon="3.47416">
        <ele>523.1</ele>
        <time>2020-08-25T07:38:50.000Z</time>
      </trkpt>
      <trkpt lat="44.33534" lon="3.47416">
        <ele>523.2</ele>
        <time>2020-08-25T07:38:52.000Z</time>
      </trkpt>
      <trkpt lat="44.33537" lon="3.47417">
        <ele>523.3</ele>
        <time>2020-08-25T07:38:53.000Z</time>
      </trkpt>
      <trkpt lat="44.33541" lon="3.47417">
        <ele>523.3</ele>
        <time>2020-08-25T07:38:55.000Z</time>
      </trkpt>
      <trkpt lat="44.33545" lon="3.47418">
        <ele>523.4</ele>
        <time>2020-08-25T07:38:56.000Z</time>
      </trkpt>
      <trkpt lat="44.33547" lon="3.47418">
        <ele>523.4</ele>
        <time>2020-08-25T07:38:57.000Z</time>
      </trkpt>
      <trkpt lat="44.33553" lon="3.47418">
        <ele>523.4</ele>
        <time>2020-08-25T07:38:59.000Z</time>
      </trkpt>
      <trkpt lat="44.33556" lon="3.47418">
        <ele>523.4</ele>
        <time>2020-08-25T07:39:01.000Z</time>
      </trkpt>
      <trkpt lat="44.33559" lon="3.47417">
        <ele>523.4</ele>
        <time>2020-08-25T07:39:02.000Z</time>
      </trkpt>
      <trkpt lat="44.33564" lon="3.47416">
        <ele>523.4</ele>
        <time>2020-08-25T07:39:03.000Z</time>
      </trkpt>
      <trkpt lat="44.33569" lon="3.47415">
        <ele>523.4</ele>
        <time>2020-08-25T07:39:05.000Z</time>
      </trkpt>
      <trkpt lat="44.33571" lon="3.47413">
        <ele>523.4</ele>
        <time>2020-08-25T07:39:06.000Z</time>
      </trkpt>
      <trkpt lat="44.33574" lon="3.4741">
        <ele>523.3</ele>
        <time>2020-08-25T07:39:08.000Z</time>
      </trkpt>
      <trkpt lat="44.33576" lon="3.47407">
        <ele>523.3</ele>
        <time>2020-08-25T07:39:09.000Z</time>
      </trkpt>
      <trkpt lat="44.33578" lon="3.47403">
        <ele>523.2</ele>
        <time>2020-08-25T07:39:10.000Z</time>
      </trkpt>
      <trkpt lat="44.3358" lon="3.47397">
        <ele>523.1</ele>
        <time>2020-08-25T07:39:12.000Z</time>
      </trkpt>
      <trkpt lat="44.33582" lon="3.47391">
        <ele>523</ele>
        <time>2020-08-25T07:39:13.000Z</time>
      </trkpt>
      <trkpt lat="44.33585" lon="3.47385">
        <ele>522.8</ele>
        <time>2020-08-25T07:39:14.000Z</time>
      </trkpt>
      <trkpt lat="44.33586" lon="3.4738">
        <ele>522.7</ele>
        <time>2020-08-25T07:39:15.000Z</time>
      </trkpt>
      <trkpt lat="44.33588" lon="3.47375">
        <ele>522.6</ele>
        <time>2020-08-25T07:39:16.000Z</time>
      </trkpt>
      <trkpt lat="44.3359" lon="3.47366">
        <ele>522.5</ele>
        <time>2020-08-25T07:39:17.000Z</time>
      </trkpt>
      <trkpt lat="44.33592" lon="3.47359">
        <ele>522.3</ele>
        <time>2020-08-25T07:39:18.000Z</time>
      </trkpt>
      <trkpt lat="44.33594" lon="3.47353">
        <ele>522.2</ele>
        <time>2020-08-25T07:39:19.000Z</time>
      </trkpt>
      <trkpt lat="44.33597" lon="3.47339">
        <ele>521.9</ele>
        <time>2020-08-25T07:39:21.000Z</time>
      </trkpt>
      <trkpt lat="44.33599" lon="3.47333">
        <ele>521.7</ele>
        <time>2020-08-25T07:39:22.000Z</time>
      </trkpt>
      <trkpt lat="44.33601" lon="3.47326">
        <ele>521.6</ele>
        <time>2020-08-25T07:39:23.000Z</time>
      </trkpt>
      <trkpt lat="44.33603" lon="3.47319">
        <ele>521.4</ele>
        <time>2020-08-25T07:39:24.000Z</time>
      </trkpt>
      <trkpt lat="44.33607" lon="3.47306">
        <ele>521.2</ele>
        <time>2020-08-25T07:39:26.000Z</time>
      </trkpt>
      <trkpt lat="44.33611" lon="3.47293">
        <ele>520.9</ele>
        <time>2020-08-25T07:39:28.000Z</time>
      </trkpt>
      <trkpt lat="44.33613" lon="3.47286">
        <ele>520.7</ele>
        <time>2020-08-25T07:39:29.000Z</time>
      </trkpt>
      <trkpt lat="44.33617" lon="3.47274">
        <ele>520.5</ele>
        <time>2020-08-25T07:39:31.000Z</time>
      </trkpt>
      <trkpt lat="44.33619" lon="3.47267">
        <ele>520.4</ele>
        <time>2020-08-25T07:39:32.000Z</time>
      </trkpt>
      <trkpt lat="44.33621" lon="3.47261">
        <ele>520.3</ele>
        <time>2020-08-25T07:39:33.000Z</time>
      </trkpt>
      <trkpt lat="44.33625" lon="3.47248">
        <ele>520.1</ele>
        <time>2020-08-25T07:39:35.000Z</time>
      </trkpt>
      <trkpt lat="44.33627" lon="3.47241">
        <ele>520</ele>
        <time>2020-08-25T07:39:36.000Z</time>
      </trkpt>
      <trkpt lat="44.33631" lon="3.47227">
        <ele>519.8</ele>
        <time>2020-08-25T07:39:38.000Z</time>
      </trkpt>
      <trkpt lat="44.33635" lon="3.47213">
        <ele>519.5</ele>
        <time>2020-08-25T07:39:40.000Z</time>
      </trkpt>
      <trkpt lat="44.33636" lon="3.47205">
        <ele>519.4</ele>
        <time>2020-08-25T07:39:41.000Z</time>
      </trkpt>
      <trkpt lat="44.33639" lon="3.4719">
        <ele>519</ele>
        <time>2020-08-25T07:39:43.000Z</time>
      </trkpt>
      <trkpt lat="44.3364" lon="3.47182">
        <ele>518.8</ele>
        <time>2020-08-25T07:39:44.000Z</time>
      </trkpt>
      <trkpt lat="44.3364" lon="3.47174">
        <ele>518.6</ele>
        <time>2020-08-25T07:39:45.000Z</time>
      </trkpt>
      <trkpt lat="44.33642" lon="3.47159">
        <ele>518.3</ele>
        <time>2020-08-25T07:39:47.000Z</time>
      </trkpt>
      <trkpt lat="44.33643" lon="3.47152">
        <ele>518.2</ele>
        <time>2020-08-25T07:39:48.000Z</time>
      </trkpt>
      <trkpt lat="44.33645" lon="3.47136">
        <ele>517.9</ele>
        <time>2020-08-25T07:39:50.000Z</time>
      </trkpt>
      <trkpt lat="44.33647" lon="3.47121">
        <ele>517.6</ele>
        <time>2020-08-25T07:39:52.000Z</time>
      </trkpt>
      <trkpt lat="44.33648" lon="3.47106">
        <ele>517.3</ele>
        <time>2020-08-25T07:39:54.000Z</time>
      </trkpt>
      <trkpt lat="44.33649" lon="3.47099">
        <ele>517.1</ele>
        <time>2020-08-25T07:39:55.000Z</time>
      </trkpt>
      <trkpt lat="44.33651" lon="3.47083">
        <ele>516.7</ele>
        <time>2020-08-25T07:39:57.000Z</time>
      </trkpt>
      <trkpt lat="44.33653" lon="3.47067">
        <ele>516.3</ele>
        <time>2020-08-25T07:39:59.000Z</time>
      </trkpt>
      <trkpt lat="44.33655" lon="3.47052">
        <ele>516</ele>
        <time>2020-08-25T07:40:01.000Z</time>
      </trkpt>
      <trkpt lat="44.33659" lon="3.47036">
        <ele>515.8</ele>
        <time>2020-08-25T07:40:03.000Z</time>
      </trkpt>
      <trkpt lat="44.33665" lon="3.4702">
        <ele>515.5</ele>
        <time>2020-08-25T07:40:05.000Z</time>
      </trkpt>
      <trkpt lat="44.33667" lon="3.47012">
        <ele>515.4</ele>
        <time>2020-08-25T07:40:06.000Z</time>
      </trkpt>
      <trkpt lat="44.33672" lon="3.46998">
        <ele>515.2</ele>
        <time>2020-08-25T07:40:08.000Z</time>
      </trkpt>
      <trkpt lat="44.33674" lon="3.4699">
        <ele>515.1</ele>
        <time>2020-08-25T07:40:09.000Z</time>
      </trkpt>
      <trkpt lat="44.33679" lon="3.46974">
        <ele>514.8</ele>
        <time>2020-08-25T07:40:11.000Z</time>
      </trkpt>
      <trkpt lat="44.33681" lon="3.46966">
        <ele>514.5</ele>
        <time>2020-08-25T07:40:12.000Z</time>
      </trkpt>
      <trkpt lat="44.33683" lon="3.46958">
        <ele>514.3</ele>
        <time>2020-08-25T07:40:13.000Z</time>
      </trkpt>
      <trkpt lat="44.33686" lon="3.46944">
        <ele>514</ele>
        <time>2020-08-25T07:40:15.000Z</time>
      </trkpt>
      <trkpt lat="44.33691" lon="3.46931">
        <ele>513.6</ele>
        <time>2020-08-25T07:40:17.000Z</time>
      </trkpt>
      <trkpt lat="44.33696" lon="3.46918">
        <ele>513.2</ele>
        <time>2020-08-25T07:40:19.000Z</time>
      </trkpt>
      <trkpt lat="44.33703" lon="3.46905">
        <ele>512.7</ele>
        <time>2020-08-25T07:40:21.000Z</time>
      </trkpt>
      <trkpt lat="44.33707" lon="3.469">
        <ele>512.5</ele>
        <time>2020-08-25T07:40:22.000Z</time>
      </trkpt>
      <trkpt lat="44.33715" lon="3.46889">
        <ele>512</ele>
        <time>2020-08-25T07:40:24.000Z</time>
      </trkpt>
      <trkpt lat="44.33719" lon="3.46885">
        <ele>511.8</ele>
        <time>2020-08-25T07:40:25.000Z</time>
      </trkpt>
      <trkpt lat="44.33724" lon="3.46882">
        <ele>511.4</ele>
        <time>2020-08-25T07:40:26.000Z</time>
      </trkpt>
      <trkpt lat="44.33735" lon="3.46878">
        <ele>510.7</ele>
        <time>2020-08-25T07:40:28.000Z</time>
      </trkpt>
      <trkpt lat="44.33742" lon="3.46877">
        <ele>510.2</ele>
        <time>2020-08-25T07:40:29.000Z</time>
      </trkpt>
      <trkpt lat="44.33755" lon="3.46873">
        <ele>509.1</ele>
        <time>2020-08-25T07:40:31.000Z</time>
      </trkpt>
      <trkpt lat="44.33764" lon="3.4686">
        <ele>508</ele>
        <time>2020-08-25T07:40:33.000Z</time>
      </trkpt>
      <trkpt lat="44.33772" lon="3.46842">
        <ele>506.7</ele>
        <time>2020-08-25T07:40:35.000Z</time>
      </trkpt>
      <trkpt lat="44.33783" lon="3.46828">
        <ele>505.5</ele>
        <time>2020-08-25T07:40:37.000Z</time>
      </trkpt>
      <trkpt lat="44.33789" lon="3.46821">
        <ele>504.9</ele>
        <time>2020-08-25T07:40:38.000Z</time>
      </trkpt>
      <trkpt lat="44.33801" lon="3.46805">
        <ele>503.7</ele>
        <time>2020-08-25T07:40:40.000Z</time>
      </trkpt>
      <trkpt lat="44.33812" lon="3.46789">
        <ele>502.5</ele>
        <time>2020-08-25T07:40:42.000Z</time>
      </trkpt>
      <trkpt lat="44.33827" lon="3.4678">
        <ele>501.9</ele>
        <time>2020-08-25T07:40:44.000Z</time>
      </trkpt>
      <trkpt lat="44.33843" lon="3.46773">
        <ele>502</ele>
        <time>2020-08-25T07:40:46.000Z</time>
      </trkpt>
      <trkpt lat="44.33859" lon="3.46763">
        <ele>501.6</ele>
        <time>2020-08-25T07:40:48.000Z</time>
      </trkpt>
      <trkpt lat="44.33866" lon="3.46753">
        <ele>501.4</ele>
        <time>2020-08-25T07:40:49.000Z</time>
      </trkpt>
      <trkpt lat="44.33871" lon="3.46741">
        <ele>501.2</ele>
        <time>2020-08-25T07:40:50.000Z</time>
      </trkpt>
      <trkpt lat="44.33874" lon="3.46712">
        <ele>500.7</ele>
        <time>2020-08-25T07:40:52.000Z</time>
      </trkpt>
      <trkpt lat="44.33872" lon="3.46698">
        <ele>500.5</ele>
        <time>2020-08-25T07:40:53.000Z</time>
      </trkpt>
      <trkpt lat="44.33867" lon="3.46674">
        <ele>500.1</ele>
        <time>2020-08-25T07:40:55.000Z</time>
      </trkpt>
      <trkpt lat="44.33867" lon="3.46662">
        <ele>499.8</ele>
        <time>2020-08-25T07:40:56.000Z</time>
      </trkpt>
      <trkpt lat="44.33873" lon="3.46638">
        <ele>499.1</ele>
        <time>2020-08-25T07:40:58.000Z</time>
      </trkpt>
      <trkpt lat="44.33884" lon="3.46617">
        <ele>498.3</ele>
        <time>2020-08-25T07:41:00.000Z</time>
      </trkpt>
      <trkpt lat="44.33891" lon="3.46607">
        <ele>497.9</ele>
        <time>2020-08-25T07:41:01.000Z</time>
      </trkpt>
      <trkpt lat="44.33905" lon="3.46593">
        <ele>497.1</ele>
        <time>2020-08-25T07:41:03.000Z</time>
      </trkpt>
      <trkpt lat="44.3392" lon="3.46585">
        <ele>496.4</ele>
        <time>2020-08-25T07:41:05.000Z</time>
      </trkpt>
      <trkpt lat="44.33933" lon="3.46572">
        <ele>495.8</ele>
        <time>2020-08-25T07:41:07.000Z</time>
      </trkpt>
      <trkpt lat="44.33938" lon="3.46561">
        <ele>495.4</ele>
        <time>2020-08-25T07:41:08.000Z</time>
      </trkpt>
      <trkpt lat="44.33943" lon="3.46548">
        <ele>494.9</ele>
        <time>2020-08-25T07:41:09.000Z</time>
      </trkpt>
      <trkpt lat="44.3395" lon="3.46523">
        <ele>493.9</ele>
        <time>2020-08-25T07:41:11.000Z</time>
      </trkpt>
      <trkpt lat="44.33956" lon="3.46504">
        <ele>493.1</ele>
        <time>2020-08-25T07:41:13.000Z</time>
      </trkpt>
      <trkpt lat="44.33959" lon="3.46496">
        <ele>492.8</ele>
        <time>2020-08-25T07:41:14.000Z</time>
      </trkpt>
      <trkpt lat="44.33962" lon="3.46482">
        <ele>492.2</ele>
        <time>2020-08-25T07:41:16.000Z</time>
      </trkpt>
      <trkpt lat="44.33969" lon="3.46469">
        <ele>491.8</ele>
        <time>2020-08-25T07:41:18.000Z</time>
      </trkpt>
      <trkpt lat="44.33979" lon="3.46461">
        <ele>491.8</ele>
        <time>2020-08-25T07:41:20.000Z</time>
      </trkpt>
      <trkpt lat="44.33984" lon="3.46457">
        <ele>492</ele>
        <time>2020-08-25T07:41:21.000Z</time>
      </trkpt>
      <trkpt lat="44.3399" lon="3.46452">
        <ele>492.4</ele>
        <time>2020-08-25T07:41:23.000Z</time>
      </trkpt>
      <trkpt lat="44.33992" lon="3.4645">
        <ele>492.5</ele>
        <time>2020-08-25T07:41:24.000Z</time>
      </trkpt>
      <trkpt lat="44.33996" lon="3.46449">
        <ele>492.7</ele>
        <time>2020-08-25T07:41:26.000Z</time>
      </trkpt>
      <trkpt lat="44.33998" lon="3.46448">
        <ele>492.8</ele>
        <time>2020-08-25T07:41:27.000Z</time>
      </trkpt>
      <trkpt lat="44.34001" lon="3.46449">
        <ele>492.9</ele>
        <time>2020-08-25T07:41:29.000Z</time>
      </trkpt>
      <trkpt lat="44.34002" lon="3.46449">
        <ele>492.9</ele>
        <time>2020-08-25T07:41:30.000Z</time>
      </trkpt>
      <trkpt lat="44.34005" lon="3.46449">
        <ele>493</ele>
        <time>2020-08-25T07:41:31.000Z</time>
      </trkpt>
      <trkpt lat="44.34006" lon="3.46448">
        <ele>493</ele>
        <time>2020-08-25T07:41:32.000Z</time>
      </trkpt>
      <trkpt lat="44.34009" lon="3.46448">
        <ele>493.1</ele>
        <time>2020-08-25T07:41:34.000Z</time>
      </trkpt>
      <trkpt lat="44.34012" lon="3.46448">
        <ele>493.1</ele>
        <time>2020-08-25T07:41:35.000Z</time>
      </trkpt>
      <trkpt lat="44.34012" lon="3.46447">
        <ele>493.1</ele>
        <time>2020-08-25T07:41:36.000Z</time>
      </trkpt>
      <trkpt lat="44.34013" lon="3.46447">
        <ele>493.1</ele>
        <time>2020-08-25T07:41:38.000Z</time>
      </trkpt>
      <trkpt lat="44.34014" lon="3.46448">
        <ele>493.1</ele>
        <time>2020-08-25T07:41:39.000Z</time>
      </trkpt>
      <trkpt lat="44.34016" lon="3.46449">
        <ele>493.1</ele>
        <time>2020-08-25T07:41:40.000Z</time>
      </trkpt>
      <trkpt lat="44.3402" lon="3.46449">
        <ele>493.1</ele>
        <time>2020-08-25T07:41:41.000Z</time>
      </trkpt>
      <trkpt lat="44.34021" lon="3.4645">
        <ele>493.1</ele>
        <time>2020-08-25T07:41:42.000Z</time>
      </trkpt>
      <trkpt lat="44.34023" lon="3.4645">
        <ele>493</ele>
        <time>2020-08-25T07:41:43.000Z</time>
      </trkpt>
      <trkpt lat="44.34026" lon="3.46451">
        <ele>493</ele>
        <time>2020-08-25T07:41:45.000Z</time>
      </trkpt>
      <trkpt lat="44.34029" lon="3.46449">
        <ele>492.9</ele>
        <time>2020-08-25T07:41:46.000Z</time>
      </trkpt>
      <trkpt lat="44.34032" lon="3.46448">
        <ele>492.8</ele>
        <time>2020-08-25T07:41:48.000Z</time>
      </trkpt>
      <trkpt lat="44.34035" lon="3.46448">
        <ele>492.7</ele>
        <time>2020-08-25T07:41:49.000Z</time>
      </trkpt>
      <trkpt lat="44.34039" lon="3.46446">
        <ele>492.6</ele>
        <time>2020-08-25T07:41:51.000Z</time>
      </trkpt>
      <trkpt lat="44.34042" lon="3.46445">
        <ele>492.5</ele>
        <time>2020-08-25T07:41:52.000Z</time>
      </trkpt>
      <trkpt lat="44.34047" lon="3.46442">
        <ele>492.3</ele>
        <time>2020-08-25T07:41:53.000Z</time>
      </trkpt>
      <trkpt lat="44.34049" lon="3.46441">
        <ele>492.3</ele>
        <time>2020-08-25T07:41:54.000Z</time>
      </trkpt>
      <trkpt lat="44.34052" lon="3.46439">
        <ele>492.2</ele>
        <time>2020-08-25T07:41:55.000Z</time>
      </trkpt>
      <trkpt lat="44.34053" lon="3.46438">
        <ele>492.2</ele>
        <time>2020-08-25T07:41:56.000Z</time>
      </trkpt>
      <trkpt lat="44.34057" lon="3.46435">
        <ele>492.1</ele>
        <time>2020-08-25T07:41:58.000Z</time>
      </trkpt>
      <trkpt lat="44.3406" lon="3.46431">
        <ele>492.1</ele>
        <time>2020-08-25T07:41:59.000Z</time>
      </trkpt>
      <trkpt lat="44.34065" lon="3.46421">
        <ele>492.1</ele>
        <time>2020-08-25T07:42:01.000Z</time>
      </trkpt>
      <trkpt lat="44.34067" lon="3.46417">
        <ele>492.2</ele>
        <time>2020-08-25T07:42:02.000Z</time>
      </trkpt>
      <trkpt lat="44.3407" lon="3.46413">
        <ele>492.2</ele>
        <time>2020-08-25T07:42:04.000Z</time>
      </trkpt>
      <trkpt lat="44.34073" lon="3.4641">
        <ele>492.3</ele>
        <time>2020-08-25T07:42:05.000Z</time>
      </trkpt>
      <trkpt lat="44.34079" lon="3.46406">
        <ele>492.5</ele>
        <time>2020-08-25T07:42:07.000Z</time>
      </trkpt>
      <trkpt lat="44.34082" lon="3.46404">
        <ele>492.7</ele>
        <time>2020-08-25T07:42:08.000Z</time>
      </trkpt>
      <trkpt lat="44.34084" lon="3.464">
        <ele>492.8</ele>
        <time>2020-08-25T07:42:10.000Z</time>
      </trkpt>
      <trkpt lat="44.34084" lon="3.46399">
        <ele>492.8</ele>
        <time>2020-08-25T07:42:12.000Z</time>
      </trkpt>
      <trkpt lat="44.34084" lon="3.46398">
        <ele>492.9</ele>
        <time>2020-08-25T07:42:13.000Z</time>
      </trkpt>
      <trkpt lat="44.34084" lon="3.46398">
        <ele>492.9</ele>
        <time>2020-08-25T07:42:14.000Z</time>
      </trkpt>
      <trkpt lat="44.34083" lon="3.46398">
        <ele>492.9</ele>
        <time>2020-08-25T07:42:16.000Z</time>
      </trkpt>
      <trkpt lat="44.34083" lon="3.46396">
        <ele>492.9</ele>
        <time>2020-08-25T07:42:18.000Z</time>
      </trkpt>
      <trkpt lat="44.34081" lon="3.46396">
        <ele>493</ele>
        <time>2020-08-25T07:42:19.000Z</time>
      </trkpt>
      <trkpt lat="44.34078" lon="3.46395">
        <ele>493.1</ele>
        <time>2020-08-25T07:42:22.000Z</time>
      </trkpt>
      <trkpt lat="44.34079" lon="3.46395">
        <ele>493.2</ele>
        <time>2020-08-25T07:42:23.000Z</time>
      </trkpt>
      <trkpt lat="44.34079" lon="3.46395">
        <ele>493.2</ele>
        <time>2020-08-25T07:42:24.000Z</time>
      </trkpt>
      <trkpt lat="44.34079" lon="3.46395">
        <ele>493.2</ele>
        <time>2020-08-25T07:42:26.000Z</time>
      </trkpt>
      <trkpt lat="44.34079" lon="3.46395">
        <ele>493.2</ele>
        <time>2020-08-25T07:42:27.000Z</time>
      </trkpt>
      <trkpt lat="44.34079" lon="3.46395">
        <ele>493.2</ele>
        <time>2020-08-25T07:42:28.000Z</time>
      </trkpt>
      <trkpt lat="44.34079" lon="3.46394">
        <ele>493.2</ele>
        <time>2020-08-25T07:42:30.000Z</time>
      </trkpt>
      <trkpt lat="44.34078" lon="3.46382">
        <ele>493.7</ele>
        <time>2020-08-25T07:42:47.000Z</time>
      </trkpt>
      <trkpt lat="44.34078" lon="3.46382">
        <ele>493.7</ele>
        <time>2020-08-25T07:42:49.000Z</time>
      </trkpt>
      <trkpt lat="44.34078" lon="3.46384">
        <ele>493.8</ele>
        <time>2020-08-25T07:42:50.000Z</time>
      </trkpt>
      <trkpt lat="44.34078" lon="3.46384">
        <ele>493.8</ele>
        <time>2020-08-25T07:42:51.000Z</time>
      </trkpt>
      <trkpt lat="44.34079" lon="3.46384">
        <ele>493.8</ele>
        <time>2020-08-25T07:42:53.000Z</time>
      </trkpt>
      <trkpt lat="44.34079" lon="3.46384">
        <ele>493.8</ele>
        <time>2020-08-25T07:42:55.000Z</time>
      </trkpt>
      <trkpt lat="44.34079" lon="3.46384">
        <ele>493.8</ele>
        <time>2020-08-25T07:42:56.000Z</time>
      </trkpt>
      <trkpt lat="44.34079" lon="3.46385">
        <ele>493.8</ele>
        <time>2020-08-25T07:42:58.000Z</time>
      </trkpt>
      <trkpt lat="44.3408" lon="3.46386">
        <ele>493.9</ele>
        <time>2020-08-25T07:42:59.000Z</time>
      </trkpt>
      <trkpt lat="44.34079" lon="3.46385">
        <ele>493.9</ele>
        <time>2020-08-25T07:43:01.000Z</time>
      </trkpt>
      <trkpt lat="44.34079" lon="3.46385">
        <ele>493.9</ele>
        <time>2020-08-25T07:43:03.000Z</time>
      </trkpt>
      <trkpt lat="44.34079" lon="3.46386">
        <ele>493.9</ele>
        <time>2020-08-25T07:43:04.000Z</time>
      </trkpt>
      <trkpt lat="44.34079" lon="3.46386">
        <ele>493.9</ele>
        <time>2020-08-25T07:43:05.000Z</time>
      </trkpt>
      <trkpt lat="44.3408" lon="3.46387">
        <ele>494</ele>
        <time>2020-08-25T07:43:06.000Z</time>
      </trkpt>
      <trkpt lat="44.3408" lon="3.46387">
        <ele>494</ele>
        <time>2020-08-25T07:43:08.000Z</time>
      </trkpt>
      <trkpt lat="44.34081" lon="3.46388">
        <ele>494</ele>
        <time>2020-08-25T07:43:09.000Z</time>
      </trkpt>
      <trkpt lat="44.34081" lon="3.46388">
        <ele>494</ele>
        <time>2020-08-25T07:43:10.000Z</time>
      </trkpt>
      <trkpt lat="44.34082" lon="3.46388">
        <ele>494.1</ele>
        <time>2020-08-25T07:43:12.000Z</time>
      </trkpt>
      <trkpt lat="44.34081" lon="3.46387">
        <ele>494.1</ele>
        <time>2020-08-25T07:43:13.000Z</time>
      </trkpt>
      <trkpt lat="44.34081" lon="3.46387">
        <ele>494.2</ele>
        <time>2020-08-25T07:43:14.000Z</time>
      </trkpt>
      <trkpt lat="44.34081" lon="3.46387">
        <ele>494.2</ele>
        <time>2020-08-25T07:43:15.000Z</time>
      </trkpt>
      <trkpt lat="44.34081" lon="3.46387">
        <ele>494.2</ele>
        <time>2020-08-25T07:43:17.000Z</time>
      </trkpt>
      <trkpt lat="44.34081" lon="3.46387">
        <ele>494.2</ele>
        <time>2020-08-25T07:43:19.000Z</time>
      </trkpt>
      <trkpt lat="44.34081" lon="3.46387">
        <ele>494.2</ele>
        <time>2020-08-25T07:43:20.000Z</time>
      </trkpt>
      <trkpt lat="44.34081" lon="3.46387">
        <ele>494.2</ele>
        <time>2020-08-25T07:43:21.000Z</time>
      </trkpt>
      <trkpt lat="44.34081" lon="3.46387">
        <ele>494.2</ele>
        <time>2020-08-25T07:43:23.000Z</time>
      </trkpt>
      <trkpt lat="44.34079" lon="3.46383">
        <ele>494.4</ele>
        <time>2020-08-25T07:43:28.000Z</time>
      </trkpt>
      <trkpt lat="44.34078" lon="3.46382">
        <ele>494.4</ele>
        <time>2020-08-25T07:43:29.000Z</time>
      </trkpt>
      <trkpt lat="44.34078" lon="3.4638">
        <ele>494.5</ele>
        <time>2020-08-25T07:43:31.000Z</time>
      </trkpt>
      <trkpt lat="44.34077" lon="3.46379">
        <ele>494.6</ele>
        <time>2020-08-25T07:43:32.000Z</time>
      </trkpt>
      <trkpt lat="44.34077" lon="3.46378">
        <ele>494.6</ele>
        <time>2020-08-25T07:43:34.000Z</time>
      </trkpt>
      <trkpt lat="44.34076" lon="3.46377">
        <ele>494.7</ele>
        <time>2020-08-25T07:43:36.000Z</time>
      </trkpt>
      <trkpt lat="44.34076" lon="3.46376">
        <ele>494.7</ele>
        <time>2020-08-25T07:43:37.000Z</time>
      </trkpt>
      <trkpt lat="44.34076" lon="3.46376">
        <ele>494.7</ele>
        <time>2020-08-25T07:43:39.000Z</time>
      </trkpt>
      <trkpt lat="44.34076" lon="3.46377">
        <ele>494.7</ele>
        <time>2020-08-25T07:43:40.000Z</time>
      </trkpt>
      <trkpt lat="44.34076" lon="3.46377">
        <ele>494.8</ele>
        <time>2020-08-25T07:43:41.000Z</time>
      </trkpt>
      <trkpt lat="44.34076" lon="3.46378">
        <ele>494.8</ele>
        <time>2020-08-25T07:43:42.000Z</time>
      </trkpt>
      <trkpt lat="44.34077" lon="3.46378">
        <ele>494.8</ele>
        <time>2020-08-25T07:43:44.000Z</time>
      </trkpt>
      <trkpt lat="44.34077" lon="3.46378">
        <ele>494.8</ele>
        <time>2020-08-25T07:43:46.000Z</time>
      </trkpt>
      <trkpt lat="44.34077" lon="3.46379">
        <ele>494.9</ele>
        <time>2020-08-25T07:44:29.000Z</time>
      </trkpt>
      <trkpt lat="44.34078" lon="3.46379">
        <ele>494.9</ele>
        <time>2020-08-25T07:44:30.000Z</time>
      </trkpt>
      <trkpt lat="44.34078" lon="3.4638">
        <ele>494.9</ele>
        <time>2020-08-25T07:44:31.000Z</time>
      </trkpt>
      <trkpt lat="44.34078" lon="3.4638">
        <ele>494.9</ele>
        <time>2020-08-25T07:44:32.000Z</time>
      </trkpt>
      <trkpt lat="44.34079" lon="3.46382">
        <ele>495</ele>
        <time>2020-08-25T07:44:33.000Z</time>
      </trkpt>
      <trkpt lat="44.3408" lon="3.46383">
        <ele>495.1</ele>
        <time>2020-08-25T07:44:34.000Z</time>
      </trkpt>
      <trkpt lat="44.34083" lon="3.46385">
        <ele>495.3</ele>
        <time>2020-08-25T07:44:36.000Z</time>
      </trkpt>
      <trkpt lat="44.34083" lon="3.46385">
        <ele>495.3</ele>
        <time>2020-08-25T07:44:37.000Z</time>
      </trkpt>
      <trkpt lat="44.34083" lon="3.46386">
        <ele>495.3</ele>
        <time>2020-08-25T07:44:38.000Z</time>
      </trkpt>
      <trkpt lat="44.34085" lon="3.46387">
        <ele>495.4</ele>
        <time>2020-08-25T07:44:39.000Z</time>
      </trkpt>
      <trkpt lat="44.34086" lon="3.46388">
        <ele>495.5</ele>
        <time>2020-08-25T07:44:40.000Z</time>
      </trkpt>
      <trkpt lat="44.34089" lon="3.46392">
        <ele>495.8</ele>
        <time>2020-08-25T07:44:42.000Z</time>
      </trkpt>
      <trkpt lat="44.3409" lon="3.46393">
        <ele>495.8</ele>
        <time>2020-08-25T07:44:43.000Z</time>
      </trkpt>
      <trkpt lat="44.34091" lon="3.46394">
        <ele>495.9</ele>
        <time>2020-08-25T07:44:44.000Z</time>
      </trkpt>
      <trkpt lat="44.34091" lon="3.46396">
        <ele>496</ele>
        <time>2020-08-25T07:44:45.000Z</time>
      </trkpt>
      <trkpt lat="44.34092" lon="3.46397">
        <ele>496.1</ele>
        <time>2020-08-25T07:44:46.000Z</time>
      </trkpt>
      <trkpt lat="44.34094" lon="3.464">
        <ele>496.2</ele>
        <time>2020-08-25T07:44:48.000Z</time>
      </trkpt>
      <trkpt lat="44.34094" lon="3.46402">
        <ele>496.3</ele>
        <time>2020-08-25T07:44:49.000Z</time>
      </trkpt>
      <trkpt lat="44.34094" lon="3.46404">
        <ele>496.3</ele>
        <time>2020-08-25T07:44:51.000Z</time>
      </trkpt>
      <trkpt lat="44.34094" lon="3.46404">
        <ele>496.3</ele>
        <time>2020-08-25T07:44:52.000Z</time>
      </trkpt>
      <trkpt lat="44.34094" lon="3.46404">
        <ele>496.3</ele>
        <time>2020-08-25T07:44:53.000Z</time>
      </trkpt>
      <trkpt lat="44.34094" lon="3.46404">
        <ele>496.3</ele>
        <time>2020-08-25T07:44:54.000Z</time>
      </trkpt>
      <trkpt lat="44.34094" lon="3.46404">
        <ele>496.3</ele>
        <time>2020-08-25T07:44:55.000Z</time>
      </trkpt>
      <trkpt lat="44.34094" lon="3.46404">
        <ele>496.3</ele>
        <time>2020-08-25T07:44:57.000Z</time>
      </trkpt>
      <trkpt lat="44.34094" lon="3.46404">
        <ele>496.3</ele>
        <time>2020-08-25T07:44:58.000Z</time>
      </trkpt>
      <trkpt lat="44.34094" lon="3.46404">
        <ele>496.3</ele>
        <time>2020-08-25T07:45:00.000Z</time>
      </trkpt>
      <trkpt lat="44.34094" lon="3.46404">
        <ele>496.3</ele>
        <time>2020-08-25T07:45:02.000Z</time>
      </trkpt>
      <trkpt lat="44.34092" lon="3.46404">
        <ele>496.5</ele>
        <time>2020-08-25T07:48:02.000Z</time>
      </trkpt>
      <trkpt lat="44.34092" lon="3.46403">
        <ele>496.5</ele>
        <time>2020-08-25T07:48:03.000Z</time>
      </trkpt>
      <trkpt lat="44.34091" lon="3.464">
        <ele>496.6</ele>
        <time>2020-08-25T07:48:05.000Z</time>
      </trkpt>
      <trkpt lat="44.3409" lon="3.464">
        <ele>496.6</ele>
        <time>2020-08-25T07:48:06.000Z</time>
      </trkpt>
      <trkpt lat="44.3409" lon="3.46399">
        <ele>496.6</ele>
        <time>2020-08-25T07:48:08.000Z</time>
      </trkpt>
      <trkpt lat="44.34089" lon="3.46399">
        <ele>496.6</ele>
        <time>2020-08-25T07:48:10.000Z</time>
      </trkpt>
      <trkpt lat="44.34088" lon="3.46398">
        <ele>496.6</ele>
        <time>2020-08-25T07:48:12.000Z</time>
      </trkpt>
      <trkpt lat="44.34087" lon="3.46397">
        <ele>496.7</ele>
        <time>2020-08-25T07:48:13.000Z</time>
      </trkpt>
      <trkpt lat="44.34087" lon="3.46397">
        <ele>496.7</ele>
        <time>2020-08-25T07:48:15.000Z</time>
      </trkpt>
      <trkpt lat="44.34088" lon="3.46396">
        <ele>496.7</ele>
        <time>2020-08-25T07:48:16.000Z</time>
      </trkpt>
      <trkpt lat="44.34087" lon="3.46396">
        <ele>496.7</ele>
        <time>2020-08-25T07:48:17.000Z</time>
      </trkpt>
      <trkpt lat="44.34087" lon="3.46396">
        <ele>496.7</ele>
        <time>2020-08-25T07:48:18.000Z</time>
      </trkpt>
      <trkpt lat="44.34086" lon="3.46394">
        <ele>496.7</ele>
        <time>2020-08-25T07:48:20.000Z</time>
      </trkpt>
      <trkpt lat="44.34085" lon="3.46394">
        <ele>496.7</ele>
        <time>2020-08-25T07:48:21.000Z</time>
      </trkpt>
      <trkpt lat="44.34085" lon="3.46393">
        <ele>496.8</ele>
        <time>2020-08-25T07:48:23.000Z</time>
      </trkpt>
      <trkpt lat="44.34085" lon="3.46391">
        <ele>496.8</ele>
        <time>2020-08-25T07:48:24.000Z</time>
      </trkpt>
      <trkpt lat="44.34085" lon="3.4639">
        <ele>496.8</ele>
        <time>2020-08-25T07:48:25.000Z</time>
      </trkpt>
      <trkpt lat="44.34084" lon="3.46388">
        <ele>496.8</ele>
        <time>2020-08-25T07:48:27.000Z</time>
      </trkpt>
      <trkpt lat="44.34084" lon="3.46387">
        <ele>496.8</ele>
        <time>2020-08-25T07:48:28.000Z</time>
      </trkpt>
      <trkpt lat="44.34083" lon="3.46387">
        <ele>496.8</ele>
        <time>2020-08-25T07:48:29.000Z</time>
      </trkpt>
      <trkpt lat="44.34083" lon="3.46387">
        <ele>496.8</ele>
        <time>2020-08-25T07:48:30.000Z</time>
      </trkpt>
      <trkpt lat="44.34083" lon="3.46385">
        <ele>496.8</ele>
        <time>2020-08-25T07:48:32.000Z</time>
      </trkpt>
      <trkpt lat="44.34082" lon="3.46383">
        <ele>496.8</ele>
        <time>2020-08-25T07:48:33.000Z</time>
      </trkpt>
      <trkpt lat="44.34082" lon="3.46383">
        <ele>496.8</ele>
        <time>2020-08-25T07:48:34.000Z</time>
      </trkpt>
      <trkpt lat="44.34081" lon="3.46382">
        <ele>497</ele>
        <time>2020-08-25T07:48:36.000Z</time>
      </trkpt>
      <trkpt lat="44.34081" lon="3.46381">
        <ele>497.3</ele>
        <time>2020-08-25T07:48:38.000Z</time>
      </trkpt>
      <trkpt lat="44.34074" lon="3.46382">
        <ele>499.9</ele>
        <time>2020-08-25T07:49:53.000Z</time>
      </trkpt>
      <trkpt lat="44.34072" lon="3.46381">
        <ele>500.4</ele>
        <time>2020-08-25T07:49:55.000Z</time>
      </trkpt>
      <trkpt lat="44.34071" lon="3.4638">
        <ele>500.9</ele>
        <time>2020-08-25T07:49:57.000Z</time>
      </trkpt>
      <trkpt lat="44.34071" lon="3.4638">
        <ele>501</ele>
        <time>2020-08-25T07:49:58.000Z</time>
      </trkpt>
      <trkpt lat="44.34071" lon="3.46379">
        <ele>501.2</ele>
        <time>2020-08-25T07:50:00.000Z</time>
      </trkpt>
      <trkpt lat="44.34071" lon="3.46379">
        <ele>501.3</ele>
        <time>2020-08-25T07:50:01.000Z</time>
      </trkpt>
      <trkpt lat="44.3407" lon="3.46379">
        <ele>501.5</ele>
        <time>2020-08-25T07:50:02.000Z</time>
      </trkpt>
      <trkpt lat="44.3407" lon="3.46378">
        <ele>501.7</ele>
        <time>2020-08-25T07:50:03.000Z</time>
      </trkpt>
      <trkpt lat="44.34069" lon="3.46377">
        <ele>502.1</ele>
        <time>2020-08-25T07:50:05.000Z</time>
      </trkpt>
      <trkpt lat="44.34069" lon="3.46376">
        <ele>502.4</ele>
        <time>2020-08-25T07:50:06.000Z</time>
      </trkpt>
      <trkpt lat="44.34068" lon="3.46375">
        <ele>502.6</ele>
        <time>2020-08-25T07:50:07.000Z</time>
      </trkpt>
      <trkpt lat="44.34069" lon="3.46373">
        <ele>502.9</ele>
        <time>2020-08-25T07:50:09.000Z</time>
      </trkpt>
      <trkpt lat="44.34069" lon="3.46373">
        <ele>503.1</ele>
        <time>2020-08-25T07:50:10.000Z</time>
      </trkpt>
      <trkpt lat="44.3407" lon="3.46372">
        <ele>503.5</ele>
        <time>2020-08-25T07:50:12.000Z</time>
      </trkpt>
      <trkpt lat="44.34071" lon="3.4637">
        <ele>503.9</ele>
        <time>2020-08-25T07:50:14.000Z</time>
      </trkpt>
      <trkpt lat="44.34072" lon="3.46369">
        <ele>504.2</ele>
        <time>2020-08-25T07:50:16.000Z</time>
      </trkpt>
      <trkpt lat="44.34072" lon="3.46367">
        <ele>504.7</ele>
        <time>2020-08-25T07:50:17.000Z</time>
      </trkpt>
      <trkpt lat="44.34073" lon="3.46365">
        <ele>505.2</ele>
        <time>2020-08-25T07:50:18.000Z</time>
      </trkpt>
      <trkpt lat="44.34074" lon="3.4636">
        <ele>506.3</ele>
        <time>2020-08-25T07:50:20.000Z</time>
      </trkpt>
      <trkpt lat="44.34076" lon="3.46355">
        <ele>507.5</ele>
        <time>2020-08-25T07:50:21.000Z</time>
      </trkpt>
      <trkpt lat="44.34076" lon="3.46352">
        <ele>508.3</ele>
        <time>2020-08-25T07:50:23.000Z</time>
      </trkpt>
      <trkpt lat="44.34077" lon="3.4635">
        <ele>507.1</ele>
        <time>2020-08-25T07:50:24.000Z</time>
      </trkpt>
      <trkpt lat="44.34077" lon="3.46349">
        <ele>506.2</ele>
        <time>2020-08-25T07:50:26.000Z</time>
      </trkpt>
      <trkpt lat="44.34077" lon="3.46348">
        <ele>505.9</ele>
        <time>2020-08-25T07:50:27.000Z</time>
      </trkpt>
      <trkpt lat="44.34077" lon="3.46347">
        <ele>504.8</ele>
        <time>2020-08-25T07:50:29.000Z</time>
      </trkpt>
      <trkpt lat="44.34077" lon="3.46345">
        <ele>503.5</ele>
        <time>2020-08-25T07:50:31.000Z</time>
      </trkpt>
      <trkpt lat="44.34078" lon="3.46343">
        <ele>502.5</ele>
        <time>2020-08-25T07:50:33.000Z</time>
      </trkpt>
      <trkpt lat="44.34079" lon="3.46341">
        <ele>500.7</ele>
        <time>2020-08-25T07:50:39.000Z</time>
      </trkpt>
      <trkpt lat="44.3408" lon="3.46338">
        <ele>499</ele>
        <time>2020-08-25T07:50:41.000Z</time>
      </trkpt>
      <trkpt lat="44.3408" lon="3.46337">
        <ele>497.9</ele>
        <time>2020-08-25T07:50:42.000Z</time>
      </trkpt>
      <trkpt lat="44.34081" lon="3.46335">
        <ele>496.4</ele>
        <time>2020-08-25T07:50:44.000Z</time>
      </trkpt>
      <trkpt lat="44.34082" lon="3.46334">
        <ele>495.2</ele>
        <time>2020-08-25T07:50:45.000Z</time>
      </trkpt>
      <trkpt lat="44.34083" lon="3.46333">
        <ele>493.8</ele>
        <time>2020-08-25T07:50:46.000Z</time>
      </trkpt>
      <trkpt lat="44.34084" lon="3.46332">
        <ele>494</ele>
        <time>2020-08-25T07:50:47.000Z</time>
      </trkpt>
      <trkpt lat="44.34088" lon="3.46331">
        <ele>494.3</ele>
        <time>2020-08-25T07:50:49.000Z</time>
      </trkpt>
      <trkpt lat="44.34089" lon="3.46332">
        <ele>494.5</ele>
        <time>2020-08-25T07:50:50.000Z</time>
      </trkpt>
      <trkpt lat="44.34092" lon="3.4633">
        <ele>494.8</ele>
        <time>2020-08-25T07:50:52.000Z</time>
      </trkpt>
      <trkpt lat="44.34093" lon="3.4633">
        <ele>495</ele>
        <time>2020-08-25T07:50:53.000Z</time>
      </trkpt>
      <trkpt lat="44.34094" lon="3.46329">
        <ele>495.2</ele>
        <time>2020-08-25T07:50:54.000Z</time>
      </trkpt>
      <trkpt lat="44.34099" lon="3.46327">
        <ele>495.7</ele>
        <time>2020-08-25T07:50:56.000Z</time>
      </trkpt>
      <trkpt lat="44.34103" lon="3.46325">
        <ele>496.2</ele>
        <time>2020-08-25T07:50:58.000Z</time>
      </trkpt>
      <trkpt lat="44.34105" lon="3.46325">
        <ele>496.1</ele>
        <time>2020-08-25T07:50:59.000Z</time>
      </trkpt>
      <trkpt lat="44.34106" lon="3.46325">
        <ele>496.1</ele>
        <time>2020-08-25T07:51:00.000Z</time>
      </trkpt>
      <trkpt lat="44.3411" lon="3.46326">
        <ele>495.8</ele>
        <time>2020-08-25T07:51:02.000Z</time>
      </trkpt>
      <trkpt lat="44.34112" lon="3.46327">
        <ele>495.7</ele>
        <time>2020-08-25T07:51:03.000Z</time>
      </trkpt>
      <trkpt lat="44.34113" lon="3.46327">
        <ele>495.6</ele>
        <time>2020-08-25T07:51:04.000Z</time>
      </trkpt>
      <trkpt lat="44.34114" lon="3.46328">
        <ele>495.5</ele>
        <time>2020-08-25T07:51:05.000Z</time>
      </trkpt>
      <trkpt lat="44.34117" lon="3.46331">
        <ele>495.1</ele>
        <time>2020-08-25T07:51:07.000Z</time>
      </trkpt>
      <trkpt lat="44.34119" lon="3.46334">
        <ele>494.8</ele>
        <time>2020-08-25T07:51:08.000Z</time>
      </trkpt>
      <trkpt lat="44.34122" lon="3.46338">
        <ele>494.4</ele>
        <time>2020-08-25T07:51:09.000Z</time>
      </trkpt>
      <trkpt lat="44.34125" lon="3.46342">
        <ele>494</ele>
        <time>2020-08-25T07:51:11.000Z</time>
      </trkpt>
      <trkpt lat="44.34127" lon="3.46345">
        <ele>493.7</ele>
        <time>2020-08-25T07:51:12.000Z</time>
      </trkpt>
      <trkpt lat="44.34129" lon="3.46349">
        <ele>493.4</ele>
        <time>2020-08-25T07:51:13.000Z</time>
      </trkpt>
      <trkpt lat="44.34131" lon="3.46353">
        <ele>493.1</ele>
        <time>2020-08-25T07:51:14.000Z</time>
      </trkpt>
      <trkpt lat="44.34135" lon="3.46359">
        <ele>492.7</ele>
        <time>2020-08-25T07:51:16.000Z</time>
      </trkpt>
      <trkpt lat="44.34138" lon="3.46365">
        <ele>492.4</ele>
        <time>2020-08-25T07:51:18.000Z</time>
      </trkpt>
      <trkpt lat="44.34141" lon="3.4637">
        <ele>492.4</ele>
        <time>2020-08-25T07:51:19.000Z</time>
      </trkpt>
      <trkpt lat="44.34144" lon="3.46374">
        <ele>492.4</ele>
        <time>2020-08-25T07:51:20.000Z</time>
      </trkpt>
      <trkpt lat="44.34146" lon="3.46378">
        <ele>492.5</ele>
        <time>2020-08-25T07:51:22.000Z</time>
      </trkpt>
      <trkpt lat="44.34147" lon="3.46379">
        <ele>492.5</ele>
        <time>2020-08-25T07:51:23.000Z</time>
      </trkpt>
      <trkpt lat="44.34148" lon="3.4638">
        <ele>492.6</ele>
        <time>2020-08-25T07:51:24.000Z</time>
      </trkpt>
      <trkpt lat="44.34149" lon="3.46381">
        <ele>492.6</ele>
        <time>2020-08-25T07:51:25.000Z</time>
      </trkpt>
      <trkpt lat="44.34148" lon="3.4638">
        <ele>492.6</ele>
        <time>2020-08-25T07:51:27.000Z</time>
      </trkpt>
      <trkpt lat="44.34149" lon="3.46379">
        <ele>492.6</ele>
        <time>2020-08-25T07:51:29.000Z</time>
      </trkpt>
      <trkpt lat="44.34149" lon="3.4638">
        <ele>492.7</ele>
        <time>2020-08-25T07:51:30.000Z</time>
      </trkpt>
      <trkpt lat="44.3415" lon="3.46381">
        <ele>492.8</ele>
        <time>2020-08-25T07:51:31.000Z</time>
      </trkpt>
      <trkpt lat="44.34151" lon="3.46382">
        <ele>492.8</ele>
        <time>2020-08-25T07:51:33.000Z</time>
      </trkpt>
      <trkpt lat="44.34152" lon="3.46383">
        <ele>492.9</ele>
        <time>2020-08-25T07:51:34.000Z</time>
      </trkpt>
      <trkpt lat="44.34153" lon="3.46383">
        <ele>492.9</ele>
        <time>2020-08-25T07:51:36.000Z</time>
      </trkpt>
      <trkpt lat="44.34153" lon="3.46383">
        <ele>493</ele>
        <time>2020-08-25T07:51:39.000Z</time>
      </trkpt>
      <trkpt lat="44.34153" lon="3.46384">
        <ele>493</ele>
        <time>2020-08-25T07:51:40.000Z</time>
      </trkpt>
      <trkpt lat="44.34154" lon="3.46385">
        <ele>493.1</ele>
        <time>2020-08-25T07:51:42.000Z</time>
      </trkpt>
      <trkpt lat="44.34155" lon="3.46386">
        <ele>493.2</ele>
        <time>2020-08-25T07:51:44.000Z</time>
      </trkpt>
      <trkpt lat="44.34157" lon="3.46388">
        <ele>493.4</ele>
        <time>2020-08-25T07:51:45.000Z</time>
      </trkpt>
      <trkpt lat="44.34158" lon="3.46389">
        <ele>493.5</ele>
        <time>2020-08-25T07:51:47.000Z</time>
      </trkpt>
      <trkpt lat="44.34159" lon="3.46391">
        <ele>493.7</ele>
        <time>2020-08-25T07:51:48.000Z</time>
      </trkpt>
      <trkpt lat="44.3416" lon="3.46392">
        <ele>493.8</ele>
        <time>2020-08-25T07:51:50.000Z</time>
      </trkpt>
      <trkpt lat="44.3416" lon="3.46393">
        <ele>493.9</ele>
        <time>2020-08-25T07:51:51.000Z</time>
      </trkpt>
      <trkpt lat="44.34161" lon="3.46394">
        <ele>493.9</ele>
        <time>2020-08-25T07:51:53.000Z</time>
      </trkpt>
      <trkpt lat="44.34162" lon="3.46396">
        <ele>494</ele>
        <time>2020-08-25T07:51:54.000Z</time>
      </trkpt>
      <trkpt lat="44.34162" lon="3.46397">
        <ele>494.2</ele>
        <time>2020-08-25T07:51:55.000Z</time>
      </trkpt>
      <trkpt lat="44.34164" lon="3.46399">
        <ele>494.3</ele>
        <time>2020-08-25T07:51:56.000Z</time>
      </trkpt>
      <trkpt lat="44.34164" lon="3.464">
        <ele>494.4</ele>
        <time>2020-08-25T07:51:57.000Z</time>
      </trkpt>
      <trkpt lat="44.34165" lon="3.46401">
        <ele>494.5</ele>
        <time>2020-08-25T07:51:58.000Z</time>
      </trkpt>
      <trkpt lat="44.34166" lon="3.46402">
        <ele>494.6</ele>
        <time>2020-08-25T07:52:00.000Z</time>
      </trkpt>
      <trkpt lat="44.34167" lon="3.46403">
        <ele>494.7</ele>
        <time>2020-08-25T07:52:02.000Z</time>
      </trkpt>
      <trkpt lat="44.34168" lon="3.46404">
        <ele>494.8</ele>
        <time>2020-08-25T07:52:03.000Z</time>
      </trkpt>
      <trkpt lat="44.3417" lon="3.46405">
        <ele>495</ele>
        <time>2020-08-25T07:52:05.000Z</time>
      </trkpt>
      <trkpt lat="44.34171" lon="3.46406">
        <ele>495</ele>
        <time>2020-08-25T07:52:06.000Z</time>
      </trkpt>
      <trkpt lat="44.34172" lon="3.46406">
        <ele>495.1</ele>
        <time>2020-08-25T07:52:07.000Z</time>
      </trkpt>
      <trkpt lat="44.34172" lon="3.46406">
        <ele>495.1</ele>
        <time>2020-08-25T07:52:08.000Z</time>
      </trkpt>
      <trkpt lat="44.34172" lon="3.46406">
        <ele>495.1</ele>
        <time>2020-08-25T07:52:09.000Z</time>
      </trkpt>
      <trkpt lat="44.34172" lon="3.46407">
        <ele>495.2</ele>
        <time>2020-08-25T07:52:10.000Z</time>
      </trkpt>
      <trkpt lat="44.34171" lon="3.46407">
        <ele>495.2</ele>
        <time>2020-08-25T07:52:12.000Z</time>
      </trkpt>
      <trkpt lat="44.34171" lon="3.46407">
        <ele>495.2</ele>
        <time>2020-08-25T07:52:14.000Z</time>
      </trkpt>
      <trkpt lat="44.34171" lon="3.46407">
        <ele>495.3</ele>
        <time>2020-08-25T07:52:15.000Z</time>
      </trkpt>
      <trkpt lat="44.3417" lon="3.46407">
        <ele>495.3</ele>
        <time>2020-08-25T07:52:17.000Z</time>
      </trkpt>
      <trkpt lat="44.3417" lon="3.46407">
        <ele>495.3</ele>
        <time>2020-08-25T07:52:18.000Z</time>
      </trkpt>
      <trkpt lat="44.34173" lon="3.46407">
        <ele>495.5</ele>
        <time>2020-08-25T07:52:25.000Z</time>
      </trkpt>
      <trkpt lat="44.34175" lon="3.46406">
        <ele>495.7</ele>
        <time>2020-08-25T07:52:26.000Z</time>
      </trkpt>
      <trkpt lat="44.34175" lon="3.46406">
        <ele>495.7</ele>
        <time>2020-08-25T07:52:27.000Z</time>
      </trkpt>
      <trkpt lat="44.34176" lon="3.46406">
        <ele>495.8</ele>
        <time>2020-08-25T07:52:29.000Z</time>
      </trkpt>
      <trkpt lat="44.34177" lon="3.46406">
        <ele>495.9</ele>
        <time>2020-08-25T07:52:30.000Z</time>
      </trkpt>
      <trkpt lat="44.34178" lon="3.46406">
        <ele>495.9</ele>
        <time>2020-08-25T07:52:32.000Z</time>
      </trkpt>
      <trkpt lat="44.34179" lon="3.46406">
        <ele>496</ele>
        <time>2020-08-25T07:52:33.000Z</time>
      </trkpt>
      <trkpt lat="44.3418" lon="3.46405">
        <ele>496.1</ele>
        <time>2020-08-25T07:52:35.000Z</time>
      </trkpt>
      <trkpt lat="44.34183" lon="3.46403">
        <ele>496.3</ele>
        <time>2020-08-25T07:52:37.000Z</time>
      </trkpt>
      <trkpt lat="44.34184" lon="3.46403">
        <ele>496.4</ele>
        <time>2020-08-25T07:52:38.000Z</time>
      </trkpt>
      <trkpt lat="44.34186" lon="3.46402">
        <ele>496.5</ele>
        <time>2020-08-25T07:52:39.000Z</time>
      </trkpt>
      <trkpt lat="44.34189" lon="3.46401">
        <ele>496.7</ele>
        <time>2020-08-25T07:52:41.000Z</time>
      </trkpt>
      <trkpt lat="44.34191" lon="3.46401">
        <ele>496.9</ele>
        <time>2020-08-25T07:52:42.000Z</time>
      </trkpt>
      <trkpt lat="44.34194" lon="3.464">
        <ele>497.3</ele>
        <time>2020-08-25T07:52:44.000Z</time>
      </trkpt>
      <trkpt lat="44.34196" lon="3.46399">
        <ele>497.5</ele>
        <time>2020-08-25T07:52:45.000Z</time>
      </trkpt>
      <trkpt lat="44.34199" lon="3.46398">
        <ele>497.6</ele>
        <time>2020-08-25T07:52:47.000Z</time>
      </trkpt>
      <trkpt lat="44.34203" lon="3.46398">
        <ele>497.8</ele>
        <time>2020-08-25T07:52:48.000Z</time>
      </trkpt>
      <trkpt lat="44.34205" lon="3.46398">
        <ele>497.8</ele>
        <time>2020-08-25T07:52:49.000Z</time>
      </trkpt>
      <trkpt lat="44.34207" lon="3.46399">
        <ele>497.8</ele>
        <time>2020-08-25T07:52:50.000Z</time>
      </trkpt>
      <trkpt lat="44.3421" lon="3.46398">
        <ele>497.7</ele>
        <time>2020-08-25T07:52:52.000Z</time>
      </trkpt>
      <trkpt lat="44.34216" lon="3.46398">
        <ele>497.5</ele>
        <time>2020-08-25T07:52:53.000Z</time>
      </trkpt>
      <trkpt lat="44.34223" lon="3.46397">
        <ele>497.1</ele>
        <time>2020-08-25T07:52:55.000Z</time>
      </trkpt>
      <trkpt lat="44.34229" lon="3.46397">
        <ele>496.7</ele>
        <time>2020-08-25T07:52:56.000Z</time>
      </trkpt>
      <trkpt lat="44.34233" lon="3.46397">
        <ele>496.4</ele>
        <time>2020-08-25T07:52:58.000Z</time>
      </trkpt>
      <trkpt lat="44.34237" lon="3.46397">
        <ele>496</ele>
        <time>2020-08-25T07:52:59.000Z</time>
      </trkpt>
      <trkpt lat="44.34241" lon="3.46397">
        <ele>495.6</ele>
        <time>2020-08-25T07:53:00.000Z</time>
      </trkpt>
      <trkpt lat="44.34245" lon="3.46397">
        <ele>495.2</ele>
        <time>2020-08-25T07:53:01.000Z</time>
      </trkpt>
      <trkpt lat="44.34249" lon="3.46396">
        <ele>494.9</ele>
        <time>2020-08-25T07:53:03.000Z</time>
      </trkpt>
      <trkpt lat="44.34254" lon="3.46396">
        <ele>494.5</ele>
        <time>2020-08-25T07:53:04.000Z</time>
      </trkpt>
      <trkpt lat="44.3426" lon="3.46395">
        <ele>494.2</ele>
        <time>2020-08-25T07:53:05.000Z</time>
      </trkpt>
      <trkpt lat="44.34268" lon="3.46393">
        <ele>493.8</ele>
        <time>2020-08-25T07:53:07.000Z</time>
      </trkpt>
      <trkpt lat="44.34274" lon="3.46392">
        <ele>493.5</ele>
        <time>2020-08-25T07:53:08.000Z</time>
      </trkpt>
      <trkpt lat="44.34279" lon="3.46391">
        <ele>493.4</ele>
        <time>2020-08-25T07:53:09.000Z</time>
      </trkpt>
      <trkpt lat="44.34287" lon="3.46389">
        <ele>493.2</ele>
        <time>2020-08-25T07:53:11.000Z</time>
      </trkpt>
      <trkpt lat="44.343" lon="3.46387">
        <ele>493</ele>
        <time>2020-08-25T07:53:12.000Z</time>
      </trkpt>
      <trkpt lat="44.34306" lon="3.46384">
        <ele>492.7</ele>
        <time>2020-08-25T07:53:13.000Z</time>
      </trkpt>
      <trkpt lat="44.34311" lon="3.46384">
        <ele>492.4</ele>
        <time>2020-08-25T07:53:14.000Z</time>
      </trkpt>
      <trkpt lat="44.34315" lon="3.46384">
        <ele>492.2</ele>
        <time>2020-08-25T07:53:15.000Z</time>
      </trkpt>
      <trkpt lat="44.34321" lon="3.46385">
        <ele>491.7</ele>
        <time>2020-08-25T07:53:17.000Z</time>
      </trkpt>
      <trkpt lat="44.34324" lon="3.46385">
        <ele>491.3</ele>
        <time>2020-08-25T07:53:19.000Z</time>
      </trkpt>
      <trkpt lat="44.34328" lon="3.46385">
        <ele>490.9</ele>
        <time>2020-08-25T07:53:20.000Z</time>
      </trkpt>
      <trkpt lat="44.34329" lon="3.46385">
        <ele>490.8</ele>
        <time>2020-08-25T07:53:21.000Z</time>
      </trkpt>
      <trkpt lat="44.3433" lon="3.46385">
        <ele>490.6</ele>
        <time>2020-08-25T07:53:22.000Z</time>
      </trkpt>
      <trkpt lat="44.34333" lon="3.46386">
        <ele>490.3</ele>
        <time>2020-08-25T07:53:24.000Z</time>
      </trkpt>
      <trkpt lat="44.34335" lon="3.46387">
        <ele>489.9</ele>
        <time>2020-08-25T07:53:25.000Z</time>
      </trkpt>
      <trkpt lat="44.34338" lon="3.46386">
        <ele>489.6</ele>
        <time>2020-08-25T07:53:27.000Z</time>
      </trkpt>
      <trkpt lat="44.34343" lon="3.46384">
        <ele>489.2</ele>
        <time>2020-08-25T07:53:28.000Z</time>
      </trkpt>
      <trkpt lat="44.34344" lon="3.46384">
        <ele>489.1</ele>
        <time>2020-08-25T07:53:29.000Z</time>
      </trkpt>
      <trkpt lat="44.34345" lon="3.46384">
        <ele>489</ele>
        <time>2020-08-25T07:53:30.000Z</time>
      </trkpt>
      <trkpt lat="44.34348" lon="3.46384">
        <ele>488.9</ele>
        <time>2020-08-25T07:53:32.000Z</time>
      </trkpt>
      <trkpt lat="44.34351" lon="3.46383">
        <ele>488.7</ele>
        <time>2020-08-25T07:53:33.000Z</time>
      </trkpt>
      <trkpt lat="44.34356" lon="3.46382">
        <ele>488.6</ele>
        <time>2020-08-25T07:53:34.000Z</time>
      </trkpt>
      <trkpt lat="44.34363" lon="3.46384">
        <ele>488.5</ele>
        <time>2020-08-25T07:53:36.000Z</time>
      </trkpt>
      <trkpt lat="44.34369" lon="3.46384">
        <ele>488.5</ele>
        <time>2020-08-25T07:53:37.000Z</time>
      </trkpt>
      <trkpt lat="44.34373" lon="3.46384">
        <ele>488.4</ele>
        <time>2020-08-25T07:53:38.000Z</time>
      </trkpt>
      <trkpt lat="44.34376" lon="3.46383">
        <ele>488.4</ele>
        <time>2020-08-25T07:53:39.000Z</time>
      </trkpt>
      <trkpt lat="44.34382" lon="3.46383">
        <ele>488.4</ele>
        <time>2020-08-25T07:53:41.000Z</time>
      </trkpt>
      <trkpt lat="44.34388" lon="3.46382">
        <ele>488.3</ele>
        <time>2020-08-25T07:53:43.000Z</time>
      </trkpt>
      <trkpt lat="44.34391" lon="3.46382">
        <ele>488.3</ele>
        <time>2020-08-25T07:53:44.000Z</time>
      </trkpt>
      <trkpt lat="44.34392" lon="3.46382">
        <ele>488.2</ele>
        <time>2020-08-25T07:53:45.000Z</time>
      </trkpt>
      <trkpt lat="44.34393" lon="3.46382">
        <ele>488.2</ele>
        <time>2020-08-25T07:53:46.000Z</time>
      </trkpt>
      <trkpt lat="44.34397" lon="3.46382">
        <ele>488.1</ele>
        <time>2020-08-25T07:53:48.000Z</time>
      </trkpt>
      <trkpt lat="44.34402" lon="3.46382">
        <ele>487.9</ele>
        <time>2020-08-25T07:53:49.000Z</time>
      </trkpt>
      <trkpt lat="44.34405" lon="3.46381">
        <ele>487.8</ele>
        <time>2020-08-25T07:53:50.000Z</time>
      </trkpt>
      <trkpt lat="44.34411" lon="3.46378">
        <ele>487.5</ele>
        <time>2020-08-25T07:53:51.000Z</time>
      </trkpt>
      <trkpt lat="44.34413" lon="3.46377">
        <ele>487.4</ele>
        <time>2020-08-25T07:53:52.000Z</time>
      </trkpt>
      <trkpt lat="44.34414" lon="3.46377">
        <ele>487.4</ele>
        <time>2020-08-25T07:53:53.000Z</time>
      </trkpt>
      <trkpt lat="44.34416" lon="3.46377">
        <ele>487.3</ele>
        <time>2020-08-25T07:53:54.000Z</time>
      </trkpt>
      <trkpt lat="44.34419" lon="3.46376">
        <ele>487.2</ele>
        <time>2020-08-25T07:53:56.000Z</time>
      </trkpt>
      <trkpt lat="44.34422" lon="3.46375">
        <ele>487</ele>
        <time>2020-08-25T07:53:57.000Z</time>
      </trkpt>
      <trkpt lat="44.34427" lon="3.46373">
        <ele>486.9</ele>
        <time>2020-08-25T07:53:59.000Z</time>
      </trkpt>
      <trkpt lat="44.3443" lon="3.46372">
        <ele>486.9</ele>
        <time>2020-08-25T07:54:00.000Z</time>
      </trkpt>
      <trkpt lat="44.34433" lon="3.46371">
        <ele>486.9</ele>
        <time>2020-08-25T07:54:01.000Z</time>
      </trkpt>
      <trkpt lat="44.34435" lon="3.46369">
        <ele>487</ele>
        <time>2020-08-25T07:54:02.000Z</time>
      </trkpt>
      <trkpt lat="44.34441" lon="3.46366">
        <ele>487.2</ele>
        <time>2020-08-25T07:54:04.000Z</time>
      </trkpt>
      <trkpt lat="44.34445" lon="3.46364">
        <ele>487.4</ele>
        <time>2020-08-25T07:54:05.000Z</time>
      </trkpt>
      <trkpt lat="44.34451" lon="3.46362">
        <ele>487.7</ele>
        <time>2020-08-25T07:54:07.000Z</time>
      </trkpt>
      <trkpt lat="44.34455" lon="3.46361">
        <ele>487.9</ele>
        <time>2020-08-25T07:54:08.000Z</time>
      </trkpt>
      <trkpt lat="44.34459" lon="3.46359">
        <ele>488.1</ele>
        <time>2020-08-25T07:54:09.000Z</time>
      </trkpt>
      <trkpt lat="44.34467" lon="3.46358">
        <ele>488.2</ele>
        <time>2020-08-25T07:54:11.000Z</time>
      </trkpt>
      <trkpt lat="44.3447" lon="3.46356">
        <ele>488.3</ele>
        <time>2020-08-25T07:54:12.000Z</time>
      </trkpt>
      <trkpt lat="44.34471" lon="3.46355">
        <ele>488.3</ele>
        <time>2020-08-25T07:54:13.000Z</time>
      </trkpt>
      <trkpt lat="44.34477" lon="3.46354">
        <ele>488.3</ele>
        <time>2020-08-25T07:54:14.000Z</time>
      </trkpt>
      <trkpt lat="44.34491" lon="3.46352">
        <ele>488.3</ele>
        <time>2020-08-25T07:54:15.000Z</time>
      </trkpt>
      <trkpt lat="44.34498" lon="3.4635">
        <ele>488.2</ele>
        <time>2020-08-25T07:54:17.000Z</time>
      </trkpt>
      <trkpt lat="44.34505" lon="3.46347">
        <ele>488.2</ele>
        <time>2020-08-25T07:54:18.000Z</time>
      </trkpt>
      <trkpt lat="44.3451" lon="3.46345">
        <ele>488.2</ele>
        <time>2020-08-25T07:54:19.000Z</time>
      </trkpt>
      <trkpt lat="44.34515" lon="3.46342">
        <ele>488.2</ele>
        <time>2020-08-25T07:54:20.000Z</time>
      </trkpt>
      <trkpt lat="44.34522" lon="3.46336">
        <ele>488.1</ele>
        <time>2020-08-25T07:54:22.000Z</time>
      </trkpt>
      <trkpt lat="44.34527" lon="3.46331">
        <ele>488</ele>
        <time>2020-08-25T07:54:23.000Z</time>
      </trkpt>
      <trkpt lat="44.34531" lon="3.46327">
        <ele>487.9</ele>
        <time>2020-08-25T07:54:24.000Z</time>
      </trkpt>
      <trkpt lat="44.34535" lon="3.46324">
        <ele>487.9</ele>
        <time>2020-08-25T07:54:26.000Z</time>
      </trkpt>
      <trkpt lat="44.34539" lon="3.4632">
        <ele>487.9</ele>
        <time>2020-08-25T07:54:27.000Z</time>
      </trkpt>
      <trkpt lat="44.34544" lon="3.46316">
        <ele>488</ele>
        <time>2020-08-25T07:54:29.000Z</time>
      </trkpt>
      <trkpt lat="44.34547" lon="3.46314">
        <ele>488</ele>
        <time>2020-08-25T07:54:30.000Z</time>
      </trkpt>
      <trkpt lat="44.34551" lon="3.46311">
        <ele>488</ele>
        <time>2020-08-25T07:54:31.000Z</time>
      </trkpt>
      <trkpt lat="44.34554" lon="3.46309">
        <ele>488</ele>
        <time>2020-08-25T07:54:32.000Z</time>
      </trkpt>
      <trkpt lat="44.34559" lon="3.46304">
        <ele>488.1</ele>
        <time>2020-08-25T07:54:34.000Z</time>
      </trkpt>
      <trkpt lat="44.34563" lon="3.46301">
        <ele>488.1</ele>
        <time>2020-08-25T07:54:35.000Z</time>
      </trkpt>
      <trkpt lat="44.34566" lon="3.46299">
        <ele>488.1</ele>
        <time>2020-08-25T07:54:37.000Z</time>
      </trkpt>
      <trkpt lat="44.3457" lon="3.46295">
        <ele>488.2</ele>
        <time>2020-08-25T07:54:38.000Z</time>
      </trkpt>
      <trkpt lat="44.34575" lon="3.46291">
        <ele>488.2</ele>
        <time>2020-08-25T07:54:40.000Z</time>
      </trkpt>
      <trkpt lat="44.34578" lon="3.46289">
        <ele>488.2</ele>
        <time>2020-08-25T07:54:41.000Z</time>
      </trkpt>
      <trkpt lat="44.3458" lon="3.46288">
        <ele>488.2</ele>
        <time>2020-08-25T07:54:42.000Z</time>
      </trkpt>
      <trkpt lat="44.34583" lon="3.46286">
        <ele>488.1</ele>
        <time>2020-08-25T07:54:43.000Z</time>
      </trkpt>
      <trkpt lat="44.34588" lon="3.46282">
        <ele>488.1</ele>
        <time>2020-08-25T07:54:45.000Z</time>
      </trkpt>
      <trkpt lat="44.34593" lon="3.46277">
        <ele>488.1</ele>
        <time>2020-08-25T07:54:47.000Z</time>
      </trkpt>
      <trkpt lat="44.34596" lon="3.46275">
        <ele>488.1</ele>
        <time>2020-08-25T07:54:48.000Z</time>
      </trkpt>
      <trkpt lat="44.346" lon="3.46272">
        <ele>488.2</ele>
        <time>2020-08-25T07:54:49.000Z</time>
      </trkpt>
      <trkpt lat="44.34604" lon="3.46269">
        <ele>488.2</ele>
        <time>2020-08-25T07:54:51.000Z</time>
      </trkpt>
      <trkpt lat="44.34606" lon="3.46267">
        <ele>488.2</ele>
        <time>2020-08-25T07:54:52.000Z</time>
      </trkpt>
      <trkpt lat="44.34608" lon="3.46265">
        <ele>488.2</ele>
        <time>2020-08-25T07:54:53.000Z</time>
      </trkpt>
      <trkpt lat="44.34611" lon="3.46263">
        <ele>488.2</ele>
        <time>2020-08-25T07:54:54.000Z</time>
      </trkpt>
      <trkpt lat="44.34615" lon="3.46261">
        <ele>488.3</ele>
        <time>2020-08-25T07:54:56.000Z</time>
      </trkpt>
      <trkpt lat="44.34617" lon="3.46258">
        <ele>488.3</ele>
        <time>2020-08-25T07:54:57.000Z</time>
      </trkpt>
      <trkpt lat="44.3462" lon="3.46256">
        <ele>488.3</ele>
        <time>2020-08-25T07:54:58.000Z</time>
      </trkpt>
      <trkpt lat="44.34621" lon="3.46254">
        <ele>488.4</ele>
        <time>2020-08-25T07:54:59.000Z</time>
      </trkpt>
      <trkpt lat="44.34625" lon="3.4625">
        <ele>488.4</ele>
        <time>2020-08-25T07:55:01.000Z</time>
      </trkpt>
      <trkpt lat="44.34627" lon="3.46247">
        <ele>488.4</ele>
        <time>2020-08-25T07:55:02.000Z</time>
      </trkpt>
      <trkpt lat="44.34631" lon="3.46243">
        <ele>488.5</ele>
        <time>2020-08-25T07:55:03.000Z</time>
      </trkpt>
      <trkpt lat="44.34632" lon="3.46242">
        <ele>488.5</ele>
        <time>2020-08-25T07:55:04.000Z</time>
      </trkpt>
      <trkpt lat="44.34637" lon="3.46235">
        <ele>488.5</ele>
        <time>2020-08-25T07:55:06.000Z</time>
      </trkpt>
      <trkpt lat="44.34641" lon="3.46231">
        <ele>488.5</ele>
        <time>2020-08-25T07:55:07.000Z</time>
      </trkpt>
      <trkpt lat="44.34647" lon="3.46222">
        <ele>488.4</ele>
        <time>2020-08-25T07:55:08.000Z</time>
      </trkpt>
      <trkpt lat="44.34656" lon="3.4621">
        <ele>488.4</ele>
        <time>2020-08-25T07:55:10.000Z</time>
      </trkpt>
      <trkpt lat="44.34662" lon="3.46201">
        <ele>488.3</ele>
        <time>2020-08-25T07:55:11.000Z</time>
      </trkpt>
      <trkpt lat="44.34666" lon="3.46196">
        <ele>488.3</ele>
        <time>2020-08-25T07:55:13.000Z</time>
      </trkpt>
      <trkpt lat="44.3467" lon="3.46192">
        <ele>488.2</ele>
        <time>2020-08-25T07:55:14.000Z</time>
      </trkpt>
      <trkpt lat="44.34675" lon="3.46186">
        <ele>488.1</ele>
        <time>2020-08-25T07:55:15.000Z</time>
      </trkpt>
      <trkpt lat="44.34679" lon="3.46182">
        <ele>488</ele>
        <time>2020-08-25T07:55:16.000Z</time>
      </trkpt>
      <trkpt lat="44.34685" lon="3.46175">
        <ele>487.9</ele>
        <time>2020-08-25T07:55:17.000Z</time>
      </trkpt>
      <trkpt lat="44.3469" lon="3.46169">
        <ele>488</ele>
        <time>2020-08-25T07:55:19.000Z</time>
      </trkpt>
      <trkpt lat="44.34693" lon="3.46165">
        <ele>488</ele>
        <time>2020-08-25T07:55:20.000Z</time>
      </trkpt>
      <trkpt lat="44.34696" lon="3.4616">
        <ele>488.1</ele>
        <time>2020-08-25T07:55:22.000Z</time>
      </trkpt>
      <trkpt lat="44.34699" lon="3.46156">
        <ele>488.2</ele>
        <time>2020-08-25T07:55:23.000Z</time>
      </trkpt>
      <trkpt lat="44.34704" lon="3.4615">
        <ele>488.4</ele>
        <time>2020-08-25T07:55:25.000Z</time>
      </trkpt>
      <trkpt lat="44.34705" lon="3.46146">
        <ele>488.4</ele>
        <time>2020-08-25T07:55:26.000Z</time>
      </trkpt>
      <trkpt lat="44.34707" lon="3.46142">
        <ele>488.5</ele>
        <time>2020-08-25T07:55:27.000Z</time>
      </trkpt>
      <trkpt lat="44.34709" lon="3.46139">
        <ele>488.5</ele>
        <time>2020-08-25T07:55:29.000Z</time>
      </trkpt>
      <trkpt lat="44.34711" lon="3.46136">
        <ele>488.6</ele>
        <time>2020-08-25T07:55:30.000Z</time>
      </trkpt>
      <trkpt lat="44.34714" lon="3.46131">
        <ele>488.6</ele>
        <time>2020-08-25T07:55:32.000Z</time>
      </trkpt>
      <trkpt lat="44.34716" lon="3.46127">
        <ele>488.7</ele>
        <time>2020-08-25T07:55:33.000Z</time>
      </trkpt>
      <trkpt lat="44.3472" lon="3.46123">
        <ele>488.8</ele>
        <time>2020-08-25T07:55:34.000Z</time>
      </trkpt>
      <trkpt lat="44.34722" lon="3.46119">
        <ele>488.8</ele>
        <time>2020-08-25T07:55:35.000Z</time>
      </trkpt>
      <trkpt lat="44.34724" lon="3.46116">
        <ele>488.9</ele>
        <time>2020-08-25T07:55:36.000Z</time>
      </trkpt>
      <trkpt lat="44.34727" lon="3.46112">
        <ele>488.9</ele>
        <time>2020-08-25T07:55:38.000Z</time>
      </trkpt>
      <trkpt lat="44.3473" lon="3.46107">
        <ele>489</ele>
        <time>2020-08-25T07:55:39.000Z</time>
      </trkpt>
      <trkpt lat="44.34732" lon="3.46103">
        <ele>489.1</ele>
        <time>2020-08-25T07:55:40.000Z</time>
      </trkpt>
      <trkpt lat="44.34735" lon="3.46099">
        <ele>489.1</ele>
        <time>2020-08-25T07:55:41.000Z</time>
      </trkpt>
      <trkpt lat="44.34737" lon="3.46094">
        <ele>489.2</ele>
        <time>2020-08-25T07:55:42.000Z</time>
      </trkpt>
      <trkpt lat="44.34741" lon="3.46089">
        <ele>489.3</ele>
        <time>2020-08-25T07:55:44.000Z</time>
      </trkpt>
      <trkpt lat="44.34744" lon="3.46083">
        <ele>489.4</ele>
        <time>2020-08-25T07:55:45.000Z</time>
      </trkpt>
      <trkpt lat="44.34748" lon="3.46077">
        <ele>489.6</ele>
        <time>2020-08-25T07:55:47.000Z</time>
      </trkpt>
      <trkpt lat="44.3475" lon="3.46073">
        <ele>489.7</ele>
        <time>2020-08-25T07:55:48.000Z</time>
      </trkpt>
      <trkpt lat="44.34753" lon="3.46067">
        <ele>489.8</ele>
        <time>2020-08-25T07:55:50.000Z</time>
      </trkpt>
      <trkpt lat="44.34756" lon="3.46063">
        <ele>489.8</ele>
        <time>2020-08-25T07:55:51.000Z</time>
      </trkpt>
      <trkpt lat="44.3476" lon="3.46056">
        <ele>489.9</ele>
        <time>2020-08-25T07:55:53.000Z</time>
      </trkpt>
      <trkpt lat="44.34766" lon="3.46048">
        <ele>489.9</ele>
        <time>2020-08-25T07:55:55.000Z</time>
      </trkpt>
      <trkpt lat="44.34769" lon="3.46044">
        <ele>489.9</ele>
        <time>2020-08-25T07:55:56.000Z</time>
      </trkpt>
      <trkpt lat="44.34772" lon="3.46041">
        <ele>489.9</ele>
        <time>2020-08-25T07:55:57.000Z</time>
      </trkpt>
      <trkpt lat="44.34775" lon="3.46037">
        <ele>489.8</ele>
        <time>2020-08-25T07:55:59.000Z</time>
      </trkpt>
      <trkpt lat="44.34777" lon="3.46035">
        <ele>489.8</ele>
        <time>2020-08-25T07:56:00.000Z</time>
      </trkpt>
      <trkpt lat="44.3478" lon="3.46032">
        <ele>489.8</ele>
        <time>2020-08-25T07:56:01.000Z</time>
      </trkpt>
      <trkpt lat="44.34782" lon="3.4603">
        <ele>489.8</ele>
        <time>2020-08-25T07:56:02.000Z</time>
      </trkpt>
      <trkpt lat="44.34785" lon="3.46025">
        <ele>489.8</ele>
        <time>2020-08-25T07:56:03.000Z</time>
      </trkpt>
      <trkpt lat="44.34787" lon="3.46021">
        <ele>489.7</ele>
        <time>2020-08-25T07:56:05.000Z</time>
      </trkpt>
      <trkpt lat="44.34789" lon="3.46017">
        <ele>489.7</ele>
        <time>2020-08-25T07:56:06.000Z</time>
      </trkpt>
      <trkpt lat="44.34792" lon="3.46013">
        <ele>489.7</ele>
        <time>2020-08-25T07:56:07.000Z</time>
      </trkpt>
      <trkpt lat="44.34794" lon="3.4601">
        <ele>489.7</ele>
        <time>2020-08-25T07:56:09.000Z</time>
      </trkpt>
      <trkpt lat="44.34797" lon="3.46007">
        <ele>489.7</ele>
        <time>2020-08-25T07:56:10.000Z</time>
      </trkpt>
      <trkpt lat="44.348" lon="3.46003">
        <ele>489.7</ele>
        <time>2020-08-25T07:56:11.000Z</time>
      </trkpt>
      <trkpt lat="44.34803" lon="3.45999">
        <ele>489.7</ele>
        <time>2020-08-25T07:56:12.000Z</time>
      </trkpt>
      <trkpt lat="44.34805" lon="3.45996">
        <ele>489.7</ele>
        <time>2020-08-25T07:56:13.000Z</time>
      </trkpt>
      <trkpt lat="44.34808" lon="3.45992">
        <ele>489.7</ele>
        <time>2020-08-25T07:56:14.000Z</time>
      </trkpt>
      <trkpt lat="44.34812" lon="3.45987">
        <ele>489.7</ele>
        <time>2020-08-25T07:56:16.000Z</time>
      </trkpt>
      <trkpt lat="44.34815" lon="3.45983">
        <ele>489.7</ele>
        <time>2020-08-25T07:56:17.000Z</time>
      </trkpt>
      <trkpt lat="44.34818" lon="3.45978">
        <ele>489.6</ele>
        <time>2020-08-25T07:56:18.000Z</time>
      </trkpt>
      <trkpt lat="44.34821" lon="3.45974">
        <ele>489.6</ele>
        <time>2020-08-25T07:56:19.000Z</time>
      </trkpt>
      <trkpt lat="44.34823" lon="3.4597">
        <ele>489.6</ele>
        <time>2020-08-25T07:56:20.000Z</time>
      </trkpt>
      <trkpt lat="44.34828" lon="3.45961">
        <ele>489.6</ele>
        <time>2020-08-25T07:56:22.000Z</time>
      </trkpt>
      <trkpt lat="44.34832" lon="3.45955">
        <ele>489.7</ele>
        <time>2020-08-25T07:56:23.000Z</time>
      </trkpt>
      <trkpt lat="44.34835" lon="3.45949">
        <ele>489.7</ele>
        <time>2020-08-25T07:56:25.000Z</time>
      </trkpt>
      <trkpt lat="44.34837" lon="3.45946">
        <ele>489.7</ele>
        <time>2020-08-25T07:56:26.000Z</time>
      </trkpt>
      <trkpt lat="44.34839" lon="3.45943">
        <ele>489.7</ele>
        <time>2020-08-25T07:56:27.000Z</time>
      </trkpt>
      <trkpt lat="44.34842" lon="3.45938">
        <ele>489.8</ele>
        <time>2020-08-25T07:56:29.000Z</time>
      </trkpt>
      <trkpt lat="44.34846" lon="3.45931">
        <ele>489.8</ele>
        <time>2020-08-25T07:56:31.000Z</time>
      </trkpt>
      <trkpt lat="44.34849" lon="3.45927">
        <ele>489.8</ele>
        <time>2020-08-25T07:56:32.000Z</time>
      </trkpt>
      <trkpt lat="44.34852" lon="3.45922">
        <ele>489.8</ele>
        <time>2020-08-25T07:56:33.000Z</time>
      </trkpt>
      <trkpt lat="44.34854" lon="3.45917">
        <ele>489.9</ele>
        <time>2020-08-25T07:56:35.000Z</time>
      </trkpt>
      <trkpt lat="44.34857" lon="3.45914">
        <ele>489.9</ele>
        <time>2020-08-25T07:56:36.000Z</time>
      </trkpt>
      <trkpt lat="44.34861" lon="3.45909">
        <ele>489.9</ele>
        <time>2020-08-25T07:56:38.000Z</time>
      </trkpt>
      <trkpt lat="44.34863" lon="3.45905">
        <ele>489.9</ele>
        <time>2020-08-25T07:56:39.000Z</time>
      </trkpt>
      <trkpt lat="44.34867" lon="3.45899">
        <ele>490</ele>
        <time>2020-08-25T07:56:41.000Z</time>
      </trkpt>
      <trkpt lat="44.34871" lon="3.45895">
        <ele>490</ele>
        <time>2020-08-25T07:56:42.000Z</time>
      </trkpt>
      <trkpt lat="44.34875" lon="3.4589">
        <ele>490</ele>
        <time>2020-08-25T07:56:43.000Z</time>
      </trkpt>
      <trkpt lat="44.34878" lon="3.45885">
        <ele>490.1</ele>
        <time>2020-08-25T07:56:44.000Z</time>
      </trkpt>
      <trkpt lat="44.34884" lon="3.45879">
        <ele>490.5</ele>
        <time>2020-08-25T07:56:46.000Z</time>
      </trkpt>
      <trkpt lat="44.34886" lon="3.45876">
        <ele>490.7</ele>
        <time>2020-08-25T07:56:47.000Z</time>
      </trkpt>
      <trkpt lat="44.3489" lon="3.45872">
        <ele>491</ele>
        <time>2020-08-25T07:56:48.000Z</time>
      </trkpt>
      <trkpt lat="44.34892" lon="3.45868">
        <ele>491.3</ele>
        <time>2020-08-25T07:56:49.000Z</time>
      </trkpt>
      <trkpt lat="44.34895" lon="3.45865">
        <ele>491.4</ele>
        <time>2020-08-25T07:56:51.000Z</time>
      </trkpt>
      <trkpt lat="44.34897" lon="3.45863">
        <ele>491.6</ele>
        <time>2020-08-25T07:56:52.000Z</time>
      </trkpt>
      <trkpt lat="44.349" lon="3.4586">
        <ele>491.7</ele>
        <time>2020-08-25T07:56:53.000Z</time>
      </trkpt>
      <trkpt lat="44.34904" lon="3.45854">
        <ele>491.7</ele>
        <time>2020-08-25T07:56:55.000Z</time>
      </trkpt>
      <trkpt lat="44.34906" lon="3.45851">
        <ele>491.7</ele>
        <time>2020-08-25T07:56:56.000Z</time>
      </trkpt>
      <trkpt lat="44.34908" lon="3.45848">
        <ele>491.7</ele>
        <time>2020-08-25T07:56:57.000Z</time>
      </trkpt>
      <trkpt lat="44.34918" lon="3.45833">
        <ele>491.2</ele>
        <time>2020-08-25T07:56:59.000Z</time>
      </trkpt>
      <trkpt lat="44.34925" lon="3.45823">
        <ele>490.8</ele>
        <time>2020-08-25T07:57:01.000Z</time>
      </trkpt>
      <trkpt lat="44.34933" lon="3.4581">
        <ele>490.6</ele>
        <time>2020-08-25T07:57:03.000Z</time>
      </trkpt>
      <trkpt lat="44.34936" lon="3.45804">
        <ele>490.3</ele>
        <time>2020-08-25T07:57:04.000Z</time>
      </trkpt>
      <trkpt lat="44.34942" lon="3.45793">
        <ele>489.9</ele>
        <time>2020-08-25T07:57:06.000Z</time>
      </trkpt>
      <trkpt lat="44.34948" lon="3.45784">
        <ele>489.5</ele>
        <time>2020-08-25T07:57:08.000Z</time>
      </trkpt>
      <trkpt lat="44.3495" lon="3.4578">
        <ele>489.3</ele>
        <time>2020-08-25T07:57:09.000Z</time>
      </trkpt>
      <trkpt lat="44.34953" lon="3.45774">
        <ele>489.1</ele>
        <time>2020-08-25T07:57:11.000Z</time>
      </trkpt>
      <trkpt lat="44.34954" lon="3.45769">
        <ele>488.9</ele>
        <time>2020-08-25T07:57:12.000Z</time>
      </trkpt>
      <trkpt lat="44.34958" lon="3.45763">
        <ele>488.6</ele>
        <time>2020-08-25T07:57:14.000Z</time>
      </trkpt>
      <trkpt lat="44.34961" lon="3.45759">
        <ele>488.4</ele>
        <time>2020-08-25T07:57:15.000Z</time>
      </trkpt>
      <trkpt lat="44.34964" lon="3.45753">
        <ele>488.1</ele>
        <time>2020-08-25T07:57:17.000Z</time>
      </trkpt>
      <trkpt lat="44.34967" lon="3.45747">
        <ele>487.8</ele>
        <time>2020-08-25T07:57:18.000Z</time>
      </trkpt>
      <trkpt lat="44.3497" lon="3.45741">
        <ele>487.5</ele>
        <time>2020-08-25T07:57:20.000Z</time>
      </trkpt>
      <trkpt lat="44.34975" lon="3.45732">
        <ele>487.1</ele>
        <time>2020-08-25T07:57:21.000Z</time>
      </trkpt>
      <trkpt lat="44.34979" lon="3.45725">
        <ele>486.7</ele>
        <time>2020-08-25T07:57:22.000Z</time>
      </trkpt>
      <trkpt lat="44.34983" lon="3.45718">
        <ele>486.3</ele>
        <time>2020-08-25T07:57:24.000Z</time>
      </trkpt>
      <trkpt lat="44.34986" lon="3.45711">
        <ele>486</ele>
        <time>2020-08-25T07:57:25.000Z</time>
      </trkpt>
      <trkpt lat="44.34989" lon="3.45704">
        <ele>485.7</ele>
        <time>2020-08-25T07:57:26.000Z</time>
      </trkpt>
      <trkpt lat="44.34993" lon="3.45694">
        <ele>485.3</ele>
        <time>2020-08-25T07:57:27.000Z</time>
      </trkpt>
      <trkpt lat="44.34996" lon="3.45687">
        <ele>485</ele>
        <time>2020-08-25T07:57:28.000Z</time>
      </trkpt>
      <trkpt lat="44.34997" lon="3.45682">
        <ele>484.8</ele>
        <time>2020-08-25T07:57:29.000Z</time>
      </trkpt>
      <trkpt lat="44.34999" lon="3.45675">
        <ele>484.6</ele>
        <time>2020-08-25T07:57:31.000Z</time>
      </trkpt>
      <trkpt lat="44.35002" lon="3.45668">
        <ele>484.3</ele>
        <time>2020-08-25T07:57:32.000Z</time>
      </trkpt>
      <trkpt lat="44.35004" lon="3.45661">
        <ele>484.1</ele>
        <time>2020-08-25T07:57:33.000Z</time>
      </trkpt>
      <trkpt lat="44.35008" lon="3.45653">
        <ele>484</ele>
        <time>2020-08-25T07:57:35.000Z</time>
      </trkpt>
      <trkpt lat="44.35011" lon="3.45649">
        <ele>484</ele>
        <time>2020-08-25T07:57:36.000Z</time>
      </trkpt>
      <trkpt lat="44.35014" lon="3.45644">
        <ele>484.1</ele>
        <time>2020-08-25T07:57:37.000Z</time>
      </trkpt>
      <trkpt lat="44.35016" lon="3.45639">
        <ele>484.2</ele>
        <time>2020-08-25T07:57:39.000Z</time>
      </trkpt>
      <trkpt lat="44.35016" lon="3.45636">
        <ele>484.3</ele>
        <time>2020-08-25T07:57:40.000Z</time>
      </trkpt>
      <trkpt lat="44.35017" lon="3.45636">
        <ele>484.3</ele>
        <time>2020-08-25T07:57:41.000Z</time>
      </trkpt>
      <trkpt lat="44.35017" lon="3.45635">
        <ele>484.3</ele>
        <time>2020-08-25T07:57:42.000Z</time>
      </trkpt>
      <trkpt lat="44.35017" lon="3.45635">
        <ele>484.4</ele>
        <time>2020-08-25T07:57:44.000Z</time>
      </trkpt>
      <trkpt lat="44.35017" lon="3.45634">
        <ele>484.4</ele>
        <time>2020-08-25T07:57:45.000Z</time>
      </trkpt>
      <trkpt lat="44.35017" lon="3.45634">
        <ele>484.4</ele>
        <time>2020-08-25T07:57:46.000Z</time>
      </trkpt>
      <trkpt lat="44.35018" lon="3.45632">
        <ele>484.5</ele>
        <time>2020-08-25T07:57:47.000Z</time>
      </trkpt>
      <trkpt lat="44.35019" lon="3.4563">
        <ele>484.6</ele>
        <time>2020-08-25T07:57:48.000Z</time>
      </trkpt>
      <trkpt lat="44.35019" lon="3.45629">
        <ele>484.7</ele>
        <time>2020-08-25T07:57:49.000Z</time>
      </trkpt>
      <trkpt lat="44.35019" lon="3.45628">
        <ele>484.8</ele>
        <time>2020-08-25T07:57:51.000Z</time>
      </trkpt>
      <trkpt lat="44.35019" lon="3.45627">
        <ele>484.8</ele>
        <time>2020-08-25T07:57:52.000Z</time>
      </trkpt>
      <trkpt lat="44.35019" lon="3.45627">
        <ele>484.9</ele>
        <time>2020-08-25T07:57:53.000Z</time>
      </trkpt>
      <trkpt lat="44.35019" lon="3.45627">
        <ele>484.9</ele>
        <time>2020-08-25T07:57:54.000Z</time>
      </trkpt>
      <trkpt lat="44.35019" lon="3.45626">
        <ele>484.9</ele>
        <time>2020-08-25T07:57:56.000Z</time>
      </trkpt>
      <trkpt lat="44.35019" lon="3.45626">
        <ele>484.9</ele>
        <time>2020-08-25T07:57:57.000Z</time>
      </trkpt>
      <trkpt lat="44.35019" lon="3.45626">
        <ele>485</ele>
        <time>2020-08-25T07:57:59.000Z</time>
      </trkpt>
      <trkpt lat="44.35019" lon="3.45617">
        <ele>486</ele>
        <time>2020-08-25T07:58:26.000Z</time>
      </trkpt>
      <trkpt lat="44.35019" lon="3.45618">
        <ele>486.1</ele>
        <time>2020-08-25T07:58:28.000Z</time>
      </trkpt>
      <trkpt lat="44.3502" lon="3.45618">
        <ele>486.2</ele>
        <time>2020-08-25T07:58:30.000Z</time>
      </trkpt>
      <trkpt lat="44.3502" lon="3.45618">
        <ele>486.3</ele>
        <time>2020-08-25T07:58:31.000Z</time>
      </trkpt>
      <trkpt lat="44.35019" lon="3.45618">
        <ele>486.4</ele>
        <time>2020-08-25T07:58:32.000Z</time>
      </trkpt>
      <trkpt lat="44.35019" lon="3.45618">
        <ele>486.4</ele>
        <time>2020-08-25T07:58:34.000Z</time>
      </trkpt>
      <trkpt lat="44.35019" lon="3.45617">
        <ele>486.5</ele>
        <time>2020-08-25T07:58:36.000Z</time>
      </trkpt>
      <trkpt lat="44.35019" lon="3.45617">
        <ele>486.6</ele>
        <time>2020-08-25T07:58:37.000Z</time>
      </trkpt>
      <trkpt lat="44.35019" lon="3.45616">
        <ele>486.7</ele>
        <time>2020-08-25T07:58:39.000Z</time>
      </trkpt>
      <trkpt lat="44.35021" lon="3.45573">
        <ele>492.7</ele>
        <time>2020-08-25T07:59:45.000Z</time>
      </trkpt>
      <trkpt lat="44.35021" lon="3.45571">
        <ele>492.8</ele>
        <time>2020-08-25T07:59:46.000Z</time>
      </trkpt>
      <trkpt lat="44.35021" lon="3.4557">
        <ele>492.9</ele>
        <time>2020-08-25T07:59:47.000Z</time>
      </trkpt>
      <trkpt lat="44.35021" lon="3.4557">
        <ele>492.9</ele>
        <time>2020-08-25T07:59:48.000Z</time>
      </trkpt>
      <trkpt lat="44.35023" lon="3.45565">
        <ele>493.3</ele>
        <time>2020-08-25T07:59:50.000Z</time>
      </trkpt>
      <trkpt lat="44.35025" lon="3.4556">
        <ele>493.7</ele>
        <time>2020-08-25T07:59:52.000Z</time>
      </trkpt>
      <trkpt lat="44.35026" lon="3.45555">
        <ele>494</ele>
        <time>2020-08-25T07:59:54.000Z</time>
      </trkpt>
      <trkpt lat="44.35028" lon="3.45549">
        <ele>494.3</ele>
        <time>2020-08-25T07:59:55.000Z</time>
      </trkpt>
      <trkpt lat="44.35028" lon="3.45548">
        <ele>494.3</ele>
        <time>2020-08-25T07:59:56.000Z</time>
      </trkpt>
      <trkpt lat="44.35031" lon="3.45542">
        <ele>494.6</ele>
        <time>2020-08-25T07:59:58.000Z</time>
      </trkpt>
      <trkpt lat="44.35034" lon="3.45535">
        <ele>494.8</ele>
        <time>2020-08-25T08:00:00.000Z</time>
      </trkpt>
      <trkpt lat="44.35035" lon="3.45533">
        <ele>494.8</ele>
        <time>2020-08-25T08:00:01.000Z</time>
      </trkpt>
      <trkpt lat="44.35037" lon="3.45527">
        <ele>495</ele>
        <time>2020-08-25T08:00:03.000Z</time>
      </trkpt>
      <trkpt lat="44.35039" lon="3.45521">
        <ele>495.3</ele>
        <time>2020-08-25T08:00:05.000Z</time>
      </trkpt>
      <trkpt lat="44.3504" lon="3.45519">
        <ele>495.3</ele>
        <time>2020-08-25T08:00:06.000Z</time>
      </trkpt>
      <trkpt lat="44.35043" lon="3.45516">
        <ele>495.5</ele>
        <time>2020-08-25T08:00:08.000Z</time>
      </trkpt>
      <trkpt lat="44.35044" lon="3.45514">
        <ele>495.7</ele>
        <time>2020-08-25T08:00:09.000Z</time>
      </trkpt>
      <trkpt lat="44.35045" lon="3.45513">
        <ele>495.8</ele>
        <time>2020-08-25T08:00:10.000Z</time>
      </trkpt>
      <trkpt lat="44.35046" lon="3.45512">
        <ele>495.9</ele>
        <time>2020-08-25T08:00:12.000Z</time>
      </trkpt>
      <trkpt lat="44.35046" lon="3.45511">
        <ele>495.9</ele>
        <time>2020-08-25T08:00:13.000Z</time>
      </trkpt>
      <trkpt lat="44.35046" lon="3.45511">
        <ele>495.9</ele>
        <time>2020-08-25T08:00:14.000Z</time>
      </trkpt>
      <trkpt lat="44.35046" lon="3.45511">
        <ele>495.9</ele>
        <time>2020-08-25T08:00:16.000Z</time>
      </trkpt>
      <trkpt lat="44.35046" lon="3.4551">
        <ele>495.9</ele>
        <time>2020-08-25T08:00:18.000Z</time>
      </trkpt>
      <trkpt lat="44.35046" lon="3.4551">
        <ele>496</ele>
        <time>2020-08-25T08:00:20.000Z</time>
      </trkpt>
      <trkpt lat="44.35046" lon="3.4551">
        <ele>496</ele>
        <time>2020-08-25T08:00:20.000Z</time>
      </trkpt>
      <trkpt lat="44.35049" lon="3.45505">
        <ele>496.4</ele>
        <time>2020-08-25T08:00:22.000Z</time>
      </trkpt>
      <trkpt lat="44.35049" lon="3.45505">
        <ele>496.4</ele>
        <time>2020-08-25T08:00:24.000Z</time>
      </trkpt>
      <trkpt lat="44.3505" lon="3.45503">
        <ele>496.6</ele>
        <time>2020-08-25T08:00:25.000Z</time>
      </trkpt>
      <trkpt lat="44.35053" lon="3.45499">
        <ele>497</ele>
        <time>2020-08-25T08:00:27.000Z</time>
      </trkpt>
      <trkpt lat="44.35055" lon="3.45495">
        <ele>497.4</ele>
        <time>2020-08-25T08:00:29.000Z</time>
      </trkpt>
      <trkpt lat="44.35055" lon="3.45494">
        <ele>497.5</ele>
        <time>2020-08-25T08:00:30.000Z</time>
      </trkpt>
      <trkpt lat="44.35055" lon="3.45493">
        <ele>497.5</ele>
        <time>2020-08-25T08:00:31.000Z</time>
      </trkpt>
      <trkpt lat="44.35056" lon="3.45492">
        <ele>497.7</ele>
        <time>2020-08-25T08:00:33.000Z</time>
      </trkpt>
      <trkpt lat="44.35056" lon="3.4549">
        <ele>497.8</ele>
        <time>2020-08-25T08:00:35.000Z</time>
      </trkpt>
      <trkpt lat="44.35056" lon="3.45488">
        <ele>498</ele>
        <time>2020-08-25T08:00:37.000Z</time>
      </trkpt>
      <trkpt lat="44.35056" lon="3.45488">
        <ele>498</ele>
        <time>2020-08-25T08:00:38.000Z</time>
      </trkpt>
      <trkpt lat="44.35056" lon="3.45488">
        <ele>498</ele>
        <time>2020-08-25T08:00:40.000Z</time>
      </trkpt>
      <trkpt lat="44.35056" lon="3.45488">
        <ele>498</ele>
        <time>2020-08-25T08:00:41.000Z</time>
      </trkpt>
      <trkpt lat="44.35057" lon="3.45486">
        <ele>498.1</ele>
        <time>2020-08-25T08:00:42.000Z</time>
      </trkpt>
      <trkpt lat="44.35059" lon="3.45482">
        <ele>498.4</ele>
        <time>2020-08-25T08:00:44.000Z</time>
      </trkpt>
      <trkpt lat="44.35059" lon="3.45482">
        <ele>498.5</ele>
        <time>2020-08-25T08:00:45.000Z</time>
      </trkpt>
      <trkpt lat="44.35062" lon="3.45476">
        <ele>498.9</ele>
        <time>2020-08-25T08:01:54.000Z</time>
      </trkpt>
      <trkpt lat="44.35065" lon="3.45471">
        <ele>499.2</ele>
        <time>2020-08-25T08:01:56.000Z</time>
      </trkpt>
      <trkpt lat="44.35068" lon="3.45468">
        <ele>499.4</ele>
        <time>2020-08-25T08:01:58.000Z</time>
      </trkpt>
      <trkpt lat="44.35071" lon="3.45465">
        <ele>499.6</ele>
        <time>2020-08-25T08:02:00.000Z</time>
      </trkpt>
      <trkpt lat="44.35074" lon="3.45461">
        <ele>499.9</ele>
        <time>2020-08-25T08:02:02.000Z</time>
      </trkpt>
      <trkpt lat="44.35075" lon="3.4546">
        <ele>500</ele>
        <time>2020-08-25T08:02:03.000Z</time>
      </trkpt>
      <trkpt lat="44.35076" lon="3.45458">
        <ele>500.1</ele>
        <time>2020-08-25T08:02:05.000Z</time>
      </trkpt>
      <trkpt lat="44.35076" lon="3.45458">
        <ele>500.1</ele>
        <time>2020-08-25T08:02:07.000Z</time>
      </trkpt>
      <trkpt lat="44.35076" lon="3.45458">
        <ele>500.1</ele>
        <time>2020-08-25T08:02:08.000Z</time>
      </trkpt>
      <trkpt lat="44.35076" lon="3.45458">
        <ele>500.1</ele>
        <time>2020-08-25T08:02:10.000Z</time>
      </trkpt>
      <trkpt lat="44.35078" lon="3.45453">
        <ele>500.4</ele>
        <time>2020-08-25T08:02:12.000Z</time>
      </trkpt>
      <trkpt lat="44.35083" lon="3.45447">
        <ele>500.8</ele>
        <time>2020-08-25T08:02:14.000Z</time>
      </trkpt>
      <trkpt lat="44.35084" lon="3.45444">
        <ele>501</ele>
        <time>2020-08-25T08:02:15.000Z</time>
      </trkpt>
      <trkpt lat="44.35085" lon="3.45443">
        <ele>501.1</ele>
        <time>2020-08-25T08:02:16.000Z</time>
      </trkpt>
      <trkpt lat="44.35086" lon="3.45442">
        <ele>501.2</ele>
        <time>2020-08-25T08:02:17.000Z</time>
      </trkpt>
      <trkpt lat="44.35087" lon="3.4544">
        <ele>501.4</ele>
        <time>2020-08-25T08:02:18.000Z</time>
      </trkpt>
      <trkpt lat="44.35092" lon="3.45434">
        <ele>502</ele>
        <time>2020-08-25T08:02:20.000Z</time>
      </trkpt>
      <trkpt lat="44.35093" lon="3.45432">
        <ele>502.2</ele>
        <time>2020-08-25T08:02:22.000Z</time>
      </trkpt>
      <trkpt lat="44.35095" lon="3.45429">
        <ele>502.6</ele>
        <time>2020-08-25T08:02:24.000Z</time>
      </trkpt>
      <trkpt lat="44.35095" lon="3.45427">
        <ele>502.7</ele>
        <time>2020-08-25T08:02:25.000Z</time>
      </trkpt>
      <trkpt lat="44.35095" lon="3.45425">
        <ele>502.9</ele>
        <time>2020-08-25T08:02:26.000Z</time>
      </trkpt>
      <trkpt lat="44.35097" lon="3.4542">
        <ele>503.5</ele>
        <time>2020-08-25T08:02:28.000Z</time>
      </trkpt>
      <trkpt lat="44.35098" lon="3.45419">
        <ele>503.6</ele>
        <time>2020-08-25T08:02:30.000Z</time>
      </trkpt>
      <trkpt lat="44.35099" lon="3.45418">
        <ele>503.8</ele>
        <time>2020-08-25T08:02:31.000Z</time>
      </trkpt>
      <trkpt lat="44.35099" lon="3.45418">
        <ele>503.8</ele>
        <time>2020-08-25T08:02:32.000Z</time>
      </trkpt>
      <trkpt lat="44.35101" lon="3.45418">
        <ele>504</ele>
        <time>2020-08-25T08:02:34.000Z</time>
      </trkpt>
      <trkpt lat="44.35102" lon="3.45417">
        <ele>504.1</ele>
        <time>2020-08-25T08:02:35.000Z</time>
      </trkpt>
      <trkpt lat="44.35103" lon="3.45416">
        <ele>504.3</ele>
        <time>2020-08-25T08:02:36.000Z</time>
      </trkpt>
      <trkpt lat="44.35104" lon="3.45415">
        <ele>504.5</ele>
        <time>2020-08-25T08:02:37.000Z</time>
      </trkpt>
      <trkpt lat="44.35106" lon="3.45414">
        <ele>504.7</ele>
        <time>2020-08-25T08:02:38.000Z</time>
      </trkpt>
      <trkpt lat="44.35108" lon="3.45413">
        <ele>504.9</ele>
        <time>2020-08-25T08:02:40.000Z</time>
      </trkpt>
      <trkpt lat="44.3511" lon="3.45411">
        <ele>505.2</ele>
        <time>2020-08-25T08:02:41.000Z</time>
      </trkpt>
      <trkpt lat="44.35111" lon="3.4541">
        <ele>505.3</ele>
        <time>2020-08-25T08:02:43.000Z</time>
      </trkpt>
      <trkpt lat="44.35113" lon="3.45409">
        <ele>505.5</ele>
        <time>2020-08-25T08:02:45.000Z</time>
      </trkpt>
      <trkpt lat="44.35115" lon="3.45408">
        <ele>505.8</ele>
        <time>2020-08-25T08:02:47.000Z</time>
      </trkpt>
      <trkpt lat="44.35115" lon="3.45407">
        <ele>505.9</ele>
        <time>2020-08-25T08:02:48.000Z</time>
      </trkpt>
      <trkpt lat="44.35117" lon="3.45405">
        <ele>506.1</ele>
        <time>2020-08-25T08:02:50.000Z</time>
      </trkpt>
      <trkpt lat="44.35118" lon="3.45404">
        <ele>506.2</ele>
        <time>2020-08-25T08:02:51.000Z</time>
      </trkpt>
      <trkpt lat="44.3512" lon="3.45401">
        <ele>506.5</ele>
        <time>2020-08-25T08:02:53.000Z</time>
      </trkpt>
      <trkpt lat="44.35121" lon="3.454">
        <ele>506.6</ele>
        <time>2020-08-25T08:02:54.000Z</time>
      </trkpt>
      <trkpt lat="44.35122" lon="3.45399">
        <ele>506.6</ele>
        <time>2020-08-25T08:02:55.000Z</time>
      </trkpt>
      <trkpt lat="44.35123" lon="3.45398">
        <ele>506.7</ele>
        <time>2020-08-25T08:02:56.000Z</time>
      </trkpt>
      <trkpt lat="44.35125" lon="3.45394">
        <ele>507</ele>
        <time>2020-08-25T08:02:58.000Z</time>
      </trkpt>
      <trkpt lat="44.35126" lon="3.45392">
        <ele>507.2</ele>
        <time>2020-08-25T08:02:59.000Z</time>
      </trkpt>
      <trkpt lat="44.35127" lon="3.4539">
        <ele>507.2</ele>
        <time>2020-08-25T08:03:01.000Z</time>
      </trkpt>
      <trkpt lat="44.35128" lon="3.45389">
        <ele>507.3</ele>
        <time>2020-08-25T08:03:02.000Z</time>
      </trkpt>
      <trkpt lat="44.35129" lon="3.45387">
        <ele>507.5</ele>
        <time>2020-08-25T08:03:04.000Z</time>
      </trkpt>
      <trkpt lat="44.3513" lon="3.45385">
        <ele>507.6</ele>
        <time>2020-08-25T08:03:05.000Z</time>
      </trkpt>
      <trkpt lat="44.35131" lon="3.45383">
        <ele>507.7</ele>
        <time>2020-08-25T08:03:07.000Z</time>
      </trkpt>
      <trkpt lat="44.35132" lon="3.45382">
        <ele>507.8</ele>
        <time>2020-08-25T08:03:08.000Z</time>
      </trkpt>
      <trkpt lat="44.35133" lon="3.4538">
        <ele>507.9</ele>
        <time>2020-08-25T08:03:09.000Z</time>
      </trkpt>
      <trkpt lat="44.35136" lon="3.45378">
        <ele>508.1</ele>
        <time>2020-08-25T08:03:11.000Z</time>
      </trkpt>
      <trkpt lat="44.35136" lon="3.45377">
        <ele>508.2</ele>
        <time>2020-08-25T08:03:12.000Z</time>
      </trkpt>
      <trkpt lat="44.35138" lon="3.45375">
        <ele>508.4</ele>
        <time>2020-08-25T08:03:13.000Z</time>
      </trkpt>
      <trkpt lat="44.35139" lon="3.45374">
        <ele>508.5</ele>
        <time>2020-08-25T08:03:15.000Z</time>
      </trkpt>
      <trkpt lat="44.35141" lon="3.45372">
        <ele>508.6</ele>
        <time>2020-08-25T08:03:16.000Z</time>
      </trkpt>
      <trkpt lat="44.35142" lon="3.45371">
        <ele>508.7</ele>
        <time>2020-08-25T08:03:17.000Z</time>
      </trkpt>
      <trkpt lat="44.35145" lon="3.45369">
        <ele>508.9</ele>
        <time>2020-08-25T08:03:19.000Z</time>
      </trkpt>
      <trkpt lat="44.35147" lon="3.45367">
        <ele>509.1</ele>
        <time>2020-08-25T08:03:20.000Z</time>
      </trkpt>
      <trkpt lat="44.35148" lon="3.45366">
        <ele>509.2</ele>
        <time>2020-08-25T08:03:22.000Z</time>
      </trkpt>
      <trkpt lat="44.3515" lon="3.45365">
        <ele>509.3</ele>
        <time>2020-08-25T08:03:23.000Z</time>
      </trkpt>
      <trkpt lat="44.35151" lon="3.45363">
        <ele>509.3</ele>
        <time>2020-08-25T08:03:24.000Z</time>
      </trkpt>
      <trkpt lat="44.35153" lon="3.45362">
        <ele>509.4</ele>
        <time>2020-08-25T08:03:25.000Z</time>
      </trkpt>
      <trkpt lat="44.35153" lon="3.45362">
        <ele>509.5</ele>
        <time>2020-08-25T08:03:26.000Z</time>
      </trkpt>
      <trkpt lat="44.35155" lon="3.45361">
        <ele>509.5</ele>
        <time>2020-08-25T08:03:28.000Z</time>
      </trkpt>
      <trkpt lat="44.35155" lon="3.45361">
        <ele>509.6</ele>
        <time>2020-08-25T08:03:29.000Z</time>
      </trkpt>
      <trkpt lat="44.35156" lon="3.45361">
        <ele>509.6</ele>
        <time>2020-08-25T08:03:31.000Z</time>
      </trkpt>
      <trkpt lat="44.35156" lon="3.45361">
        <ele>509.6</ele>
        <time>2020-08-25T08:03:32.000Z</time>
      </trkpt>
      <trkpt lat="44.35158" lon="3.45359">
        <ele>509.7</ele>
        <time>2020-08-25T08:03:34.000Z</time>
      </trkpt>
      <trkpt lat="44.35159" lon="3.45359">
        <ele>509.7</ele>
        <time>2020-08-25T08:03:35.000Z</time>
      </trkpt>
      <trkpt lat="44.3516" lon="3.45358">
        <ele>509.8</ele>
        <time>2020-08-25T08:03:36.000Z</time>
      </trkpt>
      <trkpt lat="44.35163" lon="3.45355">
        <ele>509.9</ele>
        <time>2020-08-25T08:03:38.000Z</time>
      </trkpt>
      <trkpt lat="44.35165" lon="3.45354">
        <ele>510</ele>
        <time>2020-08-25T08:03:39.000Z</time>
      </trkpt>
      <trkpt lat="44.35166" lon="3.45353">
        <ele>510</ele>
        <time>2020-08-25T08:03:40.000Z</time>
      </trkpt>
      <trkpt lat="44.35167" lon="3.4535">
        <ele>510.1</ele>
        <time>2020-08-25T08:03:41.000Z</time>
      </trkpt>
      <trkpt lat="44.35168" lon="3.45349">
        <ele>510.1</ele>
        <time>2020-08-25T08:03:42.000Z</time>
      </trkpt>
      <trkpt lat="44.3517" lon="3.45344">
        <ele>510.2</ele>
        <time>2020-08-25T08:03:44.000Z</time>
      </trkpt>
      <trkpt lat="44.35171" lon="3.45342">
        <ele>510.2</ele>
        <time>2020-08-25T08:03:45.000Z</time>
      </trkpt>
      <trkpt lat="44.35173" lon="3.4534">
        <ele>510.2</ele>
        <time>2020-08-25T08:03:47.000Z</time>
      </trkpt>
      <trkpt lat="44.35175" lon="3.45337">
        <ele>510.2</ele>
        <time>2020-08-25T08:03:48.000Z</time>
      </trkpt>
      <trkpt lat="44.35178" lon="3.45333">
        <ele>510.3</ele>
        <time>2020-08-25T08:03:49.000Z</time>
      </trkpt>
      <trkpt lat="44.35181" lon="3.45328">
        <ele>510.4</ele>
        <time>2020-08-25T08:03:50.000Z</time>
      </trkpt>
      <trkpt lat="44.35184" lon="3.45325">
        <ele>510.4</ele>
        <time>2020-08-25T08:03:51.000Z</time>
      </trkpt>
      <trkpt lat="44.35186" lon="3.45321">
        <ele>510.5</ele>
        <time>2020-08-25T08:03:52.000Z</time>
      </trkpt>
      <trkpt lat="44.35189" lon="3.45316">
        <ele>510.7</ele>
        <time>2020-08-25T08:03:54.000Z</time>
      </trkpt>
      <trkpt lat="44.35191" lon="3.45312">
        <ele>510.8</ele>
        <time>2020-08-25T08:03:55.000Z</time>
      </trkpt>
      <trkpt lat="44.35191" lon="3.4531">
        <ele>510.8</ele>
        <time>2020-08-25T08:03:56.000Z</time>
      </trkpt>
      <trkpt lat="44.35192" lon="3.45307">
        <ele>510.9</ele>
        <time>2020-08-25T08:03:57.000Z</time>
      </trkpt>
      <trkpt lat="44.35192" lon="3.45303">
        <ele>511</ele>
        <time>2020-08-25T08:03:59.000Z</time>
      </trkpt>
      <trkpt lat="44.35193" lon="3.45299">
        <ele>511.1</ele>
        <time>2020-08-25T08:04:00.000Z</time>
      </trkpt>
      <trkpt lat="44.35193" lon="3.45294">
        <ele>511.3</ele>
        <time>2020-08-25T08:04:02.000Z</time>
      </trkpt>
      <trkpt lat="44.35194" lon="3.45288">
        <ele>511.5</ele>
        <time>2020-08-25T08:04:03.000Z</time>
      </trkpt>
      <trkpt lat="44.35195" lon="3.45286">
        <ele>511.6</ele>
        <time>2020-08-25T08:04:04.000Z</time>
      </trkpt>
      <trkpt lat="44.35195" lon="3.4528">
        <ele>511.8</ele>
        <time>2020-08-25T08:04:06.000Z</time>
      </trkpt>
      <trkpt lat="44.35196" lon="3.45277">
        <ele>511.9</ele>
        <time>2020-08-25T08:04:07.000Z</time>
      </trkpt>
      <trkpt lat="44.35197" lon="3.45273">
        <ele>512.2</ele>
        <time>2020-08-25T08:04:08.000Z</time>
      </trkpt>
      <trkpt lat="44.35199" lon="3.45267">
        <ele>512.5</ele>
        <time>2020-08-25T08:04:10.000Z</time>
      </trkpt>
      <trkpt lat="44.352" lon="3.45263">
        <ele>512.7</ele>
        <time>2020-08-25T08:04:11.000Z</time>
      </trkpt>
      <trkpt lat="44.35202" lon="3.4526">
        <ele>512.9</ele>
        <time>2020-08-25T08:04:12.000Z</time>
      </trkpt>
      <trkpt lat="44.35204" lon="3.45254">
        <ele>513.3</ele>
        <time>2020-08-25T08:04:14.000Z</time>
      </trkpt>
      <trkpt lat="44.35205" lon="3.4525">
        <ele>513.7</ele>
        <time>2020-08-25T08:04:15.000Z</time>
      </trkpt>
      <trkpt lat="44.35205" lon="3.45248">
        <ele>513.8</ele>
        <time>2020-08-25T08:04:16.000Z</time>
      </trkpt>
      <trkpt lat="44.35206" lon="3.45243">
        <ele>514.2</ele>
        <time>2020-08-25T08:04:17.000Z</time>
      </trkpt>
      <trkpt lat="44.35206" lon="3.45241">
        <ele>514.3</ele>
        <time>2020-08-25T08:04:18.000Z</time>
      </trkpt>
      <trkpt lat="44.35206" lon="3.45237">
        <ele>514.6</ele>
        <time>2020-08-25T08:04:20.000Z</time>
      </trkpt>
      <trkpt lat="44.35206" lon="3.45236">
        <ele>514.6</ele>
        <time>2020-08-25T08:04:21.000Z</time>
      </trkpt>
      <trkpt lat="44.35208" lon="3.45232">
        <ele>514.9</ele>
        <time>2020-08-25T08:04:22.000Z</time>
      </trkpt>
      <trkpt lat="44.35208" lon="3.45231">
        <ele>515</ele>
        <time>2020-08-25T08:04:23.000Z</time>
      </trkpt>
      <trkpt lat="44.35209" lon="3.45228">
        <ele>515.2</ele>
        <time>2020-08-25T08:04:25.000Z</time>
      </trkpt>
      <trkpt lat="44.35209" lon="3.45226">
        <ele>515.2</ele>
        <time>2020-08-25T08:04:26.000Z</time>
      </trkpt>
      <trkpt lat="44.35209" lon="3.45223">
        <ele>515.4</ele>
        <time>2020-08-25T08:04:27.000Z</time>
      </trkpt>
      <trkpt lat="44.3521" lon="3.45222">
        <ele>515.5</ele>
        <time>2020-08-25T08:04:28.000Z</time>
      </trkpt>
      <trkpt lat="44.3521" lon="3.45221">
        <ele>515.5</ele>
        <time>2020-08-25T08:04:29.000Z</time>
      </trkpt>
      <trkpt lat="44.3521" lon="3.4522">
        <ele>515.6</ele>
        <time>2020-08-25T08:04:30.000Z</time>
      </trkpt>
      <trkpt lat="44.3521" lon="3.4522">
        <ele>515.6</ele>
        <time>2020-08-25T08:04:32.000Z</time>
      </trkpt>
      <trkpt lat="44.35209" lon="3.4522">
        <ele>515.6</ele>
        <time>2020-08-25T08:04:34.000Z</time>
      </trkpt>
      <trkpt lat="44.35209" lon="3.4522">
        <ele>515.6</ele>
        <time>2020-08-25T08:04:35.000Z</time>
      </trkpt>
      <trkpt lat="44.35209" lon="3.45219">
        <ele>515.7</ele>
        <time>2020-08-25T08:04:37.000Z</time>
      </trkpt>
      <trkpt lat="44.35209" lon="3.45218">
        <ele>515.7</ele>
        <time>2020-08-25T08:04:38.000Z</time>
      </trkpt>
      <trkpt lat="44.35209" lon="3.45214">
        <ele>515.8</ele>
        <time>2020-08-25T08:04:40.000Z</time>
      </trkpt>
      <trkpt lat="44.35209" lon="3.45214">
        <ele>515.9</ele>
        <time>2020-08-25T08:04:42.000Z</time>
      </trkpt>
      <trkpt lat="44.35209" lon="3.45214">
        <ele>515.9</ele>
        <time>2020-08-25T08:04:44.000Z</time>
      </trkpt>
      <trkpt lat="44.35209" lon="3.45214">
        <ele>515.9</ele>
        <time>2020-08-25T08:04:45.000Z</time>
      </trkpt>
      <trkpt lat="44.3521" lon="3.45214">
        <ele>515.9</ele>
        <time>2020-08-25T08:04:47.000Z</time>
      </trkpt>
      <trkpt lat="44.3521" lon="3.45213">
        <ele>515.9</ele>
        <time>2020-08-25T08:04:48.000Z</time>
      </trkpt>
      <trkpt lat="44.3521" lon="3.45213">
        <ele>516</ele>
        <time>2020-08-25T08:04:49.000Z</time>
      </trkpt>
      <trkpt lat="44.3521" lon="3.45211">
        <ele>516</ele>
        <time>2020-08-25T08:04:51.000Z</time>
      </trkpt>
      <trkpt lat="44.3521" lon="3.45208">
        <ele>516.1</ele>
        <time>2020-08-25T08:04:53.000Z</time>
      </trkpt>
      <trkpt lat="44.3521" lon="3.45206">
        <ele>516.2</ele>
        <time>2020-08-25T08:04:54.000Z</time>
      </trkpt>
      <trkpt lat="44.35211" lon="3.45204">
        <ele>516.3</ele>
        <time>2020-08-25T08:04:56.000Z</time>
      </trkpt>
      <trkpt lat="44.35211" lon="3.45201">
        <ele>516.4</ele>
        <time>2020-08-25T08:04:57.000Z</time>
      </trkpt>
      <trkpt lat="44.35211" lon="3.452">
        <ele>516.4</ele>
        <time>2020-08-25T08:04:58.000Z</time>
      </trkpt>
      <trkpt lat="44.35211" lon="3.45197">
        <ele>516.5</ele>
        <time>2020-08-25T08:05:00.000Z</time>
      </trkpt>
      <trkpt lat="44.35211" lon="3.45196">
        <ele>516.5</ele>
        <time>2020-08-25T08:05:01.000Z</time>
      </trkpt>
      <trkpt lat="44.35211" lon="3.45194">
        <ele>516.5</ele>
        <time>2020-08-25T08:05:02.000Z</time>
      </trkpt>
      <trkpt lat="44.35212" lon="3.45194">
        <ele>516.6</ele>
        <time>2020-08-25T08:05:04.000Z</time>
      </trkpt>
      <trkpt lat="44.35214" lon="3.45193">
        <ele>516.6</ele>
        <time>2020-08-25T08:05:06.000Z</time>
      </trkpt>
      <trkpt lat="44.35214" lon="3.4519">
        <ele>516.6</ele>
        <time>2020-08-25T08:05:07.000Z</time>
      </trkpt>
      <trkpt lat="44.35214" lon="3.45189">
        <ele>516.7</ele>
        <time>2020-08-25T08:05:09.000Z</time>
      </trkpt>
      <trkpt lat="44.35215" lon="3.45188">
        <ele>516.7</ele>
        <time>2020-08-25T08:05:10.000Z</time>
      </trkpt>
      <trkpt lat="44.35215" lon="3.45186">
        <ele>516.7</ele>
        <time>2020-08-25T08:05:11.000Z</time>
      </trkpt>
      <trkpt lat="44.35216" lon="3.45183">
        <ele>516.8</ele>
        <time>2020-08-25T08:05:13.000Z</time>
      </trkpt>
      <trkpt lat="44.35216" lon="3.45181">
        <ele>516.8</ele>
        <time>2020-08-25T08:05:15.000Z</time>
      </trkpt>
      <trkpt lat="44.35217" lon="3.45178">
        <ele>516.8</ele>
        <time>2020-08-25T08:05:16.000Z</time>
      </trkpt>
      <trkpt lat="44.35217" lon="3.45176">
        <ele>516.8</ele>
        <time>2020-08-25T08:05:17.000Z</time>
      </trkpt>
      <trkpt lat="44.35217" lon="3.45174">
        <ele>516.8</ele>
        <time>2020-08-25T08:05:18.000Z</time>
      </trkpt>
      <trkpt lat="44.35217" lon="3.45169">
        <ele>516.8</ele>
        <time>2020-08-25T08:05:20.000Z</time>
      </trkpt>
      <trkpt lat="44.35217" lon="3.45167">
        <ele>516.8</ele>
        <time>2020-08-25T08:05:21.000Z</time>
      </trkpt>
      <trkpt lat="44.35217" lon="3.45164">
        <ele>516.8</ele>
        <time>2020-08-25T08:05:22.000Z</time>
      </trkpt>
      <trkpt lat="44.35217" lon="3.4516">
        <ele>516.7</ele>
        <time>2020-08-25T08:05:23.000Z</time>
      </trkpt>
      <trkpt lat="44.35217" lon="3.45158">
        <ele>516.7</ele>
        <time>2020-08-25T08:05:24.000Z</time>
      </trkpt>
      <trkpt lat="44.35216" lon="3.45153">
        <ele>516.7</ele>
        <time>2020-08-25T08:05:26.000Z</time>
      </trkpt>
      <trkpt lat="44.35215" lon="3.45148">
        <ele>516.7</ele>
        <time>2020-08-25T08:05:27.000Z</time>
      </trkpt>
      <trkpt lat="44.35215" lon="3.45146">
        <ele>516.7</ele>
        <time>2020-08-25T08:05:28.000Z</time>
      </trkpt>
      <trkpt lat="44.35215" lon="3.45143">
        <ele>516.6</ele>
        <time>2020-08-25T08:05:29.000Z</time>
      </trkpt>
      <trkpt lat="44.35214" lon="3.45138">
        <ele>516.6</ele>
        <time>2020-08-25T08:05:31.000Z</time>
      </trkpt>
      <trkpt lat="44.35214" lon="3.45132">
        <ele>516.6</ele>
        <time>2020-08-25T08:05:32.000Z</time>
      </trkpt>
      <trkpt lat="44.35214" lon="3.45128">
        <ele>516.6</ele>
        <time>2020-08-25T08:05:33.000Z</time>
      </trkpt>
      <trkpt lat="44.35213" lon="3.45126">
        <ele>516.6</ele>
        <time>2020-08-25T08:05:34.000Z</time>
      </trkpt>
      <trkpt lat="44.35213" lon="3.45122">
        <ele>516.6</ele>
        <time>2020-08-25T08:05:35.000Z</time>
      </trkpt>
      <trkpt lat="44.35212" lon="3.45118">
        <ele>516.6</ele>
        <time>2020-08-25T08:05:37.000Z</time>
      </trkpt>
      <trkpt lat="44.35212" lon="3.45113">
        <ele>516.6</ele>
        <time>2020-08-25T08:05:38.000Z</time>
      </trkpt>
      <trkpt lat="44.35212" lon="3.45106">
        <ele>516.5</ele>
        <time>2020-08-25T08:05:39.000Z</time>
      </trkpt>
      <trkpt lat="44.35211" lon="3.45101">
        <ele>516.5</ele>
        <time>2020-08-25T08:05:40.000Z</time>
      </trkpt>
      <trkpt lat="44.3521" lon="3.45094">
        <ele>516.5</ele>
        <time>2020-08-25T08:05:42.000Z</time>
      </trkpt>
      <trkpt lat="44.35208" lon="3.45087">
        <ele>516.5</ele>
        <time>2020-08-25T08:05:43.000Z</time>
      </trkpt>
      <trkpt lat="44.35207" lon="3.45083">
        <ele>516.4</ele>
        <time>2020-08-25T08:05:44.000Z</time>
      </trkpt>
      <trkpt lat="44.35204" lon="3.45077">
        <ele>516.2</ele>
        <time>2020-08-25T08:05:46.000Z</time>
      </trkpt>
      <trkpt lat="44.35203" lon="3.45072">
        <ele>516.1</ele>
        <time>2020-08-25T08:05:47.000Z</time>
      </trkpt>
      <trkpt lat="44.35202" lon="3.45068">
        <ele>515.9</ele>
        <time>2020-08-25T08:05:48.000Z</time>
      </trkpt>
      <trkpt lat="44.352" lon="3.45064">
        <ele>515.7</ele>
        <time>2020-08-25T08:05:50.000Z</time>
      </trkpt>
      <trkpt lat="44.35198" lon="3.45057">
        <ele>515.5</ele>
        <time>2020-08-25T08:05:52.000Z</time>
      </trkpt>
      <trkpt lat="44.35198" lon="3.45052">
        <ele>515.3</ele>
        <time>2020-08-25T08:05:53.000Z</time>
      </trkpt>
      <trkpt lat="44.35197" lon="3.45049">
        <ele>515.2</ele>
        <time>2020-08-25T08:05:54.000Z</time>
      </trkpt>
      <trkpt lat="44.35196" lon="3.45041">
        <ele>514.9</ele>
        <time>2020-08-25T08:05:56.000Z</time>
      </trkpt>
      <trkpt lat="44.35196" lon="3.45039">
        <ele>514.8</ele>
        <time>2020-08-25T08:05:57.000Z</time>
      </trkpt>
      <trkpt lat="44.35195" lon="3.45036">
        <ele>514.7</ele>
        <time>2020-08-25T08:05:58.000Z</time>
      </trkpt>
      <trkpt lat="44.35194" lon="3.45032">
        <ele>514.6</ele>
        <time>2020-08-25T08:05:59.000Z</time>
      </trkpt>
      <trkpt lat="44.35194" lon="3.45027">
        <ele>514.3</ele>
        <time>2020-08-25T08:06:01.000Z</time>
      </trkpt>
      <trkpt lat="44.35193" lon="3.45021">
        <ele>514</ele>
        <time>2020-08-25T08:06:03.000Z</time>
      </trkpt>
      <trkpt lat="44.35193" lon="3.45014">
        <ele>513.7</ele>
        <time>2020-08-25T08:06:04.000Z</time>
      </trkpt>
      <trkpt lat="44.35192" lon="3.45009">
        <ele>513.3</ele>
        <time>2020-08-25T08:06:06.000Z</time>
      </trkpt>
      <trkpt lat="44.35191" lon="3.45002">
        <ele>512.9</ele>
        <time>2020-08-25T08:06:07.000Z</time>
      </trkpt>
      <trkpt lat="44.35189" lon="3.44993">
        <ele>512.3</ele>
        <time>2020-08-25T08:06:09.000Z</time>
      </trkpt>
      <trkpt lat="44.35188" lon="3.44987">
        <ele>512.1</ele>
        <time>2020-08-25T08:06:10.000Z</time>
      </trkpt>
      <trkpt lat="44.35187" lon="3.44982">
        <ele>511.8</ele>
        <time>2020-08-25T08:06:11.000Z</time>
      </trkpt>
      <trkpt lat="44.35186" lon="3.44978">
        <ele>511.6</ele>
        <time>2020-08-25T08:06:12.000Z</time>
      </trkpt>
      <trkpt lat="44.35184" lon="3.44971">
        <ele>511.2</ele>
        <time>2020-08-25T08:06:14.000Z</time>
      </trkpt>
      <trkpt lat="44.35183" lon="3.44965">
        <ele>511</ele>
        <time>2020-08-25T08:06:15.000Z</time>
      </trkpt>
      <trkpt lat="44.35183" lon="3.44959">
        <ele>510.8</ele>
        <time>2020-08-25T08:06:17.000Z</time>
      </trkpt>
      <trkpt lat="44.35181" lon="3.44949">
        <ele>510.5</ele>
        <time>2020-08-25T08:06:19.000Z</time>
      </trkpt>
      <trkpt lat="44.35178" lon="3.44942">
        <ele>510.4</ele>
        <time>2020-08-25T08:06:20.000Z</time>
      </trkpt>
      <trkpt lat="44.35176" lon="3.44936">
        <ele>510.6</ele>
        <time>2020-08-25T08:06:22.000Z</time>
      </trkpt>
      <trkpt lat="44.35174" lon="3.44933">
        <ele>510.7</ele>
        <time>2020-08-25T08:06:23.000Z</time>
      </trkpt>
      <trkpt lat="44.35173" lon="3.4493">
        <ele>510.8</ele>
        <time>2020-08-25T08:06:25.000Z</time>
      </trkpt>
      <trkpt lat="44.35172" lon="3.44929">
        <ele>510.9</ele>
        <time>2020-08-25T08:06:26.000Z</time>
      </trkpt>
      <trkpt lat="44.35171" lon="3.44926">
        <ele>510.9</ele>
        <time>2020-08-25T08:06:27.000Z</time>
      </trkpt>
      <trkpt lat="44.3517" lon="3.44924">
        <ele>511</ele>
        <time>2020-08-25T08:06:29.000Z</time>
      </trkpt>
      <trkpt lat="44.3517" lon="3.44922">
        <ele>511</ele>
        <time>2020-08-25T08:06:30.000Z</time>
      </trkpt>
      <trkpt lat="44.35171" lon="3.4492">
        <ele>511</ele>
        <time>2020-08-25T08:06:31.000Z</time>
      </trkpt>
      <trkpt lat="44.3517" lon="3.44916">
        <ele>511.1</ele>
        <time>2020-08-25T08:06:32.000Z</time>
      </trkpt>
      <trkpt lat="44.3517" lon="3.44915">
        <ele>511.1</ele>
        <time>2020-08-25T08:06:33.000Z</time>
      </trkpt>
      <trkpt lat="44.3517" lon="3.44913">
        <ele>511.2</ele>
        <time>2020-08-25T08:06:35.000Z</time>
      </trkpt>
      <trkpt lat="44.35171" lon="3.44912">
        <ele>511.2</ele>
        <time>2020-08-25T08:06:36.000Z</time>
      </trkpt>
      <trkpt lat="44.35172" lon="3.4491">
        <ele>511.2</ele>
        <time>2020-08-25T08:06:37.000Z</time>
      </trkpt>
      <trkpt lat="44.35172" lon="3.44908">
        <ele>511.3</ele>
        <time>2020-08-25T08:06:38.000Z</time>
      </trkpt>
      <trkpt lat="44.35173" lon="3.44906">
        <ele>511.3</ele>
        <time>2020-08-25T08:06:39.000Z</time>
      </trkpt>
      <trkpt lat="44.35173" lon="3.44904">
        <ele>511.4</ele>
        <time>2020-08-25T08:06:40.000Z</time>
      </trkpt>
      <trkpt lat="44.35172" lon="3.449">
        <ele>511.5</ele>
        <time>2020-08-25T08:06:42.000Z</time>
      </trkpt>
      <trkpt lat="44.35172" lon="3.44898">
        <ele>511.6</ele>
        <time>2020-08-25T08:06:43.000Z</time>
      </trkpt>
      <trkpt lat="44.35172" lon="3.44896">
        <ele>511.7</ele>
        <time>2020-08-25T08:06:44.000Z</time>
      </trkpt>
      <trkpt lat="44.35171" lon="3.44893">
        <ele>511.8</ele>
        <time>2020-08-25T08:06:46.000Z</time>
      </trkpt>
      <trkpt lat="44.3517" lon="3.44891">
        <ele>511.9</ele>
        <time>2020-08-25T08:06:47.000Z</time>
      </trkpt>
      <trkpt lat="44.3517" lon="3.44886">
        <ele>512.1</ele>
        <time>2020-08-25T08:06:49.000Z</time>
      </trkpt>
      <trkpt lat="44.35169" lon="3.44882">
        <ele>512.2</ele>
        <time>2020-08-25T08:06:50.000Z</time>
      </trkpt>
      <trkpt lat="44.35169" lon="3.44874">
        <ele>512.4</ele>
        <time>2020-08-25T08:06:52.000Z</time>
      </trkpt>
      <trkpt lat="44.35169" lon="3.4487">
        <ele>512.4</ele>
        <time>2020-08-25T08:06:54.000Z</time>
      </trkpt>
      <trkpt lat="44.3517" lon="3.44864">
        <ele>512.3</ele>
        <time>2020-08-25T08:06:56.000Z</time>
      </trkpt>
      <trkpt lat="44.3517" lon="3.44859">
        <ele>512.2</ele>
        <time>2020-08-25T08:06:57.000Z</time>
      </trkpt>
      <trkpt lat="44.3517" lon="3.44854">
        <ele>512</ele>
        <time>2020-08-25T08:06:58.000Z</time>
      </trkpt>
      <trkpt lat="44.35171" lon="3.44849">
        <ele>511.7</ele>
        <time>2020-08-25T08:07:00.000Z</time>
      </trkpt>
      <trkpt lat="44.35171" lon="3.44845">
        <ele>511.5</ele>
        <time>2020-08-25T08:07:01.000Z</time>
      </trkpt>
      <trkpt lat="44.35172" lon="3.44839">
        <ele>511</ele>
        <time>2020-08-25T08:07:03.000Z</time>
      </trkpt>
      <trkpt lat="44.35173" lon="3.4483">
        <ele>510.4</ele>
        <time>2020-08-25T08:07:04.000Z</time>
      </trkpt>
      <trkpt lat="44.35175" lon="3.4482">
        <ele>509.8</ele>
        <time>2020-08-25T08:07:05.000Z</time>
      </trkpt>
      <trkpt lat="44.35176" lon="3.44807">
        <ele>509.3</ele>
        <time>2020-08-25T08:07:07.000Z</time>
      </trkpt>
      <trkpt lat="44.35177" lon="3.44798">
        <ele>509.2</ele>
        <time>2020-08-25T08:07:08.000Z</time>
      </trkpt>
      <trkpt lat="44.35178" lon="3.44789">
        <ele>509.2</ele>
        <time>2020-08-25T08:07:09.000Z</time>
      </trkpt>
      <trkpt lat="44.35178" lon="3.44781">
        <ele>509.3</ele>
        <time>2020-08-25T08:07:11.000Z</time>
      </trkpt>
      <trkpt lat="44.35179" lon="3.44775">
        <ele>509.3</ele>
        <time>2020-08-25T08:07:12.000Z</time>
      </trkpt>
      <trkpt lat="44.3518" lon="3.44772">
        <ele>509.4</ele>
        <time>2020-08-25T08:07:13.000Z</time>
      </trkpt>
      <trkpt lat="44.35181" lon="3.44767">
        <ele>509.4</ele>
        <time>2020-08-25T08:07:14.000Z</time>
      </trkpt>
      <trkpt lat="44.35182" lon="3.44763">
        <ele>509.5</ele>
        <time>2020-08-25T08:07:16.000Z</time>
      </trkpt>
      <trkpt lat="44.35183" lon="3.44759">
        <ele>509.5</ele>
        <time>2020-08-25T08:07:17.000Z</time>
      </trkpt>
      <trkpt lat="44.35185" lon="3.44755">
        <ele>509.5</ele>
        <time>2020-08-25T08:07:19.000Z</time>
      </trkpt>
      <trkpt lat="44.35186" lon="3.44751">
        <ele>509.5</ele>
        <time>2020-08-25T08:07:20.000Z</time>
      </trkpt>
      <trkpt lat="44.35187" lon="3.44746">
        <ele>509.4</ele>
        <time>2020-08-25T08:07:22.000Z</time>
      </trkpt>
      <trkpt lat="44.35189" lon="3.44741">
        <ele>509.4</ele>
        <time>2020-08-25T08:07:23.000Z</time>
      </trkpt>
      <trkpt lat="44.35192" lon="3.44734">
        <ele>509.2</ele>
        <time>2020-08-25T08:07:25.000Z</time>
      </trkpt>
      <trkpt lat="44.35194" lon="3.4473">
        <ele>509</ele>
        <time>2020-08-25T08:07:26.000Z</time>
      </trkpt>
      <trkpt lat="44.35196" lon="3.44726">
        <ele>508.8</ele>
        <time>2020-08-25T08:07:28.000Z</time>
      </trkpt>
      <trkpt lat="44.35198" lon="3.44723">
        <ele>508.7</ele>
        <time>2020-08-25T08:07:29.000Z</time>
      </trkpt>
      <trkpt lat="44.352" lon="3.4472">
        <ele>508.4</ele>
        <time>2020-08-25T08:07:30.000Z</time>
      </trkpt>
      <trkpt lat="44.35205" lon="3.44712">
        <ele>507.8</ele>
        <time>2020-08-25T08:07:32.000Z</time>
      </trkpt>
      <trkpt lat="44.3521" lon="3.44702">
        <ele>507.1</ele>
        <time>2020-08-25T08:07:34.000Z</time>
      </trkpt>
      <trkpt lat="44.35213" lon="3.44696">
        <ele>506.7</ele>
        <time>2020-08-25T08:07:35.000Z</time>
      </trkpt>
      <trkpt lat="44.35217" lon="3.44691">
        <ele>506.5</ele>
        <time>2020-08-25T08:07:36.000Z</time>
      </trkpt>
      <trkpt lat="44.35222" lon="3.44684">
        <ele>506.4</ele>
        <time>2020-08-25T08:07:37.000Z</time>
      </trkpt>
      <trkpt lat="44.35228" lon="3.44677">
        <ele>506.3</ele>
        <time>2020-08-25T08:07:39.000Z</time>
      </trkpt>
      <trkpt lat="44.35231" lon="3.44674">
        <ele>506.3</ele>
        <time>2020-08-25T08:07:40.000Z</time>
      </trkpt>
      <trkpt lat="44.35233" lon="3.44672">
        <ele>506.3</ele>
        <time>2020-08-25T08:07:41.000Z</time>
      </trkpt>
      <trkpt lat="44.35236" lon="3.4467">
        <ele>506.3</ele>
        <time>2020-08-25T08:07:42.000Z</time>
      </trkpt>
      <trkpt lat="44.3524" lon="3.44668">
        <ele>506.2</ele>
        <time>2020-08-25T08:07:44.000Z</time>
      </trkpt>
      <trkpt lat="44.35242" lon="3.44667">
        <ele>506.2</ele>
        <time>2020-08-25T08:07:45.000Z</time>
      </trkpt>
      <trkpt lat="44.35246" lon="3.44664">
        <ele>506.1</ele>
        <time>2020-08-25T08:07:46.000Z</time>
      </trkpt>
      <trkpt lat="44.3525" lon="3.44659">
        <ele>506</ele>
        <time>2020-08-25T08:07:48.000Z</time>
      </trkpt>
      <trkpt lat="44.35252" lon="3.44657">
        <ele>505.9</ele>
        <time>2020-08-25T08:07:49.000Z</time>
      </trkpt>
      <trkpt lat="44.35255" lon="3.44652">
        <ele>505.9</ele>
        <time>2020-08-25T08:07:50.000Z</time>
      </trkpt>
      <trkpt lat="44.35257" lon="3.44648">
        <ele>505.9</ele>
        <time>2020-08-25T08:07:52.000Z</time>
      </trkpt>
      <trkpt lat="44.35259" lon="3.44646">
        <ele>505.8</ele>
        <time>2020-08-25T08:07:53.000Z</time>
      </trkpt>
      <trkpt lat="44.3526" lon="3.44644">
        <ele>505.8</ele>
        <time>2020-08-25T08:07:55.000Z</time>
      </trkpt>
      <trkpt lat="44.35263" lon="3.4464">
        <ele>505.8</ele>
        <time>2020-08-25T08:07:56.000Z</time>
      </trkpt>
      <trkpt lat="44.35264" lon="3.44639">
        <ele>505.7</ele>
        <time>2020-08-25T08:07:57.000Z</time>
      </trkpt>
      <trkpt lat="44.35266" lon="3.44637">
        <ele>505.7</ele>
        <time>2020-08-25T08:07:58.000Z</time>
      </trkpt>
      <trkpt lat="44.35268" lon="3.44636">
        <ele>505.7</ele>
        <time>2020-08-25T08:08:00.000Z</time>
      </trkpt>
      <trkpt lat="44.3527" lon="3.44635">
        <ele>505.6</ele>
        <time>2020-08-25T08:08:01.000Z</time>
      </trkpt>
      <trkpt lat="44.35273" lon="3.44632">
        <ele>505.4</ele>
        <time>2020-08-25T08:08:03.000Z</time>
      </trkpt>
      <trkpt lat="44.35275" lon="3.44628">
        <ele>505.3</ele>
        <time>2020-08-25T08:08:05.000Z</time>
      </trkpt>
      <trkpt lat="44.35277" lon="3.44628">
        <ele>505.2</ele>
        <time>2020-08-25T08:08:06.000Z</time>
      </trkpt>
      <trkpt lat="44.35279" lon="3.44628">
        <ele>505.1</ele>
        <time>2020-08-25T08:08:08.000Z</time>
      </trkpt>
      <trkpt lat="44.35281" lon="3.44627">
        <ele>505</ele>
        <time>2020-08-25T08:08:10.000Z</time>
      </trkpt>
      <trkpt lat="44.35282" lon="3.44626">
        <ele>504.9</ele>
        <time>2020-08-25T08:08:12.000Z</time>
      </trkpt>
      <trkpt lat="44.35284" lon="3.44626">
        <ele>504.8</ele>
        <time>2020-08-25T08:08:13.000Z</time>
      </trkpt>
      <trkpt lat="44.35286" lon="3.44625">
        <ele>504.6</ele>
        <time>2020-08-25T08:08:52.000Z</time>
      </trkpt>
      <trkpt lat="44.35287" lon="3.44625">
        <ele>504.5</ele>
        <time>2020-08-25T08:08:54.000Z</time>
      </trkpt>
      <trkpt lat="44.35289" lon="3.44624">
        <ele>504.4</ele>
        <time>2020-08-25T08:08:55.000Z</time>
      </trkpt>
      <trkpt lat="44.35291" lon="3.44621">
        <ele>504.3</ele>
        <time>2020-08-25T08:08:56.000Z</time>
      </trkpt>
      <trkpt lat="44.35291" lon="3.4462">
        <ele>504.2</ele>
        <time>2020-08-25T08:08:57.000Z</time>
      </trkpt>
      <trkpt lat="44.35294" lon="3.44617">
        <ele>504</ele>
        <time>2020-08-25T08:08:58.000Z</time>
      </trkpt>
      <trkpt lat="44.35295" lon="3.44617">
        <ele>504</ele>
        <time>2020-08-25T08:08:59.000Z</time>
      </trkpt>
      <trkpt lat="44.35298" lon="3.44614">
        <ele>503.8</ele>
        <time>2020-08-25T08:09:01.000Z</time>
      </trkpt>
      <trkpt lat="44.35301" lon="3.44608">
        <ele>503.5</ele>
        <time>2020-08-25T08:09:02.000Z</time>
      </trkpt>
      <trkpt lat="44.35305" lon="3.44604">
        <ele>503.3</ele>
        <time>2020-08-25T08:09:03.000Z</time>
      </trkpt>
      <trkpt lat="44.35308" lon="3.44602">
        <ele>503.1</ele>
        <time>2020-08-25T08:09:04.000Z</time>
      </trkpt>
      <trkpt lat="44.35313" lon="3.44601">
        <ele>502.7</ele>
        <time>2020-08-25T08:09:06.000Z</time>
      </trkpt>
      <trkpt lat="44.35318" lon="3.44599">
        <ele>502.3</ele>
        <time>2020-08-25T08:09:08.000Z</time>
      </trkpt>
      <trkpt lat="44.35323" lon="3.44597">
        <ele>501.7</ele>
        <time>2020-08-25T08:09:09.000Z</time>
      </trkpt>
      <trkpt lat="44.35327" lon="3.44596">
        <ele>501.2</ele>
        <time>2020-08-25T08:09:10.000Z</time>
      </trkpt>
      <trkpt lat="44.35334" lon="3.44593">
        <ele>500.3</ele>
        <time>2020-08-25T08:09:11.000Z</time>
      </trkpt>
      <trkpt lat="44.3534" lon="3.4459">
        <ele>499.4</ele>
        <time>2020-08-25T08:09:12.000Z</time>
      </trkpt>
      <trkpt lat="44.35348" lon="3.44587">
        <ele>498.1</ele>
        <time>2020-08-25T08:09:14.000Z</time>
      </trkpt>
      <trkpt lat="44.35352" lon="3.44584">
        <ele>497.6</ele>
        <time>2020-08-25T08:09:16.000Z</time>
      </trkpt>
      <trkpt lat="44.35356" lon="3.44581">
        <ele>497.1</ele>
        <time>2020-08-25T08:09:17.000Z</time>
      </trkpt>
      <trkpt lat="44.35362" lon="3.44574">
        <ele>496.3</ele>
        <time>2020-08-25T08:09:18.000Z</time>
      </trkpt>
      <trkpt lat="44.3537" lon="3.4457">
        <ele>495.8</ele>
        <time>2020-08-25T08:09:20.000Z</time>
      </trkpt>
      <trkpt lat="44.35377" lon="3.44569">
        <ele>495.6</ele>
        <time>2020-08-25T08:09:22.000Z</time>
      </trkpt>
      <trkpt lat="44.35382" lon="3.4457">
        <ele>495.6</ele>
        <time>2020-08-25T08:09:23.000Z</time>
      </trkpt>
      <trkpt lat="44.35386" lon="3.44569">
        <ele>495.7</ele>
        <time>2020-08-25T08:09:25.000Z</time>
      </trkpt>
      <trkpt lat="44.35388" lon="3.44568">
        <ele>495.8</ele>
        <time>2020-08-25T08:09:26.000Z</time>
      </trkpt>
      <trkpt lat="44.35392" lon="3.44567">
        <ele>495.9</ele>
        <time>2020-08-25T08:09:27.000Z</time>
      </trkpt>
      <trkpt lat="44.35393" lon="3.44566">
        <ele>495.9</ele>
        <time>2020-08-25T08:09:28.000Z</time>
      </trkpt>
      <trkpt lat="44.35398" lon="3.44563">
        <ele>496.1</ele>
        <time>2020-08-25T08:09:30.000Z</time>
      </trkpt>
      <trkpt lat="44.35399" lon="3.44562">
        <ele>496.2</ele>
        <time>2020-08-25T08:09:32.000Z</time>
      </trkpt>
      <trkpt lat="44.35401" lon="3.44561">
        <ele>496.2</ele>
        <time>2020-08-25T08:09:33.000Z</time>
      </trkpt>
      <trkpt lat="44.35403" lon="3.44559">
        <ele>496.2</ele>
        <time>2020-08-25T08:09:35.000Z</time>
      </trkpt>
      <trkpt lat="44.35407" lon="3.44559">
        <ele>496.1</ele>
        <time>2020-08-25T08:09:36.000Z</time>
      </trkpt>
      <trkpt lat="44.3541" lon="3.4456">
        <ele>496</ele>
        <time>2020-08-25T08:09:37.000Z</time>
      </trkpt>
      <trkpt lat="44.35411" lon="3.4456">
        <ele>495.9</ele>
        <time>2020-08-25T08:09:38.000Z</time>
      </trkpt>
      <trkpt lat="44.35414" lon="3.4456">
        <ele>495.8</ele>
        <time>2020-08-25T08:09:40.000Z</time>
      </trkpt>
      <trkpt lat="44.35419" lon="3.44561">
        <ele>495.3</ele>
        <time>2020-08-25T08:09:42.000Z</time>
      </trkpt>
      <trkpt lat="44.35422" lon="3.44562">
        <ele>494.9</ele>
        <time>2020-08-25T08:09:43.000Z</time>
      </trkpt>
      <trkpt lat="44.35426" lon="3.44561">
        <ele>494.4</ele>
        <time>2020-08-25T08:09:45.000Z</time>
      </trkpt>
      <trkpt lat="44.35429" lon="3.44558">
        <ele>494</ele>
        <time>2020-08-25T08:09:46.000Z</time>
      </trkpt>
      <trkpt lat="44.3543" lon="3.44557">
        <ele>493.9</ele>
        <time>2020-08-25T08:09:47.000Z</time>
      </trkpt>
      <trkpt lat="44.35432" lon="3.44554">
        <ele>493.7</ele>
        <time>2020-08-25T08:09:48.000Z</time>
      </trkpt>
      <trkpt lat="44.35436" lon="3.44549">
        <ele>493.3</ele>
        <time>2020-08-25T08:09:50.000Z</time>
      </trkpt>
      <trkpt lat="44.35439" lon="3.44545">
        <ele>493</ele>
        <time>2020-08-25T08:09:51.000Z</time>
      </trkpt>
      <trkpt lat="44.35441" lon="3.44543">
        <ele>492.9</ele>
        <time>2020-08-25T08:09:52.000Z</time>
      </trkpt>
      <trkpt lat="44.35448" lon="3.44541">
        <ele>492.7</ele>
        <time>2020-08-25T08:09:53.000Z</time>
      </trkpt>
      <trkpt lat="44.35455" lon="3.44539">
        <ele>492.7</ele>
        <time>2020-08-25T08:09:55.000Z</time>
      </trkpt>
      <trkpt lat="44.35462" lon="3.44538">
        <ele>492.7</ele>
        <time>2020-08-25T08:09:56.000Z</time>
      </trkpt>
      <trkpt lat="44.35469" lon="3.44536">
        <ele>492.6</ele>
        <time>2020-08-25T08:09:58.000Z</time>
      </trkpt>
      <trkpt lat="44.35472" lon="3.44537">
        <ele>492.6</ele>
        <time>2020-08-25T08:10:00.000Z</time>
      </trkpt>
      <trkpt lat="44.35475" lon="3.44537">
        <ele>492.5</ele>
        <time>2020-08-25T08:10:01.000Z</time>
      </trkpt>
      <trkpt lat="44.35481" lon="3.44538">
        <ele>492.3</ele>
        <time>2020-08-25T08:10:03.000Z</time>
      </trkpt>
      <trkpt lat="44.35493" lon="3.44537">
        <ele>491.8</ele>
        <time>2020-08-25T08:10:05.000Z</time>
      </trkpt>
      <trkpt lat="44.35497" lon="3.44536">
        <ele>491.6</ele>
        <time>2020-08-25T08:10:06.000Z</time>
      </trkpt>
      <trkpt lat="44.35499" lon="3.44536">
        <ele>491.5</ele>
        <time>2020-08-25T08:10:07.000Z</time>
      </trkpt>
      <trkpt lat="44.35503" lon="3.44534">
        <ele>491.2</ele>
        <time>2020-08-25T08:10:09.000Z</time>
      </trkpt>
      <trkpt lat="44.35506" lon="3.44534">
        <ele>491.1</ele>
        <time>2020-08-25T08:10:10.000Z</time>
      </trkpt>
      <trkpt lat="44.3551" lon="3.44533">
        <ele>490.9</ele>
        <time>2020-08-25T08:10:11.000Z</time>
      </trkpt>
      <trkpt lat="44.35517" lon="3.44532">
        <ele>490.5</ele>
        <time>2020-08-25T08:10:13.000Z</time>
      </trkpt>
      <trkpt lat="44.35522" lon="3.44532">
        <ele>490.2</ele>
        <time>2020-08-25T08:10:15.000Z</time>
      </trkpt>
      <trkpt lat="44.35524" lon="3.44533">
        <ele>490.1</ele>
        <time>2020-08-25T08:10:16.000Z</time>
      </trkpt>
      <trkpt lat="44.35531" lon="3.44534">
        <ele>489.8</ele>
        <time>2020-08-25T08:10:18.000Z</time>
      </trkpt>
      <trkpt lat="44.35533" lon="3.44534">
        <ele>489.7</ele>
        <time>2020-08-25T08:10:19.000Z</time>
      </trkpt>
      <trkpt lat="44.35539" lon="3.44535">
        <ele>489.6</ele>
        <time>2020-08-25T08:10:21.000Z</time>
      </trkpt>
      <trkpt lat="44.35545" lon="3.44535">
        <ele>489.6</ele>
        <time>2020-08-25T08:10:23.000Z</time>
      </trkpt>
      <trkpt lat="44.35549" lon="3.44535">
        <ele>489.6</ele>
        <time>2020-08-25T08:10:25.000Z</time>
      </trkpt>
      <trkpt lat="44.35555" lon="3.44535">
        <ele>489.9</ele>
        <time>2020-08-25T08:10:27.000Z</time>
      </trkpt>
      <trkpt lat="44.35557" lon="3.44534">
        <ele>489.9</ele>
        <time>2020-08-25T08:10:29.000Z</time>
      </trkpt>
      <trkpt lat="44.35558" lon="3.44534">
        <ele>490</ele>
        <time>2020-08-25T08:10:30.000Z</time>
      </trkpt>
      <trkpt lat="44.3556" lon="3.44533">
        <ele>490.1</ele>
        <time>2020-08-25T08:10:31.000Z</time>
      </trkpt>
      <trkpt lat="44.35561" lon="3.44532">
        <ele>490.2</ele>
        <time>2020-08-25T08:10:32.000Z</time>
      </trkpt>
      <trkpt lat="44.35565" lon="3.4453">
        <ele>490.5</ele>
        <time>2020-08-25T08:10:34.000Z</time>
      </trkpt>
      <trkpt lat="44.35568" lon="3.44529">
        <ele>490.7</ele>
        <time>2020-08-25T08:10:36.000Z</time>
      </trkpt>
      <trkpt lat="44.35569" lon="3.44528">
        <ele>490.7</ele>
        <time>2020-08-25T08:10:37.000Z</time>
      </trkpt>
      <trkpt lat="44.35572" lon="3.44527">
        <ele>490.9</ele>
        <time>2020-08-25T08:10:39.000Z</time>
      </trkpt>
      <trkpt lat="44.35576" lon="3.44527">
        <ele>491.1</ele>
        <time>2020-08-25T08:10:40.000Z</time>
      </trkpt>
      <trkpt lat="44.35579" lon="3.44526">
        <ele>491.3</ele>
        <time>2020-08-25T08:10:42.000Z</time>
      </trkpt>
      <trkpt lat="44.3558" lon="3.44526">
        <ele>491.4</ele>
        <time>2020-08-25T08:10:43.000Z</time>
      </trkpt>
      <trkpt lat="44.35584" lon="3.44525">
        <ele>491.5</ele>
        <time>2020-08-25T08:10:45.000Z</time>
      </trkpt>
      <trkpt lat="44.35586" lon="3.44524">
        <ele>491.6</ele>
        <time>2020-08-25T08:10:46.000Z</time>
      </trkpt>
      <trkpt lat="44.3559" lon="3.44523">
        <ele>491.7</ele>
        <time>2020-08-25T08:10:47.000Z</time>
      </trkpt>
      <trkpt lat="44.35594" lon="3.44522">
        <ele>491.7</ele>
        <time>2020-08-25T08:10:49.000Z</time>
      </trkpt>
      <trkpt lat="44.35595" lon="3.44522">
        <ele>491.8</ele>
        <time>2020-08-25T08:10:50.000Z</time>
      </trkpt>
      <trkpt lat="44.35599" lon="3.44521">
        <ele>491.9</ele>
        <time>2020-08-25T08:10:52.000Z</time>
      </trkpt>
      <trkpt lat="44.35603" lon="3.44521">
        <ele>491.9</ele>
        <time>2020-08-25T08:10:53.000Z</time>
      </trkpt>
      <trkpt lat="44.3561" lon="3.44521">
        <ele>492</ele>
        <time>2020-08-25T08:10:54.000Z</time>
      </trkpt>
      <trkpt lat="44.35612" lon="3.44521">
        <ele>492.1</ele>
        <time>2020-08-25T08:10:55.000Z</time>
      </trkpt>
      <trkpt lat="44.35617" lon="3.44519">
        <ele>492.1</ele>
        <time>2020-08-25T08:10:57.000Z</time>
      </trkpt>
      <trkpt lat="44.3562" lon="3.44518">
        <ele>492.1</ele>
        <time>2020-08-25T08:10:58.000Z</time>
      </trkpt>
      <trkpt lat="44.35624" lon="3.44517">
        <ele>492.2</ele>
        <time>2020-08-25T08:10:59.000Z</time>
      </trkpt>
      <trkpt lat="44.35631" lon="3.44515">
        <ele>492.3</ele>
        <time>2020-08-25T08:11:00.000Z</time>
      </trkpt>
      <trkpt lat="44.35635" lon="3.44514">
        <ele>492.3</ele>
        <time>2020-08-25T08:11:02.000Z</time>
      </trkpt>
      <trkpt lat="44.35636" lon="3.44513">
        <ele>492.4</ele>
        <time>2020-08-25T08:11:03.000Z</time>
      </trkpt>
      <trkpt lat="44.35639" lon="3.44513">
        <ele>492.4</ele>
        <time>2020-08-25T08:11:04.000Z</time>
      </trkpt>
      <trkpt lat="44.35648" lon="3.44511">
        <ele>492.8</ele>
        <time>2020-08-25T08:11:06.000Z</time>
      </trkpt>
      <trkpt lat="44.35659" lon="3.44509">
        <ele>493.2</ele>
        <time>2020-08-25T08:11:08.000Z</time>
      </trkpt>
      <trkpt lat="44.35663" lon="3.44508">
        <ele>493.4</ele>
        <time>2020-08-25T08:11:09.000Z</time>
      </trkpt>
      <trkpt lat="44.35667" lon="3.44507">
        <ele>493.6</ele>
        <time>2020-08-25T08:11:10.000Z</time>
      </trkpt>
      <trkpt lat="44.35671" lon="3.44506">
        <ele>493.7</ele>
        <time>2020-08-25T08:11:11.000Z</time>
      </trkpt>
      <trkpt lat="44.35675" lon="3.44505">
        <ele>493.9</ele>
        <time>2020-08-25T08:11:12.000Z</time>
      </trkpt>
      <trkpt lat="44.3568" lon="3.44505">
        <ele>494</ele>
        <time>2020-08-25T08:11:14.000Z</time>
      </trkpt>
      <trkpt lat="44.35685" lon="3.44504">
        <ele>494.2</ele>
        <time>2020-08-25T08:11:15.000Z</time>
      </trkpt>
      <trkpt lat="44.35688" lon="3.44503">
        <ele>494.3</ele>
        <time>2020-08-25T08:11:16.000Z</time>
      </trkpt>
      <trkpt lat="44.3569" lon="3.44502">
        <ele>494.5</ele>
        <time>2020-08-25T08:11:17.000Z</time>
      </trkpt>
      <trkpt lat="44.35694" lon="3.44501">
        <ele>494.7</ele>
        <time>2020-08-25T08:11:19.000Z</time>
      </trkpt>
      <trkpt lat="44.35695" lon="3.445">
        <ele>494.7</ele>
        <time>2020-08-25T08:11:20.000Z</time>
      </trkpt>
      <trkpt lat="44.35697" lon="3.44499">
        <ele>494.8</ele>
        <time>2020-08-25T08:11:21.000Z</time>
      </trkpt>
      <trkpt lat="44.35698" lon="3.44498">
        <ele>494.9</ele>
        <time>2020-08-25T08:11:23.000Z</time>
      </trkpt>
      <trkpt lat="44.35702" lon="3.44496">
        <ele>495.2</ele>
        <time>2020-08-25T08:11:25.000Z</time>
      </trkpt>
      <trkpt lat="44.35707" lon="3.44494">
        <ele>495.4</ele>
        <time>2020-08-25T08:11:26.000Z</time>
      </trkpt>
      <trkpt lat="44.35711" lon="3.44491">
        <ele>495.6</ele>
        <time>2020-08-25T08:11:28.000Z</time>
      </trkpt>
      <trkpt lat="44.35714" lon="3.4449">
        <ele>495.8</ele>
        <time>2020-08-25T08:11:29.000Z</time>
      </trkpt>
      <trkpt lat="44.35717" lon="3.44489">
        <ele>495.9</ele>
        <time>2020-08-25T08:11:30.000Z</time>
      </trkpt>
      <trkpt lat="44.3572" lon="3.44489">
        <ele>495.9</ele>
        <time>2020-08-25T08:11:31.000Z</time>
      </trkpt>
      <trkpt lat="44.35723" lon="3.44488">
        <ele>495.9</ele>
        <time>2020-08-25T08:11:33.000Z</time>
      </trkpt>
      <trkpt lat="44.35726" lon="3.44487">
        <ele>495.9</ele>
        <time>2020-08-25T08:11:34.000Z</time>
      </trkpt>
      <trkpt lat="44.35729" lon="3.44485">
        <ele>495.8</ele>
        <time>2020-08-25T08:11:35.000Z</time>
      </trkpt>
      <trkpt lat="44.35732" lon="3.44484">
        <ele>495.7</ele>
        <time>2020-08-25T08:11:36.000Z</time>
      </trkpt>
      <trkpt lat="44.35735" lon="3.44483">
        <ele>495.6</ele>
        <time>2020-08-25T08:11:37.000Z</time>
      </trkpt>
      <trkpt lat="44.35736" lon="3.44483">
        <ele>495.5</ele>
        <time>2020-08-25T08:11:39.000Z</time>
      </trkpt>
      <trkpt lat="44.3574" lon="3.44484">
        <ele>495.4</ele>
        <time>2020-08-25T08:11:40.000Z</time>
      </trkpt>
      <trkpt lat="44.35741" lon="3.44484">
        <ele>495.3</ele>
        <time>2020-08-25T08:11:41.000Z</time>
      </trkpt>
      <trkpt lat="44.35745" lon="3.44484">
        <ele>495.1</ele>
        <time>2020-08-25T08:11:43.000Z</time>
      </trkpt>
      <trkpt lat="44.35748" lon="3.44483">
        <ele>495</ele>
        <time>2020-08-25T08:11:44.000Z</time>
      </trkpt>
      <trkpt lat="44.35751" lon="3.44482">
        <ele>495</ele>
        <time>2020-08-25T08:11:45.000Z</time>
      </trkpt>
      <trkpt lat="44.35752" lon="3.44482">
        <ele>495</ele>
        <time>2020-08-25T08:11:47.000Z</time>
      </trkpt>
      <trkpt lat="44.35754" lon="3.44481">
        <ele>494.9</ele>
        <time>2020-08-25T08:11:48.000Z</time>
      </trkpt>
      <trkpt lat="44.35755" lon="3.44481">
        <ele>494.9</ele>
        <time>2020-08-25T08:11:49.000Z</time>
      </trkpt>
      <trkpt lat="44.35759" lon="3.44479">
        <ele>495</ele>
        <time>2020-08-25T08:11:50.000Z</time>
      </trkpt>
      <trkpt lat="44.35765" lon="3.44475">
        <ele>495.1</ele>
        <time>2020-08-25T08:11:51.000Z</time>
      </trkpt>
      <trkpt lat="44.3577" lon="3.44471">
        <ele>495.3</ele>
        <time>2020-08-25T08:11:53.000Z</time>
      </trkpt>
      <trkpt lat="44.35775" lon="3.44468">
        <ele>495.5</ele>
        <time>2020-08-25T08:11:54.000Z</time>
      </trkpt>
      <trkpt lat="44.35778" lon="3.44465">
        <ele>495.7</ele>
        <time>2020-08-25T08:11:55.000Z</time>
      </trkpt>
      <trkpt lat="44.3578" lon="3.44462">
        <ele>495.8</ele>
        <time>2020-08-25T08:11:56.000Z</time>
      </trkpt>
      <trkpt lat="44.35782" lon="3.4446">
        <ele>495.9</ele>
        <time>2020-08-25T08:11:58.000Z</time>
      </trkpt>
      <trkpt lat="44.35783" lon="3.44456">
        <ele>496</ele>
        <time>2020-08-25T08:11:59.000Z</time>
      </trkpt>
      <trkpt lat="44.35784" lon="3.44455">
        <ele>496.1</ele>
        <time>2020-08-25T08:12:00.000Z</time>
      </trkpt>
      <trkpt lat="44.35785" lon="3.44449">
        <ele>496.2</ele>
        <time>2020-08-25T08:12:02.000Z</time>
      </trkpt>
      <trkpt lat="44.35785" lon="3.44446">
        <ele>496.3</ele>
        <time>2020-08-25T08:12:03.000Z</time>
      </trkpt>
      <trkpt lat="44.35785" lon="3.44444">
        <ele>496.3</ele>
        <time>2020-08-25T08:12:04.000Z</time>
      </trkpt>
      <trkpt lat="44.35785" lon="3.44442">
        <ele>496.3</ele>
        <time>2020-08-25T08:12:05.000Z</time>
      </trkpt>
      <trkpt lat="44.35784" lon="3.44437">
        <ele>496.4</ele>
        <time>2020-08-25T08:12:07.000Z</time>
      </trkpt>
      <trkpt lat="44.35784" lon="3.44433">
        <ele>496.4</ele>
        <time>2020-08-25T08:12:08.000Z</time>
      </trkpt>
      <trkpt lat="44.35784" lon="3.44426">
        <ele>496.3</ele>
        <time>2020-08-25T08:12:10.000Z</time>
      </trkpt>
      <trkpt lat="44.35784" lon="3.44422">
        <ele>496.3</ele>
        <time>2020-08-25T08:12:11.000Z</time>
      </trkpt>
      <trkpt lat="44.35784" lon="3.44418">
        <ele>496.2</ele>
        <time>2020-08-25T08:12:13.000Z</time>
      </trkpt>
      <trkpt lat="44.35784" lon="3.44412">
        <ele>495.9</ele>
        <time>2020-08-25T08:12:14.000Z</time>
      </trkpt>
      <trkpt lat="44.35783" lon="3.44409">
        <ele>495.8</ele>
        <time>2020-08-25T08:12:15.000Z</time>
      </trkpt>
      <trkpt lat="44.35784" lon="3.44404">
        <ele>495.5</ele>
        <time>2020-08-25T08:12:17.000Z</time>
      </trkpt>
      <trkpt lat="44.35784" lon="3.44401">
        <ele>495.3</ele>
        <time>2020-08-25T08:12:18.000Z</time>
      </trkpt>
      <trkpt lat="44.35784" lon="3.44396">
        <ele>494.9</ele>
        <time>2020-08-25T08:12:20.000Z</time>
      </trkpt>
      <trkpt lat="44.35784" lon="3.44392">
        <ele>494.6</ele>
        <time>2020-08-25T08:12:21.000Z</time>
      </trkpt>
      <trkpt lat="44.35784" lon="3.44386">
        <ele>493.9</ele>
        <time>2020-08-25T08:12:22.000Z</time>
      </trkpt>
      <trkpt lat="44.35783" lon="3.44381">
        <ele>493.4</ele>
        <time>2020-08-25T08:12:24.000Z</time>
      </trkpt>
      <trkpt lat="44.35784" lon="3.44376">
        <ele>492.8</ele>
        <time>2020-08-25T08:12:25.000Z</time>
      </trkpt>
      <trkpt lat="44.35783" lon="3.44371">
        <ele>492.3</ele>
        <time>2020-08-25T08:12:26.000Z</time>
      </trkpt>
      <trkpt lat="44.35783" lon="3.44367">
        <ele>491.9</ele>
        <time>2020-08-25T08:12:27.000Z</time>
      </trkpt>
      <trkpt lat="44.35784" lon="3.44361">
        <ele>491.1</ele>
        <time>2020-08-25T08:12:28.000Z</time>
      </trkpt>
      <trkpt lat="44.35784" lon="3.4435">
        <ele>491.2</ele>
        <time>2020-08-25T08:12:30.000Z</time>
      </trkpt>
      <trkpt lat="44.35783" lon="3.44341">
        <ele>491.4</ele>
        <time>2020-08-25T08:12:32.000Z</time>
      </trkpt>
      <trkpt lat="44.35782" lon="3.44337">
        <ele>491.5</ele>
        <time>2020-08-25T08:12:33.000Z</time>
      </trkpt>
      <trkpt lat="44.35782" lon="3.44332">
        <ele>491.4</ele>
        <time>2020-08-25T08:12:34.000Z</time>
      </trkpt>
      <trkpt lat="44.35781" lon="3.44328">
        <ele>491.3</ele>
        <time>2020-08-25T08:12:35.000Z</time>
      </trkpt>
      <trkpt lat="44.3578" lon="3.44324">
        <ele>491.2</ele>
        <time>2020-08-25T08:12:36.000Z</time>
      </trkpt>
      <trkpt lat="44.35779" lon="3.44318">
        <ele>491</ele>
        <time>2020-08-25T08:12:37.000Z</time>
      </trkpt>
      <trkpt lat="44.35777" lon="3.44314">
        <ele>490.9</ele>
        <time>2020-08-25T08:12:38.000Z</time>
      </trkpt>
      <trkpt lat="44.35776" lon="3.44309">
        <ele>490.8</ele>
        <time>2020-08-25T08:12:40.000Z</time>
      </trkpt>
      <trkpt lat="44.35775" lon="3.44305">
        <ele>490.7</ele>
        <time>2020-08-25T08:12:41.000Z</time>
      </trkpt>
      <trkpt lat="44.35773" lon="3.443">
        <ele>490.6</ele>
        <time>2020-08-25T08:12:42.000Z</time>
      </trkpt>
      <trkpt lat="44.35772" lon="3.44296">
        <ele>490.5</ele>
        <time>2020-08-25T08:12:43.000Z</time>
      </trkpt>
      <trkpt lat="44.35771" lon="3.44291">
        <ele>490.4</ele>
        <time>2020-08-25T08:12:44.000Z</time>
      </trkpt>
      <trkpt lat="44.35769" lon="3.44285">
        <ele>490.3</ele>
        <time>2020-08-25T08:12:46.000Z</time>
      </trkpt>
      <trkpt lat="44.35767" lon="3.44281">
        <ele>490.1</ele>
        <time>2020-08-25T08:12:47.000Z</time>
      </trkpt>
      <trkpt lat="44.35766" lon="3.44277">
        <ele>490</ele>
        <time>2020-08-25T08:12:48.000Z</time>
      </trkpt>
      <trkpt lat="44.35765" lon="3.44274">
        <ele>489.8</ele>
        <time>2020-08-25T08:12:49.000Z</time>
      </trkpt>
      <trkpt lat="44.35764" lon="3.4427">
        <ele>489.6</ele>
        <time>2020-08-25T08:12:51.000Z</time>
      </trkpt>
      <trkpt lat="44.35764" lon="3.44265">
        <ele>489.4</ele>
        <time>2020-08-25T08:12:52.000Z</time>
      </trkpt>
      <trkpt lat="44.35764" lon="3.44264">
        <ele>489.3</ele>
        <time>2020-08-25T08:12:53.000Z</time>
      </trkpt>
      <trkpt lat="44.35763" lon="3.44259">
        <ele>489</ele>
        <time>2020-08-25T08:12:55.000Z</time>
      </trkpt>
      <trkpt lat="44.35763" lon="3.44258">
        <ele>488.9</ele>
        <time>2020-08-25T08:12:56.000Z</time>
      </trkpt>
      <trkpt lat="44.35762" lon="3.44251">
        <ele>488.4</ele>
        <time>2020-08-25T08:12:57.000Z</time>
      </trkpt>
      <trkpt lat="44.35762" lon="3.44248">
        <ele>488.3</ele>
        <time>2020-08-25T08:12:59.000Z</time>
      </trkpt>
      <trkpt lat="44.35761" lon="3.44246">
        <ele>488.1</ele>
        <time>2020-08-25T08:13:00.000Z</time>
      </trkpt>
      <trkpt lat="44.35761" lon="3.44243">
        <ele>487.9</ele>
        <time>2020-08-25T08:13:01.000Z</time>
      </trkpt>
      <trkpt lat="44.35761" lon="3.4424">
        <ele>487.7</ele>
        <time>2020-08-25T08:13:03.000Z</time>
      </trkpt>
      <trkpt lat="44.35761" lon="3.44235">
        <ele>487.4</ele>
        <time>2020-08-25T08:13:04.000Z</time>
      </trkpt>
      <trkpt lat="44.35761" lon="3.44233">
        <ele>487.2</ele>
        <time>2020-08-25T08:13:05.000Z</time>
      </trkpt>
      <trkpt lat="44.3576" lon="3.44228">
        <ele>486.9</ele>
        <time>2020-08-25T08:13:07.000Z</time>
      </trkpt>
      <trkpt lat="44.3576" lon="3.44225">
        <ele>486.7</ele>
        <time>2020-08-25T08:13:08.000Z</time>
      </trkpt>
      <trkpt lat="44.35758" lon="3.44218">
        <ele>486.3</ele>
        <time>2020-08-25T08:13:10.000Z</time>
      </trkpt>
      <trkpt lat="44.35758" lon="3.44214">
        <ele>486</ele>
        <time>2020-08-25T08:13:11.000Z</time>
      </trkpt>
      <trkpt lat="44.35758" lon="3.44213">
        <ele>485.9</ele>
        <time>2020-08-25T08:13:12.000Z</time>
      </trkpt>
      <trkpt lat="44.35757" lon="3.44208">
        <ele>485.7</ele>
        <time>2020-08-25T08:13:14.000Z</time>
      </trkpt>
      <trkpt lat="44.35757" lon="3.44206">
        <ele>485.6</ele>
        <time>2020-08-25T08:13:15.000Z</time>
      </trkpt>
      <trkpt lat="44.35756" lon="3.442">
        <ele>485.2</ele>
        <time>2020-08-25T08:13:16.000Z</time>
      </trkpt>
      <trkpt lat="44.35755" lon="3.44198">
        <ele>485.1</ele>
        <time>2020-08-25T08:13:17.000Z</time>
      </trkpt>
      <trkpt lat="44.35755" lon="3.44195">
        <ele>485</ele>
        <time>2020-08-25T08:13:19.000Z</time>
      </trkpt>
      <trkpt lat="44.35753" lon="3.4419">
        <ele>484.7</ele>
        <time>2020-08-25T08:13:20.000Z</time>
      </trkpt>
      <trkpt lat="44.35753" lon="3.44187">
        <ele>484.6</ele>
        <time>2020-08-25T08:13:21.000Z</time>
      </trkpt>
      <trkpt lat="44.3575" lon="3.4418">
        <ele>484.3</ele>
        <time>2020-08-25T08:13:22.000Z</time>
      </trkpt>
      <trkpt lat="44.3575" lon="3.44178">
        <ele>484.3</ele>
        <time>2020-08-25T08:13:23.000Z</time>
      </trkpt>
      <trkpt lat="44.35748" lon="3.44176">
        <ele>484.2</ele>
        <time>2020-08-25T08:13:25.000Z</time>
      </trkpt>
      <trkpt lat="44.35746" lon="3.44171">
        <ele>484</ele>
        <time>2020-08-25T08:13:26.000Z</time>
      </trkpt>
      <trkpt lat="44.35745" lon="3.44166">
        <ele>483.9</ele>
        <time>2020-08-25T08:13:28.000Z</time>
      </trkpt>
      <trkpt lat="44.35744" lon="3.44161">
        <ele>483.8</ele>
        <time>2020-08-25T08:13:29.000Z</time>
      </trkpt>
      <trkpt lat="44.35742" lon="3.44156">
        <ele>483.7</ele>
        <time>2020-08-25T08:13:31.000Z</time>
      </trkpt>
      <trkpt lat="44.35742" lon="3.44155">
        <ele>483.7</ele>
        <time>2020-08-25T08:13:32.000Z</time>
      </trkpt>
      <trkpt lat="44.35741" lon="3.44151">
        <ele>483.6</ele>
        <time>2020-08-25T08:13:34.000Z</time>
      </trkpt>
      <trkpt lat="44.35739" lon="3.44147">
        <ele>483.5</ele>
        <time>2020-08-25T08:13:36.000Z</time>
      </trkpt>
      <trkpt lat="44.35737" lon="3.44141">
        <ele>483.4</ele>
        <time>2020-08-25T08:13:37.000Z</time>
      </trkpt>
      <trkpt lat="44.35736" lon="3.44138">
        <ele>483.3</ele>
        <time>2020-08-25T08:13:38.000Z</time>
      </trkpt>
      <trkpt lat="44.35736" lon="3.44136">
        <ele>483.3</ele>
        <time>2020-08-25T08:13:40.000Z</time>
      </trkpt>
      <trkpt lat="44.35735" lon="3.44131">
        <ele>483.2</ele>
        <time>2020-08-25T08:13:41.000Z</time>
      </trkpt>
      <trkpt lat="44.35734" lon="3.4413">
        <ele>483.1</ele>
        <time>2020-08-25T08:13:42.000Z</time>
      </trkpt>
      <trkpt lat="44.35731" lon="3.44123">
        <ele>482.9</ele>
        <time>2020-08-25T08:13:44.000Z</time>
      </trkpt>
      <trkpt lat="44.35731" lon="3.4412">
        <ele>482.8</ele>
        <time>2020-08-25T08:13:45.000Z</time>
      </trkpt>
      <trkpt lat="44.3573" lon="3.44117">
        <ele>482.7</ele>
        <time>2020-08-25T08:13:46.000Z</time>
      </trkpt>
      <trkpt lat="44.3573" lon="3.44116">
        <ele>482.7</ele>
        <time>2020-08-25T08:13:47.000Z</time>
      </trkpt>
      <trkpt lat="44.3573" lon="3.44114">
        <ele>482.6</ele>
        <time>2020-08-25T08:13:49.000Z</time>
      </trkpt>
      <trkpt lat="44.35729" lon="3.44109">
        <ele>482.5</ele>
        <time>2020-08-25T08:13:50.000Z</time>
      </trkpt>
      <trkpt lat="44.35729" lon="3.44108">
        <ele>482.4</ele>
        <time>2020-08-25T08:13:51.000Z</time>
      </trkpt>
      <trkpt lat="44.35728" lon="3.44103">
        <ele>482.3</ele>
        <time>2020-08-25T08:13:52.000Z</time>
      </trkpt>
      <trkpt lat="44.35728" lon="3.44102">
        <ele>482.3</ele>
        <time>2020-08-25T08:13:53.000Z</time>
      </trkpt>
      <trkpt lat="44.35727" lon="3.44098">
        <ele>482.2</ele>
        <time>2020-08-25T08:13:54.000Z</time>
      </trkpt>
      <trkpt lat="44.35722" lon="3.44081">
        <ele>482.2</ele>
        <time>2020-08-25T08:13:56.000Z</time>
      </trkpt>
      <trkpt lat="44.35719" lon="3.44069">
        <ele>482.3</ele>
        <time>2020-08-25T08:14:23.000Z</time>
      </trkpt>
      <trkpt lat="44.35716" lon="3.44057">
        <ele>482.3</ele>
        <time>2020-08-25T08:14:25.000Z</time>
      </trkpt>
      <trkpt lat="44.35713" lon="3.44045">
        <ele>481.9</ele>
        <time>2020-08-25T08:14:26.000Z</time>
      </trkpt>
      <trkpt lat="44.35711" lon="3.44041">
        <ele>481.6</ele>
        <time>2020-08-25T08:14:27.000Z</time>
      </trkpt>
      <trkpt lat="44.35711" lon="3.4404">
        <ele>481.5</ele>
        <time>2020-08-25T08:14:28.000Z</time>
      </trkpt>
      <trkpt lat="44.3571" lon="3.44035">
        <ele>481.2</ele>
        <time>2020-08-25T08:14:29.000Z</time>
      </trkpt>
      <trkpt lat="44.3571" lon="3.44034">
        <ele>481.2</ele>
        <time>2020-08-25T08:14:30.000Z</time>
      </trkpt>
      <trkpt lat="44.35709" lon="3.4403">
        <ele>480.9</ele>
        <time>2020-08-25T08:14:32.000Z</time>
      </trkpt>
      <trkpt lat="44.35709" lon="3.44029">
        <ele>480.8</ele>
        <time>2020-08-25T08:14:33.000Z</time>
      </trkpt>
      <trkpt lat="44.35708" lon="3.44026">
        <ele>480.6</ele>
        <time>2020-08-25T08:14:34.000Z</time>
      </trkpt>
      <trkpt lat="44.35707" lon="3.44022">
        <ele>480.3</ele>
        <time>2020-08-25T08:14:36.000Z</time>
      </trkpt>
      <trkpt lat="44.35707" lon="3.44018">
        <ele>480</ele>
        <time>2020-08-25T08:14:37.000Z</time>
      </trkpt>
      <trkpt lat="44.35706" lon="3.44016">
        <ele>479.9</ele>
        <time>2020-08-25T08:14:38.000Z</time>
      </trkpt>
      <trkpt lat="44.35706" lon="3.44011">
        <ele>479.6</ele>
        <time>2020-08-25T08:14:40.000Z</time>
      </trkpt>
      <trkpt lat="44.35705" lon="3.44008">
        <ele>479.4</ele>
        <time>2020-08-25T08:14:41.000Z</time>
      </trkpt>
      <trkpt lat="44.35705" lon="3.44007">
        <ele>479.3</ele>
        <time>2020-08-25T08:14:43.000Z</time>
      </trkpt>
      <trkpt lat="44.35704" lon="3.44004">
        <ele>479.2</ele>
        <time>2020-08-25T08:14:44.000Z</time>
      </trkpt>
      <trkpt lat="44.35703" lon="3.44">
        <ele>479</ele>
        <time>2020-08-25T08:14:45.000Z</time>
      </trkpt>
      <trkpt lat="44.35703" lon="3.43999">
        <ele>479</ele>
        <time>2020-08-25T08:14:46.000Z</time>
      </trkpt>
      <trkpt lat="44.35701" lon="3.43995">
        <ele>478.8</ele>
        <time>2020-08-25T08:14:48.000Z</time>
      </trkpt>
      <trkpt lat="44.357" lon="3.43993">
        <ele>478.8</ele>
        <time>2020-08-25T08:14:50.000Z</time>
      </trkpt>
      <trkpt lat="44.35699" lon="3.43992">
        <ele>478.7</ele>
        <time>2020-08-25T08:14:52.000Z</time>
      </trkpt>
      <trkpt lat="44.35699" lon="3.43991">
        <ele>478.7</ele>
        <time>2020-08-25T08:14:53.000Z</time>
      </trkpt>
      <trkpt lat="44.35698" lon="3.4399">
        <ele>478.7</ele>
        <time>2020-08-25T08:14:55.000Z</time>
      </trkpt>
      <trkpt lat="44.35697" lon="3.43989">
        <ele>478.7</ele>
        <time>2020-08-25T08:14:56.000Z</time>
      </trkpt>
      <trkpt lat="44.35697" lon="3.43989">
        <ele>478.7</ele>
        <time>2020-08-25T08:14:57.000Z</time>
      </trkpt>
      <trkpt lat="44.35696" lon="3.43988">
        <ele>478.6</ele>
        <time>2020-08-25T08:14:59.000Z</time>
      </trkpt>
      <trkpt lat="44.35691" lon="3.43975">
        <ele>478.4</ele>
        <time>2020-08-25T08:15:32.000Z</time>
      </trkpt>
      <trkpt lat="44.35691" lon="3.43973">
        <ele>478.4</ele>
        <time>2020-08-25T08:15:34.000Z</time>
      </trkpt>
      <trkpt lat="44.3569" lon="3.43972">
        <ele>478.4</ele>
        <time>2020-08-25T08:15:36.000Z</time>
      </trkpt>
      <trkpt lat="44.3569" lon="3.43971">
        <ele>478.3</ele>
        <time>2020-08-25T08:15:38.000Z</time>
      </trkpt>
      <trkpt lat="44.35689" lon="3.43969">
        <ele>478.3</ele>
        <time>2020-08-25T08:15:40.000Z</time>
      </trkpt>
      <trkpt lat="44.35689" lon="3.43966">
        <ele>478.2</ele>
        <time>2020-08-25T08:15:41.000Z</time>
      </trkpt>
      <trkpt lat="44.35689" lon="3.43965">
        <ele>478.1</ele>
        <time>2020-08-25T08:15:42.000Z</time>
      </trkpt>
      <trkpt lat="44.35689" lon="3.43963">
        <ele>478</ele>
        <time>2020-08-25T08:15:43.000Z</time>
      </trkpt>
      <trkpt lat="44.35688" lon="3.43961">
        <ele>478</ele>
        <time>2020-08-25T08:15:45.000Z</time>
      </trkpt>
      <trkpt lat="44.35688" lon="3.43959">
        <ele>477.8</ele>
        <time>2020-08-25T08:15:47.000Z</time>
      </trkpt>
      <trkpt lat="44.35687" lon="3.43955">
        <ele>477.6</ele>
        <time>2020-08-25T08:15:48.000Z</time>
      </trkpt>
      <trkpt lat="44.35686" lon="3.43954">
        <ele>477.5</ele>
        <time>2020-08-25T08:15:49.000Z</time>
      </trkpt>
      <trkpt lat="44.35686" lon="3.43952">
        <ele>477.4</ele>
        <time>2020-08-25T08:15:50.000Z</time>
      </trkpt>
      <trkpt lat="44.35686" lon="3.43951">
        <ele>477.3</ele>
        <time>2020-08-25T08:15:51.000Z</time>
      </trkpt>
      <trkpt lat="44.35685" lon="3.4395">
        <ele>477.2</ele>
        <time>2020-08-25T08:15:52.000Z</time>
      </trkpt>
      <trkpt lat="44.35685" lon="3.43948">
        <ele>477.1</ele>
        <time>2020-08-25T08:15:54.000Z</time>
      </trkpt>
      <trkpt lat="44.35685" lon="3.43945">
        <ele>476.9</ele>
        <time>2020-08-25T08:15:55.000Z</time>
      </trkpt>
      <trkpt lat="44.35685" lon="3.43944">
        <ele>476.8</ele>
        <time>2020-08-25T08:15:57.000Z</time>
      </trkpt>
      <trkpt lat="44.35685" lon="3.43942">
        <ele>476.7</ele>
        <time>2020-08-25T08:15:58.000Z</time>
      </trkpt>
      <trkpt lat="44.35685" lon="3.4394">
        <ele>476.6</ele>
        <time>2020-08-25T08:15:59.000Z</time>
      </trkpt>
      <trkpt lat="44.35684" lon="3.43938">
        <ele>476.5</ele>
        <time>2020-08-25T08:16:00.000Z</time>
      </trkpt>
      <trkpt lat="44.35683" lon="3.43934">
        <ele>476.3</ele>
        <time>2020-08-25T08:16:02.000Z</time>
      </trkpt>
      <trkpt lat="44.35683" lon="3.43932">
        <ele>476.2</ele>
        <time>2020-08-25T08:16:03.000Z</time>
      </trkpt>
      <trkpt lat="44.35683" lon="3.43931">
        <ele>476.1</ele>
        <time>2020-08-25T08:16:05.000Z</time>
      </trkpt>
      <trkpt lat="44.35683" lon="3.43929">
        <ele>476</ele>
        <time>2020-08-25T08:16:06.000Z</time>
      </trkpt>
      <trkpt lat="44.35683" lon="3.43926">
        <ele>475.9</ele>
        <time>2020-08-25T08:16:07.000Z</time>
      </trkpt>
      <trkpt lat="44.35682" lon="3.43925">
        <ele>475.9</ele>
        <time>2020-08-25T08:16:08.000Z</time>
      </trkpt>
      <trkpt lat="44.35682" lon="3.43923">
        <ele>475.8</ele>
        <time>2020-08-25T08:16:10.000Z</time>
      </trkpt>
      <trkpt lat="44.35682" lon="3.43922">
        <ele>475.8</ele>
        <time>2020-08-25T08:16:12.000Z</time>
      </trkpt>
      <trkpt lat="44.35681" lon="3.43921">
        <ele>475.7</ele>
        <time>2020-08-25T08:16:14.000Z</time>
      </trkpt>
      <trkpt lat="44.35679" lon="3.43919">
        <ele>475.7</ele>
        <time>2020-08-25T08:16:15.000Z</time>
      </trkpt>
      <trkpt lat="44.3568" lon="3.43917">
        <ele>475.7</ele>
        <time>2020-08-25T08:16:16.000Z</time>
      </trkpt>
      <trkpt lat="44.35679" lon="3.43915">
        <ele>475.7</ele>
        <time>2020-08-25T08:16:18.000Z</time>
      </trkpt>
      <trkpt lat="44.35679" lon="3.43914">
        <ele>475.7</ele>
        <time>2020-08-25T08:16:19.000Z</time>
      </trkpt>
      <trkpt lat="44.35678" lon="3.43913">
        <ele>475.7</ele>
        <time>2020-08-25T08:16:20.000Z</time>
      </trkpt>
      <trkpt lat="44.35678" lon="3.43911">
        <ele>475.7</ele>
        <time>2020-08-25T08:16:22.000Z</time>
      </trkpt>
      <trkpt lat="44.35678" lon="3.4391">
        <ele>475.7</ele>
        <time>2020-08-25T08:16:23.000Z</time>
      </trkpt>
      <trkpt lat="44.35678" lon="3.43909">
        <ele>475.7</ele>
        <time>2020-08-25T08:16:25.000Z</time>
      </trkpt>
      <trkpt lat="44.35678" lon="3.43909">
        <ele>475.7</ele>
        <time>2020-08-25T08:16:27.000Z</time>
      </trkpt>
      <trkpt lat="44.35677" lon="3.43908">
        <ele>475.7</ele>
        <time>2020-08-25T08:16:28.000Z</time>
      </trkpt>
      <trkpt lat="44.35677" lon="3.43905">
        <ele>475.7</ele>
        <time>2020-08-25T08:16:30.000Z</time>
      </trkpt>
      <trkpt lat="44.35677" lon="3.43903">
        <ele>475.8</ele>
        <time>2020-08-25T08:16:32.000Z</time>
      </trkpt>
      <trkpt lat="44.35677" lon="3.43901">
        <ele>475.8</ele>
        <time>2020-08-25T08:16:33.000Z</time>
      </trkpt>
      <trkpt lat="44.35676" lon="3.43898">
        <ele>475.8</ele>
        <time>2020-08-25T08:16:34.000Z</time>
      </trkpt>
      <trkpt lat="44.35676" lon="3.43896">
        <ele>475.9</ele>
        <time>2020-08-25T08:16:35.000Z</time>
      </trkpt>
      <trkpt lat="44.35675" lon="3.43894">
        <ele>475.9</ele>
        <time>2020-08-25T08:16:37.000Z</time>
      </trkpt>
      <trkpt lat="44.35675" lon="3.43891">
        <ele>475.9</ele>
        <time>2020-08-25T08:16:39.000Z</time>
      </trkpt>
      <trkpt lat="44.35675" lon="3.43888">
        <ele>476</ele>
        <time>2020-08-25T08:16:40.000Z</time>
      </trkpt>
      <trkpt lat="44.35674" lon="3.43887">
        <ele>476</ele>
        <time>2020-08-25T08:16:42.000Z</time>
      </trkpt>
      <trkpt lat="44.35674" lon="3.43885">
        <ele>476</ele>
        <time>2020-08-25T08:16:44.000Z</time>
      </trkpt>
      <trkpt lat="44.35673" lon="3.43884">
        <ele>476</ele>
        <time>2020-08-25T08:16:45.000Z</time>
      </trkpt>
      <trkpt lat="44.35673" lon="3.43882">
        <ele>476</ele>
        <time>2020-08-25T08:16:46.000Z</time>
      </trkpt>
      <trkpt lat="44.35672" lon="3.43879">
        <ele>476</ele>
        <time>2020-08-25T08:16:48.000Z</time>
      </trkpt>
      <trkpt lat="44.35672" lon="3.43877">
        <ele>476.1</ele>
        <time>2020-08-25T08:16:50.000Z</time>
      </trkpt>
      <trkpt lat="44.35671" lon="3.43874">
        <ele>476.1</ele>
        <time>2020-08-25T08:16:51.000Z</time>
      </trkpt>
      <trkpt lat="44.35671" lon="3.43873">
        <ele>476.1</ele>
        <time>2020-08-25T08:16:52.000Z</time>
      </trkpt>
      <trkpt lat="44.35671" lon="3.43871">
        <ele>476.1</ele>
        <time>2020-08-25T08:16:53.000Z</time>
      </trkpt>
      <trkpt lat="44.3567" lon="3.43869">
        <ele>476.2</ele>
        <time>2020-08-25T08:16:55.000Z</time>
      </trkpt>
      <trkpt lat="44.35669" lon="3.43868">
        <ele>476.2</ele>
        <time>2020-08-25T08:16:56.000Z</time>
      </trkpt>
      <trkpt lat="44.35668" lon="3.43865">
        <ele>476.2</ele>
        <time>2020-08-25T08:16:58.000Z</time>
      </trkpt>
      <trkpt lat="44.35667" lon="3.43862">
        <ele>476.2</ele>
        <time>2020-08-25T08:17:00.000Z</time>
      </trkpt>
      <trkpt lat="44.35667" lon="3.43861">
        <ele>476.3</ele>
        <time>2020-08-25T08:17:01.000Z</time>
      </trkpt>
      <trkpt lat="44.35667" lon="3.4386">
        <ele>476.3</ele>
        <time>2020-08-25T08:17:02.000Z</time>
      </trkpt>
      <trkpt lat="44.35666" lon="3.43859">
        <ele>476.3</ele>
        <time>2020-08-25T08:17:04.000Z</time>
      </trkpt>
      <trkpt lat="44.35666" lon="3.43857">
        <ele>476.3</ele>
        <time>2020-08-25T08:17:05.000Z</time>
      </trkpt>
      <trkpt lat="44.35666" lon="3.43854">
        <ele>476.4</ele>
        <time>2020-08-25T08:17:07.000Z</time>
      </trkpt>
      <trkpt lat="44.35666" lon="3.43852">
        <ele>476.4</ele>
        <time>2020-08-25T08:17:08.000Z</time>
      </trkpt>
      <trkpt lat="44.35666" lon="3.4385">
        <ele>476.4</ele>
        <time>2020-08-25T08:17:09.000Z</time>
      </trkpt>
      <trkpt lat="44.35665" lon="3.43848">
        <ele>476.4</ele>
        <time>2020-08-25T08:17:11.000Z</time>
      </trkpt>
      <trkpt lat="44.35665" lon="3.43846">
        <ele>476.5</ele>
        <time>2020-08-25T08:17:13.000Z</time>
      </trkpt>
      <trkpt lat="44.35665" lon="3.43845">
        <ele>476.5</ele>
        <time>2020-08-25T08:17:14.000Z</time>
      </trkpt>
      <trkpt lat="44.35665" lon="3.43843">
        <ele>476.5</ele>
        <time>2020-08-25T08:17:15.000Z</time>
      </trkpt>
      <trkpt lat="44.35664" lon="3.4384">
        <ele>476.5</ele>
        <time>2020-08-25T08:17:16.000Z</time>
      </trkpt>
      <trkpt lat="44.35663" lon="3.43839">
        <ele>476.6</ele>
        <time>2020-08-25T08:17:18.000Z</time>
      </trkpt>
      <trkpt lat="44.35663" lon="3.43837">
        <ele>476.6</ele>
        <time>2020-08-25T08:17:19.000Z</time>
      </trkpt>
      <trkpt lat="44.35663" lon="3.43835">
        <ele>476.6</ele>
        <time>2020-08-25T08:17:21.000Z</time>
      </trkpt>
      <trkpt lat="44.35663" lon="3.43834">
        <ele>476.6</ele>
        <time>2020-08-25T08:17:22.000Z</time>
      </trkpt>
      <trkpt lat="44.35662" lon="3.43831">
        <ele>476.6</ele>
        <time>2020-08-25T08:17:24.000Z</time>
      </trkpt>
      <trkpt lat="44.35662" lon="3.43826">
        <ele>476.7</ele>
        <time>2020-08-25T08:17:26.000Z</time>
      </trkpt>
      <trkpt lat="44.35661" lon="3.43824">
        <ele>476.7</ele>
        <time>2020-08-25T08:17:27.000Z</time>
      </trkpt>
      <trkpt lat="44.35661" lon="3.43822">
        <ele>476.7</ele>
        <time>2020-08-25T08:17:28.000Z</time>
      </trkpt>
      <trkpt lat="44.3566" lon="3.43818">
        <ele>476.8</ele>
        <time>2020-08-25T08:17:30.000Z</time>
      </trkpt>
      <trkpt lat="44.3566" lon="3.43817">
        <ele>476.8</ele>
        <time>2020-08-25T08:17:31.000Z</time>
      </trkpt>
      <trkpt lat="44.3566" lon="3.43814">
        <ele>476.9</ele>
        <time>2020-08-25T08:17:32.000Z</time>
      </trkpt>
      <trkpt lat="44.3566" lon="3.43812">
        <ele>477</ele>
        <time>2020-08-25T08:17:34.000Z</time>
      </trkpt>
      <trkpt lat="44.3566" lon="3.4381">
        <ele>477</ele>
        <time>2020-08-25T08:17:36.000Z</time>
      </trkpt>
      <trkpt lat="44.3566" lon="3.43808">
        <ele>477.1</ele>
        <time>2020-08-25T08:17:37.000Z</time>
      </trkpt>
      <trkpt lat="44.35659" lon="3.43805">
        <ele>477.2</ele>
        <time>2020-08-25T08:17:38.000Z</time>
      </trkpt>
      <trkpt lat="44.35659" lon="3.43804">
        <ele>477.2</ele>
        <time>2020-08-25T08:17:40.000Z</time>
      </trkpt>
      <trkpt lat="44.35659" lon="3.43803">
        <ele>477.2</ele>
        <time>2020-08-25T08:17:41.000Z</time>
      </trkpt>
      <trkpt lat="44.35659" lon="3.43801">
        <ele>477.3</ele>
        <time>2020-08-25T08:17:42.000Z</time>
      </trkpt>
      <trkpt lat="44.35658" lon="3.43798">
        <ele>477.5</ele>
        <time>2020-08-25T08:17:44.000Z</time>
      </trkpt>
      <trkpt lat="44.35658" lon="3.43797">
        <ele>477.5</ele>
        <time>2020-08-25T08:17:46.000Z</time>
      </trkpt>
      <trkpt lat="44.35658" lon="3.43797">
        <ele>477.5</ele>
        <time>2020-08-25T08:17:47.000Z</time>
      </trkpt>
      <trkpt lat="44.35658" lon="3.43797">
        <ele>477.5</ele>
        <time>2020-08-25T08:17:49.000Z</time>
      </trkpt>
      <trkpt lat="44.35658" lon="3.43796">
        <ele>477.6</ele>
        <time>2020-08-25T08:17:50.000Z</time>
      </trkpt>
      <trkpt lat="44.35658" lon="3.43793">
        <ele>477.7</ele>
        <time>2020-08-25T08:17:52.000Z</time>
      </trkpt>
      <trkpt lat="44.35658" lon="3.43792">
        <ele>477.8</ele>
        <time>2020-08-25T08:17:53.000Z</time>
      </trkpt>
      <trkpt lat="44.35657" lon="3.43791">
        <ele>477.9</ele>
        <time>2020-08-25T08:17:55.000Z</time>
      </trkpt>
      <trkpt lat="44.35657" lon="3.43789">
        <ele>478</ele>
        <time>2020-08-25T08:17:56.000Z</time>
      </trkpt>
      <trkpt lat="44.35657" lon="3.43787">
        <ele>478.1</ele>
        <time>2020-08-25T08:17:58.000Z</time>
      </trkpt>
      <trkpt lat="44.35656" lon="3.43785">
        <ele>478.2</ele>
        <time>2020-08-25T08:17:59.000Z</time>
      </trkpt>
      <trkpt lat="44.35655" lon="3.43782">
        <ele>478.4</ele>
        <time>2020-08-25T08:18:00.000Z</time>
      </trkpt>
      <trkpt lat="44.35655" lon="3.4378">
        <ele>478.5</ele>
        <time>2020-08-25T08:18:02.000Z</time>
      </trkpt>
      <trkpt lat="44.35654" lon="3.43779">
        <ele>478.6</ele>
        <time>2020-08-25T08:18:03.000Z</time>
      </trkpt>
      <trkpt lat="44.35654" lon="3.43778">
        <ele>478.7</ele>
        <time>2020-08-25T08:18:05.000Z</time>
      </trkpt>
      <trkpt lat="44.35653" lon="3.43777">
        <ele>478.8</ele>
        <time>2020-08-25T08:18:06.000Z</time>
      </trkpt>
      <trkpt lat="44.35653" lon="3.43776">
        <ele>478.8</ele>
        <time>2020-08-25T08:18:07.000Z</time>
      </trkpt>
      <trkpt lat="44.35653" lon="3.43775">
        <ele>478.9</ele>
        <time>2020-08-25T08:18:08.000Z</time>
      </trkpt>
      <trkpt lat="44.35652" lon="3.43773">
        <ele>478.9</ele>
        <time>2020-08-25T08:18:09.000Z</time>
      </trkpt>
      <trkpt lat="44.35652" lon="3.43772">
        <ele>479</ele>
        <time>2020-08-25T08:18:10.000Z</time>
      </trkpt>
      <trkpt lat="44.35651" lon="3.43769">
        <ele>479.1</ele>
        <time>2020-08-25T08:18:12.000Z</time>
      </trkpt>
      <trkpt lat="44.3565" lon="3.43768">
        <ele>479.2</ele>
        <time>2020-08-25T08:18:14.000Z</time>
      </trkpt>
      <trkpt lat="44.3565" lon="3.43766">
        <ele>479.3</ele>
        <time>2020-08-25T08:18:16.000Z</time>
      </trkpt>
      <trkpt lat="44.3565" lon="3.43765">
        <ele>479.3</ele>
        <time>2020-08-25T08:18:17.000Z</time>
      </trkpt>
      <trkpt lat="44.3565" lon="3.43763">
        <ele>479.4</ele>
        <time>2020-08-25T08:18:19.000Z</time>
      </trkpt>
      <trkpt lat="44.3565" lon="3.43762">
        <ele>479.4</ele>
        <time>2020-08-25T08:18:20.000Z</time>
      </trkpt>
      <trkpt lat="44.3565" lon="3.43761">
        <ele>479.5</ele>
        <time>2020-08-25T08:18:22.000Z</time>
      </trkpt>
      <trkpt lat="44.35651" lon="3.4376">
        <ele>479.5</ele>
        <time>2020-08-25T08:18:23.000Z</time>
      </trkpt>
      <trkpt lat="44.35651" lon="3.43759">
        <ele>479.5</ele>
        <time>2020-08-25T08:18:24.000Z</time>
      </trkpt>
      <trkpt lat="44.3565" lon="3.43754">
        <ele>479.6</ele>
        <time>2020-08-25T08:18:26.000Z</time>
      </trkpt>
      <trkpt lat="44.3565" lon="3.43752">
        <ele>479.7</ele>
        <time>2020-08-25T08:18:27.000Z</time>
      </trkpt>
      <trkpt lat="44.35649" lon="3.4375">
        <ele>479.7</ele>
        <time>2020-08-25T08:18:28.000Z</time>
      </trkpt>
      <trkpt lat="44.35648" lon="3.43748">
        <ele>479.7</ele>
        <time>2020-08-25T08:18:30.000Z</time>
      </trkpt>
      <trkpt lat="44.35648" lon="3.43747">
        <ele>479.7</ele>
        <time>2020-08-25T08:18:32.000Z</time>
      </trkpt>
      <trkpt lat="44.35648" lon="3.43746">
        <ele>479.7</ele>
        <time>2020-08-25T08:18:33.000Z</time>
      </trkpt>
      <trkpt lat="44.35647" lon="3.43745">
        <ele>479.7</ele>
        <time>2020-08-25T08:18:35.000Z</time>
      </trkpt>
      <trkpt lat="44.35647" lon="3.43744">
        <ele>479.7</ele>
        <time>2020-08-25T08:18:36.000Z</time>
      </trkpt>
      <trkpt lat="44.35647" lon="3.43742">
        <ele>479.8</ele>
        <time>2020-08-25T08:18:37.000Z</time>
      </trkpt>
      <trkpt lat="44.35648" lon="3.43739">
        <ele>479.8</ele>
        <time>2020-08-25T08:18:39.000Z</time>
      </trkpt>
      <trkpt lat="44.35648" lon="3.43737">
        <ele>479.8</ele>
        <time>2020-08-25T08:18:40.000Z</time>
      </trkpt>
      <trkpt lat="44.35649" lon="3.43735">
        <ele>479.9</ele>
        <time>2020-08-25T08:18:42.000Z</time>
      </trkpt>
      <trkpt lat="44.35649" lon="3.43734">
        <ele>479.9</ele>
        <time>2020-08-25T08:18:43.000Z</time>
      </trkpt>
      <trkpt lat="44.3565" lon="3.43732">
        <ele>479.9</ele>
        <time>2020-08-25T08:18:44.000Z</time>
      </trkpt>
      <trkpt lat="44.3565" lon="3.43731">
        <ele>480</ele>
        <time>2020-08-25T08:18:46.000Z</time>
      </trkpt>
      <trkpt lat="44.3565" lon="3.43729">
        <ele>480</ele>
        <time>2020-08-25T08:18:47.000Z</time>
      </trkpt>
      <trkpt lat="44.35651" lon="3.43727">
        <ele>480.1</ele>
        <time>2020-08-25T08:18:49.000Z</time>
      </trkpt>
      <trkpt lat="44.3565" lon="3.43725">
        <ele>480.2</ele>
        <time>2020-08-25T08:18:50.000Z</time>
      </trkpt>
      <trkpt lat="44.3565" lon="3.43722">
        <ele>480.3</ele>
        <time>2020-08-25T08:18:51.000Z</time>
      </trkpt>
      <trkpt lat="44.3565" lon="3.43722">
        <ele>480.3</ele>
        <time>2020-08-25T08:18:52.000Z</time>
      </trkpt>
      <trkpt lat="44.3565" lon="3.43721">
        <ele>480.3</ele>
        <time>2020-08-25T08:18:53.000Z</time>
      </trkpt>
      <trkpt lat="44.35649" lon="3.43719">
        <ele>480.4</ele>
        <time>2020-08-25T08:18:55.000Z</time>
      </trkpt>
      <trkpt lat="44.35649" lon="3.43717">
        <ele>480.5</ele>
        <time>2020-08-25T08:18:56.000Z</time>
      </trkpt>
      <trkpt lat="44.35649" lon="3.43714">
        <ele>480.7</ele>
        <time>2020-08-25T08:18:57.000Z</time>
      </trkpt>
      <trkpt lat="44.3565" lon="3.43713">
        <ele>480.8</ele>
        <time>2020-08-25T08:18:58.000Z</time>
      </trkpt>
      <trkpt lat="44.3565" lon="3.43712">
        <ele>480.9</ele>
        <time>2020-08-25T08:18:59.000Z</time>
      </trkpt>
      <trkpt lat="44.35651" lon="3.4371">
        <ele>481</ele>
        <time>2020-08-25T08:19:01.000Z</time>
      </trkpt>
      <trkpt lat="44.35651" lon="3.4371">
        <ele>481.1</ele>
        <time>2020-08-25T08:19:03.000Z</time>
      </trkpt>
      <trkpt lat="44.35652" lon="3.43708">
        <ele>481.2</ele>
        <time>2020-08-25T08:19:04.000Z</time>
      </trkpt>
      <trkpt lat="44.35653" lon="3.43707">
        <ele>481.3</ele>
        <time>2020-08-25T08:19:05.000Z</time>
      </trkpt>
      <trkpt lat="44.35653" lon="3.43704">
        <ele>481.6</ele>
        <time>2020-08-25T08:19:07.000Z</time>
      </trkpt>
      <trkpt lat="44.35654" lon="3.43703">
        <ele>481.7</ele>
        <time>2020-08-25T08:19:08.000Z</time>
      </trkpt>
      <trkpt lat="44.35654" lon="3.437">
        <ele>482</ele>
        <time>2020-08-25T08:19:10.000Z</time>
      </trkpt>
      <trkpt lat="44.35654" lon="3.43699">
        <ele>482.1</ele>
        <time>2020-08-25T08:19:12.000Z</time>
      </trkpt>
      <trkpt lat="44.35654" lon="3.43698">
        <ele>482.2</ele>
        <time>2020-08-25T08:19:13.000Z</time>
      </trkpt>
      <trkpt lat="44.35654" lon="3.43696">
        <ele>482.4</ele>
        <time>2020-08-25T08:19:14.000Z</time>
      </trkpt>
      <trkpt lat="44.35654" lon="3.43694">
        <ele>482.6</ele>
        <time>2020-08-25T08:19:15.000Z</time>
      </trkpt>
      <trkpt lat="44.35655" lon="3.43691">
        <ele>482.9</ele>
        <time>2020-08-25T08:19:16.000Z</time>
      </trkpt>
      <trkpt lat="44.35654" lon="3.4369">
        <ele>483.1</ele>
        <time>2020-08-25T08:19:18.000Z</time>
      </trkpt>
      <trkpt lat="44.35654" lon="3.43688">
        <ele>483.3</ele>
        <time>2020-08-25T08:19:19.000Z</time>
      </trkpt>
      <trkpt lat="44.35653" lon="3.43687">
        <ele>483.5</ele>
        <time>2020-08-25T08:19:20.000Z</time>
      </trkpt>
      <trkpt lat="44.35652" lon="3.43685">
        <ele>483.8</ele>
        <time>2020-08-25T08:19:22.000Z</time>
      </trkpt>
      <trkpt lat="44.35651" lon="3.43684">
        <ele>484.1</ele>
        <time>2020-08-25T08:19:23.000Z</time>
      </trkpt>
      <trkpt lat="44.3565" lon="3.43683">
        <ele>484.2</ele>
        <time>2020-08-25T08:19:25.000Z</time>
      </trkpt>
      <trkpt lat="44.3565" lon="3.43682">
        <ele>484.4</ele>
        <time>2020-08-25T08:19:26.000Z</time>
      </trkpt>
      <trkpt lat="44.3565" lon="3.43681">
        <ele>484.5</ele>
        <time>2020-08-25T08:19:27.000Z</time>
      </trkpt>
      <trkpt lat="44.3565" lon="3.43681">
        <ele>484.6</ele>
        <time>2020-08-25T08:19:28.000Z</time>
      </trkpt>
      <trkpt lat="44.35649" lon="3.4368">
        <ele>484.7</ele>
        <time>2020-08-25T08:19:30.000Z</time>
      </trkpt>
      <trkpt lat="44.35649" lon="3.4368">
        <ele>484.7</ele>
        <time>2020-08-25T08:19:31.000Z</time>
      </trkpt>
      <trkpt lat="44.35649" lon="3.43681">
        <ele>484.7</ele>
        <time>2020-08-25T08:19:33.000Z</time>
      </trkpt>
      <trkpt lat="44.35648" lon="3.4368">
        <ele>484.9</ele>
        <time>2020-08-25T08:19:34.000Z</time>
      </trkpt>
      <trkpt lat="44.35648" lon="3.4368">
        <ele>485</ele>
        <time>2020-08-25T08:19:35.000Z</time>
      </trkpt>
      <trkpt lat="44.35647" lon="3.43679">
        <ele>485.1</ele>
        <time>2020-08-25T08:19:36.000Z</time>
      </trkpt>
      <trkpt lat="44.35647" lon="3.43678">
        <ele>485.2</ele>
        <time>2020-08-25T08:19:38.000Z</time>
      </trkpt>
      <trkpt lat="44.35647" lon="3.43678">
        <ele>485.2</ele>
        <time>2020-08-25T08:19:39.000Z</time>
      </trkpt>
      <trkpt lat="44.35647" lon="3.43678">
        <ele>485.3</ele>
        <time>2020-08-25T08:19:40.000Z</time>
      </trkpt>
      <trkpt lat="44.35647" lon="3.43678">
        <ele>485.3</ele>
        <time>2020-08-25T08:19:42.000Z</time>
      </trkpt>
      <trkpt lat="44.35647" lon="3.43678">
        <ele>485.4</ele>
        <time>2020-08-25T08:19:43.000Z</time>
      </trkpt>
      <trkpt lat="44.35647" lon="3.43677">
        <ele>485.5</ele>
        <time>2020-08-25T08:19:45.000Z</time>
      </trkpt>
      <trkpt lat="44.35647" lon="3.43676">
        <ele>485.7</ele>
        <time>2020-08-25T08:19:46.000Z</time>
      </trkpt>
      <trkpt lat="44.35647" lon="3.43675">
        <ele>485.7</ele>
        <time>2020-08-25T08:19:47.000Z</time>
      </trkpt>
      <trkpt lat="44.35648" lon="3.43674">
        <ele>485.9</ele>
        <time>2020-08-25T08:19:49.000Z</time>
      </trkpt>
      <trkpt lat="44.35648" lon="3.43674">
        <ele>485.9</ele>
        <time>2020-08-25T08:19:50.000Z</time>
      </trkpt>
      <trkpt lat="44.35648" lon="3.43673">
        <ele>486</ele>
        <time>2020-08-25T08:19:52.000Z</time>
      </trkpt>
      <trkpt lat="44.35648" lon="3.43673">
        <ele>486</ele>
        <time>2020-08-25T08:19:53.000Z</time>
      </trkpt>
      <trkpt lat="44.35648" lon="3.43671">
        <ele>486.2</ele>
        <time>2020-08-25T08:19:55.000Z</time>
      </trkpt>
      <trkpt lat="44.35648" lon="3.43671">
        <ele>486.3</ele>
        <time>2020-08-25T08:19:56.000Z</time>
      </trkpt>
      <trkpt lat="44.35648" lon="3.43669">
        <ele>486.4</ele>
        <time>2020-08-25T08:19:57.000Z</time>
      </trkpt>
      <trkpt lat="44.35648" lon="3.43668">
        <ele>486.6</ele>
        <time>2020-08-25T08:19:59.000Z</time>
      </trkpt>
      <trkpt lat="44.35648" lon="3.43667">
        <ele>486.7</ele>
        <time>2020-08-25T08:20:00.000Z</time>
      </trkpt>
      <trkpt lat="44.35648" lon="3.43666">
        <ele>486.8</ele>
        <time>2020-08-25T08:20:01.000Z</time>
      </trkpt>
      <trkpt lat="44.35648" lon="3.43665">
        <ele>486.9</ele>
        <time>2020-08-25T08:20:03.000Z</time>
      </trkpt>
      <trkpt lat="44.35648" lon="3.43664">
        <ele>487</ele>
        <time>2020-08-25T08:20:04.000Z</time>
      </trkpt>
      <trkpt lat="44.35648" lon="3.43662">
        <ele>487.1</ele>
        <time>2020-08-25T08:20:05.000Z</time>
      </trkpt>
      <trkpt lat="44.35649" lon="3.43661">
        <ele>487.2</ele>
        <time>2020-08-25T08:20:06.000Z</time>
      </trkpt>
      <trkpt lat="44.35649" lon="3.43659">
        <ele>487.4</ele>
        <time>2020-08-25T08:20:07.000Z</time>
      </trkpt>
      <trkpt lat="44.35649" lon="3.43657">
        <ele>487.6</ele>
        <time>2020-08-25T08:20:09.000Z</time>
      </trkpt>
      <trkpt lat="44.3565" lon="3.43654">
        <ele>487.8</ele>
        <time>2020-08-25T08:20:10.000Z</time>
      </trkpt>
      <trkpt lat="44.35651" lon="3.43652">
        <ele>487.9</ele>
        <time>2020-08-25T08:20:11.000Z</time>
      </trkpt>
      <trkpt lat="44.35651" lon="3.43651">
        <ele>488</ele>
        <time>2020-08-25T08:20:12.000Z</time>
      </trkpt>
      <trkpt lat="44.35651" lon="3.4365">
        <ele>488.1</ele>
        <time>2020-08-25T08:20:13.000Z</time>
      </trkpt>
      <trkpt lat="44.35652" lon="3.43648">
        <ele>488.2</ele>
        <time>2020-08-25T08:20:15.000Z</time>
      </trkpt>
      <trkpt lat="44.35653" lon="3.43645">
        <ele>488.4</ele>
        <time>2020-08-25T08:20:16.000Z</time>
      </trkpt>
      <trkpt lat="44.35653" lon="3.43643">
        <ele>488.5</ele>
        <time>2020-08-25T08:20:18.000Z</time>
      </trkpt>
      <trkpt lat="44.35654" lon="3.43642">
        <ele>488.6</ele>
        <time>2020-08-25T08:20:19.000Z</time>
      </trkpt>
      <trkpt lat="44.35655" lon="3.43641">
        <ele>488.7</ele>
        <time>2020-08-25T08:20:20.000Z</time>
      </trkpt>
      <trkpt lat="44.35656" lon="3.43638">
        <ele>488.8</ele>
        <time>2020-08-25T08:20:22.000Z</time>
      </trkpt>
      <trkpt lat="44.35656" lon="3.43638">
        <ele>488.9</ele>
        <time>2020-08-25T08:20:23.000Z</time>
      </trkpt>
      <trkpt lat="44.35657" lon="3.43636">
        <ele>489</ele>
        <time>2020-08-25T08:20:24.000Z</time>
      </trkpt>
      <trkpt lat="44.35658" lon="3.43635">
        <ele>489.1</ele>
        <time>2020-08-25T08:20:26.000Z</time>
      </trkpt>
      <trkpt lat="44.35659" lon="3.43633">
        <ele>489.2</ele>
        <time>2020-08-25T08:20:27.000Z</time>
      </trkpt>
      <trkpt lat="44.3566" lon="3.43629">
        <ele>489.4</ele>
        <time>2020-08-25T08:20:29.000Z</time>
      </trkpt>
      <trkpt lat="44.35661" lon="3.43627">
        <ele>489.6</ele>
        <time>2020-08-25T08:20:30.000Z</time>
      </trkpt>
      <trkpt lat="44.35662" lon="3.43626">
        <ele>489.7</ele>
        <time>2020-08-25T08:20:32.000Z</time>
      </trkpt>
      <trkpt lat="44.35662" lon="3.43625">
        <ele>489.7</ele>
        <time>2020-08-25T08:20:33.000Z</time>
      </trkpt>
      <trkpt lat="44.35663" lon="3.43624">
        <ele>489.8</ele>
        <time>2020-08-25T08:20:34.000Z</time>
      </trkpt>
      <trkpt lat="44.35664" lon="3.43622">
        <ele>490</ele>
        <time>2020-08-25T08:20:36.000Z</time>
      </trkpt>
      <trkpt lat="44.35665" lon="3.43621">
        <ele>490.1</ele>
        <time>2020-08-25T08:20:37.000Z</time>
      </trkpt>
      <trkpt lat="44.35666" lon="3.4362">
        <ele>490.2</ele>
        <time>2020-08-25T08:20:39.000Z</time>
      </trkpt>
      <trkpt lat="44.35667" lon="3.43619">
        <ele>490.2</ele>
        <time>2020-08-25T08:20:40.000Z</time>
      </trkpt>
      <trkpt lat="44.35667" lon="3.43618">
        <ele>490.3</ele>
        <time>2020-08-25T08:20:41.000Z</time>
      </trkpt>
      <trkpt lat="44.35668" lon="3.43616">
        <ele>490.4</ele>
        <time>2020-08-25T08:20:42.000Z</time>
      </trkpt>
      <trkpt lat="44.35668" lon="3.43615">
        <ele>490.4</ele>
        <time>2020-08-25T08:20:44.000Z</time>
      </trkpt>
      <trkpt lat="44.35668" lon="3.43615">
        <ele>490.5</ele>
        <time>2020-08-25T08:20:45.000Z</time>
      </trkpt>
      <trkpt lat="44.35668" lon="3.43614">
        <ele>490.5</ele>
        <time>2020-08-25T08:20:46.000Z</time>
      </trkpt>
      <trkpt lat="44.35669" lon="3.43613">
        <ele>490.6</ele>
        <time>2020-08-25T08:20:47.000Z</time>
      </trkpt>
      <trkpt lat="44.35669" lon="3.43611">
        <ele>490.7</ele>
        <time>2020-08-25T08:20:49.000Z</time>
      </trkpt>
      <trkpt lat="44.35669" lon="3.4361">
        <ele>490.8</ele>
        <time>2020-08-25T08:20:50.000Z</time>
      </trkpt>
      <trkpt lat="44.35669" lon="3.43608">
        <ele>490.9</ele>
        <time>2020-08-25T08:20:51.000Z</time>
      </trkpt>
      <trkpt lat="44.3567" lon="3.43606">
        <ele>491</ele>
        <time>2020-08-25T08:20:53.000Z</time>
      </trkpt>
      <trkpt lat="44.3567" lon="3.43602">
        <ele>491.2</ele>
        <time>2020-08-25T08:20:55.000Z</time>
      </trkpt>
      <trkpt lat="44.35672" lon="3.43601">
        <ele>491.3</ele>
        <time>2020-08-25T08:20:57.000Z</time>
      </trkpt>
      <trkpt lat="44.35673" lon="3.436">
        <ele>491.5</ele>
        <time>2020-08-25T08:20:58.000Z</time>
      </trkpt>
      <trkpt lat="44.35674" lon="3.43599">
        <ele>491.6</ele>
        <time>2020-08-25T08:20:59.000Z</time>
      </trkpt>
      <trkpt lat="44.35676" lon="3.43596">
        <ele>491.9</ele>
        <time>2020-08-25T08:21:01.000Z</time>
      </trkpt>
      <trkpt lat="44.35676" lon="3.43595">
        <ele>492</ele>
        <time>2020-08-25T08:21:03.000Z</time>
      </trkpt>
      <trkpt lat="44.35676" lon="3.43594">
        <ele>492.1</ele>
        <time>2020-08-25T08:21:05.000Z</time>
      </trkpt>
      <trkpt lat="44.35677" lon="3.43593">
        <ele>492.3</ele>
        <time>2020-08-25T08:21:06.000Z</time>
      </trkpt>
      <trkpt lat="44.35677" lon="3.43591">
        <ele>492.5</ele>
        <time>2020-08-25T08:21:07.000Z</time>
      </trkpt>
      <trkpt lat="44.35678" lon="3.43589">
        <ele>492.7</ele>
        <time>2020-08-25T08:21:09.000Z</time>
      </trkpt>
      <trkpt lat="44.35678" lon="3.43588">
        <ele>492.8</ele>
        <time>2020-08-25T08:21:10.000Z</time>
      </trkpt>
      <trkpt lat="44.35678" lon="3.43587">
        <ele>492.9</ele>
        <time>2020-08-25T08:21:12.000Z</time>
      </trkpt>
      <trkpt lat="44.35678" lon="3.43586">
        <ele>493.1</ele>
        <time>2020-08-25T08:21:13.000Z</time>
      </trkpt>
      <trkpt lat="44.35679" lon="3.43584">
        <ele>493.3</ele>
        <time>2020-08-25T08:21:14.000Z</time>
      </trkpt>
      <trkpt lat="44.35679" lon="3.43583">
        <ele>493.4</ele>
        <time>2020-08-25T08:21:15.000Z</time>
      </trkpt>
      <trkpt lat="44.35679" lon="3.43582">
        <ele>493.5</ele>
        <time>2020-08-25T08:21:16.000Z</time>
      </trkpt>
      <trkpt lat="44.35679" lon="3.43581">
        <ele>493.6</ele>
        <time>2020-08-25T08:21:17.000Z</time>
      </trkpt>
      <trkpt lat="44.35679" lon="3.43579">
        <ele>493.8</ele>
        <time>2020-08-25T08:21:19.000Z</time>
      </trkpt>
      <trkpt lat="44.3568" lon="3.43576">
        <ele>494</ele>
        <time>2020-08-25T08:21:20.000Z</time>
      </trkpt>
      <trkpt lat="44.3568" lon="3.43575">
        <ele>494.1</ele>
        <time>2020-08-25T08:21:21.000Z</time>
      </trkpt>
      <trkpt lat="44.3568" lon="3.43575">
        <ele>494.1</ele>
        <time>2020-08-25T08:21:23.000Z</time>
      </trkpt>
      <trkpt lat="44.3568" lon="3.43574">
        <ele>494.2</ele>
        <time>2020-08-25T08:21:24.000Z</time>
      </trkpt>
      <trkpt lat="44.35681" lon="3.43573">
        <ele>494.3</ele>
        <time>2020-08-25T08:21:25.000Z</time>
      </trkpt>
      <trkpt lat="44.35681" lon="3.43571">
        <ele>494.5</ele>
        <time>2020-08-25T08:21:27.000Z</time>
      </trkpt>
      <trkpt lat="44.35681" lon="3.4357">
        <ele>494.6</ele>
        <time>2020-08-25T08:21:28.000Z</time>
      </trkpt>
      <trkpt lat="44.35682" lon="3.43569">
        <ele>494.6</ele>
        <time>2020-08-25T08:21:30.000Z</time>
      </trkpt>
      <trkpt lat="44.35683" lon="3.43567">
        <ele>494.8</ele>
        <time>2020-08-25T08:21:31.000Z</time>
      </trkpt>
      <trkpt lat="44.35683" lon="3.43565">
        <ele>494.9</ele>
        <time>2020-08-25T08:21:32.000Z</time>
      </trkpt>
      <trkpt lat="44.35684" lon="3.43563">
        <ele>495</ele>
        <time>2020-08-25T08:21:34.000Z</time>
      </trkpt>
      <trkpt lat="44.35686" lon="3.43561">
        <ele>495.1</ele>
        <time>2020-08-25T08:21:35.000Z</time>
      </trkpt>
      <trkpt lat="44.35686" lon="3.4356">
        <ele>495.1</ele>
        <time>2020-08-25T08:21:36.000Z</time>
      </trkpt>
      <trkpt lat="44.35687" lon="3.43559">
        <ele>495.2</ele>
        <time>2020-08-25T08:21:38.000Z</time>
      </trkpt>
      <trkpt lat="44.35687" lon="3.43559">
        <ele>495.2</ele>
        <time>2020-08-25T08:21:40.000Z</time>
      </trkpt>
      <trkpt lat="44.35688" lon="3.43558">
        <ele>495.3</ele>
        <time>2020-08-25T08:21:41.000Z</time>
      </trkpt>
      <trkpt lat="44.35688" lon="3.43557">
        <ele>495.3</ele>
        <time>2020-08-25T08:21:42.000Z</time>
      </trkpt>
      <trkpt lat="44.35689" lon="3.43556">
        <ele>495.3</ele>
        <time>2020-08-25T08:21:43.000Z</time>
      </trkpt>
      <trkpt lat="44.35691" lon="3.43553">
        <ele>495.4</ele>
        <time>2020-08-25T08:21:45.000Z</time>
      </trkpt>
      <trkpt lat="44.35694" lon="3.4355">
        <ele>495.5</ele>
        <time>2020-08-25T08:21:46.000Z</time>
      </trkpt>
      <trkpt lat="44.35694" lon="3.43549">
        <ele>495.5</ele>
        <time>2020-08-25T08:21:48.000Z</time>
      </trkpt>
      <trkpt lat="44.35696" lon="3.43547">
        <ele>495.6</ele>
        <time>2020-08-25T08:21:49.000Z</time>
      </trkpt>
      <trkpt lat="44.35698" lon="3.43545">
        <ele>495.6</ele>
        <time>2020-08-25T08:21:50.000Z</time>
      </trkpt>
      <trkpt lat="44.35699" lon="3.43544">
        <ele>495.6</ele>
        <time>2020-08-25T08:21:51.000Z</time>
      </trkpt>
      <trkpt lat="44.35702" lon="3.43542">
        <ele>495.5</ele>
        <time>2020-08-25T08:21:52.000Z</time>
      </trkpt>
      <trkpt lat="44.35703" lon="3.43541">
        <ele>495.5</ele>
        <time>2020-08-25T08:21:53.000Z</time>
      </trkpt>
      <trkpt lat="44.35707" lon="3.4354">
        <ele>495.2</ele>
        <time>2020-08-25T08:21:55.000Z</time>
      </trkpt>
      <trkpt lat="44.35708" lon="3.4354">
        <ele>495.1</ele>
        <time>2020-08-25T08:21:56.000Z</time>
      </trkpt>
      <trkpt lat="44.3571" lon="3.43539">
        <ele>495</ele>
        <time>2020-08-25T08:21:57.000Z</time>
      </trkpt>
      <trkpt lat="44.35711" lon="3.43537">
        <ele>494.8</ele>
        <time>2020-08-25T08:21:58.000Z</time>
      </trkpt>
      <trkpt lat="44.35714" lon="3.43536">
        <ele>494.6</ele>
        <time>2020-08-25T08:22:00.000Z</time>
      </trkpt>
      <trkpt lat="44.35714" lon="3.43535">
        <ele>494.5</ele>
        <time>2020-08-25T08:22:01.000Z</time>
      </trkpt>
      <trkpt lat="44.35714" lon="3.43533">
        <ele>494.3</ele>
        <time>2020-08-25T08:22:03.000Z</time>
      </trkpt>
      <trkpt lat="44.35714" lon="3.43533">
        <ele>494.2</ele>
        <time>2020-08-25T08:22:04.000Z</time>
      </trkpt>
      <trkpt lat="44.35716" lon="3.43532">
        <ele>494</ele>
        <time>2020-08-25T08:22:05.000Z</time>
      </trkpt>
      <trkpt lat="44.35717" lon="3.43531">
        <ele>493.8</ele>
        <time>2020-08-25T08:22:06.000Z</time>
      </trkpt>
      <trkpt lat="44.35719" lon="3.43531">
        <ele>493.5</ele>
        <time>2020-08-25T08:22:08.000Z</time>
      </trkpt>
      <trkpt lat="44.35721" lon="3.43531">
        <ele>493.3</ele>
        <time>2020-08-25T08:22:09.000Z</time>
      </trkpt>
      <trkpt lat="44.35722" lon="3.43531">
        <ele>493.1</ele>
        <time>2020-08-25T08:22:10.000Z</time>
      </trkpt>
      <trkpt lat="44.35722" lon="3.43531">
        <ele>493</ele>
        <time>2020-08-25T08:22:11.000Z</time>
      </trkpt>
      <trkpt lat="44.35723" lon="3.43531">
        <ele>492.9</ele>
        <time>2020-08-25T08:22:12.000Z</time>
      </trkpt>
      <trkpt lat="44.35725" lon="3.43532">
        <ele>492.6</ele>
        <time>2020-08-25T08:22:14.000Z</time>
      </trkpt>
      <trkpt lat="44.35726" lon="3.43531">
        <ele>492.5</ele>
        <time>2020-08-25T08:22:15.000Z</time>
      </trkpt>
      <trkpt lat="44.35728" lon="3.43531">
        <ele>492.2</ele>
        <time>2020-08-25T08:22:16.000Z</time>
      </trkpt>
      <trkpt lat="44.35729" lon="3.43531">
        <ele>492</ele>
        <time>2020-08-25T08:22:17.000Z</time>
      </trkpt>
      <trkpt lat="44.3573" lon="3.43531">
        <ele>491.9</ele>
        <time>2020-08-25T08:22:19.000Z</time>
      </trkpt>
      <trkpt lat="44.35731" lon="3.43531">
        <ele>491.7</ele>
        <time>2020-08-25T08:22:20.000Z</time>
      </trkpt>
      <trkpt lat="44.35732" lon="3.43531">
        <ele>491.6</ele>
        <time>2020-08-25T08:22:22.000Z</time>
      </trkpt>
      <trkpt lat="44.35734" lon="3.43531">
        <ele>491.4</ele>
        <time>2020-08-25T08:22:23.000Z</time>
      </trkpt>
      <trkpt lat="44.35735" lon="3.43531">
        <ele>491.3</ele>
        <time>2020-08-25T08:22:24.000Z</time>
      </trkpt>
      <trkpt lat="44.35736" lon="3.43531">
        <ele>491.1</ele>
        <time>2020-08-25T08:22:25.000Z</time>
      </trkpt>
      <trkpt lat="44.35737" lon="3.4353">
        <ele>491</ele>
        <time>2020-08-25T08:22:27.000Z</time>
      </trkpt>
      <trkpt lat="44.35738" lon="3.4353">
        <ele>490.9</ele>
        <time>2020-08-25T08:22:28.000Z</time>
      </trkpt>
      <trkpt lat="44.35739" lon="3.4353">
        <ele>490.7</ele>
        <time>2020-08-25T08:22:30.000Z</time>
      </trkpt>
      <trkpt lat="44.3574" lon="3.4353">
        <ele>490.6</ele>
        <time>2020-08-25T08:22:31.000Z</time>
      </trkpt>
      <trkpt lat="44.35741" lon="3.4353">
        <ele>490.5</ele>
        <time>2020-08-25T08:22:32.000Z</time>
      </trkpt>
      <trkpt lat="44.35742" lon="3.4353">
        <ele>490.4</ele>
        <time>2020-08-25T08:22:33.000Z</time>
      </trkpt>
      <trkpt lat="44.35744" lon="3.4353">
        <ele>490.2</ele>
        <time>2020-08-25T08:22:35.000Z</time>
      </trkpt>
      <trkpt lat="44.35745" lon="3.43529">
        <ele>490</ele>
        <time>2020-08-25T08:22:36.000Z</time>
      </trkpt>
      <trkpt lat="44.35746" lon="3.43529">
        <ele>489.9</ele>
        <time>2020-08-25T08:22:37.000Z</time>
      </trkpt>
      <trkpt lat="44.35748" lon="3.43529">
        <ele>489.7</ele>
        <time>2020-08-25T08:22:39.000Z</time>
      </trkpt>
      <trkpt lat="44.35748" lon="3.43528">
        <ele>489.7</ele>
        <time>2020-08-25T08:22:41.000Z</time>
      </trkpt>
      <trkpt lat="44.35747" lon="3.43528">
        <ele>489.6</ele>
        <time>2020-08-25T08:22:42.000Z</time>
      </trkpt>
      <trkpt lat="44.35748" lon="3.43527">
        <ele>489.5</ele>
        <time>2020-08-25T08:22:44.000Z</time>
      </trkpt>
      <trkpt lat="44.35749" lon="3.43527">
        <ele>489.4</ele>
        <time>2020-08-25T08:22:45.000Z</time>
      </trkpt>
      <trkpt lat="44.3575" lon="3.43525">
        <ele>489.2</ele>
        <time>2020-08-25T08:22:46.000Z</time>
      </trkpt>
      <trkpt lat="44.35753" lon="3.43524">
        <ele>488.9</ele>
        <time>2020-08-25T08:22:48.000Z</time>
      </trkpt>
      <trkpt lat="44.35754" lon="3.43523">
        <ele>488.9</ele>
        <time>2020-08-25T08:22:49.000Z</time>
      </trkpt>
      <trkpt lat="44.35755" lon="3.43523">
        <ele>488.8</ele>
        <time>2020-08-25T08:22:50.000Z</time>
      </trkpt>
      <trkpt lat="44.35758" lon="3.43522">
        <ele>488.5</ele>
        <time>2020-08-25T08:22:52.000Z</time>
      </trkpt>
      <trkpt lat="44.3576" lon="3.4352">
        <ele>488.3</ele>
        <time>2020-08-25T08:22:53.000Z</time>
      </trkpt>
      <trkpt lat="44.35762" lon="3.43518">
        <ele>488.1</ele>
        <time>2020-08-25T08:22:55.000Z</time>
      </trkpt>
      <trkpt lat="44.35763" lon="3.43517">
        <ele>488</ele>
        <time>2020-08-25T08:22:56.000Z</time>
      </trkpt>
      <trkpt lat="44.35765" lon="3.43515">
        <ele>487.8</ele>
        <time>2020-08-25T08:22:57.000Z</time>
      </trkpt>
      <trkpt lat="44.35766" lon="3.43513">
        <ele>487.7</ele>
        <time>2020-08-25T08:22:59.000Z</time>
      </trkpt>
      <trkpt lat="44.35769" lon="3.43509">
        <ele>487.4</ele>
        <time>2020-08-25T08:23:01.000Z</time>
      </trkpt>
      <trkpt lat="44.3577" lon="3.43507">
        <ele>487.3</ele>
        <time>2020-08-25T08:23:02.000Z</time>
      </trkpt>
      <trkpt lat="44.35771" lon="3.43505">
        <ele>487.2</ele>
        <time>2020-08-25T08:23:04.000Z</time>
      </trkpt>
      <trkpt lat="44.35772" lon="3.43504">
        <ele>487.2</ele>
        <time>2020-08-25T08:23:05.000Z</time>
      </trkpt>
      <trkpt lat="44.35772" lon="3.43503">
        <ele>487.1</ele>
        <time>2020-08-25T08:23:07.000Z</time>
      </trkpt>
      <trkpt lat="44.35772" lon="3.43503">
        <ele>487.1</ele>
        <time>2020-08-25T08:23:08.000Z</time>
      </trkpt>
      <trkpt lat="44.35772" lon="3.43502">
        <ele>487</ele>
        <time>2020-08-25T08:23:09.000Z</time>
      </trkpt>
      <trkpt lat="44.35773" lon="3.435">
        <ele>487</ele>
        <time>2020-08-25T08:23:11.000Z</time>
      </trkpt>
      <trkpt lat="44.35774" lon="3.43499">
        <ele>486.9</ele>
        <time>2020-08-25T08:23:12.000Z</time>
      </trkpt>
      <trkpt lat="44.35775" lon="3.43498">
        <ele>486.8</ele>
        <time>2020-08-25T08:23:13.000Z</time>
      </trkpt>
      <trkpt lat="44.35775" lon="3.43497">
        <ele>486.8</ele>
        <time>2020-08-25T08:23:15.000Z</time>
      </trkpt>
      <trkpt lat="44.35776" lon="3.43497">
        <ele>486.7</ele>
        <time>2020-08-25T08:23:16.000Z</time>
      </trkpt>
      <trkpt lat="44.35777" lon="3.43495">
        <ele>486.7</ele>
        <time>2020-08-25T08:23:17.000Z</time>
      </trkpt>
      <trkpt lat="44.35779" lon="3.43495">
        <ele>486.6</ele>
        <time>2020-08-25T08:23:19.000Z</time>
      </trkpt>
      <trkpt lat="44.35781" lon="3.43494">
        <ele>486.5</ele>
        <time>2020-08-25T08:23:20.000Z</time>
      </trkpt>
      <trkpt lat="44.35781" lon="3.43494">
        <ele>486.5</ele>
        <time>2020-08-25T08:23:21.000Z</time>
      </trkpt>
      <trkpt lat="44.35782" lon="3.43492">
        <ele>486.4</ele>
        <time>2020-08-25T08:23:23.000Z</time>
      </trkpt>
      <trkpt lat="44.35782" lon="3.43491">
        <ele>486.4</ele>
        <time>2020-08-25T08:23:24.000Z</time>
      </trkpt>
      <trkpt lat="44.35783" lon="3.4349">
        <ele>486.4</ele>
        <time>2020-08-25T08:23:25.000Z</time>
      </trkpt>
      <trkpt lat="44.35784" lon="3.43488">
        <ele>486.4</ele>
        <time>2020-08-25T08:23:27.000Z</time>
      </trkpt>
      <trkpt lat="44.35785" lon="3.43488">
        <ele>486.4</ele>
        <time>2020-08-25T08:23:28.000Z</time>
      </trkpt>
      <trkpt lat="44.35786" lon="3.43487">
        <ele>486.4</ele>
        <time>2020-08-25T08:23:29.000Z</time>
      </trkpt>
      <trkpt lat="44.35786" lon="3.43486">
        <ele>486.3</ele>
        <time>2020-08-25T08:23:30.000Z</time>
      </trkpt>
      <trkpt lat="44.35788" lon="3.43485">
        <ele>486.4</ele>
        <time>2020-08-25T08:23:31.000Z</time>
      </trkpt>
      <trkpt lat="44.3579" lon="3.43483">
        <ele>486.4</ele>
        <time>2020-08-25T08:23:33.000Z</time>
      </trkpt>
      <trkpt lat="44.35792" lon="3.43482">
        <ele>486.4</ele>
        <time>2020-08-25T08:23:34.000Z</time>
      </trkpt>
      <trkpt lat="44.35793" lon="3.43481">
        <ele>486.5</ele>
        <time>2020-08-25T08:23:36.000Z</time>
      </trkpt>
      <trkpt lat="44.35794" lon="3.43481">
        <ele>486.5</ele>
        <time>2020-08-25T08:23:37.000Z</time>
      </trkpt>
      <trkpt lat="44.35795" lon="3.4348">
        <ele>486.5</ele>
        <time>2020-08-25T08:23:38.000Z</time>
      </trkpt>
      <trkpt lat="44.35796" lon="3.43479">
        <ele>486.5</ele>
        <time>2020-08-25T08:23:39.000Z</time>
      </trkpt>
      <trkpt lat="44.35797" lon="3.43478">
        <ele>486.6</ele>
        <time>2020-08-25T08:23:40.000Z</time>
      </trkpt>
      <trkpt lat="44.35798" lon="3.43477">
        <ele>486.6</ele>
        <time>2020-08-25T08:23:42.000Z</time>
      </trkpt>
      <trkpt lat="44.35799" lon="3.43476">
        <ele>486.7</ele>
        <time>2020-08-25T08:23:43.000Z</time>
      </trkpt>
      <trkpt lat="44.358" lon="3.43474">
        <ele>486.7</ele>
        <time>2020-08-25T08:23:44.000Z</time>
      </trkpt>
      <trkpt lat="44.35802" lon="3.43473">
        <ele>486.7</ele>
        <time>2020-08-25T08:23:46.000Z</time>
      </trkpt>
      <trkpt lat="44.35802" lon="3.43473">
        <ele>486.7</ele>
        <time>2020-08-25T08:23:47.000Z</time>
      </trkpt>
      <trkpt lat="44.35802" lon="3.43472">
        <ele>486.7</ele>
        <time>2020-08-25T08:23:48.000Z</time>
      </trkpt>
      <trkpt lat="44.35802" lon="3.43472">
        <ele>486.7</ele>
        <time>2020-08-25T08:23:50.000Z</time>
      </trkpt>
      <trkpt lat="44.35802" lon="3.43472">
        <ele>486.7</ele>
        <time>2020-08-25T08:23:51.000Z</time>
      </trkpt>
      <trkpt lat="44.35803" lon="3.43472">
        <ele>486.7</ele>
        <time>2020-08-25T08:23:53.000Z</time>
      </trkpt>
      <trkpt lat="44.35804" lon="3.43471">
        <ele>486.7</ele>
        <time>2020-08-25T08:23:55.000Z</time>
      </trkpt>
      <trkpt lat="44.35804" lon="3.43471">
        <ele>486.8</ele>
        <time>2020-08-25T08:23:56.000Z</time>
      </trkpt>
      <trkpt lat="44.35807" lon="3.43469">
        <ele>486.8</ele>
        <time>2020-08-25T08:23:58.000Z</time>
      </trkpt>
      <trkpt lat="44.35808" lon="3.43468">
        <ele>486.8</ele>
        <time>2020-08-25T08:23:59.000Z</time>
      </trkpt>
      <trkpt lat="44.35809" lon="3.43468">
        <ele>486.8</ele>
        <time>2020-08-25T08:24:00.000Z</time>
      </trkpt>
      <trkpt lat="44.35811" lon="3.43467">
        <ele>486.8</ele>
        <time>2020-08-25T08:24:01.000Z</time>
      </trkpt>
      <trkpt lat="44.35814" lon="3.43466">
        <ele>486.8</ele>
        <time>2020-08-25T08:24:03.000Z</time>
      </trkpt>
      <trkpt lat="44.35815" lon="3.43466">
        <ele>486.8</ele>
        <time>2020-08-25T08:24:04.000Z</time>
      </trkpt>
      <trkpt lat="44.35818" lon="3.43464">
        <ele>486.7</ele>
        <time>2020-08-25T08:24:05.000Z</time>
      </trkpt>
      <trkpt lat="44.35819" lon="3.43463">
        <ele>486.7</ele>
        <time>2020-08-25T08:24:06.000Z</time>
      </trkpt>
      <trkpt lat="44.35821" lon="3.43463">
        <ele>486.6</ele>
        <time>2020-08-25T08:24:08.000Z</time>
      </trkpt>
      <trkpt lat="44.35823" lon="3.43462">
        <ele>486.6</ele>
        <time>2020-08-25T08:24:09.000Z</time>
      </trkpt>
      <trkpt lat="44.35825" lon="3.43462">
        <ele>486.6</ele>
        <time>2020-08-25T08:24:11.000Z</time>
      </trkpt>
      <trkpt lat="44.35828" lon="3.4346">
        <ele>486.5</ele>
        <time>2020-08-25T08:24:12.000Z</time>
      </trkpt>
      <trkpt lat="44.35832" lon="3.4346">
        <ele>486.4</ele>
        <time>2020-08-25T08:24:13.000Z</time>
      </trkpt>
      <trkpt lat="44.35834" lon="3.43459">
        <ele>486.4</ele>
        <time>2020-08-25T08:24:14.000Z</time>
      </trkpt>
      <trkpt lat="44.35837" lon="3.43459">
        <ele>486.3</ele>
        <time>2020-08-25T08:24:15.000Z</time>
      </trkpt>
      <trkpt lat="44.35841" lon="3.43458">
        <ele>486.3</ele>
        <time>2020-08-25T08:24:17.000Z</time>
      </trkpt>
      <trkpt lat="44.35849" lon="3.43455">
        <ele>486.3</ele>
        <time>2020-08-25T08:24:18.000Z</time>
      </trkpt>
      <trkpt lat="44.35855" lon="3.43453">
        <ele>486.4</ele>
        <time>2020-08-25T08:24:19.000Z</time>
      </trkpt>
      <trkpt lat="44.35865" lon="3.43449">
        <ele>486.7</ele>
        <time>2020-08-25T08:24:21.000Z</time>
      </trkpt>
      <trkpt lat="44.35869" lon="3.43447">
        <ele>486.8</ele>
        <time>2020-08-25T08:24:22.000Z</time>
      </trkpt>
      <trkpt lat="44.35873" lon="3.43445">
        <ele>486.9</ele>
        <time>2020-08-25T08:24:24.000Z</time>
      </trkpt>
      <trkpt lat="44.35876" lon="3.43444">
        <ele>487</ele>
        <time>2020-08-25T08:24:25.000Z</time>
      </trkpt>
      <trkpt lat="44.35879" lon="3.43442">
        <ele>487.1</ele>
        <time>2020-08-25T08:24:26.000Z</time>
      </trkpt>
      <trkpt lat="44.3588" lon="3.43442">
        <ele>487.1</ele>
        <time>2020-08-25T08:24:27.000Z</time>
      </trkpt>
      <trkpt lat="44.35884" lon="3.43441">
        <ele>487.2</ele>
        <time>2020-08-25T08:24:28.000Z</time>
      </trkpt>
      <trkpt lat="44.35885" lon="3.4344">
        <ele>487.2</ele>
        <time>2020-08-25T08:24:29.000Z</time>
      </trkpt>
      <trkpt lat="44.35887" lon="3.43439">
        <ele>487.3</ele>
        <time>2020-08-25T08:24:30.000Z</time>
      </trkpt>
      <trkpt lat="44.35892" lon="3.43437">
        <ele>487.4</ele>
        <time>2020-08-25T08:24:32.000Z</time>
      </trkpt>
      <trkpt lat="44.35894" lon="3.43436">
        <ele>487.4</ele>
        <time>2020-08-25T08:24:33.000Z</time>
      </trkpt>
      <trkpt lat="44.35899" lon="3.43435">
        <ele>487.5</ele>
        <time>2020-08-25T08:24:35.000Z</time>
      </trkpt>
      <trkpt lat="44.35904" lon="3.43433">
        <ele>487.5</ele>
        <time>2020-08-25T08:24:36.000Z</time>
      </trkpt>
      <trkpt lat="44.35909" lon="3.43431">
        <ele>487.6</ele>
        <time>2020-08-25T08:24:37.000Z</time>
      </trkpt>
      <trkpt lat="44.35914" lon="3.43429">
        <ele>487.7</ele>
        <time>2020-08-25T08:24:38.000Z</time>
      </trkpt>
      <trkpt lat="44.35918" lon="3.43428">
        <ele>487.8</ele>
        <time>2020-08-25T08:24:39.000Z</time>
      </trkpt>
      <trkpt lat="44.35925" lon="3.43427">
        <ele>488.1</ele>
        <time>2020-08-25T08:24:41.000Z</time>
      </trkpt>
      <trkpt lat="44.3593" lon="3.43426">
        <ele>488.3</ele>
        <time>2020-08-25T08:24:42.000Z</time>
      </trkpt>
      <trkpt lat="44.35936" lon="3.43426">
        <ele>488.6</ele>
        <time>2020-08-25T08:24:44.000Z</time>
      </trkpt>
      <trkpt lat="44.35941" lon="3.43425">
        <ele>488.8</ele>
        <time>2020-08-25T08:24:45.000Z</time>
      </trkpt>
      <trkpt lat="44.35945" lon="3.43423">
        <ele>489</ele>
        <time>2020-08-25T08:24:47.000Z</time>
      </trkpt>
      <trkpt lat="44.35947" lon="3.43421">
        <ele>489.1</ele>
        <time>2020-08-25T08:24:48.000Z</time>
      </trkpt>
      <trkpt lat="44.35951" lon="3.43419">
        <ele>489.2</ele>
        <time>2020-08-25T08:24:49.000Z</time>
      </trkpt>
      <trkpt lat="44.35954" lon="3.43417">
        <ele>489.2</ele>
        <time>2020-08-25T08:24:50.000Z</time>
      </trkpt>
      <trkpt lat="44.3596" lon="3.43414">
        <ele>489.1</ele>
        <time>2020-08-25T08:24:52.000Z</time>
      </trkpt>
      <trkpt lat="44.35964" lon="3.43414">
        <ele>489</ele>
        <time>2020-08-25T08:24:53.000Z</time>
      </trkpt>
      <trkpt lat="44.35969" lon="3.43413">
        <ele>488.8</ele>
        <time>2020-08-25T08:24:55.000Z</time>
      </trkpt>
      <trkpt lat="44.35973" lon="3.43413">
        <ele>488.7</ele>
        <time>2020-08-25T08:24:56.000Z</time>
      </trkpt>
      <trkpt lat="44.35977" lon="3.43412">
        <ele>488.5</ele>
        <time>2020-08-25T08:24:57.000Z</time>
      </trkpt>
      <trkpt lat="44.35981" lon="3.43411">
        <ele>488.3</ele>
        <time>2020-08-25T08:24:58.000Z</time>
      </trkpt>
      <trkpt lat="44.35987" lon="3.43409">
        <ele>488.1</ele>
        <time>2020-08-25T08:25:00.000Z</time>
      </trkpt>
      <trkpt lat="44.35993" lon="3.43406">
        <ele>487.8</ele>
        <time>2020-08-25T08:25:02.000Z</time>
      </trkpt>
      <trkpt lat="44.35997" lon="3.43405">
        <ele>487.7</ele>
        <time>2020-08-25T08:25:04.000Z</time>
      </trkpt>
      <trkpt lat="44.35997" lon="3.43405">
        <ele>487.7</ele>
        <time>2020-08-25T08:25:06.000Z</time>
      </trkpt>
      <trkpt lat="44.35996" lon="3.43405">
        <ele>487.6</ele>
        <time>2020-08-25T08:25:07.000Z</time>
      </trkpt>
      <trkpt lat="44.35996" lon="3.43405">
        <ele>487.6</ele>
        <time>2020-08-25T08:25:09.000Z</time>
      </trkpt>
      <trkpt lat="44.35995" lon="3.43405">
        <ele>487.6</ele>
        <time>2020-08-25T08:25:10.000Z</time>
      </trkpt>
      <trkpt lat="44.35995" lon="3.43405">
        <ele>487.6</ele>
        <time>2020-08-25T08:25:12.000Z</time>
      </trkpt>
      <trkpt lat="44.35995" lon="3.43405">
        <ele>487.6</ele>
        <time>2020-08-25T08:25:13.000Z</time>
      </trkpt>
      <trkpt lat="44.35995" lon="3.43405">
        <ele>487.6</ele>
        <time>2020-08-25T08:25:15.000Z</time>
      </trkpt>
      <trkpt lat="44.36002" lon="3.43413">
        <ele>487.3</ele>
        <time>2020-08-25T08:27:20.000Z</time>
      </trkpt>
      <trkpt lat="44.3601" lon="3.43412">
        <ele>487</ele>
        <time>2020-08-25T08:27:22.000Z</time>
      </trkpt>
      <trkpt lat="44.36014" lon="3.43409">
        <ele>486.9</ele>
        <time>2020-08-25T08:27:24.000Z</time>
      </trkpt>
      <trkpt lat="44.36018" lon="3.43407">
        <ele>486.7</ele>
        <time>2020-08-25T08:27:25.000Z</time>
      </trkpt>
      <trkpt lat="44.36022" lon="3.43406">
        <ele>486.6</ele>
        <time>2020-08-25T08:27:26.000Z</time>
      </trkpt>
      <trkpt lat="44.36028" lon="3.43405">
        <ele>486.4</ele>
        <time>2020-08-25T08:27:27.000Z</time>
      </trkpt>
      <trkpt lat="44.36037" lon="3.43404">
        <ele>486</ele>
        <time>2020-08-25T08:27:29.000Z</time>
      </trkpt>
      <trkpt lat="44.36043" lon="3.43404">
        <ele>485.8</ele>
        <time>2020-08-25T08:27:30.000Z</time>
      </trkpt>
      <trkpt lat="44.36051" lon="3.43406">
        <ele>485.4</ele>
        <time>2020-08-25T08:27:31.000Z</time>
      </trkpt>
      <trkpt lat="44.36058" lon="3.43409">
        <ele>485.1</ele>
        <time>2020-08-25T08:27:33.000Z</time>
      </trkpt>
      <trkpt lat="44.36063" lon="3.4341">
        <ele>484.9</ele>
        <time>2020-08-25T08:27:34.000Z</time>
      </trkpt>
      <trkpt lat="44.36069" lon="3.43411">
        <ele>484.6</ele>
        <time>2020-08-25T08:27:35.000Z</time>
      </trkpt>
      <trkpt lat="44.36075" lon="3.43411">
        <ele>484.4</ele>
        <time>2020-08-25T08:27:37.000Z</time>
      </trkpt>
      <trkpt lat="44.36081" lon="3.43411">
        <ele>484.1</ele>
        <time>2020-08-25T08:27:38.000Z</time>
      </trkpt>
      <trkpt lat="44.36087" lon="3.43411">
        <ele>483.9</ele>
        <time>2020-08-25T08:27:39.000Z</time>
      </trkpt>
      <trkpt lat="44.36093" lon="3.43411">
        <ele>483.7</ele>
        <time>2020-08-25T08:27:41.000Z</time>
      </trkpt>
      <trkpt lat="44.36098" lon="3.4341">
        <ele>483.5</ele>
        <time>2020-08-25T08:27:42.000Z</time>
      </trkpt>
      <trkpt lat="44.36103" lon="3.43409">
        <ele>483.4</ele>
        <time>2020-08-25T08:27:43.000Z</time>
      </trkpt>
      <trkpt lat="44.36108" lon="3.43408">
        <ele>483.2</ele>
        <time>2020-08-25T08:27:44.000Z</time>
      </trkpt>
      <trkpt lat="44.36115" lon="3.43407">
        <ele>482.9</ele>
        <time>2020-08-25T08:27:46.000Z</time>
      </trkpt>
      <trkpt lat="44.36121" lon="3.43406">
        <ele>482.7</ele>
        <time>2020-08-25T08:27:47.000Z</time>
      </trkpt>
      <trkpt lat="44.36125" lon="3.43406">
        <ele>482.5</ele>
        <time>2020-08-25T08:27:48.000Z</time>
      </trkpt>
      <trkpt lat="44.3613" lon="3.43405">
        <ele>482.3</ele>
        <time>2020-08-25T08:27:49.000Z</time>
      </trkpt>
      <trkpt lat="44.36135" lon="3.43405">
        <ele>482.1</ele>
        <time>2020-08-25T08:27:50.000Z</time>
      </trkpt>
      <trkpt lat="44.36142" lon="3.43405">
        <ele>481.8</ele>
        <time>2020-08-25T08:27:52.000Z</time>
      </trkpt>
      <trkpt lat="44.36147" lon="3.43405">
        <ele>481.6</ele>
        <time>2020-08-25T08:27:53.000Z</time>
      </trkpt>
      <trkpt lat="44.36152" lon="3.43406">
        <ele>481.4</ele>
        <time>2020-08-25T08:27:54.000Z</time>
      </trkpt>
      <trkpt lat="44.3616" lon="3.43407">
        <ele>481.1</ele>
        <time>2020-08-25T08:27:56.000Z</time>
      </trkpt>
      <trkpt lat="44.36167" lon="3.43408">
        <ele>480.8</ele>
        <time>2020-08-25T08:27:58.000Z</time>
      </trkpt>
      <trkpt lat="44.36172" lon="3.43408">
        <ele>480.6</ele>
        <time>2020-08-25T08:27:59.000Z</time>
      </trkpt>
      <trkpt lat="44.36179" lon="3.4341">
        <ele>480.3</ele>
        <time>2020-08-25T08:28:01.000Z</time>
      </trkpt>
      <trkpt lat="44.36183" lon="3.4341">
        <ele>480.1</ele>
        <time>2020-08-25T08:28:02.000Z</time>
      </trkpt>
      <trkpt lat="44.3619" lon="3.43411">
        <ele>479.8</ele>
        <time>2020-08-25T08:28:03.000Z</time>
      </trkpt>
      <trkpt lat="44.36198" lon="3.43413">
        <ele>479.4</ele>
        <time>2020-08-25T08:28:05.000Z</time>
      </trkpt>
      <trkpt lat="44.36203" lon="3.43413">
        <ele>479.1</ele>
        <time>2020-08-25T08:28:06.000Z</time>
      </trkpt>
      <trkpt lat="44.36209" lon="3.43414">
        <ele>478.9</ele>
        <time>2020-08-25T08:28:07.000Z</time>
      </trkpt>
      <trkpt lat="44.36216" lon="3.43415">
        <ele>478.6</ele>
        <time>2020-08-25T08:28:08.000Z</time>
      </trkpt>
      <trkpt lat="44.36223" lon="3.43415">
        <ele>478.3</ele>
        <time>2020-08-25T08:28:10.000Z</time>
      </trkpt>
      <trkpt lat="44.36232" lon="3.43416">
        <ele>477.9</ele>
        <time>2020-08-25T08:28:11.000Z</time>
      </trkpt>
      <trkpt lat="44.36241" lon="3.43418">
        <ele>477.4</ele>
        <time>2020-08-25T08:28:13.000Z</time>
      </trkpt>
      <trkpt lat="44.36247" lon="3.43418">
        <ele>477.3</ele>
        <time>2020-08-25T08:28:14.000Z</time>
      </trkpt>
      <trkpt lat="44.36253" lon="3.43418">
        <ele>477.4</ele>
        <time>2020-08-25T08:28:16.000Z</time>
      </trkpt>
      <trkpt lat="44.36258" lon="3.4342">
        <ele>477.4</ele>
        <time>2020-08-25T08:28:17.000Z</time>
      </trkpt>
      <trkpt lat="44.36265" lon="3.43422">
        <ele>477.5</ele>
        <time>2020-08-25T08:28:18.000Z</time>
      </trkpt>
      <trkpt lat="44.3627" lon="3.43423">
        <ele>477.5</ele>
        <time>2020-08-25T08:28:19.000Z</time>
      </trkpt>
      <trkpt lat="44.36274" lon="3.43424">
        <ele>477.6</ele>
        <time>2020-08-25T08:28:20.000Z</time>
      </trkpt>
      <trkpt lat="44.36279" lon="3.43425">
        <ele>477.6</ele>
        <time>2020-08-25T08:28:21.000Z</time>
      </trkpt>
      <trkpt lat="44.36284" lon="3.43425">
        <ele>477.6</ele>
        <time>2020-08-25T08:28:22.000Z</time>
      </trkpt>
      <trkpt lat="44.3629" lon="3.43426">
        <ele>477.6</ele>
        <time>2020-08-25T08:28:24.000Z</time>
      </trkpt>
      <trkpt lat="44.36296" lon="3.43427">
        <ele>477.7</ele>
        <time>2020-08-25T08:28:25.000Z</time>
      </trkpt>
      <trkpt lat="44.363" lon="3.43428">
        <ele>477.7</ele>
        <time>2020-08-25T08:28:26.000Z</time>
      </trkpt>
      <trkpt lat="44.36308" lon="3.43429">
        <ele>477.7</ele>
        <time>2020-08-25T08:28:28.000Z</time>
      </trkpt>
      <trkpt lat="44.36313" lon="3.43431">
        <ele>477.7</ele>
        <time>2020-08-25T08:28:29.000Z</time>
      </trkpt>
      <trkpt lat="44.36319" lon="3.43432">
        <ele>477.7</ele>
        <time>2020-08-25T08:28:30.000Z</time>
      </trkpt>
      <trkpt lat="44.36326" lon="3.43434">
        <ele>477.6</ele>
        <time>2020-08-25T08:28:32.000Z</time>
      </trkpt>
      <trkpt lat="44.36332" lon="3.43434">
        <ele>477.6</ele>
        <time>2020-08-25T08:28:33.000Z</time>
      </trkpt>
      <trkpt lat="44.36338" lon="3.43435">
        <ele>477.6</ele>
        <time>2020-08-25T08:28:34.000Z</time>
      </trkpt>
      <trkpt lat="44.36347" lon="3.43437">
        <ele>477.5</ele>
        <time>2020-08-25T08:28:36.000Z</time>
      </trkpt>
      <trkpt lat="44.36355" lon="3.43436">
        <ele>477.5</ele>
        <time>2020-08-25T08:28:38.000Z</time>
      </trkpt>
      <trkpt lat="44.3636" lon="3.43436">
        <ele>477.5</ele>
        <time>2020-08-25T08:28:39.000Z</time>
      </trkpt>
      <trkpt lat="44.36366" lon="3.43436">
        <ele>477.4</ele>
        <time>2020-08-25T08:28:40.000Z</time>
      </trkpt>
      <trkpt lat="44.36372" lon="3.43435">
        <ele>477.4</ele>
        <time>2020-08-25T08:28:41.000Z</time>
      </trkpt>
      <trkpt lat="44.36378" lon="3.43435">
        <ele>477.5</ele>
        <time>2020-08-25T08:28:42.000Z</time>
      </trkpt>
      <trkpt lat="44.36385" lon="3.43434">
        <ele>477.5</ele>
        <time>2020-08-25T08:28:43.000Z</time>
      </trkpt>
      <trkpt lat="44.36393" lon="3.43432">
        <ele>477.5</ele>
        <time>2020-08-25T08:28:45.000Z</time>
      </trkpt>
      <trkpt lat="44.36404" lon="3.43429">
        <ele>477.5</ele>
        <time>2020-08-25T08:28:46.000Z</time>
      </trkpt>
      <trkpt lat="44.36415" lon="3.43426">
        <ele>477.6</ele>
        <time>2020-08-25T08:28:48.000Z</time>
      </trkpt>
      <trkpt lat="44.36419" lon="3.43424">
        <ele>477.6</ele>
        <time>2020-08-25T08:28:49.000Z</time>
      </trkpt>
      <trkpt lat="44.36425" lon="3.43422">
        <ele>477.7</ele>
        <time>2020-08-25T08:28:51.000Z</time>
      </trkpt>
      <trkpt lat="44.36431" lon="3.4342">
        <ele>477.7</ele>
        <time>2020-08-25T08:28:52.000Z</time>
      </trkpt>
      <trkpt lat="44.36439" lon="3.43416">
        <ele>477.8</ele>
        <time>2020-08-25T08:28:54.000Z</time>
      </trkpt>
      <trkpt lat="44.36443" lon="3.43413">
        <ele>477.8</ele>
        <time>2020-08-25T08:28:55.000Z</time>
      </trkpt>
      <trkpt lat="44.36451" lon="3.43408">
        <ele>477.9</ele>
        <time>2020-08-25T08:28:57.000Z</time>
      </trkpt>
      <trkpt lat="44.36456" lon="3.43404">
        <ele>477.9</ele>
        <time>2020-08-25T08:28:58.000Z</time>
      </trkpt>
      <trkpt lat="44.36465" lon="3.43399">
        <ele>477.9</ele>
        <time>2020-08-25T08:29:00.000Z</time>
      </trkpt>
      <trkpt lat="44.3647" lon="3.43396">
        <ele>477.8</ele>
        <time>2020-08-25T08:29:01.000Z</time>
      </trkpt>
      <trkpt lat="44.3648" lon="3.4339">
        <ele>477.8</ele>
        <time>2020-08-25T08:29:03.000Z</time>
      </trkpt>
      <trkpt lat="44.36486" lon="3.43386">
        <ele>477.7</ele>
        <time>2020-08-25T08:29:05.000Z</time>
      </trkpt>
      <trkpt lat="44.36494" lon="3.4338">
        <ele>477.7</ele>
        <time>2020-08-25T08:29:07.000Z</time>
      </trkpt>
      <trkpt lat="44.36505" lon="3.43371">
        <ele>477.7</ele>
        <time>2020-08-25T08:29:09.000Z</time>
      </trkpt>
      <trkpt lat="44.36509" lon="3.43368">
        <ele>477.7</ele>
        <time>2020-08-25T08:29:10.000Z</time>
      </trkpt>
      <trkpt lat="44.36517" lon="3.43362">
        <ele>477.7</ele>
        <time>2020-08-25T08:29:12.000Z</time>
      </trkpt>
      <trkpt lat="44.36524" lon="3.43356">
        <ele>477.8</ele>
        <time>2020-08-25T08:29:14.000Z</time>
      </trkpt>
      <trkpt lat="44.36534" lon="3.43348">
        <ele>478.1</ele>
        <time>2020-08-25T08:29:16.000Z</time>
      </trkpt>
      <trkpt lat="44.3654" lon="3.4334">
        <ele>478.2</ele>
        <time>2020-08-25T08:29:18.000Z</time>
      </trkpt>
      <trkpt lat="44.36545" lon="3.43331">
        <ele>478.4</ele>
        <time>2020-08-25T08:29:20.000Z</time>
      </trkpt>
      <trkpt lat="44.36547" lon="3.43325">
        <ele>478.5</ele>
        <time>2020-08-25T08:29:21.000Z</time>
      </trkpt>
      <trkpt lat="44.3655" lon="3.43315">
        <ele>478.6</ele>
        <time>2020-08-25T08:29:23.000Z</time>
      </trkpt>
      <trkpt lat="44.36552" lon="3.43305">
        <ele>478.7</ele>
        <time>2020-08-25T08:29:25.000Z</time>
      </trkpt>
      <trkpt lat="44.36553" lon="3.433">
        <ele>478.7</ele>
        <time>2020-08-25T08:29:26.000Z</time>
      </trkpt>
      <trkpt lat="44.36556" lon="3.43289">
        <ele>478.8</ele>
        <time>2020-08-25T08:29:28.000Z</time>
      </trkpt>
      <trkpt lat="44.36557" lon="3.43283">
        <ele>478.8</ele>
        <time>2020-08-25T08:29:29.000Z</time>
      </trkpt>
      <trkpt lat="44.36559" lon="3.43277">
        <ele>478.9</ele>
        <time>2020-08-25T08:29:30.000Z</time>
      </trkpt>
      <trkpt lat="44.36561" lon="3.43267">
        <ele>479</ele>
        <time>2020-08-25T08:29:32.000Z</time>
      </trkpt>
      <trkpt lat="44.36563" lon="3.43261">
        <ele>479.1</ele>
        <time>2020-08-25T08:29:33.000Z</time>
      </trkpt>
      <trkpt lat="44.36566" lon="3.43252">
        <ele>479.2</ele>
        <time>2020-08-25T08:29:35.000Z</time>
      </trkpt>
      <trkpt lat="44.36568" lon="3.43247">
        <ele>479.3</ele>
        <time>2020-08-25T08:29:36.000Z</time>
      </trkpt>
      <trkpt lat="44.36571" lon="3.43237">
        <ele>479.5</ele>
        <time>2020-08-25T08:29:38.000Z</time>
      </trkpt>
      <trkpt lat="44.36572" lon="3.43232">
        <ele>479.7</ele>
        <time>2020-08-25T08:29:39.000Z</time>
      </trkpt>
      <trkpt lat="44.36573" lon="3.43229">
        <ele>479.8</ele>
        <time>2020-08-25T08:29:40.000Z</time>
      </trkpt>
      <trkpt lat="44.36575" lon="3.43223">
        <ele>479.9</ele>
        <time>2020-08-25T08:29:42.000Z</time>
      </trkpt>
      <trkpt lat="44.36578" lon="3.43215">
        <ele>480.2</ele>
        <time>2020-08-25T08:29:44.000Z</time>
      </trkpt>
      <trkpt lat="44.36581" lon="3.43206">
        <ele>480.3</ele>
        <time>2020-08-25T08:29:46.000Z</time>
      </trkpt>
      <trkpt lat="44.36584" lon="3.43198">
        <ele>480.5</ele>
        <time>2020-08-25T08:29:48.000Z</time>
      </trkpt>
      <trkpt lat="44.36585" lon="3.43194">
        <ele>480.5</ele>
        <time>2020-08-25T08:29:49.000Z</time>
      </trkpt>
      <trkpt lat="44.36588" lon="3.43187">
        <ele>480.6</ele>
        <time>2020-08-25T08:29:51.000Z</time>
      </trkpt>
      <trkpt lat="44.36589" lon="3.43182">
        <ele>480.6</ele>
        <time>2020-08-25T08:29:52.000Z</time>
      </trkpt>
      <trkpt lat="44.3659" lon="3.43176">
        <ele>480.7</ele>
        <time>2020-08-25T08:29:54.000Z</time>
      </trkpt>
      <trkpt lat="44.3659" lon="3.4317">
        <ele>480.7</ele>
        <time>2020-08-25T08:29:55.000Z</time>
      </trkpt>
      <trkpt lat="44.36591" lon="3.43164">
        <ele>480.8</ele>
        <time>2020-08-25T08:29:56.000Z</time>
      </trkpt>
      <trkpt lat="44.36591" lon="3.43159">
        <ele>480.8</ele>
        <time>2020-08-25T08:29:57.000Z</time>
      </trkpt>
      <trkpt lat="44.3659" lon="3.43152">
        <ele>480.9</ele>
        <time>2020-08-25T08:29:58.000Z</time>
      </trkpt>
      <trkpt lat="44.3659" lon="3.43144">
        <ele>480.9</ele>
        <time>2020-08-25T08:30:00.000Z</time>
      </trkpt>
      <trkpt lat="44.36589" lon="3.43139">
        <ele>481</ele>
        <time>2020-08-25T08:30:01.000Z</time>
      </trkpt>
      <trkpt lat="44.36589" lon="3.43134">
        <ele>481</ele>
        <time>2020-08-25T08:30:02.000Z</time>
      </trkpt>
      <trkpt lat="44.36588" lon="3.4313">
        <ele>481</ele>
        <time>2020-08-25T08:30:03.000Z</time>
      </trkpt>
      <trkpt lat="44.36587" lon="3.43125">
        <ele>481</ele>
        <time>2020-08-25T08:30:05.000Z</time>
      </trkpt>
      <trkpt lat="44.36586" lon="3.43119">
        <ele>481</ele>
        <time>2020-08-25T08:30:06.000Z</time>
      </trkpt>
      <trkpt lat="44.36585" lon="3.43112">
        <ele>481</ele>
        <time>2020-08-25T08:30:08.000Z</time>
      </trkpt>
      <trkpt lat="44.36584" lon="3.43107">
        <ele>481</ele>
        <time>2020-08-25T08:30:09.000Z</time>
      </trkpt>
      <trkpt lat="44.36583" lon="3.43103">
        <ele>481</ele>
        <time>2020-08-25T08:30:11.000Z</time>
      </trkpt>
      <trkpt lat="44.36582" lon="3.43101">
        <ele>481</ele>
        <time>2020-08-25T08:30:12.000Z</time>
      </trkpt>
      <trkpt lat="44.36581" lon="3.43097">
        <ele>481</ele>
        <time>2020-08-25T08:30:13.000Z</time>
      </trkpt>
      <trkpt lat="44.3658" lon="3.43096">
        <ele>481</ele>
        <time>2020-08-25T08:30:14.000Z</time>
      </trkpt>
      <trkpt lat="44.36579" lon="3.43092">
        <ele>481</ele>
        <time>2020-08-25T08:30:15.000Z</time>
      </trkpt>
      <trkpt lat="44.36578" lon="3.43086">
        <ele>481.1</ele>
        <time>2020-08-25T08:30:17.000Z</time>
      </trkpt>
      <trkpt lat="44.36578" lon="3.43081">
        <ele>481.1</ele>
        <time>2020-08-25T08:30:18.000Z</time>
      </trkpt>
      <trkpt lat="44.36577" lon="3.43075">
        <ele>481.1</ele>
        <time>2020-08-25T08:30:19.000Z</time>
      </trkpt>
      <trkpt lat="44.36577" lon="3.43066">
        <ele>481.1</ele>
        <time>2020-08-25T08:30:21.000Z</time>
      </trkpt>
      <trkpt lat="44.36579" lon="3.43061">
        <ele>481.1</ele>
        <time>2020-08-25T08:30:22.000Z</time>
      </trkpt>
      <trkpt lat="44.36585" lon="3.43026">
        <ele>480.6</ele>
        <time>2020-08-25T08:30:23.000Z</time>
      </trkpt>
      <trkpt lat="44.36588" lon="3.4302">
        <ele>480.6</ele>
        <time>2020-08-25T08:30:24.000Z</time>
      </trkpt>
      <trkpt lat="44.36601" lon="3.43006">
        <ele>480.7</ele>
        <time>2020-08-25T08:30:26.000Z</time>
      </trkpt>
      <trkpt lat="44.36613" lon="3.42997">
        <ele>481</ele>
        <time>2020-08-25T08:30:28.000Z</time>
      </trkpt>
      <trkpt lat="44.36625" lon="3.42988">
        <ele>481.5</ele>
        <time>2020-08-25T08:30:30.000Z</time>
      </trkpt>
      <trkpt lat="44.3663" lon="3.42984">
        <ele>481.9</ele>
        <time>2020-08-25T08:30:31.000Z</time>
      </trkpt>
      <trkpt lat="44.36633" lon="3.42979">
        <ele>482.3</ele>
        <time>2020-08-25T08:30:32.000Z</time>
      </trkpt>
      <trkpt lat="44.36634" lon="3.42977">
        <ele>482.3</ele>
        <time>2020-08-25T08:30:33.000Z</time>
      </trkpt>
      <trkpt lat="44.3663" lon="3.42979">
        <ele>482.6</ele>
        <time>2020-08-25T08:30:35.000Z</time>
      </trkpt>
      <trkpt lat="44.3663" lon="3.42975">
        <ele>482.8</ele>
        <time>2020-08-25T08:30:37.000Z</time>
      </trkpt>
      <trkpt lat="44.3663" lon="3.42973">
        <ele>482.9</ele>
        <time>2020-08-25T08:30:38.000Z</time>
      </trkpt>
      <trkpt lat="44.3663" lon="3.42969">
        <ele>483.1</ele>
        <time>2020-08-25T08:30:40.000Z</time>
      </trkpt>
      <trkpt lat="44.3663" lon="3.42968">
        <ele>483.1</ele>
        <time>2020-08-25T08:30:41.000Z</time>
      </trkpt>
      <trkpt lat="44.3663" lon="3.42965">
        <ele>483.3</ele>
        <time>2020-08-25T08:30:42.000Z</time>
      </trkpt>
      <trkpt lat="44.36629" lon="3.42962">
        <ele>483.4</ele>
        <time>2020-08-25T08:30:44.000Z</time>
      </trkpt>
      <trkpt lat="44.36629" lon="3.42958">
        <ele>483.6</ele>
        <time>2020-08-25T08:30:46.000Z</time>
      </trkpt>
      <trkpt lat="44.36629" lon="3.42957">
        <ele>483.6</ele>
        <time>2020-08-25T08:30:47.000Z</time>
      </trkpt>
      <trkpt lat="44.36629" lon="3.42954">
        <ele>483.8</ele>
        <time>2020-08-25T08:30:49.000Z</time>
      </trkpt>
      <trkpt lat="44.36628" lon="3.42952">
        <ele>483.8</ele>
        <time>2020-08-25T08:30:51.000Z</time>
      </trkpt>
      <trkpt lat="44.36628" lon="3.42951">
        <ele>483.9</ele>
        <time>2020-08-25T08:30:53.000Z</time>
      </trkpt>
      <trkpt lat="44.36627" lon="3.42946">
        <ele>484.1</ele>
        <time>2020-08-25T08:30:55.000Z</time>
      </trkpt>
      <trkpt lat="44.36626" lon="3.42941">
        <ele>484.3</ele>
        <time>2020-08-25T08:30:57.000Z</time>
      </trkpt>
      <trkpt lat="44.36625" lon="3.42937">
        <ele>484.4</ele>
        <time>2020-08-25T08:30:58.000Z</time>
      </trkpt>
      <trkpt lat="44.36624" lon="3.42936">
        <ele>484.5</ele>
        <time>2020-08-25T08:31:00.000Z</time>
      </trkpt>
      <trkpt lat="44.36623" lon="3.42934">
        <ele>484.5</ele>
        <time>2020-08-25T08:31:01.000Z</time>
      </trkpt>
      <trkpt lat="44.36621" lon="3.42929">
        <ele>484.7</ele>
        <time>2020-08-25T08:31:03.000Z</time>
      </trkpt>
      <trkpt lat="44.3662" lon="3.42927">
        <ele>484.8</ele>
        <time>2020-08-25T08:31:04.000Z</time>
      </trkpt>
      <trkpt lat="44.36619" lon="3.42923">
        <ele>484.9</ele>
        <time>2020-08-25T08:31:05.000Z</time>
      </trkpt>
      <trkpt lat="44.36617" lon="3.42921">
        <ele>485</ele>
        <time>2020-08-25T08:31:06.000Z</time>
      </trkpt>
      <trkpt lat="44.36615" lon="3.42917">
        <ele>485.2</ele>
        <time>2020-08-25T08:31:08.000Z</time>
      </trkpt>
      <trkpt lat="44.36613" lon="3.42914">
        <ele>485.3</ele>
        <time>2020-08-25T08:31:09.000Z</time>
      </trkpt>
      <trkpt lat="44.36612" lon="3.42911">
        <ele>485.4</ele>
        <time>2020-08-25T08:31:10.000Z</time>
      </trkpt>
      <trkpt lat="44.36609" lon="3.42904">
        <ele>485.7</ele>
        <time>2020-08-25T08:31:12.000Z</time>
      </trkpt>
      <trkpt lat="44.36607" lon="3.42901">
        <ele>485.8</ele>
        <time>2020-08-25T08:31:13.000Z</time>
      </trkpt>
      <trkpt lat="44.36606" lon="3.429">
        <ele>485.8</ele>
        <time>2020-08-25T08:31:14.000Z</time>
      </trkpt>
      <trkpt lat="44.36604" lon="3.42897">
        <ele>485.9</ele>
        <time>2020-08-25T08:31:16.000Z</time>
      </trkpt>
      <trkpt lat="44.36604" lon="3.42897">
        <ele>486</ele>
        <time>2020-08-25T08:31:17.000Z</time>
      </trkpt>
      <trkpt lat="44.36603" lon="3.42894">
        <ele>486.1</ele>
        <time>2020-08-25T08:31:18.000Z</time>
      </trkpt>
      <trkpt lat="44.36603" lon="3.42892">
        <ele>486.1</ele>
        <time>2020-08-25T08:31:20.000Z</time>
      </trkpt>
      <trkpt lat="44.36602" lon="3.42891">
        <ele>486.2</ele>
        <time>2020-08-25T08:31:21.000Z</time>
      </trkpt>
      <trkpt lat="44.36601" lon="3.42888">
        <ele>486.2</ele>
        <time>2020-08-25T08:31:23.000Z</time>
      </trkpt>
      <trkpt lat="44.36602" lon="3.42885">
        <ele>486.3</ele>
        <time>2020-08-25T08:31:25.000Z</time>
      </trkpt>
      <trkpt lat="44.36601" lon="3.42883">
        <ele>486.4</ele>
        <time>2020-08-25T08:31:26.000Z</time>
      </trkpt>
      <trkpt lat="44.36599" lon="3.42875">
        <ele>486.7</ele>
        <time>2020-08-25T08:31:27.000Z</time>
      </trkpt>
      <trkpt lat="44.36595" lon="3.42863">
        <ele>487.3</ele>
        <time>2020-08-25T08:31:29.000Z</time>
      </trkpt>
      <trkpt lat="44.36598" lon="3.42855">
        <ele>487</ele>
        <time>2020-08-25T08:31:31.000Z</time>
      </trkpt>
      <trkpt lat="44.36598" lon="3.42855">
        <ele>487</ele>
        <time>2020-08-25T08:31:32.000Z</time>
      </trkpt>
      <trkpt lat="44.36599" lon="3.42858">
        <ele>486.9</ele>
        <time>2020-08-25T08:31:34.000Z</time>
      </trkpt>
      <trkpt lat="44.36596" lon="3.42861">
        <ele>486.7</ele>
        <time>2020-08-25T08:31:36.000Z</time>
      </trkpt>
      <trkpt lat="44.36597" lon="3.42867">
        <ele>486.5</ele>
        <time>2020-08-25T08:31:38.000Z</time>
      </trkpt>
      <trkpt lat="44.36598" lon="3.42871">
        <ele>486.4</ele>
        <time>2020-08-25T08:31:39.000Z</time>
      </trkpt>
      <trkpt lat="44.36601" lon="3.42878">
        <ele>486.2</ele>
        <time>2020-08-25T08:31:41.000Z</time>
      </trkpt>
      <trkpt lat="44.36603" lon="3.42878">
        <ele>486.1</ele>
        <time>2020-08-25T08:31:42.000Z</time>
      </trkpt>
      <trkpt lat="44.36604" lon="3.42877">
        <ele>486</ele>
        <time>2020-08-25T08:31:44.000Z</time>
      </trkpt>
      <trkpt lat="44.36605" lon="3.42875">
        <ele>486</ele>
        <time>2020-08-25T08:31:45.000Z</time>
      </trkpt>
      <trkpt lat="44.36607" lon="3.4288">
        <ele>485.8</ele>
        <time>2020-08-25T08:31:46.000Z</time>
      </trkpt>
      <trkpt lat="44.3661" lon="3.4289">
        <ele>485.5</ele>
        <time>2020-08-25T08:31:47.000Z</time>
      </trkpt>
      <trkpt lat="44.36613" lon="3.42897">
        <ele>485.3</ele>
        <time>2020-08-25T08:31:48.000Z</time>
      </trkpt>
      <trkpt lat="44.36616" lon="3.42907">
        <ele>485</ele>
        <time>2020-08-25T08:31:50.000Z</time>
      </trkpt>
      <trkpt lat="44.36618" lon="3.42915">
        <ele>484.7</ele>
        <time>2020-08-25T08:31:51.000Z</time>
      </trkpt>
      <trkpt lat="44.36621" lon="3.42927">
        <ele>484.3</ele>
        <time>2020-08-25T08:31:52.000Z</time>
      </trkpt>
      <trkpt lat="44.36625" lon="3.42941">
        <ele>483.8</ele>
        <time>2020-08-25T08:31:54.000Z</time>
      </trkpt>
      <trkpt lat="44.36627" lon="3.42948">
        <ele>483.6</ele>
        <time>2020-08-25T08:31:55.000Z</time>
      </trkpt>
      <trkpt lat="44.36629" lon="3.42954">
        <ele>483.3</ele>
        <time>2020-08-25T08:31:56.000Z</time>
      </trkpt>
      <trkpt lat="44.36632" lon="3.4296">
        <ele>483</ele>
        <time>2020-08-25T08:31:58.000Z</time>
      </trkpt>
      <trkpt lat="44.36633" lon="3.42969">
        <ele>482.6</ele>
        <time>2020-08-25T08:31:59.000Z</time>
      </trkpt>
      <trkpt lat="44.36628" lon="3.42986">
        <ele>481.8</ele>
        <time>2020-08-25T08:32:01.000Z</time>
      </trkpt>
      <trkpt lat="44.36619" lon="3.42995">
        <ele>481.2</ele>
        <time>2020-08-25T08:32:03.000Z</time>
      </trkpt>
      <trkpt lat="44.3661" lon="3.43">
        <ele>480.9</ele>
        <time>2020-08-25T08:32:05.000Z</time>
      </trkpt>
      <trkpt lat="44.36603" lon="3.43005">
        <ele>480.7</ele>
        <time>2020-08-25T08:32:07.000Z</time>
      </trkpt>
      <trkpt lat="44.36599" lon="3.43007">
        <ele>480.7</ele>
        <time>2020-08-25T08:32:08.000Z</time>
      </trkpt>
      <trkpt lat="44.36594" lon="3.43011">
        <ele>480.6</ele>
        <time>2020-08-25T08:32:10.000Z</time>
      </trkpt>
      <trkpt lat="44.3659" lon="3.43013">
        <ele>480.6</ele>
        <time>2020-08-25T08:32:11.000Z</time>
      </trkpt>
      <trkpt lat="44.36587" lon="3.43014">
        <ele>480.6</ele>
        <time>2020-08-25T08:32:12.000Z</time>
      </trkpt>
      <trkpt lat="44.36584" lon="3.43015">
        <ele>480.6</ele>
        <time>2020-08-25T08:32:13.000Z</time>
      </trkpt>
      <trkpt lat="44.36581" lon="3.43013">
        <ele>480.6</ele>
        <time>2020-08-25T08:32:15.000Z</time>
      </trkpt>
      <trkpt lat="44.3658" lon="3.43013">
        <ele>480.6</ele>
        <time>2020-08-25T08:32:16.000Z</time>
      </trkpt>
      <trkpt lat="44.36581" lon="3.43011">
        <ele>480.6</ele>
        <time>2020-08-25T08:32:17.000Z</time>
      </trkpt>
      <trkpt lat="44.36581" lon="3.43011">
        <ele>480.6</ele>
        <time>2020-08-25T08:32:18.000Z</time>
      </trkpt>
      <trkpt lat="44.36582" lon="3.4301">
        <ele>480.6</ele>
        <time>2020-08-25T08:32:19.000Z</time>
      </trkpt>
      <trkpt lat="44.36583" lon="3.43008">
        <ele>480.6</ele>
        <time>2020-08-25T08:32:21.000Z</time>
      </trkpt>
      <trkpt lat="44.36583" lon="3.43004">
        <ele>480.6</ele>
        <time>2020-08-25T08:32:22.000Z</time>
      </trkpt>
      <trkpt lat="44.36583" lon="3.43002">
        <ele>480.6</ele>
        <time>2020-08-25T08:32:23.000Z</time>
      </trkpt>
      <trkpt lat="44.36582" lon="3.43001">
        <ele>480.6</ele>
        <time>2020-08-25T08:32:24.000Z</time>
      </trkpt>
      <trkpt lat="44.36582" lon="3.43">
        <ele>480.6</ele>
        <time>2020-08-25T08:32:25.000Z</time>
      </trkpt>
      <trkpt lat="44.36581" lon="3.42998">
        <ele>480.6</ele>
        <time>2020-08-25T08:32:27.000Z</time>
      </trkpt>
      <trkpt lat="44.3658" lon="3.42997">
        <ele>480.6</ele>
        <time>2020-08-25T08:32:28.000Z</time>
      </trkpt>
      <trkpt lat="44.36579" lon="3.42996">
        <ele>480.6</ele>
        <time>2020-08-25T08:32:30.000Z</time>
      </trkpt>
      <trkpt lat="44.36578" lon="3.42996">
        <ele>480.6</ele>
        <time>2020-08-25T08:32:31.000Z</time>
      </trkpt>
      <trkpt lat="44.36578" lon="3.42995">
        <ele>480.6</ele>
        <time>2020-08-25T08:32:33.000Z</time>
      </trkpt>
      <trkpt lat="44.36577" lon="3.42995">
        <ele>480.6</ele>
        <time>2020-08-25T08:32:34.000Z</time>
      </trkpt>
      <trkpt lat="44.36576" lon="3.42996">
        <ele>480.6</ele>
        <time>2020-08-25T08:32:36.000Z</time>
      </trkpt>
      <trkpt lat="44.36575" lon="3.42995">
        <ele>480.6</ele>
        <time>2020-08-25T08:32:38.000Z</time>
      </trkpt>
      <trkpt lat="44.36574" lon="3.42994">
        <ele>480.6</ele>
        <time>2020-08-25T08:32:39.000Z</time>
      </trkpt>
      <trkpt lat="44.36573" lon="3.42994">
        <ele>480.6</ele>
        <time>2020-08-25T08:32:40.000Z</time>
      </trkpt>
      <trkpt lat="44.36572" lon="3.42992">
        <ele>480.6</ele>
        <time>2020-08-25T08:32:42.000Z</time>
      </trkpt>
      <trkpt lat="44.36571" lon="3.42991">
        <ele>480.6</ele>
        <time>2020-08-25T08:32:43.000Z</time>
      </trkpt>
      <trkpt lat="44.36571" lon="3.42991">
        <ele>480.6</ele>
        <time>2020-08-25T08:32:44.000Z</time>
      </trkpt>
      <trkpt lat="44.3657" lon="3.4299">
        <ele>480.6</ele>
        <time>2020-08-25T08:32:46.000Z</time>
      </trkpt>
      <trkpt lat="44.36566" lon="3.42986">
        <ele>480.6</ele>
        <time>2020-08-25T08:32:53.000Z</time>
      </trkpt>
      <trkpt lat="44.36565" lon="3.42984">
        <ele>480.6</ele>
        <time>2020-08-25T08:32:54.000Z</time>
      </trkpt>
      <trkpt lat="44.36564" lon="3.42981">
        <ele>480.6</ele>
        <time>2020-08-25T08:32:56.000Z</time>
      </trkpt>
      <trkpt lat="44.36562" lon="3.42978">
        <ele>480.6</ele>
        <time>2020-08-25T08:32:57.000Z</time>
      </trkpt>
      <trkpt lat="44.36561" lon="3.42977">
        <ele>480.6</ele>
        <time>2020-08-25T08:32:58.000Z</time>
      </trkpt>
      <trkpt lat="44.3656" lon="3.42974">
        <ele>480.6</ele>
        <time>2020-08-25T08:32:59.000Z</time>
      </trkpt>
      <trkpt lat="44.36558" lon="3.4297">
        <ele>480.6</ele>
        <time>2020-08-25T08:33:01.000Z</time>
      </trkpt>
      <trkpt lat="44.36556" lon="3.42966">
        <ele>480.5</ele>
        <time>2020-08-25T08:33:02.000Z</time>
      </trkpt>
      <trkpt lat="44.36556" lon="3.42965">
        <ele>480.5</ele>
        <time>2020-08-25T08:33:03.000Z</time>
      </trkpt>
      <trkpt lat="44.36555" lon="3.42962">
        <ele>480.5</ele>
        <time>2020-08-25T08:33:05.000Z</time>
      </trkpt>
      <trkpt lat="44.36553" lon="3.42958">
        <ele>480.5</ele>
        <time>2020-08-25T08:33:06.000Z</time>
      </trkpt>
      <trkpt lat="44.3655" lon="3.42953">
        <ele>480.5</ele>
        <time>2020-08-25T08:33:07.000Z</time>
      </trkpt>
      <trkpt lat="44.36549" lon="3.42948">
        <ele>480.4</ele>
        <time>2020-08-25T08:33:09.000Z</time>
      </trkpt>
      <trkpt lat="44.36548" lon="3.42947">
        <ele>480.4</ele>
        <time>2020-08-25T08:33:10.000Z</time>
      </trkpt>
      <trkpt lat="44.36546" lon="3.42942">
        <ele>480.4</ele>
        <time>2020-08-25T08:33:12.000Z</time>
      </trkpt>
      <trkpt lat="44.36544" lon="3.42936">
        <ele>480.4</ele>
        <time>2020-08-25T08:33:13.000Z</time>
      </trkpt>
      <trkpt lat="44.36543" lon="3.4293">
        <ele>480.4</ele>
        <time>2020-08-25T08:33:15.000Z</time>
      </trkpt>
      <trkpt lat="44.36542" lon="3.42929">
        <ele>480.4</ele>
        <time>2020-08-25T08:33:16.000Z</time>
      </trkpt>
      <trkpt lat="44.36542" lon="3.42927">
        <ele>480.3</ele>
        <time>2020-08-25T08:33:17.000Z</time>
      </trkpt>
      <trkpt lat="44.36542" lon="3.42925">
        <ele>480.3</ele>
        <time>2020-08-25T08:33:18.000Z</time>
      </trkpt>
      <trkpt lat="44.36541" lon="3.42921">
        <ele>480.3</ele>
        <time>2020-08-25T08:33:20.000Z</time>
      </trkpt>
      <trkpt lat="44.3654" lon="3.42916">
        <ele>480.3</ele>
        <time>2020-08-25T08:33:22.000Z</time>
      </trkpt>
      <trkpt lat="44.36539" lon="3.42913">
        <ele>480.3</ele>
        <time>2020-08-25T08:33:23.000Z</time>
      </trkpt>
      <trkpt lat="44.36538" lon="3.42907">
        <ele>480.3</ele>
        <time>2020-08-25T08:33:25.000Z</time>
      </trkpt>
      <trkpt lat="44.36536" lon="3.42899">
        <ele>480.3</ele>
        <time>2020-08-25T08:33:26.000Z</time>
      </trkpt>
      <trkpt lat="44.36536" lon="3.42895">
        <ele>480.3</ele>
        <time>2020-08-25T08:33:27.000Z</time>
      </trkpt>
      <trkpt lat="44.36535" lon="3.42892">
        <ele>480.7</ele>
        <time>2020-08-25T08:33:29.000Z</time>
      </trkpt>
      <trkpt lat="44.36533" lon="3.42888">
        <ele>481</ele>
        <time>2020-08-25T08:33:30.000Z</time>
      </trkpt>
      <trkpt lat="44.36533" lon="3.42887">
        <ele>481.1</ele>
        <time>2020-08-25T08:33:31.000Z</time>
      </trkpt>
      <trkpt lat="44.36531" lon="3.42882">
        <ele>481.4</ele>
        <time>2020-08-25T08:33:32.000Z</time>
      </trkpt>
      <trkpt lat="44.3653" lon="3.42879">
        <ele>481.5</ele>
        <time>2020-08-25T08:33:33.000Z</time>
      </trkpt>
      <trkpt lat="44.36529" lon="3.42876">
        <ele>481.6</ele>
        <time>2020-08-25T08:33:34.000Z</time>
      </trkpt>
      <trkpt lat="44.36527" lon="3.42872">
        <ele>481.8</ele>
        <time>2020-08-25T08:33:36.000Z</time>
      </trkpt>
      <trkpt lat="44.36527" lon="3.42871">
        <ele>481.8</ele>
        <time>2020-08-25T08:33:37.000Z</time>
      </trkpt>
      <trkpt lat="44.36526" lon="3.42869">
        <ele>481.9</ele>
        <time>2020-08-25T08:33:39.000Z</time>
      </trkpt>
      <trkpt lat="44.36526" lon="3.42868">
        <ele>481.9</ele>
        <time>2020-08-25T08:33:40.000Z</time>
      </trkpt>
      <trkpt lat="44.36526" lon="3.42866">
        <ele>481.9</ele>
        <time>2020-08-25T08:33:42.000Z</time>
      </trkpt>
      <trkpt lat="44.36525" lon="3.42864">
        <ele>482</ele>
        <time>2020-08-25T08:33:43.000Z</time>
      </trkpt>
      <trkpt lat="44.36525" lon="3.42862">
        <ele>482</ele>
        <time>2020-08-25T08:33:44.000Z</time>
      </trkpt>
      <trkpt lat="44.36524" lon="3.4286">
        <ele>482.1</ele>
        <time>2020-08-25T08:33:46.000Z</time>
      </trkpt>
      <trkpt lat="44.36524" lon="3.42856">
        <ele>482.1</ele>
        <time>2020-08-25T08:33:47.000Z</time>
      </trkpt>
      <trkpt lat="44.36523" lon="3.42852">
        <ele>482.2</ele>
        <time>2020-08-25T08:33:49.000Z</time>
      </trkpt>
      <trkpt lat="44.36523" lon="3.4285">
        <ele>482.2</ele>
        <time>2020-08-25T08:33:51.000Z</time>
      </trkpt>
      <trkpt lat="44.36522" lon="3.42848">
        <ele>482.2</ele>
        <time>2020-08-25T08:33:52.000Z</time>
      </trkpt>
      <trkpt lat="44.36522" lon="3.42847">
        <ele>482.3</ele>
        <time>2020-08-25T08:33:53.000Z</time>
      </trkpt>
      <trkpt lat="44.36522" lon="3.42846">
        <ele>482.3</ele>
        <time>2020-08-25T08:33:54.000Z</time>
      </trkpt>
      <trkpt lat="44.36521" lon="3.42844">
        <ele>482.3</ele>
        <time>2020-08-25T08:33:55.000Z</time>
      </trkpt>
      <trkpt lat="44.36521" lon="3.42843">
        <ele>482.3</ele>
        <time>2020-08-25T08:33:56.000Z</time>
      </trkpt>
      <trkpt lat="44.3652" lon="3.42841">
        <ele>482.3</ele>
        <time>2020-08-25T08:33:58.000Z</time>
      </trkpt>
      <trkpt lat="44.36519" lon="3.4284">
        <ele>482.4</ele>
        <time>2020-08-25T08:33:59.000Z</time>
      </trkpt>
      <trkpt lat="44.36518" lon="3.42836">
        <ele>482.4</ele>
        <time>2020-08-25T08:34:04.000Z</time>
      </trkpt>
      <trkpt lat="44.36517" lon="3.42833">
        <ele>482.4</ele>
        <time>2020-08-25T08:34:06.000Z</time>
      </trkpt>
      <trkpt lat="44.36517" lon="3.42833">
        <ele>482.5</ele>
        <time>2020-08-25T08:34:08.000Z</time>
      </trkpt>
      <trkpt lat="44.36516" lon="3.42832">
        <ele>482.5</ele>
        <time>2020-08-25T08:34:09.000Z</time>
      </trkpt>
      <trkpt lat="44.36516" lon="3.42832">
        <ele>482.5</ele>
        <time>2020-08-25T08:34:10.000Z</time>
      </trkpt>
      <trkpt lat="44.36516" lon="3.42832">
        <ele>482.5</ele>
        <time>2020-08-25T08:34:11.000Z</time>
      </trkpt>
      <trkpt lat="44.36516" lon="3.42831">
        <ele>482.5</ele>
        <time>2020-08-25T08:34:13.000Z</time>
      </trkpt>
      <trkpt lat="44.36516" lon="3.4283">
        <ele>482.5</ele>
        <time>2020-08-25T08:34:15.000Z</time>
      </trkpt>
      <trkpt lat="44.36515" lon="3.42829">
        <ele>482.5</ele>
        <time>2020-08-25T08:34:16.000Z</time>
      </trkpt>
      <trkpt lat="44.36515" lon="3.42827">
        <ele>482.6</ele>
        <time>2020-08-25T08:34:18.000Z</time>
      </trkpt>
      <trkpt lat="44.36515" lon="3.42826">
        <ele>482.6</ele>
        <time>2020-08-25T08:34:19.000Z</time>
      </trkpt>
      <trkpt lat="44.36514" lon="3.42825">
        <ele>482.6</ele>
        <time>2020-08-25T08:34:20.000Z</time>
      </trkpt>
      <trkpt lat="44.36514" lon="3.42822">
        <ele>482.7</ele>
        <time>2020-08-25T08:34:21.000Z</time>
      </trkpt>
      <trkpt lat="44.36513" lon="3.42819">
        <ele>482.7</ele>
        <time>2020-08-25T08:34:23.000Z</time>
      </trkpt>
      <trkpt lat="44.36512" lon="3.42815">
        <ele>482.8</ele>
        <time>2020-08-25T08:34:24.000Z</time>
      </trkpt>
      <trkpt lat="44.36511" lon="3.42813">
        <ele>482.9</ele>
        <time>2020-08-25T08:34:25.000Z</time>
      </trkpt>
      <trkpt lat="44.36511" lon="3.4281">
        <ele>482.9</ele>
        <time>2020-08-25T08:34:26.000Z</time>
      </trkpt>
      <trkpt lat="44.3651" lon="3.42806">
        <ele>483</ele>
        <time>2020-08-25T08:34:28.000Z</time>
      </trkpt>
      <trkpt lat="44.36509" lon="3.42803">
        <ele>483.1</ele>
        <time>2020-08-25T08:34:29.000Z</time>
      </trkpt>
      <trkpt lat="44.36507" lon="3.428">
        <ele>483.2</ele>
        <time>2020-08-25T08:34:31.000Z</time>
      </trkpt>
      <trkpt lat="44.36506" lon="3.42796">
        <ele>483.2</ele>
        <time>2020-08-25T08:34:32.000Z</time>
      </trkpt>
      <trkpt lat="44.36505" lon="3.42792">
        <ele>483.3</ele>
        <time>2020-08-25T08:34:33.000Z</time>
      </trkpt>
      <trkpt lat="44.36504" lon="3.42791">
        <ele>483.3</ele>
        <time>2020-08-25T08:34:34.000Z</time>
      </trkpt>
      <trkpt lat="44.36502" lon="3.42784">
        <ele>483.4</ele>
        <time>2020-08-25T08:34:36.000Z</time>
      </trkpt>
      <trkpt lat="44.36501" lon="3.42781">
        <ele>483.4</ele>
        <time>2020-08-25T08:34:37.000Z</time>
      </trkpt>
      <trkpt lat="44.36499" lon="3.42777">
        <ele>483.4</ele>
        <time>2020-08-25T08:34:38.000Z</time>
      </trkpt>
      <trkpt lat="44.36496" lon="3.42772">
        <ele>483.5</ele>
        <time>2020-08-25T08:34:40.000Z</time>
      </trkpt>
      <trkpt lat="44.36495" lon="3.4277">
        <ele>483.5</ele>
        <time>2020-08-25T08:34:41.000Z</time>
      </trkpt>
      <trkpt lat="44.36494" lon="3.42768">
        <ele>483.5</ele>
        <time>2020-08-25T08:34:42.000Z</time>
      </trkpt>
      <trkpt lat="44.3649" lon="3.42763">
        <ele>483.6</ele>
        <time>2020-08-25T08:34:44.000Z</time>
      </trkpt>
      <trkpt lat="44.36488" lon="3.42759">
        <ele>483.7</ele>
        <time>2020-08-25T08:34:45.000Z</time>
      </trkpt>
      <trkpt lat="44.36486" lon="3.42751">
        <ele>483.8</ele>
        <time>2020-08-25T08:34:47.000Z</time>
      </trkpt>
      <trkpt lat="44.36484" lon="3.42745">
        <ele>483.9</ele>
        <time>2020-08-25T08:34:49.000Z</time>
      </trkpt>
      <trkpt lat="44.36483" lon="3.42737">
        <ele>484</ele>
        <time>2020-08-25T08:34:50.000Z</time>
      </trkpt>
      <trkpt lat="44.36483" lon="3.42732">
        <ele>484.1</ele>
        <time>2020-08-25T08:34:51.000Z</time>
      </trkpt>
      <trkpt lat="44.36482" lon="3.4273">
        <ele>484.2</ele>
        <time>2020-08-25T08:34:52.000Z</time>
      </trkpt>
      <trkpt lat="44.36482" lon="3.42726">
        <ele>484.3</ele>
        <time>2020-08-25T08:34:54.000Z</time>
      </trkpt>
      <trkpt lat="44.36481" lon="3.42722">
        <ele>484.3</ele>
        <time>2020-08-25T08:34:55.000Z</time>
      </trkpt>
      <trkpt lat="44.36481" lon="3.42716">
        <ele>484.5</ele>
        <time>2020-08-25T08:34:56.000Z</time>
      </trkpt>
      <trkpt lat="44.3648" lon="3.42711">
        <ele>484.5</ele>
        <time>2020-08-25T08:34:57.000Z</time>
      </trkpt>
      <trkpt lat="44.3648" lon="3.4271">
        <ele>484.6</ele>
        <time>2020-08-25T08:34:58.000Z</time>
      </trkpt>
      <trkpt lat="44.36479" lon="3.42704">
        <ele>484.7</ele>
        <time>2020-08-25T08:35:00.000Z</time>
      </trkpt>
      <trkpt lat="44.36478" lon="3.427">
        <ele>484.8</ele>
        <time>2020-08-25T08:35:01.000Z</time>
      </trkpt>
      <trkpt lat="44.36478" lon="3.42696">
        <ele>484.9</ele>
        <time>2020-08-25T08:35:02.000Z</time>
      </trkpt>
      <trkpt lat="44.36477" lon="3.42691">
        <ele>485</ele>
        <time>2020-08-25T08:35:04.000Z</time>
      </trkpt>
      <trkpt lat="44.36476" lon="3.42686">
        <ele>485.2</ele>
        <time>2020-08-25T08:35:05.000Z</time>
      </trkpt>
      <trkpt lat="44.36476" lon="3.42682">
        <ele>485.3</ele>
        <time>2020-08-25T08:35:06.000Z</time>
      </trkpt>
      <trkpt lat="44.36474" lon="3.42677">
        <ele>485.4</ele>
        <time>2020-08-25T08:35:08.000Z</time>
      </trkpt>
      <trkpt lat="44.36474" lon="3.42674">
        <ele>485.5</ele>
        <time>2020-08-25T08:35:09.000Z</time>
      </trkpt>
      <trkpt lat="44.36473" lon="3.42668">
        <ele>485.7</ele>
        <time>2020-08-25T08:35:11.000Z</time>
      </trkpt>
      <trkpt lat="44.36472" lon="3.42663">
        <ele>485.8</ele>
        <time>2020-08-25T08:35:12.000Z</time>
      </trkpt>
      <trkpt lat="44.36471" lon="3.42661">
        <ele>485.8</ele>
        <time>2020-08-25T08:35:13.000Z</time>
      </trkpt>
      <trkpt lat="44.36471" lon="3.42657">
        <ele>485.9</ele>
        <time>2020-08-25T08:35:14.000Z</time>
      </trkpt>
      <trkpt lat="44.3647" lon="3.42655">
        <ele>485.9</ele>
        <time>2020-08-25T08:35:15.000Z</time>
      </trkpt>
      <trkpt lat="44.36469" lon="3.42653">
        <ele>486</ele>
        <time>2020-08-25T08:35:17.000Z</time>
      </trkpt>
      <trkpt lat="44.36468" lon="3.42651">
        <ele>486</ele>
        <time>2020-08-25T08:35:19.000Z</time>
      </trkpt>
      <trkpt lat="44.36468" lon="3.42649">
        <ele>486</ele>
        <time>2020-08-25T08:35:20.000Z</time>
      </trkpt>
      <trkpt lat="44.36467" lon="3.42647">
        <ele>486</ele>
        <time>2020-08-25T08:35:22.000Z</time>
      </trkpt>
      <trkpt lat="44.36466" lon="3.42645">
        <ele>486</ele>
        <time>2020-08-25T08:35:23.000Z</time>
      </trkpt>
      <trkpt lat="44.36465" lon="3.42643">
        <ele>486</ele>
        <time>2020-08-25T08:35:24.000Z</time>
      </trkpt>
      <trkpt lat="44.36465" lon="3.4264">
        <ele>486</ele>
        <time>2020-08-25T08:35:26.000Z</time>
      </trkpt>
      <trkpt lat="44.36453" lon="3.42592">
        <ele>485.9</ele>
        <time>2020-08-25T08:36:14.000Z</time>
      </trkpt>
      <trkpt lat="44.36452" lon="3.42589">
        <ele>485.9</ele>
        <time>2020-08-25T08:36:16.000Z</time>
      </trkpt>
      <trkpt lat="44.36452" lon="3.42589">
        <ele>485.9</ele>
        <time>2020-08-25T08:36:17.000Z</time>
      </trkpt>
      <trkpt lat="44.36452" lon="3.42587">
        <ele>486</ele>
        <time>2020-08-25T08:36:18.000Z</time>
      </trkpt>
      <trkpt lat="44.36452" lon="3.42586">
        <ele>486</ele>
        <time>2020-08-25T08:36:19.000Z</time>
      </trkpt>
      <trkpt lat="44.36452" lon="3.42585">
        <ele>486</ele>
        <time>2020-08-25T08:36:21.000Z</time>
      </trkpt>
      <trkpt lat="44.36451" lon="3.42584">
        <ele>486</ele>
        <time>2020-08-25T08:36:22.000Z</time>
      </trkpt>
      <trkpt lat="44.3645" lon="3.4258">
        <ele>486.1</ele>
        <time>2020-08-25T08:36:23.000Z</time>
      </trkpt>
      <trkpt lat="44.3645" lon="3.42578">
        <ele>486.1</ele>
        <time>2020-08-25T08:36:25.000Z</time>
      </trkpt>
      <trkpt lat="44.3645" lon="3.42577">
        <ele>486.2</ele>
        <time>2020-08-25T08:36:26.000Z</time>
      </trkpt>
      <trkpt lat="44.36449" lon="3.42576">
        <ele>486.2</ele>
        <time>2020-08-25T08:36:27.000Z</time>
      </trkpt>
      <trkpt lat="44.36449" lon="3.42574">
        <ele>486.2</ele>
        <time>2020-08-25T08:36:28.000Z</time>
      </trkpt>
      <trkpt lat="44.36448" lon="3.42573">
        <ele>486.3</ele>
        <time>2020-08-25T08:36:29.000Z</time>
      </trkpt>
      <trkpt lat="44.36448" lon="3.42572">
        <ele>486.3</ele>
        <time>2020-08-25T08:36:31.000Z</time>
      </trkpt>
      <trkpt lat="44.36447" lon="3.42571">
        <ele>486.3</ele>
        <time>2020-08-25T08:36:33.000Z</time>
      </trkpt>
      <trkpt lat="44.36447" lon="3.4257">
        <ele>486.3</ele>
        <time>2020-08-25T08:36:34.000Z</time>
      </trkpt>
      <trkpt lat="44.36447" lon="3.4257">
        <ele>486.4</ele>
        <time>2020-08-25T08:36:35.000Z</time>
      </trkpt>
      <trkpt lat="44.36447" lon="3.4257">
        <ele>486.4</ele>
        <time>2020-08-25T08:36:37.000Z</time>
      </trkpt>
      <trkpt lat="44.36447" lon="3.4257">
        <ele>486.4</ele>
        <time>2020-08-25T08:36:39.000Z</time>
      </trkpt>
      <trkpt lat="44.36439" lon="3.42531">
        <ele>487.3</ele>
        <time>2020-08-25T08:38:52.000Z</time>
      </trkpt>
      <trkpt lat="44.36438" lon="3.42529">
        <ele>487.3</ele>
        <time>2020-08-25T08:38:53.000Z</time>
      </trkpt>
      <trkpt lat="44.36438" lon="3.42528">
        <ele>487.3</ele>
        <time>2020-08-25T08:38:55.000Z</time>
      </trkpt>
      <trkpt lat="44.36438" lon="3.42527">
        <ele>487.3</ele>
        <time>2020-08-25T08:38:56.000Z</time>
      </trkpt>
      <trkpt lat="44.36437" lon="3.42526">
        <ele>487.3</ele>
        <time>2020-08-25T08:38:58.000Z</time>
      </trkpt>
      <trkpt lat="44.36437" lon="3.42525">
        <ele>487.2</ele>
        <time>2020-08-25T08:38:59.000Z</time>
      </trkpt>
      <trkpt lat="44.36437" lon="3.42524">
        <ele>487.2</ele>
        <time>2020-08-25T08:39:00.000Z</time>
      </trkpt>
      <trkpt lat="44.36436" lon="3.42523">
        <ele>487.1</ele>
        <time>2020-08-25T08:39:02.000Z</time>
      </trkpt>
      <trkpt lat="44.36436" lon="3.42522">
        <ele>487</ele>
        <time>2020-08-25T08:39:04.000Z</time>
      </trkpt>
      <trkpt lat="44.36439" lon="3.42514">
        <ele>486.6</ele>
        <time>2020-08-25T08:46:20.000Z</time>
      </trkpt>
      <trkpt lat="44.36441" lon="3.42515">
        <ele>486.5</ele>
        <time>2020-08-25T08:46:22.000Z</time>
      </trkpt>
      <trkpt lat="44.3644" lon="3.42516">
        <ele>486.5</ele>
        <time>2020-08-25T08:46:24.000Z</time>
      </trkpt>
      <trkpt lat="44.3644" lon="3.42516">
        <ele>486.5</ele>
        <time>2020-08-25T08:46:26.000Z</time>
      </trkpt>
      <trkpt lat="44.3644" lon="3.42517">
        <ele>486.5</ele>
        <time>2020-08-25T08:46:28.000Z</time>
      </trkpt>
      <trkpt lat="44.36439" lon="3.42517">
        <ele>486.5</ele>
        <time>2020-08-25T08:46:29.000Z</time>
      </trkpt>
      <trkpt lat="44.36439" lon="3.42517">
        <ele>486.5</ele>
        <time>2020-08-25T08:46:30.000Z</time>
      </trkpt>
      <trkpt lat="44.36439" lon="3.42517">
        <ele>486.4</ele>
        <time>2020-08-25T08:46:32.000Z</time>
      </trkpt>
      <trkpt lat="44.36437" lon="3.42503">
        <ele>486.2</ele>
        <time>2020-08-25T08:55:07.000Z</time>
      </trkpt>
      <trkpt lat="44.36439" lon="3.42497">
        <ele>486.1</ele>
        <time>2020-08-25T08:55:09.000Z</time>
      </trkpt>
      <trkpt lat="44.36438" lon="3.42494">
        <ele>486.1</ele>
        <time>2020-08-25T08:55:11.000Z</time>
      </trkpt>
      <trkpt lat="44.36439" lon="3.42492">
        <ele>486.1</ele>
        <time>2020-08-25T08:55:12.000Z</time>
      </trkpt>
      <trkpt lat="44.36439" lon="3.42491">
        <ele>486.1</ele>
        <time>2020-08-25T08:55:13.000Z</time>
      </trkpt>
      <trkpt lat="44.36439" lon="3.4249">
        <ele>486.1</ele>
        <time>2020-08-25T08:55:14.000Z</time>
      </trkpt>
      <trkpt lat="44.36439" lon="3.42489">
        <ele>486.1</ele>
        <time>2020-08-25T08:55:16.000Z</time>
      </trkpt>
      <trkpt lat="44.36439" lon="3.42488">
        <ele>486.1</ele>
        <time>2020-08-25T08:55:17.000Z</time>
      </trkpt>
      <trkpt lat="44.36439" lon="3.42486">
        <ele>486.1</ele>
        <time>2020-08-25T08:55:18.000Z</time>
      </trkpt>
      <trkpt lat="44.36439" lon="3.42485">
        <ele>486.1</ele>
        <time>2020-08-25T08:55:20.000Z</time>
      </trkpt>
      <trkpt lat="44.36439" lon="3.42483">
        <ele>486.1</ele>
        <time>2020-08-25T08:55:21.000Z</time>
      </trkpt>
      <trkpt lat="44.36438" lon="3.42482">
        <ele>486.1</ele>
        <time>2020-08-25T08:55:22.000Z</time>
      </trkpt>
      <trkpt lat="44.36438" lon="3.42479">
        <ele>486.1</ele>
        <time>2020-08-25T08:55:24.000Z</time>
      </trkpt>
      <trkpt lat="44.36438" lon="3.42477">
        <ele>486.1</ele>
        <time>2020-08-25T08:55:25.000Z</time>
      </trkpt>
      <trkpt lat="44.36438" lon="3.42477">
        <ele>486.1</ele>
        <time>2020-08-25T08:55:26.000Z</time>
      </trkpt>
      <trkpt lat="44.36438" lon="3.42476">
        <ele>486.1</ele>
        <time>2020-08-25T08:55:27.000Z</time>
      </trkpt>
      <trkpt lat="44.36438" lon="3.42475">
        <ele>486.1</ele>
        <time>2020-08-25T08:55:28.000Z</time>
      </trkpt>
      <trkpt lat="44.36437" lon="3.42473">
        <ele>486.2</ele>
        <time>2020-08-25T08:55:30.000Z</time>
      </trkpt>
      <trkpt lat="44.36437" lon="3.42471">
        <ele>486.2</ele>
        <time>2020-08-25T08:55:32.000Z</time>
      </trkpt>
      <trkpt lat="44.36437" lon="3.42471">
        <ele>486.2</ele>
        <time>2020-08-25T08:55:33.000Z</time>
      </trkpt>
      <trkpt lat="44.36437" lon="3.4247">
        <ele>486.2</ele>
        <time>2020-08-25T08:55:34.000Z</time>
      </trkpt>
      <trkpt lat="44.36437" lon="3.42468">
        <ele>486.2</ele>
        <time>2020-08-25T08:55:36.000Z</time>
      </trkpt>
      <trkpt lat="44.36436" lon="3.42465">
        <ele>486.2</ele>
        <time>2020-08-25T08:55:37.000Z</time>
      </trkpt>
      <trkpt lat="44.36436" lon="3.42464">
        <ele>486.2</ele>
        <time>2020-08-25T08:55:38.000Z</time>
      </trkpt>
      <trkpt lat="44.36436" lon="3.42462">
        <ele>486.2</ele>
        <time>2020-08-25T08:55:40.000Z</time>
      </trkpt>
      <trkpt lat="44.36436" lon="3.4246">
        <ele>486.2</ele>
        <time>2020-08-25T08:55:41.000Z</time>
      </trkpt>
      <trkpt lat="44.36437" lon="3.42456">
        <ele>486.1</ele>
        <time>2020-08-25T08:55:42.000Z</time>
      </trkpt>
      <trkpt lat="44.36437" lon="3.42454">
        <ele>486.1</ele>
        <time>2020-08-25T08:55:43.000Z</time>
      </trkpt>
      <trkpt lat="44.36438" lon="3.42452">
        <ele>486.1</ele>
        <time>2020-08-25T08:55:44.000Z</time>
      </trkpt>
      <trkpt lat="44.36438" lon="3.4245">
        <ele>486</ele>
        <time>2020-08-25T08:55:45.000Z</time>
      </trkpt>
      <trkpt lat="44.36439" lon="3.42445">
        <ele>485.9</ele>
        <time>2020-08-25T08:55:47.000Z</time>
      </trkpt>
      <trkpt lat="44.36439" lon="3.42444">
        <ele>485.8</ele>
        <time>2020-08-25T08:55:48.000Z</time>
      </trkpt>
      <trkpt lat="44.36439" lon="3.42437">
        <ele>485.6</ele>
        <time>2020-08-25T08:55:49.000Z</time>
      </trkpt>
      <trkpt lat="44.36439" lon="3.42435">
        <ele>485.5</ele>
        <time>2020-08-25T08:55:50.000Z</time>
      </trkpt>
      <trkpt lat="44.36438" lon="3.4243">
        <ele>485.3</ele>
        <time>2020-08-25T08:55:51.000Z</time>
      </trkpt>
      <trkpt lat="44.36438" lon="3.42428">
        <ele>485.3</ele>
        <time>2020-08-25T08:55:52.000Z</time>
      </trkpt>
      <trkpt lat="44.36437" lon="3.42425">
        <ele>485.1</ele>
        <time>2020-08-25T08:55:54.000Z</time>
      </trkpt>
      <trkpt lat="44.36437" lon="3.42423">
        <ele>485</ele>
        <time>2020-08-25T08:55:55.000Z</time>
      </trkpt>
      <trkpt lat="44.36436" lon="3.42421">
        <ele>485</ele>
        <time>2020-08-25T08:55:56.000Z</time>
      </trkpt>
      <trkpt lat="44.36436" lon="3.42421">
        <ele>485</ele>
        <time>2020-08-25T08:55:57.000Z</time>
      </trkpt>
      <trkpt lat="44.36436" lon="3.42418">
        <ele>484.8</ele>
        <time>2020-08-25T08:55:59.000Z</time>
      </trkpt>
      <trkpt lat="44.36436" lon="3.42417">
        <ele>484.8</ele>
        <time>2020-08-25T08:56:00.000Z</time>
      </trkpt>
      <trkpt lat="44.36436" lon="3.42416">
        <ele>484.7</ele>
        <time>2020-08-25T08:56:01.000Z</time>
      </trkpt>
      <trkpt lat="44.36436" lon="3.42411">
        <ele>484.6</ele>
        <time>2020-08-25T08:56:03.000Z</time>
      </trkpt>
      <trkpt lat="44.36436" lon="3.4241">
        <ele>484.5</ele>
        <time>2020-08-25T08:56:04.000Z</time>
      </trkpt>
      <trkpt lat="44.36436" lon="3.42408">
        <ele>484.5</ele>
        <time>2020-08-25T08:56:05.000Z</time>
      </trkpt>
      <trkpt lat="44.36436" lon="3.42406">
        <ele>484.4</ele>
        <time>2020-08-25T08:56:06.000Z</time>
      </trkpt>
      <trkpt lat="44.36435" lon="3.42402">
        <ele>484.2</ele>
        <time>2020-08-25T08:56:08.000Z</time>
      </trkpt>
      <trkpt lat="44.36435" lon="3.42396">
        <ele>484</ele>
        <time>2020-08-25T08:56:10.000Z</time>
      </trkpt>
      <trkpt lat="44.36434" lon="3.42393">
        <ele>483.9</ele>
        <time>2020-08-25T08:56:12.000Z</time>
      </trkpt>
      <trkpt lat="44.36433" lon="3.4239">
        <ele>483.8</ele>
        <time>2020-08-25T08:56:14.000Z</time>
      </trkpt>
      <trkpt lat="44.36432" lon="3.42386">
        <ele>483.8</ele>
        <time>2020-08-25T08:56:16.000Z</time>
      </trkpt>
      <trkpt lat="44.36432" lon="3.42385">
        <ele>483.7</ele>
        <time>2020-08-25T08:56:17.000Z</time>
      </trkpt>
      <trkpt lat="44.36432" lon="3.42383">
        <ele>483.7</ele>
        <time>2020-08-25T08:56:19.000Z</time>
      </trkpt>
      <trkpt lat="44.36431" lon="3.42382">
        <ele>483.7</ele>
        <time>2020-08-25T08:56:21.000Z</time>
      </trkpt>
      <trkpt lat="44.36431" lon="3.42381">
        <ele>483.6</ele>
        <time>2020-08-25T08:56:23.000Z</time>
      </trkpt>
      <trkpt lat="44.36431" lon="3.42381">
        <ele>483.6</ele>
        <time>2020-08-25T08:56:25.000Z</time>
      </trkpt>
      <trkpt lat="44.3643" lon="3.42381">
        <ele>483.6</ele>
        <time>2020-08-25T08:56:27.000Z</time>
      </trkpt>
      <trkpt lat="44.3643" lon="3.4238">
        <ele>483.6</ele>
        <time>2020-08-25T08:56:28.000Z</time>
      </trkpt>
      <trkpt lat="44.36431" lon="3.42379">
        <ele>483.6</ele>
        <time>2020-08-25T08:56:30.000Z</time>
      </trkpt>
      <trkpt lat="44.36431" lon="3.42378">
        <ele>483.5</ele>
        <time>2020-08-25T08:56:32.000Z</time>
      </trkpt>
      <trkpt lat="44.36431" lon="3.42378">
        <ele>483.5</ele>
        <time>2020-08-25T08:56:33.000Z</time>
      </trkpt>
      <trkpt lat="44.3643" lon="3.42378">
        <ele>483.5</ele>
        <time>2020-08-25T08:56:34.000Z</time>
      </trkpt>
      <trkpt lat="44.3643" lon="3.42377">
        <ele>483.5</ele>
        <time>2020-08-25T08:56:35.000Z</time>
      </trkpt>
      <trkpt lat="44.36422" lon="3.42372">
        <ele>483.2</ele>
        <time>2020-08-25T08:57:10.000Z</time>
      </trkpt>
      <trkpt lat="44.36422" lon="3.4237">
        <ele>483.2</ele>
        <time>2020-08-25T08:57:11.000Z</time>
      </trkpt>
      <trkpt lat="44.36422" lon="3.42369">
        <ele>483.1</ele>
        <time>2020-08-25T08:57:12.000Z</time>
      </trkpt>
      <trkpt lat="44.36422" lon="3.42369">
        <ele>483.1</ele>
        <time>2020-08-25T08:57:13.000Z</time>
      </trkpt>
      <trkpt lat="44.36421" lon="3.42369">
        <ele>483.1</ele>
        <time>2020-08-25T08:57:14.000Z</time>
      </trkpt>
      <trkpt lat="44.36421" lon="3.42369">
        <ele>483.1</ele>
        <time>2020-08-25T08:57:16.000Z</time>
      </trkpt>
      <trkpt lat="44.36421" lon="3.42369">
        <ele>483.1</ele>
        <time>2020-08-25T08:57:17.000Z</time>
      </trkpt>
      <trkpt lat="44.36421" lon="3.42369">
        <ele>483.1</ele>
        <time>2020-08-25T08:57:18.000Z</time>
      </trkpt>
      <trkpt lat="44.36421" lon="3.42369">
        <ele>483.1</ele>
        <time>2020-08-25T08:57:20.000Z</time>
      </trkpt>
      <trkpt lat="44.36421" lon="3.42369">
        <ele>483.1</ele>
        <time>2020-08-25T08:57:21.000Z</time>
      </trkpt>
      <trkpt lat="44.36421" lon="3.42369">
        <ele>483.1</ele>
        <time>2020-08-25T08:57:22.000Z</time>
      </trkpt>
      <trkpt lat="44.3642" lon="3.42369">
        <ele>483.1</ele>
        <time>2020-08-25T08:57:24.000Z</time>
      </trkpt>
      <trkpt lat="44.3642" lon="3.42369">
        <ele>483.1</ele>
        <time>2020-08-25T08:57:25.000Z</time>
      </trkpt>
      <trkpt lat="44.3642" lon="3.4237">
        <ele>483.1</ele>
        <time>2020-08-25T08:57:27.000Z</time>
      </trkpt>
      <trkpt lat="44.36421" lon="3.42367">
        <ele>483</ele>
        <time>2020-08-25T08:57:56.000Z</time>
      </trkpt>
      <trkpt lat="44.3642" lon="3.42365">
        <ele>483</ele>
        <time>2020-08-25T08:57:57.000Z</time>
      </trkpt>
      <trkpt lat="44.36419" lon="3.42366">
        <ele>483</ele>
        <time>2020-08-25T08:57:59.000Z</time>
      </trkpt>
      <trkpt lat="44.36418" lon="3.42368">
        <ele>482.9</ele>
        <time>2020-08-25T08:58:00.000Z</time>
      </trkpt>
      <trkpt lat="44.36418" lon="3.42367">
        <ele>482.9</ele>
        <time>2020-08-25T08:58:01.000Z</time>
      </trkpt>
      <trkpt lat="44.36417" lon="3.42365">
        <ele>482.9</ele>
        <time>2020-08-25T08:58:02.000Z</time>
      </trkpt>
      <trkpt lat="44.36417" lon="3.42363">
        <ele>482.9</ele>
        <time>2020-08-25T08:58:04.000Z</time>
      </trkpt>
      <trkpt lat="44.36416" lon="3.42361">
        <ele>482.8</ele>
        <time>2020-08-25T08:58:05.000Z</time>
      </trkpt>
      <trkpt lat="44.36416" lon="3.4236">
        <ele>482.8</ele>
        <time>2020-08-25T08:58:06.000Z</time>
      </trkpt>
      <trkpt lat="44.36416" lon="3.42359">
        <ele>482.8</ele>
        <time>2020-08-25T08:58:08.000Z</time>
      </trkpt>
      <trkpt lat="44.36416" lon="3.42357">
        <ele>482.8</ele>
        <time>2020-08-25T08:58:09.000Z</time>
      </trkpt>
      <trkpt lat="44.36416" lon="3.42354">
        <ele>482.8</ele>
        <time>2020-08-25T08:58:11.000Z</time>
      </trkpt>
      <trkpt lat="44.36416" lon="3.4235">
        <ele>482.8</ele>
        <time>2020-08-25T08:58:12.000Z</time>
      </trkpt>
      <trkpt lat="44.36416" lon="3.42348">
        <ele>482.8</ele>
        <time>2020-08-25T08:58:13.000Z</time>
      </trkpt>
      <trkpt lat="44.36415" lon="3.42343">
        <ele>482.7</ele>
        <time>2020-08-25T08:58:15.000Z</time>
      </trkpt>
      <trkpt lat="44.36416" lon="3.42342">
        <ele>482.7</ele>
        <time>2020-08-25T08:58:16.000Z</time>
      </trkpt>
      <trkpt lat="44.36415" lon="3.42337">
        <ele>482.7</ele>
        <time>2020-08-25T08:58:18.000Z</time>
      </trkpt>
      <trkpt lat="44.36415" lon="3.42335">
        <ele>482.7</ele>
        <time>2020-08-25T08:58:19.000Z</time>
      </trkpt>
      <trkpt lat="44.36415" lon="3.42333">
        <ele>482.7</ele>
        <time>2020-08-25T08:58:20.000Z</time>
      </trkpt>
      <trkpt lat="44.36415" lon="3.4233">
        <ele>482.7</ele>
        <time>2020-08-25T08:58:22.000Z</time>
      </trkpt>
      <trkpt lat="44.36415" lon="3.42328">
        <ele>482.7</ele>
        <time>2020-08-25T08:58:23.000Z</time>
      </trkpt>
      <trkpt lat="44.36415" lon="3.42326">
        <ele>482.7</ele>
        <time>2020-08-25T08:58:24.000Z</time>
      </trkpt>
      <trkpt lat="44.36415" lon="3.42322">
        <ele>482.7</ele>
        <time>2020-08-25T08:58:26.000Z</time>
      </trkpt>
      <trkpt lat="44.36415" lon="3.42321">
        <ele>482.7</ele>
        <time>2020-08-25T08:58:27.000Z</time>
      </trkpt>
      <trkpt lat="44.36416" lon="3.42319">
        <ele>482.7</ele>
        <time>2020-08-25T08:58:29.000Z</time>
      </trkpt>
      <trkpt lat="44.36416" lon="3.42317">
        <ele>482.8</ele>
        <time>2020-08-25T08:58:30.000Z</time>
      </trkpt>
      <trkpt lat="44.36416" lon="3.42314">
        <ele>482.8</ele>
        <time>2020-08-25T08:58:31.000Z</time>
      </trkpt>
      <trkpt lat="44.36417" lon="3.4231">
        <ele>482.9</ele>
        <time>2020-08-25T08:58:33.000Z</time>
      </trkpt>
      <trkpt lat="44.36417" lon="3.4231">
        <ele>482.9</ele>
        <time>2020-08-25T08:58:34.000Z</time>
      </trkpt>
      <trkpt lat="44.36418" lon="3.42308">
        <ele>483</ele>
        <time>2020-08-25T08:58:36.000Z</time>
      </trkpt>
      <trkpt lat="44.36419" lon="3.42307">
        <ele>483</ele>
        <time>2020-08-25T08:58:37.000Z</time>
      </trkpt>
      <trkpt lat="44.3642" lon="3.42304">
        <ele>483.1</ele>
        <time>2020-08-25T08:58:39.000Z</time>
      </trkpt>
      <trkpt lat="44.36421" lon="3.42303">
        <ele>483.1</ele>
        <time>2020-08-25T08:58:40.000Z</time>
      </trkpt>
      <trkpt lat="44.36422" lon="3.42302">
        <ele>483.1</ele>
        <time>2020-08-25T08:58:41.000Z</time>
      </trkpt>
      <trkpt lat="44.36422" lon="3.42301">
        <ele>483.2</ele>
        <time>2020-08-25T08:58:42.000Z</time>
      </trkpt>
      <trkpt lat="44.36423" lon="3.423">
        <ele>483.2</ele>
        <time>2020-08-25T08:58:43.000Z</time>
      </trkpt>
      <trkpt lat="44.36424" lon="3.42296">
        <ele>483.3</ele>
        <time>2020-08-25T08:58:45.000Z</time>
      </trkpt>
      <trkpt lat="44.36424" lon="3.42295">
        <ele>483.3</ele>
        <time>2020-08-25T08:58:46.000Z</time>
      </trkpt>
      <trkpt lat="44.36426" lon="3.42293">
        <ele>483.4</ele>
        <time>2020-08-25T08:58:48.000Z</time>
      </trkpt>
      <trkpt lat="44.36427" lon="3.4229">
        <ele>483.4</ele>
        <time>2020-08-25T08:58:50.000Z</time>
      </trkpt>
      <trkpt lat="44.36429" lon="3.42286">
        <ele>483.4</ele>
        <time>2020-08-25T08:58:51.000Z</time>
      </trkpt>
      <trkpt lat="44.3643" lon="3.42285">
        <ele>483.4</ele>
        <time>2020-08-25T08:58:53.000Z</time>
      </trkpt>
      <trkpt lat="44.36431" lon="3.42284">
        <ele>483.4</ele>
        <time>2020-08-25T08:58:54.000Z</time>
      </trkpt>
      <trkpt lat="44.36434" lon="3.42283">
        <ele>483.4</ele>
        <time>2020-08-25T08:58:56.000Z</time>
      </trkpt>
      <trkpt lat="44.36435" lon="3.42282">
        <ele>483.4</ele>
        <time>2020-08-25T08:58:57.000Z</time>
      </trkpt>
      <trkpt lat="44.36438" lon="3.4228">
        <ele>483.3</ele>
        <time>2020-08-25T08:58:59.000Z</time>
      </trkpt>
      <trkpt lat="44.36439" lon="3.42279">
        <ele>483.3</ele>
        <time>2020-08-25T08:59:00.000Z</time>
      </trkpt>
      <trkpt lat="44.3644" lon="3.42278">
        <ele>483.2</ele>
        <time>2020-08-25T08:59:01.000Z</time>
      </trkpt>
      <trkpt lat="44.36441" lon="3.42278">
        <ele>483.2</ele>
        <time>2020-08-25T08:59:02.000Z</time>
      </trkpt>
      <trkpt lat="44.36442" lon="3.42277">
        <ele>483.1</ele>
        <time>2020-08-25T08:59:03.000Z</time>
      </trkpt>
      <trkpt lat="44.36445" lon="3.42276">
        <ele>483</ele>
        <time>2020-08-25T08:59:05.000Z</time>
      </trkpt>
      <trkpt lat="44.36446" lon="3.42275">
        <ele>482.9</ele>
        <time>2020-08-25T08:59:06.000Z</time>
      </trkpt>
      <trkpt lat="44.36447" lon="3.42275">
        <ele>482.9</ele>
        <time>2020-08-25T08:59:07.000Z</time>
      </trkpt>
      <trkpt lat="44.36448" lon="3.42274">
        <ele>482.8</ele>
        <time>2020-08-25T08:59:08.000Z</time>
      </trkpt>
      <trkpt lat="44.36449" lon="3.42273">
        <ele>482.8</ele>
        <time>2020-08-25T08:59:09.000Z</time>
      </trkpt>
      <trkpt lat="44.36451" lon="3.4227">
        <ele>482.6</ele>
        <time>2020-08-25T08:59:11.000Z</time>
      </trkpt>
      <trkpt lat="44.36453" lon="3.42268">
        <ele>482.5</ele>
        <time>2020-08-25T08:59:12.000Z</time>
      </trkpt>
      <trkpt lat="44.36454" lon="3.42267">
        <ele>482.4</ele>
        <time>2020-08-25T08:59:14.000Z</time>
      </trkpt>
      <trkpt lat="44.36455" lon="3.42266">
        <ele>482.4</ele>
        <time>2020-08-25T08:59:16.000Z</time>
      </trkpt>
      <trkpt lat="44.36456" lon="3.42265">
        <ele>482.3</ele>
        <time>2020-08-25T08:59:17.000Z</time>
      </trkpt>
      <trkpt lat="44.36456" lon="3.42264">
        <ele>482.3</ele>
        <time>2020-08-25T08:59:18.000Z</time>
      </trkpt>
      <trkpt lat="44.36457" lon="3.42263">
        <ele>482.2</ele>
        <time>2020-08-25T08:59:20.000Z</time>
      </trkpt>
      <trkpt lat="44.36458" lon="3.42262">
        <ele>482.2</ele>
        <time>2020-08-25T08:59:21.000Z</time>
      </trkpt>
      <trkpt lat="44.36459" lon="3.42262">
        <ele>482.2</ele>
        <time>2020-08-25T08:59:22.000Z</time>
      </trkpt>
      <trkpt lat="44.3646" lon="3.42262">
        <ele>482.1</ele>
        <time>2020-08-25T08:59:24.000Z</time>
      </trkpt>
      <trkpt lat="44.36462" lon="3.42262">
        <ele>482.1</ele>
        <time>2020-08-25T08:59:25.000Z</time>
      </trkpt>
      <trkpt lat="44.36463" lon="3.42261">
        <ele>482</ele>
        <time>2020-08-25T08:59:27.000Z</time>
      </trkpt>
      <trkpt lat="44.36465" lon="3.4226">
        <ele>481.9</ele>
        <time>2020-08-25T08:59:28.000Z</time>
      </trkpt>
      <trkpt lat="44.36466" lon="3.42259">
        <ele>481.9</ele>
        <time>2020-08-25T08:59:29.000Z</time>
      </trkpt>
      <trkpt lat="44.36468" lon="3.42256">
        <ele>481.8</ele>
        <time>2020-08-25T08:59:31.000Z</time>
      </trkpt>
      <trkpt lat="44.36471" lon="3.42255">
        <ele>481.8</ele>
        <time>2020-08-25T08:59:32.000Z</time>
      </trkpt>
      <trkpt lat="44.36472" lon="3.42255">
        <ele>481.7</ele>
        <time>2020-08-25T08:59:34.000Z</time>
      </trkpt>
      <trkpt lat="44.36473" lon="3.42254">
        <ele>481.7</ele>
        <time>2020-08-25T08:59:35.000Z</time>
      </trkpt>
      <trkpt lat="44.36474" lon="3.42254">
        <ele>481.7</ele>
        <time>2020-08-25T08:59:36.000Z</time>
      </trkpt>
      <trkpt lat="44.36475" lon="3.42254">
        <ele>481.7</ele>
        <time>2020-08-25T08:59:37.000Z</time>
      </trkpt>
      <trkpt lat="44.36477" lon="3.42254">
        <ele>481.6</ele>
        <time>2020-08-25T08:59:38.000Z</time>
      </trkpt>
      <trkpt lat="44.36478" lon="3.42253">
        <ele>481.6</ele>
        <time>2020-08-25T08:59:39.000Z</time>
      </trkpt>
      <trkpt lat="44.36479" lon="3.42252">
        <ele>481.6</ele>
        <time>2020-08-25T08:59:41.000Z</time>
      </trkpt>
      <trkpt lat="44.3648" lon="3.42251">
        <ele>481.6</ele>
        <time>2020-08-25T08:59:42.000Z</time>
      </trkpt>
      <trkpt lat="44.3648" lon="3.42251">
        <ele>481.6</ele>
        <time>2020-08-25T08:59:43.000Z</time>
      </trkpt>
      <trkpt lat="44.36481" lon="3.4225">
        <ele>481.5</ele>
        <time>2020-08-25T08:59:45.000Z</time>
      </trkpt>
      <trkpt lat="44.36482" lon="3.4225">
        <ele>481.5</ele>
        <time>2020-08-25T08:59:46.000Z</time>
      </trkpt>
      <trkpt lat="44.36483" lon="3.42251">
        <ele>481.5</ele>
        <time>2020-08-25T08:59:47.000Z</time>
      </trkpt>
      <trkpt lat="44.36485" lon="3.4225">
        <ele>481.5</ele>
        <time>2020-08-25T08:59:49.000Z</time>
      </trkpt>
      <trkpt lat="44.36485" lon="3.4225">
        <ele>481.5</ele>
        <time>2020-08-25T08:59:50.000Z</time>
      </trkpt>
      <trkpt lat="44.36486" lon="3.42249">
        <ele>481.4</ele>
        <time>2020-08-25T08:59:52.000Z</time>
      </trkpt>
      <trkpt lat="44.36486" lon="3.42249">
        <ele>481.4</ele>
        <time>2020-08-25T08:59:54.000Z</time>
      </trkpt>
      <trkpt lat="44.36486" lon="3.42249">
        <ele>481.4</ele>
        <time>2020-08-25T08:59:55.000Z</time>
      </trkpt>
      <trkpt lat="44.36488" lon="3.42248">
        <ele>481.4</ele>
        <time>2020-08-25T08:59:57.000Z</time>
      </trkpt>
      <trkpt lat="44.3649" lon="3.42246">
        <ele>481.3</ele>
        <time>2020-08-25T08:59:59.000Z</time>
      </trkpt>
      <trkpt lat="44.36492" lon="3.42243">
        <ele>481.3</ele>
        <time>2020-08-25T09:00:01.000Z</time>
      </trkpt>
      <trkpt lat="44.36493" lon="3.42242">
        <ele>481.3</ele>
        <time>2020-08-25T09:00:02.000Z</time>
      </trkpt>
      <trkpt lat="44.36495" lon="3.42237">
        <ele>481.2</ele>
        <time>2020-08-25T09:00:03.000Z</time>
      </trkpt>
      <trkpt lat="44.36496" lon="3.42235">
        <ele>481.2</ele>
        <time>2020-08-25T09:00:04.000Z</time>
      </trkpt>
      <trkpt lat="44.36497" lon="3.4223">
        <ele>481.2</ele>
        <time>2020-08-25T09:00:05.000Z</time>
      </trkpt>
      <trkpt lat="44.36498" lon="3.42228">
        <ele>481.2</ele>
        <time>2020-08-25T09:00:06.000Z</time>
      </trkpt>
      <trkpt lat="44.365" lon="3.42221">
        <ele>481.2</ele>
        <time>2020-08-25T09:00:08.000Z</time>
      </trkpt>
      <trkpt lat="44.36501" lon="3.42218">
        <ele>481.2</ele>
        <time>2020-08-25T09:00:09.000Z</time>
      </trkpt>
      <trkpt lat="44.36502" lon="3.42215">
        <ele>481.1</ele>
        <time>2020-08-25T09:00:10.000Z</time>
      </trkpt>
      <trkpt lat="44.36503" lon="3.42209">
        <ele>481.1</ele>
        <time>2020-08-25T09:00:11.000Z</time>
      </trkpt>
      <trkpt lat="44.36506" lon="3.422">
        <ele>481.1</ele>
        <time>2020-08-25T09:00:13.000Z</time>
      </trkpt>
      <trkpt lat="44.36508" lon="3.42195">
        <ele>481.1</ele>
        <time>2020-08-25T09:00:14.000Z</time>
      </trkpt>
      <trkpt lat="44.36509" lon="3.42186">
        <ele>481.1</ele>
        <time>2020-08-25T09:00:16.000Z</time>
      </trkpt>
      <trkpt lat="44.3651" lon="3.42181">
        <ele>481.2</ele>
        <time>2020-08-25T09:00:17.000Z</time>
      </trkpt>
      <trkpt lat="44.36512" lon="3.42176">
        <ele>481.2</ele>
        <time>2020-08-25T09:00:18.000Z</time>
      </trkpt>
      <trkpt lat="44.36513" lon="3.42171">
        <ele>481.2</ele>
        <time>2020-08-25T09:00:19.000Z</time>
      </trkpt>
      <trkpt lat="44.36514" lon="3.42165">
        <ele>481.2</ele>
        <time>2020-08-25T09:00:21.000Z</time>
      </trkpt>
      <trkpt lat="44.36516" lon="3.42161">
        <ele>481.2</ele>
        <time>2020-08-25T09:00:22.000Z</time>
      </trkpt>
      <trkpt lat="44.36516" lon="3.42156">
        <ele>481.2</ele>
        <time>2020-08-25T09:00:23.000Z</time>
      </trkpt>
      <trkpt lat="44.36517" lon="3.4215">
        <ele>481.2</ele>
        <time>2020-08-25T09:00:25.000Z</time>
      </trkpt>
      <trkpt lat="44.36518" lon="3.42146">
        <ele>481.2</ele>
        <time>2020-08-25T09:00:26.000Z</time>
      </trkpt>
      <trkpt lat="44.36519" lon="3.4214">
        <ele>481.2</ele>
        <time>2020-08-25T09:00:28.000Z</time>
      </trkpt>
      <trkpt lat="44.3652" lon="3.42137">
        <ele>481.2</ele>
        <time>2020-08-25T09:00:29.000Z</time>
      </trkpt>
      <trkpt lat="44.36522" lon="3.42131">
        <ele>481.1</ele>
        <time>2020-08-25T09:00:31.000Z</time>
      </trkpt>
      <trkpt lat="44.36523" lon="3.42127">
        <ele>481</ele>
        <time>2020-08-25T09:00:32.000Z</time>
      </trkpt>
      <trkpt lat="44.36523" lon="3.42121">
        <ele>480.9</ele>
        <time>2020-08-25T09:00:33.000Z</time>
      </trkpt>
      <trkpt lat="44.36523" lon="3.42119">
        <ele>480.9</ele>
        <time>2020-08-25T09:00:34.000Z</time>
      </trkpt>
      <trkpt lat="44.36524" lon="3.42113">
        <ele>480.7</ele>
        <time>2020-08-25T09:00:36.000Z</time>
      </trkpt>
      <trkpt lat="44.36524" lon="3.4211">
        <ele>480.6</ele>
        <time>2020-08-25T09:00:37.000Z</time>
      </trkpt>
      <trkpt lat="44.36525" lon="3.42107">
        <ele>480.6</ele>
        <time>2020-08-25T09:00:38.000Z</time>
      </trkpt>
      <trkpt lat="44.36525" lon="3.42103">
        <ele>480.5</ele>
        <time>2020-08-25T09:00:40.000Z</time>
      </trkpt>
      <trkpt lat="44.36527" lon="3.42099">
        <ele>480.4</ele>
        <time>2020-08-25T09:00:41.000Z</time>
      </trkpt>
      <trkpt lat="44.36527" lon="3.42092">
        <ele>480.2</ele>
        <time>2020-08-25T09:00:43.000Z</time>
      </trkpt>
      <trkpt lat="44.36528" lon="3.42085">
        <ele>480</ele>
        <time>2020-08-25T09:00:44.000Z</time>
      </trkpt>
      <trkpt lat="44.36528" lon="3.42076">
        <ele>479.6</ele>
        <time>2020-08-25T09:00:46.000Z</time>
      </trkpt>
      <trkpt lat="44.36528" lon="3.42069">
        <ele>479.5</ele>
        <time>2020-08-25T09:00:47.000Z</time>
      </trkpt>
      <trkpt lat="44.36529" lon="3.42063">
        <ele>479.4</ele>
        <time>2020-08-25T09:00:48.000Z</time>
      </trkpt>
      <trkpt lat="44.3653" lon="3.42058">
        <ele>479.3</ele>
        <time>2020-08-25T09:00:50.000Z</time>
      </trkpt>
      <trkpt lat="44.36531" lon="3.42056">
        <ele>479.2</ele>
        <time>2020-08-25T09:00:51.000Z</time>
      </trkpt>
      <trkpt lat="44.36531" lon="3.42055">
        <ele>479.2</ele>
        <time>2020-08-25T09:00:52.000Z</time>
      </trkpt>
      <trkpt lat="44.3653" lon="3.42054">
        <ele>479.2</ele>
        <time>2020-08-25T09:00:54.000Z</time>
      </trkpt>
      <trkpt lat="44.3653" lon="3.42053">
        <ele>479.1</ele>
        <time>2020-08-25T09:00:56.000Z</time>
      </trkpt>
      <trkpt lat="44.3653" lon="3.42053">
        <ele>479.1</ele>
        <time>2020-08-25T09:00:57.000Z</time>
      </trkpt>
      <trkpt lat="44.36529" lon="3.42052">
        <ele>479.1</ele>
        <time>2020-08-25T09:00:59.000Z</time>
      </trkpt>
      <trkpt lat="44.36529" lon="3.42052">
        <ele>479.1</ele>
        <time>2020-08-25T09:01:00.000Z</time>
      </trkpt>
      <trkpt lat="44.36529" lon="3.42052">
        <ele>479.1</ele>
        <time>2020-08-25T09:01:01.000Z</time>
      </trkpt>
      <trkpt lat="44.36529" lon="3.42051">
        <ele>479.1</ele>
        <time>2020-08-25T09:01:03.000Z</time>
      </trkpt>
      <trkpt lat="44.36528" lon="3.42051">
        <ele>479.1</ele>
        <time>2020-08-25T09:01:05.000Z</time>
      </trkpt>
      <trkpt lat="44.36528" lon="3.42051">
        <ele>479.1</ele>
        <time>2020-08-25T09:01:06.000Z</time>
      </trkpt>
      <trkpt lat="44.36527" lon="3.42047">
        <ele>479</ele>
        <time>2020-08-25T09:01:18.000Z</time>
      </trkpt>
      <trkpt lat="44.36528" lon="3.42046">
        <ele>478.9</ele>
        <time>2020-08-25T09:01:19.000Z</time>
      </trkpt>
      <trkpt lat="44.36529" lon="3.42044">
        <ele>478.9</ele>
        <time>2020-08-25T09:01:21.000Z</time>
      </trkpt>
      <trkpt lat="44.36529" lon="3.42043">
        <ele>478.8</ele>
        <time>2020-08-25T09:01:23.000Z</time>
      </trkpt>
      <trkpt lat="44.36529" lon="3.42042">
        <ele>478.8</ele>
        <time>2020-08-25T09:01:24.000Z</time>
      </trkpt>
      <trkpt lat="44.3653" lon="3.42042">
        <ele>478.8</ele>
        <time>2020-08-25T09:01:26.000Z</time>
      </trkpt>
      <trkpt lat="44.3653" lon="3.42041">
        <ele>478.8</ele>
        <time>2020-08-25T09:01:28.000Z</time>
      </trkpt>
      <trkpt lat="44.36531" lon="3.42037">
        <ele>478.7</ele>
        <time>2020-08-25T09:01:31.000Z</time>
      </trkpt>
      <trkpt lat="44.36531" lon="3.42035">
        <ele>478.7</ele>
        <time>2020-08-25T09:01:32.000Z</time>
      </trkpt>
      <trkpt lat="44.36532" lon="3.42032">
        <ele>478.6</ele>
        <time>2020-08-25T09:01:34.000Z</time>
      </trkpt>
      <trkpt lat="44.36532" lon="3.42027">
        <ele>478.6</ele>
        <time>2020-08-25T09:01:35.000Z</time>
      </trkpt>
      <trkpt lat="44.36532" lon="3.42025">
        <ele>478.6</ele>
        <time>2020-08-25T09:01:36.000Z</time>
      </trkpt>
      <trkpt lat="44.36531" lon="3.4202">
        <ele>478.6</ele>
        <time>2020-08-25T09:01:37.000Z</time>
      </trkpt>
      <trkpt lat="44.36532" lon="3.42016">
        <ele>478.7</ele>
        <time>2020-08-25T09:01:38.000Z</time>
      </trkpt>
      <trkpt lat="44.36532" lon="3.42015">
        <ele>478.8</ele>
        <time>2020-08-25T09:01:39.000Z</time>
      </trkpt>
      <trkpt lat="44.36533" lon="3.4201">
        <ele>478.9</ele>
        <time>2020-08-25T09:01:41.000Z</time>
      </trkpt>
      <trkpt lat="44.36533" lon="3.42008">
        <ele>479</ele>
        <time>2020-08-25T09:01:42.000Z</time>
      </trkpt>
      <trkpt lat="44.36536" lon="3.41998">
        <ele>479.4</ele>
        <time>2020-08-25T09:01:43.000Z</time>
      </trkpt>
      <trkpt lat="44.36537" lon="3.41992">
        <ele>479.6</ele>
        <time>2020-08-25T09:01:44.000Z</time>
      </trkpt>
      <trkpt lat="44.36538" lon="3.41986">
        <ele>479.7</ele>
        <time>2020-08-25T09:01:46.000Z</time>
      </trkpt>
      <trkpt lat="44.36539" lon="3.41979">
        <ele>479.8</ele>
        <time>2020-08-25T09:01:47.000Z</time>
      </trkpt>
      <trkpt lat="44.3654" lon="3.41975">
        <ele>479.8</ele>
        <time>2020-08-25T09:01:49.000Z</time>
      </trkpt>
      <trkpt lat="44.36542" lon="3.41969">
        <ele>479.8</ele>
        <time>2020-08-25T09:01:50.000Z</time>
      </trkpt>
      <trkpt lat="44.36542" lon="3.41964">
        <ele>479.8</ele>
        <time>2020-08-25T09:01:52.000Z</time>
      </trkpt>
      <trkpt lat="44.36543" lon="3.41959">
        <ele>479.8</ele>
        <time>2020-08-25T09:01:53.000Z</time>
      </trkpt>
      <trkpt lat="44.36544" lon="3.41953">
        <ele>479.8</ele>
        <time>2020-08-25T09:01:54.000Z</time>
      </trkpt>
      <trkpt lat="44.36544" lon="3.41948">
        <ele>479.7</ele>
        <time>2020-08-25T09:01:56.000Z</time>
      </trkpt>
      <trkpt lat="44.36545" lon="3.41944">
        <ele>479.7</ele>
        <time>2020-08-25T09:01:57.000Z</time>
      </trkpt>
      <trkpt lat="44.36545" lon="3.41937">
        <ele>479.7</ele>
        <time>2020-08-25T09:01:59.000Z</time>
      </trkpt>
      <trkpt lat="44.36545" lon="3.41933">
        <ele>479.6</ele>
        <time>2020-08-25T09:02:00.000Z</time>
      </trkpt>
      <trkpt lat="44.36546" lon="3.41928">
        <ele>479.6</ele>
        <time>2020-08-25T09:02:01.000Z</time>
      </trkpt>
      <trkpt lat="44.36546" lon="3.41923">
        <ele>479.5</ele>
        <time>2020-08-25T09:02:02.000Z</time>
      </trkpt>
      <trkpt lat="44.36546" lon="3.41919">
        <ele>479.4</ele>
        <time>2020-08-25T09:02:03.000Z</time>
      </trkpt>
      <trkpt lat="44.36545" lon="3.41915">
        <ele>479.3</ele>
        <time>2020-08-25T09:02:05.000Z</time>
      </trkpt>
      <trkpt lat="44.36545" lon="3.4191">
        <ele>479.3</ele>
        <time>2020-08-25T09:02:06.000Z</time>
      </trkpt>
      <trkpt lat="44.36546" lon="3.41904">
        <ele>479.2</ele>
        <time>2020-08-25T09:02:07.000Z</time>
      </trkpt>
      <trkpt lat="44.36546" lon="3.41892">
        <ele>479</ele>
        <time>2020-08-25T09:02:09.000Z</time>
      </trkpt>
      <trkpt lat="44.36546" lon="3.41884">
        <ele>478.9</ele>
        <time>2020-08-25T09:02:10.000Z</time>
      </trkpt>
      <trkpt lat="44.36546" lon="3.41878">
        <ele>478.8</ele>
        <time>2020-08-25T09:02:11.000Z</time>
      </trkpt>
      <trkpt lat="44.36545" lon="3.4187">
        <ele>478.7</ele>
        <time>2020-08-25T09:02:13.000Z</time>
      </trkpt>
      <trkpt lat="44.36545" lon="3.41865">
        <ele>478.7</ele>
        <time>2020-08-25T09:02:14.000Z</time>
      </trkpt>
      <trkpt lat="44.36544" lon="3.4186">
        <ele>478.6</ele>
        <time>2020-08-25T09:02:15.000Z</time>
      </trkpt>
      <trkpt lat="44.36543" lon="3.41855">
        <ele>478.6</ele>
        <time>2020-08-25T09:02:16.000Z</time>
      </trkpt>
      <trkpt lat="44.36542" lon="3.41852">
        <ele>478.5</ele>
        <time>2020-08-25T09:02:17.000Z</time>
      </trkpt>
      <trkpt lat="44.36541" lon="3.41848">
        <ele>478.5</ele>
        <time>2020-08-25T09:02:18.000Z</time>
      </trkpt>
      <trkpt lat="44.36541" lon="3.41843">
        <ele>478.4</ele>
        <time>2020-08-25T09:02:19.000Z</time>
      </trkpt>
      <trkpt lat="44.36541" lon="3.41837">
        <ele>478.3</ele>
        <time>2020-08-25T09:02:21.000Z</time>
      </trkpt>
      <trkpt lat="44.36541" lon="3.41833">
        <ele>478.2</ele>
        <time>2020-08-25T09:02:22.000Z</time>
      </trkpt>
      <trkpt lat="44.3654" lon="3.41827">
        <ele>478</ele>
        <time>2020-08-25T09:02:24.000Z</time>
      </trkpt>
      <trkpt lat="44.3654" lon="3.41822">
        <ele>477.9</ele>
        <time>2020-08-25T09:02:25.000Z</time>
      </trkpt>
      <trkpt lat="44.3654" lon="3.41817">
        <ele>477.7</ele>
        <time>2020-08-25T09:02:26.000Z</time>
      </trkpt>
      <trkpt lat="44.3654" lon="3.41809">
        <ele>477.5</ele>
        <time>2020-08-25T09:02:28.000Z</time>
      </trkpt>
      <trkpt lat="44.3654" lon="3.41801">
        <ele>477.3</ele>
        <time>2020-08-25T09:02:29.000Z</time>
      </trkpt>
      <trkpt lat="44.3654" lon="3.41795">
        <ele>477.2</ele>
        <time>2020-08-25T09:02:30.000Z</time>
      </trkpt>
      <trkpt lat="44.36539" lon="3.41784">
        <ele>477</ele>
        <time>2020-08-25T09:02:32.000Z</time>
      </trkpt>
      <trkpt lat="44.36539" lon="3.41774">
        <ele>477</ele>
        <time>2020-08-25T09:02:34.000Z</time>
      </trkpt>
      <trkpt lat="44.36538" lon="3.41769">
        <ele>476.9</ele>
        <time>2020-08-25T09:02:35.000Z</time>
      </trkpt>
      <trkpt lat="44.36537" lon="3.41763">
        <ele>476.9</ele>
        <time>2020-08-25T09:02:36.000Z</time>
      </trkpt>
      <trkpt lat="44.36536" lon="3.41755">
        <ele>476.9</ele>
        <time>2020-08-25T09:02:38.000Z</time>
      </trkpt>
      <trkpt lat="44.36536" lon="3.41747">
        <ele>476.9</ele>
        <time>2020-08-25T09:02:40.000Z</time>
      </trkpt>
      <trkpt lat="44.36536" lon="3.41742">
        <ele>476.9</ele>
        <time>2020-08-25T09:02:41.000Z</time>
      </trkpt>
      <trkpt lat="44.36535" lon="3.41736">
        <ele>476.9</ele>
        <time>2020-08-25T09:02:42.000Z</time>
      </trkpt>
      <trkpt lat="44.36534" lon="3.4173">
        <ele>476.9</ele>
        <time>2020-08-25T09:02:43.000Z</time>
      </trkpt>
      <trkpt lat="44.36533" lon="3.41725">
        <ele>476.9</ele>
        <time>2020-08-25T09:02:44.000Z</time>
      </trkpt>
      <trkpt lat="44.36532" lon="3.41718">
        <ele>476.9</ele>
        <time>2020-08-25T09:02:45.000Z</time>
      </trkpt>
      <trkpt lat="44.36532" lon="3.41713">
        <ele>477</ele>
        <time>2020-08-25T09:02:47.000Z</time>
      </trkpt>
      <trkpt lat="44.36531" lon="3.41708">
        <ele>477</ele>
        <time>2020-08-25T09:02:48.000Z</time>
      </trkpt>
      <trkpt lat="44.3653" lon="3.41704">
        <ele>477.1</ele>
        <time>2020-08-25T09:02:49.000Z</time>
      </trkpt>
      <trkpt lat="44.36528" lon="3.417">
        <ele>477.2</ele>
        <time>2020-08-25T09:02:50.000Z</time>
      </trkpt>
      <trkpt lat="44.36527" lon="3.41696">
        <ele>477.3</ele>
        <time>2020-08-25T09:02:51.000Z</time>
      </trkpt>
      <trkpt lat="44.36526" lon="3.41692">
        <ele>477.4</ele>
        <time>2020-08-25T09:02:52.000Z</time>
      </trkpt>
      <trkpt lat="44.36525" lon="3.41688">
        <ele>477.5</ele>
        <time>2020-08-25T09:02:54.000Z</time>
      </trkpt>
      <trkpt lat="44.36524" lon="3.41684">
        <ele>477.5</ele>
        <time>2020-08-25T09:02:55.000Z</time>
      </trkpt>
      <trkpt lat="44.36523" lon="3.4168">
        <ele>477.7</ele>
        <time>2020-08-25T09:02:56.000Z</time>
      </trkpt>
      <trkpt lat="44.36521" lon="3.41676">
        <ele>477.8</ele>
        <time>2020-08-25T09:02:57.000Z</time>
      </trkpt>
      <trkpt lat="44.36521" lon="3.41674">
        <ele>477.8</ele>
        <time>2020-08-25T09:02:58.000Z</time>
      </trkpt>
      <trkpt lat="44.36521" lon="3.4167">
        <ele>477.9</ele>
        <time>2020-08-25T09:02:59.000Z</time>
      </trkpt>
      <trkpt lat="44.36521" lon="3.41667">
        <ele>478</ele>
        <time>2020-08-25T09:03:00.000Z</time>
      </trkpt>
      <trkpt lat="44.3652" lon="3.41662">
        <ele>478.2</ele>
        <time>2020-08-25T09:03:02.000Z</time>
      </trkpt>
      <trkpt lat="44.3652" lon="3.41657">
        <ele>478.4</ele>
        <time>2020-08-25T09:03:03.000Z</time>
      </trkpt>
      <trkpt lat="44.36519" lon="3.41652">
        <ele>478.6</ele>
        <time>2020-08-25T09:03:05.000Z</time>
      </trkpt>
      <trkpt lat="44.36519" lon="3.41647">
        <ele>478.7</ele>
        <time>2020-08-25T09:03:06.000Z</time>
      </trkpt>
      <trkpt lat="44.36518" lon="3.41641">
        <ele>478.9</ele>
        <time>2020-08-25T09:03:08.000Z</time>
      </trkpt>
      <trkpt lat="44.36518" lon="3.41639">
        <ele>478.9</ele>
        <time>2020-08-25T09:03:09.000Z</time>
      </trkpt>
      <trkpt lat="44.36517" lon="3.41636">
        <ele>479</ele>
        <time>2020-08-25T09:03:10.000Z</time>
      </trkpt>
      <trkpt lat="44.36517" lon="3.41629">
        <ele>479.1</ele>
        <time>2020-08-25T09:03:12.000Z</time>
      </trkpt>
      <trkpt lat="44.36516" lon="3.41625">
        <ele>479.1</ele>
        <time>2020-08-25T09:03:13.000Z</time>
      </trkpt>
      <trkpt lat="44.36516" lon="3.41621">
        <ele>479.1</ele>
        <time>2020-08-25T09:03:14.000Z</time>
      </trkpt>
      <trkpt lat="44.36515" lon="3.41617">
        <ele>479.2</ele>
        <time>2020-08-25T09:03:16.000Z</time>
      </trkpt>
      <trkpt lat="44.36514" lon="3.41613">
        <ele>479.2</ele>
        <time>2020-08-25T09:03:17.000Z</time>
      </trkpt>
      <trkpt lat="44.36514" lon="3.41608">
        <ele>479.3</ele>
        <time>2020-08-25T09:03:18.000Z</time>
      </trkpt>
      <trkpt lat="44.36514" lon="3.41605">
        <ele>479.3</ele>
        <time>2020-08-25T09:03:19.000Z</time>
      </trkpt>
      <trkpt lat="44.36514" lon="3.41601">
        <ele>479.4</ele>
        <time>2020-08-25T09:03:20.000Z</time>
      </trkpt>
      <trkpt lat="44.36515" lon="3.41597">
        <ele>479.5</ele>
        <time>2020-08-25T09:03:22.000Z</time>
      </trkpt>
      <trkpt lat="44.36515" lon="3.41592">
        <ele>479.6</ele>
        <time>2020-08-25T09:03:23.000Z</time>
      </trkpt>
      <trkpt lat="44.36515" lon="3.41588">
        <ele>479.7</ele>
        <time>2020-08-25T09:03:24.000Z</time>
      </trkpt>
      <trkpt lat="44.36516" lon="3.41584">
        <ele>479.9</ele>
        <time>2020-08-25T09:03:25.000Z</time>
      </trkpt>
      <trkpt lat="44.36516" lon="3.41578">
        <ele>480.1</ele>
        <time>2020-08-25T09:03:26.000Z</time>
      </trkpt>
      <trkpt lat="44.36516" lon="3.41577">
        <ele>480.2</ele>
        <time>2020-08-25T09:03:27.000Z</time>
      </trkpt>
      <trkpt lat="44.36515" lon="3.41571">
        <ele>480.5</ele>
        <time>2020-08-25T09:03:29.000Z</time>
      </trkpt>
      <trkpt lat="44.36515" lon="3.4157">
        <ele>480.5</ele>
        <time>2020-08-25T09:03:30.000Z</time>
      </trkpt>
      <trkpt lat="44.36515" lon="3.41568">
        <ele>480.6</ele>
        <time>2020-08-25T09:03:32.000Z</time>
      </trkpt>
      <trkpt lat="44.36514" lon="3.41567">
        <ele>480.7</ele>
        <time>2020-08-25T09:03:33.000Z</time>
      </trkpt>
      <trkpt lat="44.36514" lon="3.41565">
        <ele>481</ele>
        <time>2020-08-25T09:03:34.000Z</time>
      </trkpt>
      <trkpt lat="44.36514" lon="3.41562">
        <ele>481.1</ele>
        <time>2020-08-25T09:03:36.000Z</time>
      </trkpt>
      <trkpt lat="44.36513" lon="3.41558">
        <ele>481.3</ele>
        <time>2020-08-25T09:03:37.000Z</time>
      </trkpt>
      <trkpt lat="44.36513" lon="3.41556">
        <ele>481.4</ele>
        <time>2020-08-25T09:03:39.000Z</time>
      </trkpt>
      <trkpt lat="44.36512" lon="3.41555">
        <ele>481.5</ele>
        <time>2020-08-25T09:03:40.000Z</time>
      </trkpt>
      <trkpt lat="44.3651" lon="3.41553">
        <ele>481.7</ele>
        <time>2020-08-25T09:03:42.000Z</time>
      </trkpt>
      <trkpt lat="44.36509" lon="3.4155">
        <ele>481.9</ele>
        <time>2020-08-25T09:03:43.000Z</time>
      </trkpt>
      <trkpt lat="44.36509" lon="3.41547">
        <ele>482.1</ele>
        <time>2020-08-25T09:03:45.000Z</time>
      </trkpt>
      <trkpt lat="44.36508" lon="3.41545">
        <ele>482.2</ele>
        <time>2020-08-25T09:03:46.000Z</time>
      </trkpt>
      <trkpt lat="44.36508" lon="3.41545">
        <ele>482.2</ele>
        <time>2020-08-25T09:03:47.000Z</time>
      </trkpt>
      <trkpt lat="44.36508" lon="3.41543">
        <ele>482.3</ele>
        <time>2020-08-25T09:03:49.000Z</time>
      </trkpt>
      <trkpt lat="44.36508" lon="3.4154">
        <ele>482.5</ele>
        <time>2020-08-25T09:03:50.000Z</time>
      </trkpt>
      <trkpt lat="44.36508" lon="3.41538">
        <ele>482.6</ele>
        <time>2020-08-25T09:03:51.000Z</time>
      </trkpt>
      <trkpt lat="44.36509" lon="3.41537">
        <ele>482.8</ele>
        <time>2020-08-25T09:03:53.000Z</time>
      </trkpt>
      <trkpt lat="44.3651" lon="3.41536">
        <ele>482.9</ele>
        <time>2020-08-25T09:03:54.000Z</time>
      </trkpt>
      <trkpt lat="44.36511" lon="3.41534">
        <ele>483.1</ele>
        <time>2020-08-25T09:03:56.000Z</time>
      </trkpt>
      <trkpt lat="44.36512" lon="3.41533">
        <ele>483.2</ele>
        <time>2020-08-25T09:03:57.000Z</time>
      </trkpt>
      <trkpt lat="44.36513" lon="3.41531">
        <ele>483.3</ele>
        <time>2020-08-25T09:03:58.000Z</time>
      </trkpt>
      <trkpt lat="44.36513" lon="3.4153">
        <ele>483.4</ele>
        <time>2020-08-25T09:04:00.000Z</time>
      </trkpt>
      <trkpt lat="44.36513" lon="3.41529">
        <ele>483.5</ele>
        <time>2020-08-25T09:04:01.000Z</time>
      </trkpt>
      <trkpt lat="44.36513" lon="3.41528">
        <ele>483.6</ele>
        <time>2020-08-25T09:04:02.000Z</time>
      </trkpt>
      <trkpt lat="44.36512" lon="3.41525">
        <ele>483.7</ele>
        <time>2020-08-25T09:04:04.000Z</time>
      </trkpt>
      <trkpt lat="44.36512" lon="3.41524">
        <ele>483.8</ele>
        <time>2020-08-25T09:04:05.000Z</time>
      </trkpt>
      <trkpt lat="44.36512" lon="3.41523">
        <ele>483.9</ele>
        <time>2020-08-25T09:04:06.000Z</time>
      </trkpt>
      <trkpt lat="44.36512" lon="3.41521">
        <ele>483.9</ele>
        <time>2020-08-25T09:04:08.000Z</time>
      </trkpt>
      <trkpt lat="44.36512" lon="3.41521">
        <ele>484</ele>
        <time>2020-08-25T09:04:10.000Z</time>
      </trkpt>
      <trkpt lat="44.36513" lon="3.41519">
        <ele>484</ele>
        <time>2020-08-25T09:04:11.000Z</time>
      </trkpt>
      <trkpt lat="44.36513" lon="3.41518">
        <ele>484.1</ele>
        <time>2020-08-25T09:04:13.000Z</time>
      </trkpt>
      <trkpt lat="44.36513" lon="3.41516">
        <ele>484.1</ele>
        <time>2020-08-25T09:04:14.000Z</time>
      </trkpt>
      <trkpt lat="44.36513" lon="3.41515">
        <ele>484.2</ele>
        <time>2020-08-25T09:04:15.000Z</time>
      </trkpt>
      <trkpt lat="44.36514" lon="3.41514">
        <ele>484.2</ele>
        <time>2020-08-25T09:04:17.000Z</time>
      </trkpt>
      <trkpt lat="44.36514" lon="3.41513">
        <ele>484.3</ele>
        <time>2020-08-25T09:04:18.000Z</time>
      </trkpt>
      <trkpt lat="44.36514" lon="3.41511">
        <ele>484.3</ele>
        <time>2020-08-25T09:04:19.000Z</time>
      </trkpt>
      <trkpt lat="44.36514" lon="3.4151">
        <ele>484.3</ele>
        <time>2020-08-25T09:04:21.000Z</time>
      </trkpt>
      <trkpt lat="44.36514" lon="3.41508">
        <ele>484.3</ele>
        <time>2020-08-25T09:04:22.000Z</time>
      </trkpt>
      <trkpt lat="44.36514" lon="3.41506">
        <ele>484.3</ele>
        <time>2020-08-25T09:04:23.000Z</time>
      </trkpt>
      <trkpt lat="44.36514" lon="3.41505">
        <ele>484.3</ele>
        <time>2020-08-25T09:04:24.000Z</time>
      </trkpt>
      <trkpt lat="44.36515" lon="3.41503">
        <ele>484.3</ele>
        <time>2020-08-25T09:04:26.000Z</time>
      </trkpt>
      <trkpt lat="44.36515" lon="3.41501">
        <ele>484.3</ele>
        <time>2020-08-25T09:04:27.000Z</time>
      </trkpt>
      <trkpt lat="44.36515" lon="3.415">
        <ele>484.3</ele>
        <time>2020-08-25T09:04:28.000Z</time>
      </trkpt>
      <trkpt lat="44.36515" lon="3.41497">
        <ele>484.3</ele>
        <time>2020-08-25T09:04:30.000Z</time>
      </trkpt>
      <trkpt lat="44.36515" lon="3.41497">
        <ele>484.3</ele>
        <time>2020-08-25T09:04:32.000Z</time>
      </trkpt>
      <trkpt lat="44.36515" lon="3.41497">
        <ele>484.3</ele>
        <time>2020-08-25T09:04:34.000Z</time>
      </trkpt>
      <trkpt lat="44.36515" lon="3.41496">
        <ele>484.3</ele>
        <time>2020-08-25T09:04:35.000Z</time>
      </trkpt>
      <trkpt lat="44.36515" lon="3.41496">
        <ele>484.3</ele>
        <time>2020-08-25T09:04:36.000Z</time>
      </trkpt>
      <trkpt lat="44.36515" lon="3.41495">
        <ele>484.3</ele>
        <time>2020-08-25T09:04:38.000Z</time>
      </trkpt>
      <trkpt lat="44.36516" lon="3.41495">
        <ele>484.3</ele>
        <time>2020-08-25T09:04:40.000Z</time>
      </trkpt>
      <trkpt lat="44.36516" lon="3.41495">
        <ele>484.3</ele>
        <time>2020-08-25T09:04:41.000Z</time>
      </trkpt>
      <trkpt lat="44.36516" lon="3.41495">
        <ele>484.3</ele>
        <time>2020-08-25T09:04:42.000Z</time>
      </trkpt>
      <trkpt lat="44.36517" lon="3.41495">
        <ele>484.3</ele>
        <time>2020-08-25T09:04:43.000Z</time>
      </trkpt>
      <trkpt lat="44.36517" lon="3.41494">
        <ele>484.3</ele>
        <time>2020-08-25T09:04:45.000Z</time>
      </trkpt>
      <trkpt lat="44.36517" lon="3.41494">
        <ele>484.3</ele>
        <time>2020-08-25T09:04:46.000Z</time>
      </trkpt>
      <trkpt lat="44.36517" lon="3.41494">
        <ele>484.3</ele>
        <time>2020-08-25T09:04:47.000Z</time>
      </trkpt>
      <trkpt lat="44.36517" lon="3.41494">
        <ele>484.2</ele>
        <time>2020-08-25T09:04:49.000Z</time>
      </trkpt>
      <trkpt lat="44.36517" lon="3.41494">
        <ele>484.2</ele>
        <time>2020-08-25T09:04:50.000Z</time>
      </trkpt>
      <trkpt lat="44.36517" lon="3.41494">
        <ele>484.2</ele>
        <time>2020-08-25T09:04:52.000Z</time>
      </trkpt>
      <trkpt lat="44.36517" lon="3.41494">
        <ele>484.2</ele>
        <time>2020-08-25T09:04:54.000Z</time>
      </trkpt>
      <trkpt lat="44.36517" lon="3.41494">
        <ele>484.2</ele>
        <time>2020-08-25T09:04:56.000Z</time>
      </trkpt>
      <trkpt lat="44.36514" lon="3.41492">
        <ele>484.2</ele>
        <time>2020-08-25T09:06:26.000Z</time>
      </trkpt>
      <trkpt lat="44.36513" lon="3.41492">
        <ele>484.1</ele>
        <time>2020-08-25T09:06:27.000Z</time>
      </trkpt>
      <trkpt lat="44.36512" lon="3.41491">
        <ele>484.1</ele>
        <time>2020-08-25T09:06:29.000Z</time>
      </trkpt>
      <trkpt lat="44.36509" lon="3.41491">
        <ele>484</ele>
        <time>2020-08-25T09:06:30.000Z</time>
      </trkpt>
      <trkpt lat="44.36506" lon="3.4149">
        <ele>484</ele>
        <time>2020-08-25T09:06:32.000Z</time>
      </trkpt>
      <trkpt lat="44.36505" lon="3.41489">
        <ele>483.9</ele>
        <time>2020-08-25T09:06:33.000Z</time>
      </trkpt>
      <trkpt lat="44.36502" lon="3.41487">
        <ele>483.9</ele>
        <time>2020-08-25T09:06:34.000Z</time>
      </trkpt>
      <trkpt lat="44.36499" lon="3.41484">
        <ele>483.8</ele>
        <time>2020-08-25T09:06:36.000Z</time>
      </trkpt>
      <trkpt lat="44.365" lon="3.41479">
        <ele>483.7</ele>
        <time>2020-08-25T09:06:37.000Z</time>
      </trkpt>
      <trkpt lat="44.365" lon="3.41478">
        <ele>483.7</ele>
        <time>2020-08-25T09:06:38.000Z</time>
      </trkpt>
      <trkpt lat="44.36501" lon="3.41473">
        <ele>483.7</ele>
        <time>2020-08-25T09:06:40.000Z</time>
      </trkpt>
      <trkpt lat="44.36501" lon="3.41469">
        <ele>483.7</ele>
        <time>2020-08-25T09:06:41.000Z</time>
      </trkpt>
      <trkpt lat="44.36502" lon="3.41463">
        <ele>483.7</ele>
        <time>2020-08-25T09:06:42.000Z</time>
      </trkpt>
      <trkpt lat="44.36502" lon="3.41462">
        <ele>483.7</ele>
        <time>2020-08-25T09:06:43.000Z</time>
      </trkpt>
      <trkpt lat="44.36502" lon="3.41458">
        <ele>483.7</ele>
        <time>2020-08-25T09:06:44.000Z</time>
      </trkpt>
      <trkpt lat="44.36502" lon="3.41453">
        <ele>483.7</ele>
        <time>2020-08-25T09:06:46.000Z</time>
      </trkpt>
      <trkpt lat="44.365" lon="3.41449">
        <ele>483.8</ele>
        <time>2020-08-25T09:06:47.000Z</time>
      </trkpt>
      <trkpt lat="44.365" lon="3.41448">
        <ele>483.8</ele>
        <time>2020-08-25T09:06:48.000Z</time>
      </trkpt>
      <trkpt lat="44.36498" lon="3.41444">
        <ele>483.9</ele>
        <time>2020-08-25T09:06:49.000Z</time>
      </trkpt>
      <trkpt lat="44.36497" lon="3.41442">
        <ele>484</ele>
        <time>2020-08-25T09:06:50.000Z</time>
      </trkpt>
      <trkpt lat="44.36497" lon="3.41438">
        <ele>484.1</ele>
        <time>2020-08-25T09:06:52.000Z</time>
      </trkpt>
      <trkpt lat="44.36496" lon="3.41436">
        <ele>484.1</ele>
        <time>2020-08-25T09:06:53.000Z</time>
      </trkpt>
      <trkpt lat="44.36496" lon="3.41434">
        <ele>484.2</ele>
        <time>2020-08-25T09:06:54.000Z</time>
      </trkpt>
      <trkpt lat="44.36495" lon="3.41431">
        <ele>484.2</ele>
        <time>2020-08-25T09:06:56.000Z</time>
      </trkpt>
      <trkpt lat="44.36494" lon="3.4143">
        <ele>484.2</ele>
        <time>2020-08-25T09:06:57.000Z</time>
      </trkpt>
      <trkpt lat="44.36493" lon="3.41428">
        <ele>484.3</ele>
        <time>2020-08-25T09:06:58.000Z</time>
      </trkpt>
      <trkpt lat="44.36492" lon="3.41426">
        <ele>484.3</ele>
        <time>2020-08-25T09:06:59.000Z</time>
      </trkpt>
      <trkpt lat="44.36491" lon="3.41424">
        <ele>484.3</ele>
        <time>2020-08-25T09:07:00.000Z</time>
      </trkpt>
      <trkpt lat="44.3649" lon="3.4142">
        <ele>484.2</ele>
        <time>2020-08-25T09:07:02.000Z</time>
      </trkpt>
      <trkpt lat="44.36489" lon="3.41419">
        <ele>484.2</ele>
        <time>2020-08-25T09:07:03.000Z</time>
      </trkpt>
      <trkpt lat="44.36487" lon="3.41416">
        <ele>484.1</ele>
        <time>2020-08-25T09:07:04.000Z</time>
      </trkpt>
      <trkpt lat="44.36486" lon="3.41414">
        <ele>484.1</ele>
        <time>2020-08-25T09:07:05.000Z</time>
      </trkpt>
      <trkpt lat="44.36485" lon="3.41412">
        <ele>484</ele>
        <time>2020-08-25T09:07:06.000Z</time>
      </trkpt>
      <trkpt lat="44.36482" lon="3.41408">
        <ele>483.9</ele>
        <time>2020-08-25T09:07:08.000Z</time>
      </trkpt>
      <trkpt lat="44.3648" lon="3.41407">
        <ele>483.8</ele>
        <time>2020-08-25T09:07:09.000Z</time>
      </trkpt>
      <trkpt lat="44.36477" lon="3.41405">
        <ele>483.7</ele>
        <time>2020-08-25T09:07:11.000Z</time>
      </trkpt>
      <trkpt lat="44.36474" lon="3.41403">
        <ele>483.6</ele>
        <time>2020-08-25T09:07:12.000Z</time>
      </trkpt>
      <trkpt lat="44.36471" lon="3.414">
        <ele>483.5</ele>
        <time>2020-08-25T09:07:13.000Z</time>
      </trkpt>
      <trkpt lat="44.36468" lon="3.41394">
        <ele>483.4</ele>
        <time>2020-08-25T09:07:15.000Z</time>
      </trkpt>
      <trkpt lat="44.36467" lon="3.41393">
        <ele>483.4</ele>
        <time>2020-08-25T09:07:16.000Z</time>
      </trkpt>
      <trkpt lat="44.36466" lon="3.41391">
        <ele>483.5</ele>
        <time>2020-08-25T09:07:17.000Z</time>
      </trkpt>
      <trkpt lat="44.36463" lon="3.4139">
        <ele>483.5</ele>
        <time>2020-08-25T09:07:19.000Z</time>
      </trkpt>
      <trkpt lat="44.36463" lon="3.41389">
        <ele>483.5</ele>
        <time>2020-08-25T09:07:20.000Z</time>
      </trkpt>
      <trkpt lat="44.36461" lon="3.41386">
        <ele>483.6</ele>
        <time>2020-08-25T09:07:21.000Z</time>
      </trkpt>
      <trkpt lat="44.3646" lon="3.41383">
        <ele>483.7</ele>
        <time>2020-08-25T09:07:23.000Z</time>
      </trkpt>
      <trkpt lat="44.3646" lon="3.41381">
        <ele>483.8</ele>
        <time>2020-08-25T09:07:24.000Z</time>
      </trkpt>
      <trkpt lat="44.3646" lon="3.4138">
        <ele>483.8</ele>
        <time>2020-08-25T09:07:26.000Z</time>
      </trkpt>
      <trkpt lat="44.36459" lon="3.4138">
        <ele>483.9</ele>
        <time>2020-08-25T09:07:28.000Z</time>
      </trkpt>
      <trkpt lat="44.36459" lon="3.41379">
        <ele>483.9</ele>
        <time>2020-08-25T09:07:29.000Z</time>
      </trkpt>
      <trkpt lat="44.36459" lon="3.41378">
        <ele>483.9</ele>
        <time>2020-08-25T09:07:30.000Z</time>
      </trkpt>
      <trkpt lat="44.36457" lon="3.41376">
        <ele>484.1</ele>
        <time>2020-08-25T09:07:32.000Z</time>
      </trkpt>
      <trkpt lat="44.36456" lon="3.41375">
        <ele>484.2</ele>
        <time>2020-08-25T09:07:33.000Z</time>
      </trkpt>
      <trkpt lat="44.36455" lon="3.41372">
        <ele>484.4</ele>
        <time>2020-08-25T09:07:35.000Z</time>
      </trkpt>
      <trkpt lat="44.36454" lon="3.41371">
        <ele>484.5</ele>
        <time>2020-08-25T09:07:36.000Z</time>
      </trkpt>
      <trkpt lat="44.36454" lon="3.4137">
        <ele>484.5</ele>
        <time>2020-08-25T09:07:37.000Z</time>
      </trkpt>
      <trkpt lat="44.36454" lon="3.41369">
        <ele>484.6</ele>
        <time>2020-08-25T09:07:39.000Z</time>
      </trkpt>
      <trkpt lat="44.36454" lon="3.41368">
        <ele>484.7</ele>
        <time>2020-08-25T09:07:40.000Z</time>
      </trkpt>
      <trkpt lat="44.36453" lon="3.41366">
        <ele>484.8</ele>
        <time>2020-08-25T09:07:42.000Z</time>
      </trkpt>
      <trkpt lat="44.36453" lon="3.41365">
        <ele>484.9</ele>
        <time>2020-08-25T09:07:43.000Z</time>
      </trkpt>
      <trkpt lat="44.36453" lon="3.41364">
        <ele>485</ele>
        <time>2020-08-25T09:07:44.000Z</time>
      </trkpt>
      <trkpt lat="44.36452" lon="3.41362">
        <ele>485.2</ele>
        <time>2020-08-25T09:07:46.000Z</time>
      </trkpt>
      <trkpt lat="44.36451" lon="3.41362">
        <ele>485.3</ele>
        <time>2020-08-25T09:07:47.000Z</time>
      </trkpt>
      <trkpt lat="44.3645" lon="3.41361">
        <ele>485.4</ele>
        <time>2020-08-25T09:07:49.000Z</time>
      </trkpt>
      <trkpt lat="44.3645" lon="3.41361">
        <ele>485.5</ele>
        <time>2020-08-25T09:07:50.000Z</time>
      </trkpt>
      <trkpt lat="44.36448" lon="3.41362">
        <ele>485.7</ele>
        <time>2020-08-25T09:07:51.000Z</time>
      </trkpt>
      <trkpt lat="44.36448" lon="3.41363">
        <ele>485.8</ele>
        <time>2020-08-25T09:07:52.000Z</time>
      </trkpt>
      <trkpt lat="44.36448" lon="3.41365">
        <ele>485.9</ele>
        <time>2020-08-25T09:07:53.000Z</time>
      </trkpt>
      <trkpt lat="44.36447" lon="3.41366">
        <ele>486</ele>
        <time>2020-08-25T09:07:55.000Z</time>
      </trkpt>
      <trkpt lat="44.36447" lon="3.41367">
        <ele>486.2</ele>
        <time>2020-08-25T09:07:56.000Z</time>
      </trkpt>
      <trkpt lat="44.36447" lon="3.41369">
        <ele>486.4</ele>
        <time>2020-08-25T09:07:58.000Z</time>
      </trkpt>
      <trkpt lat="44.36447" lon="3.41369">
        <ele>486.4</ele>
        <time>2020-08-25T09:07:59.000Z</time>
      </trkpt>
      <trkpt lat="44.36447" lon="3.41369">
        <ele>486.4</ele>
        <time>2020-08-25T09:08:00.000Z</time>
      </trkpt>
      <trkpt lat="44.36447" lon="3.4137">
        <ele>486.5</ele>
        <time>2020-08-25T09:08:02.000Z</time>
      </trkpt>
      <trkpt lat="44.36447" lon="3.4137">
        <ele>486.6</ele>
        <time>2020-08-25T09:08:04.000Z</time>
      </trkpt>
      <trkpt lat="44.36446" lon="3.4137">
        <ele>486.6</ele>
        <time>2020-08-25T09:08:06.000Z</time>
      </trkpt>
      <trkpt lat="44.36446" lon="3.4137">
        <ele>486.7</ele>
        <time>2020-08-25T09:08:07.000Z</time>
      </trkpt>
      <trkpt lat="44.36446" lon="3.41369">
        <ele>486.8</ele>
        <time>2020-08-25T09:08:08.000Z</time>
      </trkpt>
      <trkpt lat="44.36445" lon="3.41369">
        <ele>486.9</ele>
        <time>2020-08-25T09:08:09.000Z</time>
      </trkpt>
      <trkpt lat="44.36444" lon="3.41367">
        <ele>487.1</ele>
        <time>2020-08-25T09:08:11.000Z</time>
      </trkpt>
      <trkpt lat="44.36444" lon="3.41367">
        <ele>487.1</ele>
        <time>2020-08-25T09:08:13.000Z</time>
      </trkpt>
      <trkpt lat="44.36443" lon="3.41367">
        <ele>487.2</ele>
        <time>2020-08-25T09:08:14.000Z</time>
      </trkpt>
      <trkpt lat="44.36443" lon="3.41366">
        <ele>487.3</ele>
        <time>2020-08-25T09:08:16.000Z</time>
      </trkpt>
      <trkpt lat="44.36442" lon="3.41365">
        <ele>487.5</ele>
        <time>2020-08-25T09:08:17.000Z</time>
      </trkpt>
      <trkpt lat="44.36442" lon="3.41364">
        <ele>487.6</ele>
        <time>2020-08-25T09:08:18.000Z</time>
      </trkpt>
      <trkpt lat="44.36442" lon="3.41363">
        <ele>487.7</ele>
        <time>2020-08-25T09:08:20.000Z</time>
      </trkpt>
      <trkpt lat="44.36442" lon="3.41361">
        <ele>487.9</ele>
        <time>2020-08-25T09:08:21.000Z</time>
      </trkpt>
      <trkpt lat="44.36442" lon="3.4136">
        <ele>488</ele>
        <time>2020-08-25T09:08:22.000Z</time>
      </trkpt>
      <trkpt lat="44.36442" lon="3.41359">
        <ele>488.1</ele>
        <time>2020-08-25T09:08:23.000Z</time>
      </trkpt>
      <trkpt lat="44.36442" lon="3.41358">
        <ele>488.2</ele>
        <time>2020-08-25T09:08:24.000Z</time>
      </trkpt>
      <trkpt lat="44.36442" lon="3.41358">
        <ele>488.2</ele>
        <time>2020-08-25T09:08:25.000Z</time>
      </trkpt>
      <trkpt lat="44.36442" lon="3.41358">
        <ele>488.3</ele>
        <time>2020-08-25T09:08:26.000Z</time>
      </trkpt>
      <trkpt lat="44.36442" lon="3.41358">
        <ele>488.3</ele>
        <time>2020-08-25T09:08:28.000Z</time>
      </trkpt>
      <trkpt lat="44.36442" lon="3.41359">
        <ele>488.3</ele>
        <time>2020-08-25T09:08:29.000Z</time>
      </trkpt>
      <trkpt lat="44.36442" lon="3.41358">
        <ele>488.3</ele>
        <time>2020-08-25T09:08:31.000Z</time>
      </trkpt>
      <trkpt lat="44.36442" lon="3.41358">
        <ele>488.4</ele>
        <time>2020-08-25T09:08:32.000Z</time>
      </trkpt>
      <trkpt lat="44.36442" lon="3.41357">
        <ele>488.5</ele>
        <time>2020-08-25T09:08:33.000Z</time>
      </trkpt>
      <trkpt lat="44.36443" lon="3.41355">
        <ele>488.9</ele>
        <time>2020-08-25T09:08:35.000Z</time>
      </trkpt>
      <trkpt lat="44.36444" lon="3.41354">
        <ele>488.9</ele>
        <time>2020-08-25T09:08:36.000Z</time>
      </trkpt>
      <trkpt lat="44.36444" lon="3.41353">
        <ele>488.9</ele>
        <time>2020-08-25T09:08:38.000Z</time>
      </trkpt>
      <trkpt lat="44.36445" lon="3.41351">
        <ele>488.9</ele>
        <time>2020-08-25T09:08:40.000Z</time>
      </trkpt>
      <trkpt lat="44.36445" lon="3.4135">
        <ele>488.9</ele>
        <time>2020-08-25T09:08:42.000Z</time>
      </trkpt>
      <trkpt lat="44.36446" lon="3.41347">
        <ele>488.9</ele>
        <time>2020-08-25T09:08:43.000Z</time>
      </trkpt>
      <trkpt lat="44.36448" lon="3.41342">
        <ele>488.8</ele>
        <time>2020-08-25T09:08:45.000Z</time>
      </trkpt>
      <trkpt lat="44.36449" lon="3.41338">
        <ele>488.8</ele>
        <time>2020-08-25T09:08:46.000Z</time>
      </trkpt>
      <trkpt lat="44.36451" lon="3.4133">
        <ele>488.7</ele>
        <time>2020-08-25T09:08:48.000Z</time>
      </trkpt>
      <trkpt lat="44.36453" lon="3.41323">
        <ele>488.6</ele>
        <time>2020-08-25T09:08:50.000Z</time>
      </trkpt>
      <trkpt lat="44.36455" lon="3.41316">
        <ele>488.5</ele>
        <time>2020-08-25T09:08:51.000Z</time>
      </trkpt>
      <trkpt lat="44.36456" lon="3.41311">
        <ele>488.4</ele>
        <time>2020-08-25T09:08:52.000Z</time>
      </trkpt>
      <trkpt lat="44.36457" lon="3.41303">
        <ele>488.2</ele>
        <time>2020-08-25T09:08:54.000Z</time>
      </trkpt>
      <trkpt lat="44.36457" lon="3.41293">
        <ele>488</ele>
        <time>2020-08-25T09:08:56.000Z</time>
      </trkpt>
      <trkpt lat="44.36457" lon="3.41281">
        <ele>487.7</ele>
        <time>2020-08-25T09:08:58.000Z</time>
      </trkpt>
      <trkpt lat="44.36458" lon="3.41271">
        <ele>487.4</ele>
        <time>2020-08-25T09:09:00.000Z</time>
      </trkpt>
      <trkpt lat="44.36462" lon="3.41251">
        <ele>486.7</ele>
        <time>2020-08-25T09:09:02.000Z</time>
      </trkpt>
      <trkpt lat="44.36464" lon="3.41244">
        <ele>486.3</ele>
        <time>2020-08-25T09:09:04.000Z</time>
      </trkpt>
      <trkpt lat="44.36467" lon="3.41238">
        <ele>486</ele>
        <time>2020-08-25T09:09:05.000Z</time>
      </trkpt>
      <trkpt lat="44.36469" lon="3.41234">
        <ele>485.7</ele>
        <time>2020-08-25T09:09:06.000Z</time>
      </trkpt>
      <trkpt lat="44.36471" lon="3.4123">
        <ele>485.5</ele>
        <time>2020-08-25T09:09:07.000Z</time>
      </trkpt>
      <trkpt lat="44.36472" lon="3.41226">
        <ele>485.3</ele>
        <time>2020-08-25T09:09:09.000Z</time>
      </trkpt>
      <trkpt lat="44.36472" lon="3.41226">
        <ele>485.3</ele>
        <time>2020-08-25T09:09:11.000Z</time>
      </trkpt>
      <trkpt lat="44.36472" lon="3.41226">
        <ele>485.3</ele>
        <time>2020-08-25T09:09:12.000Z</time>
      </trkpt>
      <trkpt lat="44.36472" lon="3.41226">
        <ele>485.3</ele>
        <time>2020-08-25T09:09:14.000Z</time>
      </trkpt>
      <trkpt lat="44.36472" lon="3.41226">
        <ele>485.3</ele>
        <time>2020-08-25T09:09:16.000Z</time>
      </trkpt>
      <trkpt lat="44.36472" lon="3.41226">
        <ele>485.2</ele>
        <time>2020-08-25T09:09:17.000Z</time>
      </trkpt>
      <trkpt lat="44.36472" lon="3.41226">
        <ele>485.2</ele>
        <time>2020-08-25T09:09:19.000Z</time>
      </trkpt>
      <trkpt lat="44.36472" lon="3.41226">
        <ele>485.2</ele>
        <time>2020-08-25T09:09:19.000Z</time>
      </trkpt>
      <trkpt lat="44.36472" lon="3.41224">
        <ele>485.1</ele>
        <time>2020-08-25T09:09:21.000Z</time>
      </trkpt>
      <trkpt lat="44.36473" lon="3.41224">
        <ele>485</ele>
        <time>2020-08-25T09:09:23.000Z</time>
      </trkpt>
      <trkpt lat="44.36473" lon="3.41223">
        <ele>485</ele>
        <time>2020-08-25T09:09:24.000Z</time>
      </trkpt>
      <trkpt lat="44.36474" lon="3.41222">
        <ele>484.9</ele>
        <time>2020-08-25T09:09:26.000Z</time>
      </trkpt>
      <trkpt lat="44.36474" lon="3.41221">
        <ele>484.9</ele>
        <time>2020-08-25T09:09:28.000Z</time>
      </trkpt>
      <trkpt lat="44.36474" lon="3.41221">
        <ele>484.9</ele>
        <time>2020-08-25T09:09:29.000Z</time>
      </trkpt>
      <trkpt lat="44.36473" lon="3.41222">
        <ele>484.8</ele>
        <time>2020-08-25T09:09:30.000Z</time>
      </trkpt>
      <trkpt lat="44.36472" lon="3.41223">
        <ele>484.7</ele>
        <time>2020-08-25T09:09:32.000Z</time>
      </trkpt>
      <trkpt lat="44.36471" lon="3.4122">
        <ele>484.5</ele>
        <time>2020-08-25T09:09:48.000Z</time>
      </trkpt>
      <trkpt lat="44.36469" lon="3.41219">
        <ele>484.2</ele>
        <time>2020-08-25T09:09:50.000Z</time>
      </trkpt>
      <trkpt lat="44.36467" lon="3.41216">
        <ele>484</ele>
        <time>2020-08-25T09:09:51.000Z</time>
      </trkpt>
      <trkpt lat="44.36465" lon="3.41212">
        <ele>483.8</ele>
        <time>2020-08-25T09:09:52.000Z</time>
      </trkpt>
      <trkpt lat="44.3646" lon="3.41209">
        <ele>483.4</ele>
        <time>2020-08-25T09:09:54.000Z</time>
      </trkpt>
      <trkpt lat="44.36446" lon="3.41189">
        <ele>482.2</ele>
        <time>2020-08-25T09:09:56.000Z</time>
      </trkpt>
      <trkpt lat="44.36442" lon="3.4118">
        <ele>481.4</ele>
        <time>2020-08-25T09:09:57.000Z</time>
      </trkpt>
      <trkpt lat="44.36439" lon="3.41161">
        <ele>480.7</ele>
        <time>2020-08-25T09:09:59.000Z</time>
      </trkpt>
      <trkpt lat="44.36438" lon="3.41152">
        <ele>480.6</ele>
        <time>2020-08-25T09:10:00.000Z</time>
      </trkpt>
      <trkpt lat="44.36436" lon="3.41135">
        <ele>480.4</ele>
        <time>2020-08-25T09:10:02.000Z</time>
      </trkpt>
      <trkpt lat="44.36433" lon="3.41119">
        <ele>480.2</ele>
        <time>2020-08-25T09:10:04.000Z</time>
      </trkpt>
      <trkpt lat="44.36431" lon="3.41103">
        <ele>480.3</ele>
        <time>2020-08-25T09:10:06.000Z</time>
      </trkpt>
      <trkpt lat="44.3643" lon="3.41088">
        <ele>480.5</ele>
        <time>2020-08-25T09:10:08.000Z</time>
      </trkpt>
      <trkpt lat="44.3643" lon="3.4108">
        <ele>480.6</ele>
        <time>2020-08-25T09:10:09.000Z</time>
      </trkpt>
      <trkpt lat="44.36431" lon="3.41066">
        <ele>480.8</ele>
        <time>2020-08-25T09:10:11.000Z</time>
      </trkpt>
      <trkpt lat="44.36433" lon="3.4106">
        <ele>480.9</ele>
        <time>2020-08-25T09:10:12.000Z</time>
      </trkpt>
      <trkpt lat="44.36435" lon="3.41057">
        <ele>480.9</ele>
        <time>2020-08-25T09:10:13.000Z</time>
      </trkpt>
      <trkpt lat="44.36441" lon="3.41052">
        <ele>481.1</ele>
        <time>2020-08-25T09:10:15.000Z</time>
      </trkpt>
      <trkpt lat="44.36447" lon="3.41051">
        <ele>481.1</ele>
        <time>2020-08-25T09:10:17.000Z</time>
      </trkpt>
      <trkpt lat="44.36449" lon="3.41051">
        <ele>481.2</ele>
        <time>2020-08-25T09:10:18.000Z</time>
      </trkpt>
      <trkpt lat="44.3645" lon="3.41056">
        <ele>481.2</ele>
        <time>2020-08-25T09:10:20.000Z</time>
      </trkpt>
      <trkpt lat="44.36451" lon="3.41057">
        <ele>481.2</ele>
        <time>2020-08-25T09:10:21.000Z</time>
      </trkpt>
      <trkpt lat="44.36454" lon="3.41055">
        <ele>481.3</ele>
        <time>2020-08-25T09:10:23.000Z</time>
      </trkpt>
      <trkpt lat="44.36456" lon="3.41053">
        <ele>481.3</ele>
        <time>2020-08-25T09:10:24.000Z</time>
      </trkpt>
      <trkpt lat="44.36458" lon="3.41051">
        <ele>481.3</ele>
        <time>2020-08-25T09:10:25.000Z</time>
      </trkpt>
      <trkpt lat="44.36462" lon="3.4105">
        <ele>481.4</ele>
        <time>2020-08-25T09:10:27.000Z</time>
      </trkpt>
      <trkpt lat="44.36464" lon="3.41049">
        <ele>481.5</ele>
        <time>2020-08-25T09:10:28.000Z</time>
      </trkpt>
      <trkpt lat="44.36469" lon="3.41047">
        <ele>481.7</ele>
        <time>2020-08-25T09:10:30.000Z</time>
      </trkpt>
      <trkpt lat="44.36472" lon="3.41046">
        <ele>481.8</ele>
        <time>2020-08-25T09:10:31.000Z</time>
      </trkpt>
      <trkpt lat="44.36477" lon="3.41045">
        <ele>481.9</ele>
        <time>2020-08-25T09:10:33.000Z</time>
      </trkpt>
      <trkpt lat="44.36483" lon="3.41044">
        <ele>482.1</ele>
        <time>2020-08-25T09:10:35.000Z</time>
      </trkpt>
      <trkpt lat="44.36486" lon="3.41044">
        <ele>482.2</ele>
        <time>2020-08-25T09:10:36.000Z</time>
      </trkpt>
      <trkpt lat="44.36494" lon="3.41042">
        <ele>482.3</ele>
        <time>2020-08-25T09:10:37.000Z</time>
      </trkpt>
      <trkpt lat="44.36502" lon="3.4104">
        <ele>482.5</ele>
        <time>2020-08-25T09:10:38.000Z</time>
      </trkpt>
      <trkpt lat="44.36511" lon="3.41037">
        <ele>482.5</ele>
        <time>2020-08-25T09:10:40.000Z</time>
      </trkpt>
      <trkpt lat="44.36516" lon="3.41036">
        <ele>482.5</ele>
        <time>2020-08-25T09:10:41.000Z</time>
      </trkpt>
      <trkpt lat="44.36526" lon="3.41034">
        <ele>482.3</ele>
        <time>2020-08-25T09:10:43.000Z</time>
      </trkpt>
      <trkpt lat="44.36535" lon="3.41032">
        <ele>482.1</ele>
        <time>2020-08-25T09:10:45.000Z</time>
      </trkpt>
      <trkpt lat="44.36538" lon="3.41032">
        <ele>482</ele>
        <time>2020-08-25T09:10:46.000Z</time>
      </trkpt>
      <trkpt lat="44.36544" lon="3.4103">
        <ele>481.9</ele>
        <time>2020-08-25T09:10:48.000Z</time>
      </trkpt>
      <trkpt lat="44.36546" lon="3.41029">
        <ele>481.8</ele>
        <time>2020-08-25T09:10:49.000Z</time>
      </trkpt>
      <trkpt lat="44.3655" lon="3.41029">
        <ele>481.5</ele>
        <time>2020-08-25T09:10:51.000Z</time>
      </trkpt>
      <trkpt lat="44.36551" lon="3.41028">
        <ele>481.5</ele>
        <time>2020-08-25T09:10:53.000Z</time>
      </trkpt>
      <trkpt lat="44.36551" lon="3.41028">
        <ele>481.5</ele>
        <time>2020-08-25T09:10:54.000Z</time>
      </trkpt>
      <trkpt lat="44.3655" lon="3.41028">
        <ele>481.5</ele>
        <time>2020-08-25T09:10:56.000Z</time>
      </trkpt>
      <trkpt lat="44.36552" lon="3.41031">
        <ele>481.5</ele>
        <time>2020-08-25T09:10:58.000Z</time>
      </trkpt>
      <trkpt lat="44.36556" lon="3.4104">
        <ele>481.1</ele>
        <time>2020-08-25T09:11:00.000Z</time>
      </trkpt>
      <trkpt lat="44.36558" lon="3.41046">
        <ele>480.7</ele>
        <time>2020-08-25T09:11:01.000Z</time>
      </trkpt>
      <trkpt lat="44.3656" lon="3.41054">
        <ele>480.3</ele>
        <time>2020-08-25T09:11:03.000Z</time>
      </trkpt>
      <trkpt lat="44.36558" lon="3.41062">
        <ele>479.4</ele>
        <time>2020-08-25T09:11:05.000Z</time>
      </trkpt>
      <trkpt lat="44.36554" lon="3.4107">
        <ele>478.8</ele>
        <time>2020-08-25T09:11:08.000Z</time>
      </trkpt>
      <trkpt lat="44.3655" lon="3.41078">
        <ele>478.2</ele>
        <time>2020-08-25T09:11:09.000Z</time>
      </trkpt>
      <trkpt lat="44.36548" lon="3.41082">
        <ele>478.2</ele>
        <time>2020-08-25T09:11:11.000Z</time>
      </trkpt>
      <trkpt lat="44.36547" lon="3.41082">
        <ele>478.2</ele>
        <time>2020-08-25T09:11:12.000Z</time>
      </trkpt>
      <trkpt lat="44.36548" lon="3.41081">
        <ele>478.2</ele>
        <time>2020-08-25T09:11:14.000Z</time>
      </trkpt>
      <trkpt lat="44.36547" lon="3.41082">
        <ele>478.2</ele>
        <time>2020-08-25T09:11:15.000Z</time>
      </trkpt>
      <trkpt lat="44.36546" lon="3.4108">
        <ele>478.2</ele>
        <time>2020-08-25T09:11:17.000Z</time>
      </trkpt>
      <trkpt lat="44.36546" lon="3.4108">
        <ele>478.2</ele>
        <time>2020-08-25T09:11:18.000Z</time>
      </trkpt>
      <trkpt lat="44.36547" lon="3.41079">
        <ele>478.2</ele>
        <time>2020-08-25T09:11:19.000Z</time>
      </trkpt>
      <trkpt lat="44.36547" lon="3.41079">
        <ele>478.2</ele>
        <time>2020-08-25T09:11:20.000Z</time>
      </trkpt>
      <trkpt lat="44.36547" lon="3.41079">
        <ele>478.2</ele>
        <time>2020-08-25T09:11:21.000Z</time>
      </trkpt>
      <trkpt lat="44.36547" lon="3.41079">
        <ele>478.2</ele>
        <time>2020-08-25T09:11:22.000Z</time>
      </trkpt>
      <trkpt lat="44.36547" lon="3.41079">
        <ele>478.2</ele>
        <time>2020-08-25T09:11:24.000Z</time>
      </trkpt>
      <trkpt lat="44.36547" lon="3.41079">
        <ele>478.2</ele>
        <time>2020-08-25T09:11:26.000Z</time>
      </trkpt>
      <trkpt lat="44.36545" lon="3.41085">
        <ele>478.2</ele>
        <time>2020-08-25T09:13:19.000Z</time>
      </trkpt>
      <trkpt lat="44.36546" lon="3.41085">
        <ele>478.2</ele>
        <time>2020-08-25T09:13:20.000Z</time>
      </trkpt>
      <trkpt lat="44.36547" lon="3.41082">
        <ele>478.2</ele>
        <time>2020-08-25T09:13:21.000Z</time>
      </trkpt>
      <trkpt lat="44.36549" lon="3.4108">
        <ele>478.2</ele>
        <time>2020-08-25T09:13:23.000Z</time>
      </trkpt>
      <trkpt lat="44.36551" lon="3.41079">
        <ele>478.2</ele>
        <time>2020-08-25T09:13:25.000Z</time>
      </trkpt>
      <trkpt lat="44.36553" lon="3.41077">
        <ele>478.2</ele>
        <time>2020-08-25T09:13:26.000Z</time>
      </trkpt>
      <trkpt lat="44.36556" lon="3.41076">
        <ele>480.3</ele>
        <time>2020-08-25T09:13:28.000Z</time>
      </trkpt>
      <trkpt lat="44.36559" lon="3.41074">
        <ele>480.5</ele>
        <time>2020-08-25T09:13:30.000Z</time>
      </trkpt>
      <trkpt lat="44.3656" lon="3.41074">
        <ele>480.6</ele>
        <time>2020-08-25T09:13:31.000Z</time>
      </trkpt>
      <trkpt lat="44.36563" lon="3.41072">
        <ele>480.8</ele>
        <time>2020-08-25T09:13:32.000Z</time>
      </trkpt>
      <trkpt lat="44.36566" lon="3.41072">
        <ele>481</ele>
        <time>2020-08-25T09:13:34.000Z</time>
      </trkpt>
      <trkpt lat="44.3657" lon="3.41071">
        <ele>481.2</ele>
        <time>2020-08-25T09:13:36.000Z</time>
      </trkpt>
      <trkpt lat="44.36572" lon="3.4107">
        <ele>481.3</ele>
        <time>2020-08-25T09:13:37.000Z</time>
      </trkpt>
      <trkpt lat="44.36575" lon="3.41069">
        <ele>481.4</ele>
        <time>2020-08-25T09:13:39.000Z</time>
      </trkpt>
      <trkpt lat="44.36576" lon="3.41069">
        <ele>481.4</ele>
        <time>2020-08-25T09:13:40.000Z</time>
      </trkpt>
      <trkpt lat="44.36578" lon="3.41069">
        <ele>481.4</ele>
        <time>2020-08-25T09:13:41.000Z</time>
      </trkpt>
      <trkpt lat="44.36579" lon="3.41069">
        <ele>481.5</ele>
        <time>2020-08-25T09:13:42.000Z</time>
      </trkpt>
      <trkpt lat="44.36581" lon="3.41069">
        <ele>481.5</ele>
        <time>2020-08-25T09:13:43.000Z</time>
      </trkpt>
      <trkpt lat="44.36582" lon="3.4107">
        <ele>481.5</ele>
        <time>2020-08-25T09:13:45.000Z</time>
      </trkpt>
      <trkpt lat="44.36582" lon="3.41069">
        <ele>481.5</ele>
        <time>2020-08-25T09:13:47.000Z</time>
      </trkpt>
      <trkpt lat="44.36583" lon="3.41068">
        <ele>481.5</ele>
        <time>2020-08-25T09:13:49.000Z</time>
      </trkpt>
      <trkpt lat="44.36583" lon="3.41068">
        <ele>481.5</ele>
        <time>2020-08-25T09:13:51.000Z</time>
      </trkpt>
      <trkpt lat="44.36583" lon="3.41068">
        <ele>481.5</ele>
        <time>2020-08-25T09:13:52.000Z</time>
      </trkpt>
      <trkpt lat="44.36583" lon="3.41069">
        <ele>481.6</ele>
        <time>2020-08-25T09:13:54.000Z</time>
      </trkpt>
      <trkpt lat="44.36583" lon="3.41069">
        <ele>481.6</ele>
        <time>2020-08-25T09:13:55.000Z</time>
      </trkpt>
      <trkpt lat="44.36583" lon="3.4107">
        <ele>481.6</ele>
        <time>2020-08-25T09:13:56.000Z</time>
      </trkpt>
      <trkpt lat="44.36583" lon="3.4107">
        <ele>481.6</ele>
        <time>2020-08-25T09:13:57.000Z</time>
      </trkpt>
      <trkpt lat="44.36583" lon="3.4107">
        <ele>481.6</ele>
        <time>2020-08-25T09:13:58.000Z</time>
      </trkpt>
      <trkpt lat="44.36584" lon="3.41071">
        <ele>481.6</ele>
        <time>2020-08-25T09:14:00.000Z</time>
      </trkpt>
      <trkpt lat="44.36584" lon="3.41071">
        <ele>481.6</ele>
        <time>2020-08-25T09:14:01.000Z</time>
      </trkpt>
      <trkpt lat="44.36584" lon="3.41071">
        <ele>481.6</ele>
        <time>2020-08-25T09:14:02.000Z</time>
      </trkpt>
      <trkpt lat="44.36585" lon="3.41073">
        <ele>481.6</ele>
        <time>2020-08-25T09:14:16.000Z</time>
      </trkpt>
      <trkpt lat="44.36586" lon="3.41073">
        <ele>481.6</ele>
        <time>2020-08-25T09:14:17.000Z</time>
      </trkpt>
      <trkpt lat="44.36587" lon="3.41073">
        <ele>481.7</ele>
        <time>2020-08-25T09:14:19.000Z</time>
      </trkpt>
      <trkpt lat="44.36587" lon="3.41073">
        <ele>481.7</ele>
        <time>2020-08-25T09:14:20.000Z</time>
      </trkpt>
      <trkpt lat="44.36587" lon="3.41072">
        <ele>481.7</ele>
        <time>2020-08-25T09:14:22.000Z</time>
      </trkpt>
      <trkpt lat="44.36587" lon="3.41072">
        <ele>481.7</ele>
        <time>2020-08-25T09:14:24.000Z</time>
      </trkpt>
      <trkpt lat="44.36587" lon="3.41072">
        <ele>481.7</ele>
        <time>2020-08-25T09:14:26.000Z</time>
      </trkpt>
      <trkpt lat="44.36587" lon="3.41072">
        <ele>481.7</ele>
        <time>2020-08-25T09:14:28.000Z</time>
      </trkpt>
      <trkpt lat="44.36587" lon="3.41072">
        <ele>481.7</ele>
        <time>2020-08-25T09:14:29.000Z</time>
      </trkpt>
      <trkpt lat="44.36587" lon="3.41072">
        <ele>481.7</ele>
        <time>2020-08-25T09:14:30.000Z</time>
      </trkpt>
      <trkpt lat="44.36587" lon="3.41072">
        <ele>481.7</ele>
        <time>2020-08-25T09:14:32.000Z</time>
      </trkpt>
      <trkpt lat="44.36587" lon="3.41072">
        <ele>481.7</ele>
        <time>2020-08-25T09:14:33.000Z</time>
      </trkpt>
      <trkpt lat="44.36587" lon="3.41072">
        <ele>481.7</ele>
        <time>2020-08-25T09:14:35.000Z</time>
      </trkpt>
      <trkpt lat="44.36587" lon="3.41072">
        <ele>481.7</ele>
        <time>2020-08-25T09:14:36.000Z</time>
      </trkpt>
      <trkpt lat="44.36587" lon="3.41072">
        <ele>481.7</ele>
        <time>2020-08-25T09:14:37.000Z</time>
      </trkpt>
      <trkpt lat="44.36587" lon="3.41072">
        <ele>481.7</ele>
        <time>2020-08-25T09:14:38.000Z</time>
      </trkpt>
      <trkpt lat="44.36587" lon="3.41072">
        <ele>481.7</ele>
        <time>2020-08-25T09:14:40.000Z</time>
      </trkpt>
      <trkpt lat="44.36587" lon="3.41072">
        <ele>481.7</ele>
        <time>2020-08-25T09:14:42.000Z</time>
      </trkpt>
      <trkpt lat="44.36587" lon="3.41072">
        <ele>481.7</ele>
        <time>2020-08-25T09:14:43.000Z</time>
      </trkpt>
      <trkpt lat="44.36587" lon="3.41072">
        <ele>481.7</ele>
        <time>2020-08-25T09:14:45.000Z</time>
      </trkpt>
      <trkpt lat="44.36587" lon="3.41072">
        <ele>481.7</ele>
        <time>2020-08-25T09:14:46.000Z</time>
      </trkpt>
      <trkpt lat="44.36587" lon="3.41072">
        <ele>481.7</ele>
        <time>2020-08-25T09:14:47.000Z</time>
      </trkpt>
      <trkpt lat="44.36587" lon="3.41072">
        <ele>481.7</ele>
        <time>2020-08-25T09:14:48.000Z</time>
      </trkpt>
      <trkpt lat="44.36587" lon="3.41072">
        <ele>481.7</ele>
        <time>2020-08-25T09:14:49.000Z</time>
      </trkpt>
      <trkpt lat="44.36587" lon="3.41072">
        <ele>481.7</ele>
        <time>2020-08-25T09:14:50.000Z</time>
      </trkpt>
      <trkpt lat="44.36587" lon="3.41072">
        <ele>481.7</ele>
        <time>2020-08-25T09:14:52.000Z</time>
      </trkpt>
      <trkpt lat="44.36587" lon="3.41072">
        <ele>481.7</ele>
        <time>2020-08-25T09:14:53.000Z</time>
      </trkpt>
      <trkpt lat="44.36587" lon="3.41072">
        <ele>481.7</ele>
        <time>2020-08-25T09:14:55.000Z</time>
      </trkpt>
      <trkpt lat="44.36587" lon="3.41072">
        <ele>481.7</ele>
        <time>2020-08-25T09:14:57.000Z</time>
      </trkpt>
      <trkpt lat="44.36587" lon="3.41072">
        <ele>481.7</ele>
        <time>2020-08-25T09:14:58.000Z</time>
      </trkpt>
      <trkpt lat="44.36587" lon="3.41072">
        <ele>481.7</ele>
        <time>2020-08-25T09:14:59.000Z</time>
      </trkpt>
      <trkpt lat="44.36587" lon="3.41072">
        <ele>481.7</ele>
        <time>2020-08-25T09:15:01.000Z</time>
      </trkpt>
      <trkpt lat="44.36587" lon="3.41072">
        <ele>481.7</ele>
        <time>2020-08-25T09:15:03.000Z</time>
      </trkpt>
      <trkpt lat="44.36587" lon="3.41072">
        <ele>481.7</ele>
        <time>2020-08-25T09:15:04.000Z</time>
      </trkpt>
      <trkpt lat="44.36587" lon="3.41072">
        <ele>481.7</ele>
        <time>2020-08-25T09:15:05.000Z</time>
      </trkpt>
      <trkpt lat="44.36587" lon="3.41072">
        <ele>481.7</ele>
        <time>2020-08-25T09:15:07.000Z</time>
      </trkpt>
      <trkpt lat="44.36586" lon="3.41072">
        <ele>481.7</ele>
        <time>2020-08-25T09:15:08.000Z</time>
      </trkpt>
      <trkpt lat="44.36586" lon="3.41072">
        <ele>481.7</ele>
        <time>2020-08-25T09:15:10.000Z</time>
      </trkpt>
      <trkpt lat="44.36586" lon="3.41072">
        <ele>481.7</ele>
        <time>2020-08-25T09:15:11.000Z</time>
      </trkpt>
      <trkpt lat="44.36586" lon="3.41072">
        <ele>481.7</ele>
        <time>2020-08-25T09:15:12.000Z</time>
      </trkpt>
      <trkpt lat="44.36586" lon="3.41072">
        <ele>481.7</ele>
        <time>2020-08-25T09:15:15.000Z</time>
      </trkpt>
      <trkpt lat="44.36586" lon="3.41073">
        <ele>481.7</ele>
        <time>2020-08-25T09:15:17.000Z</time>
      </trkpt>
      <trkpt lat="44.36586" lon="3.41074">
        <ele>481.7</ele>
        <time>2020-08-25T09:15:18.000Z</time>
      </trkpt>
      <trkpt lat="44.36587" lon="3.41074">
        <ele>481.7</ele>
        <time>2020-08-25T09:15:20.000Z</time>
      </trkpt>
      <trkpt lat="44.36587" lon="3.41075">
        <ele>481.7</ele>
        <time>2020-08-25T09:15:21.000Z</time>
      </trkpt>
      <trkpt lat="44.36587" lon="3.41075">
        <ele>481.7</ele>
        <time>2020-08-25T09:15:22.000Z</time>
      </trkpt>
      <trkpt lat="44.36588" lon="3.41075">
        <ele>481.7</ele>
        <time>2020-08-25T09:15:24.000Z</time>
      </trkpt>
      <trkpt lat="44.36588" lon="3.41075">
        <ele>481.8</ele>
        <time>2020-08-25T09:15:25.000Z</time>
      </trkpt>
      <trkpt lat="44.36588" lon="3.41075">
        <ele>481.8</ele>
        <time>2020-08-25T09:15:26.000Z</time>
      </trkpt>
      <trkpt lat="44.36588" lon="3.41075">
        <ele>481.8</ele>
        <time>2020-08-25T09:15:28.000Z</time>
      </trkpt>
      <trkpt lat="44.36587" lon="3.41078">
        <ele>481.8</ele>
        <time>2020-08-25T09:15:30.000Z</time>
      </trkpt>
      <trkpt lat="44.36587" lon="3.41078">
        <ele>481.8</ele>
        <time>2020-08-25T09:15:32.000Z</time>
      </trkpt>
      <trkpt lat="44.36587" lon="3.41079">
        <ele>481.8</ele>
        <time>2020-08-25T09:15:33.000Z</time>
      </trkpt>
      <trkpt lat="44.36587" lon="3.41079">
        <ele>481.8</ele>
        <time>2020-08-25T09:15:34.000Z</time>
      </trkpt>
      <trkpt lat="44.36587" lon="3.41079">
        <ele>481.8</ele>
        <time>2020-08-25T09:15:36.000Z</time>
      </trkpt>
      <trkpt lat="44.36587" lon="3.41079">
        <ele>481.8</ele>
        <time>2020-08-25T09:15:38.000Z</time>
      </trkpt>
      <trkpt lat="44.36587" lon="3.41079">
        <ele>481.8</ele>
        <time>2020-08-25T09:15:39.000Z</time>
      </trkpt>
      <trkpt lat="44.36587" lon="3.41079">
        <ele>481.8</ele>
        <time>2020-08-25T09:15:42.000Z</time>
      </trkpt>
      <trkpt lat="44.36588" lon="3.41079">
        <ele>481.8</ele>
        <time>2020-08-25T09:15:44.000Z</time>
      </trkpt>
      <trkpt lat="44.36589" lon="3.41078">
        <ele>481.9</ele>
        <time>2020-08-25T09:15:46.000Z</time>
      </trkpt>
      <trkpt lat="44.36588" lon="3.41078">
        <ele>481.9</ele>
        <time>2020-08-25T09:15:47.000Z</time>
      </trkpt>
      <trkpt lat="44.36589" lon="3.41081">
        <ele>481.9</ele>
        <time>2020-08-25T09:15:53.000Z</time>
      </trkpt>
      <trkpt lat="44.3659" lon="3.41082">
        <ele>481.9</ele>
        <time>2020-08-25T09:15:56.000Z</time>
      </trkpt>
      <trkpt lat="44.3659" lon="3.41082">
        <ele>481.9</ele>
        <time>2020-08-25T09:15:57.000Z</time>
      </trkpt>
      <trkpt lat="44.3659" lon="3.41083">
        <ele>481.9</ele>
        <time>2020-08-25T09:15:59.000Z</time>
      </trkpt>
      <trkpt lat="44.3659" lon="3.41088">
        <ele>482</ele>
        <time>2020-08-25T09:16:01.000Z</time>
      </trkpt>
      <trkpt lat="44.3659" lon="3.41091">
        <ele>482</ele>
        <time>2020-08-25T09:16:02.000Z</time>
      </trkpt>
      <trkpt lat="44.36589" lon="3.41092">
        <ele>482</ele>
        <time>2020-08-25T09:16:04.000Z</time>
      </trkpt>
      <trkpt lat="44.36588" lon="3.41091">
        <ele>482.1</ele>
        <time>2020-08-25T09:16:06.000Z</time>
      </trkpt>
      <trkpt lat="44.36587" lon="3.4109">
        <ele>482.1</ele>
        <time>2020-08-25T09:16:08.000Z</time>
      </trkpt>
      <trkpt lat="44.36587" lon="3.41089">
        <ele>482.1</ele>
        <time>2020-08-25T09:16:09.000Z</time>
      </trkpt>
      <trkpt lat="44.36586" lon="3.41088">
        <ele>482.1</ele>
        <time>2020-08-25T09:16:10.000Z</time>
      </trkpt>
      <trkpt lat="44.36586" lon="3.41087">
        <ele>482.1</ele>
        <time>2020-08-25T09:16:11.000Z</time>
      </trkpt>
      <trkpt lat="44.36585" lon="3.41085">
        <ele>482.1</ele>
        <time>2020-08-25T09:16:13.000Z</time>
      </trkpt>
      <trkpt lat="44.36585" lon="3.41083">
        <ele>482.2</ele>
        <time>2020-08-25T09:16:14.000Z</time>
      </trkpt>
      <trkpt lat="44.36585" lon="3.41083">
        <ele>482.2</ele>
        <time>2020-08-25T09:16:15.000Z</time>
      </trkpt>
      <trkpt lat="44.36584" lon="3.41082">
        <ele>482.2</ele>
        <time>2020-08-25T09:16:17.000Z</time>
      </trkpt>
      <trkpt lat="44.36584" lon="3.4108">
        <ele>482.2</ele>
        <time>2020-08-25T09:16:19.000Z</time>
      </trkpt>
      <trkpt lat="44.36584" lon="3.41079">
        <ele>482.2</ele>
        <time>2020-08-25T09:16:20.000Z</time>
      </trkpt>
      <trkpt lat="44.36585" lon="3.41077">
        <ele>482.2</ele>
        <time>2020-08-25T09:16:22.000Z</time>
      </trkpt>
      <trkpt lat="44.36585" lon="3.41076">
        <ele>482.3</ele>
        <time>2020-08-25T09:16:24.000Z</time>
      </trkpt>
      <trkpt lat="44.36585" lon="3.41076">
        <ele>482.3</ele>
        <time>2020-08-25T09:16:25.000Z</time>
      </trkpt>
      <trkpt lat="44.36584" lon="3.41075">
        <ele>482.3</ele>
        <time>2020-08-25T09:16:27.000Z</time>
      </trkpt>
      <trkpt lat="44.36584" lon="3.41074">
        <ele>482.3</ele>
        <time>2020-08-25T09:16:30.000Z</time>
      </trkpt>
      <trkpt lat="44.36587" lon="3.41074">
        <ele>482.3</ele>
        <time>2020-08-25T09:16:38.000Z</time>
      </trkpt>
      <trkpt lat="44.36589" lon="3.41074">
        <ele>482.4</ele>
        <time>2020-08-25T09:16:40.000Z</time>
      </trkpt>
      <trkpt lat="44.3659" lon="3.41075">
        <ele>482.4</ele>
        <time>2020-08-25T09:16:42.000Z</time>
      </trkpt>
      <trkpt lat="44.36587" lon="3.41075">
        <ele>482.4</ele>
        <time>2020-08-25T09:16:46.000Z</time>
      </trkpt>
      <trkpt lat="44.36587" lon="3.41075">
        <ele>482.4</ele>
        <time>2020-08-25T09:16:47.000Z</time>
      </trkpt>
      <trkpt lat="44.36586" lon="3.41075">
        <ele>482.4</ele>
        <time>2020-08-25T09:16:50.000Z</time>
      </trkpt>
      <trkpt lat="44.36586" lon="3.41074">
        <ele>482.5</ele>
        <time>2020-08-25T09:16:52.000Z</time>
      </trkpt>
      <trkpt lat="44.36587" lon="3.41076">
        <ele>482.5</ele>
        <time>2020-08-25T09:16:53.000Z</time>
      </trkpt>
      <trkpt lat="44.36588" lon="3.41077">
        <ele>482.5</ele>
        <time>2020-08-25T09:16:55.000Z</time>
      </trkpt>
      <trkpt lat="44.36589" lon="3.41078">
        <ele>482.5</ele>
        <time>2020-08-25T09:16:56.000Z</time>
      </trkpt>
      <trkpt lat="44.36589" lon="3.41078">
        <ele>482.5</ele>
        <time>2020-08-25T09:16:58.000Z</time>
      </trkpt>
      <trkpt lat="44.36589" lon="3.4108">
        <ele>482.5</ele>
        <time>2020-08-25T09:17:00.000Z</time>
      </trkpt>
      <trkpt lat="44.3659" lon="3.41082">
        <ele>482.6</ele>
        <time>2020-08-25T09:17:05.000Z</time>
      </trkpt>
      <trkpt lat="44.3659" lon="3.41083">
        <ele>482.6</ele>
        <time>2020-08-25T09:17:08.000Z</time>
      </trkpt>
      <trkpt lat="44.3659" lon="3.41083">
        <ele>482.6</ele>
        <time>2020-08-25T09:17:09.000Z</time>
      </trkpt>
      <trkpt lat="44.36591" lon="3.41083">
        <ele>482.6</ele>
        <time>2020-08-25T09:17:11.000Z</time>
      </trkpt>
      <trkpt lat="44.36591" lon="3.41084">
        <ele>482.6</ele>
        <time>2020-08-25T09:17:14.000Z</time>
      </trkpt>
      <trkpt lat="44.36593" lon="3.41087">
        <ele>482.6</ele>
        <time>2020-08-25T09:17:18.000Z</time>
      </trkpt>
      <trkpt lat="44.36593" lon="3.41087">
        <ele>482.7</ele>
        <time>2020-08-25T09:17:21.000Z</time>
      </trkpt>
      <trkpt lat="44.36594" lon="3.41088">
        <ele>482.7</ele>
        <time>2020-08-25T09:17:22.000Z</time>
      </trkpt>
      <trkpt lat="44.36595" lon="3.41088">
        <ele>482.7</ele>
        <time>2020-08-25T09:17:23.000Z</time>
      </trkpt>
      <trkpt lat="44.36595" lon="3.41088">
        <ele>482.7</ele>
        <time>2020-08-25T09:17:25.000Z</time>
      </trkpt>
      <trkpt lat="44.36595" lon="3.41088">
        <ele>482.7</ele>
        <time>2020-08-25T09:17:27.000Z</time>
      </trkpt>
      <trkpt lat="44.36595" lon="3.41088">
        <ele>482.7</ele>
        <time>2020-08-25T09:17:28.000Z</time>
      </trkpt>
      <trkpt lat="44.36595" lon="3.41088">
        <ele>482.7</ele>
        <time>2020-08-25T09:17:30.000Z</time>
      </trkpt>
      <trkpt lat="44.36595" lon="3.41088">
        <ele>482.7</ele>
        <time>2020-08-25T09:17:31.000Z</time>
      </trkpt>
      <trkpt lat="44.36595" lon="3.41088">
        <ele>482.7</ele>
        <time>2020-08-25T09:17:32.000Z</time>
      </trkpt>
      <trkpt lat="44.36595" lon="3.41088">
        <ele>482.7</ele>
        <time>2020-08-25T09:17:34.000Z</time>
      </trkpt>
      <trkpt lat="44.36595" lon="3.41083">
        <ele>482.7</ele>
        <time>2020-08-25T09:18:14.000Z</time>
      </trkpt>
      <trkpt lat="44.36597" lon="3.41084">
        <ele>482.8</ele>
        <time>2020-08-25T09:18:16.000Z</time>
      </trkpt>
      <trkpt lat="44.36598" lon="3.41084">
        <ele>482.8</ele>
        <time>2020-08-25T09:18:18.000Z</time>
      </trkpt>
      <trkpt lat="44.36599" lon="3.41084">
        <ele>482.8</ele>
        <time>2020-08-25T09:18:20.000Z</time>
      </trkpt>
      <trkpt lat="44.366" lon="3.41084">
        <ele>482.8</ele>
        <time>2020-08-25T09:18:22.000Z</time>
      </trkpt>
      <trkpt lat="44.36601" lon="3.41085">
        <ele>482.8</ele>
        <time>2020-08-25T09:18:24.000Z</time>
      </trkpt>
      <trkpt lat="44.36602" lon="3.41086">
        <ele>482.9</ele>
        <time>2020-08-25T09:18:27.000Z</time>
      </trkpt>
      <trkpt lat="44.36602" lon="3.41086">
        <ele>482.9</ele>
        <time>2020-08-25T09:18:28.000Z</time>
      </trkpt>
      <trkpt lat="44.36602" lon="3.41087">
        <ele>482.9</ele>
        <time>2020-08-25T09:18:30.000Z</time>
      </trkpt>
      <trkpt lat="44.36601" lon="3.41086">
        <ele>482.9</ele>
        <time>2020-08-25T09:18:33.000Z</time>
      </trkpt>
      <trkpt lat="44.36601" lon="3.41084">
        <ele>482.9</ele>
        <time>2020-08-25T09:18:35.000Z</time>
      </trkpt>
      <trkpt lat="44.36601" lon="3.41083">
        <ele>482.9</ele>
        <time>2020-08-25T09:18:37.000Z</time>
      </trkpt>
      <trkpt lat="44.36601" lon="3.41082">
        <ele>482.9</ele>
        <time>2020-08-25T09:18:39.000Z</time>
      </trkpt>
      <trkpt lat="44.36601" lon="3.41082">
        <ele>482.9</ele>
        <time>2020-08-25T09:18:41.000Z</time>
      </trkpt>
      <trkpt lat="44.36602" lon="3.41082">
        <ele>482.9</ele>
        <time>2020-08-25T09:18:49.000Z</time>
      </trkpt>
      <trkpt lat="44.36601" lon="3.41082">
        <ele>482.9</ele>
        <time>2020-08-25T09:18:50.000Z</time>
      </trkpt>
      <trkpt lat="44.36599" lon="3.4108">
        <ele>483</ele>
        <time>2020-08-25T09:18:52.000Z</time>
      </trkpt>
      <trkpt lat="44.36599" lon="3.41077">
        <ele>483</ele>
        <time>2020-08-25T09:18:55.000Z</time>
      </trkpt>
      <trkpt lat="44.36602" lon="3.41074">
        <ele>483</ele>
        <time>2020-08-25T09:19:02.000Z</time>
      </trkpt>
      <trkpt lat="44.36604" lon="3.4107">
        <ele>483</ele>
        <time>2020-08-25T09:19:34.000Z</time>
      </trkpt>
      <trkpt lat="44.36606" lon="3.41067">
        <ele>483</ele>
        <time>2020-08-25T09:19:47.000Z</time>
      </trkpt>
      <trkpt lat="44.36609" lon="3.41064">
        <ele>483</ele>
        <time>2020-08-25T09:20:00.000Z</time>
      </trkpt>
      <trkpt lat="44.36611" lon="3.41061">
        <ele>483.3</ele>
        <time>2020-08-25T09:20:06.000Z</time>
      </trkpt>
      <trkpt lat="44.36613" lon="3.41058">
        <ele>483.4</ele>
        <time>2020-08-25T09:20:13.000Z</time>
      </trkpt>
      <trkpt lat="44.36616" lon="3.41055">
        <ele>483.6</ele>
        <time>2020-08-25T09:20:13.000Z</time>
      </trkpt>
      <trkpt lat="44.3662" lon="3.41059">
        <ele>483.9</ele>
        <time>2020-08-25T09:20:19.000Z</time>
      </trkpt>
      <trkpt lat="44.36599" lon="3.41062">
        <ele>482.6</ele>
        <time>2020-08-25T09:20:23.000Z</time>
      </trkpt>
      <trkpt lat="44.3659" lon="3.4106">
        <ele>482.2</ele>
        <time>2020-08-25T09:20:24.000Z</time>
      </trkpt>
      <trkpt lat="44.36586" lon="3.41059">
        <ele>482.1</ele>
        <time>2020-08-25T09:20:25.000Z</time>
      </trkpt>
      <trkpt lat="44.36589" lon="3.4106">
        <ele>482</ele>
        <time>2020-08-25T09:20:27.000Z</time>
      </trkpt>
      <trkpt lat="44.3659" lon="3.4106">
        <ele>482</ele>
        <time>2020-08-25T09:20:28.000Z</time>
      </trkpt>
      <trkpt lat="44.36589" lon="3.41059">
        <ele>481.9</ele>
        <time>2020-08-25T09:20:29.000Z</time>
      </trkpt>
      <trkpt lat="44.36588" lon="3.41059">
        <ele>481.9</ele>
        <time>2020-08-25T09:20:30.000Z</time>
      </trkpt>
      <trkpt lat="44.36586" lon="3.41059">
        <ele>481.8</ele>
        <time>2020-08-25T09:20:32.000Z</time>
      </trkpt>
      <trkpt lat="44.36583" lon="3.4106">
        <ele>481.7</ele>
        <time>2020-08-25T09:20:33.000Z</time>
      </trkpt>
      <trkpt lat="44.36583" lon="3.4106">
        <ele>481.7</ele>
        <time>2020-08-25T09:20:34.000Z</time>
      </trkpt>
      <trkpt lat="44.36582" lon="3.41062">
        <ele>481.7</ele>
        <time>2020-08-25T09:20:35.000Z</time>
      </trkpt>
      <trkpt lat="44.36581" lon="3.41063">
        <ele>481.6</ele>
        <time>2020-08-25T09:20:36.000Z</time>
      </trkpt>
      <trkpt lat="44.36581" lon="3.41064">
        <ele>481.6</ele>
        <time>2020-08-25T09:20:37.000Z</time>
      </trkpt>
      <trkpt lat="44.36578" lon="3.41066">
        <ele>481.5</ele>
        <time>2020-08-25T09:20:39.000Z</time>
      </trkpt>
      <trkpt lat="44.36577" lon="3.41066">
        <ele>481.4</ele>
        <time>2020-08-25T09:20:40.000Z</time>
      </trkpt>
      <trkpt lat="44.36575" lon="3.41067">
        <ele>481.4</ele>
        <time>2020-08-25T09:20:41.000Z</time>
      </trkpt>
      <trkpt lat="44.36574" lon="3.41069">
        <ele>481.4</ele>
        <time>2020-08-25T09:20:43.000Z</time>
      </trkpt>
      <trkpt lat="44.36573" lon="3.41069">
        <ele>481.4</ele>
        <time>2020-08-25T09:20:45.000Z</time>
      </trkpt>
      <trkpt lat="44.36572" lon="3.41069">
        <ele>481.4</ele>
        <time>2020-08-25T09:20:46.000Z</time>
      </trkpt>
      <trkpt lat="44.36571" lon="3.4107">
        <ele>481.3</ele>
        <time>2020-08-25T09:20:48.000Z</time>
      </trkpt>
      <trkpt lat="44.36571" lon="3.4107">
        <ele>481.3</ele>
        <time>2020-08-25T09:20:50.000Z</time>
      </trkpt>
      <trkpt lat="44.36571" lon="3.41069">
        <ele>481.3</ele>
        <time>2020-08-25T09:20:52.000Z</time>
      </trkpt>
      <trkpt lat="44.36569" lon="3.41066">
        <ele>481.3</ele>
        <time>2020-08-25T09:23:47.000Z</time>
      </trkpt>
      <trkpt lat="44.36569" lon="3.41066">
        <ele>481.3</ele>
        <time>2020-08-25T09:23:48.000Z</time>
      </trkpt>
      <trkpt lat="44.36569" lon="3.41067">
        <ele>481.3</ele>
        <time>2020-08-25T09:23:50.000Z</time>
      </trkpt>
      <trkpt lat="44.36569" lon="3.41067">
        <ele>481.3</ele>
        <time>2020-08-25T09:23:51.000Z</time>
      </trkpt>
      <trkpt lat="44.36568" lon="3.41067">
        <ele>481.3</ele>
        <time>2020-08-25T09:23:53.000Z</time>
      </trkpt>
      <trkpt lat="44.36568" lon="3.41067">
        <ele>481.3</ele>
        <time>2020-08-25T09:23:54.000Z</time>
      </trkpt>
      <trkpt lat="44.36568" lon="3.41067">
        <ele>481.3</ele>
        <time>2020-08-25T09:23:55.000Z</time>
      </trkpt>
      <trkpt lat="44.36568" lon="3.41068">
        <ele>481.3</ele>
        <time>2020-08-25T09:23:56.000Z</time>
      </trkpt>
      <trkpt lat="44.36568" lon="3.41068">
        <ele>481.3</ele>
        <time>2020-08-25T09:23:57.000Z</time>
      </trkpt>
      <trkpt lat="44.36567" lon="3.41069">
        <ele>481.3</ele>
        <time>2020-08-25T09:23:59.000Z</time>
      </trkpt>
      <trkpt lat="44.36567" lon="3.41069">
        <ele>481.3</ele>
        <time>2020-08-25T09:24:00.000Z</time>
      </trkpt>
      <trkpt lat="44.36567" lon="3.41069">
        <ele>481.3</ele>
        <time>2020-08-25T09:24:01.000Z</time>
      </trkpt>
      <trkpt lat="44.36567" lon="3.41069">
        <ele>481.3</ele>
        <time>2020-08-25T09:24:02.000Z</time>
      </trkpt>
      <trkpt lat="44.36568" lon="3.4107">
        <ele>481.3</ele>
        <time>2020-08-25T09:24:04.000Z</time>
      </trkpt>
      <trkpt lat="44.36568" lon="3.4107">
        <ele>481.3</ele>
        <time>2020-08-25T09:24:05.000Z</time>
      </trkpt>
      <trkpt lat="44.36569" lon="3.4107">
        <ele>481.3</ele>
        <time>2020-08-25T09:24:07.000Z</time>
      </trkpt>
      <trkpt lat="44.36569" lon="3.41076">
        <ele>481.3</ele>
        <time>2020-08-25T09:27:04.000Z</time>
      </trkpt>
      <trkpt lat="44.36569" lon="3.41076">
        <ele>481.3</ele>
        <time>2020-08-25T09:27:06.000Z</time>
      </trkpt>
      <trkpt lat="44.3657" lon="3.41077">
        <ele>481.3</ele>
        <time>2020-08-25T09:27:07.000Z</time>
      </trkpt>
      <trkpt lat="44.3657" lon="3.41077">
        <ele>481.3</ele>
        <time>2020-08-25T09:27:09.000Z</time>
      </trkpt>
      <trkpt lat="44.3657" lon="3.41076">
        <ele>481.3</ele>
        <time>2020-08-25T09:27:10.000Z</time>
      </trkpt>
      <trkpt lat="44.3657" lon="3.41076">
        <ele>481.3</ele>
        <time>2020-08-25T09:27:11.000Z</time>
      </trkpt>
      <trkpt lat="44.36571" lon="3.41076">
        <ele>481.2</ele>
        <time>2020-08-25T09:27:13.000Z</time>
      </trkpt>
      <trkpt lat="44.36571" lon="3.41076">
        <ele>481.2</ele>
        <time>2020-08-25T09:27:14.000Z</time>
      </trkpt>
      <trkpt lat="44.36571" lon="3.41074">
        <ele>481.2</ele>
        <time>2020-08-25T09:32:13.000Z</time>
      </trkpt>
      <trkpt lat="44.36572" lon="3.41075">
        <ele>481.2</ele>
        <time>2020-08-25T09:32:14.000Z</time>
      </trkpt>
      <trkpt lat="44.36573" lon="3.41075">
        <ele>481.2</ele>
        <time>2020-08-25T09:32:15.000Z</time>
      </trkpt>
      <trkpt lat="44.36573" lon="3.41077">
        <ele>481.2</ele>
        <time>2020-08-25T09:32:17.000Z</time>
      </trkpt>
      <trkpt lat="44.36574" lon="3.41078">
        <ele>481.2</ele>
        <time>2020-08-25T09:32:18.000Z</time>
      </trkpt>
      <trkpt lat="44.36573" lon="3.41078">
        <ele>481.2</ele>
        <time>2020-08-25T09:32:19.000Z</time>
      </trkpt>
      <trkpt lat="44.36573" lon="3.41079">
        <ele>481.2</ele>
        <time>2020-08-25T09:32:21.000Z</time>
      </trkpt>
      <trkpt lat="44.36573" lon="3.41079">
        <ele>481.2</ele>
        <time>2020-08-25T09:32:22.000Z</time>
      </trkpt>
      <trkpt lat="44.36573" lon="3.41079">
        <ele>481.2</ele>
        <time>2020-08-25T09:32:24.000Z</time>
      </trkpt>
      <trkpt lat="44.36573" lon="3.41079">
        <ele>481.2</ele>
        <time>2020-08-25T09:32:26.000Z</time>
      </trkpt>
      <trkpt lat="44.36573" lon="3.41079">
        <ele>481.2</ele>
        <time>2020-08-25T09:32:27.000Z</time>
      </trkpt>
      <trkpt lat="44.36573" lon="3.41079">
        <ele>481.2</ele>
        <time>2020-08-25T09:32:28.000Z</time>
      </trkpt>
      <trkpt lat="44.36566" lon="3.41075">
        <ele>481.2</ele>
        <time>2020-08-25T09:43:15.000Z</time>
      </trkpt>
      <trkpt lat="44.36566" lon="3.41074">
        <ele>481.2</ele>
        <time>2020-08-25T09:43:16.000Z</time>
      </trkpt>
      <trkpt lat="44.36566" lon="3.41074">
        <ele>481.2</ele>
        <time>2020-08-25T09:43:17.000Z</time>
      </trkpt>
      <trkpt lat="44.36567" lon="3.41074">
        <ele>481.1</ele>
        <time>2020-08-25T09:43:19.000Z</time>
      </trkpt>
      <trkpt lat="44.36567" lon="3.41073">
        <ele>481.1</ele>
        <time>2020-08-25T09:43:20.000Z</time>
      </trkpt>
      <trkpt lat="44.36567" lon="3.41073">
        <ele>481.1</ele>
        <time>2020-08-25T09:43:21.000Z</time>
      </trkpt>
      <trkpt lat="44.36568" lon="3.41073">
        <ele>481.1</ele>
        <time>2020-08-25T09:43:23.000Z</time>
      </trkpt>
      <trkpt lat="44.36567" lon="3.41073">
        <ele>481.1</ele>
        <time>2020-08-25T09:43:25.000Z</time>
      </trkpt>
      <trkpt lat="44.36567" lon="3.41073">
        <ele>481.1</ele>
        <time>2020-08-25T09:43:26.000Z</time>
      </trkpt>
      <trkpt lat="44.36567" lon="3.41073">
        <ele>481.1</ele>
        <time>2020-08-25T09:43:28.000Z</time>
      </trkpt>
      <trkpt lat="44.36568" lon="3.41078">
        <ele>481.1</ele>
        <time>2020-08-25T09:44:23.000Z</time>
      </trkpt>
      <trkpt lat="44.36567" lon="3.4108">
        <ele>481.1</ele>
        <time>2020-08-25T09:44:25.000Z</time>
      </trkpt>
      <trkpt lat="44.36567" lon="3.41081">
        <ele>481.1</ele>
        <time>2020-08-25T09:44:26.000Z</time>
      </trkpt>
      <trkpt lat="44.36567" lon="3.41081">
        <ele>481.1</ele>
        <time>2020-08-25T09:44:28.000Z</time>
      </trkpt>
      <trkpt lat="44.36568" lon="3.41082">
        <ele>481.1</ele>
        <time>2020-08-25T09:44:30.000Z</time>
      </trkpt>
      <trkpt lat="44.36567" lon="3.41083">
        <ele>481.1</ele>
        <time>2020-08-25T09:44:32.000Z</time>
      </trkpt>
      <trkpt lat="44.36567" lon="3.41083">
        <ele>481.1</ele>
        <time>2020-08-25T09:44:33.000Z</time>
      </trkpt>
      <trkpt lat="44.36567" lon="3.41083">
        <ele>481.1</ele>
        <time>2020-08-25T09:44:35.000Z</time>
      </trkpt>
      <trkpt lat="44.36567" lon="3.41083">
        <ele>481.1</ele>
        <time>2020-08-25T09:44:36.000Z</time>
      </trkpt>
      <trkpt lat="44.36567" lon="3.41082">
        <ele>481.1</ele>
        <time>2020-08-25T09:44:37.000Z</time>
      </trkpt>
      <trkpt lat="44.36567" lon="3.41082">
        <ele>481.1</ele>
        <time>2020-08-25T09:44:38.000Z</time>
      </trkpt>
      <trkpt lat="44.36566" lon="3.41082">
        <ele>481.1</ele>
        <time>2020-08-25T09:44:40.000Z</time>
      </trkpt>
      <trkpt lat="44.36565" lon="3.41082">
        <ele>481.1</ele>
        <time>2020-08-25T09:44:41.000Z</time>
      </trkpt>
      <trkpt lat="44.36565" lon="3.41081">
        <ele>481.1</ele>
        <time>2020-08-25T09:44:43.000Z</time>
      </trkpt>
      <trkpt lat="44.36566" lon="3.4108">
        <ele>481.1</ele>
        <time>2020-08-25T09:44:44.000Z</time>
      </trkpt>
      <trkpt lat="44.36566" lon="3.41079">
        <ele>481</ele>
        <time>2020-08-25T09:44:45.000Z</time>
      </trkpt>
      <trkpt lat="44.36566" lon="3.41078">
        <ele>481</ele>
        <time>2020-08-25T09:44:46.000Z</time>
      </trkpt>
      <trkpt lat="44.36565" lon="3.41077">
        <ele>481</ele>
        <time>2020-08-25T09:44:48.000Z</time>
      </trkpt>
      <trkpt lat="44.36564" lon="3.41076">
        <ele>481</ele>
        <time>2020-08-25T09:44:49.000Z</time>
      </trkpt>
      <trkpt lat="44.36562" lon="3.41076">
        <ele>480.8</ele>
        <time>2020-08-25T09:44:50.000Z</time>
      </trkpt>
      <trkpt lat="44.36559" lon="3.41076">
        <ele>480.6</ele>
        <time>2020-08-25T09:44:52.000Z</time>
      </trkpt>
      <trkpt lat="44.36556" lon="3.41076">
        <ele>480.3</ele>
        <time>2020-08-25T09:44:53.000Z</time>
      </trkpt>
      <trkpt lat="44.36555" lon="3.41076">
        <ele>478.2</ele>
        <time>2020-08-25T09:44:54.000Z</time>
      </trkpt>
      <trkpt lat="44.36551" lon="3.41077">
        <ele>478.2</ele>
        <time>2020-08-25T09:44:56.000Z</time>
      </trkpt>
      <trkpt lat="44.3655" lon="3.41077">
        <ele>478.2</ele>
        <time>2020-08-25T09:44:57.000Z</time>
      </trkpt>
      <trkpt lat="44.36546" lon="3.41079">
        <ele>478.2</ele>
        <time>2020-08-25T09:44:59.000Z</time>
      </trkpt>
      <trkpt lat="44.36545" lon="3.41079">
        <ele>478.2</ele>
        <time>2020-08-25T09:45:00.000Z</time>
      </trkpt>
      <trkpt lat="44.36545" lon="3.41079">
        <ele>478.2</ele>
        <time>2020-08-25T09:45:01.000Z</time>
      </trkpt>
      <trkpt lat="44.36544" lon="3.4108">
        <ele>478.2</ele>
        <time>2020-08-25T09:45:03.000Z</time>
      </trkpt>
      <trkpt lat="44.36544" lon="3.41081">
        <ele>478.2</ele>
        <time>2020-08-25T09:45:05.000Z</time>
      </trkpt>
      <trkpt lat="44.36545" lon="3.41081">
        <ele>478.2</ele>
        <time>2020-08-25T09:45:06.000Z</time>
      </trkpt>
      <trkpt lat="44.36546" lon="3.4108">
        <ele>478.2</ele>
        <time>2020-08-25T09:45:08.000Z</time>
      </trkpt>
      <trkpt lat="44.36546" lon="3.41079">
        <ele>478.3</ele>
        <time>2020-08-25T09:45:10.000Z</time>
      </trkpt>
      <trkpt lat="44.36546" lon="3.41078">
        <ele>478.3</ele>
        <time>2020-08-25T09:45:11.000Z</time>
      </trkpt>
      <trkpt lat="44.36547" lon="3.41078">
        <ele>478.3</ele>
        <time>2020-08-25T09:45:12.000Z</time>
      </trkpt>
      <trkpt lat="44.36547" lon="3.41078">
        <ele>478.3</ele>
        <time>2020-08-25T09:45:14.000Z</time>
      </trkpt>
      <trkpt lat="44.36547" lon="3.41078">
        <ele>478.3</ele>
        <time>2020-08-25T09:45:15.000Z</time>
      </trkpt>
      <trkpt lat="44.36546" lon="3.41078">
        <ele>478.3</ele>
        <time>2020-08-25T09:45:17.000Z</time>
      </trkpt>
      <trkpt lat="44.36551" lon="3.41078">
        <ele>478.4</ele>
        <time>2020-08-25T09:47:31.000Z</time>
      </trkpt>
      <trkpt lat="44.36552" lon="3.41076">
        <ele>478.4</ele>
        <time>2020-08-25T09:47:33.000Z</time>
      </trkpt>
      <trkpt lat="44.36552" lon="3.41074">
        <ele>478.4</ele>
        <time>2020-08-25T09:47:34.000Z</time>
      </trkpt>
      <trkpt lat="44.36554" lon="3.41072">
        <ele>478.5</ele>
        <time>2020-08-25T09:47:35.000Z</time>
      </trkpt>
      <trkpt lat="44.36556" lon="3.4107">
        <ele>478.8</ele>
        <time>2020-08-25T09:47:37.000Z</time>
      </trkpt>
      <trkpt lat="44.36559" lon="3.41068">
        <ele>479</ele>
        <time>2020-08-25T09:47:38.000Z</time>
      </trkpt>
      <trkpt lat="44.3656" lon="3.41067">
        <ele>479.2</ele>
        <time>2020-08-25T09:47:39.000Z</time>
      </trkpt>
      <trkpt lat="44.36562" lon="3.41065">
        <ele>479.4</ele>
        <time>2020-08-25T09:47:41.000Z</time>
      </trkpt>
      <trkpt lat="44.36565" lon="3.41062">
        <ele>480.9</ele>
        <time>2020-08-25T09:47:43.000Z</time>
      </trkpt>
      <trkpt lat="44.36567" lon="3.4106">
        <ele>481</ele>
        <time>2020-08-25T09:47:44.000Z</time>
      </trkpt>
      <trkpt lat="44.36569" lon="3.41059">
        <ele>481.1</ele>
        <time>2020-08-25T09:47:45.000Z</time>
      </trkpt>
      <trkpt lat="44.36571" lon="3.41059">
        <ele>481.2</ele>
        <time>2020-08-25T09:47:46.000Z</time>
      </trkpt>
      <trkpt lat="44.36574" lon="3.41059">
        <ele>481.3</ele>
        <time>2020-08-25T09:47:48.000Z</time>
      </trkpt>
      <trkpt lat="44.36574" lon="3.41059">
        <ele>481.4</ele>
        <time>2020-08-25T09:47:49.000Z</time>
      </trkpt>
      <trkpt lat="44.36578" lon="3.41058">
        <ele>481.5</ele>
        <time>2020-08-25T09:47:51.000Z</time>
      </trkpt>
      <trkpt lat="44.36578" lon="3.41058">
        <ele>481.5</ele>
        <time>2020-08-25T09:47:52.000Z</time>
      </trkpt>
      <trkpt lat="44.36581" lon="3.41058">
        <ele>481.7</ele>
        <time>2020-08-25T09:47:54.000Z</time>
      </trkpt>
      <trkpt lat="44.36582" lon="3.41058">
        <ele>481.7</ele>
        <time>2020-08-25T09:47:55.000Z</time>
      </trkpt>
      <trkpt lat="44.36584" lon="3.41058">
        <ele>481.8</ele>
        <time>2020-08-25T09:47:56.000Z</time>
      </trkpt>
      <trkpt lat="44.36586" lon="3.41058">
        <ele>481.9</ele>
        <time>2020-08-25T09:47:58.000Z</time>
      </trkpt>
      <trkpt lat="44.3659" lon="3.41059">
        <ele>482.1</ele>
        <time>2020-08-25T09:48:00.000Z</time>
      </trkpt>
      <trkpt lat="44.3659" lon="3.41059">
        <ele>482.1</ele>
        <time>2020-08-25T09:48:01.000Z</time>
      </trkpt>
      <trkpt lat="44.36593" lon="3.41059">
        <ele>482.3</ele>
        <time>2020-08-25T09:48:03.000Z</time>
      </trkpt>
      <trkpt lat="44.36594" lon="3.41059">
        <ele>482.3</ele>
        <time>2020-08-25T09:48:04.000Z</time>
      </trkpt>
      <trkpt lat="44.36597" lon="3.4106">
        <ele>482.3</ele>
        <time>2020-08-25T09:48:06.000Z</time>
      </trkpt>
      <trkpt lat="44.36598" lon="3.4106">
        <ele>482.3</ele>
        <time>2020-08-25T09:48:07.000Z</time>
      </trkpt>
      <trkpt lat="44.366" lon="3.41061">
        <ele>482.2</ele>
        <time>2020-08-25T09:48:09.000Z</time>
      </trkpt>
      <trkpt lat="44.36602" lon="3.41064">
        <ele>482.2</ele>
        <time>2020-08-25T09:48:11.000Z</time>
      </trkpt>
      <trkpt lat="44.36599" lon="3.41065">
        <ele>482.2</ele>
        <time>2020-08-25T09:48:13.000Z</time>
      </trkpt>
      <trkpt lat="44.36598" lon="3.41065">
        <ele>482.2</ele>
        <time>2020-08-25T09:48:14.000Z</time>
      </trkpt>
      <trkpt lat="44.36597" lon="3.41064">
        <ele>482.2</ele>
        <time>2020-08-25T09:48:15.000Z</time>
      </trkpt>
      <trkpt lat="44.36597" lon="3.41063">
        <ele>482.2</ele>
        <time>2020-08-25T09:48:17.000Z</time>
      </trkpt>
      <trkpt lat="44.36597" lon="3.41064">
        <ele>482.2</ele>
        <time>2020-08-25T09:48:18.000Z</time>
      </trkpt>
      <trkpt lat="44.36598" lon="3.41064">
        <ele>482.2</ele>
        <time>2020-08-25T09:48:20.000Z</time>
      </trkpt>
      <trkpt lat="44.36599" lon="3.41065">
        <ele>482.2</ele>
        <time>2020-08-25T09:48:21.000Z</time>
      </trkpt>
      <trkpt lat="44.366" lon="3.41065">
        <ele>482.1</ele>
        <time>2020-08-25T09:48:23.000Z</time>
      </trkpt>
      <trkpt lat="44.366" lon="3.41066">
        <ele>482.1</ele>
        <time>2020-08-25T09:48:24.000Z</time>
      </trkpt>
      <trkpt lat="44.36601" lon="3.41067">
        <ele>482.1</ele>
        <time>2020-08-25T09:48:26.000Z</time>
      </trkpt>
      <trkpt lat="44.36606" lon="3.41071">
        <ele>482.1</ele>
        <time>2020-08-25T09:49:58.000Z</time>
      </trkpt>
      <trkpt lat="44.36608" lon="3.4107">
        <ele>482.1</ele>
        <time>2020-08-25T09:50:00.000Z</time>
      </trkpt>
      <trkpt lat="44.36608" lon="3.4107">
        <ele>482.1</ele>
        <time>2020-08-25T09:50:01.000Z</time>
      </trkpt>
      <trkpt lat="44.36608" lon="3.41069">
        <ele>482.1</ele>
        <time>2020-08-25T09:50:03.000Z</time>
      </trkpt>
      <trkpt lat="44.36608" lon="3.41068">
        <ele>482</ele>
        <time>2020-08-25T09:50:04.000Z</time>
      </trkpt>
      <trkpt lat="44.36608" lon="3.41068">
        <ele>482</ele>
        <time>2020-08-25T09:50:06.000Z</time>
      </trkpt>
      <trkpt lat="44.36608" lon="3.41068">
        <ele>482</ele>
        <time>2020-08-25T09:50:08.000Z</time>
      </trkpt>
      <trkpt lat="44.36609" lon="3.41069">
        <ele>482</ele>
        <time>2020-08-25T09:50:10.000Z</time>
      </trkpt>
      <trkpt lat="44.36609" lon="3.41069">
        <ele>482</ele>
        <time>2020-08-25T09:50:11.000Z</time>
      </trkpt>
      <trkpt lat="44.3661" lon="3.4107">
        <ele>482</ele>
        <time>2020-08-25T09:50:13.000Z</time>
      </trkpt>
      <trkpt lat="44.3661" lon="3.4107">
        <ele>482</ele>
        <time>2020-08-25T09:50:14.000Z</time>
      </trkpt>
      <trkpt lat="44.36607" lon="3.41074">
        <ele>482</ele>
        <time>2020-08-25T09:52:46.000Z</time>
      </trkpt>
      <trkpt lat="44.36606" lon="3.41073">
        <ele>482</ele>
        <time>2020-08-25T09:52:47.000Z</time>
      </trkpt>
      <trkpt lat="44.36606" lon="3.41073">
        <ele>482</ele>
        <time>2020-08-25T09:52:49.000Z</time>
      </trkpt>
      <trkpt lat="44.36605" lon="3.41073">
        <ele>482</ele>
        <time>2020-08-25T09:52:50.000Z</time>
      </trkpt>
      <trkpt lat="44.36604" lon="3.41071">
        <ele>482</ele>
        <time>2020-08-25T09:52:52.000Z</time>
      </trkpt>
      <trkpt lat="44.36601" lon="3.41071">
        <ele>481.9</ele>
        <time>2020-08-25T09:52:54.000Z</time>
      </trkpt>
      <trkpt lat="44.36599" lon="3.41071">
        <ele>481.9</ele>
        <time>2020-08-25T09:52:56.000Z</time>
      </trkpt>
      <trkpt lat="44.36599" lon="3.41071">
        <ele>481.9</ele>
        <time>2020-08-25T09:52:57.000Z</time>
      </trkpt>
      <trkpt lat="44.36601" lon="3.41071">
        <ele>481.9</ele>
        <time>2020-08-25T09:52:59.000Z</time>
      </trkpt>
      <trkpt lat="44.36602" lon="3.41071">
        <ele>481.9</ele>
        <time>2020-08-25T09:53:01.000Z</time>
      </trkpt>
      <trkpt lat="44.36602" lon="3.41071">
        <ele>481.9</ele>
        <time>2020-08-25T09:53:02.000Z</time>
      </trkpt>
      <trkpt lat="44.36602" lon="3.41071">
        <ele>481.9</ele>
        <time>2020-08-25T09:53:03.000Z</time>
      </trkpt>
      <trkpt lat="44.36602" lon="3.41071">
        <ele>481.9</ele>
        <time>2020-08-25T09:53:05.000Z</time>
      </trkpt>
      <trkpt lat="44.36602" lon="3.41065">
        <ele>481.8</ele>
        <time>2020-08-25T09:53:21.000Z</time>
      </trkpt>
      <trkpt lat="44.36601" lon="3.41063">
        <ele>481.8</ele>
        <time>2020-08-25T09:53:23.000Z</time>
      </trkpt>
      <trkpt lat="44.366" lon="3.41061">
        <ele>481.8</ele>
        <time>2020-08-25T09:53:24.000Z</time>
      </trkpt>
      <trkpt lat="44.36592" lon="3.41057">
        <ele>481.7</ele>
        <time>2020-08-25T09:53:26.000Z</time>
      </trkpt>
      <trkpt lat="44.36586" lon="3.41056">
        <ele>481.7</ele>
        <time>2020-08-25T09:53:27.000Z</time>
      </trkpt>
      <trkpt lat="44.36581" lon="3.41054">
        <ele>481.6</ele>
        <time>2020-08-25T09:53:29.000Z</time>
      </trkpt>
      <trkpt lat="44.36574" lon="3.41053">
        <ele>481.3</ele>
        <time>2020-08-25T09:53:31.000Z</time>
      </trkpt>
      <trkpt lat="44.3657" lon="3.4105">
        <ele>481</ele>
        <time>2020-08-25T09:53:32.000Z</time>
      </trkpt>
      <trkpt lat="44.36569" lon="3.41049">
        <ele>481</ele>
        <time>2020-08-25T09:53:33.000Z</time>
      </trkpt>
      <trkpt lat="44.36566" lon="3.41044">
        <ele>480.7</ele>
        <time>2020-08-25T09:53:35.000Z</time>
      </trkpt>
      <trkpt lat="44.36563" lon="3.41038">
        <ele>481.1</ele>
        <time>2020-08-25T09:53:37.000Z</time>
      </trkpt>
      <trkpt lat="44.36561" lon="3.41036">
        <ele>481.3</ele>
        <time>2020-08-25T09:53:38.000Z</time>
      </trkpt>
      <trkpt lat="44.36558" lon="3.41031">
        <ele>481.5</ele>
        <time>2020-08-25T09:53:40.000Z</time>
      </trkpt>
      <trkpt lat="44.36555" lon="3.41028">
        <ele>481.5</ele>
        <time>2020-08-25T09:53:42.000Z</time>
      </trkpt>
      <trkpt lat="44.36552" lon="3.41027">
        <ele>481.6</ele>
        <time>2020-08-25T09:53:43.000Z</time>
      </trkpt>
      <trkpt lat="44.36551" lon="3.41028">
        <ele>481.6</ele>
        <time>2020-08-25T09:53:44.000Z</time>
      </trkpt>
      <trkpt lat="44.36547" lon="3.41029">
        <ele>481.7</ele>
        <time>2020-08-25T09:53:46.000Z</time>
      </trkpt>
      <trkpt lat="44.36545" lon="3.4103">
        <ele>481.8</ele>
        <time>2020-08-25T09:53:47.000Z</time>
      </trkpt>
      <trkpt lat="44.36541" lon="3.41031">
        <ele>481.9</ele>
        <time>2020-08-25T09:53:49.000Z</time>
      </trkpt>
      <trkpt lat="44.36537" lon="3.41032">
        <ele>482.1</ele>
        <time>2020-08-25T09:53:51.000Z</time>
      </trkpt>
      <trkpt lat="44.36533" lon="3.41032">
        <ele>482.2</ele>
        <time>2020-08-25T09:53:53.000Z</time>
      </trkpt>
      <trkpt lat="44.36529" lon="3.41034">
        <ele>482.3</ele>
        <time>2020-08-25T09:53:55.000Z</time>
      </trkpt>
      <trkpt lat="44.36526" lon="3.41034">
        <ele>482.3</ele>
        <time>2020-08-25T09:53:56.000Z</time>
      </trkpt>
      <trkpt lat="44.36523" lon="3.41035">
        <ele>482.4</ele>
        <time>2020-08-25T09:53:58.000Z</time>
      </trkpt>
      <trkpt lat="44.36518" lon="3.41036">
        <ele>482.4</ele>
        <time>2020-08-25T09:54:00.000Z</time>
      </trkpt>
      <trkpt lat="44.36514" lon="3.41037">
        <ele>482.5</ele>
        <time>2020-08-25T09:54:02.000Z</time>
      </trkpt>
      <trkpt lat="44.36511" lon="3.41038">
        <ele>482.5</ele>
        <time>2020-08-25T09:54:04.000Z</time>
      </trkpt>
      <trkpt lat="44.3651" lon="3.41039">
        <ele>482.5</ele>
        <time>2020-08-25T09:54:05.000Z</time>
      </trkpt>
      <trkpt lat="44.36506" lon="3.41039">
        <ele>482.5</ele>
        <time>2020-08-25T09:54:07.000Z</time>
      </trkpt>
      <trkpt lat="44.36503" lon="3.41039">
        <ele>482.5</ele>
        <time>2020-08-25T09:54:08.000Z</time>
      </trkpt>
      <trkpt lat="44.36502" lon="3.41039">
        <ele>482.5</ele>
        <time>2020-08-25T09:54:09.000Z</time>
      </trkpt>
      <trkpt lat="44.36501" lon="3.4104">
        <ele>482.5</ele>
        <time>2020-08-25T09:54:10.000Z</time>
      </trkpt>
      <trkpt lat="44.36498" lon="3.4104">
        <ele>482.4</ele>
        <time>2020-08-25T09:54:12.000Z</time>
      </trkpt>
      <trkpt lat="44.36498" lon="3.4104">
        <ele>482.4</ele>
        <time>2020-08-25T09:54:13.000Z</time>
      </trkpt>
      <trkpt lat="44.36499" lon="3.4104">
        <ele>482.4</ele>
        <time>2020-08-25T09:54:15.000Z</time>
      </trkpt>
      <trkpt lat="44.36499" lon="3.4104">
        <ele>482.4</ele>
        <time>2020-08-25T09:54:17.000Z</time>
      </trkpt>
      <trkpt lat="44.36499" lon="3.4104">
        <ele>482.4</ele>
        <time>2020-08-25T09:54:19.000Z</time>
      </trkpt>
      <trkpt lat="44.36498" lon="3.4104">
        <ele>482.4</ele>
        <time>2020-08-25T09:54:20.000Z</time>
      </trkpt>
      <trkpt lat="44.36498" lon="3.4104">
        <ele>482.4</ele>
        <time>2020-08-25T09:54:21.000Z</time>
      </trkpt>
      <trkpt lat="44.36497" lon="3.41041">
        <ele>482.4</ele>
        <time>2020-08-25T09:54:22.000Z</time>
      </trkpt>
      <trkpt lat="44.36495" lon="3.41041">
        <ele>482.3</ele>
        <time>2020-08-25T09:54:24.000Z</time>
      </trkpt>
      <trkpt lat="44.36492" lon="3.41042">
        <ele>482.3</ele>
        <time>2020-08-25T09:54:26.000Z</time>
      </trkpt>
      <trkpt lat="44.36489" lon="3.41043">
        <ele>482.2</ele>
        <time>2020-08-25T09:54:28.000Z</time>
      </trkpt>
      <trkpt lat="44.36485" lon="3.41044">
        <ele>482.1</ele>
        <time>2020-08-25T09:54:29.000Z</time>
      </trkpt>
      <trkpt lat="44.36484" lon="3.41044">
        <ele>482.1</ele>
        <time>2020-08-25T09:54:30.000Z</time>
      </trkpt>
      <trkpt lat="44.3648" lon="3.41046">
        <ele>482</ele>
        <time>2020-08-25T09:54:32.000Z</time>
      </trkpt>
      <trkpt lat="44.36475" lon="3.41046">
        <ele>481.9</ele>
        <time>2020-08-25T09:54:34.000Z</time>
      </trkpt>
      <trkpt lat="44.36474" lon="3.41047">
        <ele>481.8</ele>
        <time>2020-08-25T09:54:35.000Z</time>
      </trkpt>
      <trkpt lat="44.36468" lon="3.41048">
        <ele>481.6</ele>
        <time>2020-08-25T09:54:37.000Z</time>
      </trkpt>
      <trkpt lat="44.36463" lon="3.4105">
        <ele>481.5</ele>
        <time>2020-08-25T09:54:39.000Z</time>
      </trkpt>
      <trkpt lat="44.36461" lon="3.4105">
        <ele>481.4</ele>
        <time>2020-08-25T09:54:40.000Z</time>
      </trkpt>
      <trkpt lat="44.36457" lon="3.41052">
        <ele>481.3</ele>
        <time>2020-08-25T09:54:42.000Z</time>
      </trkpt>
      <trkpt lat="44.36452" lon="3.41053">
        <ele>481.2</ele>
        <time>2020-08-25T09:54:44.000Z</time>
      </trkpt>
      <trkpt lat="44.36447" lon="3.41053">
        <ele>481.2</ele>
        <time>2020-08-25T09:54:46.000Z</time>
      </trkpt>
      <trkpt lat="44.36442" lon="3.41053">
        <ele>481.1</ele>
        <time>2020-08-25T09:54:48.000Z</time>
      </trkpt>
      <trkpt lat="44.36439" lon="3.41055">
        <ele>481.1</ele>
        <time>2020-08-25T09:54:50.000Z</time>
      </trkpt>
      <trkpt lat="44.36435" lon="3.41058">
        <ele>481</ele>
        <time>2020-08-25T09:54:51.000Z</time>
      </trkpt>
      <trkpt lat="44.36431" lon="3.41064">
        <ele>480.9</ele>
        <time>2020-08-25T09:54:53.000Z</time>
      </trkpt>
      <trkpt lat="44.36428" lon="3.41072">
        <ele>480.7</ele>
        <time>2020-08-25T09:54:55.000Z</time>
      </trkpt>
      <trkpt lat="44.36427" lon="3.41076">
        <ele>480.7</ele>
        <time>2020-08-25T09:54:56.000Z</time>
      </trkpt>
      <trkpt lat="44.36427" lon="3.4108">
        <ele>480.6</ele>
        <time>2020-08-25T09:54:57.000Z</time>
      </trkpt>
      <trkpt lat="44.36428" lon="3.41087">
        <ele>480.5</ele>
        <time>2020-08-25T09:54:59.000Z</time>
      </trkpt>
      <trkpt lat="44.36428" lon="3.41091">
        <ele>480.5</ele>
        <time>2020-08-25T09:55:00.000Z</time>
      </trkpt>
      <trkpt lat="44.36429" lon="3.411">
        <ele>480.4</ele>
        <time>2020-08-25T09:55:02.000Z</time>
      </trkpt>
      <trkpt lat="44.36431" lon="3.41108">
        <ele>480.3</ele>
        <time>2020-08-25T09:55:04.000Z</time>
      </trkpt>
      <trkpt lat="44.36431" lon="3.41112">
        <ele>480.2</ele>
        <time>2020-08-25T09:55:05.000Z</time>
      </trkpt>
      <trkpt lat="44.36433" lon="3.41121">
        <ele>480.2</ele>
        <time>2020-08-25T09:55:07.000Z</time>
      </trkpt>
      <trkpt lat="44.36435" lon="3.41128">
        <ele>480.3</ele>
        <time>2020-08-25T09:55:09.000Z</time>
      </trkpt>
      <trkpt lat="44.36435" lon="3.41132">
        <ele>480.4</ele>
        <time>2020-08-25T09:55:10.000Z</time>
      </trkpt>
      <trkpt lat="44.36436" lon="3.41142">
        <ele>480.5</ele>
        <time>2020-08-25T09:55:12.000Z</time>
      </trkpt>
      <trkpt lat="44.36437" lon="3.41146">
        <ele>480.6</ele>
        <time>2020-08-25T09:55:13.000Z</time>
      </trkpt>
      <trkpt lat="44.36438" lon="3.41155">
        <ele>480.6</ele>
        <time>2020-08-25T09:55:15.000Z</time>
      </trkpt>
      <trkpt lat="44.36438" lon="3.41159">
        <ele>480.7</ele>
        <time>2020-08-25T09:55:16.000Z</time>
      </trkpt>
      <trkpt lat="44.36438" lon="3.41166">
        <ele>480.9</ele>
        <time>2020-08-25T09:55:18.000Z</time>
      </trkpt>
      <trkpt lat="44.36438" lon="3.4117">
        <ele>481</ele>
        <time>2020-08-25T09:55:19.000Z</time>
      </trkpt>
      <trkpt lat="44.36438" lon="3.41177">
        <ele>481.3</ele>
        <time>2020-08-25T09:55:21.000Z</time>
      </trkpt>
      <trkpt lat="44.36438" lon="3.41185">
        <ele>481.6</ele>
        <time>2020-08-25T09:55:23.000Z</time>
      </trkpt>
      <trkpt lat="44.36438" lon="3.41188">
        <ele>481.7</ele>
        <time>2020-08-25T09:55:24.000Z</time>
      </trkpt>
      <trkpt lat="44.36438" lon="3.41192">
        <ele>481.7</ele>
        <time>2020-08-25T09:55:25.000Z</time>
      </trkpt>
      <trkpt lat="44.36438" lon="3.41197">
        <ele>481.8</ele>
        <time>2020-08-25T09:55:26.000Z</time>
      </trkpt>
      <trkpt lat="44.36437" lon="3.41199">
        <ele>481.8</ele>
        <time>2020-08-25T09:55:27.000Z</time>
      </trkpt>
      <trkpt lat="44.36437" lon="3.41207">
        <ele>482</ele>
        <time>2020-08-25T09:55:29.000Z</time>
      </trkpt>
      <trkpt lat="44.36436" lon="3.41213">
        <ele>482.1</ele>
        <time>2020-08-25T09:55:31.000Z</time>
      </trkpt>
      <trkpt lat="44.36435" lon="3.4122">
        <ele>482.2</ele>
        <time>2020-08-25T09:55:33.000Z</time>
      </trkpt>
      <trkpt lat="44.36434" lon="3.41226">
        <ele>482.4</ele>
        <time>2020-08-25T09:55:35.000Z</time>
      </trkpt>
      <trkpt lat="44.36432" lon="3.41232">
        <ele>482.5</ele>
        <time>2020-08-25T09:55:37.000Z</time>
      </trkpt>
      <trkpt lat="44.36432" lon="3.41236">
        <ele>482.6</ele>
        <time>2020-08-25T09:55:38.000Z</time>
      </trkpt>
      <trkpt lat="44.36431" lon="3.41241">
        <ele>482.7</ele>
        <time>2020-08-25T09:55:40.000Z</time>
      </trkpt>
      <trkpt lat="44.3643" lon="3.41244">
        <ele>482.7</ele>
        <time>2020-08-25T09:55:41.000Z</time>
      </trkpt>
      <trkpt lat="44.36428" lon="3.41249">
        <ele>482.7</ele>
        <time>2020-08-25T09:55:43.000Z</time>
      </trkpt>
      <trkpt lat="44.36426" lon="3.41253">
        <ele>482.8</ele>
        <time>2020-08-25T09:55:44.000Z</time>
      </trkpt>
      <trkpt lat="44.36425" lon="3.41254">
        <ele>482.9</ele>
        <time>2020-08-25T09:55:45.000Z</time>
      </trkpt>
      <trkpt lat="44.36424" lon="3.41257">
        <ele>483.1</ele>
        <time>2020-08-25T09:55:46.000Z</time>
      </trkpt>
      <trkpt lat="44.36422" lon="3.41264">
        <ele>483.4</ele>
        <time>2020-08-25T09:55:48.000Z</time>
      </trkpt>
      <trkpt lat="44.36421" lon="3.41267">
        <ele>483.6</ele>
        <time>2020-08-25T09:55:49.000Z</time>
      </trkpt>
      <trkpt lat="44.3642" lon="3.41273">
        <ele>483.8</ele>
        <time>2020-08-25T09:55:51.000Z</time>
      </trkpt>
      <trkpt lat="44.36418" lon="3.41278">
        <ele>484</ele>
        <time>2020-08-25T09:55:52.000Z</time>
      </trkpt>
      <trkpt lat="44.36418" lon="3.41279">
        <ele>484.1</ele>
        <time>2020-08-25T09:55:53.000Z</time>
      </trkpt>
      <trkpt lat="44.36416" lon="3.41285">
        <ele>484.4</ele>
        <time>2020-08-25T09:55:55.000Z</time>
      </trkpt>
      <trkpt lat="44.36413" lon="3.41291">
        <ele>484.6</ele>
        <time>2020-08-25T09:55:57.000Z</time>
      </trkpt>
      <trkpt lat="44.36409" lon="3.41296">
        <ele>484.9</ele>
        <time>2020-08-25T09:55:59.000Z</time>
      </trkpt>
      <trkpt lat="44.36408" lon="3.41299">
        <ele>485</ele>
        <time>2020-08-25T09:56:00.000Z</time>
      </trkpt>
      <trkpt lat="44.36405" lon="3.41304">
        <ele>485.3</ele>
        <time>2020-08-25T09:56:02.000Z</time>
      </trkpt>
      <trkpt lat="44.36401" lon="3.41309">
        <ele>485.6</ele>
        <time>2020-08-25T09:56:04.000Z</time>
      </trkpt>
      <trkpt lat="44.36399" lon="3.41312">
        <ele>485.7</ele>
        <time>2020-08-25T09:56:05.000Z</time>
      </trkpt>
      <trkpt lat="44.36398" lon="3.41313">
        <ele>485.8</ele>
        <time>2020-08-25T09:56:06.000Z</time>
      </trkpt>
      <trkpt lat="44.36396" lon="3.41317">
        <ele>486</ele>
        <time>2020-08-25T09:56:07.000Z</time>
      </trkpt>
      <trkpt lat="44.36395" lon="3.41318">
        <ele>486.1</ele>
        <time>2020-08-25T09:56:08.000Z</time>
      </trkpt>
      <trkpt lat="44.36391" lon="3.41323">
        <ele>486.3</ele>
        <time>2020-08-25T09:56:10.000Z</time>
      </trkpt>
      <trkpt lat="44.36389" lon="3.41325">
        <ele>486.5</ele>
        <time>2020-08-25T09:56:11.000Z</time>
      </trkpt>
      <trkpt lat="44.36388" lon="3.41326">
        <ele>486.6</ele>
        <time>2020-08-25T09:56:12.000Z</time>
      </trkpt>
      <trkpt lat="44.36386" lon="3.41328">
        <ele>486.7</ele>
        <time>2020-08-25T09:56:13.000Z</time>
      </trkpt>
      <trkpt lat="44.36382" lon="3.41331">
        <ele>487</ele>
        <time>2020-08-25T09:56:15.000Z</time>
      </trkpt>
      <trkpt lat="44.36379" lon="3.41335">
        <ele>487.2</ele>
        <time>2020-08-25T09:56:17.000Z</time>
      </trkpt>
      <trkpt lat="44.36376" lon="3.41339">
        <ele>487.5</ele>
        <time>2020-08-25T09:56:19.000Z</time>
      </trkpt>
      <trkpt lat="44.36372" lon="3.41342">
        <ele>487.7</ele>
        <time>2020-08-25T09:56:21.000Z</time>
      </trkpt>
      <trkpt lat="44.36369" lon="3.41346">
        <ele>488</ele>
        <time>2020-08-25T09:56:23.000Z</time>
      </trkpt>
      <trkpt lat="44.36367" lon="3.41347">
        <ele>488.1</ele>
        <time>2020-08-25T09:56:24.000Z</time>
      </trkpt>
      <trkpt lat="44.36363" lon="3.41351">
        <ele>488.4</ele>
        <time>2020-08-25T09:56:26.000Z</time>
      </trkpt>
      <trkpt lat="44.3636" lon="3.41354">
        <ele>488.6</ele>
        <time>2020-08-25T09:56:28.000Z</time>
      </trkpt>
      <trkpt lat="44.36357" lon="3.41357">
        <ele>488.8</ele>
        <time>2020-08-25T09:56:29.000Z</time>
      </trkpt>
      <trkpt lat="44.36356" lon="3.41358">
        <ele>488.9</ele>
        <time>2020-08-25T09:56:30.000Z</time>
      </trkpt>
      <trkpt lat="44.36352" lon="3.41361">
        <ele>489.1</ele>
        <time>2020-08-25T09:56:32.000Z</time>
      </trkpt>
      <trkpt lat="44.36348" lon="3.41363">
        <ele>489.3</ele>
        <time>2020-08-25T09:56:34.000Z</time>
      </trkpt>
      <trkpt lat="44.36344" lon="3.41364">
        <ele>489.5</ele>
        <time>2020-08-25T09:56:36.000Z</time>
      </trkpt>
      <trkpt lat="44.3634" lon="3.41366">
        <ele>489.8</ele>
        <time>2020-08-25T09:56:38.000Z</time>
      </trkpt>
      <trkpt lat="44.36337" lon="3.41367">
        <ele>489.9</ele>
        <time>2020-08-25T09:56:39.000Z</time>
      </trkpt>
      <trkpt lat="44.36333" lon="3.4137">
        <ele>490.2</ele>
        <time>2020-08-25T09:56:41.000Z</time>
      </trkpt>
      <trkpt lat="44.36328" lon="3.41373">
        <ele>490.5</ele>
        <time>2020-08-25T09:56:43.000Z</time>
      </trkpt>
      <trkpt lat="44.36325" lon="3.41374">
        <ele>490.6</ele>
        <time>2020-08-25T09:56:44.000Z</time>
      </trkpt>
      <trkpt lat="44.36321" lon="3.41376">
        <ele>490.9</ele>
        <time>2020-08-25T09:56:46.000Z</time>
      </trkpt>
      <trkpt lat="44.36316" lon="3.41378">
        <ele>491.2</ele>
        <time>2020-08-25T09:56:48.000Z</time>
      </trkpt>
      <trkpt lat="44.36313" lon="3.4138">
        <ele>491.4</ele>
        <time>2020-08-25T09:56:49.000Z</time>
      </trkpt>
      <trkpt lat="44.36312" lon="3.4138">
        <ele>491.4</ele>
        <time>2020-08-25T09:56:50.000Z</time>
      </trkpt>
      <trkpt lat="44.36308" lon="3.41382">
        <ele>491.7</ele>
        <time>2020-08-25T09:56:52.000Z</time>
      </trkpt>
      <trkpt lat="44.36305" lon="3.41383">
        <ele>491.9</ele>
        <time>2020-08-25T09:56:53.000Z</time>
      </trkpt>
      <trkpt lat="44.36301" lon="3.41385">
        <ele>492.1</ele>
        <time>2020-08-25T09:56:55.000Z</time>
      </trkpt>
      <trkpt lat="44.36299" lon="3.41386">
        <ele>492.3</ele>
        <time>2020-08-25T09:56:56.000Z</time>
      </trkpt>
      <trkpt lat="44.36294" lon="3.41389">
        <ele>492.5</ele>
        <time>2020-08-25T09:56:58.000Z</time>
      </trkpt>
      <trkpt lat="44.36291" lon="3.4139">
        <ele>492.7</ele>
        <time>2020-08-25T09:56:59.000Z</time>
      </trkpt>
      <trkpt lat="44.3629" lon="3.4139">
        <ele>492.8</ele>
        <time>2020-08-25T09:57:00.000Z</time>
      </trkpt>
      <trkpt lat="44.36287" lon="3.4139">
        <ele>492.9</ele>
        <time>2020-08-25T09:57:01.000Z</time>
      </trkpt>
      <trkpt lat="44.36283" lon="3.4139">
        <ele>493.2</ele>
        <time>2020-08-25T09:57:03.000Z</time>
      </trkpt>
      <trkpt lat="44.3628" lon="3.41391">
        <ele>493.3</ele>
        <time>2020-08-25T09:57:04.000Z</time>
      </trkpt>
      <trkpt lat="44.36276" lon="3.41391">
        <ele>493.6</ele>
        <time>2020-08-25T09:57:06.000Z</time>
      </trkpt>
      <trkpt lat="44.36271" lon="3.41391">
        <ele>493.9</ele>
        <time>2020-08-25T09:57:08.000Z</time>
      </trkpt>
      <trkpt lat="44.36269" lon="3.41391">
        <ele>494</ele>
        <time>2020-08-25T09:57:09.000Z</time>
      </trkpt>
      <trkpt lat="44.36264" lon="3.4139">
        <ele>494.2</ele>
        <time>2020-08-25T09:57:11.000Z</time>
      </trkpt>
      <trkpt lat="44.3626" lon="3.41388">
        <ele>494.4</ele>
        <time>2020-08-25T09:57:13.000Z</time>
      </trkpt>
      <trkpt lat="44.36258" lon="3.41388">
        <ele>494.5</ele>
        <time>2020-08-25T09:57:14.000Z</time>
      </trkpt>
      <trkpt lat="44.36254" lon="3.41387">
        <ele>494.8</ele>
        <time>2020-08-25T09:57:16.000Z</time>
      </trkpt>
      <trkpt lat="44.36251" lon="3.41387">
        <ele>494.9</ele>
        <time>2020-08-25T09:57:17.000Z</time>
      </trkpt>
      <trkpt lat="44.36247" lon="3.41385">
        <ele>495.2</ele>
        <time>2020-08-25T09:57:19.000Z</time>
      </trkpt>
      <trkpt lat="44.36243" lon="3.41385">
        <ele>495.4</ele>
        <time>2020-08-25T09:57:21.000Z</time>
      </trkpt>
      <trkpt lat="44.36239" lon="3.41384">
        <ele>495.6</ele>
        <time>2020-08-25T09:57:23.000Z</time>
      </trkpt>
      <trkpt lat="44.36236" lon="3.41384">
        <ele>495.8</ele>
        <time>2020-08-25T09:57:24.000Z</time>
      </trkpt>
      <trkpt lat="44.36233" lon="3.41383">
        <ele>496</ele>
        <time>2020-08-25T09:57:26.000Z</time>
      </trkpt>
      <trkpt lat="44.36228" lon="3.41381">
        <ele>496.2</ele>
        <time>2020-08-25T09:57:28.000Z</time>
      </trkpt>
      <trkpt lat="44.36225" lon="3.4138">
        <ele>496.4</ele>
        <time>2020-08-25T09:57:29.000Z</time>
      </trkpt>
      <trkpt lat="44.36223" lon="3.41379">
        <ele>496.6</ele>
        <time>2020-08-25T09:57:30.000Z</time>
      </trkpt>
      <trkpt lat="44.36218" lon="3.41378">
        <ele>496.8</ele>
        <time>2020-08-25T09:57:32.000Z</time>
      </trkpt>
      <trkpt lat="44.36215" lon="3.41378">
        <ele>497</ele>
        <time>2020-08-25T09:57:33.000Z</time>
      </trkpt>
      <trkpt lat="44.36211" lon="3.41377">
        <ele>497.2</ele>
        <time>2020-08-25T09:57:35.000Z</time>
      </trkpt>
      <trkpt lat="44.36208" lon="3.41376">
        <ele>497.5</ele>
        <time>2020-08-25T09:57:36.000Z</time>
      </trkpt>
      <trkpt lat="44.36206" lon="3.41376">
        <ele>497.5</ele>
        <time>2020-08-25T09:57:37.000Z</time>
      </trkpt>
      <trkpt lat="44.36204" lon="3.41376">
        <ele>497.7</ele>
        <time>2020-08-25T09:57:38.000Z</time>
      </trkpt>
      <trkpt lat="44.36199" lon="3.41375">
        <ele>497.9</ele>
        <time>2020-08-25T09:57:40.000Z</time>
      </trkpt>
      <trkpt lat="44.36196" lon="3.41374">
        <ele>498.1</ele>
        <time>2020-08-25T09:57:41.000Z</time>
      </trkpt>
      <trkpt lat="44.36195" lon="3.41374">
        <ele>498.1</ele>
        <time>2020-08-25T09:57:42.000Z</time>
      </trkpt>
      <trkpt lat="44.36191" lon="3.41373">
        <ele>498.3</ele>
        <time>2020-08-25T09:57:44.000Z</time>
      </trkpt>
      <trkpt lat="44.36186" lon="3.41372">
        <ele>498.6</ele>
        <time>2020-08-25T09:57:46.000Z</time>
      </trkpt>
      <trkpt lat="44.36184" lon="3.41371">
        <ele>498.7</ele>
        <time>2020-08-25T09:57:47.000Z</time>
      </trkpt>
      <trkpt lat="44.3618" lon="3.41369">
        <ele>499</ele>
        <time>2020-08-25T09:57:49.000Z</time>
      </trkpt>
      <trkpt lat="44.36176" lon="3.41367">
        <ele>499.2</ele>
        <time>2020-08-25T09:57:50.000Z</time>
      </trkpt>
      <trkpt lat="44.36175" lon="3.41367">
        <ele>499.2</ele>
        <time>2020-08-25T09:57:51.000Z</time>
      </trkpt>
      <trkpt lat="44.36171" lon="3.41364">
        <ele>499.5</ele>
        <time>2020-08-25T09:57:53.000Z</time>
      </trkpt>
      <trkpt lat="44.36168" lon="3.41363">
        <ele>499.6</ele>
        <time>2020-08-25T09:57:54.000Z</time>
      </trkpt>
      <trkpt lat="44.36164" lon="3.4136">
        <ele>499.9</ele>
        <time>2020-08-25T09:57:56.000Z</time>
      </trkpt>
      <trkpt lat="44.3616" lon="3.41358">
        <ele>500.1</ele>
        <time>2020-08-25T09:57:58.000Z</time>
      </trkpt>
      <trkpt lat="44.36157" lon="3.41354">
        <ele>500.3</ele>
        <time>2020-08-25T09:58:00.000Z</time>
      </trkpt>
      <trkpt lat="44.36155" lon="3.41353">
        <ele>500.4</ele>
        <time>2020-08-25T09:58:01.000Z</time>
      </trkpt>
      <trkpt lat="44.36151" lon="3.4135">
        <ele>500.6</ele>
        <time>2020-08-25T09:58:03.000Z</time>
      </trkpt>
      <trkpt lat="44.36149" lon="3.41348">
        <ele>500.7</ele>
        <time>2020-08-25T09:58:04.000Z</time>
      </trkpt>
      <trkpt lat="44.36146" lon="3.41345">
        <ele>500.9</ele>
        <time>2020-08-25T09:58:05.000Z</time>
      </trkpt>
      <trkpt lat="44.36144" lon="3.41343">
        <ele>501.1</ele>
        <time>2020-08-25T09:58:06.000Z</time>
      </trkpt>
      <trkpt lat="44.36143" lon="3.41342">
        <ele>501.1</ele>
        <time>2020-08-25T09:58:07.000Z</time>
      </trkpt>
      <trkpt lat="44.36141" lon="3.4134">
        <ele>501.2</ele>
        <time>2020-08-25T09:58:08.000Z</time>
      </trkpt>
      <trkpt lat="44.36137" lon="3.41336">
        <ele>501.4</ele>
        <time>2020-08-25T09:58:10.000Z</time>
      </trkpt>
      <trkpt lat="44.36133" lon="3.41332">
        <ele>501.7</ele>
        <time>2020-08-25T09:58:12.000Z</time>
      </trkpt>
      <trkpt lat="44.3613" lon="3.41328">
        <ele>501.9</ele>
        <time>2020-08-25T09:58:13.000Z</time>
      </trkpt>
      <trkpt lat="44.36129" lon="3.41327">
        <ele>501.9</ele>
        <time>2020-08-25T09:58:14.000Z</time>
      </trkpt>
      <trkpt lat="44.36126" lon="3.41322">
        <ele>502.1</ele>
        <time>2020-08-25T09:58:16.000Z</time>
      </trkpt>
      <trkpt lat="44.36122" lon="3.41318">
        <ele>502.1</ele>
        <time>2020-08-25T09:58:18.000Z</time>
      </trkpt>
      <trkpt lat="44.3612" lon="3.41315">
        <ele>502.1</ele>
        <time>2020-08-25T09:58:20.000Z</time>
      </trkpt>
      <trkpt lat="44.36116" lon="3.41309">
        <ele>502.2</ele>
        <time>2020-08-25T09:58:22.000Z</time>
      </trkpt>
      <trkpt lat="44.36112" lon="3.41304">
        <ele>502.2</ele>
        <time>2020-08-25T09:58:24.000Z</time>
      </trkpt>
      <trkpt lat="44.36108" lon="3.413">
        <ele>502.6</ele>
        <time>2020-08-25T09:58:26.000Z</time>
      </trkpt>
      <trkpt lat="44.36106" lon="3.41298">
        <ele>502.8</ele>
        <time>2020-08-25T09:58:27.000Z</time>
      </trkpt>
      <trkpt lat="44.36103" lon="3.41295">
        <ele>503.1</ele>
        <time>2020-08-25T09:58:29.000Z</time>
      </trkpt>
      <trkpt lat="44.361" lon="3.41293">
        <ele>503.3</ele>
        <time>2020-08-25T09:58:30.000Z</time>
      </trkpt>
      <trkpt lat="44.36099" lon="3.41292">
        <ele>503.4</ele>
        <time>2020-08-25T09:58:31.000Z</time>
      </trkpt>
      <trkpt lat="44.36097" lon="3.41291">
        <ele>503.5</ele>
        <time>2020-08-25T09:58:32.000Z</time>
      </trkpt>
      <trkpt lat="44.36093" lon="3.41287">
        <ele>503.8</ele>
        <time>2020-08-25T09:58:34.000Z</time>
      </trkpt>
      <trkpt lat="44.3609" lon="3.41282">
        <ele>504.1</ele>
        <time>2020-08-25T09:58:36.000Z</time>
      </trkpt>
      <trkpt lat="44.36087" lon="3.41278">
        <ele>504.4</ele>
        <time>2020-08-25T09:58:38.000Z</time>
      </trkpt>
      <trkpt lat="44.36084" lon="3.41273">
        <ele>504.6</ele>
        <time>2020-08-25T09:58:40.000Z</time>
      </trkpt>
      <trkpt lat="44.36083" lon="3.4127">
        <ele>504.7</ele>
        <time>2020-08-25T09:58:41.000Z</time>
      </trkpt>
      <trkpt lat="44.36081" lon="3.41265">
        <ele>505</ele>
        <time>2020-08-25T09:58:43.000Z</time>
      </trkpt>
      <trkpt lat="44.36079" lon="3.41262">
        <ele>505.2</ele>
        <time>2020-08-25T09:58:44.000Z</time>
      </trkpt>
      <trkpt lat="44.36076" lon="3.41257">
        <ele>505.5</ele>
        <time>2020-08-25T09:58:46.000Z</time>
      </trkpt>
      <trkpt lat="44.36074" lon="3.41252">
        <ele>505.7</ele>
        <time>2020-08-25T09:58:48.000Z</time>
      </trkpt>
      <trkpt lat="44.36071" lon="3.41247">
        <ele>506</ele>
        <time>2020-08-25T09:58:50.000Z</time>
      </trkpt>
      <trkpt lat="44.36069" lon="3.41245">
        <ele>506.1</ele>
        <time>2020-08-25T09:58:51.000Z</time>
      </trkpt>
      <trkpt lat="44.36068" lon="3.41243">
        <ele>506.2</ele>
        <time>2020-08-25T09:58:52.000Z</time>
      </trkpt>
      <trkpt lat="44.36067" lon="3.41241">
        <ele>506.3</ele>
        <time>2020-08-25T09:58:53.000Z</time>
      </trkpt>
      <trkpt lat="44.36065" lon="3.41237">
        <ele>506.6</ele>
        <time>2020-08-25T09:58:55.000Z</time>
      </trkpt>
      <trkpt lat="44.36063" lon="3.41235">
        <ele>506.7</ele>
        <time>2020-08-25T09:58:56.000Z</time>
      </trkpt>
      <trkpt lat="44.3606" lon="3.41231">
        <ele>506.9</ele>
        <time>2020-08-25T09:58:58.000Z</time>
      </trkpt>
      <trkpt lat="44.36059" lon="3.41228">
        <ele>507.1</ele>
        <time>2020-08-25T09:58:59.000Z</time>
      </trkpt>
      <trkpt lat="44.36056" lon="3.41224">
        <ele>507.3</ele>
        <time>2020-08-25T09:59:01.000Z</time>
      </trkpt>
      <trkpt lat="44.36053" lon="3.4122">
        <ele>507.6</ele>
        <time>2020-08-25T09:59:03.000Z</time>
      </trkpt>
      <trkpt lat="44.3605" lon="3.41216">
        <ele>507.8</ele>
        <time>2020-08-25T09:59:05.000Z</time>
      </trkpt>
      <trkpt lat="44.36049" lon="3.41214">
        <ele>507.9</ele>
        <time>2020-08-25T09:59:06.000Z</time>
      </trkpt>
      <trkpt lat="44.36048" lon="3.41212">
        <ele>508</ele>
        <time>2020-08-25T09:59:07.000Z</time>
      </trkpt>
      <trkpt lat="44.36045" lon="3.41207">
        <ele>508.3</ele>
        <time>2020-08-25T09:59:09.000Z</time>
      </trkpt>
      <trkpt lat="44.36043" lon="3.41204">
        <ele>508.4</ele>
        <time>2020-08-25T09:59:10.000Z</time>
      </trkpt>
      <trkpt lat="44.36041" lon="3.412">
        <ele>508.5</ele>
        <time>2020-08-25T09:59:12.000Z</time>
      </trkpt>
      <trkpt lat="44.36039" lon="3.41197">
        <ele>508.6</ele>
        <time>2020-08-25T09:59:13.000Z</time>
      </trkpt>
      <trkpt lat="44.36039" lon="3.41196">
        <ele>508.6</ele>
        <time>2020-08-25T09:59:14.000Z</time>
      </trkpt>
      <trkpt lat="44.36035" lon="3.4119">
        <ele>508.8</ele>
        <time>2020-08-25T09:59:16.000Z</time>
      </trkpt>
      <trkpt lat="44.36033" lon="3.41188">
        <ele>508.8</ele>
        <time>2020-08-25T09:59:17.000Z</time>
      </trkpt>
      <trkpt lat="44.3603" lon="3.41183">
        <ele>508.9</ele>
        <time>2020-08-25T09:59:19.000Z</time>
      </trkpt>
      <trkpt lat="44.36027" lon="3.41179">
        <ele>509.1</ele>
        <time>2020-08-25T09:59:21.000Z</time>
      </trkpt>
      <trkpt lat="44.36025" lon="3.41176">
        <ele>509.2</ele>
        <time>2020-08-25T09:59:22.000Z</time>
      </trkpt>
      <trkpt lat="44.36024" lon="3.41175">
        <ele>509.3</ele>
        <time>2020-08-25T09:59:23.000Z</time>
      </trkpt>
      <trkpt lat="44.36023" lon="3.41173">
        <ele>509.4</ele>
        <time>2020-08-25T09:59:24.000Z</time>
      </trkpt>
      <trkpt lat="44.3602" lon="3.41169">
        <ele>509.6</ele>
        <time>2020-08-25T09:59:26.000Z</time>
      </trkpt>
      <trkpt lat="44.36018" lon="3.41165">
        <ele>509.7</ele>
        <time>2020-08-25T09:59:27.000Z</time>
      </trkpt>
      <trkpt lat="44.36017" lon="3.41164">
        <ele>509.7</ele>
        <time>2020-08-25T09:59:28.000Z</time>
      </trkpt>
      <trkpt lat="44.36015" lon="3.41159">
        <ele>510.1</ele>
        <time>2020-08-25T09:59:30.000Z</time>
      </trkpt>
      <trkpt lat="44.36014" lon="3.41156">
        <ele>510.3</ele>
        <time>2020-08-25T09:59:31.000Z</time>
      </trkpt>
      <trkpt lat="44.36012" lon="3.41151">
        <ele>510.7</ele>
        <time>2020-08-25T09:59:33.000Z</time>
      </trkpt>
      <trkpt lat="44.36009" lon="3.41145">
        <ele>511.1</ele>
        <time>2020-08-25T09:59:35.000Z</time>
      </trkpt>
      <trkpt lat="44.36008" lon="3.4114">
        <ele>511.4</ele>
        <time>2020-08-25T09:59:37.000Z</time>
      </trkpt>
      <trkpt lat="44.36007" lon="3.41137">
        <ele>511.5</ele>
        <time>2020-08-25T09:59:38.000Z</time>
      </trkpt>
      <trkpt lat="44.36006" lon="3.41131">
        <ele>511.8</ele>
        <time>2020-08-25T09:59:40.000Z</time>
      </trkpt>
      <trkpt lat="44.36005" lon="3.41127">
        <ele>512.1</ele>
        <time>2020-08-25T09:59:41.000Z</time>
      </trkpt>
      <trkpt lat="44.36004" lon="3.41125">
        <ele>512.2</ele>
        <time>2020-08-25T09:59:42.000Z</time>
      </trkpt>
      <trkpt lat="44.36003" lon="3.4112">
        <ele>512.5</ele>
        <time>2020-08-25T09:59:44.000Z</time>
      </trkpt>
      <trkpt lat="44.36002" lon="3.41114">
        <ele>512.8</ele>
        <time>2020-08-25T09:59:46.000Z</time>
      </trkpt>
      <trkpt lat="44.36001" lon="3.41109">
        <ele>513.1</ele>
        <time>2020-08-25T09:59:48.000Z</time>
      </trkpt>
      <trkpt lat="44.36" lon="3.41106">
        <ele>513.2</ele>
        <time>2020-08-25T09:59:49.000Z</time>
      </trkpt>
      <trkpt lat="44.35998" lon="3.411">
        <ele>513.6</ele>
        <time>2020-08-25T09:59:51.000Z</time>
      </trkpt>
      <trkpt lat="44.35996" lon="3.41094">
        <ele>513.9</ele>
        <time>2020-08-25T09:59:53.000Z</time>
      </trkpt>
      <trkpt lat="44.35996" lon="3.41091">
        <ele>514.1</ele>
        <time>2020-08-25T09:59:54.000Z</time>
      </trkpt>
      <trkpt lat="44.35994" lon="3.41086">
        <ele>514.4</ele>
        <time>2020-08-25T09:59:56.000Z</time>
      </trkpt>
      <trkpt lat="44.35993" lon="3.41083">
        <ele>514.5</ele>
        <time>2020-08-25T09:59:57.000Z</time>
      </trkpt>
      <trkpt lat="44.35993" lon="3.41081">
        <ele>514.6</ele>
        <time>2020-08-25T09:59:58.000Z</time>
      </trkpt>
      <trkpt lat="44.35992" lon="3.41078">
        <ele>514.8</ele>
        <time>2020-08-25T09:59:59.000Z</time>
      </trkpt>
      <trkpt lat="44.35992" lon="3.41077">
        <ele>514.9</ele>
        <time>2020-08-25T10:00:00.000Z</time>
      </trkpt>
      <trkpt lat="44.3599" lon="3.41073">
        <ele>515.1</ele>
        <time>2020-08-25T10:00:01.000Z</time>
      </trkpt>
      <trkpt lat="44.35989" lon="3.41072">
        <ele>515.2</ele>
        <time>2020-08-25T10:00:02.000Z</time>
      </trkpt>
      <trkpt lat="44.35988" lon="3.41066">
        <ele>515.4</ele>
        <time>2020-08-25T10:00:04.000Z</time>
      </trkpt>
      <trkpt lat="44.35985" lon="3.41061">
        <ele>515.8</ele>
        <time>2020-08-25T10:00:06.000Z</time>
      </trkpt>
      <trkpt lat="44.35984" lon="3.41057">
        <ele>516</ele>
        <time>2020-08-25T10:00:07.000Z</time>
      </trkpt>
      <trkpt lat="44.35983" lon="3.41056">
        <ele>516.1</ele>
        <time>2020-08-25T10:00:08.000Z</time>
      </trkpt>
      <trkpt lat="44.35981" lon="3.41051">
        <ele>516.4</ele>
        <time>2020-08-25T10:00:10.000Z</time>
      </trkpt>
      <trkpt lat="44.35979" lon="3.41048">
        <ele>516.6</ele>
        <time>2020-08-25T10:00:11.000Z</time>
      </trkpt>
      <trkpt lat="44.35978" lon="3.41047">
        <ele>516.7</ele>
        <time>2020-08-25T10:00:12.000Z</time>
      </trkpt>
      <trkpt lat="44.35977" lon="3.41044">
        <ele>516.8</ele>
        <time>2020-08-25T10:00:13.000Z</time>
      </trkpt>
      <trkpt lat="44.35976" lon="3.4104">
        <ele>517.1</ele>
        <time>2020-08-25T10:00:15.000Z</time>
      </trkpt>
      <trkpt lat="44.35973" lon="3.41035">
        <ele>517.4</ele>
        <time>2020-08-25T10:00:17.000Z</time>
      </trkpt>
      <trkpt lat="44.35971" lon="3.41032">
        <ele>517.6</ele>
        <time>2020-08-25T10:00:18.000Z</time>
      </trkpt>
      <trkpt lat="44.35971" lon="3.41031">
        <ele>517.6</ele>
        <time>2020-08-25T10:00:19.000Z</time>
      </trkpt>
      <trkpt lat="44.35968" lon="3.41028">
        <ele>517.9</ele>
        <time>2020-08-25T10:00:21.000Z</time>
      </trkpt>
      <trkpt lat="44.35966" lon="3.41026">
        <ele>518.1</ele>
        <time>2020-08-25T10:00:22.000Z</time>
      </trkpt>
      <trkpt lat="44.35963" lon="3.41023">
        <ele>518.3</ele>
        <time>2020-08-25T10:00:24.000Z</time>
      </trkpt>
      <trkpt lat="44.35958" lon="3.4102">
        <ele>518.7</ele>
        <time>2020-08-25T10:00:26.000Z</time>
      </trkpt>
      <trkpt lat="44.35957" lon="3.41019">
        <ele>518.9</ele>
        <time>2020-08-25T10:00:27.000Z</time>
      </trkpt>
      <trkpt lat="44.35953" lon="3.41017">
        <ele>519.1</ele>
        <time>2020-08-25T10:00:29.000Z</time>
      </trkpt>
      <trkpt lat="44.3595" lon="3.41015">
        <ele>519.4</ele>
        <time>2020-08-25T10:00:31.000Z</time>
      </trkpt>
      <trkpt lat="44.35947" lon="3.41013">
        <ele>519.6</ele>
        <time>2020-08-25T10:00:32.000Z</time>
      </trkpt>
      <trkpt lat="44.35946" lon="3.41013">
        <ele>519.7</ele>
        <time>2020-08-25T10:00:33.000Z</time>
      </trkpt>
      <trkpt lat="44.35942" lon="3.41011">
        <ele>520</ele>
        <time>2020-08-25T10:00:35.000Z</time>
      </trkpt>
      <trkpt lat="44.35939" lon="3.41007">
        <ele>520.3</ele>
        <time>2020-08-25T10:00:37.000Z</time>
      </trkpt>
      <trkpt lat="44.35937" lon="3.41005">
        <ele>520.5</ele>
        <time>2020-08-25T10:00:38.000Z</time>
      </trkpt>
      <trkpt lat="44.35934" lon="3.41001">
        <ele>520.8</ele>
        <time>2020-08-25T10:00:40.000Z</time>
      </trkpt>
      <trkpt lat="44.35932" lon="3.40996">
        <ele>521.1</ele>
        <time>2020-08-25T10:00:42.000Z</time>
      </trkpt>
      <trkpt lat="44.3593" lon="3.40991">
        <ele>521.4</ele>
        <time>2020-08-25T10:00:44.000Z</time>
      </trkpt>
      <trkpt lat="44.35929" lon="3.40989">
        <ele>521.5</ele>
        <time>2020-08-25T10:00:45.000Z</time>
      </trkpt>
      <trkpt lat="44.35928" lon="3.40984">
        <ele>521.8</ele>
        <time>2020-08-25T10:00:47.000Z</time>
      </trkpt>
      <trkpt lat="44.35927" lon="3.4098">
        <ele>522.1</ele>
        <time>2020-08-25T10:00:48.000Z</time>
      </trkpt>
      <trkpt lat="44.35926" lon="3.40978">
        <ele>522.1</ele>
        <time>2020-08-25T10:00:49.000Z</time>
      </trkpt>
      <trkpt lat="44.35925" lon="3.40973">
        <ele>522.4</ele>
        <time>2020-08-25T10:00:51.000Z</time>
      </trkpt>
      <trkpt lat="44.35924" lon="3.4097">
        <ele>522.6</ele>
        <time>2020-08-25T10:00:52.000Z</time>
      </trkpt>
      <trkpt lat="44.35923" lon="3.40965">
        <ele>522.9</ele>
        <time>2020-08-25T10:00:54.000Z</time>
      </trkpt>
      <trkpt lat="44.35921" lon="3.40959">
        <ele>523.2</ele>
        <time>2020-08-25T10:00:56.000Z</time>
      </trkpt>
      <trkpt lat="44.3592" lon="3.40954">
        <ele>523.5</ele>
        <time>2020-08-25T10:00:58.000Z</time>
      </trkpt>
      <trkpt lat="44.35919" lon="3.4095">
        <ele>523.8</ele>
        <time>2020-08-25T10:00:59.000Z</time>
      </trkpt>
      <trkpt lat="44.35919" lon="3.40948">
        <ele>523.9</ele>
        <time>2020-08-25T10:01:00.000Z</time>
      </trkpt>
      <trkpt lat="44.35918" lon="3.40943">
        <ele>524.2</ele>
        <time>2020-08-25T10:01:02.000Z</time>
      </trkpt>
      <trkpt lat="44.35917" lon="3.40939">
        <ele>524.4</ele>
        <time>2020-08-25T10:01:03.000Z</time>
      </trkpt>
      <trkpt lat="44.35916" lon="3.40938">
        <ele>524.5</ele>
        <time>2020-08-25T10:01:04.000Z</time>
      </trkpt>
      <trkpt lat="44.35915" lon="3.40935">
        <ele>524.7</ele>
        <time>2020-08-25T10:01:05.000Z</time>
      </trkpt>
      <trkpt lat="44.35914" lon="3.40931">
        <ele>525</ele>
        <time>2020-08-25T10:01:07.000Z</time>
      </trkpt>
      <trkpt lat="44.35912" lon="3.40926">
        <ele>525.2</ele>
        <time>2020-08-25T10:01:08.000Z</time>
      </trkpt>
      <trkpt lat="44.35912" lon="3.40925">
        <ele>525.3</ele>
        <time>2020-08-25T10:01:09.000Z</time>
      </trkpt>
      <trkpt lat="44.3591" lon="3.40921">
        <ele>525.5</ele>
        <time>2020-08-25T10:01:11.000Z</time>
      </trkpt>
      <trkpt lat="44.35908" lon="3.40916">
        <ele>525.8</ele>
        <time>2020-08-25T10:01:13.000Z</time>
      </trkpt>
      <trkpt lat="44.35906" lon="3.40914">
        <ele>526</ele>
        <time>2020-08-25T10:01:14.000Z</time>
      </trkpt>
      <trkpt lat="44.35905" lon="3.40911">
        <ele>526.1</ele>
        <time>2020-08-25T10:01:16.000Z</time>
      </trkpt>
      <trkpt lat="44.35902" lon="3.40908">
        <ele>526.4</ele>
        <time>2020-08-25T10:01:17.000Z</time>
      </trkpt>
      <trkpt lat="44.35899" lon="3.40905">
        <ele>526.6</ele>
        <time>2020-08-25T10:01:19.000Z</time>
      </trkpt>
      <trkpt lat="44.35897" lon="3.40903">
        <ele>526.7</ele>
        <time>2020-08-25T10:01:20.000Z</time>
      </trkpt>
      <trkpt lat="44.35893" lon="3.40899">
        <ele>527.3</ele>
        <time>2020-08-25T10:01:22.000Z</time>
      </trkpt>
      <trkpt lat="44.35891" lon="3.40897">
        <ele>527.9</ele>
        <time>2020-08-25T10:01:24.000Z</time>
      </trkpt>
      <trkpt lat="44.35889" lon="3.40895">
        <ele>528.3</ele>
        <time>2020-08-25T10:01:25.000Z</time>
      </trkpt>
      <trkpt lat="44.35886" lon="3.40893">
        <ele>528.9</ele>
        <time>2020-08-25T10:01:27.000Z</time>
      </trkpt>
      <trkpt lat="44.35883" lon="3.4089">
        <ele>529.3</ele>
        <time>2020-08-25T10:01:29.000Z</time>
      </trkpt>
      <trkpt lat="44.35881" lon="3.40889">
        <ele>529.5</ele>
        <time>2020-08-25T10:01:30.000Z</time>
      </trkpt>
      <trkpt lat="44.35878" lon="3.40886">
        <ele>529.8</ele>
        <time>2020-08-25T10:01:32.000Z</time>
      </trkpt>
      <trkpt lat="44.35876" lon="3.40885">
        <ele>530</ele>
        <time>2020-08-25T10:01:33.000Z</time>
      </trkpt>
      <trkpt lat="44.35873" lon="3.40883">
        <ele>530.3</ele>
        <time>2020-08-25T10:01:35.000Z</time>
      </trkpt>
      <trkpt lat="44.35871" lon="3.40882">
        <ele>530.4</ele>
        <time>2020-08-25T10:01:36.000Z</time>
      </trkpt>
      <trkpt lat="44.35867" lon="3.4088">
        <ele>530.6</ele>
        <time>2020-08-25T10:01:38.000Z</time>
      </trkpt>
      <trkpt lat="44.35865" lon="3.40878">
        <ele>530.8</ele>
        <time>2020-08-25T10:01:39.000Z</time>
      </trkpt>
      <trkpt lat="44.35864" lon="3.40878">
        <ele>530.8</ele>
        <time>2020-08-25T10:01:40.000Z</time>
      </trkpt>
      <trkpt lat="44.35861" lon="3.40876">
        <ele>531</ele>
        <time>2020-08-25T10:01:41.000Z</time>
      </trkpt>
      <trkpt lat="44.35861" lon="3.40876">
        <ele>531</ele>
        <time>2020-08-25T10:01:42.000Z</time>
      </trkpt>
      <trkpt lat="44.35858" lon="3.40875">
        <ele>531.2</ele>
        <time>2020-08-25T10:01:43.000Z</time>
      </trkpt>
      <trkpt lat="44.35857" lon="3.40874">
        <ele>531.3</ele>
        <time>2020-08-25T10:01:44.000Z</time>
      </trkpt>
      <trkpt lat="44.35853" lon="3.40872">
        <ele>531.5</ele>
        <time>2020-08-25T10:01:46.000Z</time>
      </trkpt>
      <trkpt lat="44.35849" lon="3.4087">
        <ele>531.8</ele>
        <time>2020-08-25T10:01:48.000Z</time>
      </trkpt>
      <trkpt lat="44.35846" lon="3.40868">
        <ele>532</ele>
        <time>2020-08-25T10:01:50.000Z</time>
      </trkpt>
      <trkpt lat="44.35842" lon="3.40866">
        <ele>532.3</ele>
        <time>2020-08-25T10:01:52.000Z</time>
      </trkpt>
      <trkpt lat="44.3584" lon="3.40864">
        <ele>532.5</ele>
        <time>2020-08-25T10:01:53.000Z</time>
      </trkpt>
      <trkpt lat="44.35835" lon="3.40861">
        <ele>532.8</ele>
        <time>2020-08-25T10:01:55.000Z</time>
      </trkpt>
      <trkpt lat="44.35832" lon="3.40859">
        <ele>533</ele>
        <time>2020-08-25T10:01:57.000Z</time>
      </trkpt>
      <trkpt lat="44.35828" lon="3.40857">
        <ele>533.3</ele>
        <time>2020-08-25T10:01:59.000Z</time>
      </trkpt>
      <trkpt lat="44.35826" lon="3.40856">
        <ele>533.4</ele>
        <time>2020-08-25T10:02:00.000Z</time>
      </trkpt>
      <trkpt lat="44.35822" lon="3.40854">
        <ele>533.7</ele>
        <time>2020-08-25T10:02:02.000Z</time>
      </trkpt>
      <trkpt lat="44.3582" lon="3.40852">
        <ele>533.9</ele>
        <time>2020-08-25T10:02:03.000Z</time>
      </trkpt>
      <trkpt lat="44.35817" lon="3.40849">
        <ele>534.1</ele>
        <time>2020-08-25T10:02:05.000Z</time>
      </trkpt>
      <trkpt lat="44.35813" lon="3.40847">
        <ele>534.4</ele>
        <time>2020-08-25T10:02:07.000Z</time>
      </trkpt>
      <trkpt lat="44.3581" lon="3.40845">
        <ele>534.6</ele>
        <time>2020-08-25T10:02:09.000Z</time>
      </trkpt>
      <trkpt lat="44.35807" lon="3.40843">
        <ele>534.8</ele>
        <time>2020-08-25T10:02:10.000Z</time>
      </trkpt>
      <trkpt lat="44.35806" lon="3.40842">
        <ele>534.9</ele>
        <time>2020-08-25T10:02:11.000Z</time>
      </trkpt>
      <trkpt lat="44.35803" lon="3.40839">
        <ele>535.2</ele>
        <time>2020-08-25T10:02:13.000Z</time>
      </trkpt>
      <trkpt lat="44.35798" lon="3.40836">
        <ele>535.5</ele>
        <time>2020-08-25T10:02:15.000Z</time>
      </trkpt>
      <trkpt lat="44.35795" lon="3.40834">
        <ele>535.7</ele>
        <time>2020-08-25T10:02:17.000Z</time>
      </trkpt>
      <trkpt lat="44.35792" lon="3.40832">
        <ele>535.9</ele>
        <time>2020-08-25T10:02:19.000Z</time>
      </trkpt>
      <trkpt lat="44.35789" lon="3.4083">
        <ele>536.1</ele>
        <time>2020-08-25T10:02:20.000Z</time>
      </trkpt>
      <trkpt lat="44.35786" lon="3.40828">
        <ele>536.3</ele>
        <time>2020-08-25T10:02:22.000Z</time>
      </trkpt>
      <trkpt lat="44.35783" lon="3.40826">
        <ele>536.5</ele>
        <time>2020-08-25T10:02:24.000Z</time>
      </trkpt>
      <trkpt lat="44.35779" lon="3.40824">
        <ele>536.7</ele>
        <time>2020-08-25T10:02:26.000Z</time>
      </trkpt>
      <trkpt lat="44.35777" lon="3.40823">
        <ele>536.8</ele>
        <time>2020-08-25T10:02:27.000Z</time>
      </trkpt>
      <trkpt lat="44.35774" lon="3.4082">
        <ele>537.1</ele>
        <time>2020-08-25T10:02:29.000Z</time>
      </trkpt>
      <trkpt lat="44.35772" lon="3.40819">
        <ele>537.2</ele>
        <time>2020-08-25T10:02:30.000Z</time>
      </trkpt>
      <trkpt lat="44.35768" lon="3.40816">
        <ele>537.6</ele>
        <time>2020-08-25T10:02:32.000Z</time>
      </trkpt>
      <trkpt lat="44.35767" lon="3.40815">
        <ele>537.7</ele>
        <time>2020-08-25T10:02:33.000Z</time>
      </trkpt>
      <trkpt lat="44.35763" lon="3.40814">
        <ele>538</ele>
        <time>2020-08-25T10:02:35.000Z</time>
      </trkpt>
      <trkpt lat="44.35761" lon="3.40813">
        <ele>538.2</ele>
        <time>2020-08-25T10:02:36.000Z</time>
      </trkpt>
      <trkpt lat="44.35757" lon="3.40811">
        <ele>538.5</ele>
        <time>2020-08-25T10:02:38.000Z</time>
      </trkpt>
      <trkpt lat="44.35754" lon="3.40809">
        <ele>538.7</ele>
        <time>2020-08-25T10:02:39.000Z</time>
      </trkpt>
      <trkpt lat="44.35751" lon="3.40808">
        <ele>538.9</ele>
        <time>2020-08-25T10:02:41.000Z</time>
      </trkpt>
      <trkpt lat="44.35749" lon="3.40807">
        <ele>539.1</ele>
        <time>2020-08-25T10:02:42.000Z</time>
      </trkpt>
      <trkpt lat="44.35745" lon="3.40806">
        <ele>539.3</ele>
        <time>2020-08-25T10:02:44.000Z</time>
      </trkpt>
      <trkpt lat="44.35743" lon="3.40805">
        <ele>539.5</ele>
        <time>2020-08-25T10:02:45.000Z</time>
      </trkpt>
      <trkpt lat="44.35741" lon="3.40804">
        <ele>539.6</ele>
        <time>2020-08-25T10:02:46.000Z</time>
      </trkpt>
      <trkpt lat="44.35737" lon="3.40803">
        <ele>539.8</ele>
        <time>2020-08-25T10:02:48.000Z</time>
      </trkpt>
      <trkpt lat="44.35734" lon="3.40802">
        <ele>540</ele>
        <time>2020-08-25T10:02:49.000Z</time>
      </trkpt>
      <trkpt lat="44.35733" lon="3.40801">
        <ele>540.1</ele>
        <time>2020-08-25T10:02:50.000Z</time>
      </trkpt>
      <trkpt lat="44.35729" lon="3.408">
        <ele>540.4</ele>
        <time>2020-08-25T10:02:52.000Z</time>
      </trkpt>
      <trkpt lat="44.35728" lon="3.40798">
        <ele>540.5</ele>
        <time>2020-08-25T10:02:53.000Z</time>
      </trkpt>
      <trkpt lat="44.35724" lon="3.40797">
        <ele>540.8</ele>
        <time>2020-08-25T10:02:55.000Z</time>
      </trkpt>
      <trkpt lat="44.3572" lon="3.40795">
        <ele>541</ele>
        <time>2020-08-25T10:02:57.000Z</time>
      </trkpt>
      <trkpt lat="44.35717" lon="3.40794">
        <ele>541.2</ele>
        <time>2020-08-25T10:02:58.000Z</time>
      </trkpt>
      <trkpt lat="44.35714" lon="3.40793">
        <ele>541.4</ele>
        <time>2020-08-25T10:03:00.000Z</time>
      </trkpt>
      <trkpt lat="44.35711" lon="3.40792">
        <ele>541.6</ele>
        <time>2020-08-25T10:03:02.000Z</time>
      </trkpt>
      <trkpt lat="44.3571" lon="3.40791">
        <ele>541.7</ele>
        <time>2020-08-25T10:03:03.000Z</time>
      </trkpt>
      <trkpt lat="44.35706" lon="3.40787">
        <ele>542</ele>
        <time>2020-08-25T10:03:05.000Z</time>
      </trkpt>
      <trkpt lat="44.35703" lon="3.40786">
        <ele>542.2</ele>
        <time>2020-08-25T10:03:07.000Z</time>
      </trkpt>
      <trkpt lat="44.35699" lon="3.40785">
        <ele>542.4</ele>
        <time>2020-08-25T10:03:09.000Z</time>
      </trkpt>
      <trkpt lat="44.35696" lon="3.40784">
        <ele>542.6</ele>
        <time>2020-08-25T10:03:10.000Z</time>
      </trkpt>
      <trkpt lat="44.35693" lon="3.40782">
        <ele>542.8</ele>
        <time>2020-08-25T10:03:12.000Z</time>
      </trkpt>
      <trkpt lat="44.3569" lon="3.4078">
        <ele>543</ele>
        <time>2020-08-25T10:03:13.000Z</time>
      </trkpt>
      <trkpt lat="44.35689" lon="3.4078">
        <ele>543</ele>
        <time>2020-08-25T10:03:14.000Z</time>
      </trkpt>
      <trkpt lat="44.35684" lon="3.40778">
        <ele>543.3</ele>
        <time>2020-08-25T10:03:16.000Z</time>
      </trkpt>
      <trkpt lat="44.35683" lon="3.40777">
        <ele>543.4</ele>
        <time>2020-08-25T10:03:17.000Z</time>
      </trkpt>
      <trkpt lat="44.35679" lon="3.40775">
        <ele>543.6</ele>
        <time>2020-08-25T10:03:19.000Z</time>
      </trkpt>
      <trkpt lat="44.35675" lon="3.40774">
        <ele>543.8</ele>
        <time>2020-08-25T10:03:21.000Z</time>
      </trkpt>
      <trkpt lat="44.35672" lon="3.40772">
        <ele>544</ele>
        <time>2020-08-25T10:03:22.000Z</time>
      </trkpt>
      <trkpt lat="44.35671" lon="3.40772">
        <ele>544.1</ele>
        <time>2020-08-25T10:03:23.000Z</time>
      </trkpt>
      <trkpt lat="44.35667" lon="3.40771">
        <ele>544.3</ele>
        <time>2020-08-25T10:03:25.000Z</time>
      </trkpt>
      <trkpt lat="44.35665" lon="3.4077">
        <ele>544.5</ele>
        <time>2020-08-25T10:03:26.000Z</time>
      </trkpt>
      <trkpt lat="44.35661" lon="3.40768">
        <ele>544.7</ele>
        <time>2020-08-25T10:03:28.000Z</time>
      </trkpt>
      <trkpt lat="44.35657" lon="3.40765">
        <ele>544.9</ele>
        <time>2020-08-25T10:03:30.000Z</time>
      </trkpt>
      <trkpt lat="44.35655" lon="3.40765">
        <ele>545.1</ele>
        <time>2020-08-25T10:03:31.000Z</time>
      </trkpt>
      <trkpt lat="44.35652" lon="3.40763">
        <ele>545.3</ele>
        <time>2020-08-25T10:03:33.000Z</time>
      </trkpt>
      <trkpt lat="44.3565" lon="3.40763">
        <ele>545.4</ele>
        <time>2020-08-25T10:03:34.000Z</time>
      </trkpt>
      <trkpt lat="44.35646" lon="3.40761">
        <ele>545.7</ele>
        <time>2020-08-25T10:03:36.000Z</time>
      </trkpt>
      <trkpt lat="44.35644" lon="3.4076">
        <ele>545.8</ele>
        <time>2020-08-25T10:03:37.000Z</time>
      </trkpt>
      <trkpt lat="44.3564" lon="3.40758">
        <ele>546</ele>
        <time>2020-08-25T10:03:39.000Z</time>
      </trkpt>
      <trkpt lat="44.35639" lon="3.40757">
        <ele>546.1</ele>
        <time>2020-08-25T10:03:40.000Z</time>
      </trkpt>
      <trkpt lat="44.35635" lon="3.40754">
        <ele>546.4</ele>
        <time>2020-08-25T10:03:42.000Z</time>
      </trkpt>
      <trkpt lat="44.35632" lon="3.40752">
        <ele>546.7</ele>
        <time>2020-08-25T10:03:44.000Z</time>
      </trkpt>
      <trkpt lat="44.35629" lon="3.40751">
        <ele>546.9</ele>
        <time>2020-08-25T10:03:45.000Z</time>
      </trkpt>
      <trkpt lat="44.35628" lon="3.4075">
        <ele>547</ele>
        <time>2020-08-25T10:03:46.000Z</time>
      </trkpt>
      <trkpt lat="44.35623" lon="3.40748">
        <ele>547.4</ele>
        <time>2020-08-25T10:03:48.000Z</time>
      </trkpt>
      <trkpt lat="44.35622" lon="3.40747">
        <ele>547.5</ele>
        <time>2020-08-25T10:03:49.000Z</time>
      </trkpt>
      <trkpt lat="44.35619" lon="3.40746">
        <ele>547.8</ele>
        <time>2020-08-25T10:03:51.000Z</time>
      </trkpt>
      <trkpt lat="44.35615" lon="3.40744">
        <ele>548</ele>
        <time>2020-08-25T10:03:53.000Z</time>
      </trkpt>
      <trkpt lat="44.35611" lon="3.40742">
        <ele>548.4</ele>
        <time>2020-08-25T10:03:55.000Z</time>
      </trkpt>
      <trkpt lat="44.35607" lon="3.4074">
        <ele>548.6</ele>
        <time>2020-08-25T10:03:57.000Z</time>
      </trkpt>
      <trkpt lat="44.35605" lon="3.40739">
        <ele>548.8</ele>
        <time>2020-08-25T10:03:58.000Z</time>
      </trkpt>
      <trkpt lat="44.35601" lon="3.40737">
        <ele>549.1</ele>
        <time>2020-08-25T10:04:00.000Z</time>
      </trkpt>
      <trkpt lat="44.35598" lon="3.40735">
        <ele>549.3</ele>
        <time>2020-08-25T10:04:02.000Z</time>
      </trkpt>
      <trkpt lat="44.35596" lon="3.40734">
        <ele>549.4</ele>
        <time>2020-08-25T10:04:03.000Z</time>
      </trkpt>
      <trkpt lat="44.35593" lon="3.40733">
        <ele>549.6</ele>
        <time>2020-08-25T10:04:05.000Z</time>
      </trkpt>
      <trkpt lat="44.35589" lon="3.40731">
        <ele>549.8</ele>
        <time>2020-08-25T10:04:07.000Z</time>
      </trkpt>
      <trkpt lat="44.35588" lon="3.4073">
        <ele>549.9</ele>
        <time>2020-08-25T10:04:08.000Z</time>
      </trkpt>
      <trkpt lat="44.35584" lon="3.40728">
        <ele>550.2</ele>
        <time>2020-08-25T10:04:10.000Z</time>
      </trkpt>
      <trkpt lat="44.35582" lon="3.40728">
        <ele>550.3</ele>
        <time>2020-08-25T10:04:11.000Z</time>
      </trkpt>
      <trkpt lat="44.35578" lon="3.40726">
        <ele>550.6</ele>
        <time>2020-08-25T10:04:13.000Z</time>
      </trkpt>
      <trkpt lat="44.35576" lon="3.40726">
        <ele>550.7</ele>
        <time>2020-08-25T10:04:14.000Z</time>
      </trkpt>
      <trkpt lat="44.35573" lon="3.40724">
        <ele>550.9</ele>
        <time>2020-08-25T10:04:16.000Z</time>
      </trkpt>
      <trkpt lat="44.35569" lon="3.40722">
        <ele>551.2</ele>
        <time>2020-08-25T10:04:18.000Z</time>
      </trkpt>
      <trkpt lat="44.35564" lon="3.40721">
        <ele>551.5</ele>
        <time>2020-08-25T10:04:20.000Z</time>
      </trkpt>
      <trkpt lat="44.35561" lon="3.4072">
        <ele>551.7</ele>
        <time>2020-08-25T10:04:22.000Z</time>
      </trkpt>
      <trkpt lat="44.35559" lon="3.4072">
        <ele>551.9</ele>
        <time>2020-08-25T10:04:23.000Z</time>
      </trkpt>
      <trkpt lat="44.35555" lon="3.40719">
        <ele>552</ele>
        <time>2020-08-25T10:04:25.000Z</time>
      </trkpt>
      <trkpt lat="44.35552" lon="3.40719">
        <ele>552.3</ele>
        <time>2020-08-25T10:04:26.000Z</time>
      </trkpt>
      <trkpt lat="44.35548" lon="3.40718">
        <ele>552.5</ele>
        <time>2020-08-25T10:04:28.000Z</time>
      </trkpt>
      <trkpt lat="44.35544" lon="3.40718">
        <ele>552.8</ele>
        <time>2020-08-25T10:04:30.000Z</time>
      </trkpt>
      <trkpt lat="44.35539" lon="3.40718">
        <ele>553</ele>
        <time>2020-08-25T10:04:32.000Z</time>
      </trkpt>
      <trkpt lat="44.35536" lon="3.40717">
        <ele>553.3</ele>
        <time>2020-08-25T10:04:34.000Z</time>
      </trkpt>
      <trkpt lat="44.35532" lon="3.40716">
        <ele>553.5</ele>
        <time>2020-08-25T10:04:36.000Z</time>
      </trkpt>
      <trkpt lat="44.35527" lon="3.40715">
        <ele>553.8</ele>
        <time>2020-08-25T10:04:38.000Z</time>
      </trkpt>
      <trkpt lat="44.35524" lon="3.40713">
        <ele>554</ele>
        <time>2020-08-25T10:04:40.000Z</time>
      </trkpt>
      <trkpt lat="44.35523" lon="3.40713">
        <ele>554.1</ele>
        <time>2020-08-25T10:04:41.000Z</time>
      </trkpt>
      <trkpt lat="44.35521" lon="3.40712">
        <ele>554.2</ele>
        <time>2020-08-25T10:04:42.000Z</time>
      </trkpt>
      <trkpt lat="44.35516" lon="3.40709">
        <ele>554.5</ele>
        <time>2020-08-25T10:04:44.000Z</time>
      </trkpt>
      <trkpt lat="44.35513" lon="3.40707">
        <ele>554.7</ele>
        <time>2020-08-25T10:04:46.000Z</time>
      </trkpt>
      <trkpt lat="44.3551" lon="3.40705">
        <ele>555</ele>
        <time>2020-08-25T10:04:48.000Z</time>
      </trkpt>
      <trkpt lat="44.35508" lon="3.40704">
        <ele>555.1</ele>
        <time>2020-08-25T10:04:49.000Z</time>
      </trkpt>
      <trkpt lat="44.35504" lon="3.40701">
        <ele>555.4</ele>
        <time>2020-08-25T10:04:51.000Z</time>
      </trkpt>
      <trkpt lat="44.35502" lon="3.40699">
        <ele>555.6</ele>
        <time>2020-08-25T10:04:52.000Z</time>
      </trkpt>
      <trkpt lat="44.35501" lon="3.40698">
        <ele>555.6</ele>
        <time>2020-08-25T10:04:53.000Z</time>
      </trkpt>
      <trkpt lat="44.35498" lon="3.40693">
        <ele>555.9</ele>
        <time>2020-08-25T10:04:55.000Z</time>
      </trkpt>
      <trkpt lat="44.35495" lon="3.40689">
        <ele>556.2</ele>
        <time>2020-08-25T10:04:57.000Z</time>
      </trkpt>
      <trkpt lat="44.35491" lon="3.40686">
        <ele>556.4</ele>
        <time>2020-08-25T10:04:59.000Z</time>
      </trkpt>
      <trkpt lat="44.35488" lon="3.40683">
        <ele>556.7</ele>
        <time>2020-08-25T10:05:01.000Z</time>
      </trkpt>
      <trkpt lat="44.35485" lon="3.4068">
        <ele>556.9</ele>
        <time>2020-08-25T10:05:02.000Z</time>
      </trkpt>
      <trkpt lat="44.35483" lon="3.40678">
        <ele>557</ele>
        <time>2020-08-25T10:05:03.000Z</time>
      </trkpt>
      <trkpt lat="44.3548" lon="3.40676">
        <ele>557.2</ele>
        <time>2020-08-25T10:05:05.000Z</time>
      </trkpt>
      <trkpt lat="44.35477" lon="3.40672">
        <ele>557.5</ele>
        <time>2020-08-25T10:05:07.000Z</time>
      </trkpt>
      <trkpt lat="44.35475" lon="3.40671">
        <ele>557.6</ele>
        <time>2020-08-25T10:05:08.000Z</time>
      </trkpt>
      <trkpt lat="44.3547" lon="3.40669">
        <ele>557.9</ele>
        <time>2020-08-25T10:05:10.000Z</time>
      </trkpt>
      <trkpt lat="44.35468" lon="3.40667">
        <ele>558.1</ele>
        <time>2020-08-25T10:05:11.000Z</time>
      </trkpt>
      <trkpt lat="44.35467" lon="3.40666">
        <ele>558.2</ele>
        <time>2020-08-25T10:05:12.000Z</time>
      </trkpt>
      <trkpt lat="44.35464" lon="3.40663">
        <ele>558.4</ele>
        <time>2020-08-25T10:05:14.000Z</time>
      </trkpt>
      <trkpt lat="44.35462" lon="3.40661">
        <ele>558.6</ele>
        <time>2020-08-25T10:05:15.000Z</time>
      </trkpt>
      <trkpt lat="44.35459" lon="3.40659">
        <ele>558.8</ele>
        <time>2020-08-25T10:05:17.000Z</time>
      </trkpt>
      <trkpt lat="44.35455" lon="3.40656">
        <ele>559.1</ele>
        <time>2020-08-25T10:05:19.000Z</time>
      </trkpt>
      <trkpt lat="44.35452" lon="3.40653">
        <ele>559.4</ele>
        <time>2020-08-25T10:05:21.000Z</time>
      </trkpt>
      <trkpt lat="44.35449" lon="3.40651">
        <ele>559.6</ele>
        <time>2020-08-25T10:05:23.000Z</time>
      </trkpt>
      <trkpt lat="44.35447" lon="3.40649">
        <ele>559.8</ele>
        <time>2020-08-25T10:05:24.000Z</time>
      </trkpt>
      <trkpt lat="44.35443" lon="3.40647">
        <ele>560.1</ele>
        <time>2020-08-25T10:05:26.000Z</time>
      </trkpt>
      <trkpt lat="44.35438" lon="3.40645">
        <ele>560.4</ele>
        <time>2020-08-25T10:05:28.000Z</time>
      </trkpt>
      <trkpt lat="44.35435" lon="3.40644">
        <ele>560.6</ele>
        <time>2020-08-25T10:05:30.000Z</time>
      </trkpt>
      <trkpt lat="44.35431" lon="3.40641">
        <ele>560.9</ele>
        <time>2020-08-25T10:05:32.000Z</time>
      </trkpt>
      <trkpt lat="44.35427" lon="3.4064">
        <ele>561.1</ele>
        <time>2020-08-25T10:05:34.000Z</time>
      </trkpt>
      <trkpt lat="44.35423" lon="3.40638">
        <ele>561.3</ele>
        <time>2020-08-25T10:05:36.000Z</time>
      </trkpt>
      <trkpt lat="44.3542" lon="3.40637">
        <ele>561.5</ele>
        <time>2020-08-25T10:05:37.000Z</time>
      </trkpt>
      <trkpt lat="44.35419" lon="3.40636">
        <ele>561.6</ele>
        <time>2020-08-25T10:05:38.000Z</time>
      </trkpt>
      <trkpt lat="44.35416" lon="3.40634">
        <ele>561.8</ele>
        <time>2020-08-25T10:05:40.000Z</time>
      </trkpt>
      <trkpt lat="44.35413" lon="3.40633">
        <ele>561.9</ele>
        <time>2020-08-25T10:05:41.000Z</time>
      </trkpt>
      <trkpt lat="44.35409" lon="3.40632">
        <ele>562.2</ele>
        <time>2020-08-25T10:05:43.000Z</time>
      </trkpt>
      <trkpt lat="44.35405" lon="3.40631">
        <ele>562.5</ele>
        <time>2020-08-25T10:05:45.000Z</time>
      </trkpt>
      <trkpt lat="44.35401" lon="3.4063">
        <ele>562.7</ele>
        <time>2020-08-25T10:05:47.000Z</time>
      </trkpt>
      <trkpt lat="44.35399" lon="3.40629">
        <ele>562.8</ele>
        <time>2020-08-25T10:05:48.000Z</time>
      </trkpt>
      <trkpt lat="44.35395" lon="3.40627">
        <ele>563.1</ele>
        <time>2020-08-25T10:05:50.000Z</time>
      </trkpt>
      <trkpt lat="44.35392" lon="3.40625">
        <ele>563.3</ele>
        <time>2020-08-25T10:05:52.000Z</time>
      </trkpt>
      <trkpt lat="44.35388" lon="3.40623">
        <ele>563.5</ele>
        <time>2020-08-25T10:05:53.000Z</time>
      </trkpt>
      <trkpt lat="44.35387" lon="3.40623">
        <ele>563.6</ele>
        <time>2020-08-25T10:05:54.000Z</time>
      </trkpt>
      <trkpt lat="44.35382" lon="3.40622">
        <ele>563.9</ele>
        <time>2020-08-25T10:05:56.000Z</time>
      </trkpt>
      <trkpt lat="44.35381" lon="3.40621">
        <ele>563.9</ele>
        <time>2020-08-25T10:05:57.000Z</time>
      </trkpt>
      <trkpt lat="44.35379" lon="3.40621">
        <ele>564</ele>
        <time>2020-08-25T10:05:58.000Z</time>
      </trkpt>
      <trkpt lat="44.35375" lon="3.40619">
        <ele>564.3</ele>
        <time>2020-08-25T10:06:00.000Z</time>
      </trkpt>
      <trkpt lat="44.35373" lon="3.40618">
        <ele>564.4</ele>
        <time>2020-08-25T10:06:01.000Z</time>
      </trkpt>
      <trkpt lat="44.35369" lon="3.40617">
        <ele>564.7</ele>
        <time>2020-08-25T10:06:03.000Z</time>
      </trkpt>
      <trkpt lat="44.35367" lon="3.40616">
        <ele>564.8</ele>
        <time>2020-08-25T10:06:04.000Z</time>
      </trkpt>
      <trkpt lat="44.35363" lon="3.40615">
        <ele>565.1</ele>
        <time>2020-08-25T10:06:06.000Z</time>
      </trkpt>
      <trkpt lat="44.35361" lon="3.40614">
        <ele>565.3</ele>
        <time>2020-08-25T10:06:07.000Z</time>
      </trkpt>
      <trkpt lat="44.35357" lon="3.40612">
        <ele>565.6</ele>
        <time>2020-08-25T10:06:09.000Z</time>
      </trkpt>
      <trkpt lat="44.35354" lon="3.40609">
        <ele>565.9</ele>
        <time>2020-08-25T10:06:11.000Z</time>
      </trkpt>
      <trkpt lat="44.35351" lon="3.40607">
        <ele>566.1</ele>
        <time>2020-08-25T10:06:12.000Z</time>
      </trkpt>
      <trkpt lat="44.35349" lon="3.40605">
        <ele>566.2</ele>
        <time>2020-08-25T10:06:13.000Z</time>
      </trkpt>
      <trkpt lat="44.35348" lon="3.40604">
        <ele>566.3</ele>
        <time>2020-08-25T10:06:14.000Z</time>
      </trkpt>
      <trkpt lat="44.35345" lon="3.40601">
        <ele>566.6</ele>
        <time>2020-08-25T10:06:16.000Z</time>
      </trkpt>
      <trkpt lat="44.35342" lon="3.40597">
        <ele>566.8</ele>
        <time>2020-08-25T10:06:18.000Z</time>
      </trkpt>
      <trkpt lat="44.3534" lon="3.40595">
        <ele>567</ele>
        <time>2020-08-25T10:06:19.000Z</time>
      </trkpt>
      <trkpt lat="44.35338" lon="3.40593">
        <ele>567.1</ele>
        <time>2020-08-25T10:06:20.000Z</time>
      </trkpt>
      <trkpt lat="44.35335" lon="3.4059">
        <ele>567.4</ele>
        <time>2020-08-25T10:06:22.000Z</time>
      </trkpt>
      <trkpt lat="44.35332" lon="3.40586">
        <ele>567.6</ele>
        <time>2020-08-25T10:06:24.000Z</time>
      </trkpt>
      <trkpt lat="44.35328" lon="3.40582">
        <ele>567.9</ele>
        <time>2020-08-25T10:06:26.000Z</time>
      </trkpt>
      <trkpt lat="44.35325" lon="3.40579">
        <ele>568.2</ele>
        <time>2020-08-25T10:06:28.000Z</time>
      </trkpt>
      <trkpt lat="44.35322" lon="3.40575">
        <ele>568.5</ele>
        <time>2020-08-25T10:06:30.000Z</time>
      </trkpt>
      <trkpt lat="44.35319" lon="3.40573">
        <ele>568.7</ele>
        <time>2020-08-25T10:06:31.000Z</time>
      </trkpt>
      <trkpt lat="44.35318" lon="3.40572">
        <ele>568.8</ele>
        <time>2020-08-25T10:06:32.000Z</time>
      </trkpt>
      <trkpt lat="44.35315" lon="3.40569">
        <ele>569</ele>
        <time>2020-08-25T10:06:34.000Z</time>
      </trkpt>
      <trkpt lat="44.35314" lon="3.40568">
        <ele>569.2</ele>
        <time>2020-08-25T10:06:35.000Z</time>
      </trkpt>
      <trkpt lat="44.3531" lon="3.40566">
        <ele>569.4</ele>
        <time>2020-08-25T10:06:37.000Z</time>
      </trkpt>
      <trkpt lat="44.35308" lon="3.40563">
        <ele>569.6</ele>
        <time>2020-08-25T10:06:38.000Z</time>
      </trkpt>
      <trkpt lat="44.35307" lon="3.40563">
        <ele>569.7</ele>
        <time>2020-08-25T10:06:39.000Z</time>
      </trkpt>
      <trkpt lat="44.35303" lon="3.4056">
        <ele>570</ele>
        <time>2020-08-25T10:06:41.000Z</time>
      </trkpt>
      <trkpt lat="44.35302" lon="3.40559">
        <ele>570.1</ele>
        <time>2020-08-25T10:06:42.000Z</time>
      </trkpt>
      <trkpt lat="44.353" lon="3.40559">
        <ele>570.2</ele>
        <time>2020-08-25T10:06:43.000Z</time>
      </trkpt>
      <trkpt lat="44.35297" lon="3.40557">
        <ele>570.5</ele>
        <time>2020-08-25T10:06:45.000Z</time>
      </trkpt>
      <trkpt lat="44.35294" lon="3.40557">
        <ele>570.7</ele>
        <time>2020-08-25T10:06:46.000Z</time>
      </trkpt>
      <trkpt lat="44.35293" lon="3.40556">
        <ele>570.8</ele>
        <time>2020-08-25T10:06:47.000Z</time>
      </trkpt>
      <trkpt lat="44.3529" lon="3.40555">
        <ele>571</ele>
        <time>2020-08-25T10:06:48.000Z</time>
      </trkpt>
      <trkpt lat="44.35289" lon="3.40555">
        <ele>571</ele>
        <time>2020-08-25T10:06:49.000Z</time>
      </trkpt>
      <trkpt lat="44.35286" lon="3.40554">
        <ele>571.2</ele>
        <time>2020-08-25T10:06:50.000Z</time>
      </trkpt>
      <trkpt lat="44.35285" lon="3.40553">
        <ele>571.3</ele>
        <time>2020-08-25T10:06:51.000Z</time>
      </trkpt>
      <trkpt lat="44.35281" lon="3.40551">
        <ele>571.5</ele>
        <time>2020-08-25T10:06:53.000Z</time>
      </trkpt>
      <trkpt lat="44.35277" lon="3.40549">
        <ele>571.7</ele>
        <time>2020-08-25T10:06:55.000Z</time>
      </trkpt>
      <trkpt lat="44.35276" lon="3.40547">
        <ele>571.8</ele>
        <time>2020-08-25T10:06:56.000Z</time>
      </trkpt>
      <trkpt lat="44.35273" lon="3.40544">
        <ele>572</ele>
        <time>2020-08-25T10:06:58.000Z</time>
      </trkpt>
      <trkpt lat="44.35269" lon="3.4054">
        <ele>572.3</ele>
        <time>2020-08-25T10:07:00.000Z</time>
      </trkpt>
      <trkpt lat="44.35267" lon="3.40537">
        <ele>572.5</ele>
        <time>2020-08-25T10:07:01.000Z</time>
      </trkpt>
      <trkpt lat="44.35266" lon="3.40536">
        <ele>572.5</ele>
        <time>2020-08-25T10:07:02.000Z</time>
      </trkpt>
      <trkpt lat="44.35263" lon="3.40532">
        <ele>572.8</ele>
        <time>2020-08-25T10:07:04.000Z</time>
      </trkpt>
      <trkpt lat="44.3526" lon="3.40527">
        <ele>573.2</ele>
        <time>2020-08-25T10:07:06.000Z</time>
      </trkpt>
      <trkpt lat="44.35257" lon="3.40523">
        <ele>573.4</ele>
        <time>2020-08-25T10:07:08.000Z</time>
      </trkpt>
      <trkpt lat="44.35254" lon="3.4052">
        <ele>573.7</ele>
        <time>2020-08-25T10:07:10.000Z</time>
      </trkpt>
      <trkpt lat="44.35252" lon="3.40518">
        <ele>573.9</ele>
        <time>2020-08-25T10:07:11.000Z</time>
      </trkpt>
      <trkpt lat="44.35249" lon="3.40514">
        <ele>574.2</ele>
        <time>2020-08-25T10:07:13.000Z</time>
      </trkpt>
      <trkpt lat="44.35246" lon="3.40511">
        <ele>574.4</ele>
        <time>2020-08-25T10:07:14.000Z</time>
      </trkpt>
      <trkpt lat="44.35245" lon="3.4051">
        <ele>574.5</ele>
        <time>2020-08-25T10:07:15.000Z</time>
      </trkpt>
      <trkpt lat="44.35242" lon="3.40507">
        <ele>574.8</ele>
        <time>2020-08-25T10:07:17.000Z</time>
      </trkpt>
      <trkpt lat="44.35239" lon="3.40505">
        <ele>575</ele>
        <time>2020-08-25T10:07:18.000Z</time>
      </trkpt>
      <trkpt lat="44.35235" lon="3.40503">
        <ele>575.3</ele>
        <time>2020-08-25T10:07:20.000Z</time>
      </trkpt>
      <trkpt lat="44.35232" lon="3.405">
        <ele>575.6</ele>
        <time>2020-08-25T10:07:22.000Z</time>
      </trkpt>
      <trkpt lat="44.3523" lon="3.40498">
        <ele>575.7</ele>
        <time>2020-08-25T10:07:23.000Z</time>
      </trkpt>
      <trkpt lat="44.35225" lon="3.40494">
        <ele>576.1</ele>
        <time>2020-08-25T10:07:25.000Z</time>
      </trkpt>
      <trkpt lat="44.35222" lon="3.40493">
        <ele>576.3</ele>
        <time>2020-08-25T10:07:27.000Z</time>
      </trkpt>
      <trkpt lat="44.35218" lon="3.40491">
        <ele>576.6</ele>
        <time>2020-08-25T10:07:29.000Z</time>
      </trkpt>
      <trkpt lat="44.35214" lon="3.40486">
        <ele>576.9</ele>
        <time>2020-08-25T10:07:31.000Z</time>
      </trkpt>
      <trkpt lat="44.35212" lon="3.40483">
        <ele>577.2</ele>
        <time>2020-08-25T10:07:33.000Z</time>
      </trkpt>
      <trkpt lat="44.35211" lon="3.40481">
        <ele>577.3</ele>
        <time>2020-08-25T10:07:34.000Z</time>
      </trkpt>
      <trkpt lat="44.35207" lon="3.40479">
        <ele>577.5</ele>
        <time>2020-08-25T10:07:36.000Z</time>
      </trkpt>
      <trkpt lat="44.35205" lon="3.40476">
        <ele>577.8</ele>
        <time>2020-08-25T10:07:37.000Z</time>
      </trkpt>
      <trkpt lat="44.35204" lon="3.40475">
        <ele>577.8</ele>
        <time>2020-08-25T10:07:38.000Z</time>
      </trkpt>
      <trkpt lat="44.35202" lon="3.40471">
        <ele>578</ele>
        <time>2020-08-25T10:07:40.000Z</time>
      </trkpt>
      <trkpt lat="44.35199" lon="3.40466">
        <ele>578.3</ele>
        <time>2020-08-25T10:07:42.000Z</time>
      </trkpt>
      <trkpt lat="44.35197" lon="3.4046">
        <ele>578.7</ele>
        <time>2020-08-25T10:07:44.000Z</time>
      </trkpt>
      <trkpt lat="44.35196" lon="3.40457">
        <ele>578.8</ele>
        <time>2020-08-25T10:07:45.000Z</time>
      </trkpt>
      <trkpt lat="44.35193" lon="3.40452">
        <ele>579.1</ele>
        <time>2020-08-25T10:07:47.000Z</time>
      </trkpt>
      <trkpt lat="44.35192" lon="3.4045">
        <ele>579.3</ele>
        <time>2020-08-25T10:07:48.000Z</time>
      </trkpt>
      <trkpt lat="44.35188" lon="3.40444">
        <ele>579.7</ele>
        <time>2020-08-25T10:07:50.000Z</time>
      </trkpt>
      <trkpt lat="44.35187" lon="3.40443">
        <ele>579.8</ele>
        <time>2020-08-25T10:07:51.000Z</time>
      </trkpt>
      <trkpt lat="44.35184" lon="3.40439">
        <ele>580.1</ele>
        <time>2020-08-25T10:07:53.000Z</time>
      </trkpt>
      <trkpt lat="44.35182" lon="3.40434">
        <ele>580.4</ele>
        <time>2020-08-25T10:07:55.000Z</time>
      </trkpt>
      <trkpt lat="44.3518" lon="3.40431">
        <ele>580.6</ele>
        <time>2020-08-25T10:07:56.000Z</time>
      </trkpt>
      <trkpt lat="44.35177" lon="3.40427">
        <ele>580.8</ele>
        <time>2020-08-25T10:07:58.000Z</time>
      </trkpt>
      <trkpt lat="44.35173" lon="3.40423">
        <ele>581.1</ele>
        <time>2020-08-25T10:08:00.000Z</time>
      </trkpt>
      <trkpt lat="44.3517" lon="3.40417">
        <ele>581.4</ele>
        <time>2020-08-25T10:08:02.000Z</time>
      </trkpt>
      <trkpt lat="44.35167" lon="3.40413">
        <ele>581.6</ele>
        <time>2020-08-25T10:08:04.000Z</time>
      </trkpt>
      <trkpt lat="44.35163" lon="3.40411">
        <ele>581.8</ele>
        <time>2020-08-25T10:08:06.000Z</time>
      </trkpt>
      <trkpt lat="44.35159" lon="3.40408">
        <ele>582</ele>
        <time>2020-08-25T10:08:08.000Z</time>
      </trkpt>
      <trkpt lat="44.35158" lon="3.40407">
        <ele>582.1</ele>
        <time>2020-08-25T10:08:09.000Z</time>
      </trkpt>
      <trkpt lat="44.35155" lon="3.40402">
        <ele>582.4</ele>
        <time>2020-08-25T10:08:11.000Z</time>
      </trkpt>
      <trkpt lat="44.35151" lon="3.40399">
        <ele>582.6</ele>
        <time>2020-08-25T10:08:13.000Z</time>
      </trkpt>
      <trkpt lat="44.3515" lon="3.40398">
        <ele>582.7</ele>
        <time>2020-08-25T10:08:14.000Z</time>
      </trkpt>
      <trkpt lat="44.35146" lon="3.40395">
        <ele>583</ele>
        <time>2020-08-25T10:08:16.000Z</time>
      </trkpt>
      <trkpt lat="44.35144" lon="3.40393">
        <ele>583.1</ele>
        <time>2020-08-25T10:08:17.000Z</time>
      </trkpt>
      <trkpt lat="44.35141" lon="3.4039">
        <ele>583.4</ele>
        <time>2020-08-25T10:08:19.000Z</time>
      </trkpt>
      <trkpt lat="44.35138" lon="3.40388">
        <ele>583.6</ele>
        <time>2020-08-25T10:08:20.000Z</time>
      </trkpt>
      <trkpt lat="44.35137" lon="3.40387">
        <ele>583.7</ele>
        <time>2020-08-25T10:08:21.000Z</time>
      </trkpt>
      <trkpt lat="44.35134" lon="3.40384">
        <ele>584</ele>
        <time>2020-08-25T10:08:23.000Z</time>
      </trkpt>
      <trkpt lat="44.35131" lon="3.40381">
        <ele>584.2</ele>
        <time>2020-08-25T10:08:25.000Z</time>
      </trkpt>
      <trkpt lat="44.3513" lon="3.4038">
        <ele>584.3</ele>
        <time>2020-08-25T10:08:26.000Z</time>
      </trkpt>
      <trkpt lat="44.35127" lon="3.40376">
        <ele>584.5</ele>
        <time>2020-08-25T10:08:28.000Z</time>
      </trkpt>
      <trkpt lat="44.35125" lon="3.40373">
        <ele>584.7</ele>
        <time>2020-08-25T10:08:30.000Z</time>
      </trkpt>
      <trkpt lat="44.35123" lon="3.40371">
        <ele>584.8</ele>
        <time>2020-08-25T10:08:31.000Z</time>
      </trkpt>
      <trkpt lat="44.35119" lon="3.40368">
        <ele>585</ele>
        <time>2020-08-25T10:08:33.000Z</time>
      </trkpt>
      <trkpt lat="44.35116" lon="3.40364">
        <ele>585.2</ele>
        <time>2020-08-25T10:08:35.000Z</time>
      </trkpt>
      <trkpt lat="44.35113" lon="3.40361">
        <ele>585.4</ele>
        <time>2020-08-25T10:08:36.000Z</time>
      </trkpt>
      <trkpt lat="44.35112" lon="3.4036">
        <ele>585.5</ele>
        <time>2020-08-25T10:08:37.000Z</time>
      </trkpt>
      <trkpt lat="44.35111" lon="3.40358">
        <ele>585.6</ele>
        <time>2020-08-25T10:08:38.000Z</time>
      </trkpt>
      <trkpt lat="44.35107" lon="3.40354">
        <ele>585.6</ele>
        <time>2020-08-25T10:08:40.000Z</time>
      </trkpt>
      <trkpt lat="44.35104" lon="3.40352">
        <ele>585.7</ele>
        <time>2020-08-25T10:08:42.000Z</time>
      </trkpt>
      <trkpt lat="44.35101" lon="3.40349">
        <ele>586</ele>
        <time>2020-08-25T10:08:44.000Z</time>
      </trkpt>
      <trkpt lat="44.35098" lon="3.40345">
        <ele>586.4</ele>
        <time>2020-08-25T10:08:46.000Z</time>
      </trkpt>
      <trkpt lat="44.35095" lon="3.40342">
        <ele>586.7</ele>
        <time>2020-08-25T10:08:48.000Z</time>
      </trkpt>
      <trkpt lat="44.35091" lon="3.40339">
        <ele>587.1</ele>
        <time>2020-08-25T10:08:50.000Z</time>
      </trkpt>
      <trkpt lat="44.3509" lon="3.40337">
        <ele>587.2</ele>
        <time>2020-08-25T10:08:51.000Z</time>
      </trkpt>
      <trkpt lat="44.35086" lon="3.40331">
        <ele>587.6</ele>
        <time>2020-08-25T10:08:53.000Z</time>
      </trkpt>
      <trkpt lat="44.35084" lon="3.40326">
        <ele>587.9</ele>
        <time>2020-08-25T10:08:55.000Z</time>
      </trkpt>
      <trkpt lat="44.35081" lon="3.40323">
        <ele>588.1</ele>
        <time>2020-08-25T10:08:57.000Z</time>
      </trkpt>
      <trkpt lat="44.35079" lon="3.40321">
        <ele>588.2</ele>
        <time>2020-08-25T10:08:58.000Z</time>
      </trkpt>
      <trkpt lat="44.35076" lon="3.40317">
        <ele>588.5</ele>
        <time>2020-08-25T10:09:00.000Z</time>
      </trkpt>
      <trkpt lat="44.35074" lon="3.40312">
        <ele>588.8</ele>
        <time>2020-08-25T10:09:02.000Z</time>
      </trkpt>
      <trkpt lat="44.35071" lon="3.40308">
        <ele>589</ele>
        <time>2020-08-25T10:09:03.000Z</time>
      </trkpt>
      <trkpt lat="44.35071" lon="3.40307">
        <ele>589</ele>
        <time>2020-08-25T10:09:04.000Z</time>
      </trkpt>
      <trkpt lat="44.35068" lon="3.40304">
        <ele>589.3</ele>
        <time>2020-08-25T10:09:05.000Z</time>
      </trkpt>
      <trkpt lat="44.35067" lon="3.40302">
        <ele>589.4</ele>
        <time>2020-08-25T10:09:06.000Z</time>
      </trkpt>
      <trkpt lat="44.35064" lon="3.40298">
        <ele>589.7</ele>
        <time>2020-08-25T10:09:08.000Z</time>
      </trkpt>
      <trkpt lat="44.3506" lon="3.40293">
        <ele>590</ele>
        <time>2020-08-25T10:09:10.000Z</time>
      </trkpt>
      <trkpt lat="44.35057" lon="3.40289">
        <ele>590.3</ele>
        <time>2020-08-25T10:09:12.000Z</time>
      </trkpt>
      <trkpt lat="44.35053" lon="3.40285">
        <ele>590.6</ele>
        <time>2020-08-25T10:09:14.000Z</time>
      </trkpt>
      <trkpt lat="44.3505" lon="3.40282">
        <ele>590.8</ele>
        <time>2020-08-25T10:09:15.000Z</time>
      </trkpt>
      <trkpt lat="44.35049" lon="3.40282">
        <ele>590.9</ele>
        <time>2020-08-25T10:09:16.000Z</time>
      </trkpt>
      <trkpt lat="44.35047" lon="3.40281">
        <ele>591</ele>
        <time>2020-08-25T10:09:17.000Z</time>
      </trkpt>
      <trkpt lat="44.35043" lon="3.40277">
        <ele>591.3</ele>
        <time>2020-08-25T10:09:19.000Z</time>
      </trkpt>
      <trkpt lat="44.35041" lon="3.40276">
        <ele>591.4</ele>
        <time>2020-08-25T10:09:20.000Z</time>
      </trkpt>
      <trkpt lat="44.35037" lon="3.40274">
        <ele>591.7</ele>
        <time>2020-08-25T10:09:22.000Z</time>
      </trkpt>
      <trkpt lat="44.35033" lon="3.4027">
        <ele>592</ele>
        <time>2020-08-25T10:09:24.000Z</time>
      </trkpt>
      <trkpt lat="44.35029" lon="3.40268">
        <ele>592.3</ele>
        <time>2020-08-25T10:09:26.000Z</time>
      </trkpt>
      <trkpt lat="44.35026" lon="3.40267">
        <ele>592.4</ele>
        <time>2020-08-25T10:09:27.000Z</time>
      </trkpt>
      <trkpt lat="44.35025" lon="3.40266">
        <ele>592.5</ele>
        <time>2020-08-25T10:09:28.000Z</time>
      </trkpt>
      <trkpt lat="44.35022" lon="3.40263">
        <ele>592.8</ele>
        <time>2020-08-25T10:09:30.000Z</time>
      </trkpt>
      <trkpt lat="44.3502" lon="3.40261">
        <ele>592.9</ele>
        <time>2020-08-25T10:09:31.000Z</time>
      </trkpt>
      <trkpt lat="44.35016" lon="3.40257">
        <ele>593.2</ele>
        <time>2020-08-25T10:09:33.000Z</time>
      </trkpt>
      <trkpt lat="44.35014" lon="3.40253">
        <ele>593.4</ele>
        <time>2020-08-25T10:09:35.000Z</time>
      </trkpt>
      <trkpt lat="44.35011" lon="3.40248">
        <ele>593.7</ele>
        <time>2020-08-25T10:09:37.000Z</time>
      </trkpt>
      <trkpt lat="44.3501" lon="3.40244">
        <ele>593.9</ele>
        <time>2020-08-25T10:09:38.000Z</time>
      </trkpt>
      <trkpt lat="44.35009" lon="3.40241">
        <ele>594</ele>
        <time>2020-08-25T10:09:39.000Z</time>
      </trkpt>
      <trkpt lat="44.35008" lon="3.40236">
        <ele>594.3</ele>
        <time>2020-08-25T10:09:41.000Z</time>
      </trkpt>
      <trkpt lat="44.35007" lon="3.4023">
        <ele>594.5</ele>
        <time>2020-08-25T10:09:43.000Z</time>
      </trkpt>
      <trkpt lat="44.35006" lon="3.40226">
        <ele>594.7</ele>
        <time>2020-08-25T10:09:44.000Z</time>
      </trkpt>
      <trkpt lat="44.35004" lon="3.40221">
        <ele>594.9</ele>
        <time>2020-08-25T10:09:46.000Z</time>
      </trkpt>
      <trkpt lat="44.35002" lon="3.40216">
        <ele>595.2</ele>
        <time>2020-08-25T10:09:48.000Z</time>
      </trkpt>
      <trkpt lat="44.35" lon="3.4021">
        <ele>595.5</ele>
        <time>2020-08-25T10:09:50.000Z</time>
      </trkpt>
      <trkpt lat="44.34999" lon="3.40204">
        <ele>595.7</ele>
        <time>2020-08-25T10:09:52.000Z</time>
      </trkpt>
      <trkpt lat="44.34997" lon="3.40199">
        <ele>595.9</ele>
        <time>2020-08-25T10:09:53.000Z</time>
      </trkpt>
      <trkpt lat="44.34997" lon="3.40197">
        <ele>596</ele>
        <time>2020-08-25T10:09:54.000Z</time>
      </trkpt>
      <trkpt lat="44.34995" lon="3.40191">
        <ele>596.3</ele>
        <time>2020-08-25T10:09:56.000Z</time>
      </trkpt>
      <trkpt lat="44.34994" lon="3.40187">
        <ele>596.5</ele>
        <time>2020-08-25T10:09:57.000Z</time>
      </trkpt>
      <trkpt lat="44.34992" lon="3.40183">
        <ele>596.7</ele>
        <time>2020-08-25T10:09:59.000Z</time>
      </trkpt>
      <trkpt lat="44.3499" lon="3.40178">
        <ele>597</ele>
        <time>2020-08-25T10:10:01.000Z</time>
      </trkpt>
      <trkpt lat="44.34988" lon="3.40171">
        <ele>597.3</ele>
        <time>2020-08-25T10:10:03.000Z</time>
      </trkpt>
      <trkpt lat="44.34988" lon="3.40169">
        <ele>597.4</ele>
        <time>2020-08-25T10:10:04.000Z</time>
      </trkpt>
      <trkpt lat="44.34986" lon="3.40164">
        <ele>597.6</ele>
        <time>2020-08-25T10:10:06.000Z</time>
      </trkpt>
      <trkpt lat="44.34985" lon="3.40159">
        <ele>597.8</ele>
        <time>2020-08-25T10:10:08.000Z</time>
      </trkpt>
      <trkpt lat="44.34983" lon="3.40154">
        <ele>598.1</ele>
        <time>2020-08-25T10:10:10.000Z</time>
      </trkpt>
      <trkpt lat="44.34982" lon="3.40152">
        <ele>598.2</ele>
        <time>2020-08-25T10:10:11.000Z</time>
      </trkpt>
      <trkpt lat="44.3498" lon="3.40147">
        <ele>598.4</ele>
        <time>2020-08-25T10:10:13.000Z</time>
      </trkpt>
      <trkpt lat="44.34978" lon="3.40145">
        <ele>598.6</ele>
        <time>2020-08-25T10:10:15.000Z</time>
      </trkpt>
      <trkpt lat="44.34976" lon="3.40144">
        <ele>598.7</ele>
        <time>2020-08-25T10:10:16.000Z</time>
      </trkpt>
      <trkpt lat="44.34976" lon="3.40139">
        <ele>598.9</ele>
        <time>2020-08-25T10:10:18.000Z</time>
      </trkpt>
      <trkpt lat="44.34976" lon="3.40136">
        <ele>599.1</ele>
        <time>2020-08-25T10:10:20.000Z</time>
      </trkpt>
      <trkpt lat="44.34976" lon="3.40135">
        <ele>599.1</ele>
        <time>2020-08-25T10:10:21.000Z</time>
      </trkpt>
      <trkpt lat="44.34977" lon="3.40135">
        <ele>599.1</ele>
        <time>2020-08-25T10:10:23.000Z</time>
      </trkpt>
      <trkpt lat="44.34977" lon="3.40136">
        <ele>599.2</ele>
        <time>2020-08-25T10:10:25.000Z</time>
      </trkpt>
      <trkpt lat="44.34978" lon="3.40136">
        <ele>599.2</ele>
        <time>2020-08-25T10:10:27.000Z</time>
      </trkpt>
      <trkpt lat="44.34978" lon="3.40135">
        <ele>599.2</ele>
        <time>2020-08-25T10:10:29.000Z</time>
      </trkpt>
      <trkpt lat="44.34978" lon="3.40135">
        <ele>599.2</ele>
        <time>2020-08-25T10:10:30.000Z</time>
      </trkpt>
      <trkpt lat="44.34978" lon="3.40135">
        <ele>599.2</ele>
        <time>2020-08-25T10:10:32.000Z</time>
      </trkpt>
      <trkpt lat="44.34978" lon="3.40134">
        <ele>599.3</ele>
        <time>2020-08-25T10:12:57.000Z</time>
      </trkpt>
      <trkpt lat="44.34977" lon="3.40131">
        <ele>599.4</ele>
        <time>2020-08-25T10:12:59.000Z</time>
      </trkpt>
      <trkpt lat="44.34976" lon="3.40128">
        <ele>599.6</ele>
        <time>2020-08-25T10:13:01.000Z</time>
      </trkpt>
      <trkpt lat="44.34975" lon="3.40126">
        <ele>599.7</ele>
        <time>2020-08-25T10:13:02.000Z</time>
      </trkpt>
      <trkpt lat="44.34975" lon="3.40125">
        <ele>599.7</ele>
        <time>2020-08-25T10:13:04.000Z</time>
      </trkpt>
      <trkpt lat="44.34976" lon="3.40124">
        <ele>599.8</ele>
        <time>2020-08-25T10:13:06.000Z</time>
      </trkpt>
      <trkpt lat="44.34975" lon="3.40124">
        <ele>599.8</ele>
        <time>2020-08-25T10:13:08.000Z</time>
      </trkpt>
      <trkpt lat="44.34973" lon="3.40118">
        <ele>600.1</ele>
        <time>2020-08-25T10:13:10.000Z</time>
      </trkpt>
      <trkpt lat="44.34971" lon="3.40115">
        <ele>600.3</ele>
        <time>2020-08-25T10:13:11.000Z</time>
      </trkpt>
      <trkpt lat="44.34969" lon="3.4011">
        <ele>600.6</ele>
        <time>2020-08-25T10:13:13.000Z</time>
      </trkpt>
      <trkpt lat="44.34968" lon="3.40107">
        <ele>600.7</ele>
        <time>2020-08-25T10:13:14.000Z</time>
      </trkpt>
      <trkpt lat="44.34965" lon="3.40102">
        <ele>601</ele>
        <time>2020-08-25T10:13:16.000Z</time>
      </trkpt>
      <trkpt lat="44.34963" lon="3.40098">
        <ele>601.3</ele>
        <time>2020-08-25T10:13:18.000Z</time>
      </trkpt>
      <trkpt lat="44.3496" lon="3.40094">
        <ele>601.6</ele>
        <time>2020-08-25T10:13:20.000Z</time>
      </trkpt>
      <trkpt lat="44.34958" lon="3.40089">
        <ele>601.8</ele>
        <time>2020-08-25T10:13:22.000Z</time>
      </trkpt>
      <trkpt lat="44.34956" lon="3.40086">
        <ele>602</ele>
        <time>2020-08-25T10:13:23.000Z</time>
      </trkpt>
      <trkpt lat="44.34955" lon="3.40085">
        <ele>602.1</ele>
        <time>2020-08-25T10:13:24.000Z</time>
      </trkpt>
      <trkpt lat="44.34951" lon="3.40082">
        <ele>602.4</ele>
        <time>2020-08-25T10:13:26.000Z</time>
      </trkpt>
      <trkpt lat="44.34948" lon="3.4008">
        <ele>602.7</ele>
        <time>2020-08-25T10:13:28.000Z</time>
      </trkpt>
      <trkpt lat="44.34946" lon="3.40079">
        <ele>602.8</ele>
        <time>2020-08-25T10:13:29.000Z</time>
      </trkpt>
      <trkpt lat="44.34942" lon="3.40077">
        <ele>603.1</ele>
        <time>2020-08-25T10:13:31.000Z</time>
      </trkpt>
      <trkpt lat="44.3494" lon="3.40077">
        <ele>603.3</ele>
        <time>2020-08-25T10:13:32.000Z</time>
      </trkpt>
      <trkpt lat="44.34936" lon="3.40075">
        <ele>603.5</ele>
        <time>2020-08-25T10:13:34.000Z</time>
      </trkpt>
      <trkpt lat="44.34934" lon="3.40074">
        <ele>603.7</ele>
        <time>2020-08-25T10:13:35.000Z</time>
      </trkpt>
      <trkpt lat="44.3493" lon="3.40073">
        <ele>603.9</ele>
        <time>2020-08-25T10:13:37.000Z</time>
      </trkpt>
      <trkpt lat="44.34925" lon="3.40072">
        <ele>604.2</ele>
        <time>2020-08-25T10:13:39.000Z</time>
      </trkpt>
      <trkpt lat="44.34922" lon="3.40071">
        <ele>604.4</ele>
        <time>2020-08-25T10:13:41.000Z</time>
      </trkpt>
      <trkpt lat="44.3492" lon="3.4007">
        <ele>604.6</ele>
        <time>2020-08-25T10:13:42.000Z</time>
      </trkpt>
      <trkpt lat="44.34916" lon="3.40069">
        <ele>604.8</ele>
        <time>2020-08-25T10:13:44.000Z</time>
      </trkpt>
      <trkpt lat="44.34915" lon="3.40068">
        <ele>604.9</ele>
        <time>2020-08-25T10:13:45.000Z</time>
      </trkpt>
      <trkpt lat="44.34911" lon="3.40067">
        <ele>605.2</ele>
        <time>2020-08-25T10:13:47.000Z</time>
      </trkpt>
      <trkpt lat="44.34909" lon="3.40067">
        <ele>605.3</ele>
        <time>2020-08-25T10:13:48.000Z</time>
      </trkpt>
      <trkpt lat="44.34905" lon="3.40067">
        <ele>605.5</ele>
        <time>2020-08-25T10:13:50.000Z</time>
      </trkpt>
      <trkpt lat="44.34902" lon="3.40067">
        <ele>605.7</ele>
        <time>2020-08-25T10:13:51.000Z</time>
      </trkpt>
      <trkpt lat="44.34901" lon="3.40067">
        <ele>605.8</ele>
        <time>2020-08-25T10:13:52.000Z</time>
      </trkpt>
      <trkpt lat="44.34897" lon="3.40066">
        <ele>606</ele>
        <time>2020-08-25T10:13:54.000Z</time>
      </trkpt>
      <trkpt lat="44.34895" lon="3.40066">
        <ele>606.1</ele>
        <time>2020-08-25T10:13:55.000Z</time>
      </trkpt>
      <trkpt lat="44.3489" lon="3.40067">
        <ele>606.4</ele>
        <time>2020-08-25T10:13:57.000Z</time>
      </trkpt>
      <trkpt lat="44.34888" lon="3.40067">
        <ele>606.5</ele>
        <time>2020-08-25T10:13:58.000Z</time>
      </trkpt>
      <trkpt lat="44.34885" lon="3.40068">
        <ele>606.8</ele>
        <time>2020-08-25T10:14:00.000Z</time>
      </trkpt>
      <trkpt lat="44.34881" lon="3.40068">
        <ele>607</ele>
        <time>2020-08-25T10:14:02.000Z</time>
      </trkpt>
      <trkpt lat="44.34878" lon="3.40069">
        <ele>607.2</ele>
        <time>2020-08-25T10:14:03.000Z</time>
      </trkpt>
      <trkpt lat="44.34876" lon="3.40069">
        <ele>607.3</ele>
        <time>2020-08-25T10:14:04.000Z</time>
      </trkpt>
      <trkpt lat="44.34873" lon="3.4007">
        <ele>607.5</ele>
        <time>2020-08-25T10:14:06.000Z</time>
      </trkpt>
      <trkpt lat="44.34869" lon="3.4007">
        <ele>607.8</ele>
        <time>2020-08-25T10:14:08.000Z</time>
      </trkpt>
      <trkpt lat="44.34864" lon="3.4007">
        <ele>608</ele>
        <time>2020-08-25T10:14:10.000Z</time>
      </trkpt>
      <trkpt lat="44.34861" lon="3.4007">
        <ele>608.3</ele>
        <time>2020-08-25T10:14:12.000Z</time>
      </trkpt>
      <trkpt lat="44.34857" lon="3.4007">
        <ele>608.5</ele>
        <time>2020-08-25T10:14:14.000Z</time>
      </trkpt>
      <trkpt lat="44.34853" lon="3.40069">
        <ele>608.8</ele>
        <time>2020-08-25T10:14:16.000Z</time>
      </trkpt>
      <trkpt lat="44.3485" lon="3.40068">
        <ele>609</ele>
        <time>2020-08-25T10:14:17.000Z</time>
      </trkpt>
      <trkpt lat="44.34849" lon="3.40067">
        <ele>609</ele>
        <time>2020-08-25T10:14:18.000Z</time>
      </trkpt>
      <trkpt lat="44.34846" lon="3.40065">
        <ele>609.3</ele>
        <time>2020-08-25T10:14:20.000Z</time>
      </trkpt>
      <trkpt lat="44.34842" lon="3.40062">
        <ele>609.5</ele>
        <time>2020-08-25T10:14:22.000Z</time>
      </trkpt>
      <trkpt lat="44.34839" lon="3.40059">
        <ele>609.8</ele>
        <time>2020-08-25T10:14:24.000Z</time>
      </trkpt>
      <trkpt lat="44.34837" lon="3.40058">
        <ele>609.9</ele>
        <time>2020-08-25T10:14:25.000Z</time>
      </trkpt>
      <trkpt lat="44.34832" lon="3.40057">
        <ele>610.2</ele>
        <time>2020-08-25T10:14:27.000Z</time>
      </trkpt>
      <trkpt lat="44.34829" lon="3.40055">
        <ele>610.3</ele>
        <time>2020-08-25T10:14:28.000Z</time>
      </trkpt>
      <trkpt lat="44.34828" lon="3.40055">
        <ele>610.4</ele>
        <time>2020-08-25T10:14:29.000Z</time>
      </trkpt>
      <trkpt lat="44.34824" lon="3.40054">
        <ele>610.7</ele>
        <time>2020-08-25T10:14:31.000Z</time>
      </trkpt>
      <trkpt lat="44.34822" lon="3.40054">
        <ele>610.8</ele>
        <time>2020-08-25T10:14:32.000Z</time>
      </trkpt>
      <trkpt lat="44.34818" lon="3.40053">
        <ele>611</ele>
        <time>2020-08-25T10:14:34.000Z</time>
      </trkpt>
      <trkpt lat="44.34816" lon="3.40053">
        <ele>611.2</ele>
        <time>2020-08-25T10:14:35.000Z</time>
      </trkpt>
      <trkpt lat="44.34813" lon="3.40052">
        <ele>611.4</ele>
        <time>2020-08-25T10:14:37.000Z</time>
      </trkpt>
      <trkpt lat="44.34809" lon="3.40052">
        <ele>611.7</ele>
        <time>2020-08-25T10:14:39.000Z</time>
      </trkpt>
      <trkpt lat="44.34805" lon="3.40052">
        <ele>611.9</ele>
        <time>2020-08-25T10:14:40.000Z</time>
      </trkpt>
      <trkpt lat="44.34804" lon="3.40051">
        <ele>612</ele>
        <time>2020-08-25T10:14:41.000Z</time>
      </trkpt>
      <trkpt lat="44.348" lon="3.40051">
        <ele>612.3</ele>
        <time>2020-08-25T10:14:43.000Z</time>
      </trkpt>
      <trkpt lat="44.34798" lon="3.40051">
        <ele>612.4</ele>
        <time>2020-08-25T10:14:44.000Z</time>
      </trkpt>
      <trkpt lat="44.34794" lon="3.40051">
        <ele>612.7</ele>
        <time>2020-08-25T10:14:46.000Z</time>
      </trkpt>
      <trkpt lat="44.3479" lon="3.40051">
        <ele>612.9</ele>
        <time>2020-08-25T10:14:48.000Z</time>
      </trkpt>
      <trkpt lat="44.34787" lon="3.40052">
        <ele>613.2</ele>
        <time>2020-08-25T10:14:50.000Z</time>
      </trkpt>
      <trkpt lat="44.34784" lon="3.40052">
        <ele>613.3</ele>
        <time>2020-08-25T10:14:51.000Z</time>
      </trkpt>
      <trkpt lat="44.3478" lon="3.40053">
        <ele>613.5</ele>
        <time>2020-08-25T10:14:53.000Z</time>
      </trkpt>
      <trkpt lat="44.34776" lon="3.40054">
        <ele>613.8</ele>
        <time>2020-08-25T10:14:55.000Z</time>
      </trkpt>
      <trkpt lat="44.34772" lon="3.40055">
        <ele>614.1</ele>
        <time>2020-08-25T10:14:57.000Z</time>
      </trkpt>
      <trkpt lat="44.34769" lon="3.40055">
        <ele>614.3</ele>
        <time>2020-08-25T10:14:58.000Z</time>
      </trkpt>
      <trkpt lat="44.34768" lon="3.40055">
        <ele>614.3</ele>
        <time>2020-08-25T10:14:59.000Z</time>
      </trkpt>
      <trkpt lat="44.34766" lon="3.40055">
        <ele>614.5</ele>
        <time>2020-08-25T10:15:00.000Z</time>
      </trkpt>
      <trkpt lat="44.34761" lon="3.40057">
        <ele>614.7</ele>
        <time>2020-08-25T10:15:02.000Z</time>
      </trkpt>
      <trkpt lat="44.34758" lon="3.40058">
        <ele>614.9</ele>
        <time>2020-08-25T10:15:03.000Z</time>
      </trkpt>
      <trkpt lat="44.34755" lon="3.40058">
        <ele>615.1</ele>
        <time>2020-08-25T10:15:05.000Z</time>
      </trkpt>
      <trkpt lat="44.34751" lon="3.40059">
        <ele>615.3</ele>
        <time>2020-08-25T10:15:07.000Z</time>
      </trkpt>
      <trkpt lat="44.34749" lon="3.4006">
        <ele>615.4</ele>
        <time>2020-08-25T10:15:08.000Z</time>
      </trkpt>
      <trkpt lat="44.34744" lon="3.40061">
        <ele>615.7</ele>
        <time>2020-08-25T10:15:10.000Z</time>
      </trkpt>
      <trkpt lat="44.3474" lon="3.40061">
        <ele>615.9</ele>
        <time>2020-08-25T10:15:12.000Z</time>
      </trkpt>
      <trkpt lat="44.34736" lon="3.40062">
        <ele>616.1</ele>
        <time>2020-08-25T10:15:14.000Z</time>
      </trkpt>
      <trkpt lat="44.34732" lon="3.40064">
        <ele>616.4</ele>
        <time>2020-08-25T10:15:16.000Z</time>
      </trkpt>
      <trkpt lat="44.3473" lon="3.40064">
        <ele>616.5</ele>
        <time>2020-08-25T10:15:17.000Z</time>
      </trkpt>
      <trkpt lat="44.34726" lon="3.40065">
        <ele>616.8</ele>
        <time>2020-08-25T10:15:19.000Z</time>
      </trkpt>
      <trkpt lat="44.34724" lon="3.40065">
        <ele>616.9</ele>
        <time>2020-08-25T10:15:20.000Z</time>
      </trkpt>
      <trkpt lat="44.3472" lon="3.40067">
        <ele>617.1</ele>
        <time>2020-08-25T10:15:22.000Z</time>
      </trkpt>
      <trkpt lat="44.34718" lon="3.40067">
        <ele>617.3</ele>
        <time>2020-08-25T10:15:23.000Z</time>
      </trkpt>
      <trkpt lat="44.34714" lon="3.40067">
        <ele>617.5</ele>
        <time>2020-08-25T10:15:25.000Z</time>
      </trkpt>
      <trkpt lat="44.3471" lon="3.40068">
        <ele>617.7</ele>
        <time>2020-08-25T10:15:27.000Z</time>
      </trkpt>
      <trkpt lat="44.34706" lon="3.40067">
        <ele>617.9</ele>
        <time>2020-08-25T10:15:29.000Z</time>
      </trkpt>
      <trkpt lat="44.34704" lon="3.40067">
        <ele>618</ele>
        <time>2020-08-25T10:15:30.000Z</time>
      </trkpt>
      <trkpt lat="44.34701" lon="3.40067">
        <ele>618.2</ele>
        <time>2020-08-25T10:15:32.000Z</time>
      </trkpt>
      <trkpt lat="44.34698" lon="3.40066">
        <ele>618.3</ele>
        <time>2020-08-25T10:15:33.000Z</time>
      </trkpt>
      <trkpt lat="44.34697" lon="3.40065">
        <ele>618.4</ele>
        <time>2020-08-25T10:15:34.000Z</time>
      </trkpt>
      <trkpt lat="44.34695" lon="3.40065">
        <ele>618.5</ele>
        <time>2020-08-25T10:15:35.000Z</time>
      </trkpt>
      <trkpt lat="44.34691" lon="3.40063">
        <ele>618.7</ele>
        <time>2020-08-25T10:15:37.000Z</time>
      </trkpt>
      <trkpt lat="44.34687" lon="3.40061">
        <ele>618.9</ele>
        <time>2020-08-25T10:15:39.000Z</time>
      </trkpt>
      <trkpt lat="44.34683" lon="3.4006">
        <ele>619.1</ele>
        <time>2020-08-25T10:15:40.000Z</time>
      </trkpt>
      <trkpt lat="44.34682" lon="3.40059">
        <ele>619.2</ele>
        <time>2020-08-25T10:15:41.000Z</time>
      </trkpt>
      <trkpt lat="44.34678" lon="3.40058">
        <ele>619.4</ele>
        <time>2020-08-25T10:15:43.000Z</time>
      </trkpt>
      <trkpt lat="44.34676" lon="3.40057">
        <ele>619.5</ele>
        <time>2020-08-25T10:15:44.000Z</time>
      </trkpt>
      <trkpt lat="44.34672" lon="3.40055">
        <ele>619.7</ele>
        <time>2020-08-25T10:15:46.000Z</time>
      </trkpt>
      <trkpt lat="44.34668" lon="3.40054">
        <ele>619.9</ele>
        <time>2020-08-25T10:15:48.000Z</time>
      </trkpt>
      <trkpt lat="44.34665" lon="3.40053">
        <ele>620</ele>
        <time>2020-08-25T10:15:49.000Z</time>
      </trkpt>
      <trkpt lat="44.34664" lon="3.40053">
        <ele>620.1</ele>
        <time>2020-08-25T10:15:50.000Z</time>
      </trkpt>
      <trkpt lat="44.34659" lon="3.40051">
        <ele>620.3</ele>
        <time>2020-08-25T10:15:52.000Z</time>
      </trkpt>
      <trkpt lat="44.34655" lon="3.40049">
        <ele>620.5</ele>
        <time>2020-08-25T10:15:54.000Z</time>
      </trkpt>
      <trkpt lat="44.34652" lon="3.40048">
        <ele>620.7</ele>
        <time>2020-08-25T10:15:55.000Z</time>
      </trkpt>
      <trkpt lat="44.34651" lon="3.40047">
        <ele>620.7</ele>
        <time>2020-08-25T10:15:56.000Z</time>
      </trkpt>
      <trkpt lat="44.34647" lon="3.40045">
        <ele>620.9</ele>
        <time>2020-08-25T10:15:58.000Z</time>
      </trkpt>
      <trkpt lat="44.34643" lon="3.40043">
        <ele>621.1</ele>
        <time>2020-08-25T10:16:00.000Z</time>
      </trkpt>
      <trkpt lat="44.3464" lon="3.40041">
        <ele>621.4</ele>
        <time>2020-08-25T10:16:01.000Z</time>
      </trkpt>
      <trkpt lat="44.34639" lon="3.40041">
        <ele>621.5</ele>
        <time>2020-08-25T10:16:02.000Z</time>
      </trkpt>
      <trkpt lat="44.34635" lon="3.40039">
        <ele>621.9</ele>
        <time>2020-08-25T10:16:04.000Z</time>
      </trkpt>
      <trkpt lat="44.34632" lon="3.40036">
        <ele>622.2</ele>
        <time>2020-08-25T10:16:06.000Z</time>
      </trkpt>
      <trkpt lat="44.34628" lon="3.40034">
        <ele>622.5</ele>
        <time>2020-08-25T10:16:08.000Z</time>
      </trkpt>
      <trkpt lat="44.34625" lon="3.40033">
        <ele>622.7</ele>
        <time>2020-08-25T10:16:09.000Z</time>
      </trkpt>
      <trkpt lat="44.34624" lon="3.40032">
        <ele>622.8</ele>
        <time>2020-08-25T10:16:10.000Z</time>
      </trkpt>
      <trkpt lat="44.34622" lon="3.40031">
        <ele>622.9</ele>
        <time>2020-08-25T10:16:11.000Z</time>
      </trkpt>
      <trkpt lat="44.34618" lon="3.4003">
        <ele>623.2</ele>
        <time>2020-08-25T10:16:13.000Z</time>
      </trkpt>
      <trkpt lat="44.34617" lon="3.40029">
        <ele>623.3</ele>
        <time>2020-08-25T10:16:14.000Z</time>
      </trkpt>
      <trkpt lat="44.34613" lon="3.40028">
        <ele>623.6</ele>
        <time>2020-08-25T10:16:16.000Z</time>
      </trkpt>
      <trkpt lat="44.34609" lon="3.40027">
        <ele>623.8</ele>
        <time>2020-08-25T10:16:18.000Z</time>
      </trkpt>
      <trkpt lat="44.34607" lon="3.40026">
        <ele>624</ele>
        <time>2020-08-25T10:16:19.000Z</time>
      </trkpt>
      <trkpt lat="44.34603" lon="3.40026">
        <ele>624.2</ele>
        <time>2020-08-25T10:16:21.000Z</time>
      </trkpt>
      <trkpt lat="44.34599" lon="3.40025">
        <ele>624.5</ele>
        <time>2020-08-25T10:16:22.000Z</time>
      </trkpt>
      <trkpt lat="44.34598" lon="3.40025">
        <ele>624.6</ele>
        <time>2020-08-25T10:16:23.000Z</time>
      </trkpt>
      <trkpt lat="44.34594" lon="3.40023">
        <ele>624.9</ele>
        <time>2020-08-25T10:16:25.000Z</time>
      </trkpt>
      <trkpt lat="44.34592" lon="3.40023">
        <ele>625</ele>
        <time>2020-08-25T10:16:26.000Z</time>
      </trkpt>
      <trkpt lat="44.34587" lon="3.40023">
        <ele>625.3</ele>
        <time>2020-08-25T10:16:28.000Z</time>
      </trkpt>
      <trkpt lat="44.34584" lon="3.40022">
        <ele>625.5</ele>
        <time>2020-08-25T10:16:29.000Z</time>
      </trkpt>
      <trkpt lat="44.34583" lon="3.40022">
        <ele>625.6</ele>
        <time>2020-08-25T10:16:30.000Z</time>
      </trkpt>
      <trkpt lat="44.34579" lon="3.40022">
        <ele>625.8</ele>
        <time>2020-08-25T10:16:32.000Z</time>
      </trkpt>
      <trkpt lat="44.34575" lon="3.4002">
        <ele>626.1</ele>
        <time>2020-08-25T10:16:34.000Z</time>
      </trkpt>
      <trkpt lat="44.34573" lon="3.4002">
        <ele>626.2</ele>
        <time>2020-08-25T10:16:35.000Z</time>
      </trkpt>
      <trkpt lat="44.34569" lon="3.40019">
        <ele>626.5</ele>
        <time>2020-08-25T10:16:37.000Z</time>
      </trkpt>
      <trkpt lat="44.34565" lon="3.40018">
        <ele>626.7</ele>
        <time>2020-08-25T10:16:39.000Z</time>
      </trkpt>
      <trkpt lat="44.34562" lon="3.40017">
        <ele>626.9</ele>
        <time>2020-08-25T10:16:40.000Z</time>
      </trkpt>
      <trkpt lat="44.34561" lon="3.40017">
        <ele>627</ele>
        <time>2020-08-25T10:16:41.000Z</time>
      </trkpt>
      <trkpt lat="44.34557" lon="3.40015">
        <ele>627.2</ele>
        <time>2020-08-25T10:16:43.000Z</time>
      </trkpt>
      <trkpt lat="44.34555" lon="3.40014">
        <ele>627.4</ele>
        <time>2020-08-25T10:16:44.000Z</time>
      </trkpt>
      <trkpt lat="44.34551" lon="3.40013">
        <ele>627.7</ele>
        <time>2020-08-25T10:16:46.000Z</time>
      </trkpt>
      <trkpt lat="44.34548" lon="3.40011">
        <ele>627.9</ele>
        <time>2020-08-25T10:16:48.000Z</time>
      </trkpt>
      <trkpt lat="44.34545" lon="3.4001">
        <ele>628.2</ele>
        <time>2020-08-25T10:16:49.000Z</time>
      </trkpt>
      <trkpt lat="44.34544" lon="3.40009">
        <ele>628.2</ele>
        <time>2020-08-25T10:16:50.000Z</time>
      </trkpt>
      <trkpt lat="44.3454" lon="3.40008">
        <ele>628.5</ele>
        <time>2020-08-25T10:16:52.000Z</time>
      </trkpt>
      <trkpt lat="44.34536" lon="3.40006">
        <ele>628.8</ele>
        <time>2020-08-25T10:16:54.000Z</time>
      </trkpt>
      <trkpt lat="44.34532" lon="3.40005">
        <ele>629.1</ele>
        <time>2020-08-25T10:16:56.000Z</time>
      </trkpt>
      <trkpt lat="44.3453" lon="3.40005">
        <ele>629.2</ele>
        <time>2020-08-25T10:16:57.000Z</time>
      </trkpt>
      <trkpt lat="44.34525" lon="3.40005">
        <ele>629.5</ele>
        <time>2020-08-25T10:16:59.000Z</time>
      </trkpt>
      <trkpt lat="44.34521" lon="3.40004">
        <ele>629.8</ele>
        <time>2020-08-25T10:17:01.000Z</time>
      </trkpt>
      <trkpt lat="44.34519" lon="3.40004">
        <ele>629.9</ele>
        <time>2020-08-25T10:17:02.000Z</time>
      </trkpt>
      <trkpt lat="44.34515" lon="3.40003">
        <ele>630.2</ele>
        <time>2020-08-25T10:17:04.000Z</time>
      </trkpt>
      <trkpt lat="44.34513" lon="3.40003">
        <ele>630.4</ele>
        <time>2020-08-25T10:17:05.000Z</time>
      </trkpt>
      <trkpt lat="44.34508" lon="3.40003">
        <ele>630.7</ele>
        <time>2020-08-25T10:17:07.000Z</time>
      </trkpt>
      <trkpt lat="44.34505" lon="3.40004">
        <ele>630.9</ele>
        <time>2020-08-25T10:17:09.000Z</time>
      </trkpt>
      <trkpt lat="44.34502" lon="3.40004">
        <ele>631.1</ele>
        <time>2020-08-25T10:17:10.000Z</time>
      </trkpt>
      <trkpt lat="44.34501" lon="3.40004">
        <ele>631.2</ele>
        <time>2020-08-25T10:17:11.000Z</time>
      </trkpt>
      <trkpt lat="44.34496" lon="3.40005">
        <ele>631.6</ele>
        <time>2020-08-25T10:17:13.000Z</time>
      </trkpt>
      <trkpt lat="44.34492" lon="3.40005">
        <ele>631.8</ele>
        <time>2020-08-25T10:17:15.000Z</time>
      </trkpt>
      <trkpt lat="44.34488" lon="3.40006">
        <ele>632.1</ele>
        <time>2020-08-25T10:17:17.000Z</time>
      </trkpt>
      <trkpt lat="44.34484" lon="3.40006">
        <ele>632.5</ele>
        <time>2020-08-25T10:17:19.000Z</time>
      </trkpt>
      <trkpt lat="44.34481" lon="3.40006">
        <ele>632.7</ele>
        <time>2020-08-25T10:17:20.000Z</time>
      </trkpt>
      <trkpt lat="44.3448" lon="3.40006">
        <ele>632.8</ele>
        <time>2020-08-25T10:17:21.000Z</time>
      </trkpt>
      <trkpt lat="44.34476" lon="3.40005">
        <ele>633.1</ele>
        <time>2020-08-25T10:17:23.000Z</time>
      </trkpt>
      <trkpt lat="44.34471" lon="3.40004">
        <ele>633.4</ele>
        <time>2020-08-25T10:17:25.000Z</time>
      </trkpt>
      <trkpt lat="44.34467" lon="3.40003">
        <ele>633.7</ele>
        <time>2020-08-25T10:17:27.000Z</time>
      </trkpt>
      <trkpt lat="44.34464" lon="3.40001">
        <ele>633.9</ele>
        <time>2020-08-25T10:17:29.000Z</time>
      </trkpt>
      <trkpt lat="44.34462" lon="3.40001">
        <ele>634.1</ele>
        <time>2020-08-25T10:17:30.000Z</time>
      </trkpt>
      <trkpt lat="44.34457" lon="3.39999">
        <ele>634.4</ele>
        <time>2020-08-25T10:17:32.000Z</time>
      </trkpt>
      <trkpt lat="44.34456" lon="3.39999">
        <ele>634.5</ele>
        <time>2020-08-25T10:17:33.000Z</time>
      </trkpt>
      <trkpt lat="44.34452" lon="3.39997">
        <ele>634.8</ele>
        <time>2020-08-25T10:17:35.000Z</time>
      </trkpt>
      <trkpt lat="44.34447" lon="3.39994">
        <ele>635.1</ele>
        <time>2020-08-25T10:17:37.000Z</time>
      </trkpt>
      <trkpt lat="44.34444" lon="3.39992">
        <ele>635.4</ele>
        <time>2020-08-25T10:17:39.000Z</time>
      </trkpt>
      <trkpt lat="44.34442" lon="3.39991">
        <ele>635.5</ele>
        <time>2020-08-25T10:17:40.000Z</time>
      </trkpt>
      <trkpt lat="44.34439" lon="3.39988">
        <ele>635.8</ele>
        <time>2020-08-25T10:17:42.000Z</time>
      </trkpt>
      <trkpt lat="44.34435" lon="3.39985">
        <ele>636.1</ele>
        <time>2020-08-25T10:17:44.000Z</time>
      </trkpt>
      <trkpt lat="44.34431" lon="3.39983">
        <ele>636.4</ele>
        <time>2020-08-25T10:17:46.000Z</time>
      </trkpt>
      <trkpt lat="44.34429" lon="3.39981">
        <ele>636.6</ele>
        <time>2020-08-25T10:17:47.000Z</time>
      </trkpt>
      <trkpt lat="44.34425" lon="3.39979">
        <ele>636.9</ele>
        <time>2020-08-25T10:17:49.000Z</time>
      </trkpt>
      <trkpt lat="44.34422" lon="3.39974">
        <ele>637.2</ele>
        <time>2020-08-25T10:17:51.000Z</time>
      </trkpt>
      <trkpt lat="44.34419" lon="3.39971">
        <ele>637.5</ele>
        <time>2020-08-25T10:17:53.000Z</time>
      </trkpt>
      <trkpt lat="44.34416" lon="3.39968">
        <ele>637.7</ele>
        <time>2020-08-25T10:17:55.000Z</time>
      </trkpt>
      <trkpt lat="44.34413" lon="3.39963">
        <ele>638</ele>
        <time>2020-08-25T10:17:57.000Z</time>
      </trkpt>
      <trkpt lat="44.34412" lon="3.3996">
        <ele>638.1</ele>
        <time>2020-08-25T10:17:58.000Z</time>
      </trkpt>
      <trkpt lat="44.3441" lon="3.39956">
        <ele>638.4</ele>
        <time>2020-08-25T10:18:00.000Z</time>
      </trkpt>
      <trkpt lat="44.34408" lon="3.3995">
        <ele>638.7</ele>
        <time>2020-08-25T10:18:02.000Z</time>
      </trkpt>
      <trkpt lat="44.34407" lon="3.39948">
        <ele>638.8</ele>
        <time>2020-08-25T10:18:03.000Z</time>
      </trkpt>
      <trkpt lat="44.34406" lon="3.39946">
        <ele>638.9</ele>
        <time>2020-08-25T10:18:04.000Z</time>
      </trkpt>
      <trkpt lat="44.34403" lon="3.39941">
        <ele>639.2</ele>
        <time>2020-08-25T10:18:06.000Z</time>
      </trkpt>
      <trkpt lat="44.34403" lon="3.3994">
        <ele>639.3</ele>
        <time>2020-08-25T10:18:07.000Z</time>
      </trkpt>
      <trkpt lat="44.34402" lon="3.39938">
        <ele>639.3</ele>
        <time>2020-08-25T10:18:08.000Z</time>
      </trkpt>
      <trkpt lat="44.34401" lon="3.39936">
        <ele>639.5</ele>
        <time>2020-08-25T10:18:09.000Z</time>
      </trkpt>
      <trkpt lat="44.34399" lon="3.39931">
        <ele>639.7</ele>
        <time>2020-08-25T10:18:11.000Z</time>
      </trkpt>
      <trkpt lat="44.34396" lon="3.39926">
        <ele>640</ele>
        <time>2020-08-25T10:18:13.000Z</time>
      </trkpt>
      <trkpt lat="44.34393" lon="3.39923">
        <ele>640.2</ele>
        <time>2020-08-25T10:18:15.000Z</time>
      </trkpt>
      <trkpt lat="44.34389" lon="3.39919">
        <ele>640.5</ele>
        <time>2020-08-25T10:18:17.000Z</time>
      </trkpt>
      <trkpt lat="44.34385" lon="3.39915">
        <ele>640.8</ele>
        <time>2020-08-25T10:18:19.000Z</time>
      </trkpt>
      <trkpt lat="44.34381" lon="3.39912">
        <ele>641.1</ele>
        <time>2020-08-25T10:18:21.000Z</time>
      </trkpt>
      <trkpt lat="44.34378" lon="3.39909">
        <ele>641.4</ele>
        <time>2020-08-25T10:18:23.000Z</time>
      </trkpt>
      <trkpt lat="44.34376" lon="3.39907">
        <ele>641.5</ele>
        <time>2020-08-25T10:18:24.000Z</time>
      </trkpt>
      <trkpt lat="44.34372" lon="3.39905">
        <ele>641.8</ele>
        <time>2020-08-25T10:18:26.000Z</time>
      </trkpt>
      <trkpt lat="44.34368" lon="3.39903">
        <ele>642.1</ele>
        <time>2020-08-25T10:18:28.000Z</time>
      </trkpt>
      <trkpt lat="44.34364" lon="3.39901">
        <ele>642.3</ele>
        <time>2020-08-25T10:18:30.000Z</time>
      </trkpt>
      <trkpt lat="44.34361" lon="3.39899">
        <ele>642.6</ele>
        <time>2020-08-25T10:18:32.000Z</time>
      </trkpt>
      <trkpt lat="44.34357" lon="3.39897">
        <ele>642.9</ele>
        <time>2020-08-25T10:18:34.000Z</time>
      </trkpt>
      <trkpt lat="44.34353" lon="3.39896">
        <ele>643.2</ele>
        <time>2020-08-25T10:18:36.000Z</time>
      </trkpt>
      <trkpt lat="44.34351" lon="3.39894">
        <ele>643.4</ele>
        <time>2020-08-25T10:18:37.000Z</time>
      </trkpt>
      <trkpt lat="44.3435" lon="3.39894">
        <ele>643.4</ele>
        <time>2020-08-25T10:18:38.000Z</time>
      </trkpt>
      <trkpt lat="44.34346" lon="3.39892">
        <ele>643.7</ele>
        <time>2020-08-25T10:18:40.000Z</time>
      </trkpt>
      <trkpt lat="44.34343" lon="3.39891">
        <ele>643.9</ele>
        <time>2020-08-25T10:18:41.000Z</time>
      </trkpt>
      <trkpt lat="44.34342" lon="3.3989">
        <ele>644</ele>
        <time>2020-08-25T10:18:42.000Z</time>
      </trkpt>
      <trkpt lat="44.34338" lon="3.39889">
        <ele>644.3</ele>
        <time>2020-08-25T10:18:44.000Z</time>
      </trkpt>
      <trkpt lat="44.34336" lon="3.39888">
        <ele>644.4</ele>
        <time>2020-08-25T10:18:45.000Z</time>
      </trkpt>
      <trkpt lat="44.34332" lon="3.39887">
        <ele>644.7</ele>
        <time>2020-08-25T10:18:47.000Z</time>
      </trkpt>
      <trkpt lat="44.3433" lon="3.39885">
        <ele>644.8</ele>
        <time>2020-08-25T10:18:48.000Z</time>
      </trkpt>
      <trkpt lat="44.34329" lon="3.39885">
        <ele>644.9</ele>
        <time>2020-08-25T10:18:49.000Z</time>
      </trkpt>
      <trkpt lat="44.34325" lon="3.39882">
        <ele>645.2</ele>
        <time>2020-08-25T10:18:51.000Z</time>
      </trkpt>
      <trkpt lat="44.34322" lon="3.3988">
        <ele>645.4</ele>
        <time>2020-08-25T10:18:52.000Z</time>
      </trkpt>
      <trkpt lat="44.34321" lon="3.39879">
        <ele>645.5</ele>
        <time>2020-08-25T10:18:53.000Z</time>
      </trkpt>
      <trkpt lat="44.34318" lon="3.39876">
        <ele>645.8</ele>
        <time>2020-08-25T10:18:55.000Z</time>
      </trkpt>
      <trkpt lat="44.34315" lon="3.39872">
        <ele>646</ele>
        <time>2020-08-25T10:18:57.000Z</time>
      </trkpt>
      <trkpt lat="44.34313" lon="3.39869">
        <ele>646.3</ele>
        <time>2020-08-25T10:18:58.000Z</time>
      </trkpt>
      <trkpt lat="44.3431" lon="3.39865">
        <ele>646.5</ele>
        <time>2020-08-25T10:19:00.000Z</time>
      </trkpt>
      <trkpt lat="44.34308" lon="3.39863">
        <ele>646.7</ele>
        <time>2020-08-25T10:19:01.000Z</time>
      </trkpt>
      <trkpt lat="44.34305" lon="3.39859">
        <ele>647</ele>
        <time>2020-08-25T10:19:03.000Z</time>
      </trkpt>
      <trkpt lat="44.34303" lon="3.39854">
        <ele>647.3</ele>
        <time>2020-08-25T10:19:05.000Z</time>
      </trkpt>
      <trkpt lat="44.34301" lon="3.3985">
        <ele>647.6</ele>
        <time>2020-08-25T10:19:07.000Z</time>
      </trkpt>
      <trkpt lat="44.34298" lon="3.39846">
        <ele>647.9</ele>
        <time>2020-08-25T10:19:09.000Z</time>
      </trkpt>
      <trkpt lat="44.34296" lon="3.39845">
        <ele>648.1</ele>
        <time>2020-08-25T10:19:10.000Z</time>
      </trkpt>
      <trkpt lat="44.34293" lon="3.39842">
        <ele>648.4</ele>
        <time>2020-08-25T10:19:12.000Z</time>
      </trkpt>
      <trkpt lat="44.34291" lon="3.3984">
        <ele>648.5</ele>
        <time>2020-08-25T10:19:13.000Z</time>
      </trkpt>
      <trkpt lat="44.34287" lon="3.39837">
        <ele>648.8</ele>
        <time>2020-08-25T10:19:15.000Z</time>
      </trkpt>
      <trkpt lat="44.34284" lon="3.39834">
        <ele>649.1</ele>
        <time>2020-08-25T10:19:17.000Z</time>
      </trkpt>
      <trkpt lat="44.34281" lon="3.39831">
        <ele>649.4</ele>
        <time>2020-08-25T10:19:19.000Z</time>
      </trkpt>
      <trkpt lat="44.34277" lon="3.39829">
        <ele>649.6</ele>
        <time>2020-08-25T10:19:21.000Z</time>
      </trkpt>
      <trkpt lat="44.34275" lon="3.39828">
        <ele>649.8</ele>
        <time>2020-08-25T10:19:22.000Z</time>
      </trkpt>
      <trkpt lat="44.34271" lon="3.39826">
        <ele>650.1</ele>
        <time>2020-08-25T10:19:24.000Z</time>
      </trkpt>
      <trkpt lat="44.34267" lon="3.39826">
        <ele>650.3</ele>
        <time>2020-08-25T10:19:26.000Z</time>
      </trkpt>
      <trkpt lat="44.34262" lon="3.39825">
        <ele>650.6</ele>
        <time>2020-08-25T10:19:28.000Z</time>
      </trkpt>
      <trkpt lat="44.34258" lon="3.39825">
        <ele>650.8</ele>
        <time>2020-08-25T10:19:30.000Z</time>
      </trkpt>
      <trkpt lat="44.34256" lon="3.39825">
        <ele>650.9</ele>
        <time>2020-08-25T10:19:31.000Z</time>
      </trkpt>
      <trkpt lat="44.34253" lon="3.39825">
        <ele>651.2</ele>
        <time>2020-08-25T10:19:33.000Z</time>
      </trkpt>
      <trkpt lat="44.3425" lon="3.39826">
        <ele>651.4</ele>
        <time>2020-08-25T10:19:34.000Z</time>
      </trkpt>
      <trkpt lat="44.34246" lon="3.39826">
        <ele>651.6</ele>
        <time>2020-08-25T10:19:36.000Z</time>
      </trkpt>
      <trkpt lat="44.34243" lon="3.39826">
        <ele>651.9</ele>
        <time>2020-08-25T10:19:38.000Z</time>
      </trkpt>
      <trkpt lat="44.34238" lon="3.39827">
        <ele>652.2</ele>
        <time>2020-08-25T10:19:40.000Z</time>
      </trkpt>
      <trkpt lat="44.34237" lon="3.39827">
        <ele>652.3</ele>
        <time>2020-08-25T10:19:41.000Z</time>
      </trkpt>
      <trkpt lat="44.34233" lon="3.39828">
        <ele>652.6</ele>
        <time>2020-08-25T10:19:43.000Z</time>
      </trkpt>
      <trkpt lat="44.34229" lon="3.39829">
        <ele>652.9</ele>
        <time>2020-08-25T10:19:45.000Z</time>
      </trkpt>
      <trkpt lat="44.34226" lon="3.39831">
        <ele>653.1</ele>
        <time>2020-08-25T10:19:46.000Z</time>
      </trkpt>
      <trkpt lat="44.34224" lon="3.39832">
        <ele>653.2</ele>
        <time>2020-08-25T10:19:47.000Z</time>
      </trkpt>
      <trkpt lat="44.34223" lon="3.39833">
        <ele>653.4</ele>
        <time>2020-08-25T10:19:48.000Z</time>
      </trkpt>
      <trkpt lat="44.34219" lon="3.39836">
        <ele>653.6</ele>
        <time>2020-08-25T10:19:50.000Z</time>
      </trkpt>
      <trkpt lat="44.34217" lon="3.39838">
        <ele>653.8</ele>
        <time>2020-08-25T10:19:51.000Z</time>
      </trkpt>
      <trkpt lat="44.34216" lon="3.39838">
        <ele>653.9</ele>
        <time>2020-08-25T10:19:52.000Z</time>
      </trkpt>
      <trkpt lat="44.34212" lon="3.39841">
        <ele>654.2</ele>
        <time>2020-08-25T10:19:54.000Z</time>
      </trkpt>
      <trkpt lat="44.34209" lon="3.39845">
        <ele>654.5</ele>
        <time>2020-08-25T10:19:56.000Z</time>
      </trkpt>
      <trkpt lat="44.34206" lon="3.39847">
        <ele>654.7</ele>
        <time>2020-08-25T10:19:58.000Z</time>
      </trkpt>
      <trkpt lat="44.34204" lon="3.39848">
        <ele>654.9</ele>
        <time>2020-08-25T10:19:59.000Z</time>
      </trkpt>
      <trkpt lat="44.342" lon="3.3985">
        <ele>655.1</ele>
        <time>2020-08-25T10:20:01.000Z</time>
      </trkpt>
      <trkpt lat="44.34198" lon="3.39852">
        <ele>655.3</ele>
        <time>2020-08-25T10:20:02.000Z</time>
      </trkpt>
      <trkpt lat="44.34197" lon="3.39852">
        <ele>655.4</ele>
        <time>2020-08-25T10:20:03.000Z</time>
      </trkpt>
      <trkpt lat="44.34195" lon="3.39853">
        <ele>655.5</ele>
        <time>2020-08-25T10:20:04.000Z</time>
      </trkpt>
      <trkpt lat="44.34191" lon="3.39855">
        <ele>655.8</ele>
        <time>2020-08-25T10:20:06.000Z</time>
      </trkpt>
      <trkpt lat="44.34187" lon="3.39857">
        <ele>656.1</ele>
        <time>2020-08-25T10:20:08.000Z</time>
      </trkpt>
      <trkpt lat="44.34183" lon="3.39858">
        <ele>656.3</ele>
        <time>2020-08-25T10:20:10.000Z</time>
      </trkpt>
      <trkpt lat="44.34178" lon="3.39859">
        <ele>656.7</ele>
        <time>2020-08-25T10:20:12.000Z</time>
      </trkpt>
      <trkpt lat="44.34177" lon="3.39859">
        <ele>656.8</ele>
        <time>2020-08-25T10:20:13.000Z</time>
      </trkpt>
      <trkpt lat="44.34175" lon="3.3986">
        <ele>656.9</ele>
        <time>2020-08-25T10:20:14.000Z</time>
      </trkpt>
      <trkpt lat="44.34171" lon="3.39861">
        <ele>657.2</ele>
        <time>2020-08-25T10:20:16.000Z</time>
      </trkpt>
      <trkpt lat="44.34169" lon="3.39862">
        <ele>657.4</ele>
        <time>2020-08-25T10:20:17.000Z</time>
      </trkpt>
      <trkpt lat="44.34165" lon="3.39862">
        <ele>657.7</ele>
        <time>2020-08-25T10:20:19.000Z</time>
      </trkpt>
      <trkpt lat="44.34163" lon="3.39863">
        <ele>657.8</ele>
        <time>2020-08-25T10:20:20.000Z</time>
      </trkpt>
      <trkpt lat="44.34159" lon="3.39864">
        <ele>658.1</ele>
        <time>2020-08-25T10:20:22.000Z</time>
      </trkpt>
      <trkpt lat="44.34155" lon="3.39865">
        <ele>658.3</ele>
        <time>2020-08-25T10:20:23.000Z</time>
      </trkpt>
      <trkpt lat="44.34154" lon="3.39865">
        <ele>658.4</ele>
        <time>2020-08-25T10:20:24.000Z</time>
      </trkpt>
      <trkpt lat="44.34152" lon="3.39866">
        <ele>658.5</ele>
        <time>2020-08-25T10:20:25.000Z</time>
      </trkpt>
      <trkpt lat="44.34148" lon="3.39867">
        <ele>658.7</ele>
        <time>2020-08-25T10:20:27.000Z</time>
      </trkpt>
      <trkpt lat="44.34146" lon="3.39868">
        <ele>658.8</ele>
        <time>2020-08-25T10:20:28.000Z</time>
      </trkpt>
      <trkpt lat="44.34142" lon="3.3987">
        <ele>659</ele>
        <time>2020-08-25T10:20:30.000Z</time>
      </trkpt>
      <trkpt lat="44.34138" lon="3.39871">
        <ele>659.3</ele>
        <time>2020-08-25T10:20:32.000Z</time>
      </trkpt>
      <trkpt lat="44.34136" lon="3.39871">
        <ele>659.4</ele>
        <time>2020-08-25T10:20:33.000Z</time>
      </trkpt>
      <trkpt lat="44.34132" lon="3.39872">
        <ele>659.6</ele>
        <time>2020-08-25T10:20:35.000Z</time>
      </trkpt>
      <trkpt lat="44.34128" lon="3.39873">
        <ele>659.8</ele>
        <time>2020-08-25T10:20:36.000Z</time>
      </trkpt>
      <trkpt lat="44.34127" lon="3.39874">
        <ele>659.9</ele>
        <time>2020-08-25T10:20:37.000Z</time>
      </trkpt>
      <trkpt lat="44.34125" lon="3.39874">
        <ele>660</ele>
        <time>2020-08-25T10:20:38.000Z</time>
      </trkpt>
      <trkpt lat="44.34122" lon="3.39875">
        <ele>660.2</ele>
        <time>2020-08-25T10:20:40.000Z</time>
      </trkpt>
      <trkpt lat="44.34117" lon="3.39877">
        <ele>660.4</ele>
        <time>2020-08-25T10:20:42.000Z</time>
      </trkpt>
      <trkpt lat="44.34115" lon="3.39878">
        <ele>660.6</ele>
        <time>2020-08-25T10:20:43.000Z</time>
      </trkpt>
      <trkpt lat="44.34114" lon="3.39879">
        <ele>660.6</ele>
        <time>2020-08-25T10:20:44.000Z</time>
      </trkpt>
      <trkpt lat="44.3411" lon="3.39882">
        <ele>660.8</ele>
        <time>2020-08-25T10:20:46.000Z</time>
      </trkpt>
      <trkpt lat="44.34108" lon="3.39884">
        <ele>661</ele>
        <time>2020-08-25T10:20:47.000Z</time>
      </trkpt>
      <trkpt lat="44.34107" lon="3.39885">
        <ele>661</ele>
        <time>2020-08-25T10:20:48.000Z</time>
      </trkpt>
      <trkpt lat="44.34104" lon="3.39889">
        <ele>661.3</ele>
        <time>2020-08-25T10:20:50.000Z</time>
      </trkpt>
      <trkpt lat="44.34101" lon="3.39893">
        <ele>661.5</ele>
        <time>2020-08-25T10:20:52.000Z</time>
      </trkpt>
      <trkpt lat="44.34099" lon="3.39898">
        <ele>661.7</ele>
        <time>2020-08-25T10:20:54.000Z</time>
      </trkpt>
      <trkpt lat="44.34098" lon="3.399">
        <ele>661.8</ele>
        <time>2020-08-25T10:20:55.000Z</time>
      </trkpt>
      <trkpt lat="44.34095" lon="3.39905">
        <ele>662</ele>
        <time>2020-08-25T10:20:57.000Z</time>
      </trkpt>
      <trkpt lat="44.34091" lon="3.39908">
        <ele>662.2</ele>
        <time>2020-08-25T10:20:59.000Z</time>
      </trkpt>
      <trkpt lat="44.34086" lon="3.3991">
        <ele>662.4</ele>
        <time>2020-08-25T10:21:01.000Z</time>
      </trkpt>
      <trkpt lat="44.34084" lon="3.39911">
        <ele>662.4</ele>
        <time>2020-08-25T10:21:02.000Z</time>
      </trkpt>
      <trkpt lat="44.34079" lon="3.3991">
        <ele>662.6</ele>
        <time>2020-08-25T10:21:04.000Z</time>
      </trkpt>
      <trkpt lat="44.34077" lon="3.3991">
        <ele>662.6</ele>
        <time>2020-08-25T10:21:05.000Z</time>
      </trkpt>
      <trkpt lat="44.34074" lon="3.39908">
        <ele>662.6</ele>
        <time>2020-08-25T10:21:06.000Z</time>
      </trkpt>
      <trkpt lat="44.3407" lon="3.39904">
        <ele>662.6</ele>
        <time>2020-08-25T10:21:08.000Z</time>
      </trkpt>
      <trkpt lat="44.34068" lon="3.39901">
        <ele>662.6</ele>
        <time>2020-08-25T10:21:09.000Z</time>
      </trkpt>
      <trkpt lat="44.34065" lon="3.39895">
        <ele>662.7</ele>
        <time>2020-08-25T10:21:11.000Z</time>
      </trkpt>
      <trkpt lat="44.34064" lon="3.39889">
        <ele>662.7</ele>
        <time>2020-08-25T10:21:13.000Z</time>
      </trkpt>
      <trkpt lat="44.34063" lon="3.39887">
        <ele>662.7</ele>
        <time>2020-08-25T10:21:14.000Z</time>
      </trkpt>
      <trkpt lat="44.34062" lon="3.39881">
        <ele>662.8</ele>
        <time>2020-08-25T10:21:16.000Z</time>
      </trkpt>
      <trkpt lat="44.3406" lon="3.39876">
        <ele>662.8</ele>
        <time>2020-08-25T10:21:17.000Z</time>
      </trkpt>
      <trkpt lat="44.3406" lon="3.39875">
        <ele>662.8</ele>
        <time>2020-08-25T10:21:18.000Z</time>
      </trkpt>
      <trkpt lat="44.34058" lon="3.39869">
        <ele>662.9</ele>
        <time>2020-08-25T10:21:20.000Z</time>
      </trkpt>
      <trkpt lat="44.34056" lon="3.39863">
        <ele>663</ele>
        <time>2020-08-25T10:21:22.000Z</time>
      </trkpt>
      <trkpt lat="44.34055" lon="3.39857">
        <ele>663</ele>
        <time>2020-08-25T10:21:24.000Z</time>
      </trkpt>
      <trkpt lat="44.34054" lon="3.39853">
        <ele>663.6</ele>
        <time>2020-08-25T10:21:25.000Z</time>
      </trkpt>
      <trkpt lat="44.34054" lon="3.39851">
        <ele>663.8</ele>
        <time>2020-08-25T10:21:26.000Z</time>
      </trkpt>
      <trkpt lat="44.34053" lon="3.39848">
        <ele>664.4</ele>
        <time>2020-08-25T10:21:27.000Z</time>
      </trkpt>
      <trkpt lat="44.34052" lon="3.39842">
        <ele>665.2</ele>
        <time>2020-08-25T10:21:29.000Z</time>
      </trkpt>
      <trkpt lat="44.34051" lon="3.39837">
        <ele>665.9</ele>
        <time>2020-08-25T10:21:31.000Z</time>
      </trkpt>
      <trkpt lat="44.3405" lon="3.39831">
        <ele>666.4</ele>
        <time>2020-08-25T10:21:33.000Z</time>
      </trkpt>
      <trkpt lat="44.34049" lon="3.39829">
        <ele>666.6</ele>
        <time>2020-08-25T10:21:34.000Z</time>
      </trkpt>
      <trkpt lat="44.34048" lon="3.39823">
        <ele>667</ele>
        <time>2020-08-25T10:21:36.000Z</time>
      </trkpt>
      <trkpt lat="44.34047" lon="3.3982">
        <ele>667.2</ele>
        <time>2020-08-25T10:21:37.000Z</time>
      </trkpt>
      <trkpt lat="44.34046" lon="3.39815">
        <ele>667.5</ele>
        <time>2020-08-25T10:21:39.000Z</time>
      </trkpt>
      <trkpt lat="44.34046" lon="3.39812">
        <ele>667.7</ele>
        <time>2020-08-25T10:21:40.000Z</time>
      </trkpt>
      <trkpt lat="44.34046" lon="3.39806">
        <ele>668</ele>
        <time>2020-08-25T10:21:42.000Z</time>
      </trkpt>
      <trkpt lat="44.34045" lon="3.39803">
        <ele>668.2</ele>
        <time>2020-08-25T10:21:43.000Z</time>
      </trkpt>
      <trkpt lat="44.34045" lon="3.39798">
        <ele>668.4</ele>
        <time>2020-08-25T10:21:45.000Z</time>
      </trkpt>
      <trkpt lat="44.34045" lon="3.39796">
        <ele>668.5</ele>
        <time>2020-08-25T10:21:46.000Z</time>
      </trkpt>
      <trkpt lat="44.34045" lon="3.3979">
        <ele>668.8</ele>
        <time>2020-08-25T10:21:48.000Z</time>
      </trkpt>
      <trkpt lat="44.34046" lon="3.39788">
        <ele>668.9</ele>
        <time>2020-08-25T10:21:49.000Z</time>
      </trkpt>
      <trkpt lat="44.34046" lon="3.39782">
        <ele>669.1</ele>
        <time>2020-08-25T10:21:51.000Z</time>
      </trkpt>
      <trkpt lat="44.34046" lon="3.3978">
        <ele>669.2</ele>
        <time>2020-08-25T10:21:52.000Z</time>
      </trkpt>
      <trkpt lat="44.34046" lon="3.39774">
        <ele>669.5</ele>
        <time>2020-08-25T10:21:54.000Z</time>
      </trkpt>
      <trkpt lat="44.34046" lon="3.39768">
        <ele>669.8</ele>
        <time>2020-08-25T10:21:56.000Z</time>
      </trkpt>
      <trkpt lat="44.34047" lon="3.39763">
        <ele>670.2</ele>
        <time>2020-08-25T10:21:58.000Z</time>
      </trkpt>
      <trkpt lat="44.34047" lon="3.39758">
        <ele>670.4</ele>
        <time>2020-08-25T10:21:59.000Z</time>
      </trkpt>
      <trkpt lat="44.34048" lon="3.39757">
        <ele>670.5</ele>
        <time>2020-08-25T10:22:00.000Z</time>
      </trkpt>
      <trkpt lat="44.34049" lon="3.39751">
        <ele>670.7</ele>
        <time>2020-08-25T10:22:02.000Z</time>
      </trkpt>
      <trkpt lat="44.34049" lon="3.39745">
        <ele>670.9</ele>
        <time>2020-08-25T10:22:04.000Z</time>
      </trkpt>
      <trkpt lat="44.34049" lon="3.39742">
        <ele>671</ele>
        <time>2020-08-25T10:22:05.000Z</time>
      </trkpt>
      <trkpt lat="44.34048" lon="3.39737">
        <ele>671.2</ele>
        <time>2020-08-25T10:22:07.000Z</time>
      </trkpt>
      <trkpt lat="44.34048" lon="3.39734">
        <ele>671.2</ele>
        <time>2020-08-25T10:22:08.000Z</time>
      </trkpt>
      <trkpt lat="44.34048" lon="3.39728">
        <ele>671.4</ele>
        <time>2020-08-25T10:22:10.000Z</time>
      </trkpt>
      <trkpt lat="44.34048" lon="3.39725">
        <ele>671.5</ele>
        <time>2020-08-25T10:22:11.000Z</time>
      </trkpt>
      <trkpt lat="44.34047" lon="3.3972">
        <ele>671.7</ele>
        <time>2020-08-25T10:22:13.000Z</time>
      </trkpt>
      <trkpt lat="44.34047" lon="3.39717">
        <ele>671.9</ele>
        <time>2020-08-25T10:22:14.000Z</time>
      </trkpt>
      <trkpt lat="44.34045" lon="3.39712">
        <ele>672.1</ele>
        <time>2020-08-25T10:22:16.000Z</time>
      </trkpt>
      <trkpt lat="44.34044" lon="3.39708">
        <ele>672.4</ele>
        <time>2020-08-25T10:22:18.000Z</time>
      </trkpt>
      <trkpt lat="44.34043" lon="3.39705">
        <ele>672.5</ele>
        <time>2020-08-25T10:22:19.000Z</time>
      </trkpt>
      <trkpt lat="44.3404" lon="3.39701">
        <ele>672.9</ele>
        <time>2020-08-25T10:22:21.000Z</time>
      </trkpt>
      <trkpt lat="44.34037" lon="3.39697">
        <ele>673.2</ele>
        <time>2020-08-25T10:22:22.000Z</time>
      </trkpt>
      <trkpt lat="44.34035" lon="3.39694">
        <ele>673.4</ele>
        <time>2020-08-25T10:22:24.000Z</time>
      </trkpt>
      <trkpt lat="44.34034" lon="3.39692">
        <ele>673.6</ele>
        <time>2020-08-25T10:22:25.000Z</time>
      </trkpt>
      <trkpt lat="44.34031" lon="3.39688">
        <ele>673.9</ele>
        <time>2020-08-25T10:22:27.000Z</time>
      </trkpt>
      <trkpt lat="44.34028" lon="3.39684">
        <ele>674.2</ele>
        <time>2020-08-25T10:22:29.000Z</time>
      </trkpt>
      <trkpt lat="44.34025" lon="3.39681">
        <ele>674.5</ele>
        <time>2020-08-25T10:22:31.000Z</time>
      </trkpt>
      <trkpt lat="44.34024" lon="3.39679">
        <ele>674.7</ele>
        <time>2020-08-25T10:22:32.000Z</time>
      </trkpt>
      <trkpt lat="44.34021" lon="3.39675">
        <ele>675.1</ele>
        <time>2020-08-25T10:22:34.000Z</time>
      </trkpt>
      <trkpt lat="44.34018" lon="3.3967">
        <ele>675.5</ele>
        <time>2020-08-25T10:22:36.000Z</time>
      </trkpt>
      <trkpt lat="44.34017" lon="3.39669">
        <ele>675.6</ele>
        <time>2020-08-25T10:22:37.000Z</time>
      </trkpt>
      <trkpt lat="44.34016" lon="3.39667">
        <ele>675.7</ele>
        <time>2020-08-25T10:22:38.000Z</time>
      </trkpt>
      <trkpt lat="44.34014" lon="3.39663">
        <ele>676</ele>
        <time>2020-08-25T10:22:40.000Z</time>
      </trkpt>
      <trkpt lat="44.34012" lon="3.39658">
        <ele>676.3</ele>
        <time>2020-08-25T10:22:42.000Z</time>
      </trkpt>
      <trkpt lat="44.34011" lon="3.39653">
        <ele>676.5</ele>
        <time>2020-08-25T10:22:43.000Z</time>
      </trkpt>
      <trkpt lat="44.34011" lon="3.39652">
        <ele>676.6</ele>
        <time>2020-08-25T10:22:44.000Z</time>
      </trkpt>
      <trkpt lat="44.3401" lon="3.39646">
        <ele>676.9</ele>
        <time>2020-08-25T10:22:46.000Z</time>
      </trkpt>
      <trkpt lat="44.3401" lon="3.39641">
        <ele>677.1</ele>
        <time>2020-08-25T10:22:48.000Z</time>
      </trkpt>
      <trkpt lat="44.3401" lon="3.39637">
        <ele>677.3</ele>
        <time>2020-08-25T10:22:49.000Z</time>
      </trkpt>
      <trkpt lat="44.34012" lon="3.39633">
        <ele>677.6</ele>
        <time>2020-08-25T10:22:51.000Z</time>
      </trkpt>
      <trkpt lat="44.34013" lon="3.39631">
        <ele>677.7</ele>
        <time>2020-08-25T10:22:52.000Z</time>
      </trkpt>
      <trkpt lat="44.34015" lon="3.39625">
        <ele>678</ele>
        <time>2020-08-25T10:22:54.000Z</time>
      </trkpt>
      <trkpt lat="44.34016" lon="3.3962">
        <ele>678.3</ele>
        <time>2020-08-25T10:22:56.000Z</time>
      </trkpt>
      <trkpt lat="44.34017" lon="3.39615">
        <ele>678.6</ele>
        <time>2020-08-25T10:22:58.000Z</time>
      </trkpt>
      <trkpt lat="44.34019" lon="3.3961">
        <ele>678.9</ele>
        <time>2020-08-25T10:23:00.000Z</time>
      </trkpt>
      <trkpt lat="44.34019" lon="3.39605">
        <ele>679.2</ele>
        <time>2020-08-25T10:23:02.000Z</time>
      </trkpt>
      <trkpt lat="44.34019" lon="3.396">
        <ele>679.5</ele>
        <time>2020-08-25T10:23:04.000Z</time>
      </trkpt>
      <trkpt lat="44.34018" lon="3.39597">
        <ele>679.6</ele>
        <time>2020-08-25T10:23:05.000Z</time>
      </trkpt>
      <trkpt lat="44.34016" lon="3.39592">
        <ele>679.9</ele>
        <time>2020-08-25T10:23:07.000Z</time>
      </trkpt>
      <trkpt lat="44.34014" lon="3.39588">
        <ele>680.1</ele>
        <time>2020-08-25T10:23:09.000Z</time>
      </trkpt>
      <trkpt lat="44.34011" lon="3.39586">
        <ele>680.3</ele>
        <time>2020-08-25T10:23:11.000Z</time>
      </trkpt>
      <trkpt lat="44.34008" lon="3.39583">
        <ele>680.5</ele>
        <time>2020-08-25T10:23:13.000Z</time>
      </trkpt>
      <trkpt lat="44.34006" lon="3.3958">
        <ele>680.6</ele>
        <time>2020-08-25T10:23:14.000Z</time>
      </trkpt>
      <trkpt lat="44.34004" lon="3.3958">
        <ele>680.7</ele>
        <time>2020-08-25T10:23:15.000Z</time>
      </trkpt>
      <trkpt lat="44.34003" lon="3.39579">
        <ele>680.7</ele>
        <time>2020-08-25T10:23:16.000Z</time>
      </trkpt>
      <trkpt lat="44.34" lon="3.39577">
        <ele>680.9</ele>
        <time>2020-08-25T10:23:18.000Z</time>
      </trkpt>
      <trkpt lat="44.33999" lon="3.39576">
        <ele>681</ele>
        <time>2020-08-25T10:23:19.000Z</time>
      </trkpt>
      <trkpt lat="44.33996" lon="3.39573">
        <ele>681.1</ele>
        <time>2020-08-25T10:23:21.000Z</time>
      </trkpt>
      <trkpt lat="44.33994" lon="3.39572">
        <ele>681.2</ele>
        <time>2020-08-25T10:23:22.000Z</time>
      </trkpt>
      <trkpt lat="44.33993" lon="3.3957">
        <ele>681.3</ele>
        <time>2020-08-25T10:23:23.000Z</time>
      </trkpt>
      <trkpt lat="44.33991" lon="3.39568">
        <ele>681.4</ele>
        <time>2020-08-25T10:23:25.000Z</time>
      </trkpt>
      <trkpt lat="44.3399" lon="3.39567">
        <ele>681.5</ele>
        <time>2020-08-25T10:23:27.000Z</time>
      </trkpt>
      <trkpt lat="44.3399" lon="3.39566">
        <ele>681.5</ele>
        <time>2020-08-25T10:23:29.000Z</time>
      </trkpt>
      <trkpt lat="44.33989" lon="3.39565">
        <ele>681.6</ele>
        <time>2020-08-25T10:23:30.000Z</time>
      </trkpt>
      <trkpt lat="44.33987" lon="3.39564">
        <ele>681.7</ele>
        <time>2020-08-25T10:23:32.000Z</time>
      </trkpt>
      <trkpt lat="44.33986" lon="3.39563">
        <ele>681.8</ele>
        <time>2020-08-25T10:23:33.000Z</time>
      </trkpt>
      <trkpt lat="44.33984" lon="3.39561">
        <ele>682</ele>
        <time>2020-08-25T10:23:35.000Z</time>
      </trkpt>
      <trkpt lat="44.33983" lon="3.3956">
        <ele>682</ele>
        <time>2020-08-25T10:23:36.000Z</time>
      </trkpt>
      <trkpt lat="44.33982" lon="3.39558">
        <ele>682.2</ele>
        <time>2020-08-25T10:23:38.000Z</time>
      </trkpt>
      <trkpt lat="44.3398" lon="3.39556">
        <ele>682.3</ele>
        <time>2020-08-25T10:23:40.000Z</time>
      </trkpt>
      <trkpt lat="44.33978" lon="3.39554">
        <ele>682.5</ele>
        <time>2020-08-25T10:23:42.000Z</time>
      </trkpt>
      <trkpt lat="44.33977" lon="3.39553">
        <ele>682.6</ele>
        <time>2020-08-25T10:23:43.000Z</time>
      </trkpt>
      <trkpt lat="44.33976" lon="3.39552">
        <ele>682.6</ele>
        <time>2020-08-25T10:23:45.000Z</time>
      </trkpt>
      <trkpt lat="44.33976" lon="3.39552">
        <ele>682.6</ele>
        <time>2020-08-25T10:23:46.000Z</time>
      </trkpt>
      <trkpt lat="44.33976" lon="3.39553">
        <ele>682.6</ele>
        <time>2020-08-25T10:23:48.000Z</time>
      </trkpt>
      <trkpt lat="44.33977" lon="3.39553">
        <ele>682.6</ele>
        <time>2020-08-25T10:23:49.000Z</time>
      </trkpt>
      <trkpt lat="44.33977" lon="3.39553">
        <ele>682.6</ele>
        <time>2020-08-25T10:23:50.000Z</time>
      </trkpt>
      <trkpt lat="44.33977" lon="3.39553">
        <ele>682.6</ele>
        <time>2020-08-25T10:23:52.000Z</time>
      </trkpt>
      <trkpt lat="44.33977" lon="3.39553">
        <ele>682.6</ele>
        <time>2020-08-25T10:23:53.000Z</time>
      </trkpt>
      <trkpt lat="44.33977" lon="3.39553">
        <ele>682.7</ele>
        <time>2020-08-25T10:23:55.000Z</time>
      </trkpt>
      <trkpt lat="44.33976" lon="3.39553">
        <ele>682.7</ele>
        <time>2020-08-25T10:23:57.000Z</time>
      </trkpt>
      <trkpt lat="44.33975" lon="3.39552">
        <ele>682.8</ele>
        <time>2020-08-25T10:23:59.000Z</time>
      </trkpt>
      <trkpt lat="44.33974" lon="3.3955">
        <ele>682.9</ele>
        <time>2020-08-25T10:24:00.000Z</time>
      </trkpt>
      <trkpt lat="44.33972" lon="3.39548">
        <ele>683.1</ele>
        <time>2020-08-25T10:24:02.000Z</time>
      </trkpt>
      <trkpt lat="44.33971" lon="3.39547">
        <ele>683.1</ele>
        <time>2020-08-25T10:24:03.000Z</time>
      </trkpt>
      <trkpt lat="44.33971" lon="3.39545">
        <ele>683.2</ele>
        <time>2020-08-25T10:24:04.000Z</time>
      </trkpt>
      <trkpt lat="44.33969" lon="3.39544">
        <ele>683.4</ele>
        <time>2020-08-25T10:24:06.000Z</time>
      </trkpt>
      <trkpt lat="44.33967" lon="3.39542">
        <ele>683.6</ele>
        <time>2020-08-25T10:24:07.000Z</time>
      </trkpt>
      <trkpt lat="44.33966" lon="3.3954">
        <ele>683.7</ele>
        <time>2020-08-25T10:24:09.000Z</time>
      </trkpt>
      <trkpt lat="44.33965" lon="3.39539">
        <ele>683.8</ele>
        <time>2020-08-25T10:24:10.000Z</time>
      </trkpt>
      <trkpt lat="44.33963" lon="3.39537">
        <ele>684</ele>
        <time>2020-08-25T10:24:12.000Z</time>
      </trkpt>
      <trkpt lat="44.33962" lon="3.39535">
        <ele>684.1</ele>
        <time>2020-08-25T10:24:13.000Z</time>
      </trkpt>
      <trkpt lat="44.33961" lon="3.39534">
        <ele>684.2</ele>
        <time>2020-08-25T10:24:14.000Z</time>
      </trkpt>
      <trkpt lat="44.3396" lon="3.39532">
        <ele>684.4</ele>
        <time>2020-08-25T10:24:16.000Z</time>
      </trkpt>
      <trkpt lat="44.33958" lon="3.39529">
        <ele>684.5</ele>
        <time>2020-08-25T10:24:18.000Z</time>
      </trkpt>
      <trkpt lat="44.33958" lon="3.39528">
        <ele>684.6</ele>
        <time>2020-08-25T10:24:19.000Z</time>
      </trkpt>
      <trkpt lat="44.33956" lon="3.39526">
        <ele>684.8</ele>
        <time>2020-08-25T10:24:21.000Z</time>
      </trkpt>
      <trkpt lat="44.33956" lon="3.39525">
        <ele>684.9</ele>
        <time>2020-08-25T10:24:22.000Z</time>
      </trkpt>
      <trkpt lat="44.33954" lon="3.39522">
        <ele>685.1</ele>
        <time>2020-08-25T10:24:24.000Z</time>
      </trkpt>
      <trkpt lat="44.33953" lon="3.3952">
        <ele>685.2</ele>
        <time>2020-08-25T10:24:25.000Z</time>
      </trkpt>
      <trkpt lat="44.33952" lon="3.39518">
        <ele>685.3</ele>
        <time>2020-08-25T10:24:27.000Z</time>
      </trkpt>
      <trkpt lat="44.33951" lon="3.39515">
        <ele>685.5</ele>
        <time>2020-08-25T10:24:29.000Z</time>
      </trkpt>
      <trkpt lat="44.33951" lon="3.39511">
        <ele>685.7</ele>
        <time>2020-08-25T10:24:31.000Z</time>
      </trkpt>
      <trkpt lat="44.33949" lon="3.39508">
        <ele>685.9</ele>
        <time>2020-08-25T10:24:33.000Z</time>
      </trkpt>
      <trkpt lat="44.33948" lon="3.39505">
        <ele>686.1</ele>
        <time>2020-08-25T10:24:35.000Z</time>
      </trkpt>
      <trkpt lat="44.33948" lon="3.39501">
        <ele>686.3</ele>
        <time>2020-08-25T10:24:37.000Z</time>
      </trkpt>
      <trkpt lat="44.33946" lon="3.39498">
        <ele>686.5</ele>
        <time>2020-08-25T10:24:39.000Z</time>
      </trkpt>
      <trkpt lat="44.33946" lon="3.39496">
        <ele>686.6</ele>
        <time>2020-08-25T10:24:40.000Z</time>
      </trkpt>
      <trkpt lat="44.33945" lon="3.39493">
        <ele>686.8</ele>
        <time>2020-08-25T10:24:42.000Z</time>
      </trkpt>
      <trkpt lat="44.33946" lon="3.39493">
        <ele>686.8</ele>
        <time>2020-08-25T10:24:43.000Z</time>
      </trkpt>
      <trkpt lat="44.33946" lon="3.39492">
        <ele>686.8</ele>
        <time>2020-08-25T10:24:45.000Z</time>
      </trkpt>
      <trkpt lat="44.33945" lon="3.39491">
        <ele>686.9</ele>
        <time>2020-08-25T10:24:46.000Z</time>
      </trkpt>
      <trkpt lat="44.33944" lon="3.39488">
        <ele>687.1</ele>
        <time>2020-08-25T10:24:48.000Z</time>
      </trkpt>
      <trkpt lat="44.33944" lon="3.39482">
        <ele>687.4</ele>
        <time>2020-08-25T10:24:50.000Z</time>
      </trkpt>
      <trkpt lat="44.33945" lon="3.39477">
        <ele>687.7</ele>
        <time>2020-08-25T10:24:51.000Z</time>
      </trkpt>
      <trkpt lat="44.33945" lon="3.39476">
        <ele>687.7</ele>
        <time>2020-08-25T10:24:52.000Z</time>
      </trkpt>
      <trkpt lat="44.33947" lon="3.3947">
        <ele>688.1</ele>
        <time>2020-08-25T10:24:54.000Z</time>
      </trkpt>
      <trkpt lat="44.33949" lon="3.39464">
        <ele>688.3</ele>
        <time>2020-08-25T10:24:56.000Z</time>
      </trkpt>
      <trkpt lat="44.33951" lon="3.3946">
        <ele>688.5</ele>
        <time>2020-08-25T10:24:57.000Z</time>
      </trkpt>
      <trkpt lat="44.33953" lon="3.39456">
        <ele>688.7</ele>
        <time>2020-08-25T10:24:59.000Z</time>
      </trkpt>
      <trkpt lat="44.33955" lon="3.39452">
        <ele>688.9</ele>
        <time>2020-08-25T10:25:00.000Z</time>
      </trkpt>
      <trkpt lat="44.33956" lon="3.39451">
        <ele>688.9</ele>
        <time>2020-08-25T10:25:01.000Z</time>
      </trkpt>
      <trkpt lat="44.33958" lon="3.39446">
        <ele>689.1</ele>
        <time>2020-08-25T10:25:03.000Z</time>
      </trkpt>
      <trkpt lat="44.33959" lon="3.39444">
        <ele>689.2</ele>
        <time>2020-08-25T10:25:04.000Z</time>
      </trkpt>
      <trkpt lat="44.33961" lon="3.39439">
        <ele>689.4</ele>
        <time>2020-08-25T10:25:06.000Z</time>
      </trkpt>
      <trkpt lat="44.33962" lon="3.39436">
        <ele>689.4</ele>
        <time>2020-08-25T10:25:07.000Z</time>
      </trkpt>
      <trkpt lat="44.33963" lon="3.39431">
        <ele>689.6</ele>
        <time>2020-08-25T10:25:09.000Z</time>
      </trkpt>
      <trkpt lat="44.33964" lon="3.39429">
        <ele>689.7</ele>
        <time>2020-08-25T10:25:10.000Z</time>
      </trkpt>
      <trkpt lat="44.33967" lon="3.39424">
        <ele>689.8</ele>
        <time>2020-08-25T10:25:12.000Z</time>
      </trkpt>
      <trkpt lat="44.33969" lon="3.3942">
        <ele>690</ele>
        <time>2020-08-25T10:25:14.000Z</time>
      </trkpt>
      <trkpt lat="44.33971" lon="3.39416">
        <ele>690.2</ele>
        <time>2020-08-25T10:25:16.000Z</time>
      </trkpt>
      <trkpt lat="44.33974" lon="3.39411">
        <ele>690.4</ele>
        <time>2020-08-25T10:25:18.000Z</time>
      </trkpt>
      <trkpt lat="44.33975" lon="3.39409">
        <ele>690.5</ele>
        <time>2020-08-25T10:25:19.000Z</time>
      </trkpt>
      <trkpt lat="44.33978" lon="3.39405">
        <ele>690.7</ele>
        <time>2020-08-25T10:25:21.000Z</time>
      </trkpt>
      <trkpt lat="44.3398" lon="3.39401">
        <ele>691</ele>
        <time>2020-08-25T10:25:23.000Z</time>
      </trkpt>
      <trkpt lat="44.33981" lon="3.39399">
        <ele>691.1</ele>
        <time>2020-08-25T10:25:24.000Z</time>
      </trkpt>
      <trkpt lat="44.33984" lon="3.39395">
        <ele>691.3</ele>
        <time>2020-08-25T10:25:26.000Z</time>
      </trkpt>
      <trkpt lat="44.33986" lon="3.39392">
        <ele>691.4</ele>
        <time>2020-08-25T10:25:27.000Z</time>
      </trkpt>
      <trkpt lat="44.33986" lon="3.39391">
        <ele>691.5</ele>
        <time>2020-08-25T10:25:28.000Z</time>
      </trkpt>
      <trkpt lat="44.33988" lon="3.39386">
        <ele>691.7</ele>
        <time>2020-08-25T10:25:30.000Z</time>
      </trkpt>
      <trkpt lat="44.33988" lon="3.39383">
        <ele>691.8</ele>
        <time>2020-08-25T10:25:31.000Z</time>
      </trkpt>
      <trkpt lat="44.3399" lon="3.39378">
        <ele>692.1</ele>
        <time>2020-08-25T10:25:33.000Z</time>
      </trkpt>
      <trkpt lat="44.33992" lon="3.39373">
        <ele>692.4</ele>
        <time>2020-08-25T10:25:35.000Z</time>
      </trkpt>
      <trkpt lat="44.33993" lon="3.3937">
        <ele>692.6</ele>
        <time>2020-08-25T10:25:36.000Z</time>
      </trkpt>
      <trkpt lat="44.33993" lon="3.39368">
        <ele>692.7</ele>
        <time>2020-08-25T10:25:37.000Z</time>
      </trkpt>
      <trkpt lat="44.33994" lon="3.39363">
        <ele>693</ele>
        <time>2020-08-25T10:25:39.000Z</time>
      </trkpt>
      <trkpt lat="44.33994" lon="3.39357">
        <ele>693.3</ele>
        <time>2020-08-25T10:25:41.000Z</time>
      </trkpt>
      <trkpt lat="44.33994" lon="3.39354">
        <ele>693.6</ele>
        <time>2020-08-25T10:25:42.000Z</time>
      </trkpt>
      <trkpt lat="44.33995" lon="3.39347">
        <ele>694</ele>
        <time>2020-08-25T10:25:44.000Z</time>
      </trkpt>
      <trkpt lat="44.33995" lon="3.39345">
        <ele>694.1</ele>
        <time>2020-08-25T10:25:45.000Z</time>
      </trkpt>
      <trkpt lat="44.33995" lon="3.39343">
        <ele>694.2</ele>
        <time>2020-08-25T10:25:46.000Z</time>
      </trkpt>
      <trkpt lat="44.33996" lon="3.39337">
        <ele>694.6</ele>
        <time>2020-08-25T10:25:48.000Z</time>
      </trkpt>
      <trkpt lat="44.33997" lon="3.39335">
        <ele>694.7</ele>
        <time>2020-08-25T10:25:49.000Z</time>
      </trkpt>
      <trkpt lat="44.33997" lon="3.39333">
        <ele>694.9</ele>
        <time>2020-08-25T10:25:50.000Z</time>
      </trkpt>
      <trkpt lat="44.33998" lon="3.39328">
        <ele>695.1</ele>
        <time>2020-08-25T10:25:52.000Z</time>
      </trkpt>
      <trkpt lat="44.33998" lon="3.39322">
        <ele>695.4</ele>
        <time>2020-08-25T10:25:54.000Z</time>
      </trkpt>
      <trkpt lat="44.33998" lon="3.39318">
        <ele>695.7</ele>
        <time>2020-08-25T10:25:55.000Z</time>
      </trkpt>
      <trkpt lat="44.33998" lon="3.39316">
        <ele>695.8</ele>
        <time>2020-08-25T10:25:56.000Z</time>
      </trkpt>
      <trkpt lat="44.33998" lon="3.39312">
        <ele>696</ele>
        <time>2020-08-25T10:25:58.000Z</time>
      </trkpt>
      <trkpt lat="44.33998" lon="3.39307">
        <ele>696.3</ele>
        <time>2020-08-25T10:26:00.000Z</time>
      </trkpt>
      <trkpt lat="44.33998" lon="3.39303">
        <ele>696.4</ele>
        <time>2020-08-25T10:26:01.000Z</time>
      </trkpt>
      <trkpt lat="44.33997" lon="3.39299">
        <ele>696.6</ele>
        <time>2020-08-25T10:26:03.000Z</time>
      </trkpt>
      <trkpt lat="44.33997" lon="3.39295">
        <ele>696.8</ele>
        <time>2020-08-25T10:26:05.000Z</time>
      </trkpt>
      <trkpt lat="44.33997" lon="3.39292">
        <ele>696.9</ele>
        <time>2020-08-25T10:26:06.000Z</time>
      </trkpt>
      <trkpt lat="44.33996" lon="3.39287">
        <ele>697.1</ele>
        <time>2020-08-25T10:26:08.000Z</time>
      </trkpt>
      <trkpt lat="44.33994" lon="3.39283">
        <ele>697.3</ele>
        <time>2020-08-25T10:26:10.000Z</time>
      </trkpt>
      <trkpt lat="44.33992" lon="3.39279">
        <ele>697.5</ele>
        <time>2020-08-25T10:26:12.000Z</time>
      </trkpt>
      <trkpt lat="44.33991" lon="3.39275">
        <ele>697.7</ele>
        <time>2020-08-25T10:26:13.000Z</time>
      </trkpt>
      <trkpt lat="44.3399" lon="3.39274">
        <ele>697.7</ele>
        <time>2020-08-25T10:26:14.000Z</time>
      </trkpt>
      <trkpt lat="44.33987" lon="3.3927">
        <ele>698</ele>
        <time>2020-08-25T10:26:16.000Z</time>
      </trkpt>
      <trkpt lat="44.33985" lon="3.39269">
        <ele>698.1</ele>
        <time>2020-08-25T10:26:18.000Z</time>
      </trkpt>
      <trkpt lat="44.33983" lon="3.39268">
        <ele>698.2</ele>
        <time>2020-08-25T10:26:19.000Z</time>
      </trkpt>
      <trkpt lat="44.33982" lon="3.39268">
        <ele>698.4</ele>
        <time>2020-08-25T10:26:20.000Z</time>
      </trkpt>
      <trkpt lat="44.33978" lon="3.39267">
        <ele>698.6</ele>
        <time>2020-08-25T10:26:22.000Z</time>
      </trkpt>
      <trkpt lat="44.33974" lon="3.39268">
        <ele>698.9</ele>
        <time>2020-08-25T10:26:24.000Z</time>
      </trkpt>
      <trkpt lat="44.3397" lon="3.39269">
        <ele>699.2</ele>
        <time>2020-08-25T10:26:26.000Z</time>
      </trkpt>
      <trkpt lat="44.33966" lon="3.3927">
        <ele>699.5</ele>
        <time>2020-08-25T10:26:28.000Z</time>
      </trkpt>
      <trkpt lat="44.33964" lon="3.39271">
        <ele>699.6</ele>
        <time>2020-08-25T10:26:29.000Z</time>
      </trkpt>
      <trkpt lat="44.33961" lon="3.39272">
        <ele>699.9</ele>
        <time>2020-08-25T10:26:31.000Z</time>
      </trkpt>
      <trkpt lat="44.33959" lon="3.39273">
        <ele>700</ele>
        <time>2020-08-25T10:26:32.000Z</time>
      </trkpt>
      <trkpt lat="44.33955" lon="3.39276">
        <ele>700.3</ele>
        <time>2020-08-25T10:26:34.000Z</time>
      </trkpt>
      <trkpt lat="44.33952" lon="3.39279">
        <ele>700.6</ele>
        <time>2020-08-25T10:26:36.000Z</time>
      </trkpt>
      <trkpt lat="44.3395" lon="3.3928">
        <ele>700.7</ele>
        <time>2020-08-25T10:26:37.000Z</time>
      </trkpt>
      <trkpt lat="44.33946" lon="3.39281">
        <ele>701</ele>
        <time>2020-08-25T10:26:39.000Z</time>
      </trkpt>
      <trkpt lat="44.33942" lon="3.3928">
        <ele>701.2</ele>
        <time>2020-08-25T10:26:41.000Z</time>
      </trkpt>
      <trkpt lat="44.33938" lon="3.39281">
        <ele>701.4</ele>
        <time>2020-08-25T10:26:43.000Z</time>
      </trkpt>
      <trkpt lat="44.33935" lon="3.39281">
        <ele>701.6</ele>
        <time>2020-08-25T10:26:44.000Z</time>
      </trkpt>
      <trkpt lat="44.33934" lon="3.39282">
        <ele>701.6</ele>
        <time>2020-08-25T10:26:45.000Z</time>
      </trkpt>
      <trkpt lat="44.33932" lon="3.39282">
        <ele>701.7</ele>
        <time>2020-08-25T10:26:46.000Z</time>
      </trkpt>
      <trkpt lat="44.33929" lon="3.39281">
        <ele>701.9</ele>
        <time>2020-08-25T10:26:48.000Z</time>
      </trkpt>
      <trkpt lat="44.33927" lon="3.39281">
        <ele>702</ele>
        <time>2020-08-25T10:26:49.000Z</time>
      </trkpt>
      <trkpt lat="44.33923" lon="3.39279">
        <ele>702.2</ele>
        <time>2020-08-25T10:26:51.000Z</time>
      </trkpt>
      <trkpt lat="44.3392" lon="3.39278">
        <ele>702.4</ele>
        <time>2020-08-25T10:26:53.000Z</time>
      </trkpt>
      <trkpt lat="44.33917" lon="3.39277">
        <ele>702.6</ele>
        <time>2020-08-25T10:26:54.000Z</time>
      </trkpt>
      <trkpt lat="44.33916" lon="3.39277">
        <ele>702.6</ele>
        <time>2020-08-25T10:26:55.000Z</time>
      </trkpt>
      <trkpt lat="44.33912" lon="3.39274">
        <ele>702.8</ele>
        <time>2020-08-25T10:26:57.000Z</time>
      </trkpt>
      <trkpt lat="44.33909" lon="3.39273">
        <ele>703.1</ele>
        <time>2020-08-25T10:26:59.000Z</time>
      </trkpt>
      <trkpt lat="44.33907" lon="3.39273">
        <ele>703.2</ele>
        <time>2020-08-25T10:27:00.000Z</time>
      </trkpt>
      <trkpt lat="44.33903" lon="3.39272">
        <ele>703.6</ele>
        <time>2020-08-25T10:27:02.000Z</time>
      </trkpt>
      <trkpt lat="44.33901" lon="3.39271">
        <ele>703.8</ele>
        <time>2020-08-25T10:27:03.000Z</time>
      </trkpt>
      <trkpt lat="44.339" lon="3.3927">
        <ele>703.9</ele>
        <time>2020-08-25T10:27:04.000Z</time>
      </trkpt>
      <trkpt lat="44.33896" lon="3.39268">
        <ele>704.2</ele>
        <time>2020-08-25T10:27:06.000Z</time>
      </trkpt>
      <trkpt lat="44.33894" lon="3.39267">
        <ele>704.4</ele>
        <time>2020-08-25T10:27:07.000Z</time>
      </trkpt>
      <trkpt lat="44.33893" lon="3.39267">
        <ele>704.5</ele>
        <time>2020-08-25T10:27:08.000Z</time>
      </trkpt>
      <trkpt lat="44.33889" lon="3.39265">
        <ele>704.8</ele>
        <time>2020-08-25T10:27:10.000Z</time>
      </trkpt>
      <trkpt lat="44.33888" lon="3.39263">
        <ele>705</ele>
        <time>2020-08-25T10:27:11.000Z</time>
      </trkpt>
      <trkpt lat="44.33884" lon="3.3926">
        <ele>705.3</ele>
        <time>2020-08-25T10:27:13.000Z</time>
      </trkpt>
      <trkpt lat="44.33881" lon="3.39255">
        <ele>705.7</ele>
        <time>2020-08-25T10:27:15.000Z</time>
      </trkpt>
      <trkpt lat="44.33878" lon="3.39252">
        <ele>706</ele>
        <time>2020-08-25T10:27:17.000Z</time>
      </trkpt>
      <trkpt lat="44.33877" lon="3.3925">
        <ele>706.2</ele>
        <time>2020-08-25T10:27:18.000Z</time>
      </trkpt>
      <trkpt lat="44.33874" lon="3.39244">
        <ele>706.5</ele>
        <time>2020-08-25T10:27:20.000Z</time>
      </trkpt>
      <trkpt lat="44.33873" lon="3.39242">
        <ele>706.6</ele>
        <time>2020-08-25T10:27:21.000Z</time>
      </trkpt>
      <trkpt lat="44.33871" lon="3.39237">
        <ele>706.9</ele>
        <time>2020-08-25T10:27:23.000Z</time>
      </trkpt>
      <trkpt lat="44.3387" lon="3.39233">
        <ele>707</ele>
        <time>2020-08-25T10:27:24.000Z</time>
      </trkpt>
      <trkpt lat="44.33869" lon="3.39231">
        <ele>707.1</ele>
        <time>2020-08-25T10:27:25.000Z</time>
      </trkpt>
      <trkpt lat="44.33867" lon="3.39223">
        <ele>707.4</ele>
        <time>2020-08-25T10:27:27.000Z</time>
      </trkpt>
      <trkpt lat="44.33866" lon="3.39219">
        <ele>707.5</ele>
        <time>2020-08-25T10:27:29.000Z</time>
      </trkpt>
      <trkpt lat="44.33865" lon="3.39214">
        <ele>707.6</ele>
        <time>2020-08-25T10:27:31.000Z</time>
      </trkpt>
      <trkpt lat="44.33864" lon="3.39211">
        <ele>707.7</ele>
        <time>2020-08-25T10:27:32.000Z</time>
      </trkpt>
      <trkpt lat="44.33863" lon="3.39205">
        <ele>707.9</ele>
        <time>2020-08-25T10:27:34.000Z</time>
      </trkpt>
      <trkpt lat="44.33861" lon="3.39199">
        <ele>708.1</ele>
        <time>2020-08-25T10:27:36.000Z</time>
      </trkpt>
      <trkpt lat="44.3386" lon="3.39196">
        <ele>708.3</ele>
        <time>2020-08-25T10:27:37.000Z</time>
      </trkpt>
      <trkpt lat="44.33859" lon="3.39191">
        <ele>708.6</ele>
        <time>2020-08-25T10:27:39.000Z</time>
      </trkpt>
      <trkpt lat="44.33858" lon="3.39188">
        <ele>708.8</ele>
        <time>2020-08-25T10:27:40.000Z</time>
      </trkpt>
      <trkpt lat="44.33856" lon="3.39183">
        <ele>709.2</ele>
        <time>2020-08-25T10:27:42.000Z</time>
      </trkpt>
      <trkpt lat="44.33854" lon="3.39178">
        <ele>709.5</ele>
        <time>2020-08-25T10:27:44.000Z</time>
      </trkpt>
      <trkpt lat="44.33853" lon="3.39173">
        <ele>709.9</ele>
        <time>2020-08-25T10:27:46.000Z</time>
      </trkpt>
      <trkpt lat="44.33852" lon="3.3917">
        <ele>710</ele>
        <time>2020-08-25T10:27:47.000Z</time>
      </trkpt>
      <trkpt lat="44.3385" lon="3.39166">
        <ele>710.4</ele>
        <time>2020-08-25T10:27:49.000Z</time>
      </trkpt>
      <trkpt lat="44.33848" lon="3.39162">
        <ele>710.7</ele>
        <time>2020-08-25T10:27:51.000Z</time>
      </trkpt>
      <trkpt lat="44.33845" lon="3.39158">
        <ele>711</ele>
        <time>2020-08-25T10:27:53.000Z</time>
      </trkpt>
      <trkpt lat="44.33844" lon="3.39155">
        <ele>711.2</ele>
        <time>2020-08-25T10:27:54.000Z</time>
      </trkpt>
      <trkpt lat="44.33841" lon="3.39152">
        <ele>711.4</ele>
        <time>2020-08-25T10:27:56.000Z</time>
      </trkpt>
      <trkpt lat="44.33837" lon="3.3915">
        <ele>711.6</ele>
        <time>2020-08-25T10:27:58.000Z</time>
      </trkpt>
      <trkpt lat="44.33835" lon="3.39149">
        <ele>711.6</ele>
        <time>2020-08-25T10:27:59.000Z</time>
      </trkpt>
      <trkpt lat="44.33832" lon="3.39149">
        <ele>711.8</ele>
        <time>2020-08-25T10:28:01.000Z</time>
      </trkpt>
      <trkpt lat="44.3383" lon="3.39149">
        <ele>711.9</ele>
        <time>2020-08-25T10:28:02.000Z</time>
      </trkpt>
      <trkpt lat="44.33825" lon="3.39149">
        <ele>712</ele>
        <time>2020-08-25T10:28:04.000Z</time>
      </trkpt>
      <trkpt lat="44.33824" lon="3.39149">
        <ele>712.1</ele>
        <time>2020-08-25T10:28:05.000Z</time>
      </trkpt>
      <trkpt lat="44.3382" lon="3.3915">
        <ele>712.3</ele>
        <time>2020-08-25T10:28:07.000Z</time>
      </trkpt>
      <trkpt lat="44.33818" lon="3.39151">
        <ele>712.5</ele>
        <time>2020-08-25T10:28:08.000Z</time>
      </trkpt>
      <trkpt lat="44.33814" lon="3.39153">
        <ele>712.7</ele>
        <time>2020-08-25T10:28:10.000Z</time>
      </trkpt>
      <trkpt lat="44.33811" lon="3.39155">
        <ele>713</ele>
        <time>2020-08-25T10:28:12.000Z</time>
      </trkpt>
      <trkpt lat="44.33807" lon="3.39158">
        <ele>713.2</ele>
        <time>2020-08-25T10:28:14.000Z</time>
      </trkpt>
      <trkpt lat="44.33805" lon="3.39159">
        <ele>713.3</ele>
        <time>2020-08-25T10:28:15.000Z</time>
      </trkpt>
      <trkpt lat="44.33802" lon="3.39162">
        <ele>713.6</ele>
        <time>2020-08-25T10:28:17.000Z</time>
      </trkpt>
      <trkpt lat="44.33799" lon="3.39165">
        <ele>713.9</ele>
        <time>2020-08-25T10:28:19.000Z</time>
      </trkpt>
      <trkpt lat="44.33796" lon="3.39166">
        <ele>714.1</ele>
        <time>2020-08-25T10:28:20.000Z</time>
      </trkpt>
      <trkpt lat="44.33796" lon="3.39167">
        <ele>714.1</ele>
        <time>2020-08-25T10:28:21.000Z</time>
      </trkpt>
      <trkpt lat="44.33792" lon="3.39169">
        <ele>714.4</ele>
        <time>2020-08-25T10:28:23.000Z</time>
      </trkpt>
      <trkpt lat="44.33791" lon="3.39171">
        <ele>714.5</ele>
        <time>2020-08-25T10:28:24.000Z</time>
      </trkpt>
      <trkpt lat="44.33787" lon="3.39173">
        <ele>714.8</ele>
        <time>2020-08-25T10:28:26.000Z</time>
      </trkpt>
      <trkpt lat="44.33784" lon="3.39176">
        <ele>715.1</ele>
        <time>2020-08-25T10:28:28.000Z</time>
      </trkpt>
      <trkpt lat="44.33781" lon="3.39178">
        <ele>715.3</ele>
        <time>2020-08-25T10:28:29.000Z</time>
      </trkpt>
      <trkpt lat="44.33781" lon="3.39179">
        <ele>715.3</ele>
        <time>2020-08-25T10:28:30.000Z</time>
      </trkpt>
      <trkpt lat="44.33777" lon="3.39181">
        <ele>715.6</ele>
        <time>2020-08-25T10:28:32.000Z</time>
      </trkpt>
      <trkpt lat="44.33774" lon="3.39183">
        <ele>715.8</ele>
        <time>2020-08-25T10:28:33.000Z</time>
      </trkpt>
      <trkpt lat="44.33773" lon="3.39184">
        <ele>715.9</ele>
        <time>2020-08-25T10:28:34.000Z</time>
      </trkpt>
      <trkpt lat="44.33772" lon="3.39185">
        <ele>716.1</ele>
        <time>2020-08-25T10:28:35.000Z</time>
      </trkpt>
      <trkpt lat="44.33767" lon="3.39188">
        <ele>716.4</ele>
        <time>2020-08-25T10:28:37.000Z</time>
      </trkpt>
      <trkpt lat="44.33766" lon="3.39188">
        <ele>716.5</ele>
        <time>2020-08-25T10:28:38.000Z</time>
      </trkpt>
      <trkpt lat="44.33762" lon="3.39191">
        <ele>716.8</ele>
        <time>2020-08-25T10:28:40.000Z</time>
      </trkpt>
      <trkpt lat="44.33759" lon="3.39193">
        <ele>717</ele>
        <time>2020-08-25T10:28:42.000Z</time>
      </trkpt>
      <trkpt lat="44.33757" lon="3.39193">
        <ele>717.2</ele>
        <time>2020-08-25T10:28:43.000Z</time>
      </trkpt>
      <trkpt lat="44.33755" lon="3.39194">
        <ele>717.3</ele>
        <time>2020-08-25T10:28:44.000Z</time>
      </trkpt>
      <trkpt lat="44.33753" lon="3.39194">
        <ele>717.4</ele>
        <time>2020-08-25T10:28:45.000Z</time>
      </trkpt>
      <trkpt lat="44.33749" lon="3.39194">
        <ele>717.7</ele>
        <time>2020-08-25T10:28:47.000Z</time>
      </trkpt>
      <trkpt lat="44.33746" lon="3.39194">
        <ele>718</ele>
        <time>2020-08-25T10:28:48.000Z</time>
      </trkpt>
      <trkpt lat="44.33744" lon="3.39194">
        <ele>718.2</ele>
        <time>2020-08-25T10:28:49.000Z</time>
      </trkpt>
      <trkpt lat="44.33742" lon="3.39194">
        <ele>718.3</ele>
        <time>2020-08-25T10:28:50.000Z</time>
      </trkpt>
      <trkpt lat="44.33739" lon="3.39195">
        <ele>718.6</ele>
        <time>2020-08-25T10:28:52.000Z</time>
      </trkpt>
      <trkpt lat="44.33735" lon="3.39195">
        <ele>718.8</ele>
        <time>2020-08-25T10:28:54.000Z</time>
      </trkpt>
      <trkpt lat="44.33732" lon="3.39195">
        <ele>719</ele>
        <time>2020-08-25T10:28:55.000Z</time>
      </trkpt>
      <trkpt lat="44.33728" lon="3.39193">
        <ele>719.2</ele>
        <time>2020-08-25T10:28:57.000Z</time>
      </trkpt>
      <trkpt lat="44.33724" lon="3.39192">
        <ele>719.4</ele>
        <time>2020-08-25T10:28:59.000Z</time>
      </trkpt>
      <trkpt lat="44.3372" lon="3.39188">
        <ele>719.7</ele>
        <time>2020-08-25T10:29:01.000Z</time>
      </trkpt>
      <trkpt lat="44.33719" lon="3.39186">
        <ele>719.8</ele>
        <time>2020-08-25T10:29:02.000Z</time>
      </trkpt>
      <trkpt lat="44.33716" lon="3.39182">
        <ele>720.1</ele>
        <time>2020-08-25T10:29:04.000Z</time>
      </trkpt>
      <trkpt lat="44.33715" lon="3.3918">
        <ele>720.2</ele>
        <time>2020-08-25T10:29:05.000Z</time>
      </trkpt>
      <trkpt lat="44.33712" lon="3.39176">
        <ele>720.5</ele>
        <time>2020-08-25T10:29:07.000Z</time>
      </trkpt>
      <trkpt lat="44.33709" lon="3.39171">
        <ele>720.8</ele>
        <time>2020-08-25T10:29:09.000Z</time>
      </trkpt>
      <trkpt lat="44.33707" lon="3.39166">
        <ele>721</ele>
        <time>2020-08-25T10:29:11.000Z</time>
      </trkpt>
      <trkpt lat="44.33705" lon="3.39162">
        <ele>721.2</ele>
        <time>2020-08-25T10:29:13.000Z</time>
      </trkpt>
      <trkpt lat="44.33702" lon="3.39157">
        <ele>721.4</ele>
        <time>2020-08-25T10:29:15.000Z</time>
      </trkpt>
      <trkpt lat="44.337" lon="3.39153">
        <ele>721.6</ele>
        <time>2020-08-25T10:29:16.000Z</time>
      </trkpt>
      <trkpt lat="44.337" lon="3.39152">
        <ele>721.7</ele>
        <time>2020-08-25T10:29:17.000Z</time>
      </trkpt>
      <trkpt lat="44.33697" lon="3.39147">
        <ele>721.9</ele>
        <time>2020-08-25T10:29:19.000Z</time>
      </trkpt>
      <trkpt lat="44.33694" lon="3.39143">
        <ele>722.2</ele>
        <time>2020-08-25T10:29:21.000Z</time>
      </trkpt>
      <trkpt lat="44.33691" lon="3.39139">
        <ele>722.4</ele>
        <time>2020-08-25T10:29:23.000Z</time>
      </trkpt>
      <trkpt lat="44.3369" lon="3.39137">
        <ele>722.5</ele>
        <time>2020-08-25T10:29:24.000Z</time>
      </trkpt>
      <trkpt lat="44.33687" lon="3.39133">
        <ele>722.6</ele>
        <time>2020-08-25T10:29:26.000Z</time>
      </trkpt>
      <trkpt lat="44.33685" lon="3.39128">
        <ele>722.7</ele>
        <time>2020-08-25T10:29:28.000Z</time>
      </trkpt>
      <trkpt lat="44.33682" lon="3.39124">
        <ele>722.8</ele>
        <time>2020-08-25T10:29:30.000Z</time>
      </trkpt>
      <trkpt lat="44.33679" lon="3.3912">
        <ele>722.9</ele>
        <time>2020-08-25T10:29:32.000Z</time>
      </trkpt>
      <trkpt lat="44.33676" lon="3.39115">
        <ele>723</ele>
        <time>2020-08-25T10:29:34.000Z</time>
      </trkpt>
      <trkpt lat="44.33673" lon="3.39112">
        <ele>723.2</ele>
        <time>2020-08-25T10:29:36.000Z</time>
      </trkpt>
      <trkpt lat="44.33671" lon="3.3911">
        <ele>723.3</ele>
        <time>2020-08-25T10:29:37.000Z</time>
      </trkpt>
      <trkpt lat="44.33668" lon="3.39107">
        <ele>723.5</ele>
        <time>2020-08-25T10:29:39.000Z</time>
      </trkpt>
      <trkpt lat="44.33665" lon="3.39104">
        <ele>723.8</ele>
        <time>2020-08-25T10:29:41.000Z</time>
      </trkpt>
      <trkpt lat="44.33664" lon="3.39103">
        <ele>723.9</ele>
        <time>2020-08-25T10:29:42.000Z</time>
      </trkpt>
      <trkpt lat="44.33662" lon="3.39102">
        <ele>724</ele>
        <time>2020-08-25T10:29:43.000Z</time>
      </trkpt>
      <trkpt lat="44.33659" lon="3.39099">
        <ele>724.2</ele>
        <time>2020-08-25T10:29:45.000Z</time>
      </trkpt>
      <trkpt lat="44.33657" lon="3.39098">
        <ele>724.4</ele>
        <time>2020-08-25T10:29:46.000Z</time>
      </trkpt>
      <trkpt lat="44.33654" lon="3.39096">
        <ele>724.6</ele>
        <time>2020-08-25T10:29:48.000Z</time>
      </trkpt>
      <trkpt lat="44.3365" lon="3.39093">
        <ele>724.9</ele>
        <time>2020-08-25T10:29:50.000Z</time>
      </trkpt>
      <trkpt lat="44.33646" lon="3.39091">
        <ele>725.2</ele>
        <time>2020-08-25T10:29:52.000Z</time>
      </trkpt>
      <trkpt lat="44.33643" lon="3.39089">
        <ele>725.4</ele>
        <time>2020-08-25T10:29:54.000Z</time>
      </trkpt>
      <trkpt lat="44.33641" lon="3.39087">
        <ele>725.5</ele>
        <time>2020-08-25T10:29:55.000Z</time>
      </trkpt>
      <trkpt lat="44.33639" lon="3.39083">
        <ele>725.8</ele>
        <time>2020-08-25T10:29:57.000Z</time>
      </trkpt>
      <trkpt lat="44.33636" lon="3.39079">
        <ele>726</ele>
        <time>2020-08-25T10:29:59.000Z</time>
      </trkpt>
      <trkpt lat="44.33633" lon="3.39074">
        <ele>726.2</ele>
        <time>2020-08-25T10:30:01.000Z</time>
      </trkpt>
      <trkpt lat="44.33631" lon="3.3907">
        <ele>726.4</ele>
        <time>2020-08-25T10:30:03.000Z</time>
      </trkpt>
      <trkpt lat="44.3363" lon="3.39065">
        <ele>726.6</ele>
        <time>2020-08-25T10:30:05.000Z</time>
      </trkpt>
      <trkpt lat="44.33629" lon="3.39061">
        <ele>726.8</ele>
        <time>2020-08-25T10:30:06.000Z</time>
      </trkpt>
      <trkpt lat="44.33629" lon="3.3906">
        <ele>726.9</ele>
        <time>2020-08-25T10:30:07.000Z</time>
      </trkpt>
      <trkpt lat="44.33628" lon="3.39055">
        <ele>727.1</ele>
        <time>2020-08-25T10:30:09.000Z</time>
      </trkpt>
      <trkpt lat="44.33628" lon="3.39049">
        <ele>727.4</ele>
        <time>2020-08-25T10:30:11.000Z</time>
      </trkpt>
      <trkpt lat="44.33628" lon="3.39047">
        <ele>727.5</ele>
        <time>2020-08-25T10:30:12.000Z</time>
      </trkpt>
      <trkpt lat="44.33628" lon="3.39041">
        <ele>727.8</ele>
        <time>2020-08-25T10:30:14.000Z</time>
      </trkpt>
      <trkpt lat="44.33627" lon="3.39038">
        <ele>727.9</ele>
        <time>2020-08-25T10:30:15.000Z</time>
      </trkpt>
      <trkpt lat="44.33627" lon="3.39033">
        <ele>728.1</ele>
        <time>2020-08-25T10:30:17.000Z</time>
      </trkpt>
      <trkpt lat="44.33628" lon="3.39029">
        <ele>728.3</ele>
        <time>2020-08-25T10:30:18.000Z</time>
      </trkpt>
      <trkpt lat="44.33628" lon="3.39027">
        <ele>728.3</ele>
        <time>2020-08-25T10:30:19.000Z</time>
      </trkpt>
      <trkpt lat="44.33629" lon="3.39022">
        <ele>728.6</ele>
        <time>2020-08-25T10:30:21.000Z</time>
      </trkpt>
      <trkpt lat="44.33629" lon="3.39019">
        <ele>728.7</ele>
        <time>2020-08-25T10:30:22.000Z</time>
      </trkpt>
      <trkpt lat="44.33629" lon="3.39014">
        <ele>729</ele>
        <time>2020-08-25T10:30:24.000Z</time>
      </trkpt>
      <trkpt lat="44.33629" lon="3.39011">
        <ele>729.1</ele>
        <time>2020-08-25T10:30:25.000Z</time>
      </trkpt>
      <trkpt lat="44.33627" lon="3.39007">
        <ele>729.3</ele>
        <time>2020-08-25T10:30:27.000Z</time>
      </trkpt>
      <trkpt lat="44.33625" lon="3.39003">
        <ele>729.6</ele>
        <time>2020-08-25T10:30:29.000Z</time>
      </trkpt>
      <trkpt lat="44.33624" lon="3.39001">
        <ele>729.7</ele>
        <time>2020-08-25T10:30:30.000Z</time>
      </trkpt>
      <trkpt lat="44.33622" lon="3.38997">
        <ele>729.9</ele>
        <time>2020-08-25T10:30:32.000Z</time>
      </trkpt>
      <trkpt lat="44.3362" lon="3.38996">
        <ele>730</ele>
        <time>2020-08-25T10:30:33.000Z</time>
      </trkpt>
      <trkpt lat="44.33617" lon="3.38994">
        <ele>730.3</ele>
        <time>2020-08-25T10:30:35.000Z</time>
      </trkpt>
      <trkpt lat="44.33614" lon="3.38994">
        <ele>730.5</ele>
        <time>2020-08-25T10:30:37.000Z</time>
      </trkpt>
      <trkpt lat="44.33612" lon="3.38995">
        <ele>730.7</ele>
        <time>2020-08-25T10:30:38.000Z</time>
      </trkpt>
      <trkpt lat="44.33608" lon="3.38997">
        <ele>730.9</ele>
        <time>2020-08-25T10:30:40.000Z</time>
      </trkpt>
      <trkpt lat="44.33607" lon="3.38998">
        <ele>731</ele>
        <time>2020-08-25T10:30:41.000Z</time>
      </trkpt>
      <trkpt lat="44.33603" lon="3.39">
        <ele>731.3</ele>
        <time>2020-08-25T10:30:43.000Z</time>
      </trkpt>
      <trkpt lat="44.336" lon="3.39002">
        <ele>731.6</ele>
        <time>2020-08-25T10:30:45.000Z</time>
      </trkpt>
      <trkpt lat="44.33595" lon="3.39007">
        <ele>731.9</ele>
        <time>2020-08-25T10:30:47.000Z</time>
      </trkpt>
      <trkpt lat="44.33594" lon="3.39008">
        <ele>732</ele>
        <time>2020-08-25T10:30:49.000Z</time>
      </trkpt>
      <trkpt lat="44.33592" lon="3.3901">
        <ele>732.2</ele>
        <time>2020-08-25T10:30:50.000Z</time>
      </trkpt>
      <trkpt lat="44.33591" lon="3.39011">
        <ele>732.3</ele>
        <time>2020-08-25T10:30:51.000Z</time>
      </trkpt>
      <trkpt lat="44.33588" lon="3.39014">
        <ele>732.5</ele>
        <time>2020-08-25T10:30:53.000Z</time>
      </trkpt>
      <trkpt lat="44.33585" lon="3.39017">
        <ele>732.7</ele>
        <time>2020-08-25T10:30:55.000Z</time>
      </trkpt>
      <trkpt lat="44.33583" lon="3.39018">
        <ele>732.8</ele>
        <time>2020-08-25T10:30:56.000Z</time>
      </trkpt>
      <trkpt lat="44.3358" lon="3.39021">
        <ele>733</ele>
        <time>2020-08-25T10:30:58.000Z</time>
      </trkpt>
      <trkpt lat="44.33579" lon="3.39023">
        <ele>733.1</ele>
        <time>2020-08-25T10:30:59.000Z</time>
      </trkpt>
      <trkpt lat="44.33576" lon="3.39026">
        <ele>733.3</ele>
        <time>2020-08-25T10:31:01.000Z</time>
      </trkpt>
      <trkpt lat="44.33573" lon="3.39029">
        <ele>733.5</ele>
        <time>2020-08-25T10:31:02.000Z</time>
      </trkpt>
      <trkpt lat="44.33572" lon="3.3903">
        <ele>733.5</ele>
        <time>2020-08-25T10:31:03.000Z</time>
      </trkpt>
      <trkpt lat="44.33568" lon="3.39034">
        <ele>733.8</ele>
        <time>2020-08-25T10:31:05.000Z</time>
      </trkpt>
      <trkpt lat="44.33567" lon="3.39035">
        <ele>733.8</ele>
        <time>2020-08-25T10:31:06.000Z</time>
      </trkpt>
      <trkpt lat="44.33566" lon="3.39036">
        <ele>733.9</ele>
        <time>2020-08-25T10:31:07.000Z</time>
      </trkpt>
      <trkpt lat="44.33563" lon="3.39041">
        <ele>734.2</ele>
        <time>2020-08-25T10:31:09.000Z</time>
      </trkpt>
      <trkpt lat="44.33562" lon="3.39042">
        <ele>734.3</ele>
        <time>2020-08-25T10:31:10.000Z</time>
      </trkpt>
      <trkpt lat="44.3356" lon="3.39046">
        <ele>734.5</ele>
        <time>2020-08-25T10:31:12.000Z</time>
      </trkpt>
      <trkpt lat="44.33556" lon="3.39049">
        <ele>734.7</ele>
        <time>2020-08-25T10:31:14.000Z</time>
      </trkpt>
      <trkpt lat="44.33552" lon="3.39052">
        <ele>735</ele>
        <time>2020-08-25T10:31:16.000Z</time>
      </trkpt>
      <trkpt lat="44.33551" lon="3.39054">
        <ele>735.1</ele>
        <time>2020-08-25T10:31:17.000Z</time>
      </trkpt>
      <trkpt lat="44.33548" lon="3.39056">
        <ele>735.4</ele>
        <time>2020-08-25T10:31:19.000Z</time>
      </trkpt>
      <trkpt lat="44.33545" lon="3.39058">
        <ele>735.6</ele>
        <time>2020-08-25T10:31:21.000Z</time>
      </trkpt>
      <trkpt lat="44.33541" lon="3.39059">
        <ele>735.8</ele>
        <time>2020-08-25T10:31:22.000Z</time>
      </trkpt>
      <trkpt lat="44.3354" lon="3.39059">
        <ele>736</ele>
        <time>2020-08-25T10:31:23.000Z</time>
      </trkpt>
      <trkpt lat="44.33538" lon="3.39059">
        <ele>736.1</ele>
        <time>2020-08-25T10:31:24.000Z</time>
      </trkpt>
      <trkpt lat="44.33534" lon="3.39059">
        <ele>736.3</ele>
        <time>2020-08-25T10:31:26.000Z</time>
      </trkpt>
      <trkpt lat="44.33531" lon="3.3906">
        <ele>736.5</ele>
        <time>2020-08-25T10:31:28.000Z</time>
      </trkpt>
      <trkpt lat="44.33528" lon="3.3906">
        <ele>736.7</ele>
        <time>2020-08-25T10:31:29.000Z</time>
      </trkpt>
      <trkpt lat="44.33525" lon="3.3906">
        <ele>736.9</ele>
        <time>2020-08-25T10:31:31.000Z</time>
      </trkpt>
      <trkpt lat="44.33521" lon="3.3906">
        <ele>737.1</ele>
        <time>2020-08-25T10:31:33.000Z</time>
      </trkpt>
      <trkpt lat="44.33518" lon="3.3906">
        <ele>737.3</ele>
        <time>2020-08-25T10:31:35.000Z</time>
      </trkpt>
      <trkpt lat="44.33516" lon="3.3906">
        <ele>737.4</ele>
        <time>2020-08-25T10:31:36.000Z</time>
      </trkpt>
      <trkpt lat="44.33512" lon="3.3906">
        <ele>737.6</ele>
        <time>2020-08-25T10:31:38.000Z</time>
      </trkpt>
      <trkpt lat="44.3351" lon="3.39061">
        <ele>737.8</ele>
        <time>2020-08-25T10:31:39.000Z</time>
      </trkpt>
      <trkpt lat="44.33509" lon="3.39061">
        <ele>737.8</ele>
        <time>2020-08-25T10:31:40.000Z</time>
      </trkpt>
      <trkpt lat="44.33507" lon="3.39062">
        <ele>737.9</ele>
        <time>2020-08-25T10:31:41.000Z</time>
      </trkpt>
      <trkpt lat="44.33503" lon="3.39061">
        <ele>738.2</ele>
        <time>2020-08-25T10:31:43.000Z</time>
      </trkpt>
      <trkpt lat="44.33499" lon="3.3906">
        <ele>738.4</ele>
        <time>2020-08-25T10:31:45.000Z</time>
      </trkpt>
      <trkpt lat="44.33497" lon="3.3906">
        <ele>738.5</ele>
        <time>2020-08-25T10:31:46.000Z</time>
      </trkpt>
      <trkpt lat="44.33493" lon="3.39059">
        <ele>738.8</ele>
        <time>2020-08-25T10:31:48.000Z</time>
      </trkpt>
      <trkpt lat="44.3349" lon="3.39057">
        <ele>739</ele>
        <time>2020-08-25T10:31:50.000Z</time>
      </trkpt>
      <trkpt lat="44.33486" lon="3.39053">
        <ele>739.2</ele>
        <time>2020-08-25T10:31:52.000Z</time>
      </trkpt>
      <trkpt lat="44.33483" lon="3.3905">
        <ele>739.5</ele>
        <time>2020-08-25T10:31:54.000Z</time>
      </trkpt>
      <trkpt lat="44.33482" lon="3.39048">
        <ele>739.6</ele>
        <time>2020-08-25T10:31:55.000Z</time>
      </trkpt>
      <trkpt lat="44.3348" lon="3.39043">
        <ele>739.8</ele>
        <time>2020-08-25T10:31:57.000Z</time>
      </trkpt>
      <trkpt lat="44.33478" lon="3.3904">
        <ele>740</ele>
        <time>2020-08-25T10:31:58.000Z</time>
      </trkpt>
      <trkpt lat="44.33476" lon="3.39037">
        <ele>740.1</ele>
        <time>2020-08-25T10:32:00.000Z</time>
      </trkpt>
      <trkpt lat="44.33475" lon="3.39035">
        <ele>740.2</ele>
        <time>2020-08-25T10:32:01.000Z</time>
      </trkpt>
      <trkpt lat="44.33473" lon="3.39031">
        <ele>740.4</ele>
        <time>2020-08-25T10:32:03.000Z</time>
      </trkpt>
      <trkpt lat="44.33471" lon="3.39028">
        <ele>740.6</ele>
        <time>2020-08-25T10:32:04.000Z</time>
      </trkpt>
      <trkpt lat="44.3347" lon="3.39024">
        <ele>740.8</ele>
        <time>2020-08-25T10:32:06.000Z</time>
      </trkpt>
      <trkpt lat="44.33469" lon="3.39022">
        <ele>740.9</ele>
        <time>2020-08-25T10:32:07.000Z</time>
      </trkpt>
      <trkpt lat="44.33468" lon="3.3902">
        <ele>741</ele>
        <time>2020-08-25T10:32:08.000Z</time>
      </trkpt>
      <trkpt lat="44.33467" lon="3.39018">
        <ele>741.1</ele>
        <time>2020-08-25T10:32:09.000Z</time>
      </trkpt>
      <trkpt lat="44.33465" lon="3.39013">
        <ele>741.4</ele>
        <time>2020-08-25T10:32:11.000Z</time>
      </trkpt>
      <trkpt lat="44.33462" lon="3.3901">
        <ele>741.6</ele>
        <time>2020-08-25T10:32:13.000Z</time>
      </trkpt>
      <trkpt lat="44.3346" lon="3.39007">
        <ele>741.8</ele>
        <time>2020-08-25T10:32:15.000Z</time>
      </trkpt>
      <trkpt lat="44.33459" lon="3.39005">
        <ele>741.9</ele>
        <time>2020-08-25T10:32:16.000Z</time>
      </trkpt>
      <trkpt lat="44.33457" lon="3.39002">
        <ele>742.1</ele>
        <time>2020-08-25T10:32:18.000Z</time>
      </trkpt>
      <trkpt lat="44.33456" lon="3.39001">
        <ele>742.1</ele>
        <time>2020-08-25T10:32:19.000Z</time>
      </trkpt>
      <trkpt lat="44.33454" lon="3.38999">
        <ele>742.3</ele>
        <time>2020-08-25T10:32:21.000Z</time>
      </trkpt>
      <trkpt lat="44.33451" lon="3.38997">
        <ele>742.6</ele>
        <time>2020-08-25T10:32:23.000Z</time>
      </trkpt>
      <trkpt lat="44.33449" lon="3.38996">
        <ele>742.7</ele>
        <time>2020-08-25T10:32:25.000Z</time>
      </trkpt>
      <trkpt lat="44.33448" lon="3.38996">
        <ele>742.8</ele>
        <time>2020-08-25T10:32:26.000Z</time>
      </trkpt>
      <trkpt lat="44.33445" lon="3.38997">
        <ele>743</ele>
        <time>2020-08-25T10:32:28.000Z</time>
      </trkpt>
      <trkpt lat="44.33444" lon="3.38997">
        <ele>743.1</ele>
        <time>2020-08-25T10:32:29.000Z</time>
      </trkpt>
      <trkpt lat="44.33441" lon="3.38996">
        <ele>743.3</ele>
        <time>2020-08-25T10:32:31.000Z</time>
      </trkpt>
      <trkpt lat="44.33439" lon="3.38996">
        <ele>743.4</ele>
        <time>2020-08-25T10:32:32.000Z</time>
      </trkpt>
      <trkpt lat="44.33437" lon="3.38996">
        <ele>743.5</ele>
        <time>2020-08-25T10:32:33.000Z</time>
      </trkpt>
      <trkpt lat="44.33436" lon="3.38996">
        <ele>743.6</ele>
        <time>2020-08-25T10:32:34.000Z</time>
      </trkpt>
      <trkpt lat="44.33434" lon="3.38997">
        <ele>743.8</ele>
        <time>2020-08-25T10:32:35.000Z</time>
      </trkpt>
      <trkpt lat="44.3343" lon="3.38997">
        <ele>744</ele>
        <time>2020-08-25T10:32:37.000Z</time>
      </trkpt>
      <trkpt lat="44.33427" lon="3.38998">
        <ele>744.3</ele>
        <time>2020-08-25T10:32:39.000Z</time>
      </trkpt>
      <trkpt lat="44.33423" lon="3.38998">
        <ele>744.5</ele>
        <time>2020-08-25T10:32:41.000Z</time>
      </trkpt>
      <trkpt lat="44.33421" lon="3.38998">
        <ele>744.7</ele>
        <time>2020-08-25T10:32:42.000Z</time>
      </trkpt>
      <trkpt lat="44.33416" lon="3.38997">
        <ele>745</ele>
        <time>2020-08-25T10:32:44.000Z</time>
      </trkpt>
      <trkpt lat="44.33413" lon="3.38996">
        <ele>745.3</ele>
        <time>2020-08-25T10:32:46.000Z</time>
      </trkpt>
      <trkpt lat="44.33411" lon="3.38995">
        <ele>745.4</ele>
        <time>2020-08-25T10:32:47.000Z</time>
      </trkpt>
      <trkpt lat="44.33408" lon="3.38994">
        <ele>745.7</ele>
        <time>2020-08-25T10:32:49.000Z</time>
      </trkpt>
      <trkpt lat="44.33405" lon="3.38993">
        <ele>745.9</ele>
        <time>2020-08-25T10:32:51.000Z</time>
      </trkpt>
      <trkpt lat="44.33401" lon="3.38991">
        <ele>746.2</ele>
        <time>2020-08-25T10:32:53.000Z</time>
      </trkpt>
      <trkpt lat="44.33398" lon="3.38989">
        <ele>746.4</ele>
        <time>2020-08-25T10:32:55.000Z</time>
      </trkpt>
      <trkpt lat="44.33397" lon="3.38987">
        <ele>746.6</ele>
        <time>2020-08-25T10:32:56.000Z</time>
      </trkpt>
      <trkpt lat="44.33395" lon="3.38986">
        <ele>746.7</ele>
        <time>2020-08-25T10:32:57.000Z</time>
      </trkpt>
      <trkpt lat="44.33391" lon="3.38984">
        <ele>747</ele>
        <time>2020-08-25T10:32:59.000Z</time>
      </trkpt>
      <trkpt lat="44.3339" lon="3.38983">
        <ele>747.1</ele>
        <time>2020-08-25T10:33:00.000Z</time>
      </trkpt>
      <trkpt lat="44.33387" lon="3.38981">
        <ele>747.3</ele>
        <time>2020-08-25T10:33:02.000Z</time>
      </trkpt>
      <trkpt lat="44.33384" lon="3.38979">
        <ele>747.5</ele>
        <time>2020-08-25T10:33:04.000Z</time>
      </trkpt>
      <trkpt lat="44.33381" lon="3.38976">
        <ele>747.7</ele>
        <time>2020-08-25T10:33:05.000Z</time>
      </trkpt>
      <trkpt lat="44.33378" lon="3.38974">
        <ele>747.9</ele>
        <time>2020-08-25T10:33:07.000Z</time>
      </trkpt>
      <trkpt lat="44.33376" lon="3.38971">
        <ele>748.1</ele>
        <time>2020-08-25T10:33:08.000Z</time>
      </trkpt>
      <trkpt lat="44.33375" lon="3.3897">
        <ele>748.1</ele>
        <time>2020-08-25T10:33:09.000Z</time>
      </trkpt>
      <trkpt lat="44.33372" lon="3.38966">
        <ele>748.4</ele>
        <time>2020-08-25T10:33:11.000Z</time>
      </trkpt>
      <trkpt lat="44.33371" lon="3.38963">
        <ele>748.6</ele>
        <time>2020-08-25T10:33:12.000Z</time>
      </trkpt>
      <trkpt lat="44.3337" lon="3.38962">
        <ele>748.6</ele>
        <time>2020-08-25T10:33:13.000Z</time>
      </trkpt>
      <trkpt lat="44.33368" lon="3.38958">
        <ele>748.8</ele>
        <time>2020-08-25T10:33:14.000Z</time>
      </trkpt>
      <trkpt lat="44.33368" lon="3.38957">
        <ele>748.8</ele>
        <time>2020-08-25T10:33:15.000Z</time>
      </trkpt>
      <trkpt lat="44.33366" lon="3.38952">
        <ele>749.1</ele>
        <time>2020-08-25T10:33:17.000Z</time>
      </trkpt>
      <trkpt lat="44.33365" lon="3.38949">
        <ele>749.2</ele>
        <time>2020-08-25T10:33:18.000Z</time>
      </trkpt>
      <trkpt lat="44.33363" lon="3.38944">
        <ele>749.4</ele>
        <time>2020-08-25T10:33:20.000Z</time>
      </trkpt>
      <trkpt lat="44.33362" lon="3.38939">
        <ele>749.6</ele>
        <time>2020-08-25T10:33:22.000Z</time>
      </trkpt>
      <trkpt lat="44.33361" lon="3.38932">
        <ele>750</ele>
        <time>2020-08-25T10:33:24.000Z</time>
      </trkpt>
      <trkpt lat="44.3336" lon="3.3893">
        <ele>750.1</ele>
        <time>2020-08-25T10:33:25.000Z</time>
      </trkpt>
      <trkpt lat="44.33358" lon="3.38925">
        <ele>750.3</ele>
        <time>2020-08-25T10:33:27.000Z</time>
      </trkpt>
      <trkpt lat="44.33357" lon="3.38921">
        <ele>750.6</ele>
        <time>2020-08-25T10:33:29.000Z</time>
      </trkpt>
      <trkpt lat="44.33357" lon="3.38917">
        <ele>750.7</ele>
        <time>2020-08-25T10:33:30.000Z</time>
      </trkpt>
      <trkpt lat="44.33356" lon="3.38913">
        <ele>751</ele>
        <time>2020-08-25T10:33:32.000Z</time>
      </trkpt>
      <trkpt lat="44.33354" lon="3.38909">
        <ele>751.2</ele>
        <time>2020-08-25T10:33:34.000Z</time>
      </trkpt>
      <trkpt lat="44.33353" lon="3.38904">
        <ele>751.4</ele>
        <time>2020-08-25T10:33:36.000Z</time>
      </trkpt>
      <trkpt lat="44.33352" lon="3.389">
        <ele>751.6</ele>
        <time>2020-08-25T10:33:38.000Z</time>
      </trkpt>
      <trkpt lat="44.33351" lon="3.38898">
        <ele>751.7</ele>
        <time>2020-08-25T10:33:39.000Z</time>
      </trkpt>
      <trkpt lat="44.3335" lon="3.38896">
        <ele>751.8</ele>
        <time>2020-08-25T10:33:40.000Z</time>
      </trkpt>
      <trkpt lat="44.3335" lon="3.38894">
        <ele>751.9</ele>
        <time>2020-08-25T10:33:41.000Z</time>
      </trkpt>
      <trkpt lat="44.33349" lon="3.38892">
        <ele>751.9</ele>
        <time>2020-08-25T10:33:42.000Z</time>
      </trkpt>
      <trkpt lat="44.33348" lon="3.38888">
        <ele>752.1</ele>
        <time>2020-08-25T10:33:44.000Z</time>
      </trkpt>
      <trkpt lat="44.33347" lon="3.38886">
        <ele>752.2</ele>
        <time>2020-08-25T10:33:45.000Z</time>
      </trkpt>
      <trkpt lat="44.33346" lon="3.38882">
        <ele>752.3</ele>
        <time>2020-08-25T10:33:47.000Z</time>
      </trkpt>
      <trkpt lat="44.33345" lon="3.3888">
        <ele>752.4</ele>
        <time>2020-08-25T10:33:48.000Z</time>
      </trkpt>
      <trkpt lat="44.33343" lon="3.38876">
        <ele>752.6</ele>
        <time>2020-08-25T10:33:50.000Z</time>
      </trkpt>
      <trkpt lat="44.33342" lon="3.38874">
        <ele>752.7</ele>
        <time>2020-08-25T10:33:51.000Z</time>
      </trkpt>
      <trkpt lat="44.33341" lon="3.3887">
        <ele>752.9</ele>
        <time>2020-08-25T10:33:53.000Z</time>
      </trkpt>
      <trkpt lat="44.3334" lon="3.38868">
        <ele>753</ele>
        <time>2020-08-25T10:33:54.000Z</time>
      </trkpt>
      <trkpt lat="44.33338" lon="3.38863">
        <ele>753.2</ele>
        <time>2020-08-25T10:33:56.000Z</time>
      </trkpt>
      <trkpt lat="44.33337" lon="3.38861">
        <ele>753.3</ele>
        <time>2020-08-25T10:33:57.000Z</time>
      </trkpt>
      <trkpt lat="44.33334" lon="3.38858">
        <ele>753.5</ele>
        <time>2020-08-25T10:33:59.000Z</time>
      </trkpt>
      <trkpt lat="44.33331" lon="3.38854">
        <ele>753.8</ele>
        <time>2020-08-25T10:34:01.000Z</time>
      </trkpt>
      <trkpt lat="44.3333" lon="3.38853">
        <ele>753.9</ele>
        <time>2020-08-25T10:34:02.000Z</time>
      </trkpt>
      <trkpt lat="44.33329" lon="3.38851">
        <ele>754</ele>
        <time>2020-08-25T10:34:03.000Z</time>
      </trkpt>
      <trkpt lat="44.33326" lon="3.38848">
        <ele>754.2</ele>
        <time>2020-08-25T10:34:05.000Z</time>
      </trkpt>
      <trkpt lat="44.33324" lon="3.38844">
        <ele>754.5</ele>
        <time>2020-08-25T10:34:07.000Z</time>
      </trkpt>
      <trkpt lat="44.33321" lon="3.38841">
        <ele>754.7</ele>
        <time>2020-08-25T10:34:09.000Z</time>
      </trkpt>
      <trkpt lat="44.33317" lon="3.38838">
        <ele>755</ele>
        <time>2020-08-25T10:34:11.000Z</time>
      </trkpt>
      <trkpt lat="44.33315" lon="3.38836">
        <ele>755.2</ele>
        <time>2020-08-25T10:34:12.000Z</time>
      </trkpt>
      <trkpt lat="44.33314" lon="3.38835">
        <ele>755.2</ele>
        <time>2020-08-25T10:34:13.000Z</time>
      </trkpt>
      <trkpt lat="44.33311" lon="3.38832">
        <ele>755.5</ele>
        <time>2020-08-25T10:34:15.000Z</time>
      </trkpt>
      <trkpt lat="44.3331" lon="3.3883">
        <ele>755.7</ele>
        <time>2020-08-25T10:34:16.000Z</time>
      </trkpt>
      <trkpt lat="44.33307" lon="3.38827">
        <ele>755.9</ele>
        <time>2020-08-25T10:34:18.000Z</time>
      </trkpt>
      <trkpt lat="44.33306" lon="3.38825">
        <ele>756</ele>
        <time>2020-08-25T10:34:19.000Z</time>
      </trkpt>
      <trkpt lat="44.33303" lon="3.38822">
        <ele>756.3</ele>
        <time>2020-08-25T10:34:21.000Z</time>
      </trkpt>
      <trkpt lat="44.33302" lon="3.38821">
        <ele>756.4</ele>
        <time>2020-08-25T10:34:22.000Z</time>
      </trkpt>
      <trkpt lat="44.333" lon="3.38819">
        <ele>756.5</ele>
        <time>2020-08-25T10:34:23.000Z</time>
      </trkpt>
      <trkpt lat="44.33297" lon="3.38816">
        <ele>756.8</ele>
        <time>2020-08-25T10:34:25.000Z</time>
      </trkpt>
      <trkpt lat="44.33293" lon="3.38814">
        <ele>757.1</ele>
        <time>2020-08-25T10:34:27.000Z</time>
      </trkpt>
      <trkpt lat="44.33292" lon="3.38814">
        <ele>757.2</ele>
        <time>2020-08-25T10:34:28.000Z</time>
      </trkpt>
      <trkpt lat="44.3329" lon="3.38814">
        <ele>757.2</ele>
        <time>2020-08-25T10:34:29.000Z</time>
      </trkpt>
      <trkpt lat="44.33287" lon="3.38816">
        <ele>757.5</ele>
        <time>2020-08-25T10:34:31.000Z</time>
      </trkpt>
      <trkpt lat="44.33284" lon="3.3882">
        <ele>757.8</ele>
        <time>2020-08-25T10:34:33.000Z</time>
      </trkpt>
      <trkpt lat="44.33283" lon="3.38826">
        <ele>758.1</ele>
        <time>2020-08-25T10:34:35.000Z</time>
      </trkpt>
      <trkpt lat="44.33284" lon="3.38833">
        <ele>758.4</ele>
        <time>2020-08-25T10:34:37.000Z</time>
      </trkpt>
      <trkpt lat="44.33288" lon="3.38837">
        <ele>758.6</ele>
        <time>2020-08-25T10:34:39.000Z</time>
      </trkpt>
      <trkpt lat="44.3329" lon="3.38839">
        <ele>758.8</ele>
        <time>2020-08-25T10:34:40.000Z</time>
      </trkpt>
      <trkpt lat="44.33291" lon="3.3884">
        <ele>758.9</ele>
        <time>2020-08-25T10:34:41.000Z</time>
      </trkpt>
      <trkpt lat="44.33294" lon="3.38842">
        <ele>759</ele>
        <time>2020-08-25T10:34:42.000Z</time>
      </trkpt>
      <trkpt lat="44.33295" lon="3.38843">
        <ele>759.1</ele>
        <time>2020-08-25T10:34:43.000Z</time>
      </trkpt>
      <trkpt lat="44.33299" lon="3.38846">
        <ele>759.4</ele>
        <time>2020-08-25T10:34:45.000Z</time>
      </trkpt>
      <trkpt lat="44.33302" lon="3.38848">
        <ele>759.5</ele>
        <time>2020-08-25T10:34:46.000Z</time>
      </trkpt>
      <trkpt lat="44.33303" lon="3.38849">
        <ele>759.6</ele>
        <time>2020-08-25T10:34:47.000Z</time>
      </trkpt>
      <trkpt lat="44.33306" lon="3.38852">
        <ele>759.8</ele>
        <time>2020-08-25T10:34:49.000Z</time>
      </trkpt>
      <trkpt lat="44.33309" lon="3.38855">
        <ele>760</ele>
        <time>2020-08-25T10:34:51.000Z</time>
      </trkpt>
      <trkpt lat="44.33311" lon="3.38856">
        <ele>760.2</ele>
        <time>2020-08-25T10:34:52.000Z</time>
      </trkpt>
      <trkpt lat="44.33314" lon="3.3886">
        <ele>760.4</ele>
        <time>2020-08-25T10:34:54.000Z</time>
      </trkpt>
      <trkpt lat="44.33316" lon="3.38862">
        <ele>760.5</ele>
        <time>2020-08-25T10:34:55.000Z</time>
      </trkpt>
      <trkpt lat="44.33317" lon="3.38863">
        <ele>760.6</ele>
        <time>2020-08-25T10:34:56.000Z</time>
      </trkpt>
      <trkpt lat="44.3332" lon="3.38868">
        <ele>760.8</ele>
        <time>2020-08-25T10:34:58.000Z</time>
      </trkpt>
      <trkpt lat="44.33321" lon="3.3887">
        <ele>760.9</ele>
        <time>2020-08-25T10:35:00.000Z</time>
      </trkpt>
      <trkpt lat="44.33322" lon="3.38871">
        <ele>761</ele>
        <time>2020-08-25T10:35:01.000Z</time>
      </trkpt>
      <trkpt lat="44.33323" lon="3.38873">
        <ele>761.1</ele>
        <time>2020-08-25T10:35:02.000Z</time>
      </trkpt>
      <trkpt lat="44.33324" lon="3.38875">
        <ele>761.2</ele>
        <time>2020-08-25T10:35:03.000Z</time>
      </trkpt>
      <trkpt lat="44.33326" lon="3.3888">
        <ele>761.4</ele>
        <time>2020-08-25T10:35:05.000Z</time>
      </trkpt>
      <trkpt lat="44.33327" lon="3.38884">
        <ele>761.6</ele>
        <time>2020-08-25T10:35:07.000Z</time>
      </trkpt>
      <trkpt lat="44.33328" lon="3.38886">
        <ele>761.7</ele>
        <time>2020-08-25T10:35:08.000Z</time>
      </trkpt>
      <trkpt lat="44.33328" lon="3.38888">
        <ele>761.8</ele>
        <time>2020-08-25T10:35:09.000Z</time>
      </trkpt>
      <trkpt lat="44.33329" lon="3.38892">
        <ele>761.9</ele>
        <time>2020-08-25T10:35:11.000Z</time>
      </trkpt>
      <trkpt lat="44.3333" lon="3.38897">
        <ele>762.2</ele>
        <time>2020-08-25T10:35:13.000Z</time>
      </trkpt>
      <trkpt lat="44.3333" lon="3.38903">
        <ele>762.4</ele>
        <time>2020-08-25T10:35:15.000Z</time>
      </trkpt>
      <trkpt lat="44.3333" lon="3.38905">
        <ele>762.5</ele>
        <time>2020-08-25T10:35:16.000Z</time>
      </trkpt>
      <trkpt lat="44.33331" lon="3.3891">
        <ele>762.7</ele>
        <time>2020-08-25T10:35:18.000Z</time>
      </trkpt>
      <trkpt lat="44.33331" lon="3.38913">
        <ele>762.7</ele>
        <time>2020-08-25T10:35:19.000Z</time>
      </trkpt>
      <trkpt lat="44.33332" lon="3.38918">
        <ele>762.9</ele>
        <time>2020-08-25T10:35:21.000Z</time>
      </trkpt>
      <trkpt lat="44.33332" lon="3.3892">
        <ele>763</ele>
        <time>2020-08-25T10:35:22.000Z</time>
      </trkpt>
      <trkpt lat="44.33333" lon="3.38924">
        <ele>763.1</ele>
        <time>2020-08-25T10:35:24.000Z</time>
      </trkpt>
      <trkpt lat="44.33333" lon="3.3893">
        <ele>763.2</ele>
        <time>2020-08-25T10:35:26.000Z</time>
      </trkpt>
      <trkpt lat="44.33334" lon="3.38932">
        <ele>763.3</ele>
        <time>2020-08-25T10:35:27.000Z</time>
      </trkpt>
      <trkpt lat="44.33334" lon="3.38934">
        <ele>763.4</ele>
        <time>2020-08-25T10:35:28.000Z</time>
      </trkpt>
      <trkpt lat="44.33335" lon="3.3894">
        <ele>763.5</ele>
        <time>2020-08-25T10:35:30.000Z</time>
      </trkpt>
      <trkpt lat="44.33335" lon="3.38943">
        <ele>763.6</ele>
        <time>2020-08-25T10:35:31.000Z</time>
      </trkpt>
      <trkpt lat="44.33336" lon="3.38945">
        <ele>763.7</ele>
        <time>2020-08-25T10:35:32.000Z</time>
      </trkpt>
      <trkpt lat="44.33336" lon="3.38948">
        <ele>763.8</ele>
        <time>2020-08-25T10:35:34.000Z</time>
      </trkpt>
      <trkpt lat="44.33337" lon="3.38952">
        <ele>763.9</ele>
        <time>2020-08-25T10:35:36.000Z</time>
      </trkpt>
      <trkpt lat="44.33337" lon="3.38955">
        <ele>764</ele>
        <time>2020-08-25T10:35:37.000Z</time>
      </trkpt>
      <trkpt lat="44.33338" lon="3.38959">
        <ele>764.2</ele>
        <time>2020-08-25T10:35:39.000Z</time>
      </trkpt>
      <trkpt lat="44.33338" lon="3.38961">
        <ele>764.3</ele>
        <time>2020-08-25T10:35:40.000Z</time>
      </trkpt>
      <trkpt lat="44.33339" lon="3.38966">
        <ele>764.4</ele>
        <time>2020-08-25T10:35:42.000Z</time>
      </trkpt>
      <trkpt lat="44.33339" lon="3.38968">
        <ele>764.5</ele>
        <time>2020-08-25T10:35:43.000Z</time>
      </trkpt>
      <trkpt lat="44.33339" lon="3.38973">
        <ele>764.7</ele>
        <time>2020-08-25T10:35:45.000Z</time>
      </trkpt>
      <trkpt lat="44.3334" lon="3.38977">
        <ele>764.8</ele>
        <time>2020-08-25T10:35:47.000Z</time>
      </trkpt>
      <trkpt lat="44.33341" lon="3.38981">
        <ele>764.9</ele>
        <time>2020-08-25T10:35:49.000Z</time>
      </trkpt>
      <trkpt lat="44.33343" lon="3.38985">
        <ele>765.1</ele>
        <time>2020-08-25T10:35:51.000Z</time>
      </trkpt>
      <trkpt lat="44.33344" lon="3.38987">
        <ele>765.2</ele>
        <time>2020-08-25T10:35:52.000Z</time>
      </trkpt>
      <trkpt lat="44.33345" lon="3.38989">
        <ele>765.3</ele>
        <time>2020-08-25T10:35:53.000Z</time>
      </trkpt>
      <trkpt lat="44.33346" lon="3.38992">
        <ele>764.3</ele>
        <time>2020-08-25T10:35:55.000Z</time>
      </trkpt>
      <trkpt lat="44.33346" lon="3.38995">
        <ele>766.5</ele>
        <time>2020-08-25T10:35:56.000Z</time>
      </trkpt>
      <trkpt lat="44.33349" lon="3.39">
        <ele>767.8</ele>
        <time>2020-08-25T10:35:58.000Z</time>
      </trkpt>
      <trkpt lat="44.3335" lon="3.39001">
        <ele>770</ele>
        <time>2020-08-25T10:35:59.000Z</time>
      </trkpt>
      <trkpt lat="44.33352" lon="3.39003">
        <ele>769.9</ele>
        <time>2020-08-25T10:36:00.000Z</time>
      </trkpt>
      <trkpt lat="44.33354" lon="3.39006">
        <ele>771.1</ele>
        <time>2020-08-25T10:36:02.000Z</time>
      </trkpt>
      <trkpt lat="44.33356" lon="3.39008">
        <ele>770</ele>
        <time>2020-08-25T10:36:03.000Z</time>
      </trkpt>
      <trkpt lat="44.33357" lon="3.39009">
        <ele>770</ele>
        <time>2020-08-25T10:36:04.000Z</time>
      </trkpt>
      <trkpt lat="44.3336" lon="3.39012">
        <ele>771</ele>
        <time>2020-08-25T10:36:06.000Z</time>
      </trkpt>
      <trkpt lat="44.33363" lon="3.39014">
        <ele>772</ele>
        <time>2020-08-25T10:36:07.000Z</time>
      </trkpt>
      <trkpt lat="44.33364" lon="3.39015">
        <ele>772</ele>
        <time>2020-08-25T10:36:08.000Z</time>
      </trkpt>
      <trkpt lat="44.33366" lon="3.39017">
        <ele>770.8</ele>
        <time>2020-08-25T10:36:09.000Z</time>
      </trkpt>
      <trkpt lat="44.33369" lon="3.3902">
        <ele>771.8</ele>
        <time>2020-08-25T10:36:11.000Z</time>
      </trkpt>
      <trkpt lat="44.33371" lon="3.39021">
        <ele>770.6</ele>
        <time>2020-08-25T10:36:12.000Z</time>
      </trkpt>
      <trkpt lat="44.33374" lon="3.39023">
        <ele>771.7</ele>
        <time>2020-08-25T10:36:14.000Z</time>
      </trkpt>
      <trkpt lat="44.33377" lon="3.39026">
        <ele>770.6</ele>
        <time>2020-08-25T10:36:16.000Z</time>
      </trkpt>
      <trkpt lat="44.33379" lon="3.39028">
        <ele>773</ele>
        <time>2020-08-25T10:36:18.000Z</time>
      </trkpt>
      <trkpt lat="44.33381" lon="3.39029">
        <ele>771.8</ele>
        <time>2020-08-25T10:36:19.000Z</time>
      </trkpt>
      <trkpt lat="44.33383" lon="3.39029">
        <ele>770.6</ele>
        <time>2020-08-25T10:36:20.000Z</time>
      </trkpt>
      <trkpt lat="44.33387" lon="3.39032">
        <ele>771.8</ele>
        <time>2020-08-25T10:36:22.000Z</time>
      </trkpt>
      <trkpt lat="44.33389" lon="3.39034">
        <ele>770.4</ele>
        <time>2020-08-25T10:36:23.000Z</time>
      </trkpt>
      <trkpt lat="44.33392" lon="3.39037">
        <ele>772.9</ele>
        <time>2020-08-25T10:36:25.000Z</time>
      </trkpt>
      <trkpt lat="44.33394" lon="3.39038">
        <ele>771.6</ele>
        <time>2020-08-25T10:36:26.000Z</time>
      </trkpt>
      <trkpt lat="44.33395" lon="3.39038">
        <ele>770.2</ele>
        <time>2020-08-25T10:36:27.000Z</time>
      </trkpt>
      <trkpt lat="44.33399" lon="3.39041">
        <ele>771.5</ele>
        <time>2020-08-25T10:36:29.000Z</time>
      </trkpt>
      <trkpt lat="44.33402" lon="3.39042">
        <ele>770.3</ele>
        <time>2020-08-25T10:36:30.000Z</time>
      </trkpt>
      <trkpt lat="44.33403" lon="3.39043">
        <ele>770.3</ele>
        <time>2020-08-25T10:36:31.000Z</time>
      </trkpt>
      <trkpt lat="44.33407" lon="3.39044">
        <ele>768</ele>
        <time>2020-08-25T10:36:33.000Z</time>
      </trkpt>
      <trkpt lat="44.33409" lon="3.39044">
        <ele>768</ele>
        <time>2020-08-25T10:36:34.000Z</time>
      </trkpt>
      <trkpt lat="44.33413" lon="3.39045">
        <ele>769.2</ele>
        <time>2020-08-25T10:36:36.000Z</time>
      </trkpt>
      <trkpt lat="44.33415" lon="3.39046">
        <ele>767.9</ele>
        <time>2020-08-25T10:36:37.000Z</time>
      </trkpt>
      <trkpt lat="44.33418" lon="3.39048">
        <ele>766.5</ele>
        <time>2020-08-25T10:36:39.000Z</time>
      </trkpt>
      <trkpt lat="44.3342" lon="3.3905">
        <ele>767.7</ele>
        <time>2020-08-25T10:36:40.000Z</time>
      </trkpt>
      <trkpt lat="44.3342" lon="3.39052">
        <ele>767.7</ele>
        <time>2020-08-25T10:36:41.000Z</time>
      </trkpt>
      <trkpt lat="44.33418" lon="3.39056">
        <ele>771.3</ele>
        <time>2020-08-25T10:36:43.000Z</time>
      </trkpt>
      <trkpt lat="44.33416" lon="3.39055">
        <ele>772.5</ele>
        <time>2020-08-25T10:36:45.000Z</time>
      </trkpt>
      <trkpt lat="44.33414" lon="3.39055">
        <ele>772.5</ele>
        <time>2020-08-25T10:36:46.000Z</time>
      </trkpt>
      <trkpt lat="44.33413" lon="3.39054">
        <ele>773.7</ele>
        <time>2020-08-25T10:36:47.000Z</time>
      </trkpt>
      <trkpt lat="44.3341" lon="3.39052">
        <ele>772.6</ele>
        <time>2020-08-25T10:36:49.000Z</time>
      </trkpt>
      <trkpt lat="44.33407" lon="3.39051">
        <ele>772.6</ele>
        <time>2020-08-25T10:36:50.000Z</time>
      </trkpt>
      <trkpt lat="44.33403" lon="3.39048">
        <ele>772.8</ele>
        <time>2020-08-25T10:36:52.000Z</time>
      </trkpt>
      <trkpt lat="44.334" lon="3.39045">
        <ele>773</ele>
        <time>2020-08-25T10:36:54.000Z</time>
      </trkpt>
      <trkpt lat="44.33397" lon="3.39042">
        <ele>773.2</ele>
        <time>2020-08-25T10:36:56.000Z</time>
      </trkpt>
      <trkpt lat="44.33394" lon="3.3904">
        <ele>773.4</ele>
        <time>2020-08-25T10:36:58.000Z</time>
      </trkpt>
      <trkpt lat="44.33393" lon="3.39039">
        <ele>773.4</ele>
        <time>2020-08-25T10:36:59.000Z</time>
      </trkpt>
      <trkpt lat="44.33391" lon="3.39038">
        <ele>773.5</ele>
        <time>2020-08-25T10:37:00.000Z</time>
      </trkpt>
      <trkpt lat="44.33388" lon="3.39036">
        <ele>773.7</ele>
        <time>2020-08-25T10:37:02.000Z</time>
      </trkpt>
      <trkpt lat="44.33386" lon="3.39034">
        <ele>773.9</ele>
        <time>2020-08-25T10:37:04.000Z</time>
      </trkpt>
      <trkpt lat="44.33385" lon="3.39033">
        <ele>774</ele>
        <time>2020-08-25T10:37:05.000Z</time>
      </trkpt>
      <trkpt lat="44.33382" lon="3.39032">
        <ele>774.2</ele>
        <time>2020-08-25T10:37:07.000Z</time>
      </trkpt>
      <trkpt lat="44.33379" lon="3.39029">
        <ele>774.4</ele>
        <time>2020-08-25T10:37:08.000Z</time>
      </trkpt>
      <trkpt lat="44.33378" lon="3.39029">
        <ele>774.4</ele>
        <time>2020-08-25T10:37:09.000Z</time>
      </trkpt>
      <trkpt lat="44.33376" lon="3.39027">
        <ele>774.6</ele>
        <time>2020-08-25T10:37:11.000Z</time>
      </trkpt>
      <trkpt lat="44.33374" lon="3.39026">
        <ele>774.7</ele>
        <time>2020-08-25T10:37:12.000Z</time>
      </trkpt>
      <trkpt lat="44.33372" lon="3.39024">
        <ele>774.9</ele>
        <time>2020-08-25T10:37:14.000Z</time>
      </trkpt>
      <trkpt lat="44.3337" lon="3.39023">
        <ele>775</ele>
        <time>2020-08-25T10:37:15.000Z</time>
      </trkpt>
      <trkpt lat="44.33368" lon="3.39022">
        <ele>775.1</ele>
        <time>2020-08-25T10:37:16.000Z</time>
      </trkpt>
      <trkpt lat="44.33365" lon="3.39019">
        <ele>775.3</ele>
        <time>2020-08-25T10:37:18.000Z</time>
      </trkpt>
      <trkpt lat="44.33364" lon="3.39018">
        <ele>775.4</ele>
        <time>2020-08-25T10:37:19.000Z</time>
      </trkpt>
      <trkpt lat="44.33361" lon="3.39017">
        <ele>775.5</ele>
        <time>2020-08-25T10:37:21.000Z</time>
      </trkpt>
      <trkpt lat="44.3336" lon="3.39016">
        <ele>775.6</ele>
        <time>2020-08-25T10:37:22.000Z</time>
      </trkpt>
      <trkpt lat="44.33357" lon="3.39014">
        <ele>775.8</ele>
        <time>2020-08-25T10:37:24.000Z</time>
      </trkpt>
      <trkpt lat="44.33353" lon="3.3901">
        <ele>776</ele>
        <time>2020-08-25T10:37:26.000Z</time>
      </trkpt>
      <trkpt lat="44.33352" lon="3.39008">
        <ele>776.1</ele>
        <time>2020-08-25T10:37:27.000Z</time>
      </trkpt>
      <trkpt lat="44.33349" lon="3.39006">
        <ele>776.3</ele>
        <time>2020-08-25T10:37:29.000Z</time>
      </trkpt>
      <trkpt lat="44.33347" lon="3.39003">
        <ele>776.5</ele>
        <time>2020-08-25T10:37:31.000Z</time>
      </trkpt>
      <trkpt lat="44.33346" lon="3.39001">
        <ele>776.7</ele>
        <time>2020-08-25T10:37:32.000Z</time>
      </trkpt>
      <trkpt lat="44.33343" lon="3.38998">
        <ele>776.9</ele>
        <time>2020-08-25T10:37:34.000Z</time>
      </trkpt>
      <trkpt lat="44.33342" lon="3.38996">
        <ele>777</ele>
        <time>2020-08-25T10:37:35.000Z</time>
      </trkpt>
      <trkpt lat="44.3334" lon="3.38992">
        <ele>777.2</ele>
        <time>2020-08-25T10:37:37.000Z</time>
      </trkpt>
      <trkpt lat="44.33338" lon="3.38988">
        <ele>777.4</ele>
        <time>2020-08-25T10:37:39.000Z</time>
      </trkpt>
      <trkpt lat="44.33338" lon="3.38986">
        <ele>777.5</ele>
        <time>2020-08-25T10:37:40.000Z</time>
      </trkpt>
      <trkpt lat="44.33337" lon="3.38984">
        <ele>777.7</ele>
        <time>2020-08-25T10:37:41.000Z</time>
      </trkpt>
      <trkpt lat="44.33335" lon="3.38978">
        <ele>778</ele>
        <time>2020-08-25T10:37:43.000Z</time>
      </trkpt>
      <trkpt lat="44.33334" lon="3.38976">
        <ele>778.1</ele>
        <time>2020-08-25T10:37:45.000Z</time>
      </trkpt>
      <trkpt lat="44.33333" lon="3.38974">
        <ele>778.2</ele>
        <time>2020-08-25T10:37:46.000Z</time>
      </trkpt>
      <trkpt lat="44.33332" lon="3.38971">
        <ele>778.4</ele>
        <time>2020-08-25T10:37:48.000Z</time>
      </trkpt>
      <trkpt lat="44.33331" lon="3.38967">
        <ele>778.6</ele>
        <time>2020-08-25T10:37:50.000Z</time>
      </trkpt>
      <trkpt lat="44.3333" lon="3.38963">
        <ele>778.8</ele>
        <time>2020-08-25T10:37:52.000Z</time>
      </trkpt>
      <trkpt lat="44.33329" lon="3.38959">
        <ele>779</ele>
        <time>2020-08-25T10:37:54.000Z</time>
      </trkpt>
      <trkpt lat="44.33327" lon="3.38954">
        <ele>779.2</ele>
        <time>2020-08-25T10:37:56.000Z</time>
      </trkpt>
      <trkpt lat="44.33326" lon="3.38952">
        <ele>779.3</ele>
        <time>2020-08-25T10:37:57.000Z</time>
      </trkpt>
      <trkpt lat="44.33325" lon="3.38948">
        <ele>779.5</ele>
        <time>2020-08-25T10:37:59.000Z</time>
      </trkpt>
      <trkpt lat="44.33324" lon="3.38944">
        <ele>779.7</ele>
        <time>2020-08-25T10:38:01.000Z</time>
      </trkpt>
      <trkpt lat="44.33323" lon="3.3894">
        <ele>779.9</ele>
        <time>2020-08-25T10:38:03.000Z</time>
      </trkpt>
      <trkpt lat="44.33322" lon="3.38937">
        <ele>780.1</ele>
        <time>2020-08-25T10:38:04.000Z</time>
      </trkpt>
      <trkpt lat="44.33321" lon="3.38934">
        <ele>780.3</ele>
        <time>2020-08-25T10:38:06.000Z</time>
      </trkpt>
      <trkpt lat="44.33319" lon="3.3893">
        <ele>780.5</ele>
        <time>2020-08-25T10:38:07.000Z</time>
      </trkpt>
      <trkpt lat="44.33319" lon="3.38928">
        <ele>780.6</ele>
        <time>2020-08-25T10:38:08.000Z</time>
      </trkpt>
      <trkpt lat="44.33318" lon="3.38924">
        <ele>780.8</ele>
        <time>2020-08-25T10:38:10.000Z</time>
      </trkpt>
      <trkpt lat="44.33317" lon="3.38922">
        <ele>780.9</ele>
        <time>2020-08-25T10:38:11.000Z</time>
      </trkpt>
      <trkpt lat="44.33315" lon="3.38918">
        <ele>781.1</ele>
        <time>2020-08-25T10:38:13.000Z</time>
      </trkpt>
      <trkpt lat="44.33314" lon="3.38914">
        <ele>781.3</ele>
        <time>2020-08-25T10:38:15.000Z</time>
      </trkpt>
      <trkpt lat="44.33312" lon="3.3891">
        <ele>781.6</ele>
        <time>2020-08-25T10:38:17.000Z</time>
      </trkpt>
      <trkpt lat="44.33311" lon="3.38908">
        <ele>781.7</ele>
        <time>2020-08-25T10:38:18.000Z</time>
      </trkpt>
      <trkpt lat="44.33309" lon="3.38904">
        <ele>781.9</ele>
        <time>2020-08-25T10:38:20.000Z</time>
      </trkpt>
      <trkpt lat="44.33306" lon="3.38901">
        <ele>782.1</ele>
        <time>2020-08-25T10:38:22.000Z</time>
      </trkpt>
      <trkpt lat="44.33304" lon="3.38898">
        <ele>782.3</ele>
        <time>2020-08-25T10:38:24.000Z</time>
      </trkpt>
      <trkpt lat="44.33303" lon="3.38896">
        <ele>782.4</ele>
        <time>2020-08-25T10:38:26.000Z</time>
      </trkpt>
      <trkpt lat="44.33304" lon="3.38897">
        <ele>782.5</ele>
        <time>2020-08-25T10:38:27.000Z</time>
      </trkpt>
      <trkpt lat="44.33304" lon="3.38897">
        <ele>782.5</ele>
        <time>2020-08-25T10:38:28.000Z</time>
      </trkpt>
      <trkpt lat="44.33304" lon="3.38898">
        <ele>782.5</ele>
        <time>2020-08-25T10:38:30.000Z</time>
      </trkpt>
      <trkpt lat="44.33304" lon="3.38898">
        <ele>782.5</ele>
        <time>2020-08-25T10:38:31.000Z</time>
      </trkpt>
      <trkpt lat="44.33304" lon="3.38898">
        <ele>782.5</ele>
        <time>2020-08-25T10:38:33.000Z</time>
      </trkpt>
      <trkpt lat="44.33304" lon="3.38898">
        <ele>782.5</ele>
        <time>2020-08-25T10:38:34.000Z</time>
      </trkpt>
      <trkpt lat="44.33304" lon="3.38898">
        <ele>782.5</ele>
        <time>2020-08-25T10:38:36.000Z</time>
      </trkpt>
      <trkpt lat="44.33305" lon="3.38898">
        <ele>782.6</ele>
        <time>2020-08-25T10:38:38.000Z</time>
      </trkpt>
      <trkpt lat="44.33301" lon="3.38895">
        <ele>782.8</ele>
        <time>2020-08-25T10:38:57.000Z</time>
      </trkpt>
      <trkpt lat="44.333" lon="3.38895">
        <ele>782.9</ele>
        <time>2020-08-25T10:38:58.000Z</time>
      </trkpt>
      <trkpt lat="44.333" lon="3.38894">
        <ele>783</ele>
        <time>2020-08-25T10:39:00.000Z</time>
      </trkpt>
      <trkpt lat="44.33299" lon="3.38893">
        <ele>783</ele>
        <time>2020-08-25T10:39:01.000Z</time>
      </trkpt>
      <trkpt lat="44.33296" lon="3.38892">
        <ele>783.2</ele>
        <time>2020-08-25T10:39:03.000Z</time>
      </trkpt>
      <trkpt lat="44.33294" lon="3.38891">
        <ele>783.3</ele>
        <time>2020-08-25T10:39:05.000Z</time>
      </trkpt>
      <trkpt lat="44.33296" lon="3.38889">
        <ele>783.5</ele>
        <time>2020-08-25T10:39:07.000Z</time>
      </trkpt>
      <trkpt lat="44.33295" lon="3.38888">
        <ele>783.5</ele>
        <time>2020-08-25T10:39:09.000Z</time>
      </trkpt>
      <trkpt lat="44.33294" lon="3.38888">
        <ele>783.6</ele>
        <time>2020-08-25T10:39:11.000Z</time>
      </trkpt>
      <trkpt lat="44.33294" lon="3.38887">
        <ele>783.7</ele>
        <time>2020-08-25T10:39:12.000Z</time>
      </trkpt>
      <trkpt lat="44.33291" lon="3.38886">
        <ele>783.9</ele>
        <time>2020-08-25T10:39:14.000Z</time>
      </trkpt>
      <trkpt lat="44.33289" lon="3.38885">
        <ele>784</ele>
        <time>2020-08-25T10:39:16.000Z</time>
      </trkpt>
      <trkpt lat="44.33287" lon="3.38884">
        <ele>784.1</ele>
        <time>2020-08-25T10:39:18.000Z</time>
      </trkpt>
      <trkpt lat="44.33284" lon="3.38883">
        <ele>784.3</ele>
        <time>2020-08-25T10:39:20.000Z</time>
      </trkpt>
      <trkpt lat="44.33283" lon="3.38882">
        <ele>784.4</ele>
        <time>2020-08-25T10:39:21.000Z</time>
      </trkpt>
      <trkpt lat="44.33281" lon="3.38882">
        <ele>784.5</ele>
        <time>2020-08-25T10:39:22.000Z</time>
      </trkpt>
      <trkpt lat="44.33278" lon="3.3888">
        <ele>784.8</ele>
        <time>2020-08-25T10:39:24.000Z</time>
      </trkpt>
      <trkpt lat="44.33277" lon="3.3888">
        <ele>784.8</ele>
        <time>2020-08-25T10:39:25.000Z</time>
      </trkpt>
      <trkpt lat="44.33274" lon="3.3888">
        <ele>785.1</ele>
        <time>2020-08-25T10:39:27.000Z</time>
      </trkpt>
      <trkpt lat="44.33273" lon="3.3888">
        <ele>785.1</ele>
        <time>2020-08-25T10:39:28.000Z</time>
      </trkpt>
      <trkpt lat="44.33271" lon="3.38881">
        <ele>785.2</ele>
        <time>2020-08-25T10:39:29.000Z</time>
      </trkpt>
      <trkpt lat="44.3327" lon="3.38882">
        <ele>785.3</ele>
        <time>2020-08-25T10:39:31.000Z</time>
      </trkpt>
      <trkpt lat="44.33267" lon="3.38883">
        <ele>785.5</ele>
        <time>2020-08-25T10:39:32.000Z</time>
      </trkpt>
      <trkpt lat="44.33265" lon="3.38884">
        <ele>785.6</ele>
        <time>2020-08-25T10:39:33.000Z</time>
      </trkpt>
      <trkpt lat="44.33264" lon="3.38886">
        <ele>785.8</ele>
        <time>2020-08-25T10:39:35.000Z</time>
      </trkpt>
      <trkpt lat="44.33263" lon="3.38888">
        <ele>785.9</ele>
        <time>2020-08-25T10:39:36.000Z</time>
      </trkpt>
      <trkpt lat="44.33262" lon="3.38889">
        <ele>786</ele>
        <time>2020-08-25T10:39:37.000Z</time>
      </trkpt>
      <trkpt lat="44.33259" lon="3.38893">
        <ele>786.2</ele>
        <time>2020-08-25T10:39:39.000Z</time>
      </trkpt>
      <trkpt lat="44.33259" lon="3.38894">
        <ele>786.3</ele>
        <time>2020-08-25T10:39:41.000Z</time>
      </trkpt>
      <trkpt lat="44.33259" lon="3.38894">
        <ele>786.3</ele>
        <time>2020-08-25T10:39:42.000Z</time>
      </trkpt>
      <trkpt lat="44.33258" lon="3.38896">
        <ele>786.4</ele>
        <time>2020-08-25T10:39:44.000Z</time>
      </trkpt>
      <trkpt lat="44.33256" lon="3.38899">
        <ele>786.6</ele>
        <time>2020-08-25T10:39:45.000Z</time>
      </trkpt>
      <trkpt lat="44.33255" lon="3.38901">
        <ele>786.7</ele>
        <time>2020-08-25T10:39:47.000Z</time>
      </trkpt>
      <trkpt lat="44.33255" lon="3.38903">
        <ele>786.8</ele>
        <time>2020-08-25T10:39:48.000Z</time>
      </trkpt>
      <trkpt lat="44.33254" lon="3.38905">
        <ele>786.9</ele>
        <time>2020-08-25T10:39:50.000Z</time>
      </trkpt>
      <trkpt lat="44.33253" lon="3.38906">
        <ele>787</ele>
        <time>2020-08-25T10:39:51.000Z</time>
      </trkpt>
      <trkpt lat="44.33253" lon="3.38907">
        <ele>787</ele>
        <time>2020-08-25T10:39:52.000Z</time>
      </trkpt>
      <trkpt lat="44.33252" lon="3.38909">
        <ele>787.1</ele>
        <time>2020-08-25T10:39:54.000Z</time>
      </trkpt>
      <trkpt lat="44.33251" lon="3.38911">
        <ele>787.3</ele>
        <time>2020-08-25T10:39:56.000Z</time>
      </trkpt>
      <trkpt lat="44.3325" lon="3.38914">
        <ele>787.4</ele>
        <time>2020-08-25T10:39:58.000Z</time>
      </trkpt>
      <trkpt lat="44.33249" lon="3.38916">
        <ele>787.5</ele>
        <time>2020-08-25T10:39:59.000Z</time>
      </trkpt>
      <trkpt lat="44.33248" lon="3.38919">
        <ele>787.7</ele>
        <time>2020-08-25T10:40:01.000Z</time>
      </trkpt>
      <trkpt lat="44.33248" lon="3.3892">
        <ele>787.7</ele>
        <time>2020-08-25T10:40:02.000Z</time>
      </trkpt>
      <trkpt lat="44.33247" lon="3.38922">
        <ele>787.8</ele>
        <time>2020-08-25T10:40:03.000Z</time>
      </trkpt>
      <trkpt lat="44.33246" lon="3.38923">
        <ele>787.9</ele>
        <time>2020-08-25T10:40:05.000Z</time>
      </trkpt>
      <trkpt lat="44.33245" lon="3.38926">
        <ele>788.1</ele>
        <time>2020-08-25T10:40:06.000Z</time>
      </trkpt>
      <trkpt lat="44.33245" lon="3.38927">
        <ele>788.1</ele>
        <time>2020-08-25T10:40:07.000Z</time>
      </trkpt>
      <trkpt lat="44.33244" lon="3.38928">
        <ele>788.2</ele>
        <time>2020-08-25T10:40:09.000Z</time>
      </trkpt>
      <trkpt lat="44.33244" lon="3.38928">
        <ele>788.2</ele>
        <time>2020-08-25T10:40:10.000Z</time>
      </trkpt>
      <trkpt lat="44.3324" lon="3.38937">
        <ele>788.7</ele>
        <time>2020-08-25T10:40:12.000Z</time>
      </trkpt>
      <trkpt lat="44.33237" lon="3.38942">
        <ele>789</ele>
        <time>2020-08-25T10:40:14.000Z</time>
      </trkpt>
      <trkpt lat="44.33235" lon="3.38945">
        <ele>789.2</ele>
        <time>2020-08-25T10:40:15.000Z</time>
      </trkpt>
      <trkpt lat="44.33234" lon="3.38945">
        <ele>789.2</ele>
        <time>2020-08-25T10:40:16.000Z</time>
      </trkpt>
      <trkpt lat="44.33233" lon="3.38947">
        <ele>789.3</ele>
        <time>2020-08-25T10:40:17.000Z</time>
      </trkpt>
      <trkpt lat="44.33231" lon="3.38948">
        <ele>789.5</ele>
        <time>2020-08-25T10:40:18.000Z</time>
      </trkpt>
      <trkpt lat="44.33228" lon="3.38951">
        <ele>789.7</ele>
        <time>2020-08-25T10:40:20.000Z</time>
      </trkpt>
      <trkpt lat="44.33227" lon="3.38952">
        <ele>789.8</ele>
        <time>2020-08-25T10:40:21.000Z</time>
      </trkpt>
      <trkpt lat="44.33225" lon="3.38952">
        <ele>789.9</ele>
        <time>2020-08-25T10:40:22.000Z</time>
      </trkpt>
      <trkpt lat="44.33222" lon="3.38954">
        <ele>790.2</ele>
        <time>2020-08-25T10:40:24.000Z</time>
      </trkpt>
      <trkpt lat="44.33221" lon="3.38956">
        <ele>790.3</ele>
        <time>2020-08-25T10:40:25.000Z</time>
      </trkpt>
      <trkpt lat="44.33218" lon="3.38958">
        <ele>790.5</ele>
        <time>2020-08-25T10:40:27.000Z</time>
      </trkpt>
      <trkpt lat="44.33215" lon="3.38959">
        <ele>790.7</ele>
        <time>2020-08-25T10:40:28.000Z</time>
      </trkpt>
      <trkpt lat="44.33214" lon="3.3896">
        <ele>790.7</ele>
        <time>2020-08-25T10:40:29.000Z</time>
      </trkpt>
      <trkpt lat="44.33212" lon="3.38962">
        <ele>790.9</ele>
        <time>2020-08-25T10:40:30.000Z</time>
      </trkpt>
      <trkpt lat="44.33211" lon="3.38963">
        <ele>791</ele>
        <time>2020-08-25T10:40:31.000Z</time>
      </trkpt>
      <trkpt lat="44.33208" lon="3.38966">
        <ele>791.3</ele>
        <time>2020-08-25T10:40:33.000Z</time>
      </trkpt>
      <trkpt lat="44.33205" lon="3.3897">
        <ele>791.5</ele>
        <time>2020-08-25T10:40:35.000Z</time>
      </trkpt>
      <trkpt lat="44.33203" lon="3.38974">
        <ele>791.8</ele>
        <time>2020-08-25T10:40:37.000Z</time>
      </trkpt>
      <trkpt lat="44.33202" lon="3.38976">
        <ele>791.9</ele>
        <time>2020-08-25T10:40:38.000Z</time>
      </trkpt>
      <trkpt lat="44.332" lon="3.38981">
        <ele>792.1</ele>
        <time>2020-08-25T10:40:40.000Z</time>
      </trkpt>
      <trkpt lat="44.33199" lon="3.38983">
        <ele>792.3</ele>
        <time>2020-08-25T10:40:41.000Z</time>
      </trkpt>
      <trkpt lat="44.33198" lon="3.38988">
        <ele>792.5</ele>
        <time>2020-08-25T10:40:43.000Z</time>
      </trkpt>
      <trkpt lat="44.33196" lon="3.38992">
        <ele>792.8</ele>
        <time>2020-08-25T10:40:45.000Z</time>
      </trkpt>
      <trkpt lat="44.33196" lon="3.38994">
        <ele>792.8</ele>
        <time>2020-08-25T10:40:46.000Z</time>
      </trkpt>
      <trkpt lat="44.33195" lon="3.38997">
        <ele>793</ele>
        <time>2020-08-25T10:40:47.000Z</time>
      </trkpt>
      <trkpt lat="44.33194" lon="3.38999">
        <ele>793.1</ele>
        <time>2020-08-25T10:40:48.000Z</time>
      </trkpt>
      <trkpt lat="44.33193" lon="3.39004">
        <ele>793.3</ele>
        <time>2020-08-25T10:40:50.000Z</time>
      </trkpt>
      <trkpt lat="44.33193" lon="3.39006">
        <ele>793.5</ele>
        <time>2020-08-25T10:40:51.000Z</time>
      </trkpt>
      <trkpt lat="44.33192" lon="3.39009">
        <ele>793.6</ele>
        <time>2020-08-25T10:40:52.000Z</time>
      </trkpt>
      <trkpt lat="44.33192" lon="3.39014">
        <ele>793.8</ele>
        <time>2020-08-25T10:40:54.000Z</time>
      </trkpt>
      <trkpt lat="44.33191" lon="3.39016">
        <ele>793.9</ele>
        <time>2020-08-25T10:40:55.000Z</time>
      </trkpt>
      <trkpt lat="44.3319" lon="3.39018">
        <ele>794</ele>
        <time>2020-08-25T10:40:56.000Z</time>
      </trkpt>
      <trkpt lat="44.3319" lon="3.39023">
        <ele>794.3</ele>
        <time>2020-08-25T10:40:58.000Z</time>
      </trkpt>
      <trkpt lat="44.3319" lon="3.39028">
        <ele>794.5</ele>
        <time>2020-08-25T10:41:00.000Z</time>
      </trkpt>
      <trkpt lat="44.3319" lon="3.3903">
        <ele>794.6</ele>
        <time>2020-08-25T10:41:01.000Z</time>
      </trkpt>
      <trkpt lat="44.33189" lon="3.39033">
        <ele>794.8</ele>
        <time>2020-08-25T10:41:03.000Z</time>
      </trkpt>
      <trkpt lat="44.33189" lon="3.39039">
        <ele>795</ele>
        <time>2020-08-25T10:41:05.000Z</time>
      </trkpt>
      <trkpt lat="44.33189" lon="3.39041">
        <ele>795.1</ele>
        <time>2020-08-25T10:41:07.000Z</time>
      </trkpt>
      <trkpt lat="44.33189" lon="3.39042">
        <ele>795.2</ele>
        <time>2020-08-25T10:41:08.000Z</time>
      </trkpt>
      <trkpt lat="44.33189" lon="3.39047">
        <ele>795.4</ele>
        <time>2020-08-25T10:41:10.000Z</time>
      </trkpt>
      <trkpt lat="44.33188" lon="3.39051">
        <ele>795.6</ele>
        <time>2020-08-25T10:41:12.000Z</time>
      </trkpt>
      <trkpt lat="44.33187" lon="3.39053">
        <ele>795.7</ele>
        <time>2020-08-25T10:41:13.000Z</time>
      </trkpt>
      <trkpt lat="44.33185" lon="3.39058">
        <ele>796</ele>
        <time>2020-08-25T10:41:15.000Z</time>
      </trkpt>
      <trkpt lat="44.33184" lon="3.3906">
        <ele>796.1</ele>
        <time>2020-08-25T10:41:16.000Z</time>
      </trkpt>
      <trkpt lat="44.33182" lon="3.39065">
        <ele>796.4</ele>
        <time>2020-08-25T10:41:18.000Z</time>
      </trkpt>
      <trkpt lat="44.3318" lon="3.3907">
        <ele>796.6</ele>
        <time>2020-08-25T10:41:20.000Z</time>
      </trkpt>
      <trkpt lat="44.33179" lon="3.39072">
        <ele>796.7</ele>
        <time>2020-08-25T10:41:21.000Z</time>
      </trkpt>
      <trkpt lat="44.33177" lon="3.39075">
        <ele>797</ele>
        <time>2020-08-25T10:41:23.000Z</time>
      </trkpt>
      <trkpt lat="44.33172" lon="3.39079">
        <ele>797.4</ele>
        <time>2020-08-25T10:41:25.000Z</time>
      </trkpt>
      <trkpt lat="44.33168" lon="3.39082">
        <ele>797.7</ele>
        <time>2020-08-25T10:41:27.000Z</time>
      </trkpt>
      <trkpt lat="44.33164" lon="3.39085">
        <ele>798</ele>
        <time>2020-08-25T10:41:29.000Z</time>
      </trkpt>
      <trkpt lat="44.3316" lon="3.39089">
        <ele>798.3</ele>
        <time>2020-08-25T10:41:31.000Z</time>
      </trkpt>
      <trkpt lat="44.33157" lon="3.39092">
        <ele>798.5</ele>
        <time>2020-08-25T10:41:33.000Z</time>
      </trkpt>
      <trkpt lat="44.33156" lon="3.39094">
        <ele>798.7</ele>
        <time>2020-08-25T10:41:34.000Z</time>
      </trkpt>
      <trkpt lat="44.33153" lon="3.39096">
        <ele>798.9</ele>
        <time>2020-08-25T10:41:36.000Z</time>
      </trkpt>
      <trkpt lat="44.3315" lon="3.39098">
        <ele>799.1</ele>
        <time>2020-08-25T10:41:38.000Z</time>
      </trkpt>
      <trkpt lat="44.33148" lon="3.39098">
        <ele>799.2</ele>
        <time>2020-08-25T10:41:39.000Z</time>
      </trkpt>
      <trkpt lat="44.33147" lon="3.39098">
        <ele>799.3</ele>
        <time>2020-08-25T10:41:40.000Z</time>
      </trkpt>
      <trkpt lat="44.33146" lon="3.39098">
        <ele>799.4</ele>
        <time>2020-08-25T10:41:42.000Z</time>
      </trkpt>
      <trkpt lat="44.33146" lon="3.39097">
        <ele>799.4</ele>
        <time>2020-08-25T10:41:43.000Z</time>
      </trkpt>
      <trkpt lat="44.33146" lon="3.39097">
        <ele>799.4</ele>
        <time>2020-08-25T10:41:45.000Z</time>
      </trkpt>
      <trkpt lat="44.33145" lon="3.39097">
        <ele>799.5</ele>
        <time>2020-08-25T10:41:46.000Z</time>
      </trkpt>
      <trkpt lat="44.33145" lon="3.39097">
        <ele>799.5</ele>
        <time>2020-08-25T10:41:47.000Z</time>
      </trkpt>
      <trkpt lat="44.33145" lon="3.39097">
        <ele>799.5</ele>
        <time>2020-08-25T10:41:49.000Z</time>
      </trkpt>
      <trkpt lat="44.33145" lon="3.39097">
        <ele>799.5</ele>
        <time>2020-08-25T10:41:50.000Z</time>
      </trkpt>
      <trkpt lat="44.33146" lon="3.39097">
        <ele>799.6</ele>
        <time>2020-08-25T10:41:52.000Z</time>
      </trkpt>
      <trkpt lat="44.33146" lon="3.39097">
        <ele>799.6</ele>
        <time>2020-08-25T10:41:53.000Z</time>
      </trkpt>
      <trkpt lat="44.33146" lon="3.39097">
        <ele>799.6</ele>
        <time>2020-08-25T10:41:55.000Z</time>
      </trkpt>
      <trkpt lat="44.33145" lon="3.39095">
        <ele>799.8</ele>
        <time>2020-08-25T10:43:33.000Z</time>
      </trkpt>
      <trkpt lat="44.33145" lon="3.39094">
        <ele>799.8</ele>
        <time>2020-08-25T10:43:34.000Z</time>
      </trkpt>
      <trkpt lat="44.33145" lon="3.39093">
        <ele>799.9</ele>
        <time>2020-08-25T10:43:36.000Z</time>
      </trkpt>
      <trkpt lat="44.33138" lon="3.39089">
        <ele>800.3</ele>
        <time>2020-08-25T10:43:38.000Z</time>
      </trkpt>
      <trkpt lat="44.33138" lon="3.39088">
        <ele>800.4</ele>
        <time>2020-08-25T10:43:39.000Z</time>
      </trkpt>
      <trkpt lat="44.33137" lon="3.39088">
        <ele>800.4</ele>
        <time>2020-08-25T10:43:40.000Z</time>
      </trkpt>
      <trkpt lat="44.33136" lon="3.39088">
        <ele>800.5</ele>
        <time>2020-08-25T10:43:42.000Z</time>
      </trkpt>
      <trkpt lat="44.33135" lon="3.39087">
        <ele>800.6</ele>
        <time>2020-08-25T10:43:43.000Z</time>
      </trkpt>
      <trkpt lat="44.33125" lon="3.3908">
        <ele>801.3</ele>
        <time>2020-08-25T10:43:45.000Z</time>
      </trkpt>
      <trkpt lat="44.33117" lon="3.39075">
        <ele>801.9</ele>
        <time>2020-08-25T10:43:47.000Z</time>
      </trkpt>
      <trkpt lat="44.33114" lon="3.39073">
        <ele>802.1</ele>
        <time>2020-08-25T10:43:49.000Z</time>
      </trkpt>
      <trkpt lat="44.3311" lon="3.39072">
        <ele>802.4</ele>
        <time>2020-08-25T10:43:51.000Z</time>
      </trkpt>
      <trkpt lat="44.33108" lon="3.39071">
        <ele>802.5</ele>
        <time>2020-08-25T10:43:52.000Z</time>
      </trkpt>
      <trkpt lat="44.33105" lon="3.39069">
        <ele>802.8</ele>
        <time>2020-08-25T10:43:54.000Z</time>
      </trkpt>
      <trkpt lat="44.33101" lon="3.39067">
        <ele>803</ele>
        <time>2020-08-25T10:43:56.000Z</time>
      </trkpt>
      <trkpt lat="44.33098" lon="3.39065">
        <ele>803.3</ele>
        <time>2020-08-25T10:43:58.000Z</time>
      </trkpt>
      <trkpt lat="44.33094" lon="3.39063">
        <ele>803.5</ele>
        <time>2020-08-25T10:44:00.000Z</time>
      </trkpt>
      <trkpt lat="44.33091" lon="3.39061">
        <ele>803.7</ele>
        <time>2020-08-25T10:44:02.000Z</time>
      </trkpt>
      <trkpt lat="44.33088" lon="3.39057">
        <ele>804</ele>
        <time>2020-08-25T10:44:04.000Z</time>
      </trkpt>
      <trkpt lat="44.33086" lon="3.39055">
        <ele>804.2</ele>
        <time>2020-08-25T10:44:05.000Z</time>
      </trkpt>
      <trkpt lat="44.33083" lon="3.39052">
        <ele>804.4</ele>
        <time>2020-08-25T10:44:07.000Z</time>
      </trkpt>
      <trkpt lat="44.33081" lon="3.39049">
        <ele>804.6</ele>
        <time>2020-08-25T10:44:08.000Z</time>
      </trkpt>
      <trkpt lat="44.3308" lon="3.39048">
        <ele>804.7</ele>
        <time>2020-08-25T10:44:09.000Z</time>
      </trkpt>
      <trkpt lat="44.33079" lon="3.39046">
        <ele>804.8</ele>
        <time>2020-08-25T10:44:10.000Z</time>
      </trkpt>
      <trkpt lat="44.33076" lon="3.39042">
        <ele>805.1</ele>
        <time>2020-08-25T10:44:12.000Z</time>
      </trkpt>
      <trkpt lat="44.33075" lon="3.39038">
        <ele>805.3</ele>
        <time>2020-08-25T10:44:13.000Z</time>
      </trkpt>
      <trkpt lat="44.33074" lon="3.39037">
        <ele>805.3</ele>
        <time>2020-08-25T10:44:14.000Z</time>
      </trkpt>
      <trkpt lat="44.33072" lon="3.39033">
        <ele>805.6</ele>
        <time>2020-08-25T10:44:16.000Z</time>
      </trkpt>
      <trkpt lat="44.33071" lon="3.39031">
        <ele>805.7</ele>
        <time>2020-08-25T10:44:17.000Z</time>
      </trkpt>
      <trkpt lat="44.33069" lon="3.39028">
        <ele>805.9</ele>
        <time>2020-08-25T10:44:19.000Z</time>
      </trkpt>
      <trkpt lat="44.33067" lon="3.39023">
        <ele>806.2</ele>
        <time>2020-08-25T10:44:21.000Z</time>
      </trkpt>
      <trkpt lat="44.33065" lon="3.3902">
        <ele>806.4</ele>
        <time>2020-08-25T10:44:23.000Z</time>
      </trkpt>
      <trkpt lat="44.33064" lon="3.39018">
        <ele>806.5</ele>
        <time>2020-08-25T10:44:24.000Z</time>
      </trkpt>
      <trkpt lat="44.33063" lon="3.39016">
        <ele>806.6</ele>
        <time>2020-08-25T10:44:25.000Z</time>
      </trkpt>
      <trkpt lat="44.33062" lon="3.39013">
        <ele>806.7</ele>
        <time>2020-08-25T10:44:26.000Z</time>
      </trkpt>
      <trkpt lat="44.3306" lon="3.3901">
        <ele>807</ele>
        <time>2020-08-25T10:44:28.000Z</time>
      </trkpt>
      <trkpt lat="44.33058" lon="3.39006">
        <ele>807.2</ele>
        <time>2020-08-25T10:44:30.000Z</time>
      </trkpt>
      <trkpt lat="44.33055" lon="3.39001">
        <ele>807.5</ele>
        <time>2020-08-25T10:44:32.000Z</time>
      </trkpt>
      <trkpt lat="44.33054" lon="3.38999">
        <ele>807.6</ele>
        <time>2020-08-25T10:44:33.000Z</time>
      </trkpt>
      <trkpt lat="44.33052" lon="3.38995">
        <ele>807.8</ele>
        <time>2020-08-25T10:44:35.000Z</time>
      </trkpt>
      <trkpt lat="44.3305" lon="3.38991">
        <ele>808.1</ele>
        <time>2020-08-25T10:44:37.000Z</time>
      </trkpt>
      <trkpt lat="44.33049" lon="3.38989">
        <ele>808.2</ele>
        <time>2020-08-25T10:44:38.000Z</time>
      </trkpt>
      <trkpt lat="44.33047" lon="3.38985">
        <ele>808.4</ele>
        <time>2020-08-25T10:44:40.000Z</time>
      </trkpt>
      <trkpt lat="44.33045" lon="3.38983">
        <ele>808.6</ele>
        <time>2020-08-25T10:44:41.000Z</time>
      </trkpt>
      <trkpt lat="44.33043" lon="3.38979">
        <ele>808.8</ele>
        <time>2020-08-25T10:44:43.000Z</time>
      </trkpt>
      <trkpt lat="44.33041" lon="3.38974">
        <ele>809.1</ele>
        <time>2020-08-25T10:44:45.000Z</time>
      </trkpt>
      <trkpt lat="44.33039" lon="3.38971">
        <ele>809.3</ele>
        <time>2020-08-25T10:44:47.000Z</time>
      </trkpt>
      <trkpt lat="44.33038" lon="3.38969">
        <ele>809.4</ele>
        <time>2020-08-25T10:44:48.000Z</time>
      </trkpt>
      <trkpt lat="44.33036" lon="3.38964">
        <ele>809.7</ele>
        <time>2020-08-25T10:44:50.000Z</time>
      </trkpt>
      <trkpt lat="44.33034" lon="3.3896">
        <ele>809.9</ele>
        <time>2020-08-25T10:44:52.000Z</time>
      </trkpt>
      <trkpt lat="44.33033" lon="3.38957">
        <ele>810</ele>
        <time>2020-08-25T10:44:53.000Z</time>
      </trkpt>
      <trkpt lat="44.33032" lon="3.38952">
        <ele>810.3</ele>
        <time>2020-08-25T10:44:55.000Z</time>
      </trkpt>
      <trkpt lat="44.33031" lon="3.38949">
        <ele>810.4</ele>
        <time>2020-08-25T10:44:56.000Z</time>
      </trkpt>
      <trkpt lat="44.33029" lon="3.38945">
        <ele>810.7</ele>
        <time>2020-08-25T10:44:58.000Z</time>
      </trkpt>
      <trkpt lat="44.33028" lon="3.38942">
        <ele>810.8</ele>
        <time>2020-08-25T10:44:59.000Z</time>
      </trkpt>
      <trkpt lat="44.33027" lon="3.38937">
        <ele>811.1</ele>
        <time>2020-08-25T10:45:01.000Z</time>
      </trkpt>
      <trkpt lat="44.33026" lon="3.38931">
        <ele>811.4</ele>
        <time>2020-08-25T10:45:03.000Z</time>
      </trkpt>
      <trkpt lat="44.33025" lon="3.38924">
        <ele>811.7</ele>
        <time>2020-08-25T10:45:05.000Z</time>
      </trkpt>
      <trkpt lat="44.33024" lon="3.38921">
        <ele>811.9</ele>
        <time>2020-08-25T10:45:07.000Z</time>
      </trkpt>
      <trkpt lat="44.33023" lon="3.38915">
        <ele>812.2</ele>
        <time>2020-08-25T10:45:09.000Z</time>
      </trkpt>
      <trkpt lat="44.33022" lon="3.38911">
        <ele>812.4</ele>
        <time>2020-08-25T10:45:10.000Z</time>
      </trkpt>
      <trkpt lat="44.33021" lon="3.38909">
        <ele>812.5</ele>
        <time>2020-08-25T10:45:11.000Z</time>
      </trkpt>
      <trkpt lat="44.3302" lon="3.38903">
        <ele>812.7</ele>
        <time>2020-08-25T10:45:13.000Z</time>
      </trkpt>
      <trkpt lat="44.33019" lon="3.38902">
        <ele>812.8</ele>
        <time>2020-08-25T10:45:14.000Z</time>
      </trkpt>
      <trkpt lat="44.33019" lon="3.389">
        <ele>812.9</ele>
        <time>2020-08-25T10:45:15.000Z</time>
      </trkpt>
      <trkpt lat="44.33018" lon="3.38895">
        <ele>813.2</ele>
        <time>2020-08-25T10:45:17.000Z</time>
      </trkpt>
      <trkpt lat="44.33016" lon="3.3889">
        <ele>813.4</ele>
        <time>2020-08-25T10:45:19.000Z</time>
      </trkpt>
      <trkpt lat="44.33015" lon="3.38885">
        <ele>813.7</ele>
        <time>2020-08-25T10:45:21.000Z</time>
      </trkpt>
      <trkpt lat="44.33015" lon="3.38881">
        <ele>813.9</ele>
        <time>2020-08-25T10:45:22.000Z</time>
      </trkpt>
      <trkpt lat="44.33015" lon="3.3888">
        <ele>813.9</ele>
        <time>2020-08-25T10:45:23.000Z</time>
      </trkpt>
      <trkpt lat="44.33014" lon="3.38877">
        <ele>814.1</ele>
        <time>2020-08-25T10:45:24.000Z</time>
      </trkpt>
      <trkpt lat="44.33013" lon="3.38872">
        <ele>814.3</ele>
        <time>2020-08-25T10:45:26.000Z</time>
      </trkpt>
      <trkpt lat="44.33012" lon="3.38867">
        <ele>814.6</ele>
        <time>2020-08-25T10:45:28.000Z</time>
      </trkpt>
      <trkpt lat="44.3301" lon="3.38862">
        <ele>814.8</ele>
        <time>2020-08-25T10:45:30.000Z</time>
      </trkpt>
      <trkpt lat="44.33009" lon="3.38859">
        <ele>815</ele>
        <time>2020-08-25T10:45:31.000Z</time>
      </trkpt>
      <trkpt lat="44.33008" lon="3.38854">
        <ele>815.2</ele>
        <time>2020-08-25T10:45:33.000Z</time>
      </trkpt>
      <trkpt lat="44.33007" lon="3.38849">
        <ele>815.5</ele>
        <time>2020-08-25T10:45:35.000Z</time>
      </trkpt>
      <trkpt lat="44.33006" lon="3.38847">
        <ele>815.6</ele>
        <time>2020-08-25T10:45:36.000Z</time>
      </trkpt>
      <trkpt lat="44.33005" lon="3.38845">
        <ele>815.7</ele>
        <time>2020-08-25T10:45:37.000Z</time>
      </trkpt>
      <trkpt lat="44.33004" lon="3.3884">
        <ele>815.9</ele>
        <time>2020-08-25T10:45:39.000Z</time>
      </trkpt>
      <trkpt lat="44.33002" lon="3.38835">
        <ele>816.2</ele>
        <time>2020-08-25T10:45:41.000Z</time>
      </trkpt>
      <trkpt lat="44.33" lon="3.3883">
        <ele>816.5</ele>
        <time>2020-08-25T10:45:43.000Z</time>
      </trkpt>
      <trkpt lat="44.32999" lon="3.38828">
        <ele>816.6</ele>
        <time>2020-08-25T10:45:44.000Z</time>
      </trkpt>
      <trkpt lat="44.32997" lon="3.38824">
        <ele>816.8</ele>
        <time>2020-08-25T10:45:46.000Z</time>
      </trkpt>
      <trkpt lat="44.32997" lon="3.38822">
        <ele>817</ele>
        <time>2020-08-25T10:45:47.000Z</time>
      </trkpt>
      <trkpt lat="44.32995" lon="3.38817">
        <ele>817.2</ele>
        <time>2020-08-25T10:45:49.000Z</time>
      </trkpt>
      <trkpt lat="44.32994" lon="3.38815">
        <ele>817.3</ele>
        <time>2020-08-25T10:45:50.000Z</time>
      </trkpt>
      <trkpt lat="44.32993" lon="3.38813">
        <ele>817.4</ele>
        <time>2020-08-25T10:45:51.000Z</time>
      </trkpt>
      <trkpt lat="44.32991" lon="3.38809">
        <ele>817.6</ele>
        <time>2020-08-25T10:45:53.000Z</time>
      </trkpt>
      <trkpt lat="44.3299" lon="3.38807">
        <ele>817.8</ele>
        <time>2020-08-25T10:45:54.000Z</time>
      </trkpt>
      <trkpt lat="44.32988" lon="3.38804">
        <ele>818</ele>
        <time>2020-08-25T10:45:56.000Z</time>
      </trkpt>
      <trkpt lat="44.32986" lon="3.38801">
        <ele>818.2</ele>
        <time>2020-08-25T10:45:57.000Z</time>
      </trkpt>
      <trkpt lat="44.32985" lon="3.388">
        <ele>818.2</ele>
        <time>2020-08-25T10:45:58.000Z</time>
      </trkpt>
      <trkpt lat="44.32983" lon="3.38797">
        <ele>818.4</ele>
        <time>2020-08-25T10:46:00.000Z</time>
      </trkpt>
      <trkpt lat="44.32982" lon="3.38795">
        <ele>818.6</ele>
        <time>2020-08-25T10:46:01.000Z</time>
      </trkpt>
      <trkpt lat="44.32979" lon="3.38791">
        <ele>818.8</ele>
        <time>2020-08-25T10:46:03.000Z</time>
      </trkpt>
      <trkpt lat="44.32977" lon="3.38787">
        <ele>819.1</ele>
        <time>2020-08-25T10:46:05.000Z</time>
      </trkpt>
      <trkpt lat="44.32976" lon="3.38785">
        <ele>819.2</ele>
        <time>2020-08-25T10:46:06.000Z</time>
      </trkpt>
      <trkpt lat="44.32973" lon="3.38782">
        <ele>819.4</ele>
        <time>2020-08-25T10:46:08.000Z</time>
      </trkpt>
      <trkpt lat="44.32971" lon="3.38779">
        <ele>819.6</ele>
        <time>2020-08-25T10:46:10.000Z</time>
      </trkpt>
      <trkpt lat="44.32968" lon="3.38774">
        <ele>819.9</ele>
        <time>2020-08-25T10:46:12.000Z</time>
      </trkpt>
      <trkpt lat="44.32965" lon="3.3877">
        <ele>820.2</ele>
        <time>2020-08-25T10:46:14.000Z</time>
      </trkpt>
      <trkpt lat="44.32963" lon="3.38768">
        <ele>820.3</ele>
        <time>2020-08-25T10:46:15.000Z</time>
      </trkpt>
      <trkpt lat="44.32961" lon="3.38765">
        <ele>820.6</ele>
        <time>2020-08-25T10:46:17.000Z</time>
      </trkpt>
      <trkpt lat="44.3296" lon="3.38764">
        <ele>820.6</ele>
        <time>2020-08-25T10:46:18.000Z</time>
      </trkpt>
      <trkpt lat="44.32958" lon="3.38762">
        <ele>820.8</ele>
        <time>2020-08-25T10:46:19.000Z</time>
      </trkpt>
      <trkpt lat="44.32955" lon="3.3876">
        <ele>821</ele>
        <time>2020-08-25T10:46:21.000Z</time>
      </trkpt>
      <trkpt lat="44.32954" lon="3.38758">
        <ele>821.2</ele>
        <time>2020-08-25T10:46:22.000Z</time>
      </trkpt>
      <trkpt lat="44.32952" lon="3.38753">
        <ele>821.4</ele>
        <time>2020-08-25T10:46:24.000Z</time>
      </trkpt>
      <trkpt lat="44.32951" lon="3.38751">
        <ele>821.5</ele>
        <time>2020-08-25T10:46:25.000Z</time>
      </trkpt>
      <trkpt lat="44.32948" lon="3.38747">
        <ele>821.8</ele>
        <time>2020-08-25T10:46:27.000Z</time>
      </trkpt>
      <trkpt lat="44.32946" lon="3.38743">
        <ele>822</ele>
        <time>2020-08-25T10:46:28.000Z</time>
      </trkpt>
      <trkpt lat="44.32946" lon="3.38742">
        <ele>822.1</ele>
        <time>2020-08-25T10:46:29.000Z</time>
      </trkpt>
      <trkpt lat="44.32945" lon="3.38736">
        <ele>822.4</ele>
        <time>2020-08-25T10:46:31.000Z</time>
      </trkpt>
      <trkpt lat="44.32944" lon="3.3873">
        <ele>822.6</ele>
        <time>2020-08-25T10:46:33.000Z</time>
      </trkpt>
      <trkpt lat="44.32944" lon="3.38724">
        <ele>822.9</ele>
        <time>2020-08-25T10:46:35.000Z</time>
      </trkpt>
      <trkpt lat="44.32944" lon="3.3872">
        <ele>823.1</ele>
        <time>2020-08-25T10:46:36.000Z</time>
      </trkpt>
      <trkpt lat="44.32944" lon="3.38718">
        <ele>823.2</ele>
        <time>2020-08-25T10:46:37.000Z</time>
      </trkpt>
      <trkpt lat="44.32945" lon="3.38712">
        <ele>823.5</ele>
        <time>2020-08-25T10:46:39.000Z</time>
      </trkpt>
      <trkpt lat="44.32946" lon="3.38707">
        <ele>823.7</ele>
        <time>2020-08-25T10:46:40.000Z</time>
      </trkpt>
      <trkpt lat="44.32946" lon="3.38706">
        <ele>823.8</ele>
        <time>2020-08-25T10:46:41.000Z</time>
      </trkpt>
      <trkpt lat="44.32948" lon="3.387">
        <ele>824.1</ele>
        <time>2020-08-25T10:46:43.000Z</time>
      </trkpt>
      <trkpt lat="44.32949" lon="3.38695">
        <ele>824.4</ele>
        <time>2020-08-25T10:46:45.000Z</time>
      </trkpt>
      <trkpt lat="44.32951" lon="3.38689">
        <ele>824.7</ele>
        <time>2020-08-25T10:46:47.000Z</time>
      </trkpt>
      <trkpt lat="44.32952" lon="3.38686">
        <ele>824.8</ele>
        <time>2020-08-25T10:46:48.000Z</time>
      </trkpt>
      <trkpt lat="44.32953" lon="3.38681">
        <ele>825.1</ele>
        <time>2020-08-25T10:46:50.000Z</time>
      </trkpt>
      <trkpt lat="44.32953" lon="3.38676">
        <ele>825.3</ele>
        <time>2020-08-25T10:46:51.000Z</time>
      </trkpt>
      <trkpt lat="44.32954" lon="3.38672">
        <ele>825.5</ele>
        <time>2020-08-25T10:46:52.000Z</time>
      </trkpt>
      <trkpt lat="44.32954" lon="3.38671">
        <ele>825.6</ele>
        <time>2020-08-25T10:46:53.000Z</time>
      </trkpt>
      <trkpt lat="44.32954" lon="3.38665">
        <ele>825.9</ele>
        <time>2020-08-25T10:46:55.000Z</time>
      </trkpt>
      <trkpt lat="44.32954" lon="3.38659">
        <ele>826.2</ele>
        <time>2020-08-25T10:46:57.000Z</time>
      </trkpt>
      <trkpt lat="44.32954" lon="3.38656">
        <ele>826.3</ele>
        <time>2020-08-25T10:46:58.000Z</time>
      </trkpt>
      <trkpt lat="44.32952" lon="3.38652">
        <ele>826.5</ele>
        <time>2020-08-25T10:47:00.000Z</time>
      </trkpt>
      <trkpt lat="44.32952" lon="3.3865">
        <ele>826.6</ele>
        <time>2020-08-25T10:47:01.000Z</time>
      </trkpt>
      <trkpt lat="44.32949" lon="3.38646">
        <ele>826.9</ele>
        <time>2020-08-25T10:47:03.000Z</time>
      </trkpt>
      <trkpt lat="44.32947" lon="3.38643">
        <ele>827.1</ele>
        <time>2020-08-25T10:47:04.000Z</time>
      </trkpt>
      <trkpt lat="44.32945" lon="3.3864">
        <ele>827.3</ele>
        <time>2020-08-25T10:47:06.000Z</time>
      </trkpt>
      <trkpt lat="44.32942" lon="3.38637">
        <ele>827.5</ele>
        <time>2020-08-25T10:47:08.000Z</time>
      </trkpt>
      <trkpt lat="44.32941" lon="3.38635">
        <ele>827.6</ele>
        <time>2020-08-25T10:47:09.000Z</time>
      </trkpt>
      <trkpt lat="44.32939" lon="3.38631">
        <ele>827.8</ele>
        <time>2020-08-25T10:47:11.000Z</time>
      </trkpt>
      <trkpt lat="44.32938" lon="3.38628">
        <ele>828</ele>
        <time>2020-08-25T10:47:12.000Z</time>
      </trkpt>
      <trkpt lat="44.32937" lon="3.38626">
        <ele>828.1</ele>
        <time>2020-08-25T10:47:13.000Z</time>
      </trkpt>
      <trkpt lat="44.32936" lon="3.38624">
        <ele>828.2</ele>
        <time>2020-08-25T10:47:14.000Z</time>
      </trkpt>
      <trkpt lat="44.32934" lon="3.3862">
        <ele>828.4</ele>
        <time>2020-08-25T10:47:16.000Z</time>
      </trkpt>
      <trkpt lat="44.32933" lon="3.38616">
        <ele>828.7</ele>
        <time>2020-08-25T10:47:18.000Z</time>
      </trkpt>
      <trkpt lat="44.32932" lon="3.38613">
        <ele>828.8</ele>
        <time>2020-08-25T10:47:20.000Z</time>
      </trkpt>
      <trkpt lat="44.3293" lon="3.38608">
        <ele>829.1</ele>
        <time>2020-08-25T10:47:22.000Z</time>
      </trkpt>
      <trkpt lat="44.32928" lon="3.38605">
        <ele>829.3</ele>
        <time>2020-08-25T10:47:23.000Z</time>
      </trkpt>
      <trkpt lat="44.32928" lon="3.38604">
        <ele>829.3</ele>
        <time>2020-08-25T10:47:24.000Z</time>
      </trkpt>
      <trkpt lat="44.32926" lon="3.38599">
        <ele>829.6</ele>
        <time>2020-08-25T10:47:26.000Z</time>
      </trkpt>
      <trkpt lat="44.32926" lon="3.38595">
        <ele>829.8</ele>
        <time>2020-08-25T10:47:28.000Z</time>
      </trkpt>
      <trkpt lat="44.32925" lon="3.38593">
        <ele>829.9</ele>
        <time>2020-08-25T10:47:29.000Z</time>
      </trkpt>
      <trkpt lat="44.32924" lon="3.38591">
        <ele>830</ele>
        <time>2020-08-25T10:47:30.000Z</time>
      </trkpt>
      <trkpt lat="44.32922" lon="3.38586">
        <ele>830.2</ele>
        <time>2020-08-25T10:47:32.000Z</time>
      </trkpt>
      <trkpt lat="44.32921" lon="3.38584">
        <ele>830.4</ele>
        <time>2020-08-25T10:47:33.000Z</time>
      </trkpt>
      <trkpt lat="44.32921" lon="3.38582">
        <ele>830.5</ele>
        <time>2020-08-25T10:47:34.000Z</time>
      </trkpt>
      <trkpt lat="44.3292" lon="3.3858">
        <ele>830.6</ele>
        <time>2020-08-25T10:47:35.000Z</time>
      </trkpt>
      <trkpt lat="44.32919" lon="3.38575">
        <ele>830.8</ele>
        <time>2020-08-25T10:47:37.000Z</time>
      </trkpt>
      <trkpt lat="44.32918" lon="3.3857">
        <ele>831.1</ele>
        <time>2020-08-25T10:47:39.000Z</time>
      </trkpt>
      <trkpt lat="44.32917" lon="3.38567">
        <ele>831.2</ele>
        <time>2020-08-25T10:47:40.000Z</time>
      </trkpt>
      <trkpt lat="44.32916" lon="3.38563">
        <ele>831.4</ele>
        <time>2020-08-25T10:47:42.000Z</time>
      </trkpt>
      <trkpt lat="44.32915" lon="3.38558">
        <ele>831.7</ele>
        <time>2020-08-25T10:47:44.000Z</time>
      </trkpt>
      <trkpt lat="44.32913" lon="3.38554">
        <ele>831.9</ele>
        <time>2020-08-25T10:47:46.000Z</time>
      </trkpt>
      <trkpt lat="44.32912" lon="3.38549">
        <ele>832.1</ele>
        <time>2020-08-25T10:47:48.000Z</time>
      </trkpt>
      <trkpt lat="44.32911" lon="3.38547">
        <ele>832.3</ele>
        <time>2020-08-25T10:47:49.000Z</time>
      </trkpt>
      <trkpt lat="44.32911" lon="3.38542">
        <ele>832.5</ele>
        <time>2020-08-25T10:47:51.000Z</time>
      </trkpt>
      <trkpt lat="44.32911" lon="3.38538">
        <ele>832.7</ele>
        <time>2020-08-25T10:47:52.000Z</time>
      </trkpt>
      <trkpt lat="44.3291" lon="3.38537">
        <ele>832.8</ele>
        <time>2020-08-25T10:47:53.000Z</time>
      </trkpt>
      <trkpt lat="44.3291" lon="3.3853">
        <ele>833.1</ele>
        <time>2020-08-25T10:47:55.000Z</time>
      </trkpt>
      <trkpt lat="44.3291" lon="3.38529">
        <ele>833.1</ele>
        <time>2020-08-25T10:47:56.000Z</time>
      </trkpt>
      <trkpt lat="44.32909" lon="3.38527">
        <ele>833.2</ele>
        <time>2020-08-25T10:47:57.000Z</time>
      </trkpt>
      <trkpt lat="44.32909" lon="3.38522">
        <ele>833.5</ele>
        <time>2020-08-25T10:47:59.000Z</time>
      </trkpt>
      <trkpt lat="44.32909" lon="3.38515">
        <ele>833.8</ele>
        <time>2020-08-25T10:48:01.000Z</time>
      </trkpt>
      <trkpt lat="44.32909" lon="3.38514">
        <ele>833.9</ele>
        <time>2020-08-25T10:48:02.000Z</time>
      </trkpt>
      <trkpt lat="44.32909" lon="3.38512">
        <ele>833.9</ele>
        <time>2020-08-25T10:48:03.000Z</time>
      </trkpt>
      <trkpt lat="44.32909" lon="3.38508">
        <ele>834.1</ele>
        <time>2020-08-25T10:48:04.000Z</time>
      </trkpt>
      <trkpt lat="44.32909" lon="3.38507">
        <ele>834.2</ele>
        <time>2020-08-25T10:48:05.000Z</time>
      </trkpt>
      <trkpt lat="44.32909" lon="3.38501">
        <ele>834.4</ele>
        <time>2020-08-25T10:48:07.000Z</time>
      </trkpt>
      <trkpt lat="44.3291" lon="3.38497">
        <ele>834.7</ele>
        <time>2020-08-25T10:48:08.000Z</time>
      </trkpt>
      <trkpt lat="44.32911" lon="3.38496">
        <ele>834.7</ele>
        <time>2020-08-25T10:48:09.000Z</time>
      </trkpt>
      <trkpt lat="44.32912" lon="3.3849">
        <ele>835</ele>
        <time>2020-08-25T10:48:11.000Z</time>
      </trkpt>
      <trkpt lat="44.32913" lon="3.38486">
        <ele>835.2</ele>
        <time>2020-08-25T10:48:12.000Z</time>
      </trkpt>
      <trkpt lat="44.32913" lon="3.38485">
        <ele>835.3</ele>
        <time>2020-08-25T10:48:13.000Z</time>
      </trkpt>
      <trkpt lat="44.32915" lon="3.38481">
        <ele>835.5</ele>
        <time>2020-08-25T10:48:14.000Z</time>
      </trkpt>
      <trkpt lat="44.32915" lon="3.38479">
        <ele>835.6</ele>
        <time>2020-08-25T10:48:15.000Z</time>
      </trkpt>
      <trkpt lat="44.32917" lon="3.38474">
        <ele>835.8</ele>
        <time>2020-08-25T10:48:17.000Z</time>
      </trkpt>
      <trkpt lat="44.32919" lon="3.38469">
        <ele>836.1</ele>
        <time>2020-08-25T10:48:19.000Z</time>
      </trkpt>
      <trkpt lat="44.32921" lon="3.38465">
        <ele>836.3</ele>
        <time>2020-08-25T10:48:20.000Z</time>
      </trkpt>
      <trkpt lat="44.32921" lon="3.38464">
        <ele>836.4</ele>
        <time>2020-08-25T10:48:21.000Z</time>
      </trkpt>
      <trkpt lat="44.32923" lon="3.38459">
        <ele>836.7</ele>
        <time>2020-08-25T10:48:23.000Z</time>
      </trkpt>
      <trkpt lat="44.32924" lon="3.38457">
        <ele>836.8</ele>
        <time>2020-08-25T10:48:24.000Z</time>
      </trkpt>
      <trkpt lat="44.32925" lon="3.38453">
        <ele>837</ele>
        <time>2020-08-25T10:48:26.000Z</time>
      </trkpt>
      <trkpt lat="44.32925" lon="3.38448">
        <ele>837.2</ele>
        <time>2020-08-25T10:48:28.000Z</time>
      </trkpt>
      <trkpt lat="44.32925" lon="3.38444">
        <ele>837.4</ele>
        <time>2020-08-25T10:48:30.000Z</time>
      </trkpt>
      <trkpt lat="44.32925" lon="3.38442">
        <ele>837.5</ele>
        <time>2020-08-25T10:48:31.000Z</time>
      </trkpt>
      <trkpt lat="44.32925" lon="3.3844">
        <ele>837.6</ele>
        <time>2020-08-25T10:48:32.000Z</time>
      </trkpt>
      <trkpt lat="44.32925" lon="3.38436">
        <ele>826.1</ele>
        <time>2020-08-25T10:48:34.000Z</time>
      </trkpt>
      <trkpt lat="44.32925" lon="3.38433">
        <ele>821.1</ele>
        <time>2020-08-25T10:48:35.000Z</time>
      </trkpt>
      <trkpt lat="44.32926" lon="3.38432">
        <ele>817.5</ele>
        <time>2020-08-25T10:48:36.000Z</time>
      </trkpt>
      <trkpt lat="44.32926" lon="3.38428">
        <ele>809</ele>
        <time>2020-08-25T10:48:38.000Z</time>
      </trkpt>
      <trkpt lat="44.32926" lon="3.38427">
        <ele>808.6</ele>
        <time>2020-08-25T10:48:39.000Z</time>
      </trkpt>
      <trkpt lat="44.32926" lon="3.38427">
        <ele>808.7</ele>
        <time>2020-08-25T10:48:40.000Z</time>
      </trkpt>
      <trkpt lat="44.32926" lon="3.38427">
        <ele>808.8</ele>
        <time>2020-08-25T10:48:41.000Z</time>
      </trkpt>
      <trkpt lat="44.32927" lon="3.38427">
        <ele>808.9</ele>
        <time>2020-08-25T10:48:43.000Z</time>
      </trkpt>
      <trkpt lat="44.32926" lon="3.38426">
        <ele>809.3</ele>
        <time>2020-08-25T10:48:44.000Z</time>
      </trkpt>
      <trkpt lat="44.32925" lon="3.38425">
        <ele>809.8</ele>
        <time>2020-08-25T10:48:46.000Z</time>
      </trkpt>
      <trkpt lat="44.32925" lon="3.38425">
        <ele>809.9</ele>
        <time>2020-08-25T10:48:47.000Z</time>
      </trkpt>
      <trkpt lat="44.32925" lon="3.38425">
        <ele>810</ele>
        <time>2020-08-25T10:48:49.000Z</time>
      </trkpt>
      <trkpt lat="44.32925" lon="3.38424">
        <ele>810.2</ele>
        <time>2020-08-25T10:48:51.000Z</time>
      </trkpt>
      <trkpt lat="44.32925" lon="3.38424">
        <ele>810.3</ele>
        <time>2020-08-25T10:48:52.000Z</time>
      </trkpt>
      <trkpt lat="44.32926" lon="3.38424">
        <ele>810.6</ele>
        <time>2020-08-25T10:48:54.000Z</time>
      </trkpt>
      <trkpt lat="44.32926" lon="3.38425">
        <ele>810.7</ele>
        <time>2020-08-25T10:48:56.000Z</time>
      </trkpt>
      <trkpt lat="44.32932" lon="3.38422">
        <ele>813.7</ele>
        <time>2020-08-25T10:51:39.000Z</time>
      </trkpt>
      <trkpt lat="44.32933" lon="3.38423">
        <ele>814.2</ele>
        <time>2020-08-25T10:51:40.000Z</time>
      </trkpt>
      <trkpt lat="44.32935" lon="3.38425">
        <ele>815.2</ele>
        <time>2020-08-25T10:51:42.000Z</time>
      </trkpt>
      <trkpt lat="44.32937" lon="3.38427">
        <ele>816.1</ele>
        <time>2020-08-25T10:51:43.000Z</time>
      </trkpt>
      <trkpt lat="44.32938" lon="3.38427">
        <ele>816.6</ele>
        <time>2020-08-25T10:51:45.000Z</time>
      </trkpt>
      <trkpt lat="44.32938" lon="3.38429">
        <ele>817</ele>
        <time>2020-08-25T10:51:47.000Z</time>
      </trkpt>
      <trkpt lat="44.32938" lon="3.38429">
        <ele>817.3</ele>
        <time>2020-08-25T10:51:48.000Z</time>
      </trkpt>
      <trkpt lat="44.32938" lon="3.3843">
        <ele>817.5</ele>
        <time>2020-08-25T10:51:49.000Z</time>
      </trkpt>
      <trkpt lat="44.32938" lon="3.38431">
        <ele>817.8</ele>
        <time>2020-08-25T10:51:51.000Z</time>
      </trkpt>
      <trkpt lat="44.32938" lon="3.38431">
        <ele>817.9</ele>
        <time>2020-08-25T10:51:52.000Z</time>
      </trkpt>
      <trkpt lat="44.32938" lon="3.38432">
        <ele>818</ele>
        <time>2020-08-25T10:51:54.000Z</time>
      </trkpt>
      <trkpt lat="44.32939" lon="3.38432">
        <ele>818.2</ele>
        <time>2020-08-25T10:51:56.000Z</time>
      </trkpt>
      <trkpt lat="44.32941" lon="3.3843">
        <ele>819.4</ele>
        <time>2020-08-25T10:55:30.000Z</time>
      </trkpt>
      <trkpt lat="44.32939" lon="3.38429">
        <ele>820.1</ele>
        <time>2020-08-25T10:55:32.000Z</time>
      </trkpt>
      <trkpt lat="44.32938" lon="3.3843">
        <ele>820.8</ele>
        <time>2020-08-25T10:55:34.000Z</time>
      </trkpt>
      <trkpt lat="44.32937" lon="3.3843">
        <ele>821.2</ele>
        <time>2020-08-25T10:55:36.000Z</time>
      </trkpt>
      <trkpt lat="44.32937" lon="3.38431">
        <ele>821.3</ele>
        <time>2020-08-25T10:55:38.000Z</time>
      </trkpt>
      <trkpt lat="44.32937" lon="3.38431">
        <ele>821.3</ele>
        <time>2020-08-25T10:55:39.000Z</time>
      </trkpt>
      <trkpt lat="44.32937" lon="3.38431">
        <ele>821.5</ele>
        <time>2020-08-25T10:55:41.000Z</time>
      </trkpt>
      <trkpt lat="44.32937" lon="3.38431">
        <ele>821.6</ele>
        <time>2020-08-25T10:55:42.000Z</time>
      </trkpt>
      <trkpt lat="44.32937" lon="3.38431">
        <ele>821.8</ele>
        <time>2020-08-25T10:55:44.000Z</time>
      </trkpt>
      <trkpt lat="44.32928" lon="3.38426">
        <ele>826.1</ele>
        <time>2020-08-25T11:00:04.000Z</time>
      </trkpt>
      <trkpt lat="44.32928" lon="3.38425">
        <ele>826.3</ele>
        <time>2020-08-25T11:00:06.000Z</time>
      </trkpt>
      <trkpt lat="44.32928" lon="3.38426">
        <ele>826.4</ele>
        <time>2020-08-25T11:00:09.000Z</time>
      </trkpt>
      <trkpt lat="44.32928" lon="3.38426">
        <ele>826.5</ele>
        <time>2020-08-25T11:00:11.000Z</time>
      </trkpt>
      <trkpt lat="44.32928" lon="3.38426">
        <ele>826.5</ele>
        <time>2020-08-25T11:00:12.000Z</time>
      </trkpt>
      <trkpt lat="44.32928" lon="3.38426">
        <ele>826.5</ele>
        <time>2020-08-25T11:00:14.000Z</time>
      </trkpt>
      <trkpt lat="44.32928" lon="3.38426">
        <ele>826.6</ele>
        <time>2020-08-25T11:00:15.000Z</time>
      </trkpt>
      <trkpt lat="44.32928" lon="3.38426">
        <ele>826.7</ele>
        <time>2020-08-25T11:00:16.000Z</time>
      </trkpt>
      <trkpt lat="44.32928" lon="3.38425">
        <ele>826.8</ele>
        <time>2020-08-25T11:00:18.000Z</time>
      </trkpt>
      <trkpt lat="44.32927" lon="3.38425">
        <ele>826.8</ele>
        <time>2020-08-25T11:00:19.000Z</time>
      </trkpt>
      <trkpt lat="44.32927" lon="3.38425">
        <ele>827</ele>
        <time>2020-08-25T11:00:20.000Z</time>
      </trkpt>
      <trkpt lat="44.32927" lon="3.38425">
        <ele>827.2</ele>
        <time>2020-08-25T11:00:21.000Z</time>
      </trkpt>
      <trkpt lat="44.32926" lon="3.38425">
        <ele>827.4</ele>
        <time>2020-08-25T11:00:23.000Z</time>
      </trkpt>
      <trkpt lat="44.32926" lon="3.38425">
        <ele>827.5</ele>
        <time>2020-08-25T11:00:25.000Z</time>
      </trkpt>
      <trkpt lat="44.32926" lon="3.38425">
        <ele>827.6</ele>
        <time>2020-08-25T11:00:27.000Z</time>
      </trkpt>
      <trkpt lat="44.32926" lon="3.38425">
        <ele>827.6</ele>
        <time>2020-08-25T11:00:29.000Z</time>
      </trkpt>
      <trkpt lat="44.32926" lon="3.38425">
        <ele>827.7</ele>
        <time>2020-08-25T11:00:30.000Z</time>
      </trkpt>
      <trkpt lat="44.32926" lon="3.38425">
        <ele>827.8</ele>
        <time>2020-08-25T11:00:32.000Z</time>
      </trkpt>
      <trkpt lat="44.32927" lon="3.38426">
        <ele>827.9</ele>
        <time>2020-08-25T11:00:34.000Z</time>
      </trkpt>
      <trkpt lat="44.32927" lon="3.38426">
        <ele>828</ele>
        <time>2020-08-25T11:00:36.000Z</time>
      </trkpt>
      <trkpt lat="44.32927" lon="3.38426">
        <ele>828.1</ele>
        <time>2020-08-25T11:00:38.000Z</time>
      </trkpt>
      <trkpt lat="44.32927" lon="3.38426">
        <ele>828.2</ele>
        <time>2020-08-25T11:00:39.000Z</time>
      </trkpt>
      <trkpt lat="44.32927" lon="3.38427">
        <ele>828.3</ele>
        <time>2020-08-25T11:00:41.000Z</time>
      </trkpt>
      <trkpt lat="44.32927" lon="3.38427">
        <ele>828.4</ele>
        <time>2020-08-25T11:00:42.000Z</time>
      </trkpt>
      <trkpt lat="44.32927" lon="3.38427">
        <ele>828.5</ele>
        <time>2020-08-25T11:00:44.000Z</time>
      </trkpt>
      <trkpt lat="44.32927" lon="3.38427">
        <ele>828.5</ele>
        <time>2020-08-25T11:00:46.000Z</time>
      </trkpt>
      <trkpt lat="44.32927" lon="3.38427">
        <ele>828.5</ele>
        <time>2020-08-25T11:00:48.000Z</time>
      </trkpt>
      <trkpt lat="44.32927" lon="3.38427">
        <ele>828.6</ele>
        <time>2020-08-25T11:00:49.000Z</time>
      </trkpt>
      <trkpt lat="44.32927" lon="3.38427">
        <ele>828.6</ele>
        <time>2020-08-25T11:00:50.000Z</time>
      </trkpt>
      <trkpt lat="44.32927" lon="3.38428">
        <ele>828.6</ele>
        <time>2020-08-25T11:00:52.000Z</time>
      </trkpt>
      <trkpt lat="44.32927" lon="3.38428">
        <ele>828.7</ele>
        <time>2020-08-25T11:00:54.000Z</time>
      </trkpt>
      <trkpt lat="44.32927" lon="3.38428">
        <ele>828.7</ele>
        <time>2020-08-25T11:00:55.000Z</time>
      </trkpt>
      <trkpt lat="44.32927" lon="3.38428">
        <ele>828.8</ele>
        <time>2020-08-25T11:00:57.000Z</time>
      </trkpt>
      <trkpt lat="44.32927" lon="3.38428">
        <ele>828.8</ele>
        <time>2020-08-25T11:00:59.000Z</time>
      </trkpt>
      <trkpt lat="44.32927" lon="3.38428">
        <ele>828.9</ele>
        <time>2020-08-25T11:01:00.000Z</time>
      </trkpt>
      <trkpt lat="44.32928" lon="3.38428">
        <ele>829</ele>
        <time>2020-08-25T11:01:01.000Z</time>
      </trkpt>
      <trkpt lat="44.32928" lon="3.38428">
        <ele>829.3</ele>
        <time>2020-08-25T11:01:03.000Z</time>
      </trkpt>
      <trkpt lat="44.32928" lon="3.38428">
        <ele>829.4</ele>
        <time>2020-08-25T11:01:05.000Z</time>
      </trkpt>
      <trkpt lat="44.32928" lon="3.38428">
        <ele>829.4</ele>
        <time>2020-08-25T11:01:07.000Z</time>
      </trkpt>
      <trkpt lat="44.32928" lon="3.38428">
        <ele>829.4</ele>
        <time>2020-08-25T11:01:09.000Z</time>
      </trkpt>
      <trkpt lat="44.32928" lon="3.38428">
        <ele>829.5</ele>
        <time>2020-08-25T11:01:10.000Z</time>
      </trkpt>
      <trkpt lat="44.32928" lon="3.38428">
        <ele>829.5</ele>
        <time>2020-08-25T11:01:12.000Z</time>
      </trkpt>
      <trkpt lat="44.32928" lon="3.38428">
        <ele>829.5</ele>
        <time>2020-08-25T11:01:13.000Z</time>
      </trkpt>
      <trkpt lat="44.32928" lon="3.38428">
        <ele>829.6</ele>
        <time>2020-08-25T11:01:15.000Z</time>
      </trkpt>
      <trkpt lat="44.32928" lon="3.38428">
        <ele>829.6</ele>
        <time>2020-08-25T11:01:16.000Z</time>
      </trkpt>
      <trkpt lat="44.32928" lon="3.38428">
        <ele>829.7</ele>
        <time>2020-08-25T11:01:18.000Z</time>
      </trkpt>
      <trkpt lat="44.32928" lon="3.38429">
        <ele>829.8</ele>
        <time>2020-08-25T11:01:20.000Z</time>
      </trkpt>
      <trkpt lat="44.32927" lon="3.38428">
        <ele>830.1</ele>
        <time>2020-08-25T11:01:22.000Z</time>
      </trkpt>
      <trkpt lat="44.32927" lon="3.38428">
        <ele>830.1</ele>
        <time>2020-08-25T11:01:23.000Z</time>
      </trkpt>
      <trkpt lat="44.32927" lon="3.38429">
        <ele>830.3</ele>
        <time>2020-08-25T11:01:25.000Z</time>
      </trkpt>
      <trkpt lat="44.32926" lon="3.38429">
        <ele>830.4</ele>
        <time>2020-08-25T11:01:27.000Z</time>
      </trkpt>
      <trkpt lat="44.32926" lon="3.38429">
        <ele>830.5</ele>
        <time>2020-08-25T11:01:29.000Z</time>
      </trkpt>
      <trkpt lat="44.32926" lon="3.38429">
        <ele>830.6</ele>
        <time>2020-08-25T11:01:31.000Z</time>
      </trkpt>
      <trkpt lat="44.32926" lon="3.38429">
        <ele>830.7</ele>
        <time>2020-08-25T11:01:33.000Z</time>
      </trkpt>
      <trkpt lat="44.32926" lon="3.38429">
        <ele>830.7</ele>
        <time>2020-08-25T11:01:34.000Z</time>
      </trkpt>
      <trkpt lat="44.32926" lon="3.38429">
        <ele>830.8</ele>
        <time>2020-08-25T11:01:36.000Z</time>
      </trkpt>
      <trkpt lat="44.32926" lon="3.38429">
        <ele>830.9</ele>
        <time>2020-08-25T11:01:38.000Z</time>
      </trkpt>
      <trkpt lat="44.32926" lon="3.38429">
        <ele>830.9</ele>
        <time>2020-08-25T11:01:39.000Z</time>
      </trkpt>
      <trkpt lat="44.32926" lon="3.38429">
        <ele>831</ele>
        <time>2020-08-25T11:01:40.000Z</time>
      </trkpt>
      <trkpt lat="44.32926" lon="3.38429">
        <ele>831.1</ele>
        <time>2020-08-25T11:01:42.000Z</time>
      </trkpt>
      <trkpt lat="44.32926" lon="3.38429">
        <ele>831.1</ele>
        <time>2020-08-25T11:01:43.000Z</time>
      </trkpt>
      <trkpt lat="44.32926" lon="3.38429">
        <ele>831.2</ele>
        <time>2020-08-25T11:01:45.000Z</time>
      </trkpt>
      <trkpt lat="44.32926" lon="3.38428">
        <ele>831.3</ele>
        <time>2020-08-25T11:01:47.000Z</time>
      </trkpt>
      <trkpt lat="44.32926" lon="3.38428">
        <ele>831.4</ele>
        <time>2020-08-25T11:01:48.000Z</time>
      </trkpt>
      <trkpt lat="44.32926" lon="3.38428">
        <ele>831.5</ele>
        <time>2020-08-25T11:01:50.000Z</time>
      </trkpt>
      <trkpt lat="44.32926" lon="3.38428">
        <ele>831.6</ele>
        <time>2020-08-25T11:01:51.000Z</time>
      </trkpt>
      <trkpt lat="44.32926" lon="3.38428">
        <ele>831.6</ele>
        <time>2020-08-25T11:01:52.000Z</time>
      </trkpt>
      <trkpt lat="44.32926" lon="3.38428">
        <ele>831.7</ele>
        <time>2020-08-25T11:01:53.000Z</time>
      </trkpt>
      <trkpt lat="44.32926" lon="3.38428">
        <ele>831.7</ele>
        <time>2020-08-25T11:01:55.000Z</time>
      </trkpt>
      <trkpt lat="44.32926" lon="3.38428">
        <ele>831.7</ele>
        <time>2020-08-25T11:01:56.000Z</time>
      </trkpt>
      <trkpt lat="44.32926" lon="3.38428">
        <ele>831.8</ele>
        <time>2020-08-25T11:01:58.000Z</time>
      </trkpt>
      <trkpt lat="44.32926" lon="3.38428">
        <ele>831.8</ele>
        <time>2020-08-25T11:02:00.000Z</time>
      </trkpt>
      <trkpt lat="44.32926" lon="3.38428">
        <ele>831.8</ele>
        <time>2020-08-25T11:02:01.000Z</time>
      </trkpt>
      <trkpt lat="44.32926" lon="3.38428">
        <ele>831.8</ele>
        <time>2020-08-25T11:02:02.000Z</time>
      </trkpt>
      <trkpt lat="44.32926" lon="3.38428">
        <ele>831.9</ele>
        <time>2020-08-25T11:02:04.000Z</time>
      </trkpt>
      <trkpt lat="44.32926" lon="3.38428">
        <ele>831.9</ele>
        <time>2020-08-25T11:02:06.000Z</time>
      </trkpt>
      <trkpt lat="44.32926" lon="3.38428">
        <ele>832</ele>
        <time>2020-08-25T11:02:07.000Z</time>
      </trkpt>
      <trkpt lat="44.32926" lon="3.38428">
        <ele>832</ele>
        <time>2020-08-25T11:02:08.000Z</time>
      </trkpt>
      <trkpt lat="44.32926" lon="3.38428">
        <ele>832.1</ele>
        <time>2020-08-25T11:02:10.000Z</time>
      </trkpt>
      <trkpt lat="44.32927" lon="3.38429">
        <ele>832.2</ele>
        <time>2020-08-25T11:02:11.000Z</time>
      </trkpt>
      <trkpt lat="44.32927" lon="3.3843">
        <ele>832.8</ele>
        <time>2020-08-25T11:02:13.000Z</time>
      </trkpt>
      <trkpt lat="44.32927" lon="3.38431">
        <ele>833</ele>
        <time>2020-08-25T11:02:14.000Z</time>
      </trkpt>
      <trkpt lat="44.32927" lon="3.38432">
        <ele>833.4</ele>
        <time>2020-08-25T11:02:16.000Z</time>
      </trkpt>
      <trkpt lat="44.32927" lon="3.38432">
        <ele>833.5</ele>
        <time>2020-08-25T11:02:18.000Z</time>
      </trkpt>
      <trkpt lat="44.32928" lon="3.38432">
        <ele>833.6</ele>
        <time>2020-08-25T11:02:20.000Z</time>
      </trkpt>
      <trkpt lat="44.32928" lon="3.38432">
        <ele>833.8</ele>
        <time>2020-08-25T11:02:21.000Z</time>
      </trkpt>
      <trkpt lat="44.32929" lon="3.38432">
        <ele>834.1</ele>
        <time>2020-08-25T11:02:22.000Z</time>
      </trkpt>
      <trkpt lat="44.32927" lon="3.38436">
        <ele>835.3</ele>
        <time>2020-08-25T11:02:24.000Z</time>
      </trkpt>
      <trkpt lat="44.32925" lon="3.38437">
        <ele>836.4</ele>
        <time>2020-08-25T11:02:26.000Z</time>
      </trkpt>
      <trkpt lat="44.32921" lon="3.38436">
        <ele>838</ele>
        <time>2020-08-25T11:02:28.000Z</time>
      </trkpt>
      <trkpt lat="44.32919" lon="3.38434">
        <ele>838.2</ele>
        <time>2020-08-25T11:02:29.000Z</time>
      </trkpt>
      <trkpt lat="44.32918" lon="3.38433">
        <ele>838.3</ele>
        <time>2020-08-25T11:02:30.000Z</time>
      </trkpt>
      <trkpt lat="44.32914" lon="3.38432">
        <ele>838.8</ele>
        <time>2020-08-25T11:02:32.000Z</time>
      </trkpt>
      <trkpt lat="44.32911" lon="3.38431">
        <ele>839</ele>
        <time>2020-08-25T11:02:33.000Z</time>
      </trkpt>
      <trkpt lat="44.32907" lon="3.38432">
        <ele>839.3</ele>
        <time>2020-08-25T11:02:34.000Z</time>
      </trkpt>
      <trkpt lat="44.32902" lon="3.38432">
        <ele>839.6</ele>
        <time>2020-08-25T11:02:36.000Z</time>
      </trkpt>
      <trkpt lat="44.32897" lon="3.38433">
        <ele>839.9</ele>
        <time>2020-08-25T11:02:38.000Z</time>
      </trkpt>
      <trkpt lat="44.32894" lon="3.38434">
        <ele>840.1</ele>
        <time>2020-08-25T11:02:39.000Z</time>
      </trkpt>
      <trkpt lat="44.32893" lon="3.38434">
        <ele>840.1</ele>
        <time>2020-08-25T11:02:40.000Z</time>
      </trkpt>
      <trkpt lat="44.3289" lon="3.38437">
        <ele>840.3</ele>
        <time>2020-08-25T11:02:41.000Z</time>
      </trkpt>
      <trkpt lat="44.32888" lon="3.38438">
        <ele>840.3</ele>
        <time>2020-08-25T11:02:42.000Z</time>
      </trkpt>
      <trkpt lat="44.32886" lon="3.38439">
        <ele>840.4</ele>
        <time>2020-08-25T11:02:43.000Z</time>
      </trkpt>
      <trkpt lat="44.32882" lon="3.38441">
        <ele>840.6</ele>
        <time>2020-08-25T11:02:45.000Z</time>
      </trkpt>
      <trkpt lat="44.32879" lon="3.38443">
        <ele>840.7</ele>
        <time>2020-08-25T11:02:46.000Z</time>
      </trkpt>
      <trkpt lat="44.32878" lon="3.38443">
        <ele>840.8</ele>
        <time>2020-08-25T11:02:47.000Z</time>
      </trkpt>
      <trkpt lat="44.32875" lon="3.38446">
        <ele>841</ele>
        <time>2020-08-25T11:02:49.000Z</time>
      </trkpt>
      <trkpt lat="44.32873" lon="3.38448">
        <ele>841.1</ele>
        <time>2020-08-25T11:02:50.000Z</time>
      </trkpt>
      <trkpt lat="44.32872" lon="3.38449">
        <ele>841.2</ele>
        <time>2020-08-25T11:02:51.000Z</time>
      </trkpt>
      <trkpt lat="44.3287" lon="3.3845">
        <ele>841.3</ele>
        <time>2020-08-25T11:02:52.000Z</time>
      </trkpt>
      <trkpt lat="44.32867" lon="3.38452">
        <ele>841.5</ele>
        <time>2020-08-25T11:02:54.000Z</time>
      </trkpt>
      <trkpt lat="44.32863" lon="3.38455">
        <ele>841.7</ele>
        <time>2020-08-25T11:02:56.000Z</time>
      </trkpt>
      <trkpt lat="44.32862" lon="3.38457">
        <ele>841.8</ele>
        <time>2020-08-25T11:02:57.000Z</time>
      </trkpt>
      <trkpt lat="44.32858" lon="3.3846">
        <ele>842.1</ele>
        <time>2020-08-25T11:02:59.000Z</time>
      </trkpt>
      <trkpt lat="44.32857" lon="3.38461">
        <ele>842.2</ele>
        <time>2020-08-25T11:03:00.000Z</time>
      </trkpt>
      <trkpt lat="44.32852" lon="3.38463">
        <ele>842.5</ele>
        <time>2020-08-25T11:03:02.000Z</time>
      </trkpt>
      <trkpt lat="44.32851" lon="3.38465">
        <ele>842.6</ele>
        <time>2020-08-25T11:03:03.000Z</time>
      </trkpt>
      <trkpt lat="44.32848" lon="3.38468">
        <ele>842.8</ele>
        <time>2020-08-25T11:03:05.000Z</time>
      </trkpt>
      <trkpt lat="44.32846" lon="3.38471">
        <ele>843</ele>
        <time>2020-08-25T11:03:06.000Z</time>
      </trkpt>
      <trkpt lat="44.32845" lon="3.38472">
        <ele>843.1</ele>
        <time>2020-08-25T11:03:07.000Z</time>
      </trkpt>
      <trkpt lat="44.32842" lon="3.38476">
        <ele>843.3</ele>
        <time>2020-08-25T11:03:09.000Z</time>
      </trkpt>
      <trkpt lat="44.3284" lon="3.38478">
        <ele>843.5</ele>
        <time>2020-08-25T11:03:10.000Z</time>
      </trkpt>
      <trkpt lat="44.32839" lon="3.38479">
        <ele>843.6</ele>
        <time>2020-08-25T11:03:11.000Z</time>
      </trkpt>
      <trkpt lat="44.32837" lon="3.38482">
        <ele>843.8</ele>
        <time>2020-08-25T11:03:13.000Z</time>
      </trkpt>
      <trkpt lat="44.32836" lon="3.38485">
        <ele>843.9</ele>
        <time>2020-08-25T11:03:14.000Z</time>
      </trkpt>
      <trkpt lat="44.32833" lon="3.38488">
        <ele>844.2</ele>
        <time>2020-08-25T11:03:16.000Z</time>
      </trkpt>
      <trkpt lat="44.32832" lon="3.3849">
        <ele>844.3</ele>
        <time>2020-08-25T11:03:17.000Z</time>
      </trkpt>
      <trkpt lat="44.3283" lon="3.38493">
        <ele>844.5</ele>
        <time>2020-08-25T11:03:19.000Z</time>
      </trkpt>
      <trkpt lat="44.32828" lon="3.38497">
        <ele>844.8</ele>
        <time>2020-08-25T11:03:21.000Z</time>
      </trkpt>
      <trkpt lat="44.32827" lon="3.38498">
        <ele>844.9</ele>
        <time>2020-08-25T11:03:22.000Z</time>
      </trkpt>
      <trkpt lat="44.32825" lon="3.385">
        <ele>845</ele>
        <time>2020-08-25T11:03:23.000Z</time>
      </trkpt>
      <trkpt lat="44.32823" lon="3.38504">
        <ele>845.2</ele>
        <time>2020-08-25T11:03:25.000Z</time>
      </trkpt>
      <trkpt lat="44.32821" lon="3.38508">
        <ele>845.5</ele>
        <time>2020-08-25T11:03:27.000Z</time>
      </trkpt>
      <trkpt lat="44.3282" lon="3.3851">
        <ele>845.6</ele>
        <time>2020-08-25T11:03:28.000Z</time>
      </trkpt>
      <trkpt lat="44.32819" lon="3.38512">
        <ele>845.7</ele>
        <time>2020-08-25T11:03:29.000Z</time>
      </trkpt>
      <trkpt lat="44.32817" lon="3.38513">
        <ele>845.9</ele>
        <time>2020-08-25T11:03:30.000Z</time>
      </trkpt>
      <trkpt lat="44.32815" lon="3.38517">
        <ele>846.1</ele>
        <time>2020-08-25T11:03:32.000Z</time>
      </trkpt>
      <trkpt lat="44.32814" lon="3.38519">
        <ele>846.2</ele>
        <time>2020-08-25T11:03:33.000Z</time>
      </trkpt>
      <trkpt lat="44.32813" lon="3.3852">
        <ele>846.3</ele>
        <time>2020-08-25T11:03:34.000Z</time>
      </trkpt>
      <trkpt lat="44.3281" lon="3.38525">
        <ele>846.6</ele>
        <time>2020-08-25T11:03:36.000Z</time>
      </trkpt>
      <trkpt lat="44.32807" lon="3.38528">
        <ele>846.8</ele>
        <time>2020-08-25T11:03:38.000Z</time>
      </trkpt>
      <trkpt lat="44.32806" lon="3.3853">
        <ele>846.9</ele>
        <time>2020-08-25T11:03:39.000Z</time>
      </trkpt>
      <trkpt lat="44.32803" lon="3.38533">
        <ele>847.2</ele>
        <time>2020-08-25T11:03:41.000Z</time>
      </trkpt>
      <trkpt lat="44.32801" lon="3.38537">
        <ele>847.4</ele>
        <time>2020-08-25T11:03:43.000Z</time>
      </trkpt>
      <trkpt lat="44.32798" lon="3.3854">
        <ele>847.6</ele>
        <time>2020-08-25T11:03:45.000Z</time>
      </trkpt>
      <trkpt lat="44.32795" lon="3.38543">
        <ele>847.8</ele>
        <time>2020-08-25T11:03:47.000Z</time>
      </trkpt>
      <trkpt lat="44.32792" lon="3.38546">
        <ele>848</ele>
        <time>2020-08-25T11:03:49.000Z</time>
      </trkpt>
      <trkpt lat="44.32789" lon="3.38549">
        <ele>848.2</ele>
        <time>2020-08-25T11:03:51.000Z</time>
      </trkpt>
      <trkpt lat="44.32787" lon="3.3855">
        <ele>848.3</ele>
        <time>2020-08-25T11:03:52.000Z</time>
      </trkpt>
      <trkpt lat="44.32784" lon="3.38553">
        <ele>848.5</ele>
        <time>2020-08-25T11:03:54.000Z</time>
      </trkpt>
      <trkpt lat="44.32781" lon="3.38555">
        <ele>848.7</ele>
        <time>2020-08-25T11:03:56.000Z</time>
      </trkpt>
      <trkpt lat="44.32777" lon="3.38557">
        <ele>848.9</ele>
        <time>2020-08-25T11:03:58.000Z</time>
      </trkpt>
      <trkpt lat="44.32774" lon="3.38558">
        <ele>849.1</ele>
        <time>2020-08-25T11:03:59.000Z</time>
      </trkpt>
      <trkpt lat="44.32773" lon="3.38558">
        <ele>849.1</ele>
        <time>2020-08-25T11:04:00.000Z</time>
      </trkpt>
      <trkpt lat="44.32769" lon="3.38559">
        <ele>849.4</ele>
        <time>2020-08-25T11:04:02.000Z</time>
      </trkpt>
      <trkpt lat="44.32766" lon="3.38559">
        <ele>849.6</ele>
        <time>2020-08-25T11:04:03.000Z</time>
      </trkpt>
      <trkpt lat="44.32765" lon="3.38559">
        <ele>849.6</ele>
        <time>2020-08-25T11:04:04.000Z</time>
      </trkpt>
      <trkpt lat="44.32761" lon="3.38559">
        <ele>849.9</ele>
        <time>2020-08-25T11:04:06.000Z</time>
      </trkpt>
      <trkpt lat="44.32758" lon="3.38559">
        <ele>850</ele>
        <time>2020-08-25T11:04:07.000Z</time>
      </trkpt>
      <trkpt lat="44.32757" lon="3.38559">
        <ele>850.1</ele>
        <time>2020-08-25T11:04:08.000Z</time>
      </trkpt>
      <trkpt lat="44.32753" lon="3.38559">
        <ele>850.3</ele>
        <time>2020-08-25T11:04:10.000Z</time>
      </trkpt>
      <trkpt lat="44.32749" lon="3.38558">
        <ele>850.5</ele>
        <time>2020-08-25T11:04:12.000Z</time>
      </trkpt>
      <trkpt lat="44.32747" lon="3.38557">
        <ele>850.6</ele>
        <time>2020-08-25T11:04:13.000Z</time>
      </trkpt>
      <trkpt lat="44.32743" lon="3.38556">
        <ele>850.9</ele>
        <time>2020-08-25T11:04:15.000Z</time>
      </trkpt>
      <trkpt lat="44.32741" lon="3.38555">
        <ele>851</ele>
        <time>2020-08-25T11:04:16.000Z</time>
      </trkpt>
      <trkpt lat="44.32737" lon="3.38554">
        <ele>851.2</ele>
        <time>2020-08-25T11:04:18.000Z</time>
      </trkpt>
      <trkpt lat="44.32735" lon="3.38553">
        <ele>851.4</ele>
        <time>2020-08-25T11:04:19.000Z</time>
      </trkpt>
      <trkpt lat="44.32732" lon="3.38552">
        <ele>851.6</ele>
        <time>2020-08-25T11:04:21.000Z</time>
      </trkpt>
      <trkpt lat="44.3273" lon="3.38552">
        <ele>851.7</ele>
        <time>2020-08-25T11:04:22.000Z</time>
      </trkpt>
      <trkpt lat="44.32726" lon="3.38551">
        <ele>851.9</ele>
        <time>2020-08-25T11:04:24.000Z</time>
      </trkpt>
      <trkpt lat="44.32723" lon="3.38549">
        <ele>852.2</ele>
        <time>2020-08-25T11:04:26.000Z</time>
      </trkpt>
      <trkpt lat="44.32718" lon="3.38547">
        <ele>852.5</ele>
        <time>2020-08-25T11:04:28.000Z</time>
      </trkpt>
      <trkpt lat="44.32717" lon="3.38546">
        <ele>852.5</ele>
        <time>2020-08-25T11:04:29.000Z</time>
      </trkpt>
      <trkpt lat="44.32716" lon="3.38546">
        <ele>852.6</ele>
        <time>2020-08-25T11:04:30.000Z</time>
      </trkpt>
      <trkpt lat="44.32714" lon="3.38545">
        <ele>852.7</ele>
        <time>2020-08-25T11:04:31.000Z</time>
      </trkpt>
      <trkpt lat="44.3271" lon="3.38544">
        <ele>853</ele>
        <time>2020-08-25T11:04:33.000Z</time>
      </trkpt>
      <trkpt lat="44.32706" lon="3.38543">
        <ele>853.2</ele>
        <time>2020-08-25T11:04:35.000Z</time>
      </trkpt>
      <trkpt lat="44.32703" lon="3.38543">
        <ele>853.4</ele>
        <time>2020-08-25T11:04:36.000Z</time>
      </trkpt>
      <trkpt lat="44.32702" lon="3.38543">
        <ele>853.5</ele>
        <time>2020-08-25T11:04:37.000Z</time>
      </trkpt>
      <trkpt lat="44.32698" lon="3.38543">
        <ele>853.7</ele>
        <time>2020-08-25T11:04:39.000Z</time>
      </trkpt>
      <trkpt lat="44.32694" lon="3.38543">
        <ele>854</ele>
        <time>2020-08-25T11:04:41.000Z</time>
      </trkpt>
      <trkpt lat="44.32691" lon="3.38543">
        <ele>854.2</ele>
        <time>2020-08-25T11:04:42.000Z</time>
      </trkpt>
      <trkpt lat="44.3269" lon="3.38543">
        <ele>854.3</ele>
        <time>2020-08-25T11:04:43.000Z</time>
      </trkpt>
      <trkpt lat="44.32687" lon="3.38543">
        <ele>854.6</ele>
        <time>2020-08-25T11:04:45.000Z</time>
      </trkpt>
      <trkpt lat="44.32685" lon="3.38544">
        <ele>854.7</ele>
        <time>2020-08-25T11:04:46.000Z</time>
      </trkpt>
      <trkpt lat="44.32681" lon="3.38545">
        <ele>855</ele>
        <time>2020-08-25T11:04:48.000Z</time>
      </trkpt>
      <trkpt lat="44.32679" lon="3.38545">
        <ele>855.1</ele>
        <time>2020-08-25T11:04:49.000Z</time>
      </trkpt>
      <trkpt lat="44.32676" lon="3.38546">
        <ele>855.3</ele>
        <time>2020-08-25T11:04:51.000Z</time>
      </trkpt>
      <trkpt lat="44.32672" lon="3.38548">
        <ele>855.6</ele>
        <time>2020-08-25T11:04:53.000Z</time>
      </trkpt>
      <trkpt lat="44.3267" lon="3.38548">
        <ele>855.7</ele>
        <time>2020-08-25T11:04:54.000Z</time>
      </trkpt>
      <trkpt lat="44.32667" lon="3.3855">
        <ele>855.9</ele>
        <time>2020-08-25T11:04:56.000Z</time>
      </trkpt>
      <trkpt lat="44.32663" lon="3.38551">
        <ele>856.1</ele>
        <time>2020-08-25T11:04:58.000Z</time>
      </trkpt>
      <trkpt lat="44.32659" lon="3.38552">
        <ele>856.3</ele>
        <time>2020-08-25T11:05:00.000Z</time>
      </trkpt>
      <trkpt lat="44.32655" lon="3.38553">
        <ele>856.5</ele>
        <time>2020-08-25T11:05:02.000Z</time>
      </trkpt>
      <trkpt lat="44.32651" lon="3.38552">
        <ele>856.7</ele>
        <time>2020-08-25T11:05:04.000Z</time>
      </trkpt>
      <trkpt lat="44.32648" lon="3.3855">
        <ele>856.9</ele>
        <time>2020-08-25T11:05:06.000Z</time>
      </trkpt>
      <trkpt lat="44.32644" lon="3.38548">
        <ele>857.2</ele>
        <time>2020-08-25T11:05:08.000Z</time>
      </trkpt>
      <trkpt lat="44.3264" lon="3.38546">
        <ele>857.4</ele>
        <time>2020-08-25T11:05:09.000Z</time>
      </trkpt>
      <trkpt lat="44.32639" lon="3.38545">
        <ele>857.5</ele>
        <time>2020-08-25T11:05:10.000Z</time>
      </trkpt>
      <trkpt lat="44.32636" lon="3.38541">
        <ele>857.8</ele>
        <time>2020-08-25T11:05:12.000Z</time>
      </trkpt>
      <trkpt lat="44.32633" lon="3.38538">
        <ele>858</ele>
        <time>2020-08-25T11:05:14.000Z</time>
      </trkpt>
      <trkpt lat="44.3263" lon="3.38535">
        <ele>858.2</ele>
        <time>2020-08-25T11:05:15.000Z</time>
      </trkpt>
      <trkpt lat="44.3263" lon="3.38534">
        <ele>858.3</ele>
        <time>2020-08-25T11:05:16.000Z</time>
      </trkpt>
      <trkpt lat="44.32627" lon="3.3853">
        <ele>858.6</ele>
        <time>2020-08-25T11:05:18.000Z</time>
      </trkpt>
      <trkpt lat="44.32624" lon="3.38525">
        <ele>858.8</ele>
        <time>2020-08-25T11:05:20.000Z</time>
      </trkpt>
      <trkpt lat="44.32622" lon="3.38523">
        <ele>859</ele>
        <time>2020-08-25T11:05:21.000Z</time>
      </trkpt>
      <trkpt lat="44.32621" lon="3.38522">
        <ele>859.1</ele>
        <time>2020-08-25T11:05:22.000Z</time>
      </trkpt>
      <trkpt lat="44.32619" lon="3.38518">
        <ele>859.4</ele>
        <time>2020-08-25T11:05:24.000Z</time>
      </trkpt>
      <trkpt lat="44.32617" lon="3.38516">
        <ele>859.6</ele>
        <time>2020-08-25T11:05:25.000Z</time>
      </trkpt>
      <trkpt lat="44.32614" lon="3.38512">
        <ele>859.8</ele>
        <time>2020-08-25T11:05:27.000Z</time>
      </trkpt>
      <trkpt lat="44.32612" lon="3.38509">
        <ele>860.1</ele>
        <time>2020-08-25T11:05:28.000Z</time>
      </trkpt>
      <trkpt lat="44.32611" lon="3.38508">
        <ele>860.1</ele>
        <time>2020-08-25T11:05:29.000Z</time>
      </trkpt>
      <trkpt lat="44.32608" lon="3.38505">
        <ele>860.4</ele>
        <time>2020-08-25T11:05:31.000Z</time>
      </trkpt>
      <trkpt lat="44.32606" lon="3.38503">
        <ele>860.6</ele>
        <time>2020-08-25T11:05:32.000Z</time>
      </trkpt>
      <trkpt lat="44.32603" lon="3.385">
        <ele>860.8</ele>
        <time>2020-08-25T11:05:34.000Z</time>
      </trkpt>
      <trkpt lat="44.326" lon="3.38497">
        <ele>861.1</ele>
        <time>2020-08-25T11:05:36.000Z</time>
      </trkpt>
      <trkpt lat="44.32598" lon="3.38495">
        <ele>861.2</ele>
        <time>2020-08-25T11:05:37.000Z</time>
      </trkpt>
      <trkpt lat="44.32595" lon="3.38492">
        <ele>861.5</ele>
        <time>2020-08-25T11:05:39.000Z</time>
      </trkpt>
      <trkpt lat="44.32592" lon="3.38489">
        <ele>861.7</ele>
        <time>2020-08-25T11:05:41.000Z</time>
      </trkpt>
      <trkpt lat="44.32591" lon="3.38488">
        <ele>861.8</ele>
        <time>2020-08-25T11:05:42.000Z</time>
      </trkpt>
      <trkpt lat="44.32587" lon="3.38486">
        <ele>862.1</ele>
        <time>2020-08-25T11:05:44.000Z</time>
      </trkpt>
      <trkpt lat="44.32585" lon="3.38485">
        <ele>862.2</ele>
        <time>2020-08-25T11:05:45.000Z</time>
      </trkpt>
      <trkpt lat="44.32582" lon="3.38483">
        <ele>862.5</ele>
        <time>2020-08-25T11:05:47.000Z</time>
      </trkpt>
      <trkpt lat="44.32579" lon="3.3848">
        <ele>862.7</ele>
        <time>2020-08-25T11:05:49.000Z</time>
      </trkpt>
      <trkpt lat="44.32575" lon="3.38478">
        <ele>863</ele>
        <time>2020-08-25T11:05:51.000Z</time>
      </trkpt>
      <trkpt lat="44.32574" lon="3.38477">
        <ele>863.1</ele>
        <time>2020-08-25T11:05:52.000Z</time>
      </trkpt>
      <trkpt lat="44.32572" lon="3.38476">
        <ele>863.2</ele>
        <time>2020-08-25T11:05:53.000Z</time>
      </trkpt>
      <trkpt lat="44.32569" lon="3.38474">
        <ele>863.4</ele>
        <time>2020-08-25T11:05:55.000Z</time>
      </trkpt>
      <trkpt lat="44.32567" lon="3.38473">
        <ele>863.6</ele>
        <time>2020-08-25T11:05:56.000Z</time>
      </trkpt>
      <trkpt lat="44.32564" lon="3.3847">
        <ele>863.8</ele>
        <time>2020-08-25T11:05:58.000Z</time>
      </trkpt>
      <trkpt lat="44.32562" lon="3.38469">
        <ele>863.9</ele>
        <time>2020-08-25T11:05:59.000Z</time>
      </trkpt>
      <trkpt lat="44.32559" lon="3.38467">
        <ele>864.1</ele>
        <time>2020-08-25T11:06:01.000Z</time>
      </trkpt>
      <trkpt lat="44.32556" lon="3.38464">
        <ele>864.4</ele>
        <time>2020-08-25T11:06:03.000Z</time>
      </trkpt>
      <trkpt lat="44.32552" lon="3.38462">
        <ele>864.6</ele>
        <time>2020-08-25T11:06:05.000Z</time>
      </trkpt>
      <trkpt lat="44.32549" lon="3.3846">
        <ele>864.9</ele>
        <time>2020-08-25T11:06:07.000Z</time>
      </trkpt>
      <trkpt lat="44.32545" lon="3.38458">
        <ele>865.2</ele>
        <time>2020-08-25T11:06:09.000Z</time>
      </trkpt>
      <trkpt lat="44.32544" lon="3.38456">
        <ele>865.3</ele>
        <time>2020-08-25T11:06:10.000Z</time>
      </trkpt>
      <trkpt lat="44.3254" lon="3.38454">
        <ele>865.6</ele>
        <time>2020-08-25T11:06:12.000Z</time>
      </trkpt>
      <trkpt lat="44.32539" lon="3.38452">
        <ele>865.7</ele>
        <time>2020-08-25T11:06:13.000Z</time>
      </trkpt>
      <trkpt lat="44.32536" lon="3.3845">
        <ele>866</ele>
        <time>2020-08-25T11:06:15.000Z</time>
      </trkpt>
      <trkpt lat="44.32534" lon="3.38448">
        <ele>866.1</ele>
        <time>2020-08-25T11:06:16.000Z</time>
      </trkpt>
      <trkpt lat="44.32531" lon="3.38445">
        <ele>866.4</ele>
        <time>2020-08-25T11:06:18.000Z</time>
      </trkpt>
      <trkpt lat="44.32528" lon="3.38443">
        <ele>866.6</ele>
        <time>2020-08-25T11:06:19.000Z</time>
      </trkpt>
      <trkpt lat="44.32528" lon="3.38442">
        <ele>866.7</ele>
        <time>2020-08-25T11:06:20.000Z</time>
      </trkpt>
      <trkpt lat="44.32525" lon="3.38439">
        <ele>866.9</ele>
        <time>2020-08-25T11:06:22.000Z</time>
      </trkpt>
      <trkpt lat="44.32523" lon="3.38438">
        <ele>867</ele>
        <time>2020-08-25T11:06:23.000Z</time>
      </trkpt>
      <trkpt lat="44.32519" lon="3.38434">
        <ele>867.3</ele>
        <time>2020-08-25T11:06:25.000Z</time>
      </trkpt>
      <trkpt lat="44.32516" lon="3.38432">
        <ele>867.5</ele>
        <time>2020-08-25T11:06:27.000Z</time>
      </trkpt>
      <trkpt lat="44.32515" lon="3.3843">
        <ele>867.6</ele>
        <time>2020-08-25T11:06:28.000Z</time>
      </trkpt>
      <trkpt lat="44.32512" lon="3.38427">
        <ele>867.8</ele>
        <time>2020-08-25T11:06:30.000Z</time>
      </trkpt>
      <trkpt lat="44.32508" lon="3.38424">
        <ele>868</ele>
        <time>2020-08-25T11:06:32.000Z</time>
      </trkpt>
      <trkpt lat="44.32505" lon="3.38421">
        <ele>868.2</ele>
        <time>2020-08-25T11:06:34.000Z</time>
      </trkpt>
      <trkpt lat="44.32501" lon="3.38418">
        <ele>868.4</ele>
        <time>2020-08-25T11:06:36.000Z</time>
      </trkpt>
      <trkpt lat="44.32498" lon="3.38415">
        <ele>868.6</ele>
        <time>2020-08-25T11:06:38.000Z</time>
      </trkpt>
      <trkpt lat="44.32494" lon="3.38412">
        <ele>868.8</ele>
        <time>2020-08-25T11:06:40.000Z</time>
      </trkpt>
      <trkpt lat="44.32491" lon="3.3841">
        <ele>869</ele>
        <time>2020-08-25T11:06:42.000Z</time>
      </trkpt>
      <trkpt lat="44.32488" lon="3.38407">
        <ele>869.2</ele>
        <time>2020-08-25T11:06:43.000Z</time>
      </trkpt>
      <trkpt lat="44.32486" lon="3.38406">
        <ele>869.3</ele>
        <time>2020-08-25T11:06:44.000Z</time>
      </trkpt>
      <trkpt lat="44.32484" lon="3.38404">
        <ele>869.5</ele>
        <time>2020-08-25T11:06:46.000Z</time>
      </trkpt>
      <trkpt lat="44.32482" lon="3.38403">
        <ele>869.6</ele>
        <time>2020-08-25T11:06:47.000Z</time>
      </trkpt>
      <trkpt lat="44.32479" lon="3.38401">
        <ele>869.9</ele>
        <time>2020-08-25T11:06:49.000Z</time>
      </trkpt>
      <trkpt lat="44.32475" lon="3.38398">
        <ele>870.2</ele>
        <time>2020-08-25T11:06:51.000Z</time>
      </trkpt>
      <trkpt lat="44.32472" lon="3.38395">
        <ele>870.4</ele>
        <time>2020-08-25T11:06:53.000Z</time>
      </trkpt>
      <trkpt lat="44.32468" lon="3.38393">
        <ele>870.7</ele>
        <time>2020-08-25T11:06:55.000Z</time>
      </trkpt>
      <trkpt lat="44.32466" lon="3.38391">
        <ele>870.9</ele>
        <time>2020-08-25T11:06:56.000Z</time>
      </trkpt>
      <trkpt lat="44.32463" lon="3.38389">
        <ele>871.2</ele>
        <time>2020-08-25T11:06:58.000Z</time>
      </trkpt>
      <trkpt lat="44.32462" lon="3.38388">
        <ele>871.3</ele>
        <time>2020-08-25T11:06:59.000Z</time>
      </trkpt>
      <trkpt lat="44.32458" lon="3.38385">
        <ele>871.6</ele>
        <time>2020-08-25T11:07:01.000Z</time>
      </trkpt>
      <trkpt lat="44.32455" lon="3.38383">
        <ele>871.9</ele>
        <time>2020-08-25T11:07:03.000Z</time>
      </trkpt>
      <trkpt lat="44.32453" lon="3.38382">
        <ele>872</ele>
        <time>2020-08-25T11:07:04.000Z</time>
      </trkpt>
      <trkpt lat="44.3245" lon="3.3838">
        <ele>872.3</ele>
        <time>2020-08-25T11:07:06.000Z</time>
      </trkpt>
      <trkpt lat="44.32447" lon="3.38379">
        <ele>872.5</ele>
        <time>2020-08-25T11:07:07.000Z</time>
      </trkpt>
      <trkpt lat="44.32446" lon="3.38378">
        <ele>872.5</ele>
        <time>2020-08-25T11:07:08.000Z</time>
      </trkpt>
      <trkpt lat="44.32442" lon="3.38376">
        <ele>872.8</ele>
        <time>2020-08-25T11:07:10.000Z</time>
      </trkpt>
      <trkpt lat="44.32439" lon="3.38374">
        <ele>873</ele>
        <time>2020-08-25T11:07:12.000Z</time>
      </trkpt>
      <trkpt lat="44.32435" lon="3.38372">
        <ele>873.2</ele>
        <time>2020-08-25T11:07:14.000Z</time>
      </trkpt>
      <trkpt lat="44.32433" lon="3.3837">
        <ele>873.4</ele>
        <time>2020-08-25T11:07:15.000Z</time>
      </trkpt>
      <trkpt lat="44.3243" lon="3.38368">
        <ele>873.6</ele>
        <time>2020-08-25T11:07:17.000Z</time>
      </trkpt>
      <trkpt lat="44.32427" lon="3.38366">
        <ele>873.8</ele>
        <time>2020-08-25T11:07:19.000Z</time>
      </trkpt>
      <trkpt lat="44.32422" lon="3.38364">
        <ele>874.1</ele>
        <time>2020-08-25T11:07:21.000Z</time>
      </trkpt>
      <trkpt lat="44.32419" lon="3.38362">
        <ele>874.3</ele>
        <time>2020-08-25T11:07:23.000Z</time>
      </trkpt>
      <trkpt lat="44.32415" lon="3.3836">
        <ele>874.5</ele>
        <time>2020-08-25T11:07:25.000Z</time>
      </trkpt>
      <trkpt lat="44.32411" lon="3.38358">
        <ele>874.7</ele>
        <time>2020-08-25T11:07:27.000Z</time>
      </trkpt>
      <trkpt lat="44.32408" lon="3.38357">
        <ele>874.9</ele>
        <time>2020-08-25T11:07:28.000Z</time>
      </trkpt>
      <trkpt lat="44.32407" lon="3.38356">
        <ele>874.9</ele>
        <time>2020-08-25T11:07:29.000Z</time>
      </trkpt>
      <trkpt lat="44.32403" lon="3.38355">
        <ele>875.2</ele>
        <time>2020-08-25T11:07:31.000Z</time>
      </trkpt>
      <trkpt lat="44.324" lon="3.38352">
        <ele>875.4</ele>
        <time>2020-08-25T11:07:33.000Z</time>
      </trkpt>
      <trkpt lat="44.32395" lon="3.3835">
        <ele>875.7</ele>
        <time>2020-08-25T11:07:35.000Z</time>
      </trkpt>
      <trkpt lat="44.32392" lon="3.38348">
        <ele>876</ele>
        <time>2020-08-25T11:07:37.000Z</time>
      </trkpt>
      <trkpt lat="44.3239" lon="3.38347">
        <ele>876.1</ele>
        <time>2020-08-25T11:07:38.000Z</time>
      </trkpt>
      <trkpt lat="44.32387" lon="3.38345">
        <ele>876.3</ele>
        <time>2020-08-25T11:07:40.000Z</time>
      </trkpt>
      <trkpt lat="44.32383" lon="3.38343">
        <ele>876.6</ele>
        <time>2020-08-25T11:07:42.000Z</time>
      </trkpt>
      <trkpt lat="44.32381" lon="3.38341">
        <ele>876.8</ele>
        <time>2020-08-25T11:07:43.000Z</time>
      </trkpt>
      <trkpt lat="44.3238" lon="3.38341">
        <ele>876.8</ele>
        <time>2020-08-25T11:07:44.000Z</time>
      </trkpt>
      <trkpt lat="44.32376" lon="3.38339">
        <ele>877.1</ele>
        <time>2020-08-25T11:07:46.000Z</time>
      </trkpt>
      <trkpt lat="44.32372" lon="3.38337">
        <ele>877.3</ele>
        <time>2020-08-25T11:07:48.000Z</time>
      </trkpt>
      <trkpt lat="44.3237" lon="3.38336">
        <ele>877.4</ele>
        <time>2020-08-25T11:07:49.000Z</time>
      </trkpt>
      <trkpt lat="44.32366" lon="3.38334">
        <ele>877.7</ele>
        <time>2020-08-25T11:07:51.000Z</time>
      </trkpt>
      <trkpt lat="44.32364" lon="3.38333">
        <ele>877.8</ele>
        <time>2020-08-25T11:07:52.000Z</time>
      </trkpt>
      <trkpt lat="44.3236" lon="3.38331">
        <ele>878</ele>
        <time>2020-08-25T11:07:54.000Z</time>
      </trkpt>
      <trkpt lat="44.32356" lon="3.3833">
        <ele>878.3</ele>
        <time>2020-08-25T11:07:56.000Z</time>
      </trkpt>
      <trkpt lat="44.32353" lon="3.38329">
        <ele>878.5</ele>
        <time>2020-08-25T11:07:58.000Z</time>
      </trkpt>
      <trkpt lat="44.32349" lon="3.38328">
        <ele>878.7</ele>
        <time>2020-08-25T11:08:00.000Z</time>
      </trkpt>
      <trkpt lat="44.32345" lon="3.38327">
        <ele>879</ele>
        <time>2020-08-25T11:08:02.000Z</time>
      </trkpt>
      <trkpt lat="44.32342" lon="3.38326">
        <ele>879.2</ele>
        <time>2020-08-25T11:08:03.000Z</time>
      </trkpt>
      <trkpt lat="44.32341" lon="3.38326">
        <ele>879.3</ele>
        <time>2020-08-25T11:08:04.000Z</time>
      </trkpt>
      <trkpt lat="44.32337" lon="3.38325">
        <ele>879.5</ele>
        <time>2020-08-25T11:08:06.000Z</time>
      </trkpt>
      <trkpt lat="44.32334" lon="3.38324">
        <ele>879.7</ele>
        <time>2020-08-25T11:08:07.000Z</time>
      </trkpt>
      <trkpt lat="44.32333" lon="3.38324">
        <ele>879.8</ele>
        <time>2020-08-25T11:08:08.000Z</time>
      </trkpt>
      <trkpt lat="44.32331" lon="3.38323">
        <ele>880</ele>
        <time>2020-08-25T11:08:09.000Z</time>
      </trkpt>
      <trkpt lat="44.32329" lon="3.38322">
        <ele>880.1</ele>
        <time>2020-08-25T11:08:10.000Z</time>
      </trkpt>
      <trkpt lat="44.32327" lon="3.38322">
        <ele>880.2</ele>
        <time>2020-08-25T11:08:11.000Z</time>
      </trkpt>
      <trkpt lat="44.32323" lon="3.38321">
        <ele>880.5</ele>
        <time>2020-08-25T11:08:13.000Z</time>
      </trkpt>
      <trkpt lat="44.32319" lon="3.38319">
        <ele>880.7</ele>
        <time>2020-08-25T11:08:15.000Z</time>
      </trkpt>
      <trkpt lat="44.32318" lon="3.38319">
        <ele>880.8</ele>
        <time>2020-08-25T11:08:16.000Z</time>
      </trkpt>
      <trkpt lat="44.32314" lon="3.38318">
        <ele>881.1</ele>
        <time>2020-08-25T11:08:18.000Z</time>
      </trkpt>
      <trkpt lat="44.3231" lon="3.38317">
        <ele>881.3</ele>
        <time>2020-08-25T11:08:20.000Z</time>
      </trkpt>
      <trkpt lat="44.32307" lon="3.38316">
        <ele>881.5</ele>
        <time>2020-08-25T11:08:21.000Z</time>
      </trkpt>
      <trkpt lat="44.32302" lon="3.38315">
        <ele>881.8</ele>
        <time>2020-08-25T11:08:23.000Z</time>
      </trkpt>
      <trkpt lat="44.323" lon="3.38315">
        <ele>882</ele>
        <time>2020-08-25T11:08:24.000Z</time>
      </trkpt>
      <trkpt lat="44.32297" lon="3.38314">
        <ele>882.3</ele>
        <time>2020-08-25T11:08:26.000Z</time>
      </trkpt>
      <trkpt lat="44.32293" lon="3.38312">
        <ele>882.7</ele>
        <time>2020-08-25T11:08:28.000Z</time>
      </trkpt>
      <trkpt lat="44.32289" lon="3.3831">
        <ele>883</ele>
        <time>2020-08-25T11:08:30.000Z</time>
      </trkpt>
      <trkpt lat="44.32285" lon="3.38309">
        <ele>883.3</ele>
        <time>2020-08-25T11:08:32.000Z</time>
      </trkpt>
      <trkpt lat="44.32282" lon="3.38308">
        <ele>883.5</ele>
        <time>2020-08-25T11:08:33.000Z</time>
      </trkpt>
      <trkpt lat="44.32281" lon="3.38308">
        <ele>883.6</ele>
        <time>2020-08-25T11:08:34.000Z</time>
      </trkpt>
      <trkpt lat="44.32277" lon="3.38306">
        <ele>883.9</ele>
        <time>2020-08-25T11:08:36.000Z</time>
      </trkpt>
      <trkpt lat="44.32273" lon="3.38305">
        <ele>884.2</ele>
        <time>2020-08-25T11:08:38.000Z</time>
      </trkpt>
      <trkpt lat="44.32271" lon="3.38304">
        <ele>884.3</ele>
        <time>2020-08-25T11:08:39.000Z</time>
      </trkpt>
      <trkpt lat="44.32267" lon="3.38302">
        <ele>884.6</ele>
        <time>2020-08-25T11:08:41.000Z</time>
      </trkpt>
      <trkpt lat="44.32265" lon="3.38302">
        <ele>884.8</ele>
        <time>2020-08-25T11:08:42.000Z</time>
      </trkpt>
      <trkpt lat="44.3226" lon="3.38301">
        <ele>885.1</ele>
        <time>2020-08-25T11:08:44.000Z</time>
      </trkpt>
      <trkpt lat="44.32258" lon="3.38301">
        <ele>885.3</ele>
        <time>2020-08-25T11:08:45.000Z</time>
      </trkpt>
      <trkpt lat="44.32254" lon="3.383">
        <ele>885.6</ele>
        <time>2020-08-25T11:08:47.000Z</time>
      </trkpt>
      <trkpt lat="44.32251" lon="3.383">
        <ele>885.8</ele>
        <time>2020-08-25T11:08:49.000Z</time>
      </trkpt>
      <trkpt lat="44.32249" lon="3.38299">
        <ele>886</ele>
        <time>2020-08-25T11:08:50.000Z</time>
      </trkpt>
      <trkpt lat="44.32246" lon="3.38297">
        <ele>886.2</ele>
        <time>2020-08-25T11:08:52.000Z</time>
      </trkpt>
      <trkpt lat="44.32243" lon="3.38297">
        <ele>886.5</ele>
        <time>2020-08-25T11:08:54.000Z</time>
      </trkpt>
      <trkpt lat="44.3224" lon="3.38296">
        <ele>886.7</ele>
        <time>2020-08-25T11:08:55.000Z</time>
      </trkpt>
      <trkpt lat="44.32239" lon="3.38296">
        <ele>886.8</ele>
        <time>2020-08-25T11:08:56.000Z</time>
      </trkpt>
      <trkpt lat="44.32235" lon="3.38295">
        <ele>887.1</ele>
        <time>2020-08-25T11:08:58.000Z</time>
      </trkpt>
      <trkpt lat="44.32231" lon="3.38294">
        <ele>887.4</ele>
        <time>2020-08-25T11:09:00.000Z</time>
      </trkpt>
      <trkpt lat="44.32229" lon="3.38293">
        <ele>887.6</ele>
        <time>2020-08-25T11:09:01.000Z</time>
      </trkpt>
      <trkpt lat="44.32226" lon="3.38291">
        <ele>887.8</ele>
        <time>2020-08-25T11:09:03.000Z</time>
      </trkpt>
      <trkpt lat="44.32223" lon="3.38291">
        <ele>888.1</ele>
        <time>2020-08-25T11:09:04.000Z</time>
      </trkpt>
      <trkpt lat="44.32222" lon="3.3829">
        <ele>888.1</ele>
        <time>2020-08-25T11:09:05.000Z</time>
      </trkpt>
      <trkpt lat="44.32218" lon="3.38288">
        <ele>888.4</ele>
        <time>2020-08-25T11:09:07.000Z</time>
      </trkpt>
      <trkpt lat="44.32216" lon="3.38288">
        <ele>888.5</ele>
        <time>2020-08-25T11:09:08.000Z</time>
      </trkpt>
      <trkpt lat="44.32213" lon="3.38286">
        <ele>888.8</ele>
        <time>2020-08-25T11:09:10.000Z</time>
      </trkpt>
      <trkpt lat="44.3221" lon="3.38284">
        <ele>889</ele>
        <time>2020-08-25T11:09:11.000Z</time>
      </trkpt>
      <trkpt lat="44.32209" lon="3.38284">
        <ele>889.1</ele>
        <time>2020-08-25T11:09:12.000Z</time>
      </trkpt>
      <trkpt lat="44.32205" lon="3.38282">
        <ele>889.4</ele>
        <time>2020-08-25T11:09:14.000Z</time>
      </trkpt>
      <trkpt lat="44.32202" lon="3.3828">
        <ele>889.7</ele>
        <time>2020-08-25T11:09:16.000Z</time>
      </trkpt>
      <trkpt lat="44.32198" lon="3.38278">
        <ele>890</ele>
        <time>2020-08-25T11:09:18.000Z</time>
      </trkpt>
      <trkpt lat="44.32196" lon="3.38277">
        <ele>890.1</ele>
        <time>2020-08-25T11:09:19.000Z</time>
      </trkpt>
      <trkpt lat="44.32193" lon="3.38274">
        <ele>890.4</ele>
        <time>2020-08-25T11:09:21.000Z</time>
      </trkpt>
      <trkpt lat="44.32189" lon="3.38272">
        <ele>890.6</ele>
        <time>2020-08-25T11:09:23.000Z</time>
      </trkpt>
      <trkpt lat="44.32186" lon="3.3827">
        <ele>890.9</ele>
        <time>2020-08-25T11:09:25.000Z</time>
      </trkpt>
      <trkpt lat="44.32182" lon="3.38269">
        <ele>891.2</ele>
        <time>2020-08-25T11:09:27.000Z</time>
      </trkpt>
      <trkpt lat="44.32181" lon="3.38267">
        <ele>891.3</ele>
        <time>2020-08-25T11:09:28.000Z</time>
      </trkpt>
      <trkpt lat="44.32177" lon="3.38265">
        <ele>891.6</ele>
        <time>2020-08-25T11:09:30.000Z</time>
      </trkpt>
      <trkpt lat="44.32173" lon="3.38261">
        <ele>891.9</ele>
        <time>2020-08-25T11:09:32.000Z</time>
      </trkpt>
      <trkpt lat="44.32169" lon="3.38258">
        <ele>892.3</ele>
        <time>2020-08-25T11:09:34.000Z</time>
      </trkpt>
      <trkpt lat="44.32166" lon="3.38254">
        <ele>892.6</ele>
        <time>2020-08-25T11:09:36.000Z</time>
      </trkpt>
      <trkpt lat="44.32164" lon="3.38252">
        <ele>892.8</ele>
        <time>2020-08-25T11:09:37.000Z</time>
      </trkpt>
      <trkpt lat="44.32161" lon="3.38249">
        <ele>893.1</ele>
        <time>2020-08-25T11:09:39.000Z</time>
      </trkpt>
      <trkpt lat="44.32158" lon="3.38245">
        <ele>893.4</ele>
        <time>2020-08-25T11:09:41.000Z</time>
      </trkpt>
      <trkpt lat="44.32156" lon="3.38241">
        <ele>893.7</ele>
        <time>2020-08-25T11:09:42.000Z</time>
      </trkpt>
      <trkpt lat="44.32155" lon="3.3824">
        <ele>893.7</ele>
        <time>2020-08-25T11:09:43.000Z</time>
      </trkpt>
      <trkpt lat="44.32152" lon="3.38235">
        <ele>894.1</ele>
        <time>2020-08-25T11:09:45.000Z</time>
      </trkpt>
      <trkpt lat="44.32151" lon="3.38233">
        <ele>894.3</ele>
        <time>2020-08-25T11:09:46.000Z</time>
      </trkpt>
      <trkpt lat="44.32149" lon="3.38228">
        <ele>894.6</ele>
        <time>2020-08-25T11:09:48.000Z</time>
      </trkpt>
      <trkpt lat="44.32147" lon="3.38223">
        <ele>894.9</ele>
        <time>2020-08-25T11:09:50.000Z</time>
      </trkpt>
      <trkpt lat="44.32145" lon="3.38218">
        <ele>895.2</ele>
        <time>2020-08-25T11:09:52.000Z</time>
      </trkpt>
      <trkpt lat="44.32144" lon="3.38216">
        <ele>895.4</ele>
        <time>2020-08-25T11:09:53.000Z</time>
      </trkpt>
      <trkpt lat="44.32142" lon="3.38211">
        <ele>895.7</ele>
        <time>2020-08-25T11:09:55.000Z</time>
      </trkpt>
      <trkpt lat="44.3214" lon="3.38209">
        <ele>895.8</ele>
        <time>2020-08-25T11:09:56.000Z</time>
      </trkpt>
      <trkpt lat="44.32138" lon="3.38205">
        <ele>896.1</ele>
        <time>2020-08-25T11:09:58.000Z</time>
      </trkpt>
      <trkpt lat="44.32137" lon="3.38203">
        <ele>896.2</ele>
        <time>2020-08-25T11:09:59.000Z</time>
      </trkpt>
      <trkpt lat="44.32135" lon="3.38199">
        <ele>896.5</ele>
        <time>2020-08-25T11:10:01.000Z</time>
      </trkpt>
      <trkpt lat="44.32135" lon="3.38197">
        <ele>896.6</ele>
        <time>2020-08-25T11:10:02.000Z</time>
      </trkpt>
      <trkpt lat="44.32133" lon="3.38192">
        <ele>896.9</ele>
        <time>2020-08-25T11:10:04.000Z</time>
      </trkpt>
      <trkpt lat="44.32131" lon="3.38189">
        <ele>897.1</ele>
        <time>2020-08-25T11:10:06.000Z</time>
      </trkpt>
      <trkpt lat="44.32129" lon="3.38185">
        <ele>897.4</ele>
        <time>2020-08-25T11:10:08.000Z</time>
      </trkpt>
      <trkpt lat="44.32128" lon="3.38183">
        <ele>897.5</ele>
        <time>2020-08-25T11:10:09.000Z</time>
      </trkpt>
      <trkpt lat="44.32126" lon="3.38178">
        <ele>897.8</ele>
        <time>2020-08-25T11:10:11.000Z</time>
      </trkpt>
      <trkpt lat="44.32124" lon="3.38174">
        <ele>898.1</ele>
        <time>2020-08-25T11:10:13.000Z</time>
      </trkpt>
      <trkpt lat="44.32122" lon="3.3817">
        <ele>898.4</ele>
        <time>2020-08-25T11:10:15.000Z</time>
      </trkpt>
      <trkpt lat="44.3212" lon="3.38166">
        <ele>898.7</ele>
        <time>2020-08-25T11:10:17.000Z</time>
      </trkpt>
      <trkpt lat="44.32118" lon="3.38163">
        <ele>898.9</ele>
        <time>2020-08-25T11:10:19.000Z</time>
      </trkpt>
      <trkpt lat="44.32116" lon="3.38161">
        <ele>899.1</ele>
        <time>2020-08-25T11:10:20.000Z</time>
      </trkpt>
      <trkpt lat="44.32115" lon="3.38159">
        <ele>899.2</ele>
        <time>2020-08-25T11:10:21.000Z</time>
      </trkpt>
      <trkpt lat="44.32114" lon="3.38155">
        <ele>899.5</ele>
        <time>2020-08-25T11:10:23.000Z</time>
      </trkpt>
      <trkpt lat="44.32111" lon="3.38152">
        <ele>899.7</ele>
        <time>2020-08-25T11:10:25.000Z</time>
      </trkpt>
      <trkpt lat="44.32109" lon="3.38149">
        <ele>900</ele>
        <time>2020-08-25T11:10:27.000Z</time>
      </trkpt>
      <trkpt lat="44.32108" lon="3.38147">
        <ele>900.1</ele>
        <time>2020-08-25T11:10:28.000Z</time>
      </trkpt>
      <trkpt lat="44.32106" lon="3.38144">
        <ele>900.3</ele>
        <time>2020-08-25T11:10:30.000Z</time>
      </trkpt>
      <trkpt lat="44.32104" lon="3.38141">
        <ele>900.5</ele>
        <time>2020-08-25T11:10:32.000Z</time>
      </trkpt>
      <trkpt lat="44.32102" lon="3.38139">
        <ele>900.7</ele>
        <time>2020-08-25T11:10:34.000Z</time>
      </trkpt>
      <trkpt lat="44.32101" lon="3.38137">
        <ele>900.8</ele>
        <time>2020-08-25T11:10:35.000Z</time>
      </trkpt>
      <trkpt lat="44.32099" lon="3.38134">
        <ele>901</ele>
        <time>2020-08-25T11:10:37.000Z</time>
      </trkpt>
      <trkpt lat="44.32098" lon="3.38128">
        <ele>901.1</ele>
        <time>2020-08-25T11:10:39.000Z</time>
      </trkpt>
      <trkpt lat="44.32098" lon="3.38126">
        <ele>901.1</ele>
        <time>2020-08-25T11:10:41.000Z</time>
      </trkpt>
      <trkpt lat="44.32099" lon="3.38124">
        <ele>901</ele>
        <time>2020-08-25T11:10:42.000Z</time>
      </trkpt>
      <trkpt lat="44.32099" lon="3.38119">
        <ele>900.8</ele>
        <time>2020-08-25T11:10:44.000Z</time>
      </trkpt>
      <trkpt lat="44.32099" lon="3.38118">
        <ele>900.8</ele>
        <time>2020-08-25T11:10:45.000Z</time>
      </trkpt>
      <trkpt lat="44.321" lon="3.38114">
        <ele>900.7</ele>
        <time>2020-08-25T11:10:47.000Z</time>
      </trkpt>
      <trkpt lat="44.321" lon="3.38112">
        <ele>900.6</ele>
        <time>2020-08-25T11:10:48.000Z</time>
      </trkpt>
      <trkpt lat="44.321" lon="3.38109">
        <ele>900.6</ele>
        <time>2020-08-25T11:10:50.000Z</time>
      </trkpt>
      <trkpt lat="44.321" lon="3.38105">
        <ele>900.5</ele>
        <time>2020-08-25T11:10:52.000Z</time>
      </trkpt>
      <trkpt lat="44.32101" lon="3.38104">
        <ele>900</ele>
        <time>2020-08-25T11:10:53.000Z</time>
      </trkpt>
      <trkpt lat="44.32101" lon="3.38102">
        <ele>900</ele>
        <time>2020-08-25T11:10:54.000Z</time>
      </trkpt>
      <trkpt lat="44.32101" lon="3.38102">
        <ele>900</ele>
        <time>2020-08-25T11:10:56.000Z</time>
      </trkpt>
      <trkpt lat="44.32101" lon="3.38103">
        <ele>900</ele>
        <time>2020-08-25T11:10:57.000Z</time>
      </trkpt>
      <trkpt lat="44.32101" lon="3.38103">
        <ele>900</ele>
        <time>2020-08-25T11:10:58.000Z</time>
      </trkpt>
      <trkpt lat="44.32101" lon="3.38104">
        <ele>900</ele>
        <time>2020-08-25T11:10:59.000Z</time>
      </trkpt>
      <trkpt lat="44.32101" lon="3.38104">
        <ele>900</ele>
        <time>2020-08-25T11:11:00.000Z</time>
      </trkpt>
      <trkpt lat="44.32101" lon="3.38102">
        <ele>900</ele>
        <time>2020-08-25T11:11:02.000Z</time>
      </trkpt>
      <trkpt lat="44.32101" lon="3.38102">
        <ele>900</ele>
        <time>2020-08-25T11:11:03.000Z</time>
      </trkpt>
      <trkpt lat="44.32101" lon="3.38102">
        <ele>900</ele>
        <time>2020-08-25T11:11:05.000Z</time>
      </trkpt>
      <trkpt lat="44.32101" lon="3.38102">
        <ele>900</ele>
        <time>2020-08-25T11:11:07.000Z</time>
      </trkpt>
      <trkpt lat="44.32101" lon="3.38103">
        <ele>900</ele>
        <time>2020-08-25T11:11:09.000Z</time>
      </trkpt>
      <trkpt lat="44.32101" lon="3.38103">
        <ele>900</ele>
        <time>2020-08-25T11:11:11.000Z</time>
      </trkpt>
      <trkpt lat="44.32101" lon="3.38104">
        <ele>900</ele>
        <time>2020-08-25T11:11:12.000Z</time>
      </trkpt>
      <trkpt lat="44.32101" lon="3.38102">
        <ele>900</ele>
        <time>2020-08-25T11:11:17.000Z</time>
      </trkpt>
      <trkpt lat="44.32101" lon="3.38102">
        <ele>900</ele>
        <time>2020-08-25T11:11:18.000Z</time>
      </trkpt>
      <trkpt lat="44.32102" lon="3.38103">
        <ele>900</ele>
        <time>2020-08-25T11:11:20.000Z</time>
      </trkpt>
      <trkpt lat="44.32104" lon="3.38104">
        <ele>900</ele>
        <time>2020-08-25T11:11:22.000Z</time>
      </trkpt>
      <trkpt lat="44.32105" lon="3.38105">
        <ele>900</ele>
        <time>2020-08-25T11:11:23.000Z</time>
      </trkpt>
      <trkpt lat="44.32106" lon="3.38105">
        <ele>900</ele>
        <time>2020-08-25T11:11:24.000Z</time>
      </trkpt>
      <trkpt lat="44.32108" lon="3.38106">
        <ele>900</ele>
        <time>2020-08-25T11:11:25.000Z</time>
      </trkpt>
      <trkpt lat="44.3211" lon="3.38106">
        <ele>900</ele>
        <time>2020-08-25T11:11:27.000Z</time>
      </trkpt>
      <trkpt lat="44.3211" lon="3.38107">
        <ele>900</ele>
        <time>2020-08-25T11:11:29.000Z</time>
      </trkpt>
      <trkpt lat="44.3211" lon="3.38108">
        <ele>900</ele>
        <time>2020-08-25T11:11:30.000Z</time>
      </trkpt>
      <trkpt lat="44.3211" lon="3.38108">
        <ele>900</ele>
        <time>2020-08-25T11:11:31.000Z</time>
      </trkpt>
      <trkpt lat="44.3211" lon="3.38108">
        <ele>900</ele>
        <time>2020-08-25T11:11:32.000Z</time>
      </trkpt>
      <trkpt lat="44.32109" lon="3.38109">
        <ele>900</ele>
        <time>2020-08-25T11:11:34.000Z</time>
      </trkpt>
      <trkpt lat="44.32109" lon="3.38109">
        <ele>900</ele>
        <time>2020-08-25T11:11:35.000Z</time>
      </trkpt>
      <trkpt lat="44.32109" lon="3.38109">
        <ele>900</ele>
        <time>2020-08-25T11:11:36.000Z</time>
      </trkpt>
      <trkpt lat="44.32109" lon="3.38109">
        <ele>900</ele>
        <time>2020-08-25T11:11:38.000Z</time>
      </trkpt>
      <trkpt lat="44.3211" lon="3.38109">
        <ele>900</ele>
        <time>2020-08-25T11:11:40.000Z</time>
      </trkpt>
      <trkpt lat="44.32108" lon="3.38108">
        <ele>900</ele>
        <time>2020-08-25T11:13:26.000Z</time>
      </trkpt>
      <trkpt lat="44.32107" lon="3.38107">
        <ele>900</ele>
        <time>2020-08-25T11:13:28.000Z</time>
      </trkpt>
      <trkpt lat="44.32106" lon="3.38107">
        <ele>900</ele>
        <time>2020-08-25T11:13:29.000Z</time>
      </trkpt>
      <trkpt lat="44.32105" lon="3.38107">
        <ele>900</ele>
        <time>2020-08-25T11:13:31.000Z</time>
      </trkpt>
      <trkpt lat="44.32105" lon="3.38107">
        <ele>900</ele>
        <time>2020-08-25T11:13:32.000Z</time>
      </trkpt>
      <trkpt lat="44.32105" lon="3.38107">
        <ele>900</ele>
        <time>2020-08-25T11:13:33.000Z</time>
      </trkpt>
      <trkpt lat="44.32105" lon="3.38107">
        <ele>900</ele>
        <time>2020-08-25T11:13:34.000Z</time>
      </trkpt>
      <trkpt lat="44.32104" lon="3.38106">
        <ele>900</ele>
        <time>2020-08-25T11:13:36.000Z</time>
      </trkpt>
      <trkpt lat="44.32104" lon="3.38106">
        <ele>900</ele>
        <time>2020-08-25T11:13:37.000Z</time>
      </trkpt>
      <trkpt lat="44.32104" lon="3.38106">
        <ele>900</ele>
        <time>2020-08-25T11:13:38.000Z</time>
      </trkpt>
      <trkpt lat="44.32104" lon="3.38106">
        <ele>900</ele>
        <time>2020-08-25T11:55:44.000Z</time>
      </trkpt>
      <trkpt lat="44.32105" lon="3.38107">
        <ele>900</ele>
        <time>2020-08-25T11:55:46.000Z</time>
      </trkpt>
      <trkpt lat="44.32106" lon="3.38107">
        <ele>900</ele>
        <time>2020-08-25T11:55:47.000Z</time>
      </trkpt>
      <trkpt lat="44.32107" lon="3.38108">
        <ele>900</ele>
        <time>2020-08-25T11:55:49.000Z</time>
      </trkpt>
      <trkpt lat="44.32109" lon="3.38109">
        <ele>900</ele>
        <time>2020-08-25T11:55:51.000Z</time>
      </trkpt>
      <trkpt lat="44.3211" lon="3.3811">
        <ele>900</ele>
        <time>2020-08-25T11:55:52.000Z</time>
      </trkpt>
      <trkpt lat="44.32111" lon="3.3811">
        <ele>900</ele>
        <time>2020-08-25T11:55:54.000Z</time>
      </trkpt>
      <trkpt lat="44.32111" lon="3.3811">
        <ele>900</ele>
        <time>2020-08-25T11:55:55.000Z</time>
      </trkpt>
      <trkpt lat="44.32112" lon="3.3811">
        <ele>900</ele>
        <time>2020-08-25T11:55:57.000Z</time>
      </trkpt>
      <trkpt lat="44.32112" lon="3.3811">
        <ele>900</ele>
        <time>2020-08-25T11:55:58.000Z</time>
      </trkpt>
      <trkpt lat="44.32112" lon="3.38109">
        <ele>900</ele>
        <time>2020-08-25T11:56:00.000Z</time>
      </trkpt>
      <trkpt lat="44.32112" lon="3.38109">
        <ele>900</ele>
        <time>2020-08-25T11:56:01.000Z</time>
      </trkpt>
      <trkpt lat="44.32112" lon="3.38109">
        <ele>900</ele>
        <time>2020-08-25T11:56:03.000Z</time>
      </trkpt>
      <trkpt lat="44.3211" lon="3.38111">
        <ele>900</ele>
        <time>2020-08-25T11:59:56.000Z</time>
      </trkpt>
      <trkpt lat="44.32108" lon="3.38111">
        <ele>900</ele>
        <time>2020-08-25T11:59:58.000Z</time>
      </trkpt>
      <trkpt lat="44.32108" lon="3.3811">
        <ele>900</ele>
        <time>2020-08-25T11:59:59.000Z</time>
      </trkpt>
      <trkpt lat="44.32107" lon="3.3811">
        <ele>900</ele>
        <time>2020-08-25T12:00:01.000Z</time>
      </trkpt>
      <trkpt lat="44.32107" lon="3.3811">
        <ele>900</ele>
        <time>2020-08-25T12:00:02.000Z</time>
      </trkpt>
      <trkpt lat="44.32107" lon="3.3811">
        <ele>900</ele>
        <time>2020-08-25T12:00:04.000Z</time>
      </trkpt>
      <trkpt lat="44.32107" lon="3.3811">
        <ele>900</ele>
        <time>2020-08-25T12:00:06.000Z</time>
      </trkpt>
      <trkpt lat="44.32106" lon="3.3811">
        <ele>900</ele>
        <time>2020-08-25T12:00:08.000Z</time>
      </trkpt>
      <trkpt lat="44.32106" lon="3.38111">
        <ele>900</ele>
        <time>2020-08-25T12:00:09.000Z</time>
      </trkpt>
      <trkpt lat="44.32104" lon="3.38113">
        <ele>900</ele>
        <time>2020-08-25T12:00:11.000Z</time>
      </trkpt>
      <trkpt lat="44.32103" lon="3.38113">
        <ele>900</ele>
        <time>2020-08-25T12:00:12.000Z</time>
      </trkpt>
      <trkpt lat="44.32101" lon="3.38115">
        <ele>900</ele>
        <time>2020-08-25T12:00:14.000Z</time>
      </trkpt>
      <trkpt lat="44.32101" lon="3.38115">
        <ele>900</ele>
        <time>2020-08-25T12:00:15.000Z</time>
      </trkpt>
      <trkpt lat="44.321" lon="3.38115">
        <ele>900</ele>
        <time>2020-08-25T12:00:16.000Z</time>
      </trkpt>
      <trkpt lat="44.32098" lon="3.38115">
        <ele>900</ele>
        <time>2020-08-25T12:00:18.000Z</time>
      </trkpt>
      <trkpt lat="44.32096" lon="3.38115">
        <ele>900</ele>
        <time>2020-08-25T12:00:19.000Z</time>
      </trkpt>
      <trkpt lat="44.32094" lon="3.38115">
        <ele>900.2</ele>
        <time>2020-08-25T12:00:21.000Z</time>
      </trkpt>
      <trkpt lat="44.32094" lon="3.38115">
        <ele>900.3</ele>
        <time>2020-08-25T12:00:22.000Z</time>
      </trkpt>
      <trkpt lat="44.32092" lon="3.38115">
        <ele>900.5</ele>
        <time>2020-08-25T12:00:24.000Z</time>
      </trkpt>
      <trkpt lat="44.32091" lon="3.38113">
        <ele>900.6</ele>
        <time>2020-08-25T12:00:26.000Z</time>
      </trkpt>
      <trkpt lat="44.32091" lon="3.38113">
        <ele>900.7</ele>
        <time>2020-08-25T12:00:28.000Z</time>
      </trkpt>
      <trkpt lat="44.3209" lon="3.38112">
        <ele>900.7</ele>
        <time>2020-08-25T12:00:29.000Z</time>
      </trkpt>
      <trkpt lat="44.3209" lon="3.38112">
        <ele>900.8</ele>
        <time>2020-08-25T12:00:30.000Z</time>
      </trkpt>
      <trkpt lat="44.32089" lon="3.38112">
        <ele>900.8</ele>
        <time>2020-08-25T12:00:31.000Z</time>
      </trkpt>
      <trkpt lat="44.32089" lon="3.38111">
        <ele>900.9</ele>
        <time>2020-08-25T12:00:33.000Z</time>
      </trkpt>
      <trkpt lat="44.32088" lon="3.38111">
        <ele>901</ele>
        <time>2020-08-25T12:00:34.000Z</time>
      </trkpt>
      <trkpt lat="44.32087" lon="3.3811">
        <ele>901.1</ele>
        <time>2020-08-25T12:00:35.000Z</time>
      </trkpt>
      <trkpt lat="44.32086" lon="3.38109">
        <ele>901.2</ele>
        <time>2020-08-25T12:00:37.000Z</time>
      </trkpt>
      <trkpt lat="44.32085" lon="3.38109">
        <ele>901.3</ele>
        <time>2020-08-25T12:00:38.000Z</time>
      </trkpt>
      <trkpt lat="44.32084" lon="3.38109">
        <ele>901.3</ele>
        <time>2020-08-25T12:00:39.000Z</time>
      </trkpt>
      <trkpt lat="44.32082" lon="3.38108">
        <ele>901.5</ele>
        <time>2020-08-25T12:00:41.000Z</time>
      </trkpt>
      <trkpt lat="44.32081" lon="3.38108">
        <ele>901.6</ele>
        <time>2020-08-25T12:00:42.000Z</time>
      </trkpt>
      <trkpt lat="44.32078" lon="3.38107">
        <ele>901.8</ele>
        <time>2020-08-25T12:00:44.000Z</time>
      </trkpt>
      <trkpt lat="44.32076" lon="3.38108">
        <ele>902</ele>
        <time>2020-08-25T12:00:45.000Z</time>
      </trkpt>
      <trkpt lat="44.32071" lon="3.38108">
        <ele>902.3</ele>
        <time>2020-08-25T12:00:47.000Z</time>
      </trkpt>
      <trkpt lat="44.32066" lon="3.38109">
        <ele>902.5</ele>
        <time>2020-08-25T12:00:48.000Z</time>
      </trkpt>
      <trkpt lat="44.3206" lon="3.3811">
        <ele>902.7</ele>
        <time>2020-08-25T12:00:50.000Z</time>
      </trkpt>
      <trkpt lat="44.32057" lon="3.3811">
        <ele>902.8</ele>
        <time>2020-08-25T12:00:51.000Z</time>
      </trkpt>
      <trkpt lat="44.32052" lon="3.38111">
        <ele>902.9</ele>
        <time>2020-08-25T12:00:53.000Z</time>
      </trkpt>
      <trkpt lat="44.32048" lon="3.38112">
        <ele>903.1</ele>
        <time>2020-08-25T12:00:55.000Z</time>
      </trkpt>
      <trkpt lat="44.32045" lon="3.38114">
        <ele>903.2</ele>
        <time>2020-08-25T12:00:56.000Z</time>
      </trkpt>
      <trkpt lat="44.32045" lon="3.38115">
        <ele>903.2</ele>
        <time>2020-08-25T12:00:57.000Z</time>
      </trkpt>
      <trkpt lat="44.32041" lon="3.38116">
        <ele>903.3</ele>
        <time>2020-08-25T12:00:59.000Z</time>
      </trkpt>
      <trkpt lat="44.32037" lon="3.38117">
        <ele>903.4</ele>
        <time>2020-08-25T12:01:01.000Z</time>
      </trkpt>
      <trkpt lat="44.32034" lon="3.38118">
        <ele>903.5</ele>
        <time>2020-08-25T12:01:03.000Z</time>
      </trkpt>
      <trkpt lat="44.32031" lon="3.38119">
        <ele>903.6</ele>
        <time>2020-08-25T12:01:04.000Z</time>
      </trkpt>
      <trkpt lat="44.32027" lon="3.38121">
        <ele>903.6</ele>
        <time>2020-08-25T12:01:06.000Z</time>
      </trkpt>
      <trkpt lat="44.32024" lon="3.38123">
        <ele>903.7</ele>
        <time>2020-08-25T12:01:07.000Z</time>
      </trkpt>
      <trkpt lat="44.32023" lon="3.38123">
        <ele>903.7</ele>
        <time>2020-08-25T12:01:08.000Z</time>
      </trkpt>
      <trkpt lat="44.32019" lon="3.38125">
        <ele>903.8</ele>
        <time>2020-08-25T12:01:10.000Z</time>
      </trkpt>
      <trkpt lat="44.32014" lon="3.38126">
        <ele>903.8</ele>
        <time>2020-08-25T12:01:12.000Z</time>
      </trkpt>
      <trkpt lat="44.32011" lon="3.38128">
        <ele>903.9</ele>
        <time>2020-08-25T12:01:13.000Z</time>
      </trkpt>
      <trkpt lat="44.3201" lon="3.38128">
        <ele>903.9</ele>
        <time>2020-08-25T12:01:14.000Z</time>
      </trkpt>
      <trkpt lat="44.32008" lon="3.3813">
        <ele>903.9</ele>
        <time>2020-08-25T12:01:15.000Z</time>
      </trkpt>
      <trkpt lat="44.32003" lon="3.38133">
        <ele>904</ele>
        <time>2020-08-25T12:01:17.000Z</time>
      </trkpt>
      <trkpt lat="44.32001" lon="3.38134">
        <ele>904.1</ele>
        <time>2020-08-25T12:01:18.000Z</time>
      </trkpt>
      <trkpt lat="44.31997" lon="3.38136">
        <ele>904.2</ele>
        <time>2020-08-25T12:01:20.000Z</time>
      </trkpt>
      <trkpt lat="44.31992" lon="3.38138">
        <ele>904.3</ele>
        <time>2020-08-25T12:01:22.000Z</time>
      </trkpt>
      <trkpt lat="44.31989" lon="3.3814">
        <ele>904.3</ele>
        <time>2020-08-25T12:01:23.000Z</time>
      </trkpt>
      <trkpt lat="44.31985" lon="3.38142">
        <ele>904.4</ele>
        <time>2020-08-25T12:01:25.000Z</time>
      </trkpt>
      <trkpt lat="44.31981" lon="3.38144">
        <ele>904.5</ele>
        <time>2020-08-25T12:01:26.000Z</time>
      </trkpt>
      <trkpt lat="44.3198" lon="3.38145">
        <ele>904.5</ele>
        <time>2020-08-25T12:01:27.000Z</time>
      </trkpt>
      <trkpt lat="44.31975" lon="3.38147">
        <ele>904.5</ele>
        <time>2020-08-25T12:01:29.000Z</time>
      </trkpt>
      <trkpt lat="44.31972" lon="3.38148">
        <ele>904.5</ele>
        <time>2020-08-25T12:01:30.000Z</time>
      </trkpt>
      <trkpt lat="44.31971" lon="3.38149">
        <ele>904.5</ele>
        <time>2020-08-25T12:01:31.000Z</time>
      </trkpt>
      <trkpt lat="44.31966" lon="3.38151">
        <ele>904.6</ele>
        <time>2020-08-25T12:01:33.000Z</time>
      </trkpt>
      <trkpt lat="44.31964" lon="3.38152">
        <ele>904.6</ele>
        <time>2020-08-25T12:01:34.000Z</time>
      </trkpt>
      <trkpt lat="44.31961" lon="3.38154">
        <ele>904.6</ele>
        <time>2020-08-25T12:01:36.000Z</time>
      </trkpt>
      <trkpt lat="44.31959" lon="3.38155">
        <ele>904.6</ele>
        <time>2020-08-25T12:01:37.000Z</time>
      </trkpt>
      <trkpt lat="44.31955" lon="3.38158">
        <ele>904.6</ele>
        <time>2020-08-25T12:01:39.000Z</time>
      </trkpt>
      <trkpt lat="44.3195" lon="3.38162">
        <ele>904.6</ele>
        <time>2020-08-25T12:01:41.000Z</time>
      </trkpt>
      <trkpt lat="44.31949" lon="3.38163">
        <ele>904.7</ele>
        <time>2020-08-25T12:01:42.000Z</time>
      </trkpt>
      <trkpt lat="44.31945" lon="3.38166">
        <ele>904.7</ele>
        <time>2020-08-25T12:01:44.000Z</time>
      </trkpt>
      <trkpt lat="44.31942" lon="3.38168">
        <ele>904.7</ele>
        <time>2020-08-25T12:01:45.000Z</time>
      </trkpt>
      <trkpt lat="44.3194" lon="3.38169">
        <ele>904.8</ele>
        <time>2020-08-25T12:01:46.000Z</time>
      </trkpt>
      <trkpt lat="44.31938" lon="3.38171">
        <ele>904.8</ele>
        <time>2020-08-25T12:01:47.000Z</time>
      </trkpt>
      <trkpt lat="44.31933" lon="3.38175">
        <ele>904.8</ele>
        <time>2020-08-25T12:01:49.000Z</time>
      </trkpt>
      <trkpt lat="44.31932" lon="3.38176">
        <ele>904.9</ele>
        <time>2020-08-25T12:01:50.000Z</time>
      </trkpt>
      <trkpt lat="44.31929" lon="3.38179">
        <ele>904.9</ele>
        <time>2020-08-25T12:01:52.000Z</time>
      </trkpt>
      <trkpt lat="44.31925" lon="3.38182">
        <ele>905</ele>
        <time>2020-08-25T12:01:54.000Z</time>
      </trkpt>
      <trkpt lat="44.31924" lon="3.38184">
        <ele>905</ele>
        <time>2020-08-25T12:01:55.000Z</time>
      </trkpt>
      <trkpt lat="44.3192" lon="3.38187">
        <ele>905.1</ele>
        <time>2020-08-25T12:01:57.000Z</time>
      </trkpt>
      <trkpt lat="44.31918" lon="3.38188">
        <ele>905.2</ele>
        <time>2020-08-25T12:01:58.000Z</time>
      </trkpt>
      <trkpt lat="44.31913" lon="3.38192">
        <ele>905.3</ele>
        <time>2020-08-25T12:02:00.000Z</time>
      </trkpt>
      <trkpt lat="44.3191" lon="3.38196">
        <ele>905.4</ele>
        <time>2020-08-25T12:02:02.000Z</time>
      </trkpt>
      <trkpt lat="44.31907" lon="3.38199">
        <ele>905.4</ele>
        <time>2020-08-25T12:02:03.000Z</time>
      </trkpt>
      <trkpt lat="44.31906" lon="3.382">
        <ele>905.5</ele>
        <time>2020-08-25T12:02:04.000Z</time>
      </trkpt>
      <trkpt lat="44.31902" lon="3.38205">
        <ele>905.6</ele>
        <time>2020-08-25T12:02:06.000Z</time>
      </trkpt>
      <trkpt lat="44.31898" lon="3.38209">
        <ele>905.6</ele>
        <time>2020-08-25T12:02:08.000Z</time>
      </trkpt>
      <trkpt lat="44.31895" lon="3.38212">
        <ele>905.7</ele>
        <time>2020-08-25T12:02:09.000Z</time>
      </trkpt>
      <trkpt lat="44.31894" lon="3.38213">
        <ele>905.8</ele>
        <time>2020-08-25T12:02:10.000Z</time>
      </trkpt>
      <trkpt lat="44.31889" lon="3.38217">
        <ele>905.9</ele>
        <time>2020-08-25T12:02:12.000Z</time>
      </trkpt>
      <trkpt lat="44.31884" lon="3.38222">
        <ele>906.1</ele>
        <time>2020-08-25T12:02:14.000Z</time>
      </trkpt>
      <trkpt lat="44.3188" lon="3.38225">
        <ele>906.2</ele>
        <time>2020-08-25T12:02:16.000Z</time>
      </trkpt>
      <trkpt lat="44.31879" lon="3.38227">
        <ele>906.2</ele>
        <time>2020-08-25T12:02:17.000Z</time>
      </trkpt>
      <trkpt lat="44.31874" lon="3.38232">
        <ele>906.4</ele>
        <time>2020-08-25T12:02:19.000Z</time>
      </trkpt>
      <trkpt lat="44.31871" lon="3.38236">
        <ele>906.5</ele>
        <time>2020-08-25T12:02:21.000Z</time>
      </trkpt>
      <trkpt lat="44.31869" lon="3.38238">
        <ele>906.6</ele>
        <time>2020-08-25T12:02:22.000Z</time>
      </trkpt>
      <trkpt lat="44.31865" lon="3.38242">
        <ele>906.7</ele>
        <time>2020-08-25T12:02:24.000Z</time>
      </trkpt>
      <trkpt lat="44.31862" lon="3.38245">
        <ele>906.8</ele>
        <time>2020-08-25T12:02:25.000Z</time>
      </trkpt>
      <trkpt lat="44.31859" lon="3.38248">
        <ele>907</ele>
        <time>2020-08-25T12:02:26.000Z</time>
      </trkpt>
      <trkpt lat="44.31858" lon="3.38249">
        <ele>907</ele>
        <time>2020-08-25T12:02:27.000Z</time>
      </trkpt>
      <trkpt lat="44.31854" lon="3.38253">
        <ele>907.2</ele>
        <time>2020-08-25T12:02:29.000Z</time>
      </trkpt>
      <trkpt lat="44.31851" lon="3.38255">
        <ele>907.3</ele>
        <time>2020-08-25T12:02:30.000Z</time>
      </trkpt>
      <trkpt lat="44.31846" lon="3.38259">
        <ele>907.5</ele>
        <time>2020-08-25T12:02:32.000Z</time>
      </trkpt>
      <trkpt lat="44.31841" lon="3.38261">
        <ele>907.7</ele>
        <time>2020-08-25T12:02:34.000Z</time>
      </trkpt>
      <trkpt lat="44.31839" lon="3.38262">
        <ele>907.7</ele>
        <time>2020-08-25T12:02:35.000Z</time>
      </trkpt>
      <trkpt lat="44.31834" lon="3.38264">
        <ele>907.9</ele>
        <time>2020-08-25T12:02:37.000Z</time>
      </trkpt>
      <trkpt lat="44.31828" lon="3.38266">
        <ele>908.1</ele>
        <time>2020-08-25T12:02:39.000Z</time>
      </trkpt>
      <trkpt lat="44.31824" lon="3.38266">
        <ele>908.2</ele>
        <time>2020-08-25T12:02:41.000Z</time>
      </trkpt>
      <trkpt lat="44.31821" lon="3.38265">
        <ele>908.3</ele>
        <time>2020-08-25T12:02:42.000Z</time>
      </trkpt>
      <trkpt lat="44.31816" lon="3.38264">
        <ele>908.5</ele>
        <time>2020-08-25T12:02:44.000Z</time>
      </trkpt>
      <trkpt lat="44.31813" lon="3.38263">
        <ele>908.6</ele>
        <time>2020-08-25T12:02:45.000Z</time>
      </trkpt>
      <trkpt lat="44.31811" lon="3.38262">
        <ele>908.6</ele>
        <time>2020-08-25T12:02:46.000Z</time>
      </trkpt>
      <trkpt lat="44.31807" lon="3.38261">
        <ele>908.7</ele>
        <time>2020-08-25T12:02:48.000Z</time>
      </trkpt>
      <trkpt lat="44.31802" lon="3.38259">
        <ele>908.8</ele>
        <time>2020-08-25T12:02:50.000Z</time>
      </trkpt>
      <trkpt lat="44.31798" lon="3.38257">
        <ele>908.8</ele>
        <time>2020-08-25T12:02:51.000Z</time>
      </trkpt>
      <trkpt lat="44.31797" lon="3.38257">
        <ele>908.9</ele>
        <time>2020-08-25T12:02:52.000Z</time>
      </trkpt>
      <trkpt lat="44.31793" lon="3.38254">
        <ele>909</ele>
        <time>2020-08-25T12:02:54.000Z</time>
      </trkpt>
      <trkpt lat="44.31788" lon="3.38251">
        <ele>909.2</ele>
        <time>2020-08-25T12:02:56.000Z</time>
      </trkpt>
      <trkpt lat="44.31782" lon="3.38249">
        <ele>909.3</ele>
        <time>2020-08-25T12:02:58.000Z</time>
      </trkpt>
      <trkpt lat="44.31778" lon="3.38247">
        <ele>909.5</ele>
        <time>2020-08-25T12:03:00.000Z</time>
      </trkpt>
      <trkpt lat="44.31773" lon="3.38246">
        <ele>909.6</ele>
        <time>2020-08-25T12:03:02.000Z</time>
      </trkpt>
      <trkpt lat="44.31767" lon="3.38243">
        <ele>909.9</ele>
        <time>2020-08-25T12:03:04.000Z</time>
      </trkpt>
      <trkpt lat="44.31762" lon="3.38241">
        <ele>910.1</ele>
        <time>2020-08-25T12:03:06.000Z</time>
      </trkpt>
      <trkpt lat="44.31757" lon="3.3824">
        <ele>910.3</ele>
        <time>2020-08-25T12:03:08.000Z</time>
      </trkpt>
      <trkpt lat="44.31751" lon="3.38239">
        <ele>910.5</ele>
        <time>2020-08-25T12:03:10.000Z</time>
      </trkpt>
      <trkpt lat="44.31746" lon="3.38237">
        <ele>910.7</ele>
        <time>2020-08-25T12:03:12.000Z</time>
      </trkpt>
      <trkpt lat="44.31743" lon="3.38237">
        <ele>910.8</ele>
        <time>2020-08-25T12:03:13.000Z</time>
      </trkpt>
      <trkpt lat="44.31741" lon="3.38236">
        <ele>910.9</ele>
        <time>2020-08-25T12:03:14.000Z</time>
      </trkpt>
      <trkpt lat="44.31737" lon="3.38235">
        <ele>911</ele>
        <time>2020-08-25T12:03:15.000Z</time>
      </trkpt>
      <trkpt lat="44.31736" lon="3.38234">
        <ele>911.1</ele>
        <time>2020-08-25T12:03:16.000Z</time>
      </trkpt>
      <trkpt lat="44.31731" lon="3.38234">
        <ele>911.3</ele>
        <time>2020-08-25T12:03:18.000Z</time>
      </trkpt>
      <trkpt lat="44.31728" lon="3.38233">
        <ele>911.4</ele>
        <time>2020-08-25T12:03:19.000Z</time>
      </trkpt>
      <trkpt lat="44.31723" lon="3.38232">
        <ele>911.6</ele>
        <time>2020-08-25T12:03:21.000Z</time>
      </trkpt>
      <trkpt lat="44.31718" lon="3.38231">
        <ele>911.8</ele>
        <time>2020-08-25T12:03:23.000Z</time>
      </trkpt>
      <trkpt lat="44.31713" lon="3.3823">
        <ele>912</ele>
        <time>2020-08-25T12:03:25.000Z</time>
      </trkpt>
      <trkpt lat="44.3171" lon="3.3823">
        <ele>912.2</ele>
        <time>2020-08-25T12:03:26.000Z</time>
      </trkpt>
      <trkpt lat="44.31708" lon="3.38229">
        <ele>912.3</ele>
        <time>2020-08-25T12:03:27.000Z</time>
      </trkpt>
      <trkpt lat="44.31706" lon="3.38229">
        <ele>912.4</ele>
        <time>2020-08-25T12:03:28.000Z</time>
      </trkpt>
      <trkpt lat="44.31702" lon="3.38228">
        <ele>912.6</ele>
        <time>2020-08-25T12:03:30.000Z</time>
      </trkpt>
      <trkpt lat="44.31696" lon="3.38227">
        <ele>912.9</ele>
        <time>2020-08-25T12:03:32.000Z</time>
      </trkpt>
      <trkpt lat="44.31692" lon="3.38226">
        <ele>913</ele>
        <time>2020-08-25T12:03:34.000Z</time>
      </trkpt>
      <trkpt lat="44.31688" lon="3.38225">
        <ele>913.1</ele>
        <time>2020-08-25T12:03:36.000Z</time>
      </trkpt>
      <trkpt lat="44.31682" lon="3.38224">
        <ele>913.3</ele>
        <time>2020-08-25T12:03:38.000Z</time>
      </trkpt>
      <trkpt lat="44.31678" lon="3.38223">
        <ele>913.5</ele>
        <time>2020-08-25T12:03:40.000Z</time>
      </trkpt>
      <trkpt lat="44.31674" lon="3.38222">
        <ele>913.7</ele>
        <time>2020-08-25T12:03:42.000Z</time>
      </trkpt>
      <trkpt lat="44.31671" lon="3.38222">
        <ele>913.8</ele>
        <time>2020-08-25T12:03:43.000Z</time>
      </trkpt>
      <trkpt lat="44.31666" lon="3.38221">
        <ele>914</ele>
        <time>2020-08-25T12:03:45.000Z</time>
      </trkpt>
      <trkpt lat="44.31662" lon="3.38219">
        <ele>914.2</ele>
        <time>2020-08-25T12:03:47.000Z</time>
      </trkpt>
      <trkpt lat="44.31659" lon="3.38218">
        <ele>914.4</ele>
        <time>2020-08-25T12:03:48.000Z</time>
      </trkpt>
      <trkpt lat="44.31654" lon="3.38218">
        <ele>914.6</ele>
        <time>2020-08-25T12:03:50.000Z</time>
      </trkpt>
      <trkpt lat="44.3165" lon="3.38217">
        <ele>914.8</ele>
        <time>2020-08-25T12:03:51.000Z</time>
      </trkpt>
      <trkpt lat="44.31646" lon="3.38217">
        <ele>914.9</ele>
        <time>2020-08-25T12:03:53.000Z</time>
      </trkpt>
      <trkpt lat="44.31642" lon="3.38216">
        <ele>915.1</ele>
        <time>2020-08-25T12:03:55.000Z</time>
      </trkpt>
      <trkpt lat="44.31637" lon="3.38216">
        <ele>915.3</ele>
        <time>2020-08-25T12:03:56.000Z</time>
      </trkpt>
      <trkpt lat="44.31635" lon="3.38216">
        <ele>915.3</ele>
        <time>2020-08-25T12:03:57.000Z</time>
      </trkpt>
      <trkpt lat="44.31631" lon="3.38216">
        <ele>915.4</ele>
        <time>2020-08-25T12:03:59.000Z</time>
      </trkpt>
      <trkpt lat="44.31629" lon="3.38215">
        <ele>915.5</ele>
        <time>2020-08-25T12:04:00.000Z</time>
      </trkpt>
      <trkpt lat="44.31624" lon="3.38215">
        <ele>915.7</ele>
        <time>2020-08-25T12:04:02.000Z</time>
      </trkpt>
      <trkpt lat="44.31618" lon="3.38214">
        <ele>915.9</ele>
        <time>2020-08-25T12:04:04.000Z</time>
      </trkpt>
      <trkpt lat="44.31616" lon="3.38214">
        <ele>916</ele>
        <time>2020-08-25T12:04:05.000Z</time>
      </trkpt>
      <trkpt lat="44.31611" lon="3.38215">
        <ele>916.2</ele>
        <time>2020-08-25T12:04:07.000Z</time>
      </trkpt>
      <trkpt lat="44.31606" lon="3.38216">
        <ele>916.4</ele>
        <time>2020-08-25T12:04:09.000Z</time>
      </trkpt>
      <trkpt lat="44.31602" lon="3.38217">
        <ele>916.5</ele>
        <time>2020-08-25T12:04:10.000Z</time>
      </trkpt>
      <trkpt lat="44.31601" lon="3.38217">
        <ele>916.5</ele>
        <time>2020-08-25T12:04:11.000Z</time>
      </trkpt>
      <trkpt lat="44.31597" lon="3.38218">
        <ele>916.7</ele>
        <time>2020-08-25T12:04:13.000Z</time>
      </trkpt>
      <trkpt lat="44.31592" lon="3.38218">
        <ele>916.8</ele>
        <time>2020-08-25T12:04:15.000Z</time>
      </trkpt>
      <trkpt lat="44.31589" lon="3.38219">
        <ele>916.8</ele>
        <time>2020-08-25T12:04:16.000Z</time>
      </trkpt>
      <trkpt lat="44.31585" lon="3.3822">
        <ele>917</ele>
        <time>2020-08-25T12:04:18.000Z</time>
      </trkpt>
      <trkpt lat="44.31581" lon="3.38221">
        <ele>917.1</ele>
        <time>2020-08-25T12:04:19.000Z</time>
      </trkpt>
      <trkpt lat="44.3158" lon="3.38222">
        <ele>917.2</ele>
        <time>2020-08-25T12:04:20.000Z</time>
      </trkpt>
      <trkpt lat="44.31578" lon="3.38222">
        <ele>917.3</ele>
        <time>2020-08-25T12:04:21.000Z</time>
      </trkpt>
      <trkpt lat="44.31572" lon="3.38225">
        <ele>917.6</ele>
        <time>2020-08-25T12:04:23.000Z</time>
      </trkpt>
      <trkpt lat="44.31568" lon="3.38227">
        <ele>917.9</ele>
        <time>2020-08-25T12:04:25.000Z</time>
      </trkpt>
      <trkpt lat="44.31563" lon="3.38228">
        <ele>918.1</ele>
        <time>2020-08-25T12:04:27.000Z</time>
      </trkpt>
      <trkpt lat="44.31558" lon="3.38229">
        <ele>918.4</ele>
        <time>2020-08-25T12:04:29.000Z</time>
      </trkpt>
      <trkpt lat="44.31553" lon="3.38231">
        <ele>918.6</ele>
        <time>2020-08-25T12:04:31.000Z</time>
      </trkpt>
      <trkpt lat="44.31551" lon="3.38231">
        <ele>918.7</ele>
        <time>2020-08-25T12:04:32.000Z</time>
      </trkpt>
      <trkpt lat="44.31546" lon="3.38233">
        <ele>918.9</ele>
        <time>2020-08-25T12:04:34.000Z</time>
      </trkpt>
      <trkpt lat="44.31543" lon="3.38234">
        <ele>919.1</ele>
        <time>2020-08-25T12:04:35.000Z</time>
      </trkpt>
      <trkpt lat="44.31542" lon="3.38234">
        <ele>919.1</ele>
        <time>2020-08-25T12:04:36.000Z</time>
      </trkpt>
      <trkpt lat="44.31537" lon="3.38235">
        <ele>919.3</ele>
        <time>2020-08-25T12:04:38.000Z</time>
      </trkpt>
      <trkpt lat="44.31533" lon="3.38237">
        <ele>919.5</ele>
        <time>2020-08-25T12:04:40.000Z</time>
      </trkpt>
      <trkpt lat="44.31527" lon="3.38239">
        <ele>919.7</ele>
        <time>2020-08-25T12:04:42.000Z</time>
      </trkpt>
      <trkpt lat="44.31523" lon="3.3824">
        <ele>919.8</ele>
        <time>2020-08-25T12:04:44.000Z</time>
      </trkpt>
      <trkpt lat="44.31521" lon="3.3824">
        <ele>919.9</ele>
        <time>2020-08-25T12:04:45.000Z</time>
      </trkpt>
      <trkpt lat="44.31515" lon="3.38241">
        <ele>920</ele>
        <time>2020-08-25T12:04:47.000Z</time>
      </trkpt>
      <trkpt lat="44.31511" lon="3.3824">
        <ele>920.2</ele>
        <time>2020-08-25T12:04:49.000Z</time>
      </trkpt>
      <trkpt lat="44.31509" lon="3.3824">
        <ele>920.3</ele>
        <time>2020-08-25T12:04:50.000Z</time>
      </trkpt>
      <trkpt lat="44.31504" lon="3.38239">
        <ele>920.4</ele>
        <time>2020-08-25T12:04:52.000Z</time>
      </trkpt>
      <trkpt lat="44.315" lon="3.38239">
        <ele>920.6</ele>
        <time>2020-08-25T12:04:53.000Z</time>
      </trkpt>
      <trkpt lat="44.31495" lon="3.38239">
        <ele>920.8</ele>
        <time>2020-08-25T12:04:55.000Z</time>
      </trkpt>
      <trkpt lat="44.31493" lon="3.38238">
        <ele>920.9</ele>
        <time>2020-08-25T12:04:56.000Z</time>
      </trkpt>
      <trkpt lat="44.31488" lon="3.38237">
        <ele>921.1</ele>
        <time>2020-08-25T12:04:58.000Z</time>
      </trkpt>
      <trkpt lat="44.31483" lon="3.38236">
        <ele>921.3</ele>
        <time>2020-08-25T12:05:00.000Z</time>
      </trkpt>
      <trkpt lat="44.31478" lon="3.38235">
        <ele>921.5</ele>
        <time>2020-08-25T12:05:02.000Z</time>
      </trkpt>
      <trkpt lat="44.31476" lon="3.38234">
        <ele>921.6</ele>
        <time>2020-08-25T12:05:03.000Z</time>
      </trkpt>
      <trkpt lat="44.31471" lon="3.38234">
        <ele>921.8</ele>
        <time>2020-08-25T12:05:05.000Z</time>
      </trkpt>
      <trkpt lat="44.31467" lon="3.38233">
        <ele>922</ele>
        <time>2020-08-25T12:05:06.000Z</time>
      </trkpt>
      <trkpt lat="44.31466" lon="3.38232">
        <ele>922</ele>
        <time>2020-08-25T12:05:07.000Z</time>
      </trkpt>
      <trkpt lat="44.31461" lon="3.38232">
        <ele>922.2</ele>
        <time>2020-08-25T12:05:09.000Z</time>
      </trkpt>
      <trkpt lat="44.31457" lon="3.38231">
        <ele>922.3</ele>
        <time>2020-08-25T12:05:10.000Z</time>
      </trkpt>
      <trkpt lat="44.31455" lon="3.38231">
        <ele>922.4</ele>
        <time>2020-08-25T12:05:11.000Z</time>
      </trkpt>
      <trkpt lat="44.31451" lon="3.38232">
        <ele>922.5</ele>
        <time>2020-08-25T12:05:12.000Z</time>
      </trkpt>
      <trkpt lat="44.31449" lon="3.38232">
        <ele>922.6</ele>
        <time>2020-08-25T12:05:13.000Z</time>
      </trkpt>
      <trkpt lat="44.31448" lon="3.38233">
        <ele>922.7</ele>
        <time>2020-08-25T12:05:14.000Z</time>
      </trkpt>
      <trkpt lat="44.31443" lon="3.38235">
        <ele>922.8</ele>
        <time>2020-08-25T12:05:16.000Z</time>
      </trkpt>
      <trkpt lat="44.31439" lon="3.38237">
        <ele>923</ele>
        <time>2020-08-25T12:05:18.000Z</time>
      </trkpt>
      <trkpt lat="44.31434" lon="3.3824">
        <ele>923.3</ele>
        <time>2020-08-25T12:05:20.000Z</time>
      </trkpt>
      <trkpt lat="44.31432" lon="3.38242">
        <ele>923.4</ele>
        <time>2020-08-25T12:05:21.000Z</time>
      </trkpt>
      <trkpt lat="44.31428" lon="3.38246">
        <ele>923.6</ele>
        <time>2020-08-25T12:05:23.000Z</time>
      </trkpt>
      <trkpt lat="44.31425" lon="3.38249">
        <ele>923.7</ele>
        <time>2020-08-25T12:05:24.000Z</time>
      </trkpt>
      <trkpt lat="44.31424" lon="3.3825">
        <ele>923.8</ele>
        <time>2020-08-25T12:05:25.000Z</time>
      </trkpt>
      <trkpt lat="44.31421" lon="3.38255">
        <ele>924</ele>
        <time>2020-08-25T12:05:27.000Z</time>
      </trkpt>
      <trkpt lat="44.31417" lon="3.38259">
        <ele>924.1</ele>
        <time>2020-08-25T12:05:29.000Z</time>
      </trkpt>
      <trkpt lat="44.31413" lon="3.38264">
        <ele>924.4</ele>
        <time>2020-08-25T12:05:31.000Z</time>
      </trkpt>
      <trkpt lat="44.31411" lon="3.38267">
        <ele>924.5</ele>
        <time>2020-08-25T12:05:32.000Z</time>
      </trkpt>
      <trkpt lat="44.31407" lon="3.38271">
        <ele>924.7</ele>
        <time>2020-08-25T12:05:34.000Z</time>
      </trkpt>
      <trkpt lat="44.31405" lon="3.38274">
        <ele>924.8</ele>
        <time>2020-08-25T12:05:35.000Z</time>
      </trkpt>
      <trkpt lat="44.31401" lon="3.38279">
        <ele>925</ele>
        <time>2020-08-25T12:05:37.000Z</time>
      </trkpt>
      <trkpt lat="44.31398" lon="3.38284">
        <ele>925.2</ele>
        <time>2020-08-25T12:05:39.000Z</time>
      </trkpt>
      <trkpt lat="44.31396" lon="3.38286">
        <ele>925.2</ele>
        <time>2020-08-25T12:05:40.000Z</time>
      </trkpt>
      <trkpt lat="44.31392" lon="3.38291">
        <ele>925.4</ele>
        <time>2020-08-25T12:05:42.000Z</time>
      </trkpt>
      <trkpt lat="44.31388" lon="3.38296">
        <ele>925.6</ele>
        <time>2020-08-25T12:05:44.000Z</time>
      </trkpt>
      <trkpt lat="44.31386" lon="3.383">
        <ele>925.7</ele>
        <time>2020-08-25T12:05:45.000Z</time>
      </trkpt>
      <trkpt lat="44.31385" lon="3.38301">
        <ele>925.7</ele>
        <time>2020-08-25T12:05:46.000Z</time>
      </trkpt>
      <trkpt lat="44.31382" lon="3.38307">
        <ele>926</ele>
        <time>2020-08-25T12:05:48.000Z</time>
      </trkpt>
      <trkpt lat="44.31379" lon="3.38313">
        <ele>926.2</ele>
        <time>2020-08-25T12:05:50.000Z</time>
      </trkpt>
      <trkpt lat="44.31378" lon="3.38316">
        <ele>926.3</ele>
        <time>2020-08-25T12:05:51.000Z</time>
      </trkpt>
      <trkpt lat="44.31375" lon="3.38322">
        <ele>926.5</ele>
        <time>2020-08-25T12:05:53.000Z</time>
      </trkpt>
      <trkpt lat="44.31373" lon="3.38325">
        <ele>926.6</ele>
        <time>2020-08-25T12:05:54.000Z</time>
      </trkpt>
      <trkpt lat="44.31371" lon="3.38332">
        <ele>926.8</ele>
        <time>2020-08-25T12:05:56.000Z</time>
      </trkpt>
      <trkpt lat="44.3137" lon="3.38335">
        <ele>926.9</ele>
        <time>2020-08-25T12:05:57.000Z</time>
      </trkpt>
      <trkpt lat="44.31367" lon="3.38342">
        <ele>927.2</ele>
        <time>2020-08-25T12:05:59.000Z</time>
      </trkpt>
      <trkpt lat="44.31366" lon="3.38349">
        <ele>927.4</ele>
        <time>2020-08-25T12:06:01.000Z</time>
      </trkpt>
      <trkpt lat="44.31364" lon="3.38356">
        <ele>927.6</ele>
        <time>2020-08-25T12:06:03.000Z</time>
      </trkpt>
      <trkpt lat="44.31363" lon="3.3836">
        <ele>927.7</ele>
        <time>2020-08-25T12:06:04.000Z</time>
      </trkpt>
      <trkpt lat="44.31361" lon="3.38367">
        <ele>927.9</ele>
        <time>2020-08-25T12:06:06.000Z</time>
      </trkpt>
      <trkpt lat="44.31361" lon="3.38374">
        <ele>928.1</ele>
        <time>2020-08-25T12:06:08.000Z</time>
      </trkpt>
      <trkpt lat="44.3136" lon="3.38379">
        <ele>928.2</ele>
        <time>2020-08-25T12:06:09.000Z</time>
      </trkpt>
      <trkpt lat="44.3136" lon="3.38381">
        <ele>928.3</ele>
        <time>2020-08-25T12:06:10.000Z</time>
      </trkpt>
      <trkpt lat="44.31359" lon="3.38388">
        <ele>928.5</ele>
        <time>2020-08-25T12:06:12.000Z</time>
      </trkpt>
      <trkpt lat="44.31357" lon="3.38395">
        <ele>928.7</ele>
        <time>2020-08-25T12:06:14.000Z</time>
      </trkpt>
      <trkpt lat="44.31357" lon="3.38399">
        <ele>928.8</ele>
        <time>2020-08-25T12:06:15.000Z</time>
      </trkpt>
      <trkpt lat="44.31356" lon="3.38405">
        <ele>929</ele>
        <time>2020-08-25T12:06:16.000Z</time>
      </trkpt>
      <trkpt lat="44.31356" lon="3.38407">
        <ele>929.1</ele>
        <time>2020-08-25T12:06:17.000Z</time>
      </trkpt>
      <trkpt lat="44.31355" lon="3.38414">
        <ele>929.3</ele>
        <time>2020-08-25T12:06:19.000Z</time>
      </trkpt>
      <trkpt lat="44.31353" lon="3.38421">
        <ele>929.5</ele>
        <time>2020-08-25T12:06:21.000Z</time>
      </trkpt>
      <trkpt lat="44.31352" lon="3.38428">
        <ele>929.6</ele>
        <time>2020-08-25T12:06:23.000Z</time>
      </trkpt>
      <trkpt lat="44.31352" lon="3.38431">
        <ele>929.7</ele>
        <time>2020-08-25T12:06:24.000Z</time>
      </trkpt>
      <trkpt lat="44.3135" lon="3.38438">
        <ele>929.9</ele>
        <time>2020-08-25T12:06:26.000Z</time>
      </trkpt>
      <trkpt lat="44.31349" lon="3.38446">
        <ele>930.1</ele>
        <time>2020-08-25T12:06:28.000Z</time>
      </trkpt>
      <trkpt lat="44.31349" lon="3.38449">
        <ele>930.2</ele>
        <time>2020-08-25T12:06:29.000Z</time>
      </trkpt>
      <trkpt lat="44.31348" lon="3.38456">
        <ele>930.5</ele>
        <time>2020-08-25T12:06:31.000Z</time>
      </trkpt>
      <trkpt lat="44.31346" lon="3.38463">
        <ele>930.7</ele>
        <time>2020-08-25T12:06:33.000Z</time>
      </trkpt>
      <trkpt lat="44.31345" lon="3.38471">
        <ele>930.9</ele>
        <time>2020-08-25T12:06:35.000Z</time>
      </trkpt>
      <trkpt lat="44.31344" lon="3.38478">
        <ele>931.2</ele>
        <time>2020-08-25T12:06:37.000Z</time>
      </trkpt>
      <trkpt lat="44.31343" lon="3.38481">
        <ele>931.3</ele>
        <time>2020-08-25T12:06:38.000Z</time>
      </trkpt>
      <trkpt lat="44.31342" lon="3.38488">
        <ele>931.5</ele>
        <time>2020-08-25T12:06:40.000Z</time>
      </trkpt>
      <trkpt lat="44.3134" lon="3.38497">
        <ele>931.7</ele>
        <time>2020-08-25T12:06:42.000Z</time>
      </trkpt>
      <trkpt lat="44.3134" lon="3.38502">
        <ele>931.8</ele>
        <time>2020-08-25T12:06:43.000Z</time>
      </trkpt>
      <trkpt lat="44.31339" lon="3.38503">
        <ele>931.9</ele>
        <time>2020-08-25T12:06:44.000Z</time>
      </trkpt>
      <trkpt lat="44.31338" lon="3.3851">
        <ele>932.1</ele>
        <time>2020-08-25T12:06:46.000Z</time>
      </trkpt>
      <trkpt lat="44.31336" lon="3.38518">
        <ele>932.4</ele>
        <time>2020-08-25T12:06:48.000Z</time>
      </trkpt>
      <trkpt lat="44.31336" lon="3.38521">
        <ele>932.5</ele>
        <time>2020-08-25T12:06:49.000Z</time>
      </trkpt>
      <trkpt lat="44.31334" lon="3.38528">
        <ele>932.7</ele>
        <time>2020-08-25T12:06:51.000Z</time>
      </trkpt>
      <trkpt lat="44.31334" lon="3.38532">
        <ele>932.8</ele>
        <time>2020-08-25T12:06:52.000Z</time>
      </trkpt>
      <trkpt lat="44.31332" lon="3.3854">
        <ele>933</ele>
        <time>2020-08-25T12:06:54.000Z</time>
      </trkpt>
      <trkpt lat="44.3133" lon="3.38545">
        <ele>933.1</ele>
        <time>2020-08-25T12:06:55.000Z</time>
      </trkpt>
      <trkpt lat="44.3133" lon="3.38547">
        <ele>933.2</ele>
        <time>2020-08-25T12:06:56.000Z</time>
      </trkpt>
      <trkpt lat="44.31329" lon="3.38552">
        <ele>933.3</ele>
        <time>2020-08-25T12:06:57.000Z</time>
      </trkpt>
      <trkpt lat="44.31328" lon="3.38554">
        <ele>933.3</ele>
        <time>2020-08-25T12:06:58.000Z</time>
      </trkpt>
      <trkpt lat="44.31326" lon="3.38561">
        <ele>933.5</ele>
        <time>2020-08-25T12:07:00.000Z</time>
      </trkpt>
      <trkpt lat="44.31324" lon="3.3857">
        <ele>933.8</ele>
        <time>2020-08-25T12:07:02.000Z</time>
      </trkpt>
      <trkpt lat="44.31322" lon="3.38576">
        <ele>934</ele>
        <time>2020-08-25T12:07:04.000Z</time>
      </trkpt>
      <trkpt lat="44.3132" lon="3.38579">
        <ele>934.1</ele>
        <time>2020-08-25T12:07:05.000Z</time>
      </trkpt>
      <trkpt lat="44.31319" lon="3.38588">
        <ele>934.4</ele>
        <time>2020-08-25T12:07:07.000Z</time>
      </trkpt>
      <trkpt lat="44.31318" lon="3.38594">
        <ele>934.5</ele>
        <time>2020-08-25T12:07:09.000Z</time>
      </trkpt>
      <trkpt lat="44.31317" lon="3.38601">
        <ele>934.7</ele>
        <time>2020-08-25T12:07:11.000Z</time>
      </trkpt>
      <trkpt lat="44.31316" lon="3.3861">
        <ele>935</ele>
        <time>2020-08-25T12:07:13.000Z</time>
      </trkpt>
      <trkpt lat="44.31317" lon="3.38614">
        <ele>935.1</ele>
        <time>2020-08-25T12:07:14.000Z</time>
      </trkpt>
      <trkpt lat="44.31317" lon="3.38616">
        <ele>935.2</ele>
        <time>2020-08-25T12:07:15.000Z</time>
      </trkpt>
      <trkpt lat="44.31318" lon="3.38623">
        <ele>935.4</ele>
        <time>2020-08-25T12:07:17.000Z</time>
      </trkpt>
      <trkpt lat="44.31319" lon="3.38626">
        <ele>935.5</ele>
        <time>2020-08-25T12:07:18.000Z</time>
      </trkpt>
      <trkpt lat="44.3132" lon="3.38633">
        <ele>935.7</ele>
        <time>2020-08-25T12:07:20.000Z</time>
      </trkpt>
      <trkpt lat="44.31321" lon="3.38639">
        <ele>935.9</ele>
        <time>2020-08-25T12:07:22.000Z</time>
      </trkpt>
      <trkpt lat="44.31322" lon="3.38646">
        <ele>936.1</ele>
        <time>2020-08-25T12:07:24.000Z</time>
      </trkpt>
      <trkpt lat="44.31322" lon="3.3865">
        <ele>936.3</ele>
        <time>2020-08-25T12:07:25.000Z</time>
      </trkpt>
      <trkpt lat="44.31324" lon="3.38658">
        <ele>936.6</ele>
        <time>2020-08-25T12:07:27.000Z</time>
      </trkpt>
      <trkpt lat="44.31326" lon="3.38664">
        <ele>936.8</ele>
        <time>2020-08-25T12:07:29.000Z</time>
      </trkpt>
      <trkpt lat="44.31327" lon="3.38667">
        <ele>936.9</ele>
        <time>2020-08-25T12:07:30.000Z</time>
      </trkpt>
      <trkpt lat="44.31329" lon="3.38676">
        <ele>937.2</ele>
        <time>2020-08-25T12:07:32.000Z</time>
      </trkpt>
      <trkpt lat="44.3133" lon="3.38681">
        <ele>937.4</ele>
        <time>2020-08-25T12:07:34.000Z</time>
      </trkpt>
      <trkpt lat="44.31332" lon="3.38688">
        <ele>937.5</ele>
        <time>2020-08-25T12:07:36.000Z</time>
      </trkpt>
      <trkpt lat="44.31333" lon="3.38697">
        <ele>937.7</ele>
        <time>2020-08-25T12:07:38.000Z</time>
      </trkpt>
      <trkpt lat="44.31334" lon="3.387">
        <ele>937.8</ele>
        <time>2020-08-25T12:07:39.000Z</time>
      </trkpt>
      <trkpt lat="44.31335" lon="3.38707">
        <ele>938</ele>
        <time>2020-08-25T12:07:41.000Z</time>
      </trkpt>
      <trkpt lat="44.31336" lon="3.38712">
        <ele>938.1</ele>
        <time>2020-08-25T12:07:42.000Z</time>
      </trkpt>
      <trkpt lat="44.31337" lon="3.38714">
        <ele>938.1</ele>
        <time>2020-08-25T12:07:43.000Z</time>
      </trkpt>
      <trkpt lat="44.31338" lon="3.38722">
        <ele>938.3</ele>
        <time>2020-08-25T12:07:45.000Z</time>
      </trkpt>
      <trkpt lat="44.31338" lon="3.38729">
        <ele>938.5</ele>
        <time>2020-08-25T12:07:47.000Z</time>
      </trkpt>
      <trkpt lat="44.31339" lon="3.38736">
        <ele>938.6</ele>
        <time>2020-08-25T12:07:49.000Z</time>
      </trkpt>
      <trkpt lat="44.31339" lon="3.3874">
        <ele>938.7</ele>
        <time>2020-08-25T12:07:50.000Z</time>
      </trkpt>
      <trkpt lat="44.3134" lon="3.38748">
        <ele>939</ele>
        <time>2020-08-25T12:07:52.000Z</time>
      </trkpt>
      <trkpt lat="44.31341" lon="3.38755">
        <ele>939.1</ele>
        <time>2020-08-25T12:07:54.000Z</time>
      </trkpt>
      <trkpt lat="44.31342" lon="3.38762">
        <ele>939.2</ele>
        <time>2020-08-25T12:07:56.000Z</time>
      </trkpt>
      <trkpt lat="44.31343" lon="3.3877">
        <ele>939.4</ele>
        <time>2020-08-25T12:07:58.000Z</time>
      </trkpt>
      <trkpt lat="44.31344" lon="3.38777">
        <ele>939.6</ele>
        <time>2020-08-25T12:08:00.000Z</time>
      </trkpt>
      <trkpt lat="44.31345" lon="3.38783">
        <ele>939.7</ele>
        <time>2020-08-25T12:08:01.000Z</time>
      </trkpt>
      <trkpt lat="44.31345" lon="3.38785">
        <ele>939.8</ele>
        <time>2020-08-25T12:08:02.000Z</time>
      </trkpt>
      <trkpt lat="44.31345" lon="3.3879">
        <ele>939.9</ele>
        <time>2020-08-25T12:08:03.000Z</time>
      </trkpt>
      <trkpt lat="44.31346" lon="3.38796">
        <ele>940.1</ele>
        <time>2020-08-25T12:08:05.000Z</time>
      </trkpt>
      <trkpt lat="44.31347" lon="3.38803">
        <ele>940.2</ele>
        <time>2020-08-25T12:08:07.000Z</time>
      </trkpt>
      <trkpt lat="44.31348" lon="3.3881">
        <ele>940.4</ele>
        <time>2020-08-25T12:08:09.000Z</time>
      </trkpt>
      <trkpt lat="44.31349" lon="3.38815">
        <ele>940.5</ele>
        <time>2020-08-25T12:08:10.000Z</time>
      </trkpt>
      <trkpt lat="44.31349" lon="3.38817">
        <ele>940.6</ele>
        <time>2020-08-25T12:08:11.000Z</time>
      </trkpt>
      <trkpt lat="44.3135" lon="3.38822">
        <ele>940.7</ele>
        <time>2020-08-25T12:08:12.000Z</time>
      </trkpt>
      <trkpt lat="44.31351" lon="3.38823">
        <ele>940.7</ele>
        <time>2020-08-25T12:08:13.000Z</time>
      </trkpt>
      <trkpt lat="44.31353" lon="3.3883">
        <ele>940.9</ele>
        <time>2020-08-25T12:08:15.000Z</time>
      </trkpt>
      <trkpt lat="44.31355" lon="3.38835">
        <ele>941.1</ele>
        <time>2020-08-25T12:08:16.000Z</time>
      </trkpt>
      <trkpt lat="44.31356" lon="3.38841">
        <ele>941.3</ele>
        <time>2020-08-25T12:08:18.000Z</time>
      </trkpt>
      <trkpt lat="44.31357" lon="3.38848">
        <ele>941.5</ele>
        <time>2020-08-25T12:08:20.000Z</time>
      </trkpt>
      <trkpt lat="44.3136" lon="3.38856">
        <ele>941.8</ele>
        <time>2020-08-25T12:08:22.000Z</time>
      </trkpt>
      <trkpt lat="44.3136" lon="3.38859">
        <ele>941.9</ele>
        <time>2020-08-25T12:08:23.000Z</time>
      </trkpt>
      <trkpt lat="44.31361" lon="3.38866">
        <ele>942</ele>
        <time>2020-08-25T12:08:25.000Z</time>
      </trkpt>
      <trkpt lat="44.31362" lon="3.38869">
        <ele>942.1</ele>
        <time>2020-08-25T12:08:26.000Z</time>
      </trkpt>
      <trkpt lat="44.31365" lon="3.38877">
        <ele>942.3</ele>
        <time>2020-08-25T12:08:28.000Z</time>
      </trkpt>
      <trkpt lat="44.31366" lon="3.3888">
        <ele>942.4</ele>
        <time>2020-08-25T12:08:29.000Z</time>
      </trkpt>
      <trkpt lat="44.31366" lon="3.38882">
        <ele>942.4</ele>
        <time>2020-08-25T12:08:30.000Z</time>
      </trkpt>
      <trkpt lat="44.31368" lon="3.38889">
        <ele>942.6</ele>
        <time>2020-08-25T12:08:32.000Z</time>
      </trkpt>
      <trkpt lat="44.3137" lon="3.38897">
        <ele>942.6</ele>
        <time>2020-08-25T12:08:34.000Z</time>
      </trkpt>
      <trkpt lat="44.31371" lon="3.389">
        <ele>942.6</ele>
        <time>2020-08-25T12:08:35.000Z</time>
      </trkpt>
      <trkpt lat="44.31372" lon="3.38908">
        <ele>942.6</ele>
        <time>2020-08-25T12:08:37.000Z</time>
      </trkpt>
      <trkpt lat="44.31372" lon="3.38911">
        <ele>942.7</ele>
        <time>2020-08-25T12:08:38.000Z</time>
      </trkpt>
      <trkpt lat="44.31373" lon="3.38915">
        <ele>942.9</ele>
        <time>2020-08-25T12:08:39.000Z</time>
      </trkpt>
      <trkpt lat="44.31373" lon="3.38923">
        <ele>943.1</ele>
        <time>2020-08-25T12:08:41.000Z</time>
      </trkpt>
      <trkpt lat="44.31374" lon="3.3893">
        <ele>943.3</ele>
        <time>2020-08-25T12:08:43.000Z</time>
      </trkpt>
      <trkpt lat="44.31374" lon="3.38934">
        <ele>943.4</ele>
        <time>2020-08-25T12:08:44.000Z</time>
      </trkpt>
      <trkpt lat="44.31374" lon="3.38941">
        <ele>943.6</ele>
        <time>2020-08-25T12:08:46.000Z</time>
      </trkpt>
      <trkpt lat="44.31375" lon="3.38945">
        <ele>943.7</ele>
        <time>2020-08-25T12:08:47.000Z</time>
      </trkpt>
      <trkpt lat="44.31376" lon="3.38952">
        <ele>943.9</ele>
        <time>2020-08-25T12:08:49.000Z</time>
      </trkpt>
      <trkpt lat="44.31376" lon="3.38955">
        <ele>944</ele>
        <time>2020-08-25T12:08:50.000Z</time>
      </trkpt>
      <trkpt lat="44.31376" lon="3.38963">
        <ele>944.3</ele>
        <time>2020-08-25T12:08:52.000Z</time>
      </trkpt>
      <trkpt lat="44.31376" lon="3.38968">
        <ele>944.4</ele>
        <time>2020-08-25T12:08:53.000Z</time>
      </trkpt>
      <trkpt lat="44.31376" lon="3.3897">
        <ele>944.5</ele>
        <time>2020-08-25T12:08:54.000Z</time>
      </trkpt>
      <trkpt lat="44.31377" lon="3.38978">
        <ele>944.7</ele>
        <time>2020-08-25T12:08:56.000Z</time>
      </trkpt>
      <trkpt lat="44.31378" lon="3.38981">
        <ele>944.9</ele>
        <time>2020-08-25T12:08:57.000Z</time>
      </trkpt>
      <trkpt lat="44.31379" lon="3.38988">
        <ele>945.1</ele>
        <time>2020-08-25T12:08:59.000Z</time>
      </trkpt>
      <trkpt lat="44.31379" lon="3.38992">
        <ele>945.2</ele>
        <time>2020-08-25T12:09:00.000Z</time>
      </trkpt>
      <trkpt lat="44.3138" lon="3.39">
        <ele>945.4</ele>
        <time>2020-08-25T12:09:02.000Z</time>
      </trkpt>
      <trkpt lat="44.31381" lon="3.39006">
        <ele>945.6</ele>
        <time>2020-08-25T12:09:04.000Z</time>
      </trkpt>
      <trkpt lat="44.31382" lon="3.39009">
        <ele>945.7</ele>
        <time>2020-08-25T12:09:05.000Z</time>
      </trkpt>
      <trkpt lat="44.31383" lon="3.39017">
        <ele>945.9</ele>
        <time>2020-08-25T12:09:07.000Z</time>
      </trkpt>
      <trkpt lat="44.31384" lon="3.39023">
        <ele>946.1</ele>
        <time>2020-08-25T12:09:09.000Z</time>
      </trkpt>
      <trkpt lat="44.31385" lon="3.3903">
        <ele>946.3</ele>
        <time>2020-08-25T12:09:11.000Z</time>
      </trkpt>
      <trkpt lat="44.31385" lon="3.39033">
        <ele>946.4</ele>
        <time>2020-08-25T12:09:12.000Z</time>
      </trkpt>
      <trkpt lat="44.31386" lon="3.3904">
        <ele>946.6</ele>
        <time>2020-08-25T12:09:14.000Z</time>
      </trkpt>
      <trkpt lat="44.31387" lon="3.39047">
        <ele>946.8</ele>
        <time>2020-08-25T12:09:16.000Z</time>
      </trkpt>
      <trkpt lat="44.31387" lon="3.3905">
        <ele>946.9</ele>
        <time>2020-08-25T12:09:17.000Z</time>
      </trkpt>
      <trkpt lat="44.31387" lon="3.39057">
        <ele>947</ele>
        <time>2020-08-25T12:09:19.000Z</time>
      </trkpt>
      <trkpt lat="44.31388" lon="3.39065">
        <ele>947.3</ele>
        <time>2020-08-25T12:09:21.000Z</time>
      </trkpt>
      <trkpt lat="44.31388" lon="3.39069">
        <ele>947.3</ele>
        <time>2020-08-25T12:09:22.000Z</time>
      </trkpt>
      <trkpt lat="44.31388" lon="3.39076">
        <ele>947.5</ele>
        <time>2020-08-25T12:09:24.000Z</time>
      </trkpt>
      <trkpt lat="44.31388" lon="3.39083">
        <ele>947.7</ele>
        <time>2020-08-25T12:09:26.000Z</time>
      </trkpt>
      <trkpt lat="44.31388" lon="3.39087">
        <ele>947.7</ele>
        <time>2020-08-25T12:09:27.000Z</time>
      </trkpt>
      <trkpt lat="44.31389" lon="3.39093">
        <ele>947.9</ele>
        <time>2020-08-25T12:09:28.000Z</time>
      </trkpt>
      <trkpt lat="44.31389" lon="3.39095">
        <ele>947.9</ele>
        <time>2020-08-25T12:09:29.000Z</time>
      </trkpt>
      <trkpt lat="44.31389" lon="3.39098">
        <ele>948</ele>
        <time>2020-08-25T12:09:30.000Z</time>
      </trkpt>
      <trkpt lat="44.31389" lon="3.39106">
        <ele>948.2</ele>
        <time>2020-08-25T12:09:32.000Z</time>
      </trkpt>
      <trkpt lat="44.31389" lon="3.39109">
        <ele>948.3</ele>
        <time>2020-08-25T12:09:33.000Z</time>
      </trkpt>
      <trkpt lat="44.3139" lon="3.39117">
        <ele>948.5</ele>
        <time>2020-08-25T12:09:35.000Z</time>
      </trkpt>
      <trkpt lat="44.3139" lon="3.39121">
        <ele>948.6</ele>
        <time>2020-08-25T12:09:36.000Z</time>
      </trkpt>
      <trkpt lat="44.3139" lon="3.39128">
        <ele>948.7</ele>
        <time>2020-08-25T12:09:38.000Z</time>
      </trkpt>
      <trkpt lat="44.31391" lon="3.39132">
        <ele>948.8</ele>
        <time>2020-08-25T12:09:39.000Z</time>
      </trkpt>
      <trkpt lat="44.31392" lon="3.3914">
        <ele>949</ele>
        <time>2020-08-25T12:09:41.000Z</time>
      </trkpt>
      <trkpt lat="44.31393" lon="3.39147">
        <ele>949.2</ele>
        <time>2020-08-25T12:09:43.000Z</time>
      </trkpt>
      <trkpt lat="44.31394" lon="3.39153">
        <ele>949.4</ele>
        <time>2020-08-25T12:09:44.000Z</time>
      </trkpt>
      <trkpt lat="44.31395" lon="3.39159">
        <ele>949.5</ele>
        <time>2020-08-25T12:09:46.000Z</time>
      </trkpt>
      <trkpt lat="44.31396" lon="3.39166">
        <ele>949.7</ele>
        <time>2020-08-25T12:09:48.000Z</time>
      </trkpt>
      <trkpt lat="44.31396" lon="3.39169">
        <ele>949.8</ele>
        <time>2020-08-25T12:09:49.000Z</time>
      </trkpt>
      <trkpt lat="44.31397" lon="3.39177">
        <ele>950</ele>
        <time>2020-08-25T12:09:51.000Z</time>
      </trkpt>
      <trkpt lat="44.31398" lon="3.3918">
        <ele>950.1</ele>
        <time>2020-08-25T12:09:52.000Z</time>
      </trkpt>
      <trkpt lat="44.314" lon="3.39187">
        <ele>950.2</ele>
        <time>2020-08-25T12:09:54.000Z</time>
      </trkpt>
      <trkpt lat="44.31401" lon="3.39195">
        <ele>950.4</ele>
        <time>2020-08-25T12:09:56.000Z</time>
      </trkpt>
      <trkpt lat="44.31402" lon="3.39199">
        <ele>950.5</ele>
        <time>2020-08-25T12:09:57.000Z</time>
      </trkpt>
      <trkpt lat="44.31403" lon="3.39206">
        <ele>950.7</ele>
        <time>2020-08-25T12:09:59.000Z</time>
      </trkpt>
      <trkpt lat="44.31404" lon="3.3921">
        <ele>950.8</ele>
        <time>2020-08-25T12:10:00.000Z</time>
      </trkpt>
      <trkpt lat="44.31405" lon="3.39213">
        <ele>950.9</ele>
        <time>2020-08-25T12:10:01.000Z</time>
      </trkpt>
      <trkpt lat="44.31407" lon="3.39222">
        <ele>951.2</ele>
        <time>2020-08-25T12:10:03.000Z</time>
      </trkpt>
      <trkpt lat="44.31409" lon="3.39228">
        <ele>951.4</ele>
        <time>2020-08-25T12:10:05.000Z</time>
      </trkpt>
      <trkpt lat="44.31411" lon="3.39233">
        <ele>951.5</ele>
        <time>2020-08-25T12:10:06.000Z</time>
      </trkpt>
      <trkpt lat="44.31411" lon="3.39235">
        <ele>951.6</ele>
        <time>2020-08-25T12:10:07.000Z</time>
      </trkpt>
      <trkpt lat="44.31413" lon="3.39238">
        <ele>951.7</ele>
        <time>2020-08-25T12:10:08.000Z</time>
      </trkpt>
      <trkpt lat="44.31414" lon="3.39243">
        <ele>951.8</ele>
        <time>2020-08-25T12:10:09.000Z</time>
      </trkpt>
      <trkpt lat="44.31415" lon="3.3925">
        <ele>952</ele>
        <time>2020-08-25T12:10:11.000Z</time>
      </trkpt>
      <trkpt lat="44.31416" lon="3.39257">
        <ele>952.3</ele>
        <time>2020-08-25T12:10:13.000Z</time>
      </trkpt>
      <trkpt lat="44.31416" lon="3.39261">
        <ele>952.4</ele>
        <time>2020-08-25T12:10:14.000Z</time>
      </trkpt>
      <trkpt lat="44.31416" lon="3.39269">
        <ele>952.6</ele>
        <time>2020-08-25T12:10:16.000Z</time>
      </trkpt>
      <trkpt lat="44.31415" lon="3.39276">
        <ele>952.9</ele>
        <time>2020-08-25T12:10:18.000Z</time>
      </trkpt>
      <trkpt lat="44.31413" lon="3.39282">
        <ele>953.1</ele>
        <time>2020-08-25T12:10:20.000Z</time>
      </trkpt>
      <trkpt lat="44.31412" lon="3.39286">
        <ele>953.3</ele>
        <time>2020-08-25T12:10:21.000Z</time>
      </trkpt>
      <trkpt lat="44.3141" lon="3.39289">
        <ele>953.4</ele>
        <time>2020-08-25T12:10:22.000Z</time>
      </trkpt>
      <trkpt lat="44.31407" lon="3.39293">
        <ele>953.6</ele>
        <time>2020-08-25T12:10:24.000Z</time>
      </trkpt>
      <trkpt lat="44.31404" lon="3.39297">
        <ele>953.8</ele>
        <time>2020-08-25T12:10:26.000Z</time>
      </trkpt>
      <trkpt lat="44.31401" lon="3.393">
        <ele>953.9</ele>
        <time>2020-08-25T12:10:27.000Z</time>
      </trkpt>
      <trkpt lat="44.31401" lon="3.39301">
        <ele>954</ele>
        <time>2020-08-25T12:10:28.000Z</time>
      </trkpt>
      <trkpt lat="44.31397" lon="3.39304">
        <ele>954.2</ele>
        <time>2020-08-25T12:10:30.000Z</time>
      </trkpt>
      <trkpt lat="44.31393" lon="3.39307">
        <ele>954.4</ele>
        <time>2020-08-25T12:10:32.000Z</time>
      </trkpt>
      <trkpt lat="44.31388" lon="3.3931">
        <ele>954.6</ele>
        <time>2020-08-25T12:10:34.000Z</time>
      </trkpt>
      <trkpt lat="44.31383" lon="3.39314">
        <ele>954.8</ele>
        <time>2020-08-25T12:10:36.000Z</time>
      </trkpt>
      <trkpt lat="44.3138" lon="3.39316">
        <ele>955</ele>
        <time>2020-08-25T12:10:37.000Z</time>
      </trkpt>
      <trkpt lat="44.31376" lon="3.3932">
        <ele>955.2</ele>
        <time>2020-08-25T12:10:39.000Z</time>
      </trkpt>
      <trkpt lat="44.31372" lon="3.39326">
        <ele>955.4</ele>
        <time>2020-08-25T12:10:41.000Z</time>
      </trkpt>
      <trkpt lat="44.3137" lon="3.39329">
        <ele>955.6</ele>
        <time>2020-08-25T12:10:42.000Z</time>
      </trkpt>
      <trkpt lat="44.31366" lon="3.39335">
        <ele>955.8</ele>
        <time>2020-08-25T12:10:44.000Z</time>
      </trkpt>
      <trkpt lat="44.31364" lon="3.39339">
        <ele>955.9</ele>
        <time>2020-08-25T12:10:45.000Z</time>
      </trkpt>
      <trkpt lat="44.31364" lon="3.39341">
        <ele>956</ele>
        <time>2020-08-25T12:10:46.000Z</time>
      </trkpt>
      <trkpt lat="44.31361" lon="3.39349">
        <ele>956.2</ele>
        <time>2020-08-25T12:10:48.000Z</time>
      </trkpt>
      <trkpt lat="44.31358" lon="3.39356">
        <ele>956.5</ele>
        <time>2020-08-25T12:10:50.000Z</time>
      </trkpt>
      <trkpt lat="44.31356" lon="3.39363">
        <ele>956.7</ele>
        <time>2020-08-25T12:10:52.000Z</time>
      </trkpt>
      <trkpt lat="44.31354" lon="3.39366">
        <ele>956.8</ele>
        <time>2020-08-25T12:10:53.000Z</time>
      </trkpt>
      <trkpt lat="44.31351" lon="3.39373">
        <ele>957.1</ele>
        <time>2020-08-25T12:10:55.000Z</time>
      </trkpt>
      <trkpt lat="44.3135" lon="3.39377">
        <ele>957.2</ele>
        <time>2020-08-25T12:10:56.000Z</time>
      </trkpt>
      <trkpt lat="44.31348" lon="3.39384">
        <ele>957.5</ele>
        <time>2020-08-25T12:10:58.000Z</time>
      </trkpt>
      <trkpt lat="44.31346" lon="3.39391">
        <ele>957.7</ele>
        <time>2020-08-25T12:11:00.000Z</time>
      </trkpt>
      <trkpt lat="44.31345" lon="3.39394">
        <ele>957.8</ele>
        <time>2020-08-25T12:11:01.000Z</time>
      </trkpt>
      <trkpt lat="44.31342" lon="3.394">
        <ele>958</ele>
        <time>2020-08-25T12:11:03.000Z</time>
      </trkpt>
      <trkpt lat="44.3134" lon="3.39406">
        <ele>958.2</ele>
        <time>2020-08-25T12:11:05.000Z</time>
      </trkpt>
      <trkpt lat="44.31339" lon="3.39409">
        <ele>958.3</ele>
        <time>2020-08-25T12:11:06.000Z</time>
      </trkpt>
      <trkpt lat="44.31336" lon="3.39414">
        <ele>958.5</ele>
        <time>2020-08-25T12:11:08.000Z</time>
      </trkpt>
      <trkpt lat="44.31335" lon="3.39417">
        <ele>958.6</ele>
        <time>2020-08-25T12:11:09.000Z</time>
      </trkpt>
      <trkpt lat="44.31331" lon="3.39423">
        <ele>958.8</ele>
        <time>2020-08-25T12:11:11.000Z</time>
      </trkpt>
      <trkpt lat="44.31329" lon="3.39426">
        <ele>958.9</ele>
        <time>2020-08-25T12:11:12.000Z</time>
      </trkpt>
      <trkpt lat="44.31325" lon="3.39432">
        <ele>959.1</ele>
        <time>2020-08-25T12:11:14.000Z</time>
      </trkpt>
      <trkpt lat="44.31321" lon="3.39437">
        <ele>959.2</ele>
        <time>2020-08-25T12:11:16.000Z</time>
      </trkpt>
      <trkpt lat="44.31316" lon="3.3944">
        <ele>959.4</ele>
        <time>2020-08-25T12:11:18.000Z</time>
      </trkpt>
      <trkpt lat="44.31313" lon="3.39442">
        <ele>959.5</ele>
        <time>2020-08-25T12:11:19.000Z</time>
      </trkpt>
      <trkpt lat="44.31307" lon="3.39445">
        <ele>959.6</ele>
        <time>2020-08-25T12:11:21.000Z</time>
      </trkpt>
      <trkpt lat="44.31304" lon="3.39446">
        <ele>959.7</ele>
        <time>2020-08-25T12:11:22.000Z</time>
      </trkpt>
      <trkpt lat="44.31301" lon="3.39446">
        <ele>959.8</ele>
        <time>2020-08-25T12:11:23.000Z</time>
      </trkpt>
      <trkpt lat="44.31295" lon="3.39447">
        <ele>960</ele>
        <time>2020-08-25T12:11:25.000Z</time>
      </trkpt>
      <trkpt lat="44.31289" lon="3.39447">
        <ele>960.2</ele>
        <time>2020-08-25T12:11:27.000Z</time>
      </trkpt>
      <trkpt lat="44.31287" lon="3.39447">
        <ele>960.3</ele>
        <time>2020-08-25T12:11:28.000Z</time>
      </trkpt>
      <trkpt lat="44.31281" lon="3.39448">
        <ele>960.5</ele>
        <time>2020-08-25T12:11:30.000Z</time>
      </trkpt>
      <trkpt lat="44.31279" lon="3.39448">
        <ele>960.6</ele>
        <time>2020-08-25T12:11:31.000Z</time>
      </trkpt>
      <trkpt lat="44.31273" lon="3.3945">
        <ele>960.8</ele>
        <time>2020-08-25T12:11:33.000Z</time>
      </trkpt>
      <trkpt lat="44.31271" lon="3.39451">
        <ele>960.9</ele>
        <time>2020-08-25T12:11:34.000Z</time>
      </trkpt>
      <trkpt lat="44.31266" lon="3.39454">
        <ele>961.1</ele>
        <time>2020-08-25T12:11:36.000Z</time>
      </trkpt>
      <trkpt lat="44.31264" lon="3.39456">
        <ele>961.2</ele>
        <time>2020-08-25T12:11:37.000Z</time>
      </trkpt>
      <trkpt lat="44.31259" lon="3.3946">
        <ele>961.4</ele>
        <time>2020-08-25T12:11:39.000Z</time>
      </trkpt>
      <trkpt lat="44.31255" lon="3.39466">
        <ele>961.6</ele>
        <time>2020-08-25T12:11:41.000Z</time>
      </trkpt>
      <trkpt lat="44.31253" lon="3.39469">
        <ele>961.6</ele>
        <time>2020-08-25T12:11:42.000Z</time>
      </trkpt>
      <trkpt lat="44.31249" lon="3.39475">
        <ele>961.8</ele>
        <time>2020-08-25T12:11:44.000Z</time>
      </trkpt>
      <trkpt lat="44.31245" lon="3.39482">
        <ele>962</ele>
        <time>2020-08-25T12:11:46.000Z</time>
      </trkpt>
      <trkpt lat="44.31243" lon="3.39485">
        <ele>962.1</ele>
        <time>2020-08-25T12:11:47.000Z</time>
      </trkpt>
      <trkpt lat="44.3124" lon="3.39491">
        <ele>962.3</ele>
        <time>2020-08-25T12:11:49.000Z</time>
      </trkpt>
      <trkpt lat="44.31237" lon="3.39496">
        <ele>962.4</ele>
        <time>2020-08-25T12:11:50.000Z</time>
      </trkpt>
      <trkpt lat="44.31234" lon="3.39501">
        <ele>962.6</ele>
        <time>2020-08-25T12:11:52.000Z</time>
      </trkpt>
      <trkpt lat="44.3123" lon="3.39507">
        <ele>962.7</ele>
        <time>2020-08-25T12:11:54.000Z</time>
      </trkpt>
      <trkpt lat="44.31228" lon="3.3951">
        <ele>962.8</ele>
        <time>2020-08-25T12:11:55.000Z</time>
      </trkpt>
      <trkpt lat="44.31225" lon="3.39516">
        <ele>963</ele>
        <time>2020-08-25T12:11:57.000Z</time>
      </trkpt>
      <trkpt lat="44.31221" lon="3.39522">
        <ele>963.2</ele>
        <time>2020-08-25T12:11:59.000Z</time>
      </trkpt>
      <trkpt lat="44.31219" lon="3.39526">
        <ele>963.4</ele>
        <time>2020-08-25T12:12:00.000Z</time>
      </trkpt>
      <trkpt lat="44.31218" lon="3.39528">
        <ele>963.4</ele>
        <time>2020-08-25T12:12:01.000Z</time>
      </trkpt>
      <trkpt lat="44.31215" lon="3.39533">
        <ele>963.6</ele>
        <time>2020-08-25T12:12:03.000Z</time>
      </trkpt>
      <trkpt lat="44.31212" lon="3.39538">
        <ele>963.8</ele>
        <time>2020-08-25T12:12:04.000Z</time>
      </trkpt>
      <trkpt lat="44.31211" lon="3.3954">
        <ele>963.9</ele>
        <time>2020-08-25T12:12:05.000Z</time>
      </trkpt>
      <trkpt lat="44.31207" lon="3.39545">
        <ele>964.1</ele>
        <time>2020-08-25T12:12:07.000Z</time>
      </trkpt>
      <trkpt lat="44.31203" lon="3.3955">
        <ele>964.3</ele>
        <time>2020-08-25T12:12:09.000Z</time>
      </trkpt>
      <trkpt lat="44.31199" lon="3.39556">
        <ele>964.5</ele>
        <time>2020-08-25T12:12:11.000Z</time>
      </trkpt>
      <trkpt lat="44.31195" lon="3.3956">
        <ele>964.7</ele>
        <time>2020-08-25T12:12:13.000Z</time>
      </trkpt>
      <trkpt lat="44.31191" lon="3.39563">
        <ele>964.9</ele>
        <time>2020-08-25T12:12:15.000Z</time>
      </trkpt>
      <trkpt lat="44.31188" lon="3.39566">
        <ele>965</ele>
        <time>2020-08-25T12:12:16.000Z</time>
      </trkpt>
      <trkpt lat="44.31186" lon="3.39569">
        <ele>965.2</ele>
        <time>2020-08-25T12:12:17.000Z</time>
      </trkpt>
      <trkpt lat="44.31184" lon="3.39571">
        <ele>965.3</ele>
        <time>2020-08-25T12:12:18.000Z</time>
      </trkpt>
      <trkpt lat="44.3118" lon="3.39576">
        <ele>965.5</ele>
        <time>2020-08-25T12:12:20.000Z</time>
      </trkpt>
      <trkpt lat="44.31178" lon="3.39578">
        <ele>965.6</ele>
        <time>2020-08-25T12:12:21.000Z</time>
      </trkpt>
      <trkpt lat="44.31173" lon="3.39582">
        <ele>965.8</ele>
        <time>2020-08-25T12:12:23.000Z</time>
      </trkpt>
      <trkpt lat="44.3117" lon="3.39585">
        <ele>966</ele>
        <time>2020-08-25T12:12:24.000Z</time>
      </trkpt>
      <trkpt lat="44.31169" lon="3.39586">
        <ele>966</ele>
        <time>2020-08-25T12:12:25.000Z</time>
      </trkpt>
      <trkpt lat="44.31165" lon="3.39589">
        <ele>966.2</ele>
        <time>2020-08-25T12:12:27.000Z</time>
      </trkpt>
      <trkpt lat="44.31159" lon="3.39593">
        <ele>966.4</ele>
        <time>2020-08-25T12:12:29.000Z</time>
      </trkpt>
      <trkpt lat="44.31156" lon="3.39594">
        <ele>966.6</ele>
        <time>2020-08-25T12:12:30.000Z</time>
      </trkpt>
      <trkpt lat="44.31153" lon="3.39596">
        <ele>966.8</ele>
        <time>2020-08-25T12:12:32.000Z</time>
      </trkpt>
      <trkpt lat="44.31149" lon="3.39597">
        <ele>967</ele>
        <time>2020-08-25T12:12:33.000Z</time>
      </trkpt>
      <trkpt lat="44.31147" lon="3.39598">
        <ele>967.1</ele>
        <time>2020-08-25T12:12:34.000Z</time>
      </trkpt>
      <trkpt lat="44.31143" lon="3.39598">
        <ele>967.3</ele>
        <time>2020-08-25T12:12:36.000Z</time>
      </trkpt>
      <trkpt lat="44.31139" lon="3.39599">
        <ele>967.5</ele>
        <time>2020-08-25T12:12:37.000Z</time>
      </trkpt>
      <trkpt lat="44.31138" lon="3.39599">
        <ele>967.5</ele>
        <time>2020-08-25T12:12:38.000Z</time>
      </trkpt>
      <trkpt lat="44.31133" lon="3.39598">
        <ele>967.8</ele>
        <time>2020-08-25T12:12:40.000Z</time>
      </trkpt>
      <trkpt lat="44.31129" lon="3.39596">
        <ele>968</ele>
        <time>2020-08-25T12:12:41.000Z</time>
      </trkpt>
      <trkpt lat="44.31127" lon="3.39595">
        <ele>968</ele>
        <time>2020-08-25T12:12:42.000Z</time>
      </trkpt>
      <trkpt lat="44.31122" lon="3.39592">
        <ele>968.3</ele>
        <time>2020-08-25T12:12:44.000Z</time>
      </trkpt>
      <trkpt lat="44.31117" lon="3.39587">
        <ele>968.5</ele>
        <time>2020-08-25T12:12:46.000Z</time>
      </trkpt>
      <trkpt lat="44.31113" lon="3.39583">
        <ele>968.8</ele>
        <time>2020-08-25T12:12:48.000Z</time>
      </trkpt>
      <trkpt lat="44.31109" lon="3.39579">
        <ele>969</ele>
        <time>2020-08-25T12:12:49.000Z</time>
      </trkpt>
      <trkpt lat="44.31107" lon="3.39576">
        <ele>969.1</ele>
        <time>2020-08-25T12:12:50.000Z</time>
      </trkpt>
      <trkpt lat="44.31102" lon="3.39571">
        <ele>969.4</ele>
        <time>2020-08-25T12:12:52.000Z</time>
      </trkpt>
      <trkpt lat="44.311" lon="3.39568">
        <ele>969.5</ele>
        <time>2020-08-25T12:12:53.000Z</time>
      </trkpt>
      <trkpt lat="44.31096" lon="3.39563">
        <ele>969.8</ele>
        <time>2020-08-25T12:12:55.000Z</time>
      </trkpt>
      <trkpt lat="44.31094" lon="3.3956">
        <ele>969.9</ele>
        <time>2020-08-25T12:12:56.000Z</time>
      </trkpt>
      <trkpt lat="44.3109" lon="3.39555">
        <ele>970.2</ele>
        <time>2020-08-25T12:12:58.000Z</time>
      </trkpt>
      <trkpt lat="44.31088" lon="3.39552">
        <ele>970.3</ele>
        <time>2020-08-25T12:12:59.000Z</time>
      </trkpt>
      <trkpt lat="44.31085" lon="3.39549">
        <ele>970.5</ele>
        <time>2020-08-25T12:13:01.000Z</time>
      </trkpt>
      <trkpt lat="44.3108" lon="3.39544">
        <ele>970.7</ele>
        <time>2020-08-25T12:13:03.000Z</time>
      </trkpt>
      <trkpt lat="44.31075" lon="3.39539">
        <ele>971</ele>
        <time>2020-08-25T12:13:05.000Z</time>
      </trkpt>
      <trkpt lat="44.3107" lon="3.39536">
        <ele>971.3</ele>
        <time>2020-08-25T12:13:07.000Z</time>
      </trkpt>
      <trkpt lat="44.31067" lon="3.39533">
        <ele>971.5</ele>
        <time>2020-08-25T12:13:08.000Z</time>
      </trkpt>
      <trkpt lat="44.31066" lon="3.39532">
        <ele>971.6</ele>
        <time>2020-08-25T12:13:09.000Z</time>
      </trkpt>
      <trkpt lat="44.31062" lon="3.39528">
        <ele>971.8</ele>
        <time>2020-08-25T12:13:11.000Z</time>
      </trkpt>
      <trkpt lat="44.31059" lon="3.39527">
        <ele>971.9</ele>
        <time>2020-08-25T12:13:12.000Z</time>
      </trkpt>
      <trkpt lat="44.31055" lon="3.39525">
        <ele>972.2</ele>
        <time>2020-08-25T12:13:14.000Z</time>
      </trkpt>
      <trkpt lat="44.31053" lon="3.39523">
        <ele>972.4</ele>
        <time>2020-08-25T12:13:15.000Z</time>
      </trkpt>
      <trkpt lat="44.31049" lon="3.3952">
        <ele>972.7</ele>
        <time>2020-08-25T12:13:17.000Z</time>
      </trkpt>
      <trkpt lat="44.31046" lon="3.39518">
        <ele>972.8</ele>
        <time>2020-08-25T12:13:18.000Z</time>
      </trkpt>
      <trkpt lat="44.31042" lon="3.39516">
        <ele>973.1</ele>
        <time>2020-08-25T12:13:20.000Z</time>
      </trkpt>
      <trkpt lat="44.31039" lon="3.39514">
        <ele>973.4</ele>
        <time>2020-08-25T12:13:22.000Z</time>
      </trkpt>
      <trkpt lat="44.31036" lon="3.39513">
        <ele>973.6</ele>
        <time>2020-08-25T12:13:23.000Z</time>
      </trkpt>
      <trkpt lat="44.31035" lon="3.39513">
        <ele>973.7</ele>
        <time>2020-08-25T12:13:24.000Z</time>
      </trkpt>
      <trkpt lat="44.31033" lon="3.39512">
        <ele>973.8</ele>
        <time>2020-08-25T12:13:25.000Z</time>
      </trkpt>
      <trkpt lat="44.31029" lon="3.39509">
        <ele>974.1</ele>
        <time>2020-08-25T12:13:27.000Z</time>
      </trkpt>
      <trkpt lat="44.31027" lon="3.39508">
        <ele>974.3</ele>
        <time>2020-08-25T12:13:28.000Z</time>
      </trkpt>
      <trkpt lat="44.31023" lon="3.39507">
        <ele>974.6</ele>
        <time>2020-08-25T12:13:30.000Z</time>
      </trkpt>
      <trkpt lat="44.31021" lon="3.39506">
        <ele>974.7</ele>
        <time>2020-08-25T12:13:31.000Z</time>
      </trkpt>
      <trkpt lat="44.31017" lon="3.39504">
        <ele>975</ele>
        <time>2020-08-25T12:13:33.000Z</time>
      </trkpt>
      <trkpt lat="44.31015" lon="3.39502">
        <ele>975.2</ele>
        <time>2020-08-25T12:13:34.000Z</time>
      </trkpt>
      <trkpt lat="44.31012" lon="3.395">
        <ele>975.5</ele>
        <time>2020-08-25T12:13:36.000Z</time>
      </trkpt>
      <trkpt lat="44.31008" lon="3.39499">
        <ele>975.7</ele>
        <time>2020-08-25T12:13:38.000Z</time>
      </trkpt>
      <trkpt lat="44.31005" lon="3.39498">
        <ele>975.9</ele>
        <time>2020-08-25T12:13:39.000Z</time>
      </trkpt>
      <trkpt lat="44.31003" lon="3.39498">
        <ele>976</ele>
        <time>2020-08-25T12:13:40.000Z</time>
      </trkpt>
      <trkpt lat="44.31" lon="3.39496">
        <ele>976.2</ele>
        <time>2020-08-25T12:13:41.000Z</time>
      </trkpt>
      <trkpt lat="44.30999" lon="3.39496">
        <ele>976.3</ele>
        <time>2020-08-25T12:13:42.000Z</time>
      </trkpt>
      <trkpt lat="44.30995" lon="3.39493">
        <ele>976.5</ele>
        <time>2020-08-25T12:13:44.000Z</time>
      </trkpt>
      <trkpt lat="44.30993" lon="3.39492">
        <ele>976.5</ele>
        <time>2020-08-25T12:13:45.000Z</time>
      </trkpt>
      <trkpt lat="44.3099" lon="3.3949">
        <ele>976.4</ele>
        <time>2020-08-25T12:13:47.000Z</time>
      </trkpt>
      <trkpt lat="44.30988" lon="3.39489">
        <ele>976.4</ele>
        <time>2020-08-25T12:13:48.000Z</time>
      </trkpt>
      <trkpt lat="44.30985" lon="3.39487">
        <ele>976.4</ele>
        <time>2020-08-25T12:13:50.000Z</time>
      </trkpt>
      <trkpt lat="44.30982" lon="3.39485">
        <ele>976.3</ele>
        <time>2020-08-25T12:13:52.000Z</time>
      </trkpt>
      <trkpt lat="44.30979" lon="3.39483">
        <ele>976.3</ele>
        <time>2020-08-25T12:13:54.000Z</time>
      </trkpt>
      <trkpt lat="44.30975" lon="3.39481">
        <ele>976.2</ele>
        <time>2020-08-25T12:13:56.000Z</time>
      </trkpt>
      <trkpt lat="44.30973" lon="3.39479">
        <ele>976.1</ele>
        <time>2020-08-25T12:13:57.000Z</time>
      </trkpt>
      <trkpt lat="44.30969" lon="3.39477">
        <ele>976</ele>
        <time>2020-08-25T12:13:59.000Z</time>
      </trkpt>
      <trkpt lat="44.30964" lon="3.39476">
        <ele>975.6</ele>
        <time>2020-08-25T12:14:01.000Z</time>
      </trkpt>
      <trkpt lat="44.30962" lon="3.39476">
        <ele>975.5</ele>
        <time>2020-08-25T12:14:02.000Z</time>
      </trkpt>
      <trkpt lat="44.30957" lon="3.39477">
        <ele>975.1</ele>
        <time>2020-08-25T12:14:04.000Z</time>
      </trkpt>
      <trkpt lat="44.30953" lon="3.39478">
        <ele>974.8</ele>
        <time>2020-08-25T12:14:06.000Z</time>
      </trkpt>
      <trkpt lat="44.30948" lon="3.39481">
        <ele>974.4</ele>
        <time>2020-08-25T12:14:08.000Z</time>
      </trkpt>
      <trkpt lat="44.30945" lon="3.39482">
        <ele>974.2</ele>
        <time>2020-08-25T12:14:09.000Z</time>
      </trkpt>
      <trkpt lat="44.30942" lon="3.39484">
        <ele>974</ele>
        <time>2020-08-25T12:14:10.000Z</time>
      </trkpt>
      <trkpt lat="44.30936" lon="3.39487">
        <ele>973.5</ele>
        <time>2020-08-25T12:14:12.000Z</time>
      </trkpt>
      <trkpt lat="44.3093" lon="3.3949">
        <ele>973.1</ele>
        <time>2020-08-25T12:14:14.000Z</time>
      </trkpt>
      <trkpt lat="44.30923" lon="3.39491">
        <ele>972.6</ele>
        <time>2020-08-25T12:14:16.000Z</time>
      </trkpt>
      <trkpt lat="44.3092" lon="3.39491">
        <ele>972.4</ele>
        <time>2020-08-25T12:14:17.000Z</time>
      </trkpt>
      <trkpt lat="44.30914" lon="3.39492">
        <ele>971.9</ele>
        <time>2020-08-25T12:14:19.000Z</time>
      </trkpt>
      <trkpt lat="44.3091" lon="3.39493">
        <ele>971.9</ele>
        <time>2020-08-25T12:14:20.000Z</time>
      </trkpt>
      <trkpt lat="44.30907" lon="3.39495">
        <ele>971.8</ele>
        <time>2020-08-25T12:14:21.000Z</time>
      </trkpt>
      <trkpt lat="44.309" lon="3.39498">
        <ele>971.7</ele>
        <time>2020-08-25T12:14:23.000Z</time>
      </trkpt>
      <trkpt lat="44.30894" lon="3.39506">
        <ele>971.7</ele>
        <time>2020-08-25T12:14:25.000Z</time>
      </trkpt>
      <trkpt lat="44.30893" lon="3.39511">
        <ele>971.7</ele>
        <time>2020-08-25T12:14:26.000Z</time>
      </trkpt>
      <trkpt lat="44.30894" lon="3.39519">
        <ele>971.6</ele>
        <time>2020-08-25T12:14:28.000Z</time>
      </trkpt>
      <trkpt lat="44.30893" lon="3.39523">
        <ele>971.6</ele>
        <time>2020-08-25T12:14:29.000Z</time>
      </trkpt>
      <trkpt lat="44.30893" lon="3.39529">
        <ele>971.6</ele>
        <time>2020-08-25T12:14:31.000Z</time>
      </trkpt>
      <trkpt lat="44.30892" lon="3.39533">
        <ele>971.6</ele>
        <time>2020-08-25T12:14:33.000Z</time>
      </trkpt>
      <trkpt lat="44.30891" lon="3.39535">
        <ele>971.6</ele>
        <time>2020-08-25T12:14:34.000Z</time>
      </trkpt>
      <trkpt lat="44.30892" lon="3.39537">
        <ele>971.6</ele>
        <time>2020-08-25T12:14:36.000Z</time>
      </trkpt>
      <trkpt lat="44.3089" lon="3.39537">
        <ele>971.6</ele>
        <time>2020-08-25T12:14:38.000Z</time>
      </trkpt>
      <trkpt lat="44.30888" lon="3.39534">
        <ele>971.6</ele>
        <time>2020-08-25T12:14:40.000Z</time>
      </trkpt>
      <trkpt lat="44.30887" lon="3.39533">
        <ele>971.6</ele>
        <time>2020-08-25T12:14:41.000Z</time>
      </trkpt>
      <trkpt lat="44.30886" lon="3.39531">
        <ele>971.6</ele>
        <time>2020-08-25T12:14:42.000Z</time>
      </trkpt>
      <trkpt lat="44.30887" lon="3.39532">
        <ele>971.6</ele>
        <time>2020-08-25T12:14:44.000Z</time>
      </trkpt>
      <trkpt lat="44.30887" lon="3.39533">
        <ele>971.6</ele>
        <time>2020-08-25T12:14:45.000Z</time>
      </trkpt>
      <trkpt lat="44.30888" lon="3.39533">
        <ele>971.6</ele>
        <time>2020-08-25T12:14:47.000Z</time>
      </trkpt>
      <trkpt lat="44.30888" lon="3.39532">
        <ele>971.6</ele>
        <time>2020-08-25T12:14:48.000Z</time>
      </trkpt>
      <trkpt lat="44.30889" lon="3.39531">
        <ele>971.6</ele>
        <time>2020-08-25T12:14:49.000Z</time>
      </trkpt>
      <trkpt lat="44.3089" lon="3.39531">
        <ele>971.6</ele>
        <time>2020-08-25T12:14:50.000Z</time>
      </trkpt>
      <trkpt lat="44.3089" lon="3.39532">
        <ele>971.6</ele>
        <time>2020-08-25T12:14:52.000Z</time>
      </trkpt>
      <trkpt lat="44.3089" lon="3.39533">
        <ele>971.6</ele>
        <time>2020-08-25T12:14:53.000Z</time>
      </trkpt>
      <trkpt lat="44.30891" lon="3.39535">
        <ele>971.6</ele>
        <time>2020-08-25T12:14:55.000Z</time>
      </trkpt>
      <trkpt lat="44.30891" lon="3.39538">
        <ele>971.6</ele>
        <time>2020-08-25T12:14:57.000Z</time>
      </trkpt>
      <trkpt lat="44.30891" lon="3.39539">
        <ele>971.6</ele>
        <time>2020-08-25T12:14:58.000Z</time>
      </trkpt>
      <trkpt lat="44.30891" lon="3.3954">
        <ele>971.6</ele>
        <time>2020-08-25T12:14:59.000Z</time>
      </trkpt>
      <trkpt lat="44.30892" lon="3.39544">
        <ele>971.6</ele>
        <time>2020-08-25T12:15:01.000Z</time>
      </trkpt>
      <trkpt lat="44.30892" lon="3.39548">
        <ele>971.6</ele>
        <time>2020-08-25T12:15:03.000Z</time>
      </trkpt>
      <trkpt lat="44.30892" lon="3.39551">
        <ele>971.6</ele>
        <time>2020-08-25T12:15:04.000Z</time>
      </trkpt>
      <trkpt lat="44.30892" lon="3.39553">
        <ele>971.6</ele>
        <time>2020-08-25T12:15:05.000Z</time>
      </trkpt>
      <trkpt lat="44.30891" lon="3.3957">
        <ele>971.5</ele>
        <time>2020-08-25T12:15:07.000Z</time>
      </trkpt>
      <trkpt lat="44.3089" lon="3.39588">
        <ele>971.1</ele>
        <time>2020-08-25T12:15:09.000Z</time>
      </trkpt>
      <trkpt lat="44.30892" lon="3.396">
        <ele>970.7</ele>
        <time>2020-08-25T12:15:11.000Z</time>
      </trkpt>
      <trkpt lat="44.30894" lon="3.39606">
        <ele>970.6</ele>
        <time>2020-08-25T12:15:12.000Z</time>
      </trkpt>
      <trkpt lat="44.30895" lon="3.39614">
        <ele>970.3</ele>
        <time>2020-08-25T12:15:14.000Z</time>
      </trkpt>
      <trkpt lat="44.30895" lon="3.39617">
        <ele>970.3</ele>
        <time>2020-08-25T12:15:15.000Z</time>
      </trkpt>
      <trkpt lat="44.30892" lon="3.3962">
        <ele>970</ele>
        <time>2020-08-25T12:15:17.000Z</time>
      </trkpt>
      <trkpt lat="44.3089" lon="3.3962">
        <ele>969.9</ele>
        <time>2020-08-25T12:15:18.000Z</time>
      </trkpt>
      <trkpt lat="44.30885" lon="3.3962">
        <ele>969.8</ele>
        <time>2020-08-25T12:15:20.000Z</time>
      </trkpt>
      <trkpt lat="44.30881" lon="3.39622">
        <ele>969.7</ele>
        <time>2020-08-25T12:15:22.000Z</time>
      </trkpt>
      <trkpt lat="44.30877" lon="3.39625">
        <ele>969.7</ele>
        <time>2020-08-25T12:15:24.000Z</time>
      </trkpt>
      <trkpt lat="44.30873" lon="3.39625">
        <ele>969.7</ele>
        <time>2020-08-25T12:15:25.000Z</time>
      </trkpt>
      <trkpt lat="44.30872" lon="3.39625">
        <ele>969.6</ele>
        <time>2020-08-25T12:15:26.000Z</time>
      </trkpt>
      <trkpt lat="44.30868" lon="3.39625">
        <ele>969.7</ele>
        <time>2020-08-25T12:15:28.000Z</time>
      </trkpt>
      <trkpt lat="44.30869" lon="3.39624">
        <ele>969.7</ele>
        <time>2020-08-25T12:15:29.000Z</time>
      </trkpt>
      <trkpt lat="44.30869" lon="3.39624">
        <ele>969.7</ele>
        <time>2020-08-25T12:15:31.000Z</time>
      </trkpt>
      <trkpt lat="44.3087" lon="3.39624">
        <ele>969.7</ele>
        <time>2020-08-25T12:15:33.000Z</time>
      </trkpt>
      <trkpt lat="44.30871" lon="3.39623">
        <ele>969.7</ele>
        <time>2020-08-25T12:15:34.000Z</time>
      </trkpt>
      <trkpt lat="44.30872" lon="3.39623">
        <ele>969.7</ele>
        <time>2020-08-25T12:15:36.000Z</time>
      </trkpt>
      <trkpt lat="44.30873" lon="3.39623">
        <ele>969.7</ele>
        <time>2020-08-25T12:15:38.000Z</time>
      </trkpt>
      <trkpt lat="44.30874" lon="3.39623">
        <ele>969.7</ele>
        <time>2020-08-25T12:15:39.000Z</time>
      </trkpt>
      <trkpt lat="44.30875" lon="3.39622">
        <ele>969.7</ele>
        <time>2020-08-25T12:23:07.000Z</time>
      </trkpt>
      <trkpt lat="44.30875" lon="3.39622">
        <ele>969.7</ele>
        <time>2020-08-25T12:23:09.000Z</time>
      </trkpt>
      <trkpt lat="44.30876" lon="3.39622">
        <ele>969.7</ele>
        <time>2020-08-25T12:23:10.000Z</time>
      </trkpt>
      <trkpt lat="44.30877" lon="3.39622">
        <ele>969.7</ele>
        <time>2020-08-25T12:23:11.000Z</time>
      </trkpt>
      <trkpt lat="44.30879" lon="3.39621">
        <ele>969.7</ele>
        <time>2020-08-25T12:23:13.000Z</time>
      </trkpt>
      <trkpt lat="44.3088" lon="3.39621">
        <ele>969.7</ele>
        <time>2020-08-25T12:23:14.000Z</time>
      </trkpt>
      <trkpt lat="44.3088" lon="3.39621">
        <ele>969.7</ele>
        <time>2020-08-25T12:23:15.000Z</time>
      </trkpt>
      <trkpt lat="44.3088" lon="3.39621">
        <ele>969.7</ele>
        <time>2020-08-25T12:23:17.000Z</time>
      </trkpt>
      <trkpt lat="44.3088" lon="3.3962">
        <ele>969.7</ele>
        <time>2020-08-25T12:23:19.000Z</time>
      </trkpt>
      <trkpt lat="44.30881" lon="3.3962">
        <ele>969.7</ele>
        <time>2020-08-25T12:23:20.000Z</time>
      </trkpt>
      <trkpt lat="44.30883" lon="3.39619">
        <ele>969.8</ele>
        <time>2020-08-25T12:23:22.000Z</time>
      </trkpt>
      <trkpt lat="44.30885" lon="3.39619">
        <ele>969.8</ele>
        <time>2020-08-25T12:23:24.000Z</time>
      </trkpt>
      <trkpt lat="44.30886" lon="3.39619">
        <ele>969.8</ele>
        <time>2020-08-25T12:23:25.000Z</time>
      </trkpt>
      <trkpt lat="44.30887" lon="3.39619">
        <ele>969.8</ele>
        <time>2020-08-25T12:23:26.000Z</time>
      </trkpt>
      <trkpt lat="44.30887" lon="3.39619">
        <ele>969.8</ele>
        <time>2020-08-25T12:23:27.000Z</time>
      </trkpt>
      <trkpt lat="44.30888" lon="3.3962">
        <ele>969.8</ele>
        <time>2020-08-25T12:23:29.000Z</time>
      </trkpt>
      <trkpt lat="44.30888" lon="3.39621">
        <ele>969.9</ele>
        <time>2020-08-25T12:23:31.000Z</time>
      </trkpt>
      <trkpt lat="44.30889" lon="3.39622">
        <ele>969.9</ele>
        <time>2020-08-25T12:23:32.000Z</time>
      </trkpt>
      <trkpt lat="44.30891" lon="3.39625">
        <ele>970</ele>
        <time>2020-08-25T12:23:34.000Z</time>
      </trkpt>
      <trkpt lat="44.30894" lon="3.39631">
        <ele>970</ele>
        <time>2020-08-25T12:23:36.000Z</time>
      </trkpt>
      <trkpt lat="44.30895" lon="3.39635">
        <ele>969.9</ele>
        <time>2020-08-25T12:23:37.000Z</time>
      </trkpt>
      <trkpt lat="44.30898" lon="3.39642">
        <ele>969.7</ele>
        <time>2020-08-25T12:23:39.000Z</time>
      </trkpt>
      <trkpt lat="44.30899" lon="3.39647">
        <ele>969.6</ele>
        <time>2020-08-25T12:23:40.000Z</time>
      </trkpt>
      <trkpt lat="44.30903" lon="3.39654">
        <ele>969.5</ele>
        <time>2020-08-25T12:23:42.000Z</time>
      </trkpt>
      <trkpt lat="44.30905" lon="3.39657">
        <ele>969.4</ele>
        <time>2020-08-25T12:23:43.000Z</time>
      </trkpt>
      <trkpt lat="44.30911" lon="3.39663">
        <ele>969.2</ele>
        <time>2020-08-25T12:23:45.000Z</time>
      </trkpt>
      <trkpt lat="44.30916" lon="3.39668">
        <ele>969.1</ele>
        <time>2020-08-25T12:23:47.000Z</time>
      </trkpt>
      <trkpt lat="44.30919" lon="3.39671">
        <ele>969</ele>
        <time>2020-08-25T12:23:48.000Z</time>
      </trkpt>
      <trkpt lat="44.30922" lon="3.39674">
        <ele>968.9</ele>
        <time>2020-08-25T12:23:49.000Z</time>
      </trkpt>
      <trkpt lat="44.30925" lon="3.39684">
        <ele>968.7</ele>
        <time>2020-08-25T12:23:51.000Z</time>
      </trkpt>
      <trkpt lat="44.30925" lon="3.39688">
        <ele>968.6</ele>
        <time>2020-08-25T12:23:52.000Z</time>
      </trkpt>
      <trkpt lat="44.30924" lon="3.39701">
        <ele>968.6</ele>
        <time>2020-08-25T12:23:54.000Z</time>
      </trkpt>
      <trkpt lat="44.30923" lon="3.39707">
        <ele>968.6</ele>
        <time>2020-08-25T12:23:55.000Z</time>
      </trkpt>
      <trkpt lat="44.30922" lon="3.39718">
        <ele>968.5</ele>
        <time>2020-08-25T12:23:57.000Z</time>
      </trkpt>
      <trkpt lat="44.30921" lon="3.3973">
        <ele>968.5</ele>
        <time>2020-08-25T12:23:59.000Z</time>
      </trkpt>
      <trkpt lat="44.3092" lon="3.39741">
        <ele>968.5</ele>
        <time>2020-08-25T12:24:01.000Z</time>
      </trkpt>
      <trkpt lat="44.3092" lon="3.39746">
        <ele>968.6</ele>
        <time>2020-08-25T12:24:02.000Z</time>
      </trkpt>
      <trkpt lat="44.30918" lon="3.39756">
        <ele>968.6</ele>
        <time>2020-08-25T12:24:04.000Z</time>
      </trkpt>
      <trkpt lat="44.30916" lon="3.39764">
        <ele>968.6</ele>
        <time>2020-08-25T12:24:06.000Z</time>
      </trkpt>
      <trkpt lat="44.30915" lon="3.39774">
        <ele>968.6</ele>
        <time>2020-08-25T12:24:08.000Z</time>
      </trkpt>
      <trkpt lat="44.30914" lon="3.39781">
        <ele>968.7</ele>
        <time>2020-08-25T12:24:09.000Z</time>
      </trkpt>
      <trkpt lat="44.30913" lon="3.39783">
        <ele>968.7</ele>
        <time>2020-08-25T12:24:10.000Z</time>
      </trkpt>
      <trkpt lat="44.30911" lon="3.39793">
        <ele>968.8</ele>
        <time>2020-08-25T12:24:12.000Z</time>
      </trkpt>
      <trkpt lat="44.30908" lon="3.39802">
        <ele>968.9</ele>
        <time>2020-08-25T12:24:14.000Z</time>
      </trkpt>
      <trkpt lat="44.30905" lon="3.3981">
        <ele>969</ele>
        <time>2020-08-25T12:24:16.000Z</time>
      </trkpt>
      <trkpt lat="44.30904" lon="3.39814">
        <ele>969.1</ele>
        <time>2020-08-25T12:24:17.000Z</time>
      </trkpt>
      <trkpt lat="44.30901" lon="3.39823">
        <ele>969.2</ele>
        <time>2020-08-25T12:24:19.000Z</time>
      </trkpt>
      <trkpt lat="44.30898" lon="3.39831">
        <ele>969.4</ele>
        <time>2020-08-25T12:24:21.000Z</time>
      </trkpt>
      <trkpt lat="44.30896" lon="3.39835">
        <ele>969.5</ele>
        <time>2020-08-25T12:24:22.000Z</time>
      </trkpt>
      <trkpt lat="44.30892" lon="3.39843">
        <ele>968.1</ele>
        <time>2020-08-25T12:24:24.000Z</time>
      </trkpt>
      <trkpt lat="44.3089" lon="3.3985">
        <ele>968.3</ele>
        <time>2020-08-25T12:24:26.000Z</time>
      </trkpt>
      <trkpt lat="44.30888" lon="3.39854">
        <ele>968.5</ele>
        <time>2020-08-25T12:24:27.000Z</time>
      </trkpt>
      <trkpt lat="44.30884" lon="3.3986">
        <ele>968.7</ele>
        <time>2020-08-25T12:24:29.000Z</time>
      </trkpt>
      <trkpt lat="44.30882" lon="3.39864">
        <ele>968.8</ele>
        <time>2020-08-25T12:24:30.000Z</time>
      </trkpt>
      <trkpt lat="44.30879" lon="3.39871">
        <ele>969.1</ele>
        <time>2020-08-25T12:24:32.000Z</time>
      </trkpt>
      <trkpt lat="44.30877" lon="3.39874">
        <ele>969.3</ele>
        <time>2020-08-25T12:24:33.000Z</time>
      </trkpt>
      <trkpt lat="44.30874" lon="3.39878">
        <ele>969.5</ele>
        <time>2020-08-25T12:24:34.000Z</time>
      </trkpt>
      <trkpt lat="44.30873" lon="3.39879">
        <ele>969.6</ele>
        <time>2020-08-25T12:24:35.000Z</time>
      </trkpt>
      <trkpt lat="44.3087" lon="3.39884">
        <ele>969.9</ele>
        <time>2020-08-25T12:24:37.000Z</time>
      </trkpt>
      <trkpt lat="44.30869" lon="3.39887">
        <ele>970.1</ele>
        <time>2020-08-25T12:24:38.000Z</time>
      </trkpt>
      <trkpt lat="44.30867" lon="3.3989">
        <ele>970.2</ele>
        <time>2020-08-25T12:24:39.000Z</time>
      </trkpt>
      <trkpt lat="44.30864" lon="3.39895">
        <ele>970.6</ele>
        <time>2020-08-25T12:24:41.000Z</time>
      </trkpt>
      <trkpt lat="44.30862" lon="3.39897">
        <ele>970.7</ele>
        <time>2020-08-25T12:24:42.000Z</time>
      </trkpt>
      <trkpt lat="44.3086" lon="3.39902">
        <ele>971</ele>
        <time>2020-08-25T12:24:44.000Z</time>
      </trkpt>
      <trkpt lat="44.30859" lon="3.39905">
        <ele>971.2</ele>
        <time>2020-08-25T12:24:45.000Z</time>
      </trkpt>
      <trkpt lat="44.30856" lon="3.39909">
        <ele>971.4</ele>
        <time>2020-08-25T12:24:47.000Z</time>
      </trkpt>
      <trkpt lat="44.30854" lon="3.39912">
        <ele>971.7</ele>
        <time>2020-08-25T12:24:48.000Z</time>
      </trkpt>
      <trkpt lat="44.30853" lon="3.39913">
        <ele>971.7</ele>
        <time>2020-08-25T12:24:49.000Z</time>
      </trkpt>
      <trkpt lat="44.3085" lon="3.39916">
        <ele>972</ele>
        <time>2020-08-25T12:24:51.000Z</time>
      </trkpt>
      <trkpt lat="44.30847" lon="3.39921">
        <ele>972.3</ele>
        <time>2020-08-25T12:24:53.000Z</time>
      </trkpt>
      <trkpt lat="44.30846" lon="3.39922">
        <ele>972.4</ele>
        <time>2020-08-25T12:24:54.000Z</time>
      </trkpt>
      <trkpt lat="44.30845" lon="3.39924">
        <ele>972.5</ele>
        <time>2020-08-25T12:24:55.000Z</time>
      </trkpt>
      <trkpt lat="44.30843" lon="3.39927">
        <ele>972.7</ele>
        <time>2020-08-25T12:24:56.000Z</time>
      </trkpt>
      <trkpt lat="44.30842" lon="3.39928">
        <ele>972.8</ele>
        <time>2020-08-25T12:24:57.000Z</time>
      </trkpt>
      <trkpt lat="44.30838" lon="3.39931">
        <ele>973.1</ele>
        <time>2020-08-25T12:24:59.000Z</time>
      </trkpt>
      <trkpt lat="44.30835" lon="3.39935">
        <ele>973.3</ele>
        <time>2020-08-25T12:25:01.000Z</time>
      </trkpt>
      <trkpt lat="44.30833" lon="3.39937">
        <ele>973.5</ele>
        <time>2020-08-25T12:25:02.000Z</time>
      </trkpt>
      <trkpt lat="44.30829" lon="3.39941">
        <ele>973.7</ele>
        <time>2020-08-25T12:25:04.000Z</time>
      </trkpt>
      <trkpt lat="44.30826" lon="3.39945">
        <ele>974</ele>
        <time>2020-08-25T12:25:06.000Z</time>
      </trkpt>
      <trkpt lat="44.30822" lon="3.39949">
        <ele>974.3</ele>
        <time>2020-08-25T12:25:08.000Z</time>
      </trkpt>
      <trkpt lat="44.30819" lon="3.39953">
        <ele>974.6</ele>
        <time>2020-08-25T12:25:10.000Z</time>
      </trkpt>
      <trkpt lat="44.30816" lon="3.39956">
        <ele>974.8</ele>
        <time>2020-08-25T12:25:12.000Z</time>
      </trkpt>
      <trkpt lat="44.30815" lon="3.39958">
        <ele>974.9</ele>
        <time>2020-08-25T12:25:13.000Z</time>
      </trkpt>
      <trkpt lat="44.30811" lon="3.39963">
        <ele>975.2</ele>
        <time>2020-08-25T12:25:15.000Z</time>
      </trkpt>
      <trkpt lat="44.30808" lon="3.39968">
        <ele>975.5</ele>
        <time>2020-08-25T12:25:17.000Z</time>
      </trkpt>
      <trkpt lat="44.30805" lon="3.39973">
        <ele>975.8</ele>
        <time>2020-08-25T12:25:19.000Z</time>
      </trkpt>
      <trkpt lat="44.30801" lon="3.39978">
        <ele>976</ele>
        <time>2020-08-25T12:25:21.000Z</time>
      </trkpt>
      <trkpt lat="44.308" lon="3.39981">
        <ele>976.2</ele>
        <time>2020-08-25T12:25:22.000Z</time>
      </trkpt>
      <trkpt lat="44.30797" lon="3.39987">
        <ele>976.4</ele>
        <time>2020-08-25T12:25:24.000Z</time>
      </trkpt>
      <trkpt lat="44.30793" lon="3.39993">
        <ele>976.7</ele>
        <time>2020-08-25T12:25:26.000Z</time>
      </trkpt>
      <trkpt lat="44.30792" lon="3.39995">
        <ele>976.8</ele>
        <time>2020-08-25T12:25:27.000Z</time>
      </trkpt>
      <trkpt lat="44.30789" lon="3.40001">
        <ele>977.1</ele>
        <time>2020-08-25T12:25:29.000Z</time>
      </trkpt>
      <trkpt lat="44.30787" lon="3.40003">
        <ele>977.2</ele>
        <time>2020-08-25T12:25:30.000Z</time>
      </trkpt>
      <trkpt lat="44.30784" lon="3.40008">
        <ele>977.5</ele>
        <time>2020-08-25T12:25:32.000Z</time>
      </trkpt>
      <trkpt lat="44.30783" lon="3.40011">
        <ele>977.6</ele>
        <time>2020-08-25T12:25:33.000Z</time>
      </trkpt>
      <trkpt lat="44.30781" lon="3.40016">
        <ele>977.9</ele>
        <time>2020-08-25T12:25:35.000Z</time>
      </trkpt>
      <trkpt lat="44.30778" lon="3.40021">
        <ele>978.1</ele>
        <time>2020-08-25T12:25:37.000Z</time>
      </trkpt>
      <trkpt lat="44.30776" lon="3.40026">
        <ele>978.3</ele>
        <time>2020-08-25T12:25:39.000Z</time>
      </trkpt>
      <trkpt lat="44.30773" lon="3.4003">
        <ele>978.6</ele>
        <time>2020-08-25T12:25:41.000Z</time>
      </trkpt>
      <trkpt lat="44.30771" lon="3.40034">
        <ele>978.7</ele>
        <time>2020-08-25T12:25:43.000Z</time>
      </trkpt>
      <trkpt lat="44.30769" lon="3.40037">
        <ele>978.9</ele>
        <time>2020-08-25T12:25:44.000Z</time>
      </trkpt>
      <trkpt lat="44.30768" lon="3.40038">
        <ele>979</ele>
        <time>2020-08-25T12:25:45.000Z</time>
      </trkpt>
      <trkpt lat="44.30765" lon="3.40042">
        <ele>979.2</ele>
        <time>2020-08-25T12:25:47.000Z</time>
      </trkpt>
      <trkpt lat="44.30761" lon="3.40046">
        <ele>979.4</ele>
        <time>2020-08-25T12:25:49.000Z</time>
      </trkpt>
      <trkpt lat="44.30758" lon="3.4005">
        <ele>979.6</ele>
        <time>2020-08-25T12:25:50.000Z</time>
      </trkpt>
      <trkpt lat="44.30758" lon="3.40051">
        <ele>979.6</ele>
        <time>2020-08-25T12:25:51.000Z</time>
      </trkpt>
      <trkpt lat="44.30754" lon="3.40056">
        <ele>979.8</ele>
        <time>2020-08-25T12:25:53.000Z</time>
      </trkpt>
      <trkpt lat="44.3075" lon="3.40061">
        <ele>980.1</ele>
        <time>2020-08-25T12:25:55.000Z</time>
      </trkpt>
      <trkpt lat="44.30748" lon="3.40063">
        <ele>980.2</ele>
        <time>2020-08-25T12:25:56.000Z</time>
      </trkpt>
      <trkpt lat="44.30743" lon="3.40069">
        <ele>980.4</ele>
        <time>2020-08-25T12:25:58.000Z</time>
      </trkpt>
      <trkpt lat="44.30739" lon="3.40073">
        <ele>980.5</ele>
        <time>2020-08-25T12:26:00.000Z</time>
      </trkpt>
      <trkpt lat="44.30737" lon="3.40075">
        <ele>980.6</ele>
        <time>2020-08-25T12:26:01.000Z</time>
      </trkpt>
      <trkpt lat="44.30733" lon="3.40079">
        <ele>980.8</ele>
        <time>2020-08-25T12:26:03.000Z</time>
      </trkpt>
      <trkpt lat="44.30731" lon="3.40081">
        <ele>980.8</ele>
        <time>2020-08-25T12:26:04.000Z</time>
      </trkpt>
      <trkpt lat="44.30728" lon="3.40083">
        <ele>980.9</ele>
        <time>2020-08-25T12:26:05.000Z</time>
      </trkpt>
      <trkpt lat="44.30723" lon="3.40085">
        <ele>981.2</ele>
        <time>2020-08-25T12:26:07.000Z</time>
      </trkpt>
      <trkpt lat="44.30717" lon="3.40088">
        <ele>981.4</ele>
        <time>2020-08-25T12:26:09.000Z</time>
      </trkpt>
      <trkpt lat="44.30715" lon="3.4009">
        <ele>981.6</ele>
        <time>2020-08-25T12:26:10.000Z</time>
      </trkpt>
      <trkpt lat="44.30713" lon="3.40091">
        <ele>981.7</ele>
        <time>2020-08-25T12:26:11.000Z</time>
      </trkpt>
      <trkpt lat="44.30707" lon="3.40093">
        <ele>982</ele>
        <time>2020-08-25T12:26:13.000Z</time>
      </trkpt>
      <trkpt lat="44.30704" lon="3.40094">
        <ele>982.2</ele>
        <time>2020-08-25T12:26:14.000Z</time>
      </trkpt>
      <trkpt lat="44.30699" lon="3.40096">
        <ele>982.4</ele>
        <time>2020-08-25T12:26:16.000Z</time>
      </trkpt>
      <trkpt lat="44.30694" lon="3.40097">
        <ele>982.7</ele>
        <time>2020-08-25T12:26:18.000Z</time>
      </trkpt>
      <trkpt lat="44.3069" lon="3.40097">
        <ele>982.9</ele>
        <time>2020-08-25T12:26:19.000Z</time>
      </trkpt>
      <trkpt lat="44.30689" lon="3.40098">
        <ele>982.9</ele>
        <time>2020-08-25T12:26:20.000Z</time>
      </trkpt>
      <trkpt lat="44.30684" lon="3.40098">
        <ele>983.1</ele>
        <time>2020-08-25T12:26:22.000Z</time>
      </trkpt>
      <trkpt lat="44.30682" lon="3.40099">
        <ele>983.2</ele>
        <time>2020-08-25T12:26:23.000Z</time>
      </trkpt>
      <trkpt lat="44.30677" lon="3.401">
        <ele>983.3</ele>
        <time>2020-08-25T12:26:25.000Z</time>
      </trkpt>
      <trkpt lat="44.30674" lon="3.401">
        <ele>983.3</ele>
        <time>2020-08-25T12:26:26.000Z</time>
      </trkpt>
      <trkpt lat="44.3067" lon="3.40101">
        <ele>983.3</ele>
        <time>2020-08-25T12:26:27.000Z</time>
      </trkpt>
      <trkpt lat="44.30668" lon="3.40101">
        <ele>983.3</ele>
        <time>2020-08-25T12:26:28.000Z</time>
      </trkpt>
      <trkpt lat="44.30661" lon="3.40103">
        <ele>983.3</ele>
        <time>2020-08-25T12:26:30.000Z</time>
      </trkpt>
      <trkpt lat="44.30657" lon="3.40104">
        <ele>983.2</ele>
        <time>2020-08-25T12:26:31.000Z</time>
      </trkpt>
      <trkpt lat="44.30649" lon="3.40106">
        <ele>983.2</ele>
        <time>2020-08-25T12:26:33.000Z</time>
      </trkpt>
      <trkpt lat="44.30645" lon="3.40108">
        <ele>983.2</ele>
        <time>2020-08-25T12:26:34.000Z</time>
      </trkpt>
      <trkpt lat="44.30636" lon="3.40111">
        <ele>983.3</ele>
        <time>2020-08-25T12:26:36.000Z</time>
      </trkpt>
      <trkpt lat="44.30627" lon="3.40114">
        <ele>983.4</ele>
        <time>2020-08-25T12:26:38.000Z</time>
      </trkpt>
      <trkpt lat="44.30622" lon="3.40116">
        <ele>983.5</ele>
        <time>2020-08-25T12:26:39.000Z</time>
      </trkpt>
      <trkpt lat="44.30617" lon="3.40118">
        <ele>983.6</ele>
        <time>2020-08-25T12:26:40.000Z</time>
      </trkpt>
      <trkpt lat="44.30609" lon="3.40121">
        <ele>983.8</ele>
        <time>2020-08-25T12:26:42.000Z</time>
      </trkpt>
      <trkpt lat="44.30601" lon="3.40124">
        <ele>984</ele>
        <time>2020-08-25T12:26:44.000Z</time>
      </trkpt>
      <trkpt lat="44.30594" lon="3.40126">
        <ele>984.2</ele>
        <time>2020-08-25T12:26:46.000Z</time>
      </trkpt>
      <trkpt lat="44.30591" lon="3.40127">
        <ele>984.3</ele>
        <time>2020-08-25T12:26:47.000Z</time>
      </trkpt>
      <trkpt lat="44.30585" lon="3.40129">
        <ele>984.5</ele>
        <time>2020-08-25T12:26:49.000Z</time>
      </trkpt>
      <trkpt lat="44.30578" lon="3.40132">
        <ele>984.7</ele>
        <time>2020-08-25T12:26:51.000Z</time>
      </trkpt>
      <trkpt lat="44.30575" lon="3.40133">
        <ele>984.8</ele>
        <time>2020-08-25T12:26:52.000Z</time>
      </trkpt>
      <trkpt lat="44.30568" lon="3.40136">
        <ele>984.9</ele>
        <time>2020-08-25T12:26:54.000Z</time>
      </trkpt>
      <trkpt lat="44.3056" lon="3.40138">
        <ele>985.1</ele>
        <time>2020-08-25T12:26:56.000Z</time>
      </trkpt>
      <trkpt lat="44.3055" lon="3.40143">
        <ele>985.3</ele>
        <time>2020-08-25T12:26:58.000Z</time>
      </trkpt>
      <trkpt lat="44.30546" lon="3.40145">
        <ele>985.4</ele>
        <time>2020-08-25T12:26:59.000Z</time>
      </trkpt>
      <trkpt lat="44.30538" lon="3.40148">
        <ele>985.6</ele>
        <time>2020-08-25T12:27:01.000Z</time>
      </trkpt>
      <trkpt lat="44.30531" lon="3.40152">
        <ele>985.8</ele>
        <time>2020-08-25T12:27:03.000Z</time>
      </trkpt>
      <trkpt lat="44.30527" lon="3.40154">
        <ele>985.9</ele>
        <time>2020-08-25T12:27:04.000Z</time>
      </trkpt>
      <trkpt lat="44.3052" lon="3.40158">
        <ele>986.1</ele>
        <time>2020-08-25T12:27:06.000Z</time>
      </trkpt>
      <trkpt lat="44.30513" lon="3.40162">
        <ele>986.3</ele>
        <time>2020-08-25T12:27:08.000Z</time>
      </trkpt>
      <trkpt lat="44.3051" lon="3.40164">
        <ele>986.4</ele>
        <time>2020-08-25T12:27:09.000Z</time>
      </trkpt>
      <trkpt lat="44.30506" lon="3.40166">
        <ele>986.5</ele>
        <time>2020-08-25T12:27:10.000Z</time>
      </trkpt>
      <trkpt lat="44.30503" lon="3.40168">
        <ele>986.5</ele>
        <time>2020-08-25T12:27:11.000Z</time>
      </trkpt>
      <trkpt lat="44.30496" lon="3.40172">
        <ele>986.6</ele>
        <time>2020-08-25T12:27:13.000Z</time>
      </trkpt>
      <trkpt lat="44.30492" lon="3.40174">
        <ele>986.7</ele>
        <time>2020-08-25T12:27:14.000Z</time>
      </trkpt>
      <trkpt lat="44.30489" lon="3.40176">
        <ele>986.7</ele>
        <time>2020-08-25T12:27:15.000Z</time>
      </trkpt>
      <trkpt lat="44.30483" lon="3.40182">
        <ele>986.6</ele>
        <time>2020-08-25T12:27:17.000Z</time>
      </trkpt>
      <trkpt lat="44.30477" lon="3.4019">
        <ele>986.5</ele>
        <time>2020-08-25T12:27:19.000Z</time>
      </trkpt>
      <trkpt lat="44.30474" lon="3.40195">
        <ele>986.4</ele>
        <time>2020-08-25T12:27:20.000Z</time>
      </trkpt>
      <trkpt lat="44.30471" lon="3.402">
        <ele>986.3</ele>
        <time>2020-08-25T12:27:21.000Z</time>
      </trkpt>
      <trkpt lat="44.30466" lon="3.40213">
        <ele>986.1</ele>
        <time>2020-08-25T12:27:23.000Z</time>
      </trkpt>
      <trkpt lat="44.30463" lon="3.40226">
        <ele>986</ele>
        <time>2020-08-25T12:27:25.000Z</time>
      </trkpt>
      <trkpt lat="44.30462" lon="3.40233">
        <ele>986</ele>
        <time>2020-08-25T12:27:26.000Z</time>
      </trkpt>
      <trkpt lat="44.30458" lon="3.40246">
        <ele>986.1</ele>
        <time>2020-08-25T12:27:28.000Z</time>
      </trkpt>
      <trkpt lat="44.30456" lon="3.40252">
        <ele>986.1</ele>
        <time>2020-08-25T12:27:29.000Z</time>
      </trkpt>
      <trkpt lat="44.30452" lon="3.40264">
        <ele>986.1</ele>
        <time>2020-08-25T12:27:31.000Z</time>
      </trkpt>
      <trkpt lat="44.30447" lon="3.40276">
        <ele>986.2</ele>
        <time>2020-08-25T12:27:33.000Z</time>
      </trkpt>
      <trkpt lat="44.30445" lon="3.40282">
        <ele>986.2</ele>
        <time>2020-08-25T12:27:34.000Z</time>
      </trkpt>
      <trkpt lat="44.30441" lon="3.40293">
        <ele>986.2</ele>
        <time>2020-08-25T12:27:36.000Z</time>
      </trkpt>
      <trkpt lat="44.30439" lon="3.40299">
        <ele>986.2</ele>
        <time>2020-08-25T12:27:37.000Z</time>
      </trkpt>
      <trkpt lat="44.30435" lon="3.4031">
        <ele>986.3</ele>
        <time>2020-08-25T12:27:39.000Z</time>
      </trkpt>
      <trkpt lat="44.3043" lon="3.40322">
        <ele>986.3</ele>
        <time>2020-08-25T12:27:41.000Z</time>
      </trkpt>
      <trkpt lat="44.30428" lon="3.40328">
        <ele>986.3</ele>
        <time>2020-08-25T12:27:42.000Z</time>
      </trkpt>
      <trkpt lat="44.30423" lon="3.4034">
        <ele>986.4</ele>
        <time>2020-08-25T12:27:44.000Z</time>
      </trkpt>
      <trkpt lat="44.30421" lon="3.40346">
        <ele>986.4</ele>
        <time>2020-08-25T12:27:45.000Z</time>
      </trkpt>
      <trkpt lat="44.30419" lon="3.40352">
        <ele>986.4</ele>
        <time>2020-08-25T12:27:46.000Z</time>
      </trkpt>
      <trkpt lat="44.30417" lon="3.40358">
        <ele>986.5</ele>
        <time>2020-08-25T12:27:47.000Z</time>
      </trkpt>
      <trkpt lat="44.30413" lon="3.40369">
        <ele>986.5</ele>
        <time>2020-08-25T12:27:49.000Z</time>
      </trkpt>
      <trkpt lat="44.30409" lon="3.40379">
        <ele>986.5</ele>
        <time>2020-08-25T12:27:51.000Z</time>
      </trkpt>
      <trkpt lat="44.30405" lon="3.40391">
        <ele>986.3</ele>
        <time>2020-08-25T12:27:53.000Z</time>
      </trkpt>
      <trkpt lat="44.30401" lon="3.40403">
        <ele>986.1</ele>
        <time>2020-08-25T12:27:55.000Z</time>
      </trkpt>
      <trkpt lat="44.304" lon="3.4041">
        <ele>985.9</ele>
        <time>2020-08-25T12:27:56.000Z</time>
      </trkpt>
      <trkpt lat="44.30397" lon="3.40424">
        <ele>985.7</ele>
        <time>2020-08-25T12:27:58.000Z</time>
      </trkpt>
      <trkpt lat="44.30395" lon="3.4044">
        <ele>985.3</ele>
        <time>2020-08-25T12:28:00.000Z</time>
      </trkpt>
      <trkpt lat="44.30392" lon="3.40456">
        <ele>984.9</ele>
        <time>2020-08-25T12:28:02.000Z</time>
      </trkpt>
      <trkpt lat="44.30391" lon="3.40465">
        <ele>984.7</ele>
        <time>2020-08-25T12:28:03.000Z</time>
      </trkpt>
      <trkpt lat="44.30389" lon="3.40473">
        <ele>984.5</ele>
        <time>2020-08-25T12:28:04.000Z</time>
      </trkpt>
      <trkpt lat="44.30385" lon="3.4049">
        <ele>983.8</ele>
        <time>2020-08-25T12:28:06.000Z</time>
      </trkpt>
      <trkpt lat="44.3038" lon="3.40509">
        <ele>983.1</ele>
        <time>2020-08-25T12:28:08.000Z</time>
      </trkpt>
      <trkpt lat="44.30378" lon="3.40518">
        <ele>982.7</ele>
        <time>2020-08-25T12:28:09.000Z</time>
      </trkpt>
      <trkpt lat="44.30374" lon="3.40528">
        <ele>982.1</ele>
        <time>2020-08-25T12:28:10.000Z</time>
      </trkpt>
      <trkpt lat="44.30366" lon="3.40547">
        <ele>980.8</ele>
        <time>2020-08-25T12:28:12.000Z</time>
      </trkpt>
      <trkpt lat="44.3036" lon="3.40557">
        <ele>980.1</ele>
        <time>2020-08-25T12:28:13.000Z</time>
      </trkpt>
      <trkpt lat="44.30348" lon="3.40576">
        <ele>978.9</ele>
        <time>2020-08-25T12:28:15.000Z</time>
      </trkpt>
      <trkpt lat="44.30342" lon="3.40586">
        <ele>978.5</ele>
        <time>2020-08-25T12:28:16.000Z</time>
      </trkpt>
      <trkpt lat="44.3033" lon="3.40606">
        <ele>977.6</ele>
        <time>2020-08-25T12:28:18.000Z</time>
      </trkpt>
      <trkpt lat="44.30317" lon="3.40627">
        <ele>975.7</ele>
        <time>2020-08-25T12:28:20.000Z</time>
      </trkpt>
      <trkpt lat="44.3031" lon="3.40638">
        <ele>974.9</ele>
        <time>2020-08-25T12:28:21.000Z</time>
      </trkpt>
      <trkpt lat="44.30297" lon="3.40661">
        <ele>973.4</ele>
        <time>2020-08-25T12:28:23.000Z</time>
      </trkpt>
      <trkpt lat="44.3029" lon="3.40673">
        <ele>972.6</ele>
        <time>2020-08-25T12:28:24.000Z</time>
      </trkpt>
      <trkpt lat="44.30283" lon="3.40685">
        <ele>971.9</ele>
        <time>2020-08-25T12:28:25.000Z</time>
      </trkpt>
      <trkpt lat="44.30276" lon="3.40697">
        <ele>971</ele>
        <time>2020-08-25T12:28:26.000Z</time>
      </trkpt>
      <trkpt lat="44.30259" lon="3.4072">
        <ele>969.3</ele>
        <time>2020-08-25T12:28:28.000Z</time>
      </trkpt>
      <trkpt lat="44.30251" lon="3.40732">
        <ele>968.7</ele>
        <time>2020-08-25T12:28:29.000Z</time>
      </trkpt>
      <trkpt lat="44.30234" lon="3.40754">
        <ele>967.5</ele>
        <time>2020-08-25T12:28:31.000Z</time>
      </trkpt>
      <trkpt lat="44.30219" lon="3.40781">
        <ele>966.4</ele>
        <time>2020-08-25T12:28:33.000Z</time>
      </trkpt>
      <trkpt lat="44.3021" lon="3.40811">
        <ele>966</ele>
        <time>2020-08-25T12:28:35.000Z</time>
      </trkpt>
      <trkpt lat="44.30207" lon="3.40827">
        <ele>965.9</ele>
        <time>2020-08-25T12:28:36.000Z</time>
      </trkpt>
      <trkpt lat="44.30202" lon="3.40856">
        <ele>965.3</ele>
        <time>2020-08-25T12:28:38.000Z</time>
      </trkpt>
      <trkpt lat="44.30198" lon="3.4087">
        <ele>964.8</ele>
        <time>2020-08-25T12:28:39.000Z</time>
      </trkpt>
      <trkpt lat="44.3019" lon="3.40898">
        <ele>964.2</ele>
        <time>2020-08-25T12:28:41.000Z</time>
      </trkpt>
      <trkpt lat="44.30184" lon="3.40911">
        <ele>963.7</ele>
        <time>2020-08-25T12:28:42.000Z</time>
      </trkpt>
      <trkpt lat="44.30173" lon="3.40938">
        <ele>962.7</ele>
        <time>2020-08-25T12:28:44.000Z</time>
      </trkpt>
      <trkpt lat="44.30166" lon="3.40951">
        <ele>962.3</ele>
        <time>2020-08-25T12:28:45.000Z</time>
      </trkpt>
      <trkpt lat="44.30154" lon="3.40977">
        <ele>961.4</ele>
        <time>2020-08-25T12:28:47.000Z</time>
      </trkpt>
      <trkpt lat="44.30147" lon="3.40991">
        <ele>960.9</ele>
        <time>2020-08-25T12:28:48.000Z</time>
      </trkpt>
      <trkpt lat="44.30132" lon="3.41017">
        <ele>960</ele>
        <time>2020-08-25T12:28:50.000Z</time>
      </trkpt>
      <trkpt lat="44.30122" lon="3.41028">
        <ele>959</ele>
        <time>2020-08-25T12:28:51.000Z</time>
      </trkpt>
      <trkpt lat="44.30099" lon="3.41045">
        <ele>956.6</ele>
        <time>2020-08-25T12:28:53.000Z</time>
      </trkpt>
      <trkpt lat="44.30088" lon="3.41053">
        <ele>955.4</ele>
        <time>2020-08-25T12:28:54.000Z</time>
      </trkpt>
      <trkpt lat="44.30068" lon="3.41069">
        <ele>953.2</ele>
        <time>2020-08-25T12:28:56.000Z</time>
      </trkpt>
      <trkpt lat="44.30058" lon="3.41077">
        <ele>952.1</ele>
        <time>2020-08-25T12:28:57.000Z</time>
      </trkpt>
      <trkpt lat="44.30049" lon="3.41084">
        <ele>951.2</ele>
        <time>2020-08-25T12:28:58.000Z</time>
      </trkpt>
      <trkpt lat="44.30033" lon="3.41103">
        <ele>949.7</ele>
        <time>2020-08-25T12:29:00.000Z</time>
      </trkpt>
      <trkpt lat="44.30018" lon="3.41125">
        <ele>948.8</ele>
        <time>2020-08-25T12:29:02.000Z</time>
      </trkpt>
      <trkpt lat="44.30004" lon="3.41148">
        <ele>948</ele>
        <time>2020-08-25T12:29:04.000Z</time>
      </trkpt>
      <trkpt lat="44.29998" lon="3.41161">
        <ele>947.6</ele>
        <time>2020-08-25T12:29:05.000Z</time>
      </trkpt>
      <trkpt lat="44.29989" lon="3.41187">
        <ele>946.8</ele>
        <time>2020-08-25T12:29:07.000Z</time>
      </trkpt>
      <trkpt lat="44.2998" lon="3.41213">
        <ele>946</ele>
        <time>2020-08-25T12:29:09.000Z</time>
      </trkpt>
      <trkpt lat="44.29976" lon="3.41227">
        <ele>945.7</ele>
        <time>2020-08-25T12:29:10.000Z</time>
      </trkpt>
      <trkpt lat="44.29967" lon="3.41252">
        <ele>945.1</ele>
        <time>2020-08-25T12:29:12.000Z</time>
      </trkpt>
      <trkpt lat="44.29963" lon="3.41265">
        <ele>944.8</ele>
        <time>2020-08-25T12:29:13.000Z</time>
      </trkpt>
      <trkpt lat="44.29958" lon="3.41278">
        <ele>944.6</ele>
        <time>2020-08-25T12:29:14.000Z</time>
      </trkpt>
      <trkpt lat="44.29949" lon="3.41303">
        <ele>944.2</ele>
        <time>2020-08-25T12:29:16.000Z</time>
      </trkpt>
      <trkpt lat="44.2994" lon="3.41326">
        <ele>944.1</ele>
        <time>2020-08-25T12:29:18.000Z</time>
      </trkpt>
      <trkpt lat="44.29936" lon="3.41336">
        <ele>944.1</ele>
        <time>2020-08-25T12:29:19.000Z</time>
      </trkpt>
      <trkpt lat="44.29929" lon="3.41353">
        <ele>944.1</ele>
        <time>2020-08-25T12:29:21.000Z</time>
      </trkpt>
      <trkpt lat="44.29923" lon="3.41367">
        <ele>944.2</ele>
        <time>2020-08-25T12:29:23.000Z</time>
      </trkpt>
      <trkpt lat="44.29919" lon="3.41374">
        <ele>944.2</ele>
        <time>2020-08-25T12:29:24.000Z</time>
      </trkpt>
      <trkpt lat="44.29913" lon="3.41387">
        <ele>944.3</ele>
        <time>2020-08-25T12:29:26.000Z</time>
      </trkpt>
      <trkpt lat="44.29908" lon="3.414">
        <ele>944.3</ele>
        <time>2020-08-25T12:29:28.000Z</time>
      </trkpt>
      <trkpt lat="44.29903" lon="3.41412">
        <ele>944.3</ele>
        <time>2020-08-25T12:29:30.000Z</time>
      </trkpt>
      <trkpt lat="44.29898" lon="3.41424">
        <ele>944.3</ele>
        <time>2020-08-25T12:29:32.000Z</time>
      </trkpt>
      <trkpt lat="44.29893" lon="3.41435">
        <ele>944.3</ele>
        <time>2020-08-25T12:29:34.000Z</time>
      </trkpt>
      <trkpt lat="44.29891" lon="3.41443">
        <ele>944.3</ele>
        <time>2020-08-25T12:29:36.000Z</time>
      </trkpt>
      <trkpt lat="44.29888" lon="3.41455">
        <ele>944.2</ele>
        <time>2020-08-25T12:29:38.000Z</time>
      </trkpt>
      <trkpt lat="44.29887" lon="3.41461">
        <ele>944.2</ele>
        <time>2020-08-25T12:29:39.000Z</time>
      </trkpt>
      <trkpt lat="44.29883" lon="3.41475">
        <ele>944.1</ele>
        <time>2020-08-25T12:29:41.000Z</time>
      </trkpt>
      <trkpt lat="44.29882" lon="3.41478">
        <ele>944.1</ele>
        <time>2020-08-25T12:29:42.000Z</time>
      </trkpt>
      <trkpt lat="44.29879" lon="3.41486">
        <ele>944.1</ele>
        <time>2020-08-25T12:29:44.000Z</time>
      </trkpt>
      <trkpt lat="44.29876" lon="3.41494">
        <ele>944</ele>
        <time>2020-08-25T12:29:46.000Z</time>
      </trkpt>
      <trkpt lat="44.29874" lon="3.41502">
        <ele>944</ele>
        <time>2020-08-25T12:29:48.000Z</time>
      </trkpt>
      <trkpt lat="44.29871" lon="3.41511">
        <ele>944.4</ele>
        <time>2020-08-25T12:29:50.000Z</time>
      </trkpt>
      <trkpt lat="44.2987" lon="3.41517">
        <ele>944.5</ele>
        <time>2020-08-25T12:29:51.000Z</time>
      </trkpt>
      <trkpt lat="44.29868" lon="3.41528">
        <ele>944.4</ele>
        <time>2020-08-25T12:29:53.000Z</time>
      </trkpt>
      <trkpt lat="44.29866" lon="3.4154">
        <ele>944.2</ele>
        <time>2020-08-25T12:29:55.000Z</time>
      </trkpt>
      <trkpt lat="44.29863" lon="3.41553">
        <ele>943.8</ele>
        <time>2020-08-25T12:29:57.000Z</time>
      </trkpt>
      <trkpt lat="44.29857" lon="3.41566">
        <ele>943.2</ele>
        <time>2020-08-25T12:29:59.000Z</time>
      </trkpt>
      <trkpt lat="44.29854" lon="3.41572">
        <ele>942.9</ele>
        <time>2020-08-25T12:30:00.000Z</time>
      </trkpt>
      <trkpt lat="44.29849" lon="3.41585">
        <ele>942.3</ele>
        <time>2020-08-25T12:30:02.000Z</time>
      </trkpt>
      <trkpt lat="44.29845" lon="3.41597">
        <ele>941.6</ele>
        <time>2020-08-25T12:30:04.000Z</time>
      </trkpt>
      <trkpt lat="44.29839" lon="3.41605">
        <ele>940.9</ele>
        <time>2020-08-25T12:30:06.000Z</time>
      </trkpt>
      <trkpt lat="44.29836" lon="3.41607">
        <ele>940.6</ele>
        <time>2020-08-25T12:30:07.000Z</time>
      </trkpt>
      <trkpt lat="44.29832" lon="3.41613">
        <ele>939.9</ele>
        <time>2020-08-25T12:30:09.000Z</time>
      </trkpt>
      <trkpt lat="44.29828" lon="3.41618">
        <ele>939.3</ele>
        <time>2020-08-25T12:30:11.000Z</time>
      </trkpt>
      <trkpt lat="44.29822" lon="3.41625">
        <ele>938.6</ele>
        <time>2020-08-25T12:30:12.000Z</time>
      </trkpt>
      <trkpt lat="44.29814" lon="3.41634">
        <ele>937.5</ele>
        <time>2020-08-25T12:30:14.000Z</time>
      </trkpt>
      <trkpt lat="44.29806" lon="3.41646">
        <ele>936.6</ele>
        <time>2020-08-25T12:30:16.000Z</time>
      </trkpt>
      <trkpt lat="44.29798" lon="3.41658">
        <ele>935.7</ele>
        <time>2020-08-25T12:30:18.000Z</time>
      </trkpt>
      <trkpt lat="44.29788" lon="3.41671">
        <ele>935</ele>
        <time>2020-08-25T12:30:20.000Z</time>
      </trkpt>
      <trkpt lat="44.29777" lon="3.41682">
        <ele>934.5</ele>
        <time>2020-08-25T12:30:22.000Z</time>
      </trkpt>
      <trkpt lat="44.29772" lon="3.41689">
        <ele>934.3</ele>
        <time>2020-08-25T12:30:23.000Z</time>
      </trkpt>
      <trkpt lat="44.29768" lon="3.41706">
        <ele>934</ele>
        <time>2020-08-25T12:30:25.000Z</time>
      </trkpt>
      <trkpt lat="44.29768" lon="3.41715">
        <ele>933.9</ele>
        <time>2020-08-25T12:30:26.000Z</time>
      </trkpt>
      <trkpt lat="44.29766" lon="3.41732">
        <ele>933.8</ele>
        <time>2020-08-25T12:30:28.000Z</time>
      </trkpt>
      <trkpt lat="44.29765" lon="3.4174">
        <ele>933.7</ele>
        <time>2020-08-25T12:30:29.000Z</time>
      </trkpt>
      <trkpt lat="44.29764" lon="3.41748">
        <ele>933.6</ele>
        <time>2020-08-25T12:30:30.000Z</time>
      </trkpt>
      <trkpt lat="44.29761" lon="3.41764">
        <ele>933.4</ele>
        <time>2020-08-25T12:30:32.000Z</time>
      </trkpt>
      <trkpt lat="44.29759" lon="3.4178">
        <ele>933.1</ele>
        <time>2020-08-25T12:30:34.000Z</time>
      </trkpt>
      <trkpt lat="44.29756" lon="3.41795">
        <ele>932.8</ele>
        <time>2020-08-25T12:30:36.000Z</time>
      </trkpt>
      <trkpt lat="44.29754" lon="3.41803">
        <ele>932.6</ele>
        <time>2020-08-25T12:30:37.000Z</time>
      </trkpt>
      <trkpt lat="44.2975" lon="3.41818">
        <ele>932.3</ele>
        <time>2020-08-25T12:30:39.000Z</time>
      </trkpt>
      <trkpt lat="44.29746" lon="3.41834">
        <ele>931.9</ele>
        <time>2020-08-25T12:30:41.000Z</time>
      </trkpt>
      <trkpt lat="44.29744" lon="3.41842">
        <ele>931.6</ele>
        <time>2020-08-25T12:30:42.000Z</time>
      </trkpt>
      <trkpt lat="44.29738" lon="3.41857">
        <ele>930.8</ele>
        <time>2020-08-25T12:30:44.000Z</time>
      </trkpt>
      <trkpt lat="44.2973" lon="3.41869">
        <ele>930.1</ele>
        <time>2020-08-25T12:30:46.000Z</time>
      </trkpt>
      <trkpt lat="44.2972" lon="3.4188">
        <ele>929.1</ele>
        <time>2020-08-25T12:30:48.000Z</time>
      </trkpt>
      <trkpt lat="44.29711" lon="3.41893">
        <ele>928.1</ele>
        <time>2020-08-25T12:30:50.000Z</time>
      </trkpt>
      <trkpt lat="44.29706" lon="3.41901">
        <ele>927.6</ele>
        <time>2020-08-25T12:30:51.000Z</time>
      </trkpt>
      <trkpt lat="44.29701" lon="3.41909">
        <ele>927</ele>
        <time>2020-08-25T12:30:52.000Z</time>
      </trkpt>
      <trkpt lat="44.29692" lon="3.41925">
        <ele>925.9</ele>
        <time>2020-08-25T12:30:54.000Z</time>
      </trkpt>
      <trkpt lat="44.29687" lon="3.41933">
        <ele>925.4</ele>
        <time>2020-08-25T12:30:55.000Z</time>
      </trkpt>
      <trkpt lat="44.29677" lon="3.41948">
        <ele>924.6</ele>
        <time>2020-08-25T12:30:57.000Z</time>
      </trkpt>
      <trkpt lat="44.29672" lon="3.41956">
        <ele>924.3</ele>
        <time>2020-08-25T12:30:58.000Z</time>
      </trkpt>
      <trkpt lat="44.29665" lon="3.41971">
        <ele>923.7</ele>
        <time>2020-08-25T12:31:00.000Z</time>
      </trkpt>
      <trkpt lat="44.29661" lon="3.41978">
        <ele>923.3</ele>
        <time>2020-08-25T12:31:01.000Z</time>
      </trkpt>
      <trkpt lat="44.29651" lon="3.41992">
        <ele>922.5</ele>
        <time>2020-08-25T12:31:03.000Z</time>
      </trkpt>
      <trkpt lat="44.29646" lon="3.41999">
        <ele>922</ele>
        <time>2020-08-25T12:31:04.000Z</time>
      </trkpt>
      <trkpt lat="44.29635" lon="3.42011">
        <ele>921.3</ele>
        <time>2020-08-25T12:31:06.000Z</time>
      </trkpt>
      <trkpt lat="44.29629" lon="3.42018">
        <ele>921</ele>
        <time>2020-08-25T12:31:07.000Z</time>
      </trkpt>
      <trkpt lat="44.29619" lon="3.42033">
        <ele>920.6</ele>
        <time>2020-08-25T12:31:09.000Z</time>
      </trkpt>
      <trkpt lat="44.29611" lon="3.42048">
        <ele>920.6</ele>
        <time>2020-08-25T12:31:11.000Z</time>
      </trkpt>
      <trkpt lat="44.29603" lon="3.42061">
        <ele>920.6</ele>
        <time>2020-08-25T12:31:13.000Z</time>
      </trkpt>
      <trkpt lat="44.29595" lon="3.42074">
        <ele>920.7</ele>
        <time>2020-08-25T12:31:15.000Z</time>
      </trkpt>
      <trkpt lat="44.29589" lon="3.42086">
        <ele>920.9</ele>
        <time>2020-08-25T12:31:17.000Z</time>
      </trkpt>
      <trkpt lat="44.29583" lon="3.42096">
        <ele>921.2</ele>
        <time>2020-08-25T12:31:19.000Z</time>
      </trkpt>
      <trkpt lat="44.2958" lon="3.42101">
        <ele>921.3</ele>
        <time>2020-08-25T12:31:20.000Z</time>
      </trkpt>
      <trkpt lat="44.29573" lon="3.42112">
        <ele>921.7</ele>
        <time>2020-08-25T12:31:22.000Z</time>
      </trkpt>
      <trkpt lat="44.29567" lon="3.42122">
        <ele>922</ele>
        <time>2020-08-25T12:31:24.000Z</time>
      </trkpt>
      <trkpt lat="44.29563" lon="3.42126">
        <ele>922.2</ele>
        <time>2020-08-25T12:31:25.000Z</time>
      </trkpt>
      <trkpt lat="44.2956" lon="3.42132">
        <ele>922.5</ele>
        <time>2020-08-25T12:31:27.000Z</time>
      </trkpt>
      <trkpt lat="44.29556" lon="3.4214">
        <ele>922.8</ele>
        <time>2020-08-25T12:31:29.000Z</time>
      </trkpt>
      <trkpt lat="44.29553" lon="3.42148">
        <ele>923.3</ele>
        <time>2020-08-25T12:31:31.000Z</time>
      </trkpt>
      <trkpt lat="44.29551" lon="3.42156">
        <ele>923.8</ele>
        <time>2020-08-25T12:31:33.000Z</time>
      </trkpt>
      <trkpt lat="44.29549" lon="3.4216">
        <ele>924.1</ele>
        <time>2020-08-25T12:31:34.000Z</time>
      </trkpt>
      <trkpt lat="44.29548" lon="3.42162">
        <ele>924.2</ele>
        <time>2020-08-25T12:31:35.000Z</time>
      </trkpt>
      <trkpt lat="44.29547" lon="3.42165">
        <ele>924.4</ele>
        <time>2020-08-25T12:31:36.000Z</time>
      </trkpt>
      <trkpt lat="44.29545" lon="3.42168">
        <ele>924.6</ele>
        <time>2020-08-25T12:31:38.000Z</time>
      </trkpt>
      <trkpt lat="44.29544" lon="3.42173">
        <ele>924.9</ele>
        <time>2020-08-25T12:31:39.000Z</time>
      </trkpt>
      <trkpt lat="44.29542" lon="3.42176">
        <ele>925.1</ele>
        <time>2020-08-25T12:31:40.000Z</time>
      </trkpt>
      <trkpt lat="44.29541" lon="3.42181">
        <ele>925.4</ele>
        <time>2020-08-25T12:31:42.000Z</time>
      </trkpt>
      <trkpt lat="44.2954" lon="3.42186">
        <ele>925.6</ele>
        <time>2020-08-25T12:31:43.000Z</time>
      </trkpt>
      <trkpt lat="44.29539" lon="3.42189">
        <ele>925.8</ele>
        <time>2020-08-25T12:31:44.000Z</time>
      </trkpt>
      <trkpt lat="44.29538" lon="3.42194">
        <ele>926.1</ele>
        <time>2020-08-25T12:31:46.000Z</time>
      </trkpt>
      <trkpt lat="44.29538" lon="3.42199">
        <ele>926.3</ele>
        <time>2020-08-25T12:31:47.000Z</time>
      </trkpt>
      <trkpt lat="44.29538" lon="3.42201">
        <ele>926.4</ele>
        <time>2020-08-25T12:31:48.000Z</time>
      </trkpt>
      <trkpt lat="44.29538" lon="3.42204">
        <ele>926.6</ele>
        <time>2020-08-25T12:31:49.000Z</time>
      </trkpt>
      <trkpt lat="44.29539" lon="3.42207">
        <ele>926.8</ele>
        <time>2020-08-25T12:31:51.000Z</time>
      </trkpt>
      <trkpt lat="44.29539" lon="3.42211">
        <ele>927</ele>
        <time>2020-08-25T12:31:52.000Z</time>
      </trkpt>
      <trkpt lat="44.29539" lon="3.42213">
        <ele>927.1</ele>
        <time>2020-08-25T12:31:53.000Z</time>
      </trkpt>
      <trkpt lat="44.29539" lon="3.42218">
        <ele>927.3</ele>
        <time>2020-08-25T12:31:55.000Z</time>
      </trkpt>
      <trkpt lat="44.29539" lon="3.42219">
        <ele>927.4</ele>
        <time>2020-08-25T12:31:56.000Z</time>
      </trkpt>
      <trkpt lat="44.29539" lon="3.42223">
        <ele>927.7</ele>
        <time>2020-08-25T12:31:57.000Z</time>
      </trkpt>
      <trkpt lat="44.29539" lon="3.42225">
        <ele>927.7</ele>
        <time>2020-08-25T12:31:58.000Z</time>
      </trkpt>
      <trkpt lat="44.29539" lon="3.42227">
        <ele>927.9</ele>
        <time>2020-08-25T12:32:00.000Z</time>
      </trkpt>
      <trkpt lat="44.29539" lon="3.42229">
        <ele>928</ele>
        <time>2020-08-25T12:32:01.000Z</time>
      </trkpt>
      <trkpt lat="44.29539" lon="3.42232">
        <ele>928.1</ele>
        <time>2020-08-25T12:32:02.000Z</time>
      </trkpt>
      <trkpt lat="44.29539" lon="3.42236">
        <ele>928.3</ele>
        <time>2020-08-25T12:32:04.000Z</time>
      </trkpt>
      <trkpt lat="44.29539" lon="3.4224">
        <ele>928.5</ele>
        <time>2020-08-25T12:32:05.000Z</time>
      </trkpt>
      <trkpt lat="44.2954" lon="3.42243">
        <ele>928.6</ele>
        <time>2020-08-25T12:32:06.000Z</time>
      </trkpt>
      <trkpt lat="44.2954" lon="3.42247">
        <ele>928.8</ele>
        <time>2020-08-25T12:32:08.000Z</time>
      </trkpt>
      <trkpt lat="44.2954" lon="3.42251">
        <ele>929</ele>
        <time>2020-08-25T12:32:09.000Z</time>
      </trkpt>
      <trkpt lat="44.2954" lon="3.42253">
        <ele>929.1</ele>
        <time>2020-08-25T12:32:10.000Z</time>
      </trkpt>
      <trkpt lat="44.2954" lon="3.42256">
        <ele>929.2</ele>
        <time>2020-08-25T12:32:11.000Z</time>
      </trkpt>
      <trkpt lat="44.29541" lon="3.42262">
        <ele>929.4</ele>
        <time>2020-08-25T12:32:13.000Z</time>
      </trkpt>
      <trkpt lat="44.29541" lon="3.42266">
        <ele>929.6</ele>
        <time>2020-08-25T12:32:15.000Z</time>
      </trkpt>
      <trkpt lat="44.29541" lon="3.42269">
        <ele>929.8</ele>
        <time>2020-08-25T12:32:16.000Z</time>
      </trkpt>
      <trkpt lat="44.29541" lon="3.42271">
        <ele>929.9</ele>
        <time>2020-08-25T12:32:17.000Z</time>
      </trkpt>
      <trkpt lat="44.29541" lon="3.42274">
        <ele>930</ele>
        <time>2020-08-25T12:32:18.000Z</time>
      </trkpt>
      <trkpt lat="44.29541" lon="3.42276">
        <ele>930.1</ele>
        <time>2020-08-25T12:32:19.000Z</time>
      </trkpt>
      <trkpt lat="44.29541" lon="3.4228">
        <ele>930.3</ele>
        <time>2020-08-25T12:32:21.000Z</time>
      </trkpt>
      <trkpt lat="44.29541" lon="3.42281">
        <ele>930.4</ele>
        <time>2020-08-25T12:32:22.000Z</time>
      </trkpt>
      <trkpt lat="44.29541" lon="3.42284">
        <ele>930.5</ele>
        <time>2020-08-25T12:32:23.000Z</time>
      </trkpt>
      <trkpt lat="44.29541" lon="3.42286">
        <ele>930.6</ele>
        <time>2020-08-25T12:32:24.000Z</time>
      </trkpt>
      <trkpt lat="44.29541" lon="3.4229">
        <ele>930.8</ele>
        <time>2020-08-25T12:32:26.000Z</time>
      </trkpt>
      <trkpt lat="44.29541" lon="3.42292">
        <ele>930.9</ele>
        <time>2020-08-25T12:32:27.000Z</time>
      </trkpt>
      <trkpt lat="44.29541" lon="3.42295">
        <ele>931</ele>
        <time>2020-08-25T12:32:28.000Z</time>
      </trkpt>
      <trkpt lat="44.2954" lon="3.42298">
        <ele>931.2</ele>
        <time>2020-08-25T12:32:30.000Z</time>
      </trkpt>
      <trkpt lat="44.29539" lon="3.42303">
        <ele>931.5</ele>
        <time>2020-08-25T12:32:31.000Z</time>
      </trkpt>
      <trkpt lat="44.29539" lon="3.42304">
        <ele>931.5</ele>
        <time>2020-08-25T12:32:32.000Z</time>
      </trkpt>
      <trkpt lat="44.29539" lon="3.42308">
        <ele>931.8</ele>
        <time>2020-08-25T12:32:34.000Z</time>
      </trkpt>
      <trkpt lat="44.29539" lon="3.42309">
        <ele>931.8</ele>
        <time>2020-08-25T12:32:35.000Z</time>
      </trkpt>
      <trkpt lat="44.29539" lon="3.42311">
        <ele>931.9</ele>
        <time>2020-08-25T12:32:36.000Z</time>
      </trkpt>
      <trkpt lat="44.29539" lon="3.42314">
        <ele>932.1</ele>
        <time>2020-08-25T12:32:38.000Z</time>
      </trkpt>
      <trkpt lat="44.29539" lon="3.42315">
        <ele>932.2</ele>
        <time>2020-08-25T12:32:39.000Z</time>
      </trkpt>
      <trkpt lat="44.29539" lon="3.42317">
        <ele>932.3</ele>
        <time>2020-08-25T12:32:40.000Z</time>
      </trkpt>
      <trkpt lat="44.29539" lon="3.42319">
        <ele>932.4</ele>
        <time>2020-08-25T12:32:42.000Z</time>
      </trkpt>
      <trkpt lat="44.29539" lon="3.42321">
        <ele>932.5</ele>
        <time>2020-08-25T12:32:44.000Z</time>
      </trkpt>
      <trkpt lat="44.29539" lon="3.42324">
        <ele>932.6</ele>
        <time>2020-08-25T12:32:45.000Z</time>
      </trkpt>
      <trkpt lat="44.29539" lon="3.42325">
        <ele>932.7</ele>
        <time>2020-08-25T12:32:46.000Z</time>
      </trkpt>
      <trkpt lat="44.29539" lon="3.42329">
        <ele>932.9</ele>
        <time>2020-08-25T12:32:48.000Z</time>
      </trkpt>
      <trkpt lat="44.29538" lon="3.42333">
        <ele>933.1</ele>
        <time>2020-08-25T12:32:49.000Z</time>
      </trkpt>
      <trkpt lat="44.29537" lon="3.42334">
        <ele>933.3</ele>
        <time>2020-08-25T12:32:51.000Z</time>
      </trkpt>
      <trkpt lat="44.29537" lon="3.42336">
        <ele>933.4</ele>
        <time>2020-08-25T12:32:52.000Z</time>
      </trkpt>
      <trkpt lat="44.29536" lon="3.42338">
        <ele>933.5</ele>
        <time>2020-08-25T12:32:53.000Z</time>
      </trkpt>
      <trkpt lat="44.29535" lon="3.42339">
        <ele>933.6</ele>
        <time>2020-08-25T12:32:54.000Z</time>
      </trkpt>
      <trkpt lat="44.29535" lon="3.42341">
        <ele>933.8</ele>
        <time>2020-08-25T12:32:55.000Z</time>
      </trkpt>
      <trkpt lat="44.29534" lon="3.42343">
        <ele>934</ele>
        <time>2020-08-25T12:32:57.000Z</time>
      </trkpt>
      <trkpt lat="44.29533" lon="3.42345">
        <ele>934.2</ele>
        <time>2020-08-25T12:32:58.000Z</time>
      </trkpt>
      <trkpt lat="44.29531" lon="3.42349">
        <ele>934.6</ele>
        <time>2020-08-25T12:33:00.000Z</time>
      </trkpt>
      <trkpt lat="44.2953" lon="3.4235">
        <ele>934.6</ele>
        <time>2020-08-25T12:33:01.000Z</time>
      </trkpt>
      <trkpt lat="44.2953" lon="3.42352">
        <ele>934.8</ele>
        <time>2020-08-25T12:33:02.000Z</time>
      </trkpt>
      <trkpt lat="44.29529" lon="3.42354">
        <ele>935</ele>
        <time>2020-08-25T12:33:04.000Z</time>
      </trkpt>
      <trkpt lat="44.29528" lon="3.42358">
        <ele>935.3</ele>
        <time>2020-08-25T12:33:05.000Z</time>
      </trkpt>
      <trkpt lat="44.29527" lon="3.42359">
        <ele>935.4</ele>
        <time>2020-08-25T12:33:06.000Z</time>
      </trkpt>
      <trkpt lat="44.29526" lon="3.42363">
        <ele>935.6</ele>
        <time>2020-08-25T12:33:08.000Z</time>
      </trkpt>
      <trkpt lat="44.29525" lon="3.42364">
        <ele>935.7</ele>
        <time>2020-08-25T12:33:09.000Z</time>
      </trkpt>
      <trkpt lat="44.29524" lon="3.42366">
        <ele>935.8</ele>
        <time>2020-08-25T12:33:10.000Z</time>
      </trkpt>
      <trkpt lat="44.29524" lon="3.42367">
        <ele>936</ele>
        <time>2020-08-25T12:33:11.000Z</time>
      </trkpt>
      <trkpt lat="44.29523" lon="3.42369">
        <ele>936</ele>
        <time>2020-08-25T12:33:12.000Z</time>
      </trkpt>
      <trkpt lat="44.29523" lon="3.4237">
        <ele>936.1</ele>
        <time>2020-08-25T12:33:13.000Z</time>
      </trkpt>
      <trkpt lat="44.29522" lon="3.42372">
        <ele>936.2</ele>
        <time>2020-08-25T12:33:15.000Z</time>
      </trkpt>
      <trkpt lat="44.29521" lon="3.42376">
        <ele>936.4</ele>
        <time>2020-08-25T12:33:17.000Z</time>
      </trkpt>
      <trkpt lat="44.2952" lon="3.42378">
        <ele>936.5</ele>
        <time>2020-08-25T12:33:18.000Z</time>
      </trkpt>
      <trkpt lat="44.29519" lon="3.4238">
        <ele>936.5</ele>
        <time>2020-08-25T12:33:19.000Z</time>
      </trkpt>
      <trkpt lat="44.29518" lon="3.42382">
        <ele>936.6</ele>
        <time>2020-08-25T12:33:21.000Z</time>
      </trkpt>
      <trkpt lat="44.29516" lon="3.42384">
        <ele>936.6</ele>
        <time>2020-08-25T12:33:22.000Z</time>
      </trkpt>
      <trkpt lat="44.29514" lon="3.42386">
        <ele>936.7</ele>
        <time>2020-08-25T12:33:24.000Z</time>
      </trkpt>
      <trkpt lat="44.29511" lon="3.42386">
        <ele>936.6</ele>
        <time>2020-08-25T12:33:25.000Z</time>
      </trkpt>
      <trkpt lat="44.29509" lon="3.42385">
        <ele>936.6</ele>
        <time>2020-08-25T12:33:26.000Z</time>
      </trkpt>
      <trkpt lat="44.29506" lon="3.42384">
        <ele>936.6</ele>
        <time>2020-08-25T12:33:28.000Z</time>
      </trkpt>
      <trkpt lat="44.29502" lon="3.42382">
        <ele>936.6</ele>
        <time>2020-08-25T12:33:29.000Z</time>
      </trkpt>
      <trkpt lat="44.29498" lon="3.4238">
        <ele>936.5</ele>
        <time>2020-08-25T12:33:30.000Z</time>
      </trkpt>
      <trkpt lat="44.29492" lon="3.42376">
        <ele>936.4</ele>
        <time>2020-08-25T12:33:32.000Z</time>
      </trkpt>
      <trkpt lat="44.29488" lon="3.42372">
        <ele>936.2</ele>
        <time>2020-08-25T12:33:33.000Z</time>
      </trkpt>
      <trkpt lat="44.29484" lon="3.42369">
        <ele>935.9</ele>
        <time>2020-08-25T12:33:35.000Z</time>
      </trkpt>
      <trkpt lat="44.2948" lon="3.4237">
        <ele>935.9</ele>
        <time>2020-08-25T12:33:36.000Z</time>
      </trkpt>
      <trkpt lat="44.29477" lon="3.42373">
        <ele>935.8</ele>
        <time>2020-08-25T12:33:37.000Z</time>
      </trkpt>
      <trkpt lat="44.29475" lon="3.42376">
        <ele>935.8</ele>
        <time>2020-08-25T12:33:38.000Z</time>
      </trkpt>
      <trkpt lat="44.29471" lon="3.4238">
        <ele>935.8</ele>
        <time>2020-08-25T12:33:40.000Z</time>
      </trkpt>
      <trkpt lat="44.29466" lon="3.42382">
        <ele>935.7</ele>
        <time>2020-08-25T12:33:41.000Z</time>
      </trkpt>
      <trkpt lat="44.29461" lon="3.42383">
        <ele>935.7</ele>
        <time>2020-08-25T12:33:43.000Z</time>
      </trkpt>
      <trkpt lat="44.29459" lon="3.42385">
        <ele>935.6</ele>
        <time>2020-08-25T12:33:44.000Z</time>
      </trkpt>
      <trkpt lat="44.29456" lon="3.42387">
        <ele>935.6</ele>
        <time>2020-08-25T12:33:45.000Z</time>
      </trkpt>
      <trkpt lat="44.29451" lon="3.42393">
        <ele>935.6</ele>
        <time>2020-08-25T12:33:47.000Z</time>
      </trkpt>
      <trkpt lat="44.29446" lon="3.42402">
        <ele>935.6</ele>
        <time>2020-08-25T12:33:49.000Z</time>
      </trkpt>
      <trkpt lat="44.29443" lon="3.42408">
        <ele>935.5</ele>
        <time>2020-08-25T12:33:50.000Z</time>
      </trkpt>
      <trkpt lat="44.29438" lon="3.42414">
        <ele>935.5</ele>
        <time>2020-08-25T12:33:52.000Z</time>
      </trkpt>
      <trkpt lat="44.29434" lon="3.42421">
        <ele>935.6</ele>
        <time>2020-08-25T12:33:54.000Z</time>
      </trkpt>
      <trkpt lat="44.29432" lon="3.42425">
        <ele>935.6</ele>
        <time>2020-08-25T12:33:55.000Z</time>
      </trkpt>
      <trkpt lat="44.2943" lon="3.42431">
        <ele>935.7</ele>
        <time>2020-08-25T12:33:56.000Z</time>
      </trkpt>
      <trkpt lat="44.29429" lon="3.42435">
        <ele>935.7</ele>
        <time>2020-08-25T12:33:57.000Z</time>
      </trkpt>
      <trkpt lat="44.29428" lon="3.4244">
        <ele>935.7</ele>
        <time>2020-08-25T12:33:59.000Z</time>
      </trkpt>
      <trkpt lat="44.29427" lon="3.42445">
        <ele>935.8</ele>
        <time>2020-08-25T12:34:01.000Z</time>
      </trkpt>
      <trkpt lat="44.29426" lon="3.42448">
        <ele>935.8</ele>
        <time>2020-08-25T12:34:02.000Z</time>
      </trkpt>
      <trkpt lat="44.29424" lon="3.42453">
        <ele>935.8</ele>
        <time>2020-08-25T12:34:03.000Z</time>
      </trkpt>
      <trkpt lat="44.29424" lon="3.42454">
        <ele>935.8</ele>
        <time>2020-08-25T12:34:04.000Z</time>
      </trkpt>
      <trkpt lat="44.29423" lon="3.42455">
        <ele>935.8</ele>
        <time>2020-08-25T12:34:05.000Z</time>
      </trkpt>
      <trkpt lat="44.29422" lon="3.42455">
        <ele>935.8</ele>
        <time>2020-08-25T12:34:07.000Z</time>
      </trkpt>
      <trkpt lat="44.29422" lon="3.42455">
        <ele>935.8</ele>
        <time>2020-08-25T12:34:08.000Z</time>
      </trkpt>
      <trkpt lat="44.29421" lon="3.42455">
        <ele>935.8</ele>
        <time>2020-08-25T12:34:10.000Z</time>
      </trkpt>
      <trkpt lat="44.29421" lon="3.42457">
        <ele>935.8</ele>
        <time>2020-08-25T12:34:12.000Z</time>
      </trkpt>
      <trkpt lat="44.29419" lon="3.4246">
        <ele>935.8</ele>
        <time>2020-08-25T12:34:14.000Z</time>
      </trkpt>
      <trkpt lat="44.29417" lon="3.42464">
        <ele>935.8</ele>
        <time>2020-08-25T12:34:15.000Z</time>
      </trkpt>
      <trkpt lat="44.29415" lon="3.42468">
        <ele>935.7</ele>
        <time>2020-08-25T12:34:16.000Z</time>
      </trkpt>
      <trkpt lat="44.29414" lon="3.4247">
        <ele>935.7</ele>
        <time>2020-08-25T12:34:17.000Z</time>
      </trkpt>
      <trkpt lat="44.29412" lon="3.42473">
        <ele>935.6</ele>
        <time>2020-08-25T12:34:18.000Z</time>
      </trkpt>
      <trkpt lat="44.29409" lon="3.42477">
        <ele>935.6</ele>
        <time>2020-08-25T12:34:19.000Z</time>
      </trkpt>
      <trkpt lat="44.29405" lon="3.42484">
        <ele>935.5</ele>
        <time>2020-08-25T12:34:21.000Z</time>
      </trkpt>
      <trkpt lat="44.294" lon="3.42493">
        <ele>935.3</ele>
        <time>2020-08-25T12:34:22.000Z</time>
      </trkpt>
      <trkpt lat="44.29396" lon="3.42498">
        <ele>935.3</ele>
        <time>2020-08-25T12:34:23.000Z</time>
      </trkpt>
      <trkpt lat="44.29393" lon="3.42505">
        <ele>935.2</ele>
        <time>2020-08-25T12:34:24.000Z</time>
      </trkpt>
      <trkpt lat="44.2939" lon="3.42509">
        <ele>935.2</ele>
        <time>2020-08-25T12:34:25.000Z</time>
      </trkpt>
      <trkpt lat="44.29388" lon="3.42514">
        <ele>935.1</ele>
        <time>2020-08-25T12:34:27.000Z</time>
      </trkpt>
      <trkpt lat="44.29384" lon="3.42519">
        <ele>935.1</ele>
        <time>2020-08-25T12:34:28.000Z</time>
      </trkpt>
      <trkpt lat="44.2938" lon="3.42524">
        <ele>935.1</ele>
        <time>2020-08-25T12:34:29.000Z</time>
      </trkpt>
      <trkpt lat="44.29377" lon="3.42529">
        <ele>935</ele>
        <time>2020-08-25T12:34:31.000Z</time>
      </trkpt>
      <trkpt lat="44.29373" lon="3.42533">
        <ele>935</ele>
        <time>2020-08-25T12:34:32.000Z</time>
      </trkpt>
      <trkpt lat="44.29369" lon="3.42541">
        <ele>935</ele>
        <time>2020-08-25T12:34:34.000Z</time>
      </trkpt>
      <trkpt lat="44.29367" lon="3.42544">
        <ele>935</ele>
        <time>2020-08-25T12:34:35.000Z</time>
      </trkpt>
      <trkpt lat="44.29365" lon="3.42547">
        <ele>935</ele>
        <time>2020-08-25T12:34:36.000Z</time>
      </trkpt>
      <trkpt lat="44.29361" lon="3.42552">
        <ele>935</ele>
        <time>2020-08-25T12:34:38.000Z</time>
      </trkpt>
      <trkpt lat="44.29358" lon="3.42557">
        <ele>935</ele>
        <time>2020-08-25T12:34:39.000Z</time>
      </trkpt>
      <trkpt lat="44.29355" lon="3.42562">
        <ele>935.1</ele>
        <time>2020-08-25T12:34:41.000Z</time>
      </trkpt>
      <trkpt lat="44.29353" lon="3.42565">
        <ele>935.1</ele>
        <time>2020-08-25T12:34:42.000Z</time>
      </trkpt>
      <trkpt lat="44.2935" lon="3.4257">
        <ele>935.2</ele>
        <time>2020-08-25T12:34:43.000Z</time>
      </trkpt>
      <trkpt lat="44.29347" lon="3.42574">
        <ele>935.4</ele>
        <time>2020-08-25T12:34:45.000Z</time>
      </trkpt>
      <trkpt lat="44.29345" lon="3.42579">
        <ele>935.5</ele>
        <time>2020-08-25T12:34:46.000Z</time>
      </trkpt>
      <trkpt lat="44.29343" lon="3.42581">
        <ele>935.6</ele>
        <time>2020-08-25T12:34:47.000Z</time>
      </trkpt>
      <trkpt lat="44.29341" lon="3.42585">
        <ele>935.7</ele>
        <time>2020-08-25T12:34:49.000Z</time>
      </trkpt>
      <trkpt lat="44.29338" lon="3.42589">
        <ele>935.8</ele>
        <time>2020-08-25T12:34:50.000Z</time>
      </trkpt>
      <trkpt lat="44.29337" lon="3.42592">
        <ele>935.9</ele>
        <time>2020-08-25T12:34:52.000Z</time>
      </trkpt>
      <trkpt lat="44.29335" lon="3.42597">
        <ele>936.1</ele>
        <time>2020-08-25T12:34:53.000Z</time>
      </trkpt>
      <trkpt lat="44.29334" lon="3.42601">
        <ele>936.2</ele>
        <time>2020-08-25T12:34:54.000Z</time>
      </trkpt>
      <trkpt lat="44.29332" lon="3.42607">
        <ele>936.5</ele>
        <time>2020-08-25T12:34:55.000Z</time>
      </trkpt>
      <trkpt lat="44.2933" lon="3.42612">
        <ele>936.7</ele>
        <time>2020-08-25T12:34:57.000Z</time>
      </trkpt>
      <trkpt lat="44.29329" lon="3.42617">
        <ele>936.8</ele>
        <time>2020-08-25T12:34:58.000Z</time>
      </trkpt>
      <trkpt lat="44.29328" lon="3.4262">
        <ele>936.9</ele>
        <time>2020-08-25T12:34:59.000Z</time>
      </trkpt>
      <trkpt lat="44.29326" lon="3.42625">
        <ele>937.1</ele>
        <time>2020-08-25T12:35:01.000Z</time>
      </trkpt>
      <trkpt lat="44.29324" lon="3.42629">
        <ele>937.2</ele>
        <time>2020-08-25T12:35:03.000Z</time>
      </trkpt>
      <trkpt lat="44.29322" lon="3.42633">
        <ele>937.3</ele>
        <time>2020-08-25T12:35:04.000Z</time>
      </trkpt>
      <trkpt lat="44.29321" lon="3.42636">
        <ele>937.4</ele>
        <time>2020-08-25T12:35:05.000Z</time>
      </trkpt>
      <trkpt lat="44.29317" lon="3.42643">
        <ele>937.6</ele>
        <time>2020-08-25T12:35:07.000Z</time>
      </trkpt>
      <trkpt lat="44.29313" lon="3.4265">
        <ele>937.9</ele>
        <time>2020-08-25T12:35:09.000Z</time>
      </trkpt>
      <trkpt lat="44.29311" lon="3.42654">
        <ele>938</ele>
        <time>2020-08-25T12:35:10.000Z</time>
      </trkpt>
      <trkpt lat="44.29308" lon="3.4266">
        <ele>938.1</ele>
        <time>2020-08-25T12:35:12.000Z</time>
      </trkpt>
      <trkpt lat="44.29306" lon="3.42664">
        <ele>938.3</ele>
        <time>2020-08-25T12:35:13.000Z</time>
      </trkpt>
      <trkpt lat="44.29303" lon="3.42669">
        <ele>938.4</ele>
        <time>2020-08-25T12:35:15.000Z</time>
      </trkpt>
      <trkpt lat="44.29301" lon="3.42674">
        <ele>938.6</ele>
        <time>2020-08-25T12:35:16.000Z</time>
      </trkpt>
      <trkpt lat="44.293" lon="3.42676">
        <ele>938.6</ele>
        <time>2020-08-25T12:35:17.000Z</time>
      </trkpt>
      <trkpt lat="44.29297" lon="3.42682">
        <ele>938.8</ele>
        <time>2020-08-25T12:35:19.000Z</time>
      </trkpt>
      <trkpt lat="44.29296" lon="3.42686">
        <ele>938.9</ele>
        <time>2020-08-25T12:35:20.000Z</time>
      </trkpt>
      <trkpt lat="44.29294" lon="3.42692">
        <ele>939.1</ele>
        <time>2020-08-25T12:35:22.000Z</time>
      </trkpt>
      <trkpt lat="44.29293" lon="3.42696">
        <ele>939.2</ele>
        <time>2020-08-25T12:35:23.000Z</time>
      </trkpt>
      <trkpt lat="44.2929" lon="3.42702">
        <ele>939.4</ele>
        <time>2020-08-25T12:35:25.000Z</time>
      </trkpt>
      <trkpt lat="44.29289" lon="3.42706">
        <ele>939.5</ele>
        <time>2020-08-25T12:35:26.000Z</time>
      </trkpt>
      <trkpt lat="44.29287" lon="3.42712">
        <ele>939.6</ele>
        <time>2020-08-25T12:35:28.000Z</time>
      </trkpt>
      <trkpt lat="44.29286" lon="3.42716">
        <ele>939.7</ele>
        <time>2020-08-25T12:35:29.000Z</time>
      </trkpt>
      <trkpt lat="44.29285" lon="3.42719">
        <ele>939.8</ele>
        <time>2020-08-25T12:35:30.000Z</time>
      </trkpt>
      <trkpt lat="44.29284" lon="3.42724">
        <ele>940</ele>
        <time>2020-08-25T12:35:32.000Z</time>
      </trkpt>
      <trkpt lat="44.29282" lon="3.42728">
        <ele>940.1</ele>
        <time>2020-08-25T12:35:33.000Z</time>
      </trkpt>
      <trkpt lat="44.2928" lon="3.42734">
        <ele>940.3</ele>
        <time>2020-08-25T12:35:35.000Z</time>
      </trkpt>
      <trkpt lat="44.29279" lon="3.42738">
        <ele>940.4</ele>
        <time>2020-08-25T12:35:36.000Z</time>
      </trkpt>
      <trkpt lat="44.29279" lon="3.4274">
        <ele>940.5</ele>
        <time>2020-08-25T12:35:37.000Z</time>
      </trkpt>
      <trkpt lat="44.29278" lon="3.42743">
        <ele>940.6</ele>
        <time>2020-08-25T12:35:38.000Z</time>
      </trkpt>
      <trkpt lat="44.29276" lon="3.42749">
        <ele>940.7</ele>
        <time>2020-08-25T12:35:40.000Z</time>
      </trkpt>
      <trkpt lat="44.29275" lon="3.42751">
        <ele>940.8</ele>
        <time>2020-08-25T12:35:41.000Z</time>
      </trkpt>
      <trkpt lat="44.29275" lon="3.42753">
        <ele>940.8</ele>
        <time>2020-08-25T12:35:42.000Z</time>
      </trkpt>
      <trkpt lat="44.29273" lon="3.42757">
        <ele>940.9</ele>
        <time>2020-08-25T12:35:43.000Z</time>
      </trkpt>
      <trkpt lat="44.29272" lon="3.42762">
        <ele>941</ele>
        <time>2020-08-25T12:35:45.000Z</time>
      </trkpt>
      <trkpt lat="44.29271" lon="3.42766">
        <ele>941.1</ele>
        <time>2020-08-25T12:35:46.000Z</time>
      </trkpt>
      <trkpt lat="44.29269" lon="3.4277">
        <ele>941.1</ele>
        <time>2020-08-25T12:35:47.000Z</time>
      </trkpt>
      <trkpt lat="44.29267" lon="3.42776">
        <ele>941.2</ele>
        <time>2020-08-25T12:35:49.000Z</time>
      </trkpt>
      <trkpt lat="44.29265" lon="3.4278">
        <ele>941</ele>
        <time>2020-08-25T12:35:50.000Z</time>
      </trkpt>
      <trkpt lat="44.29262" lon="3.42783">
        <ele>940.8</ele>
        <time>2020-08-25T12:35:52.000Z</time>
      </trkpt>
      <trkpt lat="44.29258" lon="3.42784">
        <ele>940.6</ele>
        <time>2020-08-25T12:35:53.000Z</time>
      </trkpt>
      <trkpt lat="44.29254" lon="3.42787">
        <ele>940.3</ele>
        <time>2020-08-25T12:35:54.000Z</time>
      </trkpt>
      <trkpt lat="44.29249" lon="3.42793">
        <ele>939.9</ele>
        <time>2020-08-25T12:35:56.000Z</time>
      </trkpt>
      <trkpt lat="44.2924" lon="3.42796">
        <ele>939.3</ele>
        <time>2020-08-25T12:35:57.000Z</time>
      </trkpt>
      <trkpt lat="44.29228" lon="3.428">
        <ele>938.5</ele>
        <time>2020-08-25T12:35:59.000Z</time>
      </trkpt>
      <trkpt lat="44.29222" lon="3.42802">
        <ele>938.1</ele>
        <time>2020-08-25T12:36:00.000Z</time>
      </trkpt>
      <trkpt lat="44.2921" lon="3.42807">
        <ele>937.3</ele>
        <time>2020-08-25T12:36:02.000Z</time>
      </trkpt>
      <trkpt lat="44.292" lon="3.42811">
        <ele>936.7</ele>
        <time>2020-08-25T12:36:04.000Z</time>
      </trkpt>
      <trkpt lat="44.29195" lon="3.42815">
        <ele>936.7</ele>
        <time>2020-08-25T12:36:05.000Z</time>
      </trkpt>
      <trkpt lat="44.29194" lon="3.42826">
        <ele>936.8</ele>
        <time>2020-08-25T12:36:07.000Z</time>
      </trkpt>
      <trkpt lat="44.29194" lon="3.42832">
        <ele>936.8</ele>
        <time>2020-08-25T12:36:08.000Z</time>
      </trkpt>
      <trkpt lat="44.29194" lon="3.4284">
        <ele>936.9</ele>
        <time>2020-08-25T12:36:09.000Z</time>
      </trkpt>
      <trkpt lat="44.29195" lon="3.42845">
        <ele>936.9</ele>
        <time>2020-08-25T12:36:11.000Z</time>
      </trkpt>
      <trkpt lat="44.29195" lon="3.42852">
        <ele>937</ele>
        <time>2020-08-25T12:36:12.000Z</time>
      </trkpt>
      <trkpt lat="44.29197" lon="3.4286">
        <ele>937</ele>
        <time>2020-08-25T12:36:14.000Z</time>
      </trkpt>
      <trkpt lat="44.29198" lon="3.42866">
        <ele>937</ele>
        <time>2020-08-25T12:36:15.000Z</time>
      </trkpt>
      <trkpt lat="44.292" lon="3.42871">
        <ele>937</ele>
        <time>2020-08-25T12:36:16.000Z</time>
      </trkpt>
      <trkpt lat="44.29202" lon="3.42877">
        <ele>937</ele>
        <time>2020-08-25T12:36:18.000Z</time>
      </trkpt>
      <trkpt lat="44.29205" lon="3.42884">
        <ele>937</ele>
        <time>2020-08-25T12:36:19.000Z</time>
      </trkpt>
      <trkpt lat="44.29207" lon="3.42888">
        <ele>937</ele>
        <time>2020-08-25T12:36:20.000Z</time>
      </trkpt>
      <trkpt lat="44.29211" lon="3.42896">
        <ele>936.9</ele>
        <time>2020-08-25T12:36:22.000Z</time>
      </trkpt>
      <trkpt lat="44.29214" lon="3.42902">
        <ele>936.8</ele>
        <time>2020-08-25T12:36:23.000Z</time>
      </trkpt>
      <trkpt lat="44.29217" lon="3.42908">
        <ele>936.7</ele>
        <time>2020-08-25T12:36:25.000Z</time>
      </trkpt>
      <trkpt lat="44.2922" lon="3.42912">
        <ele>936.6</ele>
        <time>2020-08-25T12:36:26.000Z</time>
      </trkpt>
      <trkpt lat="44.29224" lon="3.42918">
        <ele>936.6</ele>
        <time>2020-08-25T12:36:27.000Z</time>
      </trkpt>
      <trkpt lat="44.29229" lon="3.42927">
        <ele>936.4</ele>
        <time>2020-08-25T12:36:29.000Z</time>
      </trkpt>
      <trkpt lat="44.29234" lon="3.42935">
        <ele>936.2</ele>
        <time>2020-08-25T12:36:30.000Z</time>
      </trkpt>
      <trkpt lat="44.29239" lon="3.42947">
        <ele>935.9</ele>
        <time>2020-08-25T12:36:32.000Z</time>
      </trkpt>
      <trkpt lat="44.29243" lon="3.4296">
        <ele>935.6</ele>
        <time>2020-08-25T12:36:34.000Z</time>
      </trkpt>
      <trkpt lat="44.29244" lon="3.42967">
        <ele>935.5</ele>
        <time>2020-08-25T12:36:35.000Z</time>
      </trkpt>
      <trkpt lat="44.29246" lon="3.42974">
        <ele>935.3</ele>
        <time>2020-08-25T12:36:36.000Z</time>
      </trkpt>
      <trkpt lat="44.29249" lon="3.42988">
        <ele>935</ele>
        <time>2020-08-25T12:36:38.000Z</time>
      </trkpt>
      <trkpt lat="44.29253" lon="3.43003">
        <ele>934.6</ele>
        <time>2020-08-25T12:36:40.000Z</time>
      </trkpt>
      <trkpt lat="44.29254" lon="3.43011">
        <ele>934.4</ele>
        <time>2020-08-25T12:36:41.000Z</time>
      </trkpt>
      <trkpt lat="44.29257" lon="3.43027">
        <ele>934.1</ele>
        <time>2020-08-25T12:36:43.000Z</time>
      </trkpt>
      <trkpt lat="44.29259" lon="3.43036">
        <ele>934</ele>
        <time>2020-08-25T12:36:44.000Z</time>
      </trkpt>
      <trkpt lat="44.2926" lon="3.43053">
        <ele>933.7</ele>
        <time>2020-08-25T12:36:46.000Z</time>
      </trkpt>
      <trkpt lat="44.29261" lon="3.43062">
        <ele>933.6</ele>
        <time>2020-08-25T12:36:47.000Z</time>
      </trkpt>
      <trkpt lat="44.29262" lon="3.4308">
        <ele>933.4</ele>
        <time>2020-08-25T12:36:49.000Z</time>
      </trkpt>
      <trkpt lat="44.29262" lon="3.43088">
        <ele>933.4</ele>
        <time>2020-08-25T12:36:50.000Z</time>
      </trkpt>
      <trkpt lat="44.29262" lon="3.43097">
        <ele>933.4</ele>
        <time>2020-08-25T12:36:51.000Z</time>
      </trkpt>
      <trkpt lat="44.29261" lon="3.43112">
        <ele>933.4</ele>
        <time>2020-08-25T12:36:53.000Z</time>
      </trkpt>
      <trkpt lat="44.29261" lon="3.4312">
        <ele>933.4</ele>
        <time>2020-08-25T12:36:54.000Z</time>
      </trkpt>
      <trkpt lat="44.29261" lon="3.43135">
        <ele>933.6</ele>
        <time>2020-08-25T12:36:56.000Z</time>
      </trkpt>
      <trkpt lat="44.29261" lon="3.43142">
        <ele>933.7</ele>
        <time>2020-08-25T12:36:57.000Z</time>
      </trkpt>
      <trkpt lat="44.29261" lon="3.43156">
        <ele>934</ele>
        <time>2020-08-25T12:36:59.000Z</time>
      </trkpt>
      <trkpt lat="44.29262" lon="3.43162">
        <ele>934.2</ele>
        <time>2020-08-25T12:37:00.000Z</time>
      </trkpt>
      <trkpt lat="44.29262" lon="3.43175">
        <ele>934.5</ele>
        <time>2020-08-25T12:37:02.000Z</time>
      </trkpt>
      <trkpt lat="44.29262" lon="3.43184">
        <ele>934.8</ele>
        <time>2020-08-25T12:37:04.000Z</time>
      </trkpt>
      <trkpt lat="44.29262" lon="3.43189">
        <ele>934.9</ele>
        <time>2020-08-25T12:37:05.000Z</time>
      </trkpt>
      <trkpt lat="44.29262" lon="3.43195">
        <ele>935.1</ele>
        <time>2020-08-25T12:37:06.000Z</time>
      </trkpt>
      <trkpt lat="44.29263" lon="3.43203">
        <ele>935.3</ele>
        <time>2020-08-25T12:37:07.000Z</time>
      </trkpt>
      <trkpt lat="44.29264" lon="3.4321">
        <ele>935.5</ele>
        <time>2020-08-25T12:37:09.000Z</time>
      </trkpt>
      <trkpt lat="44.29264" lon="3.43216">
        <ele>935.6</ele>
        <time>2020-08-25T12:37:10.000Z</time>
      </trkpt>
      <trkpt lat="44.29263" lon="3.43222">
        <ele>935.7</ele>
        <time>2020-08-25T12:37:11.000Z</time>
      </trkpt>
      <trkpt lat="44.29263" lon="3.4323">
        <ele>935.9</ele>
        <time>2020-08-25T12:37:13.000Z</time>
      </trkpt>
      <trkpt lat="44.29264" lon="3.43234">
        <ele>935.9</ele>
        <time>2020-08-25T12:37:14.000Z</time>
      </trkpt>
      <trkpt lat="44.29264" lon="3.43244">
        <ele>936.1</ele>
        <time>2020-08-25T12:37:16.000Z</time>
      </trkpt>
      <trkpt lat="44.29264" lon="3.43252">
        <ele>936.1</ele>
        <time>2020-08-25T12:37:18.000Z</time>
      </trkpt>
      <trkpt lat="44.29264" lon="3.4326">
        <ele>936.2</ele>
        <time>2020-08-25T12:37:19.000Z</time>
      </trkpt>
      <trkpt lat="44.29265" lon="3.43268">
        <ele>936.2</ele>
        <time>2020-08-25T12:37:21.000Z</time>
      </trkpt>
      <trkpt lat="44.29264" lon="3.43275">
        <ele>936.2</ele>
        <time>2020-08-25T12:37:22.000Z</time>
      </trkpt>
      <trkpt lat="44.29264" lon="3.43283">
        <ele>936.2</ele>
        <time>2020-08-25T12:37:23.000Z</time>
      </trkpt>
      <trkpt lat="44.29264" lon="3.43289">
        <ele>936.2</ele>
        <time>2020-08-25T12:37:24.000Z</time>
      </trkpt>
      <trkpt lat="44.29264" lon="3.43296">
        <ele>936.1</ele>
        <time>2020-08-25T12:37:25.000Z</time>
      </trkpt>
      <trkpt lat="44.29264" lon="3.43303">
        <ele>936.1</ele>
        <time>2020-08-25T12:37:27.000Z</time>
      </trkpt>
      <trkpt lat="44.29264" lon="3.43314">
        <ele>935.9</ele>
        <time>2020-08-25T12:37:28.000Z</time>
      </trkpt>
      <trkpt lat="44.29264" lon="3.43321">
        <ele>935.8</ele>
        <time>2020-08-25T12:37:29.000Z</time>
      </trkpt>
      <trkpt lat="44.29264" lon="3.43335">
        <ele>935.5</ele>
        <time>2020-08-25T12:37:31.000Z</time>
      </trkpt>
      <trkpt lat="44.29264" lon="3.43342">
        <ele>935.4</ele>
        <time>2020-08-25T12:37:32.000Z</time>
      </trkpt>
      <trkpt lat="44.29265" lon="3.43357">
        <ele>935.1</ele>
        <time>2020-08-25T12:37:34.000Z</time>
      </trkpt>
      <trkpt lat="44.29266" lon="3.43364">
        <ele>935</ele>
        <time>2020-08-25T12:37:35.000Z</time>
      </trkpt>
      <trkpt lat="44.29269" lon="3.43379">
        <ele>934.7</ele>
        <time>2020-08-25T12:37:37.000Z</time>
      </trkpt>
      <trkpt lat="44.29272" lon="3.43393">
        <ele>934.5</ele>
        <time>2020-08-25T12:37:39.000Z</time>
      </trkpt>
      <trkpt lat="44.29274" lon="3.43401">
        <ele>934.3</ele>
        <time>2020-08-25T12:37:40.000Z</time>
      </trkpt>
      <trkpt lat="44.29275" lon="3.43409">
        <ele>934.2</ele>
        <time>2020-08-25T12:37:41.000Z</time>
      </trkpt>
      <trkpt lat="44.29277" lon="3.43417">
        <ele>934</ele>
        <time>2020-08-25T12:37:42.000Z</time>
      </trkpt>
      <trkpt lat="44.29279" lon="3.43425">
        <ele>933.9</ele>
        <time>2020-08-25T12:37:43.000Z</time>
      </trkpt>
      <trkpt lat="44.29283" lon="3.43441">
        <ele>933.6</ele>
        <time>2020-08-25T12:37:45.000Z</time>
      </trkpt>
      <trkpt lat="44.29285" lon="3.43449">
        <ele>933.5</ele>
        <time>2020-08-25T12:37:46.000Z</time>
      </trkpt>
      <trkpt lat="44.29287" lon="3.43457">
        <ele>933.4</ele>
        <time>2020-08-25T12:37:47.000Z</time>
      </trkpt>
      <trkpt lat="44.29291" lon="3.43474">
        <ele>933.1</ele>
        <time>2020-08-25T12:37:49.000Z</time>
      </trkpt>
      <trkpt lat="44.29297" lon="3.4349">
        <ele>933</ele>
        <time>2020-08-25T12:37:51.000Z</time>
      </trkpt>
      <trkpt lat="44.293" lon="3.43498">
        <ele>932.9</ele>
        <time>2020-08-25T12:37:52.000Z</time>
      </trkpt>
      <trkpt lat="44.29308" lon="3.43511">
        <ele>932.7</ele>
        <time>2020-08-25T12:37:54.000Z</time>
      </trkpt>
      <trkpt lat="44.29313" lon="3.43517">
        <ele>932.6</ele>
        <time>2020-08-25T12:37:55.000Z</time>
      </trkpt>
      <trkpt lat="44.29322" lon="3.43528">
        <ele>932.4</ele>
        <time>2020-08-25T12:37:57.000Z</time>
      </trkpt>
      <trkpt lat="44.29327" lon="3.43533">
        <ele>932.2</ele>
        <time>2020-08-25T12:37:58.000Z</time>
      </trkpt>
      <trkpt lat="44.29332" lon="3.43539">
        <ele>932.1</ele>
        <time>2020-08-25T12:37:59.000Z</time>
      </trkpt>
      <trkpt lat="44.29341" lon="3.4355">
        <ele>931.9</ele>
        <time>2020-08-25T12:38:01.000Z</time>
      </trkpt>
      <trkpt lat="44.29346" lon="3.43557">
        <ele>931.7</ele>
        <time>2020-08-25T12:38:02.000Z</time>
      </trkpt>
      <trkpt lat="44.29349" lon="3.43564">
        <ele>931.5</ele>
        <time>2020-08-25T12:38:03.000Z</time>
      </trkpt>
      <trkpt lat="44.29356" lon="3.4358">
        <ele>931.2</ele>
        <time>2020-08-25T12:38:05.000Z</time>
      </trkpt>
      <trkpt lat="44.2936" lon="3.43598">
        <ele>931.1</ele>
        <time>2020-08-25T12:38:07.000Z</time>
      </trkpt>
      <trkpt lat="44.29361" lon="3.43608">
        <ele>931.1</ele>
        <time>2020-08-25T12:38:08.000Z</time>
      </trkpt>
      <trkpt lat="44.29362" lon="3.43618">
        <ele>930.9</ele>
        <time>2020-08-25T12:38:09.000Z</time>
      </trkpt>
      <trkpt lat="44.29362" lon="3.43638">
        <ele>930.4</ele>
        <time>2020-08-25T12:38:11.000Z</time>
      </trkpt>
      <trkpt lat="44.29363" lon="3.43659">
        <ele>929.7</ele>
        <time>2020-08-25T12:38:13.000Z</time>
      </trkpt>
      <trkpt lat="44.29364" lon="3.43681">
        <ele>929.1</ele>
        <time>2020-08-25T12:38:15.000Z</time>
      </trkpt>
      <trkpt lat="44.29365" lon="3.43703">
        <ele>928.5</ele>
        <time>2020-08-25T12:38:17.000Z</time>
      </trkpt>
      <trkpt lat="44.29365" lon="3.43715">
        <ele>928.2</ele>
        <time>2020-08-25T12:38:18.000Z</time>
      </trkpt>
      <trkpt lat="44.29366" lon="3.43738">
        <ele>927.6</ele>
        <time>2020-08-25T12:38:20.000Z</time>
      </trkpt>
      <trkpt lat="44.29366" lon="3.4375">
        <ele>927.3</ele>
        <time>2020-08-25T12:38:21.000Z</time>
      </trkpt>
      <trkpt lat="44.29367" lon="3.43774">
        <ele>926.6</ele>
        <time>2020-08-25T12:38:23.000Z</time>
      </trkpt>
      <trkpt lat="44.29368" lon="3.43786">
        <ele>926.3</ele>
        <time>2020-08-25T12:38:24.000Z</time>
      </trkpt>
      <trkpt lat="44.2937" lon="3.43811">
        <ele>925.8</ele>
        <time>2020-08-25T12:38:26.000Z</time>
      </trkpt>
      <trkpt lat="44.29371" lon="3.43833">
        <ele>925.3</ele>
        <time>2020-08-25T12:38:28.000Z</time>
      </trkpt>
      <trkpt lat="44.29372" lon="3.43843">
        <ele>925.2</ele>
        <time>2020-08-25T12:38:29.000Z</time>
      </trkpt>
      <trkpt lat="44.29373" lon="3.43862">
        <ele>925</ele>
        <time>2020-08-25T12:38:31.000Z</time>
      </trkpt>
      <trkpt lat="44.29373" lon="3.4387">
        <ele>924.9</ele>
        <time>2020-08-25T12:38:32.000Z</time>
      </trkpt>
      <trkpt lat="44.29372" lon="3.43886">
        <ele>924.8</ele>
        <time>2020-08-25T12:38:34.000Z</time>
      </trkpt>
      <trkpt lat="44.2937" lon="3.43899">
        <ele>924.7</ele>
        <time>2020-08-25T12:38:36.000Z</time>
      </trkpt>
      <trkpt lat="44.29367" lon="3.4391">
        <ele>924.6</ele>
        <time>2020-08-25T12:38:38.000Z</time>
      </trkpt>
      <trkpt lat="44.29364" lon="3.43913">
        <ele>924.7</ele>
        <time>2020-08-25T12:38:39.000Z</time>
      </trkpt>
      <trkpt lat="44.29361" lon="3.43915">
        <ele>924.7</ele>
        <time>2020-08-25T12:38:40.000Z</time>
      </trkpt>
      <trkpt lat="44.29353" lon="3.43919">
        <ele>924.9</ele>
        <time>2020-08-25T12:38:42.000Z</time>
      </trkpt>
      <trkpt lat="44.29346" lon="3.43924">
        <ele>925</ele>
        <time>2020-08-25T12:38:44.000Z</time>
      </trkpt>
      <trkpt lat="44.29344" lon="3.43926">
        <ele>925.1</ele>
        <time>2020-08-25T12:38:45.000Z</time>
      </trkpt>
      <trkpt lat="44.2934" lon="3.43929">
        <ele>925.2</ele>
        <time>2020-08-25T12:38:47.000Z</time>
      </trkpt>
      <trkpt lat="44.29336" lon="3.43933">
        <ele>925.3</ele>
        <time>2020-08-25T12:38:48.000Z</time>
      </trkpt>
      <trkpt lat="44.29333" lon="3.43936">
        <ele>925.5</ele>
        <time>2020-08-25T12:38:50.000Z</time>
      </trkpt>
      <trkpt lat="44.29329" lon="3.43939">
        <ele>925.6</ele>
        <time>2020-08-25T12:38:51.000Z</time>
      </trkpt>
      <trkpt lat="44.29326" lon="3.43942">
        <ele>925.7</ele>
        <time>2020-08-25T12:38:52.000Z</time>
      </trkpt>
      <trkpt lat="44.29321" lon="3.43945">
        <ele>925.8</ele>
        <time>2020-08-25T12:38:54.000Z</time>
      </trkpt>
      <trkpt lat="44.29317" lon="3.43948">
        <ele>925.9</ele>
        <time>2020-08-25T12:38:55.000Z</time>
      </trkpt>
      <trkpt lat="44.29313" lon="3.43952">
        <ele>926</ele>
        <time>2020-08-25T12:38:56.000Z</time>
      </trkpt>
      <trkpt lat="44.29309" lon="3.43956">
        <ele>926.1</ele>
        <time>2020-08-25T12:38:58.000Z</time>
      </trkpt>
      <trkpt lat="44.29306" lon="3.43958">
        <ele>926.2</ele>
        <time>2020-08-25T12:38:59.000Z</time>
      </trkpt>
      <trkpt lat="44.29302" lon="3.43962">
        <ele>926.3</ele>
        <time>2020-08-25T12:39:01.000Z</time>
      </trkpt>
      <trkpt lat="44.29298" lon="3.43964">
        <ele>926.4</ele>
        <time>2020-08-25T12:39:02.000Z</time>
      </trkpt>
      <trkpt lat="44.29295" lon="3.43967">
        <ele>926.5</ele>
        <time>2020-08-25T12:39:03.000Z</time>
      </trkpt>
      <trkpt lat="44.29291" lon="3.4397">
        <ele>926.7</ele>
        <time>2020-08-25T12:39:05.000Z</time>
      </trkpt>
      <trkpt lat="44.29286" lon="3.43973">
        <ele>926.8</ele>
        <time>2020-08-25T12:39:06.000Z</time>
      </trkpt>
      <trkpt lat="44.29281" lon="3.43979">
        <ele>927.1</ele>
        <time>2020-08-25T12:39:08.000Z</time>
      </trkpt>
      <trkpt lat="44.29278" lon="3.43983">
        <ele>927.1</ele>
        <time>2020-08-25T12:39:10.000Z</time>
      </trkpt>
      <trkpt lat="44.29274" lon="3.43987">
        <ele>927.2</ele>
        <time>2020-08-25T12:39:11.000Z</time>
      </trkpt>
      <trkpt lat="44.29268" lon="3.43992">
        <ele>927.4</ele>
        <time>2020-08-25T12:39:13.000Z</time>
      </trkpt>
      <trkpt lat="44.29265" lon="3.43995">
        <ele>927.5</ele>
        <time>2020-08-25T12:39:14.000Z</time>
      </trkpt>
      <trkpt lat="44.2926" lon="3.43999">
        <ele>927.7</ele>
        <time>2020-08-25T12:39:16.000Z</time>
      </trkpt>
      <trkpt lat="44.29256" lon="3.44002">
        <ele>927.9</ele>
        <time>2020-08-25T12:39:17.000Z</time>
      </trkpt>
      <trkpt lat="44.29253" lon="3.44003">
        <ele>928</ele>
        <time>2020-08-25T12:39:18.000Z</time>
      </trkpt>
      <trkpt lat="44.2925" lon="3.44006">
        <ele>928.1</ele>
        <time>2020-08-25T12:39:19.000Z</time>
      </trkpt>
      <trkpt lat="44.29245" lon="3.44008">
        <ele>928.2</ele>
        <time>2020-08-25T12:39:21.000Z</time>
      </trkpt>
      <trkpt lat="44.29242" lon="3.4401">
        <ele>928.3</ele>
        <time>2020-08-25T12:39:22.000Z</time>
      </trkpt>
      <trkpt lat="44.29239" lon="3.44012">
        <ele>928.3</ele>
        <time>2020-08-25T12:39:23.000Z</time>
      </trkpt>
      <trkpt lat="44.29237" lon="3.44014">
        <ele>928.4</ele>
        <time>2020-08-25T12:39:24.000Z</time>
      </trkpt>
      <trkpt lat="44.29232" lon="3.44019">
        <ele>928.6</ele>
        <time>2020-08-25T12:39:26.000Z</time>
      </trkpt>
      <trkpt lat="44.29228" lon="3.44022">
        <ele>928.8</ele>
        <time>2020-08-25T12:39:28.000Z</time>
      </trkpt>
      <trkpt lat="44.29224" lon="3.44025">
        <ele>929</ele>
        <time>2020-08-25T12:39:29.000Z</time>
      </trkpt>
      <trkpt lat="44.29222" lon="3.44028">
        <ele>929.1</ele>
        <time>2020-08-25T12:39:30.000Z</time>
      </trkpt>
      <trkpt lat="44.29219" lon="3.4403">
        <ele>929.3</ele>
        <time>2020-08-25T12:39:31.000Z</time>
      </trkpt>
      <trkpt lat="44.29217" lon="3.44032">
        <ele>929.4</ele>
        <time>2020-08-25T12:39:32.000Z</time>
      </trkpt>
      <trkpt lat="44.29214" lon="3.44035">
        <ele>929.6</ele>
        <time>2020-08-25T12:39:33.000Z</time>
      </trkpt>
      <trkpt lat="44.29212" lon="3.44037">
        <ele>929.7</ele>
        <time>2020-08-25T12:39:34.000Z</time>
      </trkpt>
      <trkpt lat="44.29208" lon="3.4404">
        <ele>929.9</ele>
        <time>2020-08-25T12:39:36.000Z</time>
      </trkpt>
      <trkpt lat="44.29204" lon="3.44043">
        <ele>930</ele>
        <time>2020-08-25T12:39:38.000Z</time>
      </trkpt>
      <trkpt lat="44.29201" lon="3.44045">
        <ele>930.1</ele>
        <time>2020-08-25T12:39:39.000Z</time>
      </trkpt>
      <trkpt lat="44.29198" lon="3.44047">
        <ele>930.2</ele>
        <time>2020-08-25T12:39:40.000Z</time>
      </trkpt>
      <trkpt lat="44.29195" lon="3.44049">
        <ele>930.2</ele>
        <time>2020-08-25T12:39:41.000Z</time>
      </trkpt>
      <trkpt lat="44.29191" lon="3.44051">
        <ele>930.2</ele>
        <time>2020-08-25T12:39:43.000Z</time>
      </trkpt>
      <trkpt lat="44.29188" lon="3.44053">
        <ele>930.2</ele>
        <time>2020-08-25T12:39:44.000Z</time>
      </trkpt>
      <trkpt lat="44.29184" lon="3.44055">
        <ele>930.2</ele>
        <time>2020-08-25T12:39:46.000Z</time>
      </trkpt>
      <trkpt lat="44.29181" lon="3.44056">
        <ele>930.2</ele>
        <time>2020-08-25T12:39:47.000Z</time>
      </trkpt>
      <trkpt lat="44.29177" lon="3.44058">
        <ele>930.1</ele>
        <time>2020-08-25T12:39:48.000Z</time>
      </trkpt>
      <trkpt lat="44.29172" lon="3.4406">
        <ele>930.1</ele>
        <time>2020-08-25T12:39:50.000Z</time>
      </trkpt>
      <trkpt lat="44.29169" lon="3.44062">
        <ele>930</ele>
        <time>2020-08-25T12:39:51.000Z</time>
      </trkpt>
      <trkpt lat="44.29164" lon="3.44065">
        <ele>929.9</ele>
        <time>2020-08-25T12:39:52.000Z</time>
      </trkpt>
      <trkpt lat="44.2916" lon="3.44069">
        <ele>929.9</ele>
        <time>2020-08-25T12:39:54.000Z</time>
      </trkpt>
      <trkpt lat="44.29156" lon="3.44072">
        <ele>929.9</ele>
        <time>2020-08-25T12:39:55.000Z</time>
      </trkpt>
      <trkpt lat="44.29153" lon="3.44076">
        <ele>929.9</ele>
        <time>2020-08-25T12:39:56.000Z</time>
      </trkpt>
      <trkpt lat="44.29148" lon="3.44079">
        <ele>929.9</ele>
        <time>2020-08-25T12:39:58.000Z</time>
      </trkpt>
      <trkpt lat="44.29144" lon="3.44082">
        <ele>929.8</ele>
        <time>2020-08-25T12:39:59.000Z</time>
      </trkpt>
      <trkpt lat="44.2914" lon="3.44085">
        <ele>929.8</ele>
        <time>2020-08-25T12:40:01.000Z</time>
      </trkpt>
      <trkpt lat="44.29136" lon="3.44088">
        <ele>929.7</ele>
        <time>2020-08-25T12:40:02.000Z</time>
      </trkpt>
      <trkpt lat="44.2913" lon="3.4409">
        <ele>929.7</ele>
        <time>2020-08-25T12:40:04.000Z</time>
      </trkpt>
      <trkpt lat="44.29126" lon="3.44093">
        <ele>929.6</ele>
        <time>2020-08-25T12:40:05.000Z</time>
      </trkpt>
      <trkpt lat="44.29122" lon="3.44095">
        <ele>929.6</ele>
        <time>2020-08-25T12:40:06.000Z</time>
      </trkpt>
      <trkpt lat="44.29117" lon="3.44096">
        <ele>929.5</ele>
        <time>2020-08-25T12:40:07.000Z</time>
      </trkpt>
      <trkpt lat="44.29113" lon="3.44097">
        <ele>929.4</ele>
        <time>2020-08-25T12:40:08.000Z</time>
      </trkpt>
      <trkpt lat="44.29107" lon="3.44099">
        <ele>929.3</ele>
        <time>2020-08-25T12:40:10.000Z</time>
      </trkpt>
      <trkpt lat="44.29104" lon="3.441">
        <ele>929.3</ele>
        <time>2020-08-25T12:40:11.000Z</time>
      </trkpt>
      <trkpt lat="44.291" lon="3.44101">
        <ele>929.3</ele>
        <time>2020-08-25T12:40:12.000Z</time>
      </trkpt>
      <trkpt lat="44.29096" lon="3.44101">
        <ele>929.3</ele>
        <time>2020-08-25T12:40:13.000Z</time>
      </trkpt>
      <trkpt lat="44.29091" lon="3.44101">
        <ele>929.3</ele>
        <time>2020-08-25T12:40:14.000Z</time>
      </trkpt>
      <trkpt lat="44.29086" lon="3.441">
        <ele>929.4</ele>
        <time>2020-08-25T12:40:16.000Z</time>
      </trkpt>
      <trkpt lat="44.29083" lon="3.44097">
        <ele>929.5</ele>
        <time>2020-08-25T12:40:17.000Z</time>
      </trkpt>
      <trkpt lat="44.29079" lon="3.44094">
        <ele>929.6</ele>
        <time>2020-08-25T12:40:18.000Z</time>
      </trkpt>
      <trkpt lat="44.29076" lon="3.44093">
        <ele>929.5</ele>
        <time>2020-08-25T12:40:19.000Z</time>
      </trkpt>
      <trkpt lat="44.29071" lon="3.44093">
        <ele>929.5</ele>
        <time>2020-08-25T12:40:21.000Z</time>
      </trkpt>
      <trkpt lat="44.29066" lon="3.44093">
        <ele>929.5</ele>
        <time>2020-08-25T12:40:22.000Z</time>
      </trkpt>
      <trkpt lat="44.29063" lon="3.44092">
        <ele>929.5</ele>
        <time>2020-08-25T12:40:23.000Z</time>
      </trkpt>
      <trkpt lat="44.29057" lon="3.44092">
        <ele>929.5</ele>
        <time>2020-08-25T12:40:25.000Z</time>
      </trkpt>
      <trkpt lat="44.29052" lon="3.44092">
        <ele>929.6</ele>
        <time>2020-08-25T12:40:26.000Z</time>
      </trkpt>
      <trkpt lat="44.29048" lon="3.44093">
        <ele>929.7</ele>
        <time>2020-08-25T12:40:27.000Z</time>
      </trkpt>
      <trkpt lat="44.29044" lon="3.44093">
        <ele>929.8</ele>
        <time>2020-08-25T12:40:28.000Z</time>
      </trkpt>
      <trkpt lat="44.29039" lon="3.44094">
        <ele>929.9</ele>
        <time>2020-08-25T12:40:30.000Z</time>
      </trkpt>
      <trkpt lat="44.29035" lon="3.44096">
        <ele>930</ele>
        <time>2020-08-25T12:40:31.000Z</time>
      </trkpt>
      <trkpt lat="44.29031" lon="3.44097">
        <ele>930</ele>
        <time>2020-08-25T12:40:32.000Z</time>
      </trkpt>
      <trkpt lat="44.29027" lon="3.44098">
        <ele>930.1</ele>
        <time>2020-08-25T12:40:33.000Z</time>
      </trkpt>
      <trkpt lat="44.29024" lon="3.44099">
        <ele>930.2</ele>
        <time>2020-08-25T12:40:34.000Z</time>
      </trkpt>
      <trkpt lat="44.2902" lon="3.44101">
        <ele>930.4</ele>
        <time>2020-08-25T12:40:35.000Z</time>
      </trkpt>
      <trkpt lat="44.29016" lon="3.44103">
        <ele>930.6</ele>
        <time>2020-08-25T12:40:36.000Z</time>
      </trkpt>
      <trkpt lat="44.29013" lon="3.44104">
        <ele>930.8</ele>
        <time>2020-08-25T12:40:38.000Z</time>
      </trkpt>
      <trkpt lat="44.29009" lon="3.44107">
        <ele>931.1</ele>
        <time>2020-08-25T12:40:39.000Z</time>
      </trkpt>
      <trkpt lat="44.29006" lon="3.44108">
        <ele>931.3</ele>
        <time>2020-08-25T12:40:40.000Z</time>
      </trkpt>
      <trkpt lat="44.29001" lon="3.44108">
        <ele>931.6</ele>
        <time>2020-08-25T12:40:42.000Z</time>
      </trkpt>
      <trkpt lat="44.28999" lon="3.44109">
        <ele>931.7</ele>
        <time>2020-08-25T12:40:43.000Z</time>
      </trkpt>
      <trkpt lat="44.28997" lon="3.4411">
        <ele>931.9</ele>
        <time>2020-08-25T12:40:45.000Z</time>
      </trkpt>
      <trkpt lat="44.28994" lon="3.44111">
        <ele>932.1</ele>
        <time>2020-08-25T12:40:46.000Z</time>
      </trkpt>
      <trkpt lat="44.28992" lon="3.44111">
        <ele>932.1</ele>
        <time>2020-08-25T12:40:47.000Z</time>
      </trkpt>
      <trkpt lat="44.28988" lon="3.44113">
        <ele>932.4</ele>
        <time>2020-08-25T12:40:49.000Z</time>
      </trkpt>
      <trkpt lat="44.28985" lon="3.44113">
        <ele>932.5</ele>
        <time>2020-08-25T12:40:50.000Z</time>
      </trkpt>
      <trkpt lat="44.28982" lon="3.44114">
        <ele>932.7</ele>
        <time>2020-08-25T12:40:51.000Z</time>
      </trkpt>
      <trkpt lat="44.28979" lon="3.44115">
        <ele>932.8</ele>
        <time>2020-08-25T12:40:52.000Z</time>
      </trkpt>
      <trkpt lat="44.28976" lon="3.44115">
        <ele>933</ele>
        <time>2020-08-25T12:40:54.000Z</time>
      </trkpt>
      <trkpt lat="44.28973" lon="3.44116">
        <ele>933.1</ele>
        <time>2020-08-25T12:40:55.000Z</time>
      </trkpt>
      <trkpt lat="44.2897" lon="3.44116">
        <ele>933.2</ele>
        <time>2020-08-25T12:40:56.000Z</time>
      </trkpt>
      <trkpt lat="44.28967" lon="3.44116">
        <ele>933.4</ele>
        <time>2020-08-25T12:40:57.000Z</time>
      </trkpt>
      <trkpt lat="44.28966" lon="3.44116">
        <ele>933.5</ele>
        <time>2020-08-25T12:40:58.000Z</time>
      </trkpt>
      <trkpt lat="44.28964" lon="3.44116">
        <ele>933.6</ele>
        <time>2020-08-25T12:40:59.000Z</time>
      </trkpt>
      <trkpt lat="44.28961" lon="3.44117">
        <ele>933.7</ele>
        <time>2020-08-25T12:41:01.000Z</time>
      </trkpt>
      <trkpt lat="44.28958" lon="3.44118">
        <ele>933.9</ele>
        <time>2020-08-25T12:41:02.000Z</time>
      </trkpt>
      <trkpt lat="44.28954" lon="3.4412">
        <ele>934.1</ele>
        <time>2020-08-25T12:41:04.000Z</time>
      </trkpt>
      <trkpt lat="44.28952" lon="3.44122">
        <ele>934.2</ele>
        <time>2020-08-25T12:41:06.000Z</time>
      </trkpt>
      <trkpt lat="44.28948" lon="3.44124">
        <ele>934.4</ele>
        <time>2020-08-25T12:41:07.000Z</time>
      </trkpt>
      <trkpt lat="44.28946" lon="3.44126">
        <ele>934.5</ele>
        <time>2020-08-25T12:41:08.000Z</time>
      </trkpt>
      <trkpt lat="44.28942" lon="3.44127">
        <ele>934.7</ele>
        <time>2020-08-25T12:41:10.000Z</time>
      </trkpt>
      <trkpt lat="44.2894" lon="3.44128">
        <ele>934.8</ele>
        <time>2020-08-25T12:41:11.000Z</time>
      </trkpt>
      <trkpt lat="44.28937" lon="3.44129">
        <ele>935</ele>
        <time>2020-08-25T12:41:13.000Z</time>
      </trkpt>
      <trkpt lat="44.28934" lon="3.4413">
        <ele>935.2</ele>
        <time>2020-08-25T12:41:14.000Z</time>
      </trkpt>
      <trkpt lat="44.28931" lon="3.44131">
        <ele>935.3</ele>
        <time>2020-08-25T12:41:15.000Z</time>
      </trkpt>
      <trkpt lat="44.28929" lon="3.44133">
        <ele>935.4</ele>
        <time>2020-08-25T12:41:17.000Z</time>
      </trkpt>
      <trkpt lat="44.28927" lon="3.44133">
        <ele>935.5</ele>
        <time>2020-08-25T12:41:18.000Z</time>
      </trkpt>
      <trkpt lat="44.28926" lon="3.44133">
        <ele>935.5</ele>
        <time>2020-08-25T12:41:19.000Z</time>
      </trkpt>
      <trkpt lat="44.28923" lon="3.44135">
        <ele>935.6</ele>
        <time>2020-08-25T12:41:20.000Z</time>
      </trkpt>
      <trkpt lat="44.28922" lon="3.44135">
        <ele>935.6</ele>
        <time>2020-08-25T12:41:21.000Z</time>
      </trkpt>
      <trkpt lat="44.2892" lon="3.44137">
        <ele>935.7</ele>
        <time>2020-08-25T12:41:22.000Z</time>
      </trkpt>
      <trkpt lat="44.28917" lon="3.44138">
        <ele>935.7</ele>
        <time>2020-08-25T12:41:24.000Z</time>
      </trkpt>
      <trkpt lat="44.28913" lon="3.4414">
        <ele>935.8</ele>
        <time>2020-08-25T12:41:25.000Z</time>
      </trkpt>
      <trkpt lat="44.28912" lon="3.44141">
        <ele>935.9</ele>
        <time>2020-08-25T12:41:26.000Z</time>
      </trkpt>
      <trkpt lat="44.28908" lon="3.44143">
        <ele>936</ele>
        <time>2020-08-25T12:41:27.000Z</time>
      </trkpt>
      <trkpt lat="44.28906" lon="3.44144">
        <ele>936</ele>
        <time>2020-08-25T12:41:28.000Z</time>
      </trkpt>
      <trkpt lat="44.28903" lon="3.44145">
        <ele>936.1</ele>
        <time>2020-08-25T12:41:29.000Z</time>
      </trkpt>
      <trkpt lat="44.289" lon="3.44147">
        <ele>936.2</ele>
        <time>2020-08-25T12:41:31.000Z</time>
      </trkpt>
      <trkpt lat="44.28896" lon="3.44148">
        <ele>936.3</ele>
        <time>2020-08-25T12:41:32.000Z</time>
      </trkpt>
      <trkpt lat="44.28893" lon="3.4415">
        <ele>936.4</ele>
        <time>2020-08-25T12:41:34.000Z</time>
      </trkpt>
      <trkpt lat="44.28888" lon="3.44152">
        <ele>936.6</ele>
        <time>2020-08-25T12:41:36.000Z</time>
      </trkpt>
      <trkpt lat="44.28885" lon="3.44154">
        <ele>936.7</ele>
        <time>2020-08-25T12:41:37.000Z</time>
      </trkpt>
      <trkpt lat="44.28882" lon="3.44156">
        <ele>936.8</ele>
        <time>2020-08-25T12:41:38.000Z</time>
      </trkpt>
      <trkpt lat="44.28879" lon="3.44158">
        <ele>936.9</ele>
        <time>2020-08-25T12:41:40.000Z</time>
      </trkpt>
      <trkpt lat="44.28876" lon="3.44159">
        <ele>937</ele>
        <time>2020-08-25T12:41:41.000Z</time>
      </trkpt>
      <trkpt lat="44.28874" lon="3.44159">
        <ele>937.1</ele>
        <time>2020-08-25T12:41:42.000Z</time>
      </trkpt>
      <trkpt lat="44.28871" lon="3.4416">
        <ele>937.2</ele>
        <time>2020-08-25T12:41:44.000Z</time>
      </trkpt>
      <trkpt lat="44.28867" lon="3.44161">
        <ele>937.4</ele>
        <time>2020-08-25T12:41:45.000Z</time>
      </trkpt>
      <trkpt lat="44.28866" lon="3.44161">
        <ele>937.4</ele>
        <time>2020-08-25T12:41:46.000Z</time>
      </trkpt>
      <trkpt lat="44.28863" lon="3.44163">
        <ele>937.5</ele>
        <time>2020-08-25T12:41:48.000Z</time>
      </trkpt>
      <trkpt lat="44.2886" lon="3.44163">
        <ele>937.7</ele>
        <time>2020-08-25T12:41:49.000Z</time>
      </trkpt>
      <trkpt lat="44.28858" lon="3.44164">
        <ele>937.7</ele>
        <time>2020-08-25T12:41:50.000Z</time>
      </trkpt>
      <trkpt lat="44.28853" lon="3.44167">
        <ele>937.7</ele>
        <time>2020-08-25T12:41:52.000Z</time>
      </trkpt>
      <trkpt lat="44.2885" lon="3.44168">
        <ele>937.6</ele>
        <time>2020-08-25T12:41:53.000Z</time>
      </trkpt>
      <trkpt lat="44.28845" lon="3.4417">
        <ele>937.5</ele>
        <time>2020-08-25T12:41:55.000Z</time>
      </trkpt>
      <trkpt lat="44.28841" lon="3.44171">
        <ele>937.4</ele>
        <time>2020-08-25T12:41:57.000Z</time>
      </trkpt>
      <trkpt lat="44.28837" lon="3.44173">
        <ele>937.3</ele>
        <time>2020-08-25T12:41:58.000Z</time>
      </trkpt>
      <trkpt lat="44.28834" lon="3.44175">
        <ele>937.3</ele>
        <time>2020-08-25T12:41:59.000Z</time>
      </trkpt>
      <trkpt lat="44.2883" lon="3.44177">
        <ele>937.2</ele>
        <time>2020-08-25T12:42:00.000Z</time>
      </trkpt>
      <trkpt lat="44.28826" lon="3.44179">
        <ele>937.1</ele>
        <time>2020-08-25T12:42:02.000Z</time>
      </trkpt>
      <trkpt lat="44.28819" lon="3.44181">
        <ele>937</ele>
        <time>2020-08-25T12:42:03.000Z</time>
      </trkpt>
      <trkpt lat="44.28815" lon="3.44183">
        <ele>936.8</ele>
        <time>2020-08-25T12:42:04.000Z</time>
      </trkpt>
      <trkpt lat="44.2881" lon="3.44186">
        <ele>936.7</ele>
        <time>2020-08-25T12:42:06.000Z</time>
      </trkpt>
      <trkpt lat="44.28805" lon="3.44188">
        <ele>936.5</ele>
        <time>2020-08-25T12:42:07.000Z</time>
      </trkpt>
      <trkpt lat="44.28799" lon="3.44192">
        <ele>936.4</ele>
        <time>2020-08-25T12:42:08.000Z</time>
      </trkpt>
      <trkpt lat="44.28795" lon="3.44194">
        <ele>936.3</ele>
        <time>2020-08-25T12:42:09.000Z</time>
      </trkpt>
      <trkpt lat="44.2879" lon="3.44197">
        <ele>936.3</ele>
        <time>2020-08-25T12:42:10.000Z</time>
      </trkpt>
      <trkpt lat="44.28784" lon="3.442">
        <ele>936.3</ele>
        <time>2020-08-25T12:42:12.000Z</time>
      </trkpt>
      <trkpt lat="44.28777" lon="3.44205">
        <ele>936.5</ele>
        <time>2020-08-25T12:42:13.000Z</time>
      </trkpt>
      <trkpt lat="44.28772" lon="3.44208">
        <ele>936.6</ele>
        <time>2020-08-25T12:42:14.000Z</time>
      </trkpt>
      <trkpt lat="44.28762" lon="3.44212">
        <ele>936.9</ele>
        <time>2020-08-25T12:42:16.000Z</time>
      </trkpt>
      <trkpt lat="44.28753" lon="3.44217">
        <ele>937.2</ele>
        <time>2020-08-25T12:42:18.000Z</time>
      </trkpt>
      <trkpt lat="44.28748" lon="3.44219">
        <ele>937.3</ele>
        <time>2020-08-25T12:42:19.000Z</time>
      </trkpt>
      <trkpt lat="44.28741" lon="3.44222">
        <ele>937.4</ele>
        <time>2020-08-25T12:42:21.000Z</time>
      </trkpt>
      <trkpt lat="44.28736" lon="3.44224">
        <ele>937.5</ele>
        <time>2020-08-25T12:42:23.000Z</time>
      </trkpt>
      <trkpt lat="44.28731" lon="3.44224">
        <ele>937.6</ele>
        <time>2020-08-25T12:42:24.000Z</time>
      </trkpt>
      <trkpt lat="44.28726" lon="3.44226">
        <ele>937.7</ele>
        <time>2020-08-25T12:42:25.000Z</time>
      </trkpt>
      <trkpt lat="44.28721" lon="3.44228">
        <ele>937.7</ele>
        <time>2020-08-25T12:42:26.000Z</time>
      </trkpt>
      <trkpt lat="44.28716" lon="3.4423">
        <ele>937.7</ele>
        <time>2020-08-25T12:42:28.000Z</time>
      </trkpt>
      <trkpt lat="44.28711" lon="3.44233">
        <ele>937.7</ele>
        <time>2020-08-25T12:42:29.000Z</time>
      </trkpt>
      <trkpt lat="44.28705" lon="3.44236">
        <ele>937.6</ele>
        <time>2020-08-25T12:42:31.000Z</time>
      </trkpt>
      <trkpt lat="44.287" lon="3.44238">
        <ele>937.6</ele>
        <time>2020-08-25T12:42:32.000Z</time>
      </trkpt>
      <trkpt lat="44.28696" lon="3.4424">
        <ele>937.6</ele>
        <time>2020-08-25T12:42:33.000Z</time>
      </trkpt>
      <trkpt lat="44.28691" lon="3.44242">
        <ele>937.6</ele>
        <time>2020-08-25T12:42:34.000Z</time>
      </trkpt>
      <trkpt lat="44.28685" lon="3.44244">
        <ele>937.7</ele>
        <time>2020-08-25T12:42:36.000Z</time>
      </trkpt>
      <trkpt lat="44.28681" lon="3.44245">
        <ele>937.7</ele>
        <time>2020-08-25T12:42:37.000Z</time>
      </trkpt>
      <trkpt lat="44.28675" lon="3.44247">
        <ele>937.7</ele>
        <time>2020-08-25T12:42:38.000Z</time>
      </trkpt>
      <trkpt lat="44.28667" lon="3.44249">
        <ele>937.5</ele>
        <time>2020-08-25T12:42:40.000Z</time>
      </trkpt>
      <trkpt lat="44.2866" lon="3.44251">
        <ele>937.3</ele>
        <time>2020-08-25T12:42:42.000Z</time>
      </trkpt>
      <trkpt lat="44.28654" lon="3.44253">
        <ele>937.1</ele>
        <time>2020-08-25T12:42:43.000Z</time>
      </trkpt>
      <trkpt lat="44.2865" lon="3.44255">
        <ele>937</ele>
        <time>2020-08-25T12:42:44.000Z</time>
      </trkpt>
      <trkpt lat="44.28643" lon="3.44258">
        <ele>936.7</ele>
        <time>2020-08-25T12:42:46.000Z</time>
      </trkpt>
      <trkpt lat="44.28638" lon="3.44261">
        <ele>936.6</ele>
        <time>2020-08-25T12:42:47.000Z</time>
      </trkpt>
      <trkpt lat="44.28631" lon="3.44265">
        <ele>936.3</ele>
        <time>2020-08-25T12:42:49.000Z</time>
      </trkpt>
      <trkpt lat="44.28624" lon="3.44269">
        <ele>936.1</ele>
        <time>2020-08-25T12:42:51.000Z</time>
      </trkpt>
      <trkpt lat="44.28619" lon="3.44272">
        <ele>936</ele>
        <time>2020-08-25T12:42:52.000Z</time>
      </trkpt>
      <trkpt lat="44.28614" lon="3.44275">
        <ele>935.9</ele>
        <time>2020-08-25T12:42:53.000Z</time>
      </trkpt>
      <trkpt lat="44.28609" lon="3.44278">
        <ele>935.9</ele>
        <time>2020-08-25T12:42:55.000Z</time>
      </trkpt>
      <trkpt lat="44.28603" lon="3.44282">
        <ele>935.9</ele>
        <time>2020-08-25T12:42:56.000Z</time>
      </trkpt>
      <trkpt lat="44.28599" lon="3.44285">
        <ele>935.9</ele>
        <time>2020-08-25T12:42:57.000Z</time>
      </trkpt>
      <trkpt lat="44.28593" lon="3.44289">
        <ele>935.9</ele>
        <time>2020-08-25T12:42:59.000Z</time>
      </trkpt>
      <trkpt lat="44.28588" lon="3.44292">
        <ele>935.9</ele>
        <time>2020-08-25T12:43:00.000Z</time>
      </trkpt>
      <trkpt lat="44.28584" lon="3.44296">
        <ele>935.9</ele>
        <time>2020-08-25T12:43:01.000Z</time>
      </trkpt>
      <trkpt lat="44.2858" lon="3.44299">
        <ele>935.9</ele>
        <time>2020-08-25T12:43:02.000Z</time>
      </trkpt>
      <trkpt lat="44.28576" lon="3.44303">
        <ele>936</ele>
        <time>2020-08-25T12:43:04.000Z</time>
      </trkpt>
      <trkpt lat="44.28573" lon="3.44306">
        <ele>936</ele>
        <time>2020-08-25T12:43:05.000Z</time>
      </trkpt>
      <trkpt lat="44.28571" lon="3.44308">
        <ele>936.1</ele>
        <time>2020-08-25T12:43:06.000Z</time>
      </trkpt>
      <trkpt lat="44.28571" lon="3.44307">
        <ele>936.1</ele>
        <time>2020-08-25T12:43:08.000Z</time>
      </trkpt>
      <trkpt lat="44.28571" lon="3.44307">
        <ele>936.1</ele>
        <time>2020-08-25T12:43:09.000Z</time>
      </trkpt>
      <trkpt lat="44.28572" lon="3.44307">
        <ele>936.1</ele>
        <time>2020-08-25T12:43:10.000Z</time>
      </trkpt>
      <trkpt lat="44.28572" lon="3.44307">
        <ele>936.1</ele>
        <time>2020-08-25T12:43:11.000Z</time>
      </trkpt>
      <trkpt lat="44.28571" lon="3.44308">
        <ele>936.2</ele>
        <time>2020-08-25T12:43:13.000Z</time>
      </trkpt>
      <trkpt lat="44.28568" lon="3.44311">
        <ele>936.3</ele>
        <time>2020-08-25T12:43:15.000Z</time>
      </trkpt>
      <trkpt lat="44.28566" lon="3.44312">
        <ele>936.4</ele>
        <time>2020-08-25T12:43:16.000Z</time>
      </trkpt>
      <trkpt lat="44.28565" lon="3.44313">
        <ele>936.4</ele>
        <time>2020-08-25T12:43:17.000Z</time>
      </trkpt>
      <trkpt lat="44.28562" lon="3.44315">
        <ele>936.5</ele>
        <time>2020-08-25T12:43:19.000Z</time>
      </trkpt>
      <trkpt lat="44.2856" lon="3.44317">
        <ele>936.5</ele>
        <time>2020-08-25T12:43:20.000Z</time>
      </trkpt>
      <trkpt lat="44.28555" lon="3.44319">
        <ele>936.5</ele>
        <time>2020-08-25T12:43:21.000Z</time>
      </trkpt>
      <trkpt lat="44.28552" lon="3.44322">
        <ele>936.5</ele>
        <time>2020-08-25T12:43:22.000Z</time>
      </trkpt>
      <trkpt lat="44.28548" lon="3.44325">
        <ele>936.2</ele>
        <time>2020-08-25T12:43:23.000Z</time>
      </trkpt>
      <trkpt lat="44.28546" lon="3.44328">
        <ele>935.8</ele>
        <time>2020-08-25T12:43:24.000Z</time>
      </trkpt>
      <trkpt lat="44.28543" lon="3.4433">
        <ele>935.3</ele>
        <time>2020-08-25T12:43:25.000Z</time>
      </trkpt>
      <trkpt lat="44.28539" lon="3.44333">
        <ele>934.8</ele>
        <time>2020-08-25T12:43:27.000Z</time>
      </trkpt>
      <trkpt lat="44.28536" lon="3.44336">
        <ele>935</ele>
        <time>2020-08-25T12:43:28.000Z</time>
      </trkpt>
      <trkpt lat="44.28535" lon="3.44337">
        <ele>935.1</ele>
        <time>2020-08-25T12:43:29.000Z</time>
      </trkpt>
      <trkpt lat="44.28533" lon="3.44339">
        <ele>935.3</ele>
        <time>2020-08-25T12:43:30.000Z</time>
      </trkpt>
      <trkpt lat="44.2853" lon="3.44342">
        <ele>935.5</ele>
        <time>2020-08-25T12:43:32.000Z</time>
      </trkpt>
      <trkpt lat="44.28527" lon="3.44346">
        <ele>935.6</ele>
        <time>2020-08-25T12:43:33.000Z</time>
      </trkpt>
      <trkpt lat="44.28526" lon="3.44347">
        <ele>935.7</ele>
        <time>2020-08-25T12:43:34.000Z</time>
      </trkpt>
      <trkpt lat="44.28523" lon="3.44351">
        <ele>935.9</ele>
        <time>2020-08-25T12:43:36.000Z</time>
      </trkpt>
      <trkpt lat="44.28521" lon="3.44354">
        <ele>936</ele>
        <time>2020-08-25T12:43:38.000Z</time>
      </trkpt>
      <trkpt lat="44.28518" lon="3.44357">
        <ele>936.1</ele>
        <time>2020-08-25T12:43:39.000Z</time>
      </trkpt>
      <trkpt lat="44.28516" lon="3.4436">
        <ele>936.2</ele>
        <time>2020-08-25T12:43:40.000Z</time>
      </trkpt>
      <trkpt lat="44.28513" lon="3.44364">
        <ele>936.4</ele>
        <time>2020-08-25T12:43:42.000Z</time>
      </trkpt>
      <trkpt lat="44.2851" lon="3.44368">
        <ele>936.5</ele>
        <time>2020-08-25T12:43:43.000Z</time>
      </trkpt>
      <trkpt lat="44.28506" lon="3.44372">
        <ele>936.6</ele>
        <time>2020-08-25T12:43:45.000Z</time>
      </trkpt>
      <trkpt lat="44.28504" lon="3.44374">
        <ele>936.6</ele>
        <time>2020-08-25T12:43:46.000Z</time>
      </trkpt>
      <trkpt lat="44.28501" lon="3.44377">
        <ele>936.7</ele>
        <time>2020-08-25T12:43:47.000Z</time>
      </trkpt>
      <trkpt lat="44.285" lon="3.44378">
        <ele>936.8</ele>
        <time>2020-08-25T12:43:48.000Z</time>
      </trkpt>
      <trkpt lat="44.28497" lon="3.4438">
        <ele>936.8</ele>
        <time>2020-08-25T12:43:50.000Z</time>
      </trkpt>
      <trkpt lat="44.28494" lon="3.44383">
        <ele>937</ele>
        <time>2020-08-25T12:43:51.000Z</time>
      </trkpt>
      <trkpt lat="44.28491" lon="3.44387">
        <ele>937.1</ele>
        <time>2020-08-25T12:43:53.000Z</time>
      </trkpt>
      <trkpt lat="44.28488" lon="3.4439">
        <ele>937.2</ele>
        <time>2020-08-25T12:43:54.000Z</time>
      </trkpt>
      <trkpt lat="44.28485" lon="3.44392">
        <ele>937.4</ele>
        <time>2020-08-25T12:43:55.000Z</time>
      </trkpt>
      <trkpt lat="44.28483" lon="3.44394">
        <ele>937.4</ele>
        <time>2020-08-25T12:43:56.000Z</time>
      </trkpt>
      <trkpt lat="44.28479" lon="3.44396">
        <ele>937.6</ele>
        <time>2020-08-25T12:43:58.000Z</time>
      </trkpt>
      <trkpt lat="44.28476" lon="3.44398">
        <ele>937.7</ele>
        <time>2020-08-25T12:43:59.000Z</time>
      </trkpt>
      <trkpt lat="44.28472" lon="3.44401">
        <ele>937.9</ele>
        <time>2020-08-25T12:44:01.000Z</time>
      </trkpt>
      <trkpt lat="44.28469" lon="3.44404">
        <ele>938</ele>
        <time>2020-08-25T12:44:02.000Z</time>
      </trkpt>
      <trkpt lat="44.28466" lon="3.44406">
        <ele>938.2</ele>
        <time>2020-08-25T12:44:03.000Z</time>
      </trkpt>
      <trkpt lat="44.28463" lon="3.44409">
        <ele>938.3</ele>
        <time>2020-08-25T12:44:05.000Z</time>
      </trkpt>
      <trkpt lat="44.2846" lon="3.44412">
        <ele>938.5</ele>
        <time>2020-08-25T12:44:06.000Z</time>
      </trkpt>
      <trkpt lat="44.28456" lon="3.44416">
        <ele>938.6</ele>
        <time>2020-08-25T12:44:07.000Z</time>
      </trkpt>
      <trkpt lat="44.28454" lon="3.44419">
        <ele>938.6</ele>
        <time>2020-08-25T12:44:09.000Z</time>
      </trkpt>
      <trkpt lat="44.28452" lon="3.44421">
        <ele>938.7</ele>
        <time>2020-08-25T12:44:10.000Z</time>
      </trkpt>
      <trkpt lat="44.28449" lon="3.44425">
        <ele>938.8</ele>
        <time>2020-08-25T12:44:11.000Z</time>
      </trkpt>
      <trkpt lat="44.28446" lon="3.44429">
        <ele>938.9</ele>
        <time>2020-08-25T12:44:13.000Z</time>
      </trkpt>
      <trkpt lat="44.28444" lon="3.44434">
        <ele>939</ele>
        <time>2020-08-25T12:44:14.000Z</time>
      </trkpt>
      <trkpt lat="44.28442" lon="3.44437">
        <ele>939.1</ele>
        <time>2020-08-25T12:44:15.000Z</time>
      </trkpt>
      <trkpt lat="44.28441" lon="3.44441">
        <ele>939.2</ele>
        <time>2020-08-25T12:44:16.000Z</time>
      </trkpt>
      <trkpt lat="44.28439" lon="3.44447">
        <ele>939.3</ele>
        <time>2020-08-25T12:44:18.000Z</time>
      </trkpt>
      <trkpt lat="44.28437" lon="3.4445">
        <ele>939.4</ele>
        <time>2020-08-25T12:44:19.000Z</time>
      </trkpt>
      <trkpt lat="44.28435" lon="3.44456">
        <ele>939.6</ele>
        <time>2020-08-25T12:44:21.000Z</time>
      </trkpt>
      <trkpt lat="44.28434" lon="3.44459">
        <ele>939.7</ele>
        <time>2020-08-25T12:44:22.000Z</time>
      </trkpt>
      <trkpt lat="44.28432" lon="3.44464">
        <ele>939.8</ele>
        <time>2020-08-25T12:44:24.000Z</time>
      </trkpt>
      <trkpt lat="44.2843" lon="3.44469">
        <ele>939.9</ele>
        <time>2020-08-25T12:44:25.000Z</time>
      </trkpt>
      <trkpt lat="44.2843" lon="3.44471">
        <ele>940</ele>
        <time>2020-08-25T12:44:26.000Z</time>
      </trkpt>
      <trkpt lat="44.28429" lon="3.44476">
        <ele>940.1</ele>
        <time>2020-08-25T12:44:27.000Z</time>
      </trkpt>
      <trkpt lat="44.28429" lon="3.44477">
        <ele>940.2</ele>
        <time>2020-08-25T12:44:28.000Z</time>
      </trkpt>
      <trkpt lat="44.28428" lon="3.44481">
        <ele>940.3</ele>
        <time>2020-08-25T12:44:29.000Z</time>
      </trkpt>
      <trkpt lat="44.28427" lon="3.44484">
        <ele>940.4</ele>
        <time>2020-08-25T12:44:31.000Z</time>
      </trkpt>
      <trkpt lat="44.28426" lon="3.44488">
        <ele>940.5</ele>
        <time>2020-08-25T12:44:32.000Z</time>
      </trkpt>
      <trkpt lat="44.28425" lon="3.44489">
        <ele>940.6</ele>
        <time>2020-08-25T12:44:33.000Z</time>
      </trkpt>
      <trkpt lat="44.28424" lon="3.44494">
        <ele>940.7</ele>
        <time>2020-08-25T12:44:35.000Z</time>
      </trkpt>
      <trkpt lat="44.28424" lon="3.44498">
        <ele>940.9</ele>
        <time>2020-08-25T12:44:36.000Z</time>
      </trkpt>
      <trkpt lat="44.28423" lon="3.44504">
        <ele>941.1</ele>
        <time>2020-08-25T12:44:38.000Z</time>
      </trkpt>
      <trkpt lat="44.28421" lon="3.4451">
        <ele>941.3</ele>
        <time>2020-08-25T12:44:40.000Z</time>
      </trkpt>
      <trkpt lat="44.2842" lon="3.44512">
        <ele>941.4</ele>
        <time>2020-08-25T12:44:41.000Z</time>
      </trkpt>
      <trkpt lat="44.2842" lon="3.44514">
        <ele>941.4</ele>
        <time>2020-08-25T12:44:42.000Z</time>
      </trkpt>
      <trkpt lat="44.28416" lon="3.44519">
        <ele>941.7</ele>
        <time>2020-08-25T12:44:44.000Z</time>
      </trkpt>
      <trkpt lat="44.28415" lon="3.44522">
        <ele>941.8</ele>
        <time>2020-08-25T12:44:45.000Z</time>
      </trkpt>
      <trkpt lat="44.28414" lon="3.44524">
        <ele>941.9</ele>
        <time>2020-08-25T12:44:46.000Z</time>
      </trkpt>
      <trkpt lat="44.28411" lon="3.44529">
        <ele>942.2</ele>
        <time>2020-08-25T12:44:48.000Z</time>
      </trkpt>
      <trkpt lat="44.2841" lon="3.44531">
        <ele>942.3</ele>
        <time>2020-08-25T12:44:50.000Z</time>
      </trkpt>
      <trkpt lat="44.28408" lon="3.44533">
        <ele>942.4</ele>
        <time>2020-08-25T12:44:51.000Z</time>
      </trkpt>
      <trkpt lat="44.28407" lon="3.44535">
        <ele>942.5</ele>
        <time>2020-08-25T12:44:52.000Z</time>
      </trkpt>
      <trkpt lat="44.28406" lon="3.44539">
        <ele>942.7</ele>
        <time>2020-08-25T12:44:54.000Z</time>
      </trkpt>
      <trkpt lat="44.28404" lon="3.44543">
        <ele>942.9</ele>
        <time>2020-08-25T12:44:55.000Z</time>
      </trkpt>
      <trkpt lat="44.28403" lon="3.44545">
        <ele>943</ele>
        <time>2020-08-25T12:44:56.000Z</time>
      </trkpt>
      <trkpt lat="44.28401" lon="3.44549">
        <ele>943.2</ele>
        <time>2020-08-25T12:44:58.000Z</time>
      </trkpt>
      <trkpt lat="44.284" lon="3.44552">
        <ele>943.4</ele>
        <time>2020-08-25T12:44:59.000Z</time>
      </trkpt>
      <trkpt lat="44.28398" lon="3.44557">
        <ele>943.6</ele>
        <time>2020-08-25T12:45:01.000Z</time>
      </trkpt>
      <trkpt lat="44.28396" lon="3.44561">
        <ele>943.7</ele>
        <time>2020-08-25T12:45:02.000Z</time>
      </trkpt>
      <trkpt lat="44.28393" lon="3.44565">
        <ele>943.9</ele>
        <time>2020-08-25T12:45:04.000Z</time>
      </trkpt>
      <trkpt lat="44.2839" lon="3.44569">
        <ele>944</ele>
        <time>2020-08-25T12:45:06.000Z</time>
      </trkpt>
      <trkpt lat="44.28388" lon="3.44572">
        <ele>944.2</ele>
        <time>2020-08-25T12:45:07.000Z</time>
      </trkpt>
      <trkpt lat="44.28386" lon="3.44575">
        <ele>944.3</ele>
        <time>2020-08-25T12:45:09.000Z</time>
      </trkpt>
      <trkpt lat="44.28384" lon="3.44578">
        <ele>944.4</ele>
        <time>2020-08-25T12:45:10.000Z</time>
      </trkpt>
      <trkpt lat="44.28381" lon="3.44582">
        <ele>944.5</ele>
        <time>2020-08-25T12:45:12.000Z</time>
      </trkpt>
      <trkpt lat="44.28378" lon="3.44586">
        <ele>944.7</ele>
        <time>2020-08-25T12:45:13.000Z</time>
      </trkpt>
      <trkpt lat="44.28377" lon="3.44588">
        <ele>944.7</ele>
        <time>2020-08-25T12:45:14.000Z</time>
      </trkpt>
      <trkpt lat="44.28375" lon="3.44589">
        <ele>944.8</ele>
        <time>2020-08-25T12:45:15.000Z</time>
      </trkpt>
      <trkpt lat="44.28372" lon="3.44592">
        <ele>944.9</ele>
        <time>2020-08-25T12:45:17.000Z</time>
      </trkpt>
      <trkpt lat="44.28369" lon="3.44593">
        <ele>945</ele>
        <time>2020-08-25T12:45:18.000Z</time>
      </trkpt>
      <trkpt lat="44.28365" lon="3.44594">
        <ele>945.1</ele>
        <time>2020-08-25T12:45:20.000Z</time>
      </trkpt>
      <trkpt lat="44.28363" lon="3.44594">
        <ele>945.2</ele>
        <time>2020-08-25T12:45:21.000Z</time>
      </trkpt>
      <trkpt lat="44.28361" lon="3.44594">
        <ele>945.2</ele>
        <time>2020-08-25T12:45:22.000Z</time>
      </trkpt>
      <trkpt lat="44.28359" lon="3.44594">
        <ele>945.3</ele>
        <time>2020-08-25T12:45:23.000Z</time>
      </trkpt>
      <trkpt lat="44.28357" lon="3.44593">
        <ele>945.4</ele>
        <time>2020-08-25T12:45:25.000Z</time>
      </trkpt>
      <trkpt lat="44.28354" lon="3.44592">
        <ele>945.4</ele>
        <time>2020-08-25T12:45:26.000Z</time>
      </trkpt>
      <trkpt lat="44.28351" lon="3.44591">
        <ele>945.4</ele>
        <time>2020-08-25T12:45:27.000Z</time>
      </trkpt>
      <trkpt lat="44.28348" lon="3.44588">
        <ele>945.5</ele>
        <time>2020-08-25T12:45:29.000Z</time>
      </trkpt>
      <trkpt lat="44.28346" lon="3.44586">
        <ele>945.5</ele>
        <time>2020-08-25T12:45:30.000Z</time>
      </trkpt>
      <trkpt lat="44.28344" lon="3.44584">
        <ele>945.6</ele>
        <time>2020-08-25T12:45:31.000Z</time>
      </trkpt>
      <trkpt lat="44.28341" lon="3.44581">
        <ele>945.7</ele>
        <time>2020-08-25T12:45:33.000Z</time>
      </trkpt>
      <trkpt lat="44.28339" lon="3.44578">
        <ele>945.8</ele>
        <time>2020-08-25T12:45:34.000Z</time>
      </trkpt>
      <trkpt lat="44.28336" lon="3.44575">
        <ele>945.9</ele>
        <time>2020-08-25T12:45:35.000Z</time>
      </trkpt>
      <trkpt lat="44.28334" lon="3.44573">
        <ele>945.9</ele>
        <time>2020-08-25T12:45:36.000Z</time>
      </trkpt>
      <trkpt lat="44.28332" lon="3.44569">
        <ele>946</ele>
        <time>2020-08-25T12:45:38.000Z</time>
      </trkpt>
      <trkpt lat="44.28329" lon="3.44566">
        <ele>946.1</ele>
        <time>2020-08-25T12:45:39.000Z</time>
      </trkpt>
      <trkpt lat="44.28327" lon="3.44564">
        <ele>946.2</ele>
        <time>2020-08-25T12:45:40.000Z</time>
      </trkpt>
      <trkpt lat="44.28325" lon="3.44561">
        <ele>946.3</ele>
        <time>2020-08-25T12:45:41.000Z</time>
      </trkpt>
      <trkpt lat="44.28324" lon="3.4456">
        <ele>946.3</ele>
        <time>2020-08-25T12:45:42.000Z</time>
      </trkpt>
      <trkpt lat="44.28322" lon="3.44558">
        <ele>946.4</ele>
        <time>2020-08-25T12:45:43.000Z</time>
      </trkpt>
      <trkpt lat="44.2832" lon="3.44555">
        <ele>946.5</ele>
        <time>2020-08-25T12:45:45.000Z</time>
      </trkpt>
      <trkpt lat="44.28318" lon="3.44552">
        <ele>946.6</ele>
        <time>2020-08-25T12:45:46.000Z</time>
      </trkpt>
      <trkpt lat="44.28316" lon="3.4455">
        <ele>946.6</ele>
        <time>2020-08-25T12:45:47.000Z</time>
      </trkpt>
      <trkpt lat="44.28313" lon="3.44546">
        <ele>946.7</ele>
        <time>2020-08-25T12:45:49.000Z</time>
      </trkpt>
      <trkpt lat="44.2831" lon="3.44542">
        <ele>946.8</ele>
        <time>2020-08-25T12:45:50.000Z</time>
      </trkpt>
      <trkpt lat="44.28308" lon="3.4454">
        <ele>946.9</ele>
        <time>2020-08-25T12:45:51.000Z</time>
      </trkpt>
      <trkpt lat="44.28305" lon="3.44536">
        <ele>947</ele>
        <time>2020-08-25T12:45:53.000Z</time>
      </trkpt>
      <trkpt lat="44.28303" lon="3.44532">
        <ele>947.1</ele>
        <time>2020-08-25T12:45:54.000Z</time>
      </trkpt>
      <trkpt lat="44.28302" lon="3.44531">
        <ele>947.1</ele>
        <time>2020-08-25T12:45:55.000Z</time>
      </trkpt>
      <trkpt lat="44.28299" lon="3.44527">
        <ele>947.2</ele>
        <time>2020-08-25T12:45:56.000Z</time>
      </trkpt>
      <trkpt lat="44.28298" lon="3.44525">
        <ele>947.3</ele>
        <time>2020-08-25T12:45:57.000Z</time>
      </trkpt>
      <trkpt lat="44.28296" lon="3.44523">
        <ele>947.4</ele>
        <time>2020-08-25T12:45:58.000Z</time>
      </trkpt>
      <trkpt lat="44.28291" lon="3.44519">
        <ele>947.5</ele>
        <time>2020-08-25T12:46:00.000Z</time>
      </trkpt>
      <trkpt lat="44.2829" lon="3.44517">
        <ele>947.6</ele>
        <time>2020-08-25T12:46:01.000Z</time>
      </trkpt>
      <trkpt lat="44.28289" lon="3.44515">
        <ele>947.6</ele>
        <time>2020-08-25T12:46:02.000Z</time>
      </trkpt>
      <trkpt lat="44.28287" lon="3.44512">
        <ele>947.7</ele>
        <time>2020-08-25T12:46:03.000Z</time>
      </trkpt>
      <trkpt lat="44.28285" lon="3.4451">
        <ele>947.8</ele>
        <time>2020-08-25T12:46:04.000Z</time>
      </trkpt>
      <trkpt lat="44.2828" lon="3.44505">
        <ele>948</ele>
        <time>2020-08-25T12:46:06.000Z</time>
      </trkpt>
      <trkpt lat="44.28279" lon="3.44504">
        <ele>948.1</ele>
        <time>2020-08-25T12:46:07.000Z</time>
      </trkpt>
      <trkpt lat="44.28277" lon="3.44503">
        <ele>948.1</ele>
        <time>2020-08-25T12:46:08.000Z</time>
      </trkpt>
      <trkpt lat="44.28274" lon="3.445">
        <ele>948.2</ele>
        <time>2020-08-25T12:46:10.000Z</time>
      </trkpt>
      <trkpt lat="44.28271" lon="3.44498">
        <ele>948.3</ele>
        <time>2020-08-25T12:46:11.000Z</time>
      </trkpt>
      <trkpt lat="44.28269" lon="3.44497">
        <ele>948.3</ele>
        <time>2020-08-25T12:46:12.000Z</time>
      </trkpt>
      <trkpt lat="44.28265" lon="3.44496">
        <ele>948.3</ele>
        <time>2020-08-25T12:46:14.000Z</time>
      </trkpt>
      <trkpt lat="44.28263" lon="3.44495">
        <ele>948.3</ele>
        <time>2020-08-25T12:46:15.000Z</time>
      </trkpt>
      <trkpt lat="44.2826" lon="3.44496">
        <ele>948.4</ele>
        <time>2020-08-25T12:46:17.000Z</time>
      </trkpt>
      <trkpt lat="44.28256" lon="3.44497">
        <ele>948.5</ele>
        <time>2020-08-25T12:46:18.000Z</time>
      </trkpt>
      <trkpt lat="44.28255" lon="3.44497">
        <ele>948.6</ele>
        <time>2020-08-25T12:46:19.000Z</time>
      </trkpt>
      <trkpt lat="44.28253" lon="3.44497">
        <ele>948.7</ele>
        <time>2020-08-25T12:46:20.000Z</time>
      </trkpt>
      <trkpt lat="44.2825" lon="3.44498">
        <ele>948.8</ele>
        <time>2020-08-25T12:46:21.000Z</time>
      </trkpt>
      <trkpt lat="44.28248" lon="3.445">
        <ele>948.9</ele>
        <time>2020-08-25T12:46:23.000Z</time>
      </trkpt>
      <trkpt lat="44.28244" lon="3.44502">
        <ele>949</ele>
        <time>2020-08-25T12:46:24.000Z</time>
      </trkpt>
      <trkpt lat="44.2824" lon="3.44504">
        <ele>949</ele>
        <time>2020-08-25T12:46:26.000Z</time>
      </trkpt>
      <trkpt lat="44.28236" lon="3.44506">
        <ele>949</ele>
        <time>2020-08-25T12:46:27.000Z</time>
      </trkpt>
      <trkpt lat="44.28234" lon="3.44507">
        <ele>949</ele>
        <time>2020-08-25T12:46:28.000Z</time>
      </trkpt>
      <trkpt lat="44.28231" lon="3.4451">
        <ele>949</ele>
        <time>2020-08-25T12:46:30.000Z</time>
      </trkpt>
      <trkpt lat="44.28227" lon="3.44512">
        <ele>949</ele>
        <time>2020-08-25T12:46:32.000Z</time>
      </trkpt>
      <trkpt lat="44.28224" lon="3.44514">
        <ele>948.9</ele>
        <time>2020-08-25T12:46:33.000Z</time>
      </trkpt>
      <trkpt lat="44.28221" lon="3.44516">
        <ele>948.9</ele>
        <time>2020-08-25T12:46:34.000Z</time>
      </trkpt>
      <trkpt lat="44.28218" lon="3.44519">
        <ele>948.8</ele>
        <time>2020-08-25T12:46:36.000Z</time>
      </trkpt>
      <trkpt lat="44.28214" lon="3.44522">
        <ele>948.6</ele>
        <time>2020-08-25T12:46:37.000Z</time>
      </trkpt>
      <trkpt lat="44.2821" lon="3.44525">
        <ele>948.5</ele>
        <time>2020-08-25T12:46:38.000Z</time>
      </trkpt>
      <trkpt lat="44.28207" lon="3.44527">
        <ele>948.4</ele>
        <time>2020-08-25T12:46:39.000Z</time>
      </trkpt>
      <trkpt lat="44.28202" lon="3.4453">
        <ele>948.2</ele>
        <time>2020-08-25T12:46:40.000Z</time>
      </trkpt>
      <trkpt lat="44.28198" lon="3.44533">
        <ele>948</ele>
        <time>2020-08-25T12:46:41.000Z</time>
      </trkpt>
      <trkpt lat="44.28189" lon="3.44539">
        <ele>947.7</ele>
        <time>2020-08-25T12:46:43.000Z</time>
      </trkpt>
      <trkpt lat="44.28185" lon="3.44542">
        <ele>947.4</ele>
        <time>2020-08-25T12:46:44.000Z</time>
      </trkpt>
      <trkpt lat="44.2818" lon="3.44548">
        <ele>947</ele>
        <time>2020-08-25T12:46:46.000Z</time>
      </trkpt>
      <trkpt lat="44.28178" lon="3.44554">
        <ele>946.7</ele>
        <time>2020-08-25T12:46:47.000Z</time>
      </trkpt>
      <trkpt lat="44.28173" lon="3.4456">
        <ele>946.1</ele>
        <time>2020-08-25T12:46:49.000Z</time>
      </trkpt>
      <trkpt lat="44.28167" lon="3.44569">
        <ele>945.3</ele>
        <time>2020-08-25T12:46:50.000Z</time>
      </trkpt>
      <trkpt lat="44.28164" lon="3.44576">
        <ele>944.7</ele>
        <time>2020-08-25T12:46:51.000Z</time>
      </trkpt>
      <trkpt lat="44.28156" lon="3.44591">
        <ele>943.4</ele>
        <time>2020-08-25T12:46:53.000Z</time>
      </trkpt>
      <trkpt lat="44.28146" lon="3.44604">
        <ele>942.1</ele>
        <time>2020-08-25T12:46:55.000Z</time>
      </trkpt>
      <trkpt lat="44.28137" lon="3.44617">
        <ele>940.9</ele>
        <time>2020-08-25T12:46:57.000Z</time>
      </trkpt>
      <trkpt lat="44.2813" lon="3.44632">
        <ele>939.7</ele>
        <time>2020-08-25T12:46:59.000Z</time>
      </trkpt>
      <trkpt lat="44.28122" lon="3.44647">
        <ele>938.3</ele>
        <time>2020-08-25T12:47:01.000Z</time>
      </trkpt>
      <trkpt lat="44.28118" lon="3.44653">
        <ele>937.8</ele>
        <time>2020-08-25T12:47:02.000Z</time>
      </trkpt>
      <trkpt lat="44.28113" lon="3.44655">
        <ele>937.2</ele>
        <time>2020-08-25T12:47:04.000Z</time>
      </trkpt>
      <trkpt lat="44.28112" lon="3.44655">
        <ele>937.2</ele>
        <time>2020-08-25T12:47:05.000Z</time>
      </trkpt>
      <trkpt lat="44.28113" lon="3.44654">
        <ele>937.1</ele>
        <time>2020-08-25T12:47:06.000Z</time>
      </trkpt>
      <trkpt lat="44.28113" lon="3.44654">
        <ele>937.1</ele>
        <time>2020-08-25T12:47:07.000Z</time>
      </trkpt>
      <trkpt lat="44.28113" lon="3.44654">
        <ele>937</ele>
        <time>2020-08-25T12:47:09.000Z</time>
      </trkpt>
      <trkpt lat="44.28113" lon="3.44654">
        <ele>937</ele>
        <time>2020-08-25T12:47:11.000Z</time>
      </trkpt>
      <trkpt lat="44.28113" lon="3.44654">
        <ele>937</ele>
        <time>2020-08-25T12:47:13.000Z</time>
      </trkpt>
      <trkpt lat="44.28113" lon="3.44654">
        <ele>937</ele>
        <time>2020-08-25T12:47:14.000Z</time>
      </trkpt>
      <trkpt lat="44.2811" lon="3.44657">
        <ele>936.7</ele>
        <time>2020-08-25T12:47:57.000Z</time>
      </trkpt>
      <trkpt lat="44.28107" lon="3.44662">
        <ele>936.2</ele>
        <time>2020-08-25T12:47:59.000Z</time>
      </trkpt>
      <trkpt lat="44.28106" lon="3.4467">
        <ele>935.7</ele>
        <time>2020-08-25T12:48:01.000Z</time>
      </trkpt>
      <trkpt lat="44.28105" lon="3.44669">
        <ele>935.6</ele>
        <time>2020-08-25T12:48:03.000Z</time>
      </trkpt>
      <trkpt lat="44.28105" lon="3.44666">
        <ele>935.2</ele>
        <time>2020-08-25T12:48:04.000Z</time>
      </trkpt>
      <trkpt lat="44.28101" lon="3.44669">
        <ele>934.5</ele>
        <time>2020-08-25T12:48:05.000Z</time>
      </trkpt>
      <trkpt lat="44.281" lon="3.44676">
        <ele>933.7</ele>
        <time>2020-08-25T12:48:06.000Z</time>
      </trkpt>
      <trkpt lat="44.28098" lon="3.4468">
        <ele>933.2</ele>
        <time>2020-08-25T12:48:07.000Z</time>
      </trkpt>
      <trkpt lat="44.28095" lon="3.44687">
        <ele>932.7</ele>
        <time>2020-08-25T12:48:09.000Z</time>
      </trkpt>
      <trkpt lat="44.28094" lon="3.44692">
        <ele>932.4</ele>
        <time>2020-08-25T12:48:10.000Z</time>
      </trkpt>
      <trkpt lat="44.28092" lon="3.44696">
        <ele>932.1</ele>
        <time>2020-08-25T12:48:11.000Z</time>
      </trkpt>
      <trkpt lat="44.28091" lon="3.44698">
        <ele>932</ele>
        <time>2020-08-25T12:48:12.000Z</time>
      </trkpt>
      <trkpt lat="44.28092" lon="3.44698">
        <ele>932</ele>
        <time>2020-08-25T12:48:14.000Z</time>
      </trkpt>
      <trkpt lat="44.28092" lon="3.44699">
        <ele>932</ele>
        <time>2020-08-25T12:48:15.000Z</time>
      </trkpt>
      <trkpt lat="44.28091" lon="3.44701">
        <ele>931.8</ele>
        <time>2020-08-25T12:48:18.000Z</time>
      </trkpt>
      <trkpt lat="44.28091" lon="3.44702">
        <ele>931.7</ele>
        <time>2020-08-25T12:48:20.000Z</time>
      </trkpt>
      <trkpt lat="44.2809" lon="3.44703">
        <ele>931.7</ele>
        <time>2020-08-25T12:48:22.000Z</time>
      </trkpt>
      <trkpt lat="44.28088" lon="3.44708">
        <ele>931.4</ele>
        <time>2020-08-25T12:50:22.000Z</time>
      </trkpt>
      <trkpt lat="44.28087" lon="3.44709">
        <ele>931.4</ele>
        <time>2020-08-25T12:50:23.000Z</time>
      </trkpt>
      <trkpt lat="44.28086" lon="3.44709">
        <ele>931.3</ele>
        <time>2020-08-25T12:50:25.000Z</time>
      </trkpt>
      <trkpt lat="44.28085" lon="3.44708">
        <ele>931.2</ele>
        <time>2020-08-25T12:50:26.000Z</time>
      </trkpt>
      <trkpt lat="44.28084" lon="3.44711">
        <ele>931</ele>
        <time>2020-08-25T12:50:28.000Z</time>
      </trkpt>
      <trkpt lat="44.28083" lon="3.44712">
        <ele>931</ele>
        <time>2020-08-25T12:50:29.000Z</time>
      </trkpt>
      <trkpt lat="44.2808" lon="3.44718">
        <ele>930.7</ele>
        <time>2020-08-25T12:50:30.000Z</time>
      </trkpt>
      <trkpt lat="44.28079" lon="3.4472">
        <ele>930.5</ele>
        <time>2020-08-25T12:50:31.000Z</time>
      </trkpt>
      <trkpt lat="44.28077" lon="3.44725">
        <ele>930.3</ele>
        <time>2020-08-25T12:50:33.000Z</time>
      </trkpt>
      <trkpt lat="44.28076" lon="3.44731">
        <ele>930</ele>
        <time>2020-08-25T12:50:34.000Z</time>
      </trkpt>
      <trkpt lat="44.28065" lon="3.44754">
        <ele>928.8</ele>
        <time>2020-08-25T12:50:36.000Z</time>
      </trkpt>
      <trkpt lat="44.28061" lon="3.44762">
        <ele>928.5</ele>
        <time>2020-08-25T12:50:37.000Z</time>
      </trkpt>
      <trkpt lat="44.28054" lon="3.44777">
        <ele>927.8</ele>
        <time>2020-08-25T12:50:39.000Z</time>
      </trkpt>
      <trkpt lat="44.28047" lon="3.44791">
        <ele>927.4</ele>
        <time>2020-08-25T12:50:41.000Z</time>
      </trkpt>
      <trkpt lat="44.28043" lon="3.44797">
        <ele>927.2</ele>
        <time>2020-08-25T12:50:42.000Z</time>
      </trkpt>
      <trkpt lat="44.28039" lon="3.44802">
        <ele>927.1</ele>
        <time>2020-08-25T12:50:43.000Z</time>
      </trkpt>
      <trkpt lat="44.28035" lon="3.44807">
        <ele>926.9</ele>
        <time>2020-08-25T12:50:44.000Z</time>
      </trkpt>
      <trkpt lat="44.28031" lon="3.44812">
        <ele>926.8</ele>
        <time>2020-08-25T12:50:45.000Z</time>
      </trkpt>
      <trkpt lat="44.28023" lon="3.44821">
        <ele>926.6</ele>
        <time>2020-08-25T12:50:47.000Z</time>
      </trkpt>
      <trkpt lat="44.2802" lon="3.44825">
        <ele>926.5</ele>
        <time>2020-08-25T12:50:48.000Z</time>
      </trkpt>
      <trkpt lat="44.28015" lon="3.44831">
        <ele>926.4</ele>
        <time>2020-08-25T12:50:50.000Z</time>
      </trkpt>
      <trkpt lat="44.28012" lon="3.44834">
        <ele>926.3</ele>
        <time>2020-08-25T12:50:51.000Z</time>
      </trkpt>
      <trkpt lat="44.28008" lon="3.44838">
        <ele>926.3</ele>
        <time>2020-08-25T12:50:52.000Z</time>
      </trkpt>
      <trkpt lat="44.28006" lon="3.44842">
        <ele>926.2</ele>
        <time>2020-08-25T12:50:53.000Z</time>
      </trkpt>
      <trkpt lat="44.28001" lon="3.44846">
        <ele>926.1</ele>
        <time>2020-08-25T12:50:55.000Z</time>
      </trkpt>
      <trkpt lat="44.27998" lon="3.4485">
        <ele>926</ele>
        <time>2020-08-25T12:50:56.000Z</time>
      </trkpt>
      <trkpt lat="44.27994" lon="3.44854">
        <ele>925.9</ele>
        <time>2020-08-25T12:50:57.000Z</time>
      </trkpt>
      <trkpt lat="44.27989" lon="3.44858">
        <ele>925.7</ele>
        <time>2020-08-25T12:50:59.000Z</time>
      </trkpt>
      <trkpt lat="44.27983" lon="3.44862">
        <ele>925.6</ele>
        <time>2020-08-25T12:51:00.000Z</time>
      </trkpt>
      <trkpt lat="44.27975" lon="3.44864">
        <ele>925.6</ele>
        <time>2020-08-25T12:51:02.000Z</time>
      </trkpt>
      <trkpt lat="44.2797" lon="3.44864">
        <ele>925.5</ele>
        <time>2020-08-25T12:51:03.000Z</time>
      </trkpt>
      <trkpt lat="44.27966" lon="3.44866">
        <ele>925.4</ele>
        <time>2020-08-25T12:51:04.000Z</time>
      </trkpt>
      <trkpt lat="44.27961" lon="3.4487">
        <ele>925.3</ele>
        <time>2020-08-25T12:51:05.000Z</time>
      </trkpt>
      <trkpt lat="44.27956" lon="3.44874">
        <ele>925.3</ele>
        <time>2020-08-25T12:51:06.000Z</time>
      </trkpt>
      <trkpt lat="44.27952" lon="3.44877">
        <ele>925.3</ele>
        <time>2020-08-25T12:51:07.000Z</time>
      </trkpt>
      <trkpt lat="44.27948" lon="3.44882">
        <ele>925.3</ele>
        <time>2020-08-25T12:51:08.000Z</time>
      </trkpt>
      <trkpt lat="44.27944" lon="3.44882">
        <ele>925.3</ele>
        <time>2020-08-25T12:51:10.000Z</time>
      </trkpt>
      <trkpt lat="44.27939" lon="3.44889">
        <ele>925.4</ele>
        <time>2020-08-25T12:51:12.000Z</time>
      </trkpt>
      <trkpt lat="44.27935" lon="3.44893">
        <ele>925.5</ele>
        <time>2020-08-25T12:51:13.000Z</time>
      </trkpt>
      <trkpt lat="44.27932" lon="3.44896">
        <ele>925.6</ele>
        <time>2020-08-25T12:51:14.000Z</time>
      </trkpt>
      <trkpt lat="44.27928" lon="3.449">
        <ele>925.7</ele>
        <time>2020-08-25T12:51:15.000Z</time>
      </trkpt>
      <trkpt lat="44.27924" lon="3.44903">
        <ele>925.8</ele>
        <time>2020-08-25T12:51:16.000Z</time>
      </trkpt>
      <trkpt lat="44.27921" lon="3.44906">
        <ele>926</ele>
        <time>2020-08-25T12:51:18.000Z</time>
      </trkpt>
      <trkpt lat="44.27918" lon="3.44907">
        <ele>926.1</ele>
        <time>2020-08-25T12:51:19.000Z</time>
      </trkpt>
      <trkpt lat="44.27915" lon="3.44908">
        <ele>926.3</ele>
        <time>2020-08-25T12:51:20.000Z</time>
      </trkpt>
      <trkpt lat="44.27912" lon="3.44909">
        <ele>926.4</ele>
        <time>2020-08-25T12:51:21.000Z</time>
      </trkpt>
      <trkpt lat="44.27909" lon="3.44909">
        <ele>926.6</ele>
        <time>2020-08-25T12:51:23.000Z</time>
      </trkpt>
      <trkpt lat="44.27906" lon="3.4491">
        <ele>926.8</ele>
        <time>2020-08-25T12:51:24.000Z</time>
      </trkpt>
      <trkpt lat="44.27905" lon="3.4491">
        <ele>926.9</ele>
        <time>2020-08-25T12:51:25.000Z</time>
      </trkpt>
      <trkpt lat="44.27901" lon="3.44911">
        <ele>927.1</ele>
        <time>2020-08-25T12:51:27.000Z</time>
      </trkpt>
      <trkpt lat="44.27898" lon="3.44911">
        <ele>927.3</ele>
        <time>2020-08-25T12:51:28.000Z</time>
      </trkpt>
      <trkpt lat="44.27895" lon="3.44912">
        <ele>927.5</ele>
        <time>2020-08-25T12:51:30.000Z</time>
      </trkpt>
      <trkpt lat="44.27891" lon="3.44912">
        <ele>927.8</ele>
        <time>2020-08-25T12:51:31.000Z</time>
      </trkpt>
      <trkpt lat="44.2789" lon="3.44912">
        <ele>927.8</ele>
        <time>2020-08-25T12:51:32.000Z</time>
      </trkpt>
      <trkpt lat="44.27887" lon="3.44913">
        <ele>928</ele>
        <time>2020-08-25T12:51:33.000Z</time>
      </trkpt>
      <trkpt lat="44.27885" lon="3.44913">
        <ele>928.2</ele>
        <time>2020-08-25T12:51:35.000Z</time>
      </trkpt>
      <trkpt lat="44.27882" lon="3.44913">
        <ele>928.3</ele>
        <time>2020-08-25T12:51:36.000Z</time>
      </trkpt>
      <trkpt lat="44.27879" lon="3.44913">
        <ele>928.5</ele>
        <time>2020-08-25T12:51:38.000Z</time>
      </trkpt>
      <trkpt lat="44.27876" lon="3.44913">
        <ele>928.7</ele>
        <time>2020-08-25T12:51:39.000Z</time>
      </trkpt>
      <trkpt lat="44.27875" lon="3.44914">
        <ele>928.7</ele>
        <time>2020-08-25T12:51:40.000Z</time>
      </trkpt>
      <trkpt lat="44.27873" lon="3.44914">
        <ele>928.8</ele>
        <time>2020-08-25T12:51:41.000Z</time>
      </trkpt>
      <trkpt lat="44.27872" lon="3.44914">
        <ele>928.9</ele>
        <time>2020-08-25T12:51:42.000Z</time>
      </trkpt>
      <trkpt lat="44.27869" lon="3.44914">
        <ele>929.1</ele>
        <time>2020-08-25T12:51:44.000Z</time>
      </trkpt>
      <trkpt lat="44.27868" lon="3.44914">
        <ele>929.1</ele>
        <time>2020-08-25T12:51:45.000Z</time>
      </trkpt>
      <trkpt lat="44.27865" lon="3.44915">
        <ele>929.3</ele>
        <time>2020-08-25T12:51:46.000Z</time>
      </trkpt>
      <trkpt lat="44.27863" lon="3.44915">
        <ele>929.4</ele>
        <time>2020-08-25T12:51:48.000Z</time>
      </trkpt>
      <trkpt lat="44.2786" lon="3.44916">
        <ele>929.5</ele>
        <time>2020-08-25T12:51:49.000Z</time>
      </trkpt>
      <trkpt lat="44.27858" lon="3.44916">
        <ele>929.6</ele>
        <time>2020-08-25T12:51:50.000Z</time>
      </trkpt>
      <trkpt lat="44.27855" lon="3.44917">
        <ele>929.7</ele>
        <time>2020-08-25T12:51:51.000Z</time>
      </trkpt>
      <trkpt lat="44.27854" lon="3.44918">
        <ele>929.7</ele>
        <time>2020-08-25T12:51:52.000Z</time>
      </trkpt>
      <trkpt lat="44.27851" lon="3.44918">
        <ele>929.9</ele>
        <time>2020-08-25T12:51:54.000Z</time>
      </trkpt>
      <trkpt lat="44.2785" lon="3.44918">
        <ele>930</ele>
        <time>2020-08-25T12:51:55.000Z</time>
      </trkpt>
      <trkpt lat="44.27848" lon="3.44918">
        <ele>930.1</ele>
        <time>2020-08-25T12:51:56.000Z</time>
      </trkpt>
      <trkpt lat="44.27844" lon="3.44919">
        <ele>930.3</ele>
        <time>2020-08-25T12:51:58.000Z</time>
      </trkpt>
      <trkpt lat="44.27842" lon="3.44919">
        <ele>930.4</ele>
        <time>2020-08-25T12:51:59.000Z</time>
      </trkpt>
      <trkpt lat="44.27839" lon="3.4492">
        <ele>930.5</ele>
        <time>2020-08-25T12:52:01.000Z</time>
      </trkpt>
      <trkpt lat="44.27835" lon="3.4492">
        <ele>930.7</ele>
        <time>2020-08-25T12:52:02.000Z</time>
      </trkpt>
      <trkpt lat="44.27834" lon="3.4492">
        <ele>930.7</ele>
        <time>2020-08-25T12:52:03.000Z</time>
      </trkpt>
      <trkpt lat="44.2783" lon="3.44921">
        <ele>930.9</ele>
        <time>2020-08-25T12:52:05.000Z</time>
      </trkpt>
      <trkpt lat="44.27828" lon="3.44921">
        <ele>931</ele>
        <time>2020-08-25T12:52:06.000Z</time>
      </trkpt>
      <trkpt lat="44.27824" lon="3.44922">
        <ele>931.1</ele>
        <time>2020-08-25T12:52:08.000Z</time>
      </trkpt>
      <trkpt lat="44.2782" lon="3.44924">
        <ele>931.3</ele>
        <time>2020-08-25T12:52:09.000Z</time>
      </trkpt>
      <trkpt lat="44.27819" lon="3.44924">
        <ele>931.3</ele>
        <time>2020-08-25T12:52:10.000Z</time>
      </trkpt>
      <trkpt lat="44.27816" lon="3.44925">
        <ele>931.4</ele>
        <time>2020-08-25T12:52:11.000Z</time>
      </trkpt>
      <trkpt lat="44.27813" lon="3.44927">
        <ele>931.5</ele>
        <time>2020-08-25T12:52:13.000Z</time>
      </trkpt>
      <trkpt lat="44.2781" lon="3.44928">
        <ele>931.7</ele>
        <time>2020-08-25T12:52:14.000Z</time>
      </trkpt>
      <trkpt lat="44.27807" lon="3.4493">
        <ele>931.8</ele>
        <time>2020-08-25T12:52:15.000Z</time>
      </trkpt>
      <trkpt lat="44.27803" lon="3.44931">
        <ele>932</ele>
        <time>2020-08-25T12:52:17.000Z</time>
      </trkpt>
      <trkpt lat="44.27802" lon="3.44932">
        <ele>932</ele>
        <time>2020-08-25T12:52:18.000Z</time>
      </trkpt>
      <trkpt lat="44.27798" lon="3.44934">
        <ele>932.2</ele>
        <time>2020-08-25T12:52:19.000Z</time>
      </trkpt>
      <trkpt lat="44.27797" lon="3.44935">
        <ele>932.3</ele>
        <time>2020-08-25T12:52:20.000Z</time>
      </trkpt>
      <trkpt lat="44.27792" lon="3.44937">
        <ele>932.5</ele>
        <time>2020-08-25T12:52:22.000Z</time>
      </trkpt>
      <trkpt lat="44.27787" lon="3.4494">
        <ele>932.8</ele>
        <time>2020-08-25T12:52:24.000Z</time>
      </trkpt>
      <trkpt lat="44.27785" lon="3.44941">
        <ele>932.9</ele>
        <time>2020-08-25T12:52:25.000Z</time>
      </trkpt>
      <trkpt lat="44.27783" lon="3.44942">
        <ele>933</ele>
        <time>2020-08-25T12:52:26.000Z</time>
      </trkpt>
      <trkpt lat="44.27778" lon="3.44944">
        <ele>933.3</ele>
        <time>2020-08-25T12:52:28.000Z</time>
      </trkpt>
      <trkpt lat="44.27775" lon="3.44945">
        <ele>933.4</ele>
        <time>2020-08-25T12:52:29.000Z</time>
      </trkpt>
      <trkpt lat="44.27772" lon="3.44946">
        <ele>933.6</ele>
        <time>2020-08-25T12:52:31.000Z</time>
      </trkpt>
      <trkpt lat="44.27769" lon="3.44948">
        <ele>933.8</ele>
        <time>2020-08-25T12:52:32.000Z</time>
      </trkpt>
      <trkpt lat="44.27766" lon="3.44949">
        <ele>933.9</ele>
        <time>2020-08-25T12:52:33.000Z</time>
      </trkpt>
      <trkpt lat="44.27763" lon="3.4495">
        <ele>934.1</ele>
        <time>2020-08-25T12:52:34.000Z</time>
      </trkpt>
      <trkpt lat="44.2776" lon="3.44952">
        <ele>934.2</ele>
        <time>2020-08-25T12:52:35.000Z</time>
      </trkpt>
      <trkpt lat="44.27759" lon="3.44953">
        <ele>934.3</ele>
        <time>2020-08-25T12:52:36.000Z</time>
      </trkpt>
      <trkpt lat="44.27756" lon="3.44955">
        <ele>934.6</ele>
        <time>2020-08-25T12:52:38.000Z</time>
      </trkpt>
      <trkpt lat="44.27755" lon="3.44956">
        <ele>934.6</ele>
        <time>2020-08-25T12:52:39.000Z</time>
      </trkpt>
      <trkpt lat="44.27752" lon="3.44957">
        <ele>934.9</ele>
        <time>2020-08-25T12:52:40.000Z</time>
      </trkpt>
      <trkpt lat="44.27751" lon="3.44958">
        <ele>935</ele>
        <time>2020-08-25T12:52:41.000Z</time>
      </trkpt>
      <trkpt lat="44.27747" lon="3.44961">
        <ele>935.4</ele>
        <time>2020-08-25T12:52:43.000Z</time>
      </trkpt>
      <trkpt lat="44.27745" lon="3.44962">
        <ele>935.6</ele>
        <time>2020-08-25T12:52:44.000Z</time>
      </trkpt>
      <trkpt lat="44.27744" lon="3.44963">
        <ele>935.7</ele>
        <time>2020-08-25T12:52:45.000Z</time>
      </trkpt>
      <trkpt lat="44.27741" lon="3.44965">
        <ele>936</ele>
        <time>2020-08-25T12:52:47.000Z</time>
      </trkpt>
      <trkpt lat="44.2774" lon="3.44966">
        <ele>936.2</ele>
        <time>2020-08-25T12:52:48.000Z</time>
      </trkpt>
      <trkpt lat="44.27738" lon="3.44967">
        <ele>936.3</ele>
        <time>2020-08-25T12:52:49.000Z</time>
      </trkpt>
      <trkpt lat="44.27736" lon="3.44968">
        <ele>936.6</ele>
        <time>2020-08-25T12:52:51.000Z</time>
      </trkpt>
      <trkpt lat="44.27734" lon="3.4497">
        <ele>936.9</ele>
        <time>2020-08-25T12:52:53.000Z</time>
      </trkpt>
      <trkpt lat="44.27733" lon="3.44971">
        <ele>937</ele>
        <time>2020-08-25T12:52:54.000Z</time>
      </trkpt>
      <trkpt lat="44.27731" lon="3.44972">
        <ele>937.2</ele>
        <time>2020-08-25T12:52:55.000Z</time>
      </trkpt>
      <trkpt lat="44.27729" lon="3.44974">
        <ele>937.4</ele>
        <time>2020-08-25T12:52:57.000Z</time>
      </trkpt>
      <trkpt lat="44.27727" lon="3.44975">
        <ele>937.6</ele>
        <time>2020-08-25T12:52:58.000Z</time>
      </trkpt>
      <trkpt lat="44.27726" lon="3.44976">
        <ele>937.8</ele>
        <time>2020-08-25T12:52:59.000Z</time>
      </trkpt>
      <trkpt lat="44.27725" lon="3.44977">
        <ele>937.9</ele>
        <time>2020-08-25T12:53:00.000Z</time>
      </trkpt>
      <trkpt lat="44.27722" lon="3.44979">
        <ele>938.3</ele>
        <time>2020-08-25T12:53:02.000Z</time>
      </trkpt>
      <trkpt lat="44.2772" lon="3.44979">
        <ele>938.5</ele>
        <time>2020-08-25T12:53:04.000Z</time>
      </trkpt>
      <trkpt lat="44.27719" lon="3.4498">
        <ele>938.7</ele>
        <time>2020-08-25T12:53:05.000Z</time>
      </trkpt>
      <trkpt lat="44.27718" lon="3.44981">
        <ele>938.8</ele>
        <time>2020-08-25T12:53:06.000Z</time>
      </trkpt>
      <trkpt lat="44.27717" lon="3.44981">
        <ele>938.9</ele>
        <time>2020-08-25T12:53:08.000Z</time>
      </trkpt>
      <trkpt lat="44.27716" lon="3.44982">
        <ele>939.1</ele>
        <time>2020-08-25T12:53:10.000Z</time>
      </trkpt>
      <trkpt lat="44.27714" lon="3.44983">
        <ele>939.4</ele>
        <time>2020-08-25T12:53:11.000Z</time>
      </trkpt>
      <trkpt lat="44.27713" lon="3.44984">
        <ele>939.6</ele>
        <time>2020-08-25T12:53:12.000Z</time>
      </trkpt>
      <trkpt lat="44.27712" lon="3.44985">
        <ele>939.8</ele>
        <time>2020-08-25T12:53:13.000Z</time>
      </trkpt>
      <trkpt lat="44.27711" lon="3.44985">
        <ele>939.9</ele>
        <time>2020-08-25T12:53:14.000Z</time>
      </trkpt>
      <trkpt lat="44.27711" lon="3.44985">
        <ele>939.9</ele>
        <time>2020-08-25T12:53:15.000Z</time>
      </trkpt>
      <trkpt lat="44.27709" lon="3.44987">
        <ele>940.1</ele>
        <time>2020-08-25T12:53:17.000Z</time>
      </trkpt>
      <trkpt lat="44.27708" lon="3.44987">
        <ele>940.3</ele>
        <time>2020-08-25T12:53:18.000Z</time>
      </trkpt>
      <trkpt lat="44.27707" lon="3.44988">
        <ele>940.5</ele>
        <time>2020-08-25T12:53:19.000Z</time>
      </trkpt>
      <trkpt lat="44.27707" lon="3.44988">
        <ele>940.6</ele>
        <time>2020-08-25T12:53:21.000Z</time>
      </trkpt>
      <trkpt lat="44.27706" lon="3.44989">
        <ele>940.7</ele>
        <time>2020-08-25T12:53:22.000Z</time>
      </trkpt>
      <trkpt lat="44.27704" lon="3.44991">
        <ele>941</ele>
        <time>2020-08-25T12:53:23.000Z</time>
      </trkpt>
      <trkpt lat="44.27703" lon="3.44991">
        <ele>941.1</ele>
        <time>2020-08-25T12:53:24.000Z</time>
      </trkpt>
      <trkpt lat="44.27702" lon="3.44992">
        <ele>941.3</ele>
        <time>2020-08-25T12:53:26.000Z</time>
      </trkpt>
      <trkpt lat="44.277" lon="3.44993">
        <ele>941.5</ele>
        <time>2020-08-25T12:53:28.000Z</time>
      </trkpt>
      <trkpt lat="44.27699" lon="3.44994">
        <ele>941.6</ele>
        <time>2020-08-25T12:53:29.000Z</time>
      </trkpt>
      <trkpt lat="44.27698" lon="3.44994">
        <ele>941.8</ele>
        <time>2020-08-25T12:53:31.000Z</time>
      </trkpt>
      <trkpt lat="44.27697" lon="3.44995">
        <ele>941.9</ele>
        <time>2020-08-25T12:53:32.000Z</time>
      </trkpt>
      <trkpt lat="44.27696" lon="3.44995">
        <ele>942</ele>
        <time>2020-08-25T12:53:33.000Z</time>
      </trkpt>
      <trkpt lat="44.27695" lon="3.44995">
        <ele>942.2</ele>
        <time>2020-08-25T12:53:34.000Z</time>
      </trkpt>
      <trkpt lat="44.27693" lon="3.44996">
        <ele>942.4</ele>
        <time>2020-08-25T12:53:36.000Z</time>
      </trkpt>
      <trkpt lat="44.27693" lon="3.44996">
        <ele>942.5</ele>
        <time>2020-08-25T12:53:37.000Z</time>
      </trkpt>
      <trkpt lat="44.27692" lon="3.44997">
        <ele>942.5</ele>
        <time>2020-08-25T12:53:38.000Z</time>
      </trkpt>
      <trkpt lat="44.27692" lon="3.44997">
        <ele>942.6</ele>
        <time>2020-08-25T12:53:39.000Z</time>
      </trkpt>
      <trkpt lat="44.27691" lon="3.44998">
        <ele>942.7</ele>
        <time>2020-08-25T12:53:41.000Z</time>
      </trkpt>
      <trkpt lat="44.27689" lon="3.44998">
        <ele>942.9</ele>
        <time>2020-08-25T12:53:42.000Z</time>
      </trkpt>
      <trkpt lat="44.27688" lon="3.44998">
        <ele>943</ele>
        <time>2020-08-25T12:53:43.000Z</time>
      </trkpt>
      <trkpt lat="44.27688" lon="3.44998">
        <ele>943.1</ele>
        <time>2020-08-25T12:53:44.000Z</time>
      </trkpt>
      <trkpt lat="44.27686" lon="3.44999">
        <ele>943.3</ele>
        <time>2020-08-25T12:53:45.000Z</time>
      </trkpt>
      <trkpt lat="44.27685" lon="3.44999">
        <ele>943.5</ele>
        <time>2020-08-25T12:53:47.000Z</time>
      </trkpt>
      <trkpt lat="44.27684" lon="3.44999">
        <ele>943.6</ele>
        <time>2020-08-25T12:53:48.000Z</time>
      </trkpt>
      <trkpt lat="44.27683" lon="3.44999">
        <ele>943.6</ele>
        <time>2020-08-25T12:53:49.000Z</time>
      </trkpt>
      <trkpt lat="44.27682" lon="3.45">
        <ele>943.8</ele>
        <time>2020-08-25T12:53:51.000Z</time>
      </trkpt>
      <trkpt lat="44.27681" lon="3.45">
        <ele>943.9</ele>
        <time>2020-08-25T12:53:52.000Z</time>
      </trkpt>
      <trkpt lat="44.27679" lon="3.45001">
        <ele>944.2</ele>
        <time>2020-08-25T12:53:54.000Z</time>
      </trkpt>
      <trkpt lat="44.27678" lon="3.45002">
        <ele>944.3</ele>
        <time>2020-08-25T12:53:55.000Z</time>
      </trkpt>
      <trkpt lat="44.27678" lon="3.45002">
        <ele>944.3</ele>
        <time>2020-08-25T12:53:56.000Z</time>
      </trkpt>
      <trkpt lat="44.27678" lon="3.45002">
        <ele>944.3</ele>
        <time>2020-08-25T12:53:58.000Z</time>
      </trkpt>
      <trkpt lat="44.27678" lon="3.45002">
        <ele>944.4</ele>
        <time>2020-08-25T12:53:59.000Z</time>
      </trkpt>
      <trkpt lat="44.27677" lon="3.45003">
        <ele>944.5</ele>
        <time>2020-08-25T12:54:01.000Z</time>
      </trkpt>
      <trkpt lat="44.27677" lon="3.45003">
        <ele>944.5</ele>
        <time>2020-08-25T12:54:02.000Z</time>
      </trkpt>
      <trkpt lat="44.27675" lon="3.45003">
        <ele>944.7</ele>
        <time>2020-08-25T12:54:03.000Z</time>
      </trkpt>
      <trkpt lat="44.27674" lon="3.45004">
        <ele>944.9</ele>
        <time>2020-08-25T12:54:05.000Z</time>
      </trkpt>
      <trkpt lat="44.27672" lon="3.45005">
        <ele>945.1</ele>
        <time>2020-08-25T12:54:06.000Z</time>
      </trkpt>
      <trkpt lat="44.2767" lon="3.45007">
        <ele>945.4</ele>
        <time>2020-08-25T12:54:07.000Z</time>
      </trkpt>
      <trkpt lat="44.27669" lon="3.45008">
        <ele>945.5</ele>
        <time>2020-08-25T12:54:09.000Z</time>
      </trkpt>
      <trkpt lat="44.27668" lon="3.45009">
        <ele>945.6</ele>
        <time>2020-08-25T12:54:10.000Z</time>
      </trkpt>
      <trkpt lat="44.27667" lon="3.4501">
        <ele>945.8</ele>
        <time>2020-08-25T12:54:11.000Z</time>
      </trkpt>
      <trkpt lat="44.27665" lon="3.45012">
        <ele>946.1</ele>
        <time>2020-08-25T12:54:13.000Z</time>
      </trkpt>
      <trkpt lat="44.27665" lon="3.45013">
        <ele>946.2</ele>
        <time>2020-08-25T12:54:14.000Z</time>
      </trkpt>
      <trkpt lat="44.27664" lon="3.45013">
        <ele>946.3</ele>
        <time>2020-08-25T12:54:15.000Z</time>
      </trkpt>
      <trkpt lat="44.27664" lon="3.45014">
        <ele>946.4</ele>
        <time>2020-08-25T12:54:16.000Z</time>
      </trkpt>
      <trkpt lat="44.27663" lon="3.45015">
        <ele>946.5</ele>
        <time>2020-08-25T12:54:17.000Z</time>
      </trkpt>
      <trkpt lat="44.27662" lon="3.45017">
        <ele>946.7</ele>
        <time>2020-08-25T12:54:19.000Z</time>
      </trkpt>
      <trkpt lat="44.27661" lon="3.45018">
        <ele>946.8</ele>
        <time>2020-08-25T12:54:20.000Z</time>
      </trkpt>
      <trkpt lat="44.2766" lon="3.45019">
        <ele>947</ele>
        <time>2020-08-25T12:54:21.000Z</time>
      </trkpt>
      <trkpt lat="44.27659" lon="3.4502">
        <ele>947.1</ele>
        <time>2020-08-25T12:54:23.000Z</time>
      </trkpt>
      <trkpt lat="44.27659" lon="3.45021">
        <ele>947.2</ele>
        <time>2020-08-25T12:54:24.000Z</time>
      </trkpt>
      <trkpt lat="44.27658" lon="3.45022">
        <ele>947.3</ele>
        <time>2020-08-25T12:54:25.000Z</time>
      </trkpt>
      <trkpt lat="44.27657" lon="3.45023">
        <ele>947.4</ele>
        <time>2020-08-25T12:54:26.000Z</time>
      </trkpt>
      <trkpt lat="44.27657" lon="3.45023">
        <ele>947.5</ele>
        <time>2020-08-25T12:54:27.000Z</time>
      </trkpt>
      <trkpt lat="44.27655" lon="3.45024">
        <ele>947.6</ele>
        <time>2020-08-25T12:54:29.000Z</time>
      </trkpt>
      <trkpt lat="44.27654" lon="3.45025">
        <ele>947.7</ele>
        <time>2020-08-25T12:54:30.000Z</time>
      </trkpt>
      <trkpt lat="44.27653" lon="3.45026">
        <ele>947.9</ele>
        <time>2020-08-25T12:54:32.000Z</time>
      </trkpt>
      <trkpt lat="44.27652" lon="3.45027">
        <ele>948</ele>
        <time>2020-08-25T12:54:33.000Z</time>
      </trkpt>
      <trkpt lat="44.27651" lon="3.45028">
        <ele>948</ele>
        <time>2020-08-25T12:54:34.000Z</time>
      </trkpt>
      <trkpt lat="44.27651" lon="3.45028">
        <ele>948.1</ele>
        <time>2020-08-25T12:54:35.000Z</time>
      </trkpt>
      <trkpt lat="44.2765" lon="3.4503">
        <ele>948.2</ele>
        <time>2020-08-25T12:54:37.000Z</time>
      </trkpt>
      <trkpt lat="44.27648" lon="3.45031">
        <ele>948.4</ele>
        <time>2020-08-25T12:54:38.000Z</time>
      </trkpt>
      <trkpt lat="44.27647" lon="3.45032">
        <ele>948.4</ele>
        <time>2020-08-25T12:54:39.000Z</time>
      </trkpt>
      <trkpt lat="44.27646" lon="3.45033">
        <ele>948.5</ele>
        <time>2020-08-25T12:54:41.000Z</time>
      </trkpt>
      <trkpt lat="44.27645" lon="3.45033">
        <ele>948.6</ele>
        <time>2020-08-25T12:54:42.000Z</time>
      </trkpt>
      <trkpt lat="44.27645" lon="3.45034">
        <ele>948.6</ele>
        <time>2020-08-25T12:54:43.000Z</time>
      </trkpt>
      <trkpt lat="44.27644" lon="3.45034">
        <ele>948.7</ele>
        <time>2020-08-25T12:54:44.000Z</time>
      </trkpt>
      <trkpt lat="44.27643" lon="3.45035">
        <ele>948.8</ele>
        <time>2020-08-25T12:54:46.000Z</time>
      </trkpt>
      <trkpt lat="44.27643" lon="3.45035">
        <ele>948.8</ele>
        <time>2020-08-25T12:54:47.000Z</time>
      </trkpt>
      <trkpt lat="44.27642" lon="3.45035">
        <ele>948.8</ele>
        <time>2020-08-25T12:54:49.000Z</time>
      </trkpt>
      <trkpt lat="44.27642" lon="3.45036">
        <ele>948.9</ele>
        <time>2020-08-25T12:54:50.000Z</time>
      </trkpt>
      <trkpt lat="44.2764" lon="3.45037">
        <ele>949</ele>
        <time>2020-08-25T12:54:52.000Z</time>
      </trkpt>
      <trkpt lat="44.27639" lon="3.45038">
        <ele>949.1</ele>
        <time>2020-08-25T12:54:53.000Z</time>
      </trkpt>
      <trkpt lat="44.27637" lon="3.45039">
        <ele>949.1</ele>
        <time>2020-08-25T12:54:54.000Z</time>
      </trkpt>
      <trkpt lat="44.27635" lon="3.45041">
        <ele>949.3</ele>
        <time>2020-08-25T12:54:56.000Z</time>
      </trkpt>
      <trkpt lat="44.27634" lon="3.45042">
        <ele>949.3</ele>
        <time>2020-08-25T12:54:57.000Z</time>
      </trkpt>
      <trkpt lat="44.27633" lon="3.45042">
        <ele>949.4</ele>
        <time>2020-08-25T12:54:58.000Z</time>
      </trkpt>
      <trkpt lat="44.27631" lon="3.45044">
        <ele>949.5</ele>
        <time>2020-08-25T12:54:59.000Z</time>
      </trkpt>
      <trkpt lat="44.2763" lon="3.45045">
        <ele>949.5</ele>
        <time>2020-08-25T12:55:00.000Z</time>
      </trkpt>
      <trkpt lat="44.27628" lon="3.45046">
        <ele>949.6</ele>
        <time>2020-08-25T12:55:02.000Z</time>
      </trkpt>
      <trkpt lat="44.27624" lon="3.45048">
        <ele>949.8</ele>
        <time>2020-08-25T12:55:03.000Z</time>
      </trkpt>
      <trkpt lat="44.27621" lon="3.4505">
        <ele>949.9</ele>
        <time>2020-08-25T12:55:04.000Z</time>
      </trkpt>
      <trkpt lat="44.2762" lon="3.45051">
        <ele>950</ele>
        <time>2020-08-25T12:55:05.000Z</time>
      </trkpt>
      <trkpt lat="44.27617" lon="3.45053">
        <ele>950.1</ele>
        <time>2020-08-25T12:55:06.000Z</time>
      </trkpt>
      <trkpt lat="44.27616" lon="3.45054">
        <ele>950.2</ele>
        <time>2020-08-25T12:55:07.000Z</time>
      </trkpt>
      <trkpt lat="44.27614" lon="3.45057">
        <ele>950.3</ele>
        <time>2020-08-25T12:55:09.000Z</time>
      </trkpt>
      <trkpt lat="44.27613" lon="3.45058">
        <ele>950.3</ele>
        <time>2020-08-25T12:55:10.000Z</time>
      </trkpt>
      <trkpt lat="44.27611" lon="3.4506">
        <ele>950.4</ele>
        <time>2020-08-25T12:55:11.000Z</time>
      </trkpt>
      <trkpt lat="44.27609" lon="3.45063">
        <ele>950.5</ele>
        <time>2020-08-25T12:55:13.000Z</time>
      </trkpt>
      <trkpt lat="44.27607" lon="3.45065">
        <ele>950.6</ele>
        <time>2020-08-25T12:55:14.000Z</time>
      </trkpt>
      <trkpt lat="44.27606" lon="3.45068">
        <ele>950.6</ele>
        <time>2020-08-25T12:55:16.000Z</time>
      </trkpt>
      <trkpt lat="44.27603" lon="3.45071">
        <ele>950.7</ele>
        <time>2020-08-25T12:55:17.000Z</time>
      </trkpt>
      <trkpt lat="44.27602" lon="3.45073">
        <ele>950.7</ele>
        <time>2020-08-25T12:55:18.000Z</time>
      </trkpt>
      <trkpt lat="44.27601" lon="3.45076">
        <ele>950.8</ele>
        <time>2020-08-25T12:55:20.000Z</time>
      </trkpt>
      <trkpt lat="44.27599" lon="3.45079">
        <ele>950.9</ele>
        <time>2020-08-25T12:55:22.000Z</time>
      </trkpt>
      <trkpt lat="44.27597" lon="3.45083">
        <ele>951</ele>
        <time>2020-08-25T12:55:23.000Z</time>
      </trkpt>
      <trkpt lat="44.27597" lon="3.45085">
        <ele>951.1</ele>
        <time>2020-08-25T12:55:24.000Z</time>
      </trkpt>
      <trkpt lat="44.27595" lon="3.45089">
        <ele>951.2</ele>
        <time>2020-08-25T12:55:26.000Z</time>
      </trkpt>
      <trkpt lat="44.27595" lon="3.4509">
        <ele>951.3</ele>
        <time>2020-08-25T12:55:27.000Z</time>
      </trkpt>
      <trkpt lat="44.27593" lon="3.45095">
        <ele>951.5</ele>
        <time>2020-08-25T12:55:29.000Z</time>
      </trkpt>
      <trkpt lat="44.27592" lon="3.45098">
        <ele>951.6</ele>
        <time>2020-08-25T12:55:30.000Z</time>
      </trkpt>
      <trkpt lat="44.27591" lon="3.45099">
        <ele>951.6</ele>
        <time>2020-08-25T12:55:31.000Z</time>
      </trkpt>
      <trkpt lat="44.2759" lon="3.45102">
        <ele>951.7</ele>
        <time>2020-08-25T12:55:32.000Z</time>
      </trkpt>
      <trkpt lat="44.27589" lon="3.45105">
        <ele>951.7</ele>
        <time>2020-08-25T12:55:34.000Z</time>
      </trkpt>
      <trkpt lat="44.27588" lon="3.45108">
        <ele>951.8</ele>
        <time>2020-08-25T12:55:35.000Z</time>
      </trkpt>
      <trkpt lat="44.27585" lon="3.45111">
        <ele>951.7</ele>
        <time>2020-08-25T12:55:37.000Z</time>
      </trkpt>
      <trkpt lat="44.27584" lon="3.45114">
        <ele>951.7</ele>
        <time>2020-08-25T12:55:38.000Z</time>
      </trkpt>
      <trkpt lat="44.27581" lon="3.45119">
        <ele>951.6</ele>
        <time>2020-08-25T12:55:40.000Z</time>
      </trkpt>
      <trkpt lat="44.27578" lon="3.45122">
        <ele>951.6</ele>
        <time>2020-08-25T12:55:41.000Z</time>
      </trkpt>
      <trkpt lat="44.27576" lon="3.45126">
        <ele>951.5</ele>
        <time>2020-08-25T12:55:43.000Z</time>
      </trkpt>
      <trkpt lat="44.27573" lon="3.45129">
        <ele>951.4</ele>
        <time>2020-08-25T12:55:44.000Z</time>
      </trkpt>
      <trkpt lat="44.27571" lon="3.45132">
        <ele>951.4</ele>
        <time>2020-08-25T12:55:45.000Z</time>
      </trkpt>
      <trkpt lat="44.27568" lon="3.45137">
        <ele>951.3</ele>
        <time>2020-08-25T12:55:47.000Z</time>
      </trkpt>
      <trkpt lat="44.27565" lon="3.45142">
        <ele>951.3</ele>
        <time>2020-08-25T12:55:48.000Z</time>
      </trkpt>
      <trkpt lat="44.27564" lon="3.45145">
        <ele>951.3</ele>
        <time>2020-08-25T12:55:49.000Z</time>
      </trkpt>
      <trkpt lat="44.27562" lon="3.4515">
        <ele>951.3</ele>
        <time>2020-08-25T12:55:50.000Z</time>
      </trkpt>
      <trkpt lat="44.2756" lon="3.45155">
        <ele>951.3</ele>
        <time>2020-08-25T12:55:52.000Z</time>
      </trkpt>
      <trkpt lat="44.27559" lon="3.4516">
        <ele>951.3</ele>
        <time>2020-08-25T12:55:53.000Z</time>
      </trkpt>
      <trkpt lat="44.27557" lon="3.45166">
        <ele>951.3</ele>
        <time>2020-08-25T12:55:54.000Z</time>
      </trkpt>
      <trkpt lat="44.27555" lon="3.45171">
        <ele>951.3</ele>
        <time>2020-08-25T12:55:56.000Z</time>
      </trkpt>
      <trkpt lat="44.27552" lon="3.45174">
        <ele>951.2</ele>
        <time>2020-08-25T12:55:57.000Z</time>
      </trkpt>
      <trkpt lat="44.27549" lon="3.45178">
        <ele>951.1</ele>
        <time>2020-08-25T12:55:58.000Z</time>
      </trkpt>
      <trkpt lat="44.27545" lon="3.45183">
        <ele>951</ele>
        <time>2020-08-25T12:56:00.000Z</time>
      </trkpt>
      <trkpt lat="44.27542" lon="3.45187">
        <ele>950.8</ele>
        <time>2020-08-25T12:56:01.000Z</time>
      </trkpt>
      <trkpt lat="44.27539" lon="3.45191">
        <ele>950.7</ele>
        <time>2020-08-25T12:56:02.000Z</time>
      </trkpt>
      <trkpt lat="44.27536" lon="3.45196">
        <ele>950.5</ele>
        <time>2020-08-25T12:56:04.000Z</time>
      </trkpt>
      <trkpt lat="44.27534" lon="3.45201">
        <ele>950.3</ele>
        <time>2020-08-25T12:56:05.000Z</time>
      </trkpt>
      <trkpt lat="44.27531" lon="3.4521">
        <ele>950</ele>
        <time>2020-08-25T12:56:06.000Z</time>
      </trkpt>
      <trkpt lat="44.27528" lon="3.45218">
        <ele>949.8</ele>
        <time>2020-08-25T12:56:07.000Z</time>
      </trkpt>
      <trkpt lat="44.27522" lon="3.45234">
        <ele>949.3</ele>
        <time>2020-08-25T12:56:09.000Z</time>
      </trkpt>
      <trkpt lat="44.27515" lon="3.45247">
        <ele>949.3</ele>
        <time>2020-08-25T12:56:11.000Z</time>
      </trkpt>
      <trkpt lat="44.27508" lon="3.45257">
        <ele>949.4</ele>
        <time>2020-08-25T12:56:13.000Z</time>
      </trkpt>
      <trkpt lat="44.27505" lon="3.45261">
        <ele>949.5</ele>
        <time>2020-08-25T12:56:14.000Z</time>
      </trkpt>
      <trkpt lat="44.27499" lon="3.45266">
        <ele>949.8</ele>
        <time>2020-08-25T12:56:16.000Z</time>
      </trkpt>
      <trkpt lat="44.27497" lon="3.45266">
        <ele>949.9</ele>
        <time>2020-08-25T12:56:17.000Z</time>
      </trkpt>
      <trkpt lat="44.27491" lon="3.45272">
        <ele>950.2</ele>
        <time>2020-08-25T12:56:19.000Z</time>
      </trkpt>
      <trkpt lat="44.27487" lon="3.45276">
        <ele>950.4</ele>
        <time>2020-08-25T12:56:21.000Z</time>
      </trkpt>
      <trkpt lat="44.27484" lon="3.45279">
        <ele>950.7</ele>
        <time>2020-08-25T12:56:22.000Z</time>
      </trkpt>
      <trkpt lat="44.27483" lon="3.4528">
        <ele>950.8</ele>
        <time>2020-08-25T12:56:23.000Z</time>
      </trkpt>
      <trkpt lat="44.27479" lon="3.45283">
        <ele>951</ele>
        <time>2020-08-25T12:56:25.000Z</time>
      </trkpt>
      <trkpt lat="44.27477" lon="3.45286">
        <ele>951.2</ele>
        <time>2020-08-25T12:56:26.000Z</time>
      </trkpt>
      <trkpt lat="44.27474" lon="3.45288">
        <ele>951.4</ele>
        <time>2020-08-25T12:56:27.000Z</time>
      </trkpt>
      <trkpt lat="44.27471" lon="3.4529">
        <ele>951.5</ele>
        <time>2020-08-25T12:56:28.000Z</time>
      </trkpt>
      <trkpt lat="44.27469" lon="3.45292">
        <ele>951.7</ele>
        <time>2020-08-25T12:56:29.000Z</time>
      </trkpt>
      <trkpt lat="44.27466" lon="3.45294">
        <ele>951.9</ele>
        <time>2020-08-25T12:56:30.000Z</time>
      </trkpt>
      <trkpt lat="44.27463" lon="3.45296">
        <ele>952.1</ele>
        <time>2020-08-25T12:56:32.000Z</time>
      </trkpt>
      <trkpt lat="44.27459" lon="3.45298">
        <ele>952.3</ele>
        <time>2020-08-25T12:56:33.000Z</time>
      </trkpt>
      <trkpt lat="44.27456" lon="3.45301">
        <ele>952.6</ele>
        <time>2020-08-25T12:56:35.000Z</time>
      </trkpt>
      <trkpt lat="44.27453" lon="3.45302">
        <ele>952.9</ele>
        <time>2020-08-25T12:56:36.000Z</time>
      </trkpt>
      <trkpt lat="44.2745" lon="3.45304">
        <ele>953.1</ele>
        <time>2020-08-25T12:56:38.000Z</time>
      </trkpt>
      <trkpt lat="44.27448" lon="3.45305">
        <ele>953.3</ele>
        <time>2020-08-25T12:56:39.000Z</time>
      </trkpt>
      <trkpt lat="44.27445" lon="3.45307">
        <ele>953.6</ele>
        <time>2020-08-25T12:56:41.000Z</time>
      </trkpt>
      <trkpt lat="44.27443" lon="3.45307">
        <ele>953.8</ele>
        <time>2020-08-25T12:56:42.000Z</time>
      </trkpt>
      <trkpt lat="44.27441" lon="3.45308">
        <ele>954</ele>
        <time>2020-08-25T12:56:44.000Z</time>
      </trkpt>
      <trkpt lat="44.27439" lon="3.45308">
        <ele>954.2</ele>
        <time>2020-08-25T12:56:45.000Z</time>
      </trkpt>
      <trkpt lat="44.27436" lon="3.45309">
        <ele>954.4</ele>
        <time>2020-08-25T12:56:47.000Z</time>
      </trkpt>
      <trkpt lat="44.27434" lon="3.45309">
        <ele>954.6</ele>
        <time>2020-08-25T12:56:48.000Z</time>
      </trkpt>
      <trkpt lat="44.27431" lon="3.4531">
        <ele>954.8</ele>
        <time>2020-08-25T12:56:50.000Z</time>
      </trkpt>
      <trkpt lat="44.27427" lon="3.45311">
        <ele>955</ele>
        <time>2020-08-25T12:56:52.000Z</time>
      </trkpt>
      <trkpt lat="44.27426" lon="3.45311">
        <ele>955.1</ele>
        <time>2020-08-25T12:56:53.000Z</time>
      </trkpt>
      <trkpt lat="44.27423" lon="3.45312">
        <ele>955.3</ele>
        <time>2020-08-25T12:56:55.000Z</time>
      </trkpt>
      <trkpt lat="44.27422" lon="3.45312">
        <ele>955.4</ele>
        <time>2020-08-25T12:56:56.000Z</time>
      </trkpt>
      <trkpt lat="44.2742" lon="3.45313">
        <ele>955.5</ele>
        <time>2020-08-25T12:56:57.000Z</time>
      </trkpt>
      <trkpt lat="44.27418" lon="3.45313">
        <ele>955.7</ele>
        <time>2020-08-25T12:56:58.000Z</time>
      </trkpt>
      <trkpt lat="44.27416" lon="3.45314">
        <ele>955.8</ele>
        <time>2020-08-25T12:57:00.000Z</time>
      </trkpt>
      <trkpt lat="44.27414" lon="3.45315">
        <ele>956</ele>
        <time>2020-08-25T12:57:01.000Z</time>
      </trkpt>
      <trkpt lat="44.27412" lon="3.45317">
        <ele>956.1</ele>
        <time>2020-08-25T12:57:03.000Z</time>
      </trkpt>
      <trkpt lat="44.27411" lon="3.45318">
        <ele>956.3</ele>
        <time>2020-08-25T12:57:04.000Z</time>
      </trkpt>
      <trkpt lat="44.27408" lon="3.4532">
        <ele>956.4</ele>
        <time>2020-08-25T12:57:06.000Z</time>
      </trkpt>
      <trkpt lat="44.27405" lon="3.45322">
        <ele>956.7</ele>
        <time>2020-08-25T12:57:07.000Z</time>
      </trkpt>
      <trkpt lat="44.27404" lon="3.45323">
        <ele>956.8</ele>
        <time>2020-08-25T12:57:08.000Z</time>
      </trkpt>
      <trkpt lat="44.27401" lon="3.45326">
        <ele>957</ele>
        <time>2020-08-25T12:57:10.000Z</time>
      </trkpt>
      <trkpt lat="44.274" lon="3.45328">
        <ele>957.2</ele>
        <time>2020-08-25T12:57:11.000Z</time>
      </trkpt>
      <trkpt lat="44.27398" lon="3.4533">
        <ele>957.3</ele>
        <time>2020-08-25T12:57:13.000Z</time>
      </trkpt>
      <trkpt lat="44.27397" lon="3.45332">
        <ele>957.4</ele>
        <time>2020-08-25T12:57:14.000Z</time>
      </trkpt>
      <trkpt lat="44.27395" lon="3.45335">
        <ele>957.6</ele>
        <time>2020-08-25T12:57:16.000Z</time>
      </trkpt>
      <trkpt lat="44.27393" lon="3.45338">
        <ele>957.7</ele>
        <time>2020-08-25T12:57:17.000Z</time>
      </trkpt>
      <trkpt lat="44.2739" lon="3.45341">
        <ele>957.9</ele>
        <time>2020-08-25T12:57:19.000Z</time>
      </trkpt>
      <trkpt lat="44.27389" lon="3.45343">
        <ele>957.9</ele>
        <time>2020-08-25T12:57:20.000Z</time>
      </trkpt>
      <trkpt lat="44.27388" lon="3.45344">
        <ele>958</ele>
        <time>2020-08-25T12:57:21.000Z</time>
      </trkpt>
      <trkpt lat="44.27385" lon="3.45347">
        <ele>958.1</ele>
        <time>2020-08-25T12:57:23.000Z</time>
      </trkpt>
      <trkpt lat="44.27385" lon="3.45348">
        <ele>958.1</ele>
        <time>2020-08-25T12:57:24.000Z</time>
      </trkpt>
      <trkpt lat="44.27383" lon="3.45352">
        <ele>958.2</ele>
        <time>2020-08-25T12:57:25.000Z</time>
      </trkpt>
      <trkpt lat="44.27382" lon="3.45353">
        <ele>958.3</ele>
        <time>2020-08-25T12:57:26.000Z</time>
      </trkpt>
      <trkpt lat="44.27381" lon="3.45355">
        <ele>958.3</ele>
        <time>2020-08-25T12:57:27.000Z</time>
      </trkpt>
      <trkpt lat="44.2738" lon="3.45357">
        <ele>958.4</ele>
        <time>2020-08-25T12:57:29.000Z</time>
      </trkpt>
      <trkpt lat="44.27378" lon="3.45358">
        <ele>958.5</ele>
        <time>2020-08-25T12:57:30.000Z</time>
      </trkpt>
      <trkpt lat="44.27377" lon="3.4536">
        <ele>958.6</ele>
        <time>2020-08-25T12:57:31.000Z</time>
      </trkpt>
      <trkpt lat="44.27374" lon="3.45363">
        <ele>958.7</ele>
        <time>2020-08-25T12:57:33.000Z</time>
      </trkpt>
      <trkpt lat="44.27373" lon="3.45364">
        <ele>958.8</ele>
        <time>2020-08-25T12:57:34.000Z</time>
      </trkpt>
      <trkpt lat="44.27372" lon="3.45366">
        <ele>958.9</ele>
        <time>2020-08-25T12:57:35.000Z</time>
      </trkpt>
      <trkpt lat="44.2737" lon="3.45367">
        <ele>959</ele>
        <time>2020-08-25T12:57:37.000Z</time>
      </trkpt>
      <trkpt lat="44.27367" lon="3.45369">
        <ele>959.1</ele>
        <time>2020-08-25T12:57:38.000Z</time>
      </trkpt>
      <trkpt lat="44.27365" lon="3.45372">
        <ele>959.3</ele>
        <time>2020-08-25T12:57:40.000Z</time>
      </trkpt>
      <trkpt lat="44.27362" lon="3.45375">
        <ele>959.4</ele>
        <time>2020-08-25T12:57:41.000Z</time>
      </trkpt>
      <trkpt lat="44.2736" lon="3.45378">
        <ele>959.5</ele>
        <time>2020-08-25T12:57:42.000Z</time>
      </trkpt>
      <trkpt lat="44.27359" lon="3.45378">
        <ele>959.6</ele>
        <time>2020-08-25T12:57:43.000Z</time>
      </trkpt>
      <trkpt lat="44.27356" lon="3.45381">
        <ele>959.7</ele>
        <time>2020-08-25T12:57:45.000Z</time>
      </trkpt>
      <trkpt lat="44.27355" lon="3.45382">
        <ele>959.7</ele>
        <time>2020-08-25T12:57:46.000Z</time>
      </trkpt>
      <trkpt lat="44.27354" lon="3.45384">
        <ele>959.8</ele>
        <time>2020-08-25T12:57:47.000Z</time>
      </trkpt>
      <trkpt lat="44.27351" lon="3.45386">
        <ele>959.9</ele>
        <time>2020-08-25T12:57:49.000Z</time>
      </trkpt>
      <trkpt lat="44.27347" lon="3.45388">
        <ele>960</ele>
        <time>2020-08-25T12:57:51.000Z</time>
      </trkpt>
      <trkpt lat="44.27346" lon="3.45389">
        <ele>960.1</ele>
        <time>2020-08-25T12:57:52.000Z</time>
      </trkpt>
      <trkpt lat="44.27345" lon="3.45389">
        <ele>960.1</ele>
        <time>2020-08-25T12:57:53.000Z</time>
      </trkpt>
      <trkpt lat="44.27341" lon="3.45393">
        <ele>960.3</ele>
        <time>2020-08-25T12:57:55.000Z</time>
      </trkpt>
      <trkpt lat="44.27339" lon="3.45394">
        <ele>960.3</ele>
        <time>2020-08-25T12:57:56.000Z</time>
      </trkpt>
      <trkpt lat="44.27338" lon="3.45396">
        <ele>960.4</ele>
        <time>2020-08-25T12:57:57.000Z</time>
      </trkpt>
      <trkpt lat="44.27336" lon="3.45399">
        <ele>960.5</ele>
        <time>2020-08-25T12:57:59.000Z</time>
      </trkpt>
      <trkpt lat="44.27334" lon="3.454">
        <ele>960.5</ele>
        <time>2020-08-25T12:58:00.000Z</time>
      </trkpt>
      <trkpt lat="44.27332" lon="3.45403">
        <ele>960.6</ele>
        <time>2020-08-25T12:58:02.000Z</time>
      </trkpt>
      <trkpt lat="44.27329" lon="3.45406">
        <ele>960.8</ele>
        <time>2020-08-25T12:58:03.000Z</time>
      </trkpt>
      <trkpt lat="44.27327" lon="3.45408">
        <ele>960.9</ele>
        <time>2020-08-25T12:58:04.000Z</time>
      </trkpt>
      <trkpt lat="44.27323" lon="3.45411">
        <ele>961</ele>
        <time>2020-08-25T12:58:06.000Z</time>
      </trkpt>
      <trkpt lat="44.27319" lon="3.45413">
        <ele>961.2</ele>
        <time>2020-08-25T12:58:07.000Z</time>
      </trkpt>
      <trkpt lat="44.27317" lon="3.45414">
        <ele>961.2</ele>
        <time>2020-08-25T12:58:08.000Z</time>
      </trkpt>
      <trkpt lat="44.27313" lon="3.45417">
        <ele>961.3</ele>
        <time>2020-08-25T12:58:10.000Z</time>
      </trkpt>
      <trkpt lat="44.27312" lon="3.45418">
        <ele>961.3</ele>
        <time>2020-08-25T12:58:11.000Z</time>
      </trkpt>
      <trkpt lat="44.2731" lon="3.45419">
        <ele>961.3</ele>
        <time>2020-08-25T12:58:12.000Z</time>
      </trkpt>
      <trkpt lat="44.27309" lon="3.45421">
        <ele>961.4</ele>
        <time>2020-08-25T12:58:13.000Z</time>
      </trkpt>
      <trkpt lat="44.27306" lon="3.45423">
        <ele>961.4</ele>
        <time>2020-08-25T12:58:15.000Z</time>
      </trkpt>
      <trkpt lat="44.27303" lon="3.45424">
        <ele>961.4</ele>
        <time>2020-08-25T12:58:16.000Z</time>
      </trkpt>
      <trkpt lat="44.273" lon="3.45425">
        <ele>961.4</ele>
        <time>2020-08-25T12:58:18.000Z</time>
      </trkpt>
      <trkpt lat="44.27297" lon="3.45427">
        <ele>961.4</ele>
        <time>2020-08-25T12:58:19.000Z</time>
      </trkpt>
      <trkpt lat="44.27293" lon="3.45427">
        <ele>961.4</ele>
        <time>2020-08-25T12:58:20.000Z</time>
      </trkpt>
      <trkpt lat="44.27289" lon="3.45427">
        <ele>961.4</ele>
        <time>2020-08-25T12:58:22.000Z</time>
      </trkpt>
      <trkpt lat="44.27284" lon="3.45428">
        <ele>961.3</ele>
        <time>2020-08-25T12:58:23.000Z</time>
      </trkpt>
      <trkpt lat="44.27281" lon="3.45429">
        <ele>961.3</ele>
        <time>2020-08-25T12:58:24.000Z</time>
      </trkpt>
      <trkpt lat="44.27275" lon="3.4543">
        <ele>961.2</ele>
        <time>2020-08-25T12:58:26.000Z</time>
      </trkpt>
      <trkpt lat="44.27271" lon="3.45432">
        <ele>961.2</ele>
        <time>2020-08-25T12:58:27.000Z</time>
      </trkpt>
      <trkpt lat="44.27267" lon="3.45435">
        <ele>961.2</ele>
        <time>2020-08-25T12:58:29.000Z</time>
      </trkpt>
      <trkpt lat="44.27263" lon="3.45437">
        <ele>961.1</ele>
        <time>2020-08-25T12:58:30.000Z</time>
      </trkpt>
      <trkpt lat="44.2726" lon="3.45439">
        <ele>961.1</ele>
        <time>2020-08-25T12:58:31.000Z</time>
      </trkpt>
      <trkpt lat="44.27258" lon="3.45441">
        <ele>961</ele>
        <time>2020-08-25T12:58:32.000Z</time>
      </trkpt>
      <trkpt lat="44.27254" lon="3.45443">
        <ele>961</ele>
        <time>2020-08-25T12:58:33.000Z</time>
      </trkpt>
      <trkpt lat="44.27251" lon="3.45445">
        <ele>960.9</ele>
        <time>2020-08-25T12:58:34.000Z</time>
      </trkpt>
      <trkpt lat="44.27247" lon="3.45447">
        <ele>960.8</ele>
        <time>2020-08-25T12:58:36.000Z</time>
      </trkpt>
      <trkpt lat="44.27242" lon="3.45449">
        <ele>960.7</ele>
        <time>2020-08-25T12:58:37.000Z</time>
      </trkpt>
      <trkpt lat="44.27237" lon="3.45452">
        <ele>960.6</ele>
        <time>2020-08-25T12:58:39.000Z</time>
      </trkpt>
      <trkpt lat="44.27235" lon="3.45453">
        <ele>960.6</ele>
        <time>2020-08-25T12:58:40.000Z</time>
      </trkpt>
      <trkpt lat="44.27232" lon="3.45455">
        <ele>960.6</ele>
        <time>2020-08-25T12:58:41.000Z</time>
      </trkpt>
      <trkpt lat="44.2723" lon="3.45456">
        <ele>960.6</ele>
        <time>2020-08-25T12:58:42.000Z</time>
      </trkpt>
      <trkpt lat="44.27225" lon="3.45459">
        <ele>960.6</ele>
        <time>2020-08-25T12:58:44.000Z</time>
      </trkpt>
      <trkpt lat="44.2722" lon="3.45461">
        <ele>960.6</ele>
        <time>2020-08-25T12:58:46.000Z</time>
      </trkpt>
      <trkpt lat="44.27217" lon="3.45464">
        <ele>960.6</ele>
        <time>2020-08-25T12:58:47.000Z</time>
      </trkpt>
      <trkpt lat="44.27214" lon="3.45466">
        <ele>960.5</ele>
        <time>2020-08-25T12:58:48.000Z</time>
      </trkpt>
      <trkpt lat="44.27209" lon="3.45468">
        <ele>960.5</ele>
        <time>2020-08-25T12:58:50.000Z</time>
      </trkpt>
      <trkpt lat="44.27205" lon="3.4547">
        <ele>960.5</ele>
        <time>2020-08-25T12:58:51.000Z</time>
      </trkpt>
      <trkpt lat="44.27202" lon="3.45471">
        <ele>960.5</ele>
        <time>2020-08-25T12:58:52.000Z</time>
      </trkpt>
      <trkpt lat="44.27198" lon="3.45473">
        <ele>960.5</ele>
        <time>2020-08-25T12:58:53.000Z</time>
      </trkpt>
      <trkpt lat="44.27195" lon="3.45475">
        <ele>960.5</ele>
        <time>2020-08-25T12:58:54.000Z</time>
      </trkpt>
      <trkpt lat="44.27192" lon="3.45476">
        <ele>960.4</ele>
        <time>2020-08-25T12:58:55.000Z</time>
      </trkpt>
      <trkpt lat="44.27186" lon="3.45478">
        <ele>960.4</ele>
        <time>2020-08-25T12:58:57.000Z</time>
      </trkpt>
      <trkpt lat="44.2718" lon="3.4548">
        <ele>960.3</ele>
        <time>2020-08-25T12:58:58.000Z</time>
      </trkpt>
      <trkpt lat="44.27175" lon="3.45481">
        <ele>960.3</ele>
        <time>2020-08-25T12:58:59.000Z</time>
      </trkpt>
      <trkpt lat="44.2717" lon="3.45483">
        <ele>960.4</ele>
        <time>2020-08-25T12:59:00.000Z</time>
      </trkpt>
      <trkpt lat="44.27166" lon="3.45484">
        <ele>960.4</ele>
        <time>2020-08-25T12:59:02.000Z</time>
      </trkpt>
      <trkpt lat="44.2716" lon="3.45486">
        <ele>960.4</ele>
        <time>2020-08-25T12:59:03.000Z</time>
      </trkpt>
      <trkpt lat="44.27155" lon="3.45487">
        <ele>960.4</ele>
        <time>2020-08-25T12:59:04.000Z</time>
      </trkpt>
      <trkpt lat="44.27148" lon="3.4549">
        <ele>960.4</ele>
        <time>2020-08-25T12:59:06.000Z</time>
      </trkpt>
      <trkpt lat="44.27143" lon="3.45491">
        <ele>960.5</ele>
        <time>2020-08-25T12:59:07.000Z</time>
      </trkpt>
      <trkpt lat="44.27138" lon="3.45493">
        <ele>960.5</ele>
        <time>2020-08-25T12:59:08.000Z</time>
      </trkpt>
      <trkpt lat="44.2713" lon="3.45496">
        <ele>960.6</ele>
        <time>2020-08-25T12:59:10.000Z</time>
      </trkpt>
      <trkpt lat="44.27126" lon="3.45497">
        <ele>960.6</ele>
        <time>2020-08-25T12:59:11.000Z</time>
      </trkpt>
      <trkpt lat="44.27121" lon="3.45499">
        <ele>960.6</ele>
        <time>2020-08-25T12:59:12.000Z</time>
      </trkpt>
      <trkpt lat="44.27115" lon="3.45501">
        <ele>960.6</ele>
        <time>2020-08-25T12:59:14.000Z</time>
      </trkpt>
      <trkpt lat="44.27111" lon="3.45503">
        <ele>960.7</ele>
        <time>2020-08-25T12:59:15.000Z</time>
      </trkpt>
      <trkpt lat="44.27106" lon="3.45504">
        <ele>960.7</ele>
        <time>2020-08-25T12:59:16.000Z</time>
      </trkpt>
      <trkpt lat="44.27102" lon="3.45506">
        <ele>960.7</ele>
        <time>2020-08-25T12:59:17.000Z</time>
      </trkpt>
      <trkpt lat="44.27097" lon="3.45508">
        <ele>960.9</ele>
        <time>2020-08-25T12:59:18.000Z</time>
      </trkpt>
      <trkpt lat="44.2709" lon="3.4551">
        <ele>960.9</ele>
        <time>2020-08-25T12:59:20.000Z</time>
      </trkpt>
      <trkpt lat="44.27086" lon="3.45511">
        <ele>961</ele>
        <time>2020-08-25T12:59:21.000Z</time>
      </trkpt>
      <trkpt lat="44.27081" lon="3.45512">
        <ele>961</ele>
        <time>2020-08-25T12:59:22.000Z</time>
      </trkpt>
      <trkpt lat="44.27077" lon="3.45514">
        <ele>961</ele>
        <time>2020-08-25T12:59:23.000Z</time>
      </trkpt>
      <trkpt lat="44.27073" lon="3.45515">
        <ele>961</ele>
        <time>2020-08-25T12:59:24.000Z</time>
      </trkpt>
      <trkpt lat="44.27068" lon="3.45518">
        <ele>960.9</ele>
        <time>2020-08-25T12:59:26.000Z</time>
      </trkpt>
      <trkpt lat="44.27063" lon="3.4552">
        <ele>960.9</ele>
        <time>2020-08-25T12:59:27.000Z</time>
      </trkpt>
      <trkpt lat="44.27059" lon="3.45523">
        <ele>960.8</ele>
        <time>2020-08-25T12:59:28.000Z</time>
      </trkpt>
      <trkpt lat="44.27054" lon="3.45526">
        <ele>960.7</ele>
        <time>2020-08-25T12:59:30.000Z</time>
      </trkpt>
      <trkpt lat="44.2705" lon="3.45528">
        <ele>960.6</ele>
        <time>2020-08-25T12:59:31.000Z</time>
      </trkpt>
      <trkpt lat="44.27044" lon="3.45531">
        <ele>960.5</ele>
        <time>2020-08-25T12:59:32.000Z</time>
      </trkpt>
      <trkpt lat="44.2704" lon="3.45533">
        <ele>960.4</ele>
        <time>2020-08-25T12:59:34.000Z</time>
      </trkpt>
      <trkpt lat="44.27035" lon="3.45537">
        <ele>960.3</ele>
        <time>2020-08-25T12:59:35.000Z</time>
      </trkpt>
      <trkpt lat="44.27031" lon="3.45539">
        <ele>960.1</ele>
        <time>2020-08-25T12:59:36.000Z</time>
      </trkpt>
      <trkpt lat="44.27025" lon="3.45543">
        <ele>959.9</ele>
        <time>2020-08-25T12:59:38.000Z</time>
      </trkpt>
      <trkpt lat="44.27019" lon="3.45547">
        <ele>959.7</ele>
        <time>2020-08-25T12:59:39.000Z</time>
      </trkpt>
      <trkpt lat="44.27014" lon="3.45549">
        <ele>959.5</ele>
        <time>2020-08-25T12:59:40.000Z</time>
      </trkpt>
      <trkpt lat="44.27009" lon="3.45552">
        <ele>959.2</ele>
        <time>2020-08-25T12:59:41.000Z</time>
      </trkpt>
      <trkpt lat="44.26999" lon="3.45558">
        <ele>958.7</ele>
        <time>2020-08-25T12:59:43.000Z</time>
      </trkpt>
      <trkpt lat="44.26995" lon="3.4556">
        <ele>958.4</ele>
        <time>2020-08-25T12:59:44.000Z</time>
      </trkpt>
      <trkpt lat="44.26986" lon="3.45565">
        <ele>958</ele>
        <time>2020-08-25T12:59:46.000Z</time>
      </trkpt>
      <trkpt lat="44.26982" lon="3.45568">
        <ele>957.8</ele>
        <time>2020-08-25T12:59:47.000Z</time>
      </trkpt>
      <trkpt lat="44.26979" lon="3.45571">
        <ele>957.6</ele>
        <time>2020-08-25T12:59:48.000Z</time>
      </trkpt>
      <trkpt lat="44.26975" lon="3.45575">
        <ele>957.3</ele>
        <time>2020-08-25T12:59:50.000Z</time>
      </trkpt>
      <trkpt lat="44.2697" lon="3.45579">
        <ele>957</ele>
        <time>2020-08-25T12:59:51.000Z</time>
      </trkpt>
      <trkpt lat="44.26965" lon="3.45583">
        <ele>956.6</ele>
        <time>2020-08-25T12:59:52.000Z</time>
      </trkpt>
      <trkpt lat="44.2696" lon="3.45587">
        <ele>956.1</ele>
        <time>2020-08-25T12:59:54.000Z</time>
      </trkpt>
      <trkpt lat="44.26955" lon="3.4559">
        <ele>955.6</ele>
        <time>2020-08-25T12:59:55.000Z</time>
      </trkpt>
      <trkpt lat="44.26949" lon="3.45595">
        <ele>955</ele>
        <time>2020-08-25T12:59:56.000Z</time>
      </trkpt>
      <trkpt lat="44.26942" lon="3.45599">
        <ele>954.2</ele>
        <time>2020-08-25T12:59:58.000Z</time>
      </trkpt>
      <trkpt lat="44.26937" lon="3.456">
        <ele>953.7</ele>
        <time>2020-08-25T12:59:59.000Z</time>
      </trkpt>
      <trkpt lat="44.26931" lon="3.45606">
        <ele>952.9</ele>
        <time>2020-08-25T13:00:01.000Z</time>
      </trkpt>
      <trkpt lat="44.26924" lon="3.45612">
        <ele>952.1</ele>
        <time>2020-08-25T13:00:03.000Z</time>
      </trkpt>
      <trkpt lat="44.26919" lon="3.45616">
        <ele>951.5</ele>
        <time>2020-08-25T13:00:04.000Z</time>
      </trkpt>
      <trkpt lat="44.26909" lon="3.45622">
        <ele>950.4</ele>
        <time>2020-08-25T13:00:06.000Z</time>
      </trkpt>
      <trkpt lat="44.26904" lon="3.45625">
        <ele>949.7</ele>
        <time>2020-08-25T13:00:07.000Z</time>
      </trkpt>
      <trkpt lat="44.26893" lon="3.45632">
        <ele>948.1</ele>
        <time>2020-08-25T13:00:09.000Z</time>
      </trkpt>
      <trkpt lat="44.26881" lon="3.45639">
        <ele>946.9</ele>
        <time>2020-08-25T13:00:11.000Z</time>
      </trkpt>
      <trkpt lat="44.26875" lon="3.45642">
        <ele>946.3</ele>
        <time>2020-08-25T13:00:12.000Z</time>
      </trkpt>
      <trkpt lat="44.26861" lon="3.4565">
        <ele>944.8</ele>
        <time>2020-08-25T13:00:14.000Z</time>
      </trkpt>
      <trkpt lat="44.26846" lon="3.45659">
        <ele>943.2</ele>
        <time>2020-08-25T13:00:16.000Z</time>
      </trkpt>
      <trkpt lat="44.26838" lon="3.45664">
        <ele>942.3</ele>
        <time>2020-08-25T13:00:17.000Z</time>
      </trkpt>
      <trkpt lat="44.26823" lon="3.45678">
        <ele>940.8</ele>
        <time>2020-08-25T13:00:19.000Z</time>
      </trkpt>
      <trkpt lat="44.26815" lon="3.45686">
        <ele>940.2</ele>
        <time>2020-08-25T13:00:20.000Z</time>
      </trkpt>
      <trkpt lat="44.268" lon="3.45702">
        <ele>938.9</ele>
        <time>2020-08-25T13:00:22.000Z</time>
      </trkpt>
      <trkpt lat="44.26784" lon="3.45713">
        <ele>938.1</ele>
        <time>2020-08-25T13:00:24.000Z</time>
      </trkpt>
      <trkpt lat="44.26769" lon="3.45724">
        <ele>937.7</ele>
        <time>2020-08-25T13:00:26.000Z</time>
      </trkpt>
      <trkpt lat="44.26755" lon="3.45735">
        <ele>937.6</ele>
        <time>2020-08-25T13:00:28.000Z</time>
      </trkpt>
      <trkpt lat="44.26742" lon="3.45745">
        <ele>937.5</ele>
        <time>2020-08-25T13:00:30.000Z</time>
      </trkpt>
      <trkpt lat="44.26736" lon="3.45749">
        <ele>937.5</ele>
        <time>2020-08-25T13:00:31.000Z</time>
      </trkpt>
      <trkpt lat="44.26725" lon="3.45758">
        <ele>937.9</ele>
        <time>2020-08-25T13:00:33.000Z</time>
      </trkpt>
      <trkpt lat="44.26715" lon="3.45766">
        <ele>938.4</ele>
        <time>2020-08-25T13:00:35.000Z</time>
      </trkpt>
      <trkpt lat="44.26707" lon="3.45776">
        <ele>938.9</ele>
        <time>2020-08-25T13:00:37.000Z</time>
      </trkpt>
      <trkpt lat="44.26703" lon="3.4578">
        <ele>939.1</ele>
        <time>2020-08-25T13:00:38.000Z</time>
      </trkpt>
      <trkpt lat="44.26698" lon="3.45791">
        <ele>939.3</ele>
        <time>2020-08-25T13:00:40.000Z</time>
      </trkpt>
      <trkpt lat="44.26696" lon="3.45801">
        <ele>939.6</ele>
        <time>2020-08-25T13:00:42.000Z</time>
      </trkpt>
      <trkpt lat="44.26695" lon="3.45805">
        <ele>939.7</ele>
        <time>2020-08-25T13:00:43.000Z</time>
      </trkpt>
      <trkpt lat="44.26694" lon="3.45813">
        <ele>939.9</ele>
        <time>2020-08-25T13:00:45.000Z</time>
      </trkpt>
      <trkpt lat="44.26691" lon="3.4582">
        <ele>940.2</ele>
        <time>2020-08-25T13:00:47.000Z</time>
      </trkpt>
      <trkpt lat="44.26688" lon="3.45824">
        <ele>940.5</ele>
        <time>2020-08-25T13:00:48.000Z</time>
      </trkpt>
      <trkpt lat="44.26687" lon="3.45821">
        <ele>940.7</ele>
        <time>2020-08-25T13:00:50.000Z</time>
      </trkpt>
      <trkpt lat="44.26685" lon="3.45827">
        <ele>941</ele>
        <time>2020-08-25T13:00:52.000Z</time>
      </trkpt>
      <trkpt lat="44.26684" lon="3.45828">
        <ele>941.2</ele>
        <time>2020-08-25T13:00:53.000Z</time>
      </trkpt>
      <trkpt lat="44.26682" lon="3.4583">
        <ele>941.4</ele>
        <time>2020-08-25T13:00:54.000Z</time>
      </trkpt>
      <trkpt lat="44.26681" lon="3.45833">
        <ele>941.7</ele>
        <time>2020-08-25T13:00:55.000Z</time>
      </trkpt>
      <trkpt lat="44.2668" lon="3.45834">
        <ele>941.8</ele>
        <time>2020-08-25T13:00:57.000Z</time>
      </trkpt>
      <trkpt lat="44.26679" lon="3.45836">
        <ele>942</ele>
        <time>2020-08-25T13:00:58.000Z</time>
      </trkpt>
      <trkpt lat="44.26678" lon="3.45837">
        <ele>942.1</ele>
        <time>2020-08-25T13:00:59.000Z</time>
      </trkpt>
      <trkpt lat="44.26677" lon="3.45839">
        <ele>942.3</ele>
        <time>2020-08-25T13:01:00.000Z</time>
      </trkpt>
      <trkpt lat="44.26675" lon="3.4584">
        <ele>942.5</ele>
        <time>2020-08-25T13:01:01.000Z</time>
      </trkpt>
      <trkpt lat="44.26673" lon="3.45842">
        <ele>942.8</ele>
        <time>2020-08-25T13:01:03.000Z</time>
      </trkpt>
      <trkpt lat="44.26672" lon="3.45843">
        <ele>942.8</ele>
        <time>2020-08-25T13:01:04.000Z</time>
      </trkpt>
      <trkpt lat="44.26671" lon="3.45844">
        <ele>943</ele>
        <time>2020-08-25T13:01:05.000Z</time>
      </trkpt>
      <trkpt lat="44.26669" lon="3.45845">
        <ele>943.2</ele>
        <time>2020-08-25T13:01:06.000Z</time>
      </trkpt>
      <trkpt lat="44.26668" lon="3.45847">
        <ele>943.3</ele>
        <time>2020-08-25T13:01:08.000Z</time>
      </trkpt>
      <trkpt lat="44.26667" lon="3.45849">
        <ele>943.5</ele>
        <time>2020-08-25T13:01:09.000Z</time>
      </trkpt>
      <trkpt lat="44.26666" lon="3.45851">
        <ele>943.7</ele>
        <time>2020-08-25T13:01:10.000Z</time>
      </trkpt>
      <trkpt lat="44.26664" lon="3.45853">
        <ele>943.8</ele>
        <time>2020-08-25T13:01:12.000Z</time>
      </trkpt>
      <trkpt lat="44.26662" lon="3.45856">
        <ele>944.1</ele>
        <time>2020-08-25T13:01:13.000Z</time>
      </trkpt>
      <trkpt lat="44.26662" lon="3.45857">
        <ele>944.2</ele>
        <time>2020-08-25T13:01:14.000Z</time>
      </trkpt>
      <trkpt lat="44.26659" lon="3.45859">
        <ele>944.4</ele>
        <time>2020-08-25T13:01:15.000Z</time>
      </trkpt>
      <trkpt lat="44.26659" lon="3.4586">
        <ele>944.5</ele>
        <time>2020-08-25T13:01:16.000Z</time>
      </trkpt>
      <trkpt lat="44.26658" lon="3.45862">
        <ele>944.6</ele>
        <time>2020-08-25T13:01:18.000Z</time>
      </trkpt>
      <trkpt lat="44.26656" lon="3.45864">
        <ele>944.7</ele>
        <time>2020-08-25T13:01:19.000Z</time>
      </trkpt>
      <trkpt lat="44.26655" lon="3.45867">
        <ele>945</ele>
        <time>2020-08-25T13:01:21.000Z</time>
      </trkpt>
      <trkpt lat="44.26654" lon="3.45868">
        <ele>945.1</ele>
        <time>2020-08-25T13:01:22.000Z</time>
      </trkpt>
      <trkpt lat="44.26653" lon="3.4587">
        <ele>945.2</ele>
        <time>2020-08-25T13:01:23.000Z</time>
      </trkpt>
      <trkpt lat="44.26651" lon="3.45874">
        <ele>945.6</ele>
        <time>2020-08-25T13:01:25.000Z</time>
      </trkpt>
      <trkpt lat="44.2665" lon="3.45876">
        <ele>945.8</ele>
        <time>2020-08-25T13:01:26.000Z</time>
      </trkpt>
      <trkpt lat="44.26648" lon="3.45879">
        <ele>946</ele>
        <time>2020-08-25T13:01:28.000Z</time>
      </trkpt>
      <trkpt lat="44.26647" lon="3.4588">
        <ele>946.1</ele>
        <time>2020-08-25T13:01:29.000Z</time>
      </trkpt>
      <trkpt lat="44.26647" lon="3.45883">
        <ele>946.3</ele>
        <time>2020-08-25T13:01:31.000Z</time>
      </trkpt>
      <trkpt lat="44.26646" lon="3.45885">
        <ele>946.4</ele>
        <time>2020-08-25T13:01:32.000Z</time>
      </trkpt>
      <trkpt lat="44.26644" lon="3.45886">
        <ele>946.5</ele>
        <time>2020-08-25T13:01:33.000Z</time>
      </trkpt>
      <trkpt lat="44.26642" lon="3.45889">
        <ele>946.8</ele>
        <time>2020-08-25T13:01:35.000Z</time>
      </trkpt>
      <trkpt lat="44.26642" lon="3.45891">
        <ele>946.9</ele>
        <time>2020-08-25T13:01:36.000Z</time>
      </trkpt>
      <trkpt lat="44.26641" lon="3.45892">
        <ele>947</ele>
        <time>2020-08-25T13:01:37.000Z</time>
      </trkpt>
      <trkpt lat="44.26639" lon="3.45895">
        <ele>947.1</ele>
        <time>2020-08-25T13:01:38.000Z</time>
      </trkpt>
      <trkpt lat="44.26638" lon="3.45897">
        <ele>947.3</ele>
        <time>2020-08-25T13:01:40.000Z</time>
      </trkpt>
      <trkpt lat="44.26637" lon="3.45898">
        <ele>947.4</ele>
        <time>2020-08-25T13:01:42.000Z</time>
      </trkpt>
      <trkpt lat="44.26636" lon="3.459">
        <ele>947.5</ele>
        <time>2020-08-25T13:01:43.000Z</time>
      </trkpt>
      <trkpt lat="44.26636" lon="3.45902">
        <ele>947.6</ele>
        <time>2020-08-25T13:01:44.000Z</time>
      </trkpt>
      <trkpt lat="44.26636" lon="3.45903">
        <ele>947.7</ele>
        <time>2020-08-25T13:01:45.000Z</time>
      </trkpt>
      <trkpt lat="44.26635" lon="3.45905">
        <ele>947.8</ele>
        <time>2020-08-25T13:01:46.000Z</time>
      </trkpt>
      <trkpt lat="44.26634" lon="3.45906">
        <ele>947.9</ele>
        <time>2020-08-25T13:01:48.000Z</time>
      </trkpt>
      <trkpt lat="44.26633" lon="3.45908">
        <ele>948</ele>
        <time>2020-08-25T13:01:49.000Z</time>
      </trkpt>
      <trkpt lat="44.26631" lon="3.45911">
        <ele>948.2</ele>
        <time>2020-08-25T13:01:50.000Z</time>
      </trkpt>
      <trkpt lat="44.2663" lon="3.45914">
        <ele>948.4</ele>
        <time>2020-08-25T13:01:51.000Z</time>
      </trkpt>
      <trkpt lat="44.26629" lon="3.45916">
        <ele>948.5</ele>
        <time>2020-08-25T13:01:53.000Z</time>
      </trkpt>
      <trkpt lat="44.26628" lon="3.45917">
        <ele>948.6</ele>
        <time>2020-08-25T13:01:55.000Z</time>
      </trkpt>
      <trkpt lat="44.26627" lon="3.45919">
        <ele>948.7</ele>
        <time>2020-08-25T13:01:56.000Z</time>
      </trkpt>
      <trkpt lat="44.26626" lon="3.45919">
        <ele>948.8</ele>
        <time>2020-08-25T13:01:58.000Z</time>
      </trkpt>
      <trkpt lat="44.26625" lon="3.4592">
        <ele>948.9</ele>
        <time>2020-08-25T13:01:59.000Z</time>
      </trkpt>
      <trkpt lat="44.26623" lon="3.45923">
        <ele>949</ele>
        <time>2020-08-25T13:02:01.000Z</time>
      </trkpt>
      <trkpt lat="44.2662" lon="3.45925">
        <ele>949.1</ele>
        <time>2020-08-25T13:02:02.000Z</time>
      </trkpt>
      <trkpt lat="44.26616" lon="3.4593">
        <ele>949.3</ele>
        <time>2020-08-25T13:02:04.000Z</time>
      </trkpt>
      <trkpt lat="44.26613" lon="3.45933">
        <ele>949.4</ele>
        <time>2020-08-25T13:02:05.000Z</time>
      </trkpt>
      <trkpt lat="44.26607" lon="3.4594">
        <ele>949.6</ele>
        <time>2020-08-25T13:02:07.000Z</time>
      </trkpt>
      <trkpt lat="44.26604" lon="3.45943">
        <ele>949.7</ele>
        <time>2020-08-25T13:02:08.000Z</time>
      </trkpt>
      <trkpt lat="44.266" lon="3.45947">
        <ele>949.8</ele>
        <time>2020-08-25T13:02:10.000Z</time>
      </trkpt>
      <trkpt lat="44.26598" lon="3.45949">
        <ele>949.9</ele>
        <time>2020-08-25T13:02:11.000Z</time>
      </trkpt>
      <trkpt lat="44.26593" lon="3.45953">
        <ele>950</ele>
        <time>2020-08-25T13:02:13.000Z</time>
      </trkpt>
      <trkpt lat="44.26589" lon="3.45956">
        <ele>950.1</ele>
        <time>2020-08-25T13:02:15.000Z</time>
      </trkpt>
      <trkpt lat="44.26584" lon="3.45959">
        <ele>950.2</ele>
        <time>2020-08-25T13:02:17.000Z</time>
      </trkpt>
      <trkpt lat="44.2658" lon="3.45961">
        <ele>950.3</ele>
        <time>2020-08-25T13:02:18.000Z</time>
      </trkpt>
      <trkpt lat="44.26577" lon="3.45963">
        <ele>950.3</ele>
        <time>2020-08-25T13:02:20.000Z</time>
      </trkpt>
      <trkpt lat="44.26574" lon="3.45965">
        <ele>950.4</ele>
        <time>2020-08-25T13:02:21.000Z</time>
      </trkpt>
      <trkpt lat="44.2657" lon="3.45966">
        <ele>950.4</ele>
        <time>2020-08-25T13:02:22.000Z</time>
      </trkpt>
      <trkpt lat="44.26567" lon="3.45968">
        <ele>950.5</ele>
        <time>2020-08-25T13:02:23.000Z</time>
      </trkpt>
      <trkpt lat="44.26562" lon="3.45971">
        <ele>950.5</ele>
        <time>2020-08-25T13:02:25.000Z</time>
      </trkpt>
      <trkpt lat="44.26556" lon="3.45974">
        <ele>950.6</ele>
        <time>2020-08-25T13:02:27.000Z</time>
      </trkpt>
      <trkpt lat="44.2655" lon="3.45977">
        <ele>950.7</ele>
        <time>2020-08-25T13:02:29.000Z</time>
      </trkpt>
      <trkpt lat="44.26544" lon="3.4598">
        <ele>950.8</ele>
        <time>2020-08-25T13:02:31.000Z</time>
      </trkpt>
      <trkpt lat="44.26538" lon="3.45984">
        <ele>950.9</ele>
        <time>2020-08-25T13:02:33.000Z</time>
      </trkpt>
      <trkpt lat="44.26535" lon="3.45986">
        <ele>950.9</ele>
        <time>2020-08-25T13:02:34.000Z</time>
      </trkpt>
      <trkpt lat="44.26529" lon="3.4599">
        <ele>951.1</ele>
        <time>2020-08-25T13:02:36.000Z</time>
      </trkpt>
      <trkpt lat="44.26526" lon="3.45992">
        <ele>951.1</ele>
        <time>2020-08-25T13:02:37.000Z</time>
      </trkpt>
      <trkpt lat="44.26522" lon="3.45996">
        <ele>951.3</ele>
        <time>2020-08-25T13:02:39.000Z</time>
      </trkpt>
      <trkpt lat="44.26518" lon="3.45998">
        <ele>951.4</ele>
        <time>2020-08-25T13:02:40.000Z</time>
      </trkpt>
      <trkpt lat="44.26516" lon="3.46">
        <ele>951.5</ele>
        <time>2020-08-25T13:02:41.000Z</time>
      </trkpt>
      <trkpt lat="44.26512" lon="3.46003">
        <ele>951.6</ele>
        <time>2020-08-25T13:02:42.000Z</time>
      </trkpt>
      <trkpt lat="44.26508" lon="3.46006">
        <ele>951.7</ele>
        <time>2020-08-25T13:02:44.000Z</time>
      </trkpt>
      <trkpt lat="44.26505" lon="3.46008">
        <ele>951.8</ele>
        <time>2020-08-25T13:02:45.000Z</time>
      </trkpt>
      <trkpt lat="44.26502" lon="3.46011">
        <ele>951.9</ele>
        <time>2020-08-25T13:02:46.000Z</time>
      </trkpt>
      <trkpt lat="44.26499" lon="3.46013">
        <ele>952</ele>
        <time>2020-08-25T13:02:48.000Z</time>
      </trkpt>
      <trkpt lat="44.26495" lon="3.46017">
        <ele>952.2</ele>
        <time>2020-08-25T13:02:49.000Z</time>
      </trkpt>
      <trkpt lat="44.26491" lon="3.46021">
        <ele>952.3</ele>
        <time>2020-08-25T13:02:51.000Z</time>
      </trkpt>
      <trkpt lat="44.26488" lon="3.46023">
        <ele>952.4</ele>
        <time>2020-08-25T13:02:52.000Z</time>
      </trkpt>
      <trkpt lat="44.26485" lon="3.46026">
        <ele>952.6</ele>
        <time>2020-08-25T13:02:53.000Z</time>
      </trkpt>
      <trkpt lat="44.26482" lon="3.46028">
        <ele>952.7</ele>
        <time>2020-08-25T13:02:54.000Z</time>
      </trkpt>
      <trkpt lat="44.26481" lon="3.46029">
        <ele>952.8</ele>
        <time>2020-08-25T13:02:55.000Z</time>
      </trkpt>
      <trkpt lat="44.26476" lon="3.46033">
        <ele>953</ele>
        <time>2020-08-25T13:02:57.000Z</time>
      </trkpt>
      <trkpt lat="44.26473" lon="3.46036">
        <ele>953.2</ele>
        <time>2020-08-25T13:02:58.000Z</time>
      </trkpt>
      <trkpt lat="44.26467" lon="3.46039">
        <ele>953.4</ele>
        <time>2020-08-25T13:03:00.000Z</time>
      </trkpt>
      <trkpt lat="44.26464" lon="3.46042">
        <ele>953.6</ele>
        <time>2020-08-25T13:03:01.000Z</time>
      </trkpt>
      <trkpt lat="44.2646" lon="3.46045">
        <ele>953.8</ele>
        <time>2020-08-25T13:03:03.000Z</time>
      </trkpt>
      <trkpt lat="44.26455" lon="3.46048">
        <ele>954.1</ele>
        <time>2020-08-25T13:03:05.000Z</time>
      </trkpt>
      <trkpt lat="44.26451" lon="3.46052">
        <ele>954.3</ele>
        <time>2020-08-25T13:03:07.000Z</time>
      </trkpt>
      <trkpt lat="44.26445" lon="3.46054">
        <ele>954.5</ele>
        <time>2020-08-25T13:03:09.000Z</time>
      </trkpt>
      <trkpt lat="44.26443" lon="3.46056">
        <ele>954.7</ele>
        <time>2020-08-25T13:03:10.000Z</time>
      </trkpt>
      <trkpt lat="44.26438" lon="3.46058">
        <ele>954.9</ele>
        <time>2020-08-25T13:03:12.000Z</time>
      </trkpt>
      <trkpt lat="44.26435" lon="3.4606">
        <ele>955.1</ele>
        <time>2020-08-25T13:03:13.000Z</time>
      </trkpt>
      <trkpt lat="44.26434" lon="3.4606">
        <ele>955.1</ele>
        <time>2020-08-25T13:03:14.000Z</time>
      </trkpt>
      <trkpt lat="44.26429" lon="3.46063">
        <ele>955.3</ele>
        <time>2020-08-25T13:03:16.000Z</time>
      </trkpt>
      <trkpt lat="44.26426" lon="3.46065">
        <ele>955.5</ele>
        <time>2020-08-25T13:03:17.000Z</time>
      </trkpt>
      <trkpt lat="44.26425" lon="3.46065">
        <ele>955.5</ele>
        <time>2020-08-25T13:03:18.000Z</time>
      </trkpt>
      <trkpt lat="44.26423" lon="3.46069">
        <ele>955.7</ele>
        <time>2020-08-25T13:03:20.000Z</time>
      </trkpt>
      <trkpt lat="44.26423" lon="3.46074">
        <ele>955.9</ele>
        <time>2020-08-25T13:03:22.000Z</time>
      </trkpt>
      <trkpt lat="44.26424" lon="3.46076">
        <ele>955.9</ele>
        <time>2020-08-25T13:03:23.000Z</time>
      </trkpt>
      <trkpt lat="44.26426" lon="3.46077">
        <ele>957</ele>
        <time>2020-08-25T13:03:24.000Z</time>
      </trkpt>
      <trkpt lat="44.26428" lon="3.46077">
        <ele>957.2</ele>
        <time>2020-08-25T13:03:26.000Z</time>
      </trkpt>
      <trkpt lat="44.2643" lon="3.46075">
        <ele>957.3</ele>
        <time>2020-08-25T13:03:27.000Z</time>
      </trkpt>
      <trkpt lat="44.26434" lon="3.46072">
        <ele>957.6</ele>
        <time>2020-08-25T13:03:29.000Z</time>
      </trkpt>
      <trkpt lat="44.26433" lon="3.46073">
        <ele>957.7</ele>
        <time>2020-08-25T13:03:31.000Z</time>
      </trkpt>
      <trkpt lat="44.26432" lon="3.46074">
        <ele>957.8</ele>
        <time>2020-08-25T13:03:33.000Z</time>
      </trkpt>
      <trkpt lat="44.26431" lon="3.46074">
        <ele>957.9</ele>
        <time>2020-08-25T13:03:34.000Z</time>
      </trkpt>
      <trkpt lat="44.2643" lon="3.46075">
        <ele>957.9</ele>
        <time>2020-08-25T13:03:35.000Z</time>
      </trkpt>
      <trkpt lat="44.26429" lon="3.46075">
        <ele>958</ele>
        <time>2020-08-25T13:03:36.000Z</time>
      </trkpt>
      <trkpt lat="44.26428" lon="3.46076">
        <ele>958.1</ele>
        <time>2020-08-25T13:03:38.000Z</time>
      </trkpt>
      <trkpt lat="44.26428" lon="3.46077">
        <ele>958.2</ele>
        <time>2020-08-25T13:36:15.000Z</time>
      </trkpt>
      <trkpt lat="44.26427" lon="3.46077">
        <ele>958.2</ele>
        <time>2020-08-25T13:36:17.000Z</time>
      </trkpt>
      <trkpt lat="44.26426" lon="3.46078">
        <ele>958.3</ele>
        <time>2020-08-25T13:36:18.000Z</time>
      </trkpt>
      <trkpt lat="44.26424" lon="3.4608">
        <ele>958.5</ele>
        <time>2020-08-25T13:36:19.000Z</time>
      </trkpt>
      <trkpt lat="44.26423" lon="3.46081">
        <ele>958.6</ele>
        <time>2020-08-25T13:36:20.000Z</time>
      </trkpt>
      <trkpt lat="44.26422" lon="3.46083">
        <ele>958.7</ele>
        <time>2020-08-25T13:36:22.000Z</time>
      </trkpt>
      <trkpt lat="44.26421" lon="3.46085">
        <ele>958.9</ele>
        <time>2020-08-25T13:36:24.000Z</time>
      </trkpt>
      <trkpt lat="44.2642" lon="3.46087">
        <ele>959.1</ele>
        <time>2020-08-25T13:36:25.000Z</time>
      </trkpt>
      <trkpt lat="44.26419" lon="3.46088">
        <ele>959.2</ele>
        <time>2020-08-25T13:36:26.000Z</time>
      </trkpt>
      <trkpt lat="44.26418" lon="3.46091">
        <ele>959.4</ele>
        <time>2020-08-25T13:36:28.000Z</time>
      </trkpt>
      <trkpt lat="44.26418" lon="3.46093">
        <ele>959.5</ele>
        <time>2020-08-25T13:36:29.000Z</time>
      </trkpt>
      <trkpt lat="44.26418" lon="3.46096">
        <ele>959.7</ele>
        <time>2020-08-25T13:36:31.000Z</time>
      </trkpt>
      <trkpt lat="44.26418" lon="3.46097">
        <ele>959.8</ele>
        <time>2020-08-25T13:36:32.000Z</time>
      </trkpt>
      <trkpt lat="44.26418" lon="3.46099">
        <ele>959.9</ele>
        <time>2020-08-25T13:36:33.000Z</time>
      </trkpt>
      <trkpt lat="44.26418" lon="3.46101">
        <ele>960</ele>
        <time>2020-08-25T13:36:34.000Z</time>
      </trkpt>
      <trkpt lat="44.26418" lon="3.46103">
        <ele>960.1</ele>
        <time>2020-08-25T13:36:36.000Z</time>
      </trkpt>
      <trkpt lat="44.26418" lon="3.46104">
        <ele>960.2</ele>
        <time>2020-08-25T13:36:37.000Z</time>
      </trkpt>
      <trkpt lat="44.26418" lon="3.46107">
        <ele>960.4</ele>
        <time>2020-08-25T13:36:39.000Z</time>
      </trkpt>
      <trkpt lat="44.26418" lon="3.46108">
        <ele>960.4</ele>
        <time>2020-08-25T13:36:40.000Z</time>
      </trkpt>
      <trkpt lat="44.26418" lon="3.46109">
        <ele>960.5</ele>
        <time>2020-08-25T13:36:41.000Z</time>
      </trkpt>
      <trkpt lat="44.26418" lon="3.46111">
        <ele>960.7</ele>
        <time>2020-08-25T13:36:43.000Z</time>
      </trkpt>
      <trkpt lat="44.26417" lon="3.46112">
        <ele>960.7</ele>
        <time>2020-08-25T13:36:45.000Z</time>
      </trkpt>
      <trkpt lat="44.26417" lon="3.46112">
        <ele>960.7</ele>
        <time>2020-08-25T13:36:46.000Z</time>
      </trkpt>
      <trkpt lat="44.26417" lon="3.46112">
        <ele>960.8</ele>
        <time>2020-08-25T13:36:47.000Z</time>
      </trkpt>
      <trkpt lat="44.26417" lon="3.46112">
        <ele>960.8</ele>
        <time>2020-08-25T13:36:48.000Z</time>
      </trkpt>
      <trkpt lat="44.26417" lon="3.46112">
        <ele>960.8</ele>
        <time>2020-08-25T13:36:50.000Z</time>
      </trkpt>
      <trkpt lat="44.26417" lon="3.46112">
        <ele>960.8</ele>
        <time>2020-08-25T13:36:51.000Z</time>
      </trkpt>
      <trkpt lat="44.26415" lon="3.46113">
        <ele>960.8</ele>
        <time>2020-08-25T13:36:53.000Z</time>
      </trkpt>
      <trkpt lat="44.26414" lon="3.46114">
        <ele>960.8</ele>
        <time>2020-08-25T13:36:54.000Z</time>
      </trkpt>
      <trkpt lat="44.26411" lon="3.46115">
        <ele>960.9</ele>
        <time>2020-08-25T13:36:56.000Z</time>
      </trkpt>
      <trkpt lat="44.26409" lon="3.46116">
        <ele>960.9</ele>
        <time>2020-08-25T13:36:57.000Z</time>
      </trkpt>
      <trkpt lat="44.26408" lon="3.46117">
        <ele>961</ele>
        <time>2020-08-25T13:36:59.000Z</time>
      </trkpt>
      <trkpt lat="44.26408" lon="3.46117">
        <ele>961</ele>
        <time>2020-08-25T13:37:01.000Z</time>
      </trkpt>
      <trkpt lat="44.26408" lon="3.46117">
        <ele>961</ele>
        <time>2020-08-25T13:37:03.000Z</time>
      </trkpt>
      <trkpt lat="44.26409" lon="3.46117">
        <ele>961</ele>
        <time>2020-08-25T13:37:05.000Z</time>
      </trkpt>
      <trkpt lat="44.26409" lon="3.46117">
        <ele>961</ele>
        <time>2020-08-25T13:37:06.000Z</time>
      </trkpt>
      <trkpt lat="44.26408" lon="3.46117">
        <ele>961</ele>
        <time>2020-08-25T13:37:08.000Z</time>
      </trkpt>
      <trkpt lat="44.26405" lon="3.46118">
        <ele>961</ele>
        <time>2020-08-25T13:37:12.000Z</time>
      </trkpt>
      <trkpt lat="44.26403" lon="3.46119">
        <ele>961.1</ele>
        <time>2020-08-25T13:37:14.000Z</time>
      </trkpt>
      <trkpt lat="44.26403" lon="3.46121">
        <ele>961.1</ele>
        <time>2020-08-25T13:37:15.000Z</time>
      </trkpt>
      <trkpt lat="44.26403" lon="3.46122">
        <ele>961.1</ele>
        <time>2020-08-25T13:37:16.000Z</time>
      </trkpt>
      <trkpt lat="44.26402" lon="3.46123">
        <ele>961.1</ele>
        <time>2020-08-25T13:37:17.000Z</time>
      </trkpt>
      <trkpt lat="44.264" lon="3.46125">
        <ele>961.1</ele>
        <time>2020-08-25T13:37:19.000Z</time>
      </trkpt>
      <trkpt lat="44.26397" lon="3.46127">
        <ele>961.2</ele>
        <time>2020-08-25T13:37:20.000Z</time>
      </trkpt>
      <trkpt lat="44.26396" lon="3.46128">
        <ele>961.2</ele>
        <time>2020-08-25T13:37:21.000Z</time>
      </trkpt>
      <trkpt lat="44.2639" lon="3.4613">
        <ele>961.3</ele>
        <time>2020-08-25T13:37:23.000Z</time>
      </trkpt>
      <trkpt lat="44.26381" lon="3.46131">
        <ele>961.3</ele>
        <time>2020-08-25T13:37:24.000Z</time>
      </trkpt>
      <trkpt lat="44.26378" lon="3.46131">
        <ele>961.3</ele>
        <time>2020-08-25T13:37:25.000Z</time>
      </trkpt>
      <trkpt lat="44.26373" lon="3.46131">
        <ele>961.3</ele>
        <time>2020-08-25T13:37:27.000Z</time>
      </trkpt>
      <trkpt lat="44.26369" lon="3.4613">
        <ele>961.4</ele>
        <time>2020-08-25T13:37:28.000Z</time>
      </trkpt>
      <trkpt lat="44.26366" lon="3.4613">
        <ele>961.4</ele>
        <time>2020-08-25T13:37:30.000Z</time>
      </trkpt>
      <trkpt lat="44.26361" lon="3.46128">
        <ele>961.5</ele>
        <time>2020-08-25T13:37:31.000Z</time>
      </trkpt>
      <trkpt lat="44.26356" lon="3.46127">
        <ele>961.7</ele>
        <time>2020-08-25T13:37:33.000Z</time>
      </trkpt>
      <trkpt lat="44.26353" lon="3.46126">
        <ele>961.8</ele>
        <time>2020-08-25T13:37:34.000Z</time>
      </trkpt>
      <trkpt lat="44.2635" lon="3.46125">
        <ele>961.9</ele>
        <time>2020-08-25T13:37:35.000Z</time>
      </trkpt>
      <trkpt lat="44.26345" lon="3.46125">
        <ele>962.1</ele>
        <time>2020-08-25T13:37:37.000Z</time>
      </trkpt>
      <trkpt lat="44.26343" lon="3.46125">
        <ele>962.1</ele>
        <time>2020-08-25T13:37:38.000Z</time>
      </trkpt>
      <trkpt lat="44.26341" lon="3.46125">
        <ele>962.2</ele>
        <time>2020-08-25T13:37:39.000Z</time>
      </trkpt>
      <trkpt lat="44.26339" lon="3.46126">
        <ele>962.5</ele>
        <time>2020-08-25T13:37:40.000Z</time>
      </trkpt>
      <trkpt lat="44.26335" lon="3.46127">
        <ele>962.7</ele>
        <time>2020-08-25T13:37:42.000Z</time>
      </trkpt>
      <trkpt lat="44.26333" lon="3.46129">
        <ele>962.8</ele>
        <time>2020-08-25T13:37:43.000Z</time>
      </trkpt>
      <trkpt lat="44.2633" lon="3.46134">
        <ele>963.1</ele>
        <time>2020-08-25T13:37:45.000Z</time>
      </trkpt>
      <trkpt lat="44.26329" lon="3.46136">
        <ele>963.2</ele>
        <time>2020-08-25T13:37:46.000Z</time>
      </trkpt>
      <trkpt lat="44.26326" lon="3.46138">
        <ele>963.3</ele>
        <time>2020-08-25T13:37:48.000Z</time>
      </trkpt>
      <trkpt lat="44.26321" lon="3.46138">
        <ele>963.5</ele>
        <time>2020-08-25T13:37:50.000Z</time>
      </trkpt>
      <trkpt lat="44.26319" lon="3.46138">
        <ele>963.6</ele>
        <time>2020-08-25T13:37:52.000Z</time>
      </trkpt>
      <trkpt lat="44.26317" lon="3.46138">
        <ele>963.7</ele>
        <time>2020-08-25T13:37:54.000Z</time>
      </trkpt>
      <trkpt lat="44.26316" lon="3.46137">
        <ele>963.7</ele>
        <time>2020-08-25T13:37:55.000Z</time>
      </trkpt>
      <trkpt lat="44.26314" lon="3.46136">
        <ele>963.8</ele>
        <time>2020-08-25T13:37:56.000Z</time>
      </trkpt>
      <trkpt lat="44.2631" lon="3.46135">
        <ele>963.9</ele>
        <time>2020-08-25T13:37:58.000Z</time>
      </trkpt>
      <trkpt lat="44.26307" lon="3.46133">
        <ele>963.9</ele>
        <time>2020-08-25T13:37:59.000Z</time>
      </trkpt>
      <trkpt lat="44.26302" lon="3.46132">
        <ele>964</ele>
        <time>2020-08-25T13:38:01.000Z</time>
      </trkpt>
      <trkpt lat="44.26298" lon="3.46131">
        <ele>963.9</ele>
        <time>2020-08-25T13:38:02.000Z</time>
      </trkpt>
      <trkpt lat="44.26293" lon="3.4613">
        <ele>963.8</ele>
        <time>2020-08-25T13:38:04.000Z</time>
      </trkpt>
      <trkpt lat="44.26288" lon="3.46129">
        <ele>963.7</ele>
        <time>2020-08-25T13:38:05.000Z</time>
      </trkpt>
      <trkpt lat="44.26285" lon="3.46128">
        <ele>963.6</ele>
        <time>2020-08-25T13:38:06.000Z</time>
      </trkpt>
      <trkpt lat="44.26281" lon="3.46127">
        <ele>963.5</ele>
        <time>2020-08-25T13:38:07.000Z</time>
      </trkpt>
      <trkpt lat="44.26278" lon="3.46126">
        <ele>963.4</ele>
        <time>2020-08-25T13:38:08.000Z</time>
      </trkpt>
      <trkpt lat="44.26273" lon="3.46125">
        <ele>963.3</ele>
        <time>2020-08-25T13:38:09.000Z</time>
      </trkpt>
      <trkpt lat="44.26269" lon="3.46123">
        <ele>963.3</ele>
        <time>2020-08-25T13:38:11.000Z</time>
      </trkpt>
      <trkpt lat="44.26265" lon="3.46121">
        <ele>963.2</ele>
        <time>2020-08-25T13:38:12.000Z</time>
      </trkpt>
      <trkpt lat="44.2626" lon="3.4612">
        <ele>963.2</ele>
        <time>2020-08-25T13:38:13.000Z</time>
      </trkpt>
      <trkpt lat="44.26254" lon="3.46119">
        <ele>963.1</ele>
        <time>2020-08-25T13:38:14.000Z</time>
      </trkpt>
      <trkpt lat="44.2625" lon="3.46118">
        <ele>963.1</ele>
        <time>2020-08-25T13:38:16.000Z</time>
      </trkpt>
      <trkpt lat="44.26245" lon="3.46118">
        <ele>963.1</ele>
        <time>2020-08-25T13:38:17.000Z</time>
      </trkpt>
      <trkpt lat="44.2624" lon="3.46117">
        <ele>963.1</ele>
        <time>2020-08-25T13:38:18.000Z</time>
      </trkpt>
      <trkpt lat="44.26236" lon="3.46117">
        <ele>963.1</ele>
        <time>2020-08-25T13:38:19.000Z</time>
      </trkpt>
      <trkpt lat="44.26231" lon="3.46117">
        <ele>963.2</ele>
        <time>2020-08-25T13:38:21.000Z</time>
      </trkpt>
      <trkpt lat="44.26226" lon="3.46117">
        <ele>963.3</ele>
        <time>2020-08-25T13:38:22.000Z</time>
      </trkpt>
      <trkpt lat="44.26221" lon="3.46117">
        <ele>963.4</ele>
        <time>2020-08-25T13:38:24.000Z</time>
      </trkpt>
      <trkpt lat="44.26215" lon="3.46117">
        <ele>963.6</ele>
        <time>2020-08-25T13:38:26.000Z</time>
      </trkpt>
      <trkpt lat="44.26211" lon="3.46117">
        <ele>963.7</ele>
        <time>2020-08-25T13:38:27.000Z</time>
      </trkpt>
      <trkpt lat="44.26205" lon="3.46117">
        <ele>963.9</ele>
        <time>2020-08-25T13:38:29.000Z</time>
      </trkpt>
      <trkpt lat="44.26199" lon="3.46117">
        <ele>964.1</ele>
        <time>2020-08-25T13:38:31.000Z</time>
      </trkpt>
      <trkpt lat="44.26194" lon="3.46116">
        <ele>964.3</ele>
        <time>2020-08-25T13:38:33.000Z</time>
      </trkpt>
      <trkpt lat="44.26187" lon="3.46116">
        <ele>964.6</ele>
        <time>2020-08-25T13:38:35.000Z</time>
      </trkpt>
      <trkpt lat="44.26184" lon="3.46116">
        <ele>964.7</ele>
        <time>2020-08-25T13:38:36.000Z</time>
      </trkpt>
      <trkpt lat="44.26181" lon="3.46116">
        <ele>964.8</ele>
        <time>2020-08-25T13:38:37.000Z</time>
      </trkpt>
      <trkpt lat="44.26176" lon="3.46117">
        <ele>965</ele>
        <time>2020-08-25T13:38:39.000Z</time>
      </trkpt>
      <trkpt lat="44.26173" lon="3.46117">
        <ele>965.1</ele>
        <time>2020-08-25T13:38:40.000Z</time>
      </trkpt>
      <trkpt lat="44.2617" lon="3.46116">
        <ele>965.2</ele>
        <time>2020-08-25T13:38:41.000Z</time>
      </trkpt>
      <trkpt lat="44.26166" lon="3.46116">
        <ele>965.4</ele>
        <time>2020-08-25T13:38:43.000Z</time>
      </trkpt>
      <trkpt lat="44.26163" lon="3.46116">
        <ele>965.5</ele>
        <time>2020-08-25T13:38:44.000Z</time>
      </trkpt>
      <trkpt lat="44.2616" lon="3.46116">
        <ele>965.7</ele>
        <time>2020-08-25T13:38:45.000Z</time>
      </trkpt>
      <trkpt lat="44.26157" lon="3.46116">
        <ele>965.8</ele>
        <time>2020-08-25T13:38:46.000Z</time>
      </trkpt>
      <trkpt lat="44.26153" lon="3.46116">
        <ele>966.1</ele>
        <time>2020-08-25T13:38:48.000Z</time>
      </trkpt>
      <trkpt lat="44.2615" lon="3.46116">
        <ele>966.3</ele>
        <time>2020-08-25T13:38:49.000Z</time>
      </trkpt>
      <trkpt lat="44.26148" lon="3.46117">
        <ele>966.5</ele>
        <time>2020-08-25T13:38:50.000Z</time>
      </trkpt>
      <trkpt lat="44.26144" lon="3.46118">
        <ele>966.8</ele>
        <time>2020-08-25T13:38:52.000Z</time>
      </trkpt>
      <trkpt lat="44.26141" lon="3.46119">
        <ele>967.1</ele>
        <time>2020-08-25T13:38:53.000Z</time>
      </trkpt>
      <trkpt lat="44.2614" lon="3.46121">
        <ele>967.2</ele>
        <time>2020-08-25T13:38:54.000Z</time>
      </trkpt>
      <trkpt lat="44.26137" lon="3.46123">
        <ele>967.5</ele>
        <time>2020-08-25T13:38:56.000Z</time>
      </trkpt>
      <trkpt lat="44.26136" lon="3.46124">
        <ele>967.6</ele>
        <time>2020-08-25T13:38:57.000Z</time>
      </trkpt>
      <trkpt lat="44.26134" lon="3.46125">
        <ele>967.8</ele>
        <time>2020-08-25T13:38:58.000Z</time>
      </trkpt>
      <trkpt lat="44.26133" lon="3.46126">
        <ele>967.9</ele>
        <time>2020-08-25T13:39:00.000Z</time>
      </trkpt>
      <trkpt lat="44.26132" lon="3.46127">
        <ele>968</ele>
        <time>2020-08-25T13:39:01.000Z</time>
      </trkpt>
      <trkpt lat="44.26129" lon="3.4613">
        <ele>968.3</ele>
        <time>2020-08-25T13:39:02.000Z</time>
      </trkpt>
      <trkpt lat="44.26128" lon="3.4613">
        <ele>968.4</ele>
        <time>2020-08-25T13:39:03.000Z</time>
      </trkpt>
      <trkpt lat="44.26127" lon="3.46131">
        <ele>968.5</ele>
        <time>2020-08-25T13:39:04.000Z</time>
      </trkpt>
      <trkpt lat="44.26124" lon="3.46131">
        <ele>968.8</ele>
        <time>2020-08-25T13:39:06.000Z</time>
      </trkpt>
      <trkpt lat="44.26122" lon="3.46133">
        <ele>968.9</ele>
        <time>2020-08-25T13:39:07.000Z</time>
      </trkpt>
      <trkpt lat="44.26121" lon="3.46134">
        <ele>969.1</ele>
        <time>2020-08-25T13:39:09.000Z</time>
      </trkpt>
      <trkpt lat="44.26119" lon="3.46135">
        <ele>969.2</ele>
        <time>2020-08-25T13:39:10.000Z</time>
      </trkpt>
      <trkpt lat="44.26118" lon="3.46136">
        <ele>969.4</ele>
        <time>2020-08-25T13:39:12.000Z</time>
      </trkpt>
      <trkpt lat="44.26116" lon="3.46138">
        <ele>969.6</ele>
        <time>2020-08-25T13:39:13.000Z</time>
      </trkpt>
      <trkpt lat="44.26115" lon="3.46139">
        <ele>969.7</ele>
        <time>2020-08-25T13:39:14.000Z</time>
      </trkpt>
      <trkpt lat="44.26112" lon="3.4614">
        <ele>970</ele>
        <time>2020-08-25T13:39:16.000Z</time>
      </trkpt>
      <trkpt lat="44.26111" lon="3.46141">
        <ele>970.2</ele>
        <time>2020-08-25T13:39:17.000Z</time>
      </trkpt>
      <trkpt lat="44.26109" lon="3.46142">
        <ele>970.3</ele>
        <time>2020-08-25T13:39:18.000Z</time>
      </trkpt>
      <trkpt lat="44.26108" lon="3.46144">
        <ele>970.5</ele>
        <time>2020-08-25T13:39:20.000Z</time>
      </trkpt>
      <trkpt lat="44.26106" lon="3.46144">
        <ele>970.7</ele>
        <time>2020-08-25T13:39:21.000Z</time>
      </trkpt>
      <trkpt lat="44.26105" lon="3.46145">
        <ele>970.9</ele>
        <time>2020-08-25T13:39:22.000Z</time>
      </trkpt>
      <trkpt lat="44.26103" lon="3.46146">
        <ele>971.1</ele>
        <time>2020-08-25T13:39:23.000Z</time>
      </trkpt>
      <trkpt lat="44.261" lon="3.46147">
        <ele>971.4</ele>
        <time>2020-08-25T13:39:25.000Z</time>
      </trkpt>
      <trkpt lat="44.26099" lon="3.46148">
        <ele>971.5</ele>
        <time>2020-08-25T13:39:26.000Z</time>
      </trkpt>
      <trkpt lat="44.26099" lon="3.46149">
        <ele>971.6</ele>
        <time>2020-08-25T13:39:27.000Z</time>
      </trkpt>
      <trkpt lat="44.26097" lon="3.4615">
        <ele>971.8</ele>
        <time>2020-08-25T13:39:28.000Z</time>
      </trkpt>
      <trkpt lat="44.26096" lon="3.4615">
        <ele>971.9</ele>
        <time>2020-08-25T13:39:30.000Z</time>
      </trkpt>
      <trkpt lat="44.26094" lon="3.46151">
        <ele>972.1</ele>
        <time>2020-08-25T13:39:31.000Z</time>
      </trkpt>
      <trkpt lat="44.26091" lon="3.46152">
        <ele>972.4</ele>
        <time>2020-08-25T13:39:32.000Z</time>
      </trkpt>
      <trkpt lat="44.2609" lon="3.46152">
        <ele>972.5</ele>
        <time>2020-08-25T13:39:33.000Z</time>
      </trkpt>
      <trkpt lat="44.26088" lon="3.46154">
        <ele>972.8</ele>
        <time>2020-08-25T13:39:35.000Z</time>
      </trkpt>
      <trkpt lat="44.26087" lon="3.46154">
        <ele>972.9</ele>
        <time>2020-08-25T13:39:36.000Z</time>
      </trkpt>
      <trkpt lat="44.26085" lon="3.46155">
        <ele>973.1</ele>
        <time>2020-08-25T13:39:37.000Z</time>
      </trkpt>
      <trkpt lat="44.26084" lon="3.46155">
        <ele>973.2</ele>
        <time>2020-08-25T13:39:39.000Z</time>
      </trkpt>
      <trkpt lat="44.26082" lon="3.46156">
        <ele>973.4</ele>
        <time>2020-08-25T13:39:40.000Z</time>
      </trkpt>
      <trkpt lat="44.26081" lon="3.46157">
        <ele>973.5</ele>
        <time>2020-08-25T13:39:42.000Z</time>
      </trkpt>
      <trkpt lat="44.26079" lon="3.46157">
        <ele>973.7</ele>
        <time>2020-08-25T13:39:43.000Z</time>
      </trkpt>
      <trkpt lat="44.26078" lon="3.46157">
        <ele>973.8</ele>
        <time>2020-08-25T13:39:45.000Z</time>
      </trkpt>
      <trkpt lat="44.26076" lon="3.46158">
        <ele>974</ele>
        <time>2020-08-25T13:39:46.000Z</time>
      </trkpt>
      <trkpt lat="44.26075" lon="3.46159">
        <ele>974.2</ele>
        <time>2020-08-25T13:39:47.000Z</time>
      </trkpt>
      <trkpt lat="44.26074" lon="3.46159">
        <ele>974.3</ele>
        <time>2020-08-25T13:39:48.000Z</time>
      </trkpt>
      <trkpt lat="44.26072" lon="3.46159">
        <ele>974.4</ele>
        <time>2020-08-25T13:39:49.000Z</time>
      </trkpt>
      <trkpt lat="44.26071" lon="3.4616">
        <ele>974.6</ele>
        <time>2020-08-25T13:39:50.000Z</time>
      </trkpt>
      <trkpt lat="44.26069" lon="3.46161">
        <ele>974.8</ele>
        <time>2020-08-25T13:39:52.000Z</time>
      </trkpt>
      <trkpt lat="44.26067" lon="3.46163">
        <ele>975</ele>
        <time>2020-08-25T13:39:54.000Z</time>
      </trkpt>
      <trkpt lat="44.26066" lon="3.46164">
        <ele>975.1</ele>
        <time>2020-08-25T13:39:55.000Z</time>
      </trkpt>
      <trkpt lat="44.26065" lon="3.46164">
        <ele>975.2</ele>
        <time>2020-08-25T13:39:56.000Z</time>
      </trkpt>
      <trkpt lat="44.26064" lon="3.46164">
        <ele>975.3</ele>
        <time>2020-08-25T13:39:58.000Z</time>
      </trkpt>
      <trkpt lat="44.26063" lon="3.46165">
        <ele>975.4</ele>
        <time>2020-08-25T13:39:59.000Z</time>
      </trkpt>
      <trkpt lat="44.26062" lon="3.46165">
        <ele>975.5</ele>
        <time>2020-08-25T13:40:01.000Z</time>
      </trkpt>
      <trkpt lat="44.26061" lon="3.46165">
        <ele>975.6</ele>
        <time>2020-08-25T13:40:02.000Z</time>
      </trkpt>
      <trkpt lat="44.2606" lon="3.46165">
        <ele>975.7</ele>
        <time>2020-08-25T13:40:03.000Z</time>
      </trkpt>
      <trkpt lat="44.26058" lon="3.46166">
        <ele>975.9</ele>
        <time>2020-08-25T13:40:05.000Z</time>
      </trkpt>
      <trkpt lat="44.26056" lon="3.46166">
        <ele>976.1</ele>
        <time>2020-08-25T13:40:07.000Z</time>
      </trkpt>
      <trkpt lat="44.26055" lon="3.46167">
        <ele>976.2</ele>
        <time>2020-08-25T13:40:08.000Z</time>
      </trkpt>
      <trkpt lat="44.26054" lon="3.46167">
        <ele>976.3</ele>
        <time>2020-08-25T13:40:09.000Z</time>
      </trkpt>
      <trkpt lat="44.26053" lon="3.46168">
        <ele>976.4</ele>
        <time>2020-08-25T13:40:11.000Z</time>
      </trkpt>
      <trkpt lat="44.26051" lon="3.46168">
        <ele>976.6</ele>
        <time>2020-08-25T13:40:12.000Z</time>
      </trkpt>
      <trkpt lat="44.2605" lon="3.46169">
        <ele>976.7</ele>
        <time>2020-08-25T13:40:13.000Z</time>
      </trkpt>
      <trkpt lat="44.26049" lon="3.46169">
        <ele>976.8</ele>
        <time>2020-08-25T13:40:15.000Z</time>
      </trkpt>
      <trkpt lat="44.26047" lon="3.46171">
        <ele>977</ele>
        <time>2020-08-25T13:40:16.000Z</time>
      </trkpt>
      <trkpt lat="44.26046" lon="3.46172">
        <ele>977.1</ele>
        <time>2020-08-25T13:40:17.000Z</time>
      </trkpt>
      <trkpt lat="44.26045" lon="3.46172">
        <ele>977.2</ele>
        <time>2020-08-25T13:40:18.000Z</time>
      </trkpt>
      <trkpt lat="44.26044" lon="3.46173">
        <ele>977.3</ele>
        <time>2020-08-25T13:40:19.000Z</time>
      </trkpt>
      <trkpt lat="44.26043" lon="3.46173">
        <ele>977.4</ele>
        <time>2020-08-25T13:40:20.000Z</time>
      </trkpt>
      <trkpt lat="44.26042" lon="3.46173">
        <ele>977.6</ele>
        <time>2020-08-25T13:40:22.000Z</time>
      </trkpt>
      <trkpt lat="44.26041" lon="3.46174">
        <ele>977.6</ele>
        <time>2020-08-25T13:40:23.000Z</time>
      </trkpt>
      <trkpt lat="44.26039" lon="3.46175">
        <ele>977.8</ele>
        <time>2020-08-25T13:40:25.000Z</time>
      </trkpt>
      <trkpt lat="44.26038" lon="3.46175">
        <ele>977.9</ele>
        <time>2020-08-25T13:40:26.000Z</time>
      </trkpt>
      <trkpt lat="44.26038" lon="3.46175">
        <ele>978</ele>
        <time>2020-08-25T13:40:27.000Z</time>
      </trkpt>
      <trkpt lat="44.26037" lon="3.46176">
        <ele>978.1</ele>
        <time>2020-08-25T13:40:29.000Z</time>
      </trkpt>
      <trkpt lat="44.26036" lon="3.46177">
        <ele>978.2</ele>
        <time>2020-08-25T13:40:30.000Z</time>
      </trkpt>
      <trkpt lat="44.26034" lon="3.46178">
        <ele>978.4</ele>
        <time>2020-08-25T13:40:31.000Z</time>
      </trkpt>
      <trkpt lat="44.26033" lon="3.46179">
        <ele>978.5</ele>
        <time>2020-08-25T13:40:32.000Z</time>
      </trkpt>
      <trkpt lat="44.26032" lon="3.46179">
        <ele>978.5</ele>
        <time>2020-08-25T13:40:33.000Z</time>
      </trkpt>
      <trkpt lat="44.26032" lon="3.46179">
        <ele>978.6</ele>
        <time>2020-08-25T13:40:35.000Z</time>
      </trkpt>
      <trkpt lat="44.26031" lon="3.4618">
        <ele>978.7</ele>
        <time>2020-08-25T13:40:36.000Z</time>
      </trkpt>
      <trkpt lat="44.2603" lon="3.46181">
        <ele>978.8</ele>
        <time>2020-08-25T13:40:37.000Z</time>
      </trkpt>
      <trkpt lat="44.26029" lon="3.46181">
        <ele>978.9</ele>
        <time>2020-08-25T13:40:38.000Z</time>
      </trkpt>
      <trkpt lat="44.26028" lon="3.46182">
        <ele>979</ele>
        <time>2020-08-25T13:40:40.000Z</time>
      </trkpt>
      <trkpt lat="44.26028" lon="3.46183">
        <ele>979.1</ele>
        <time>2020-08-25T13:40:41.000Z</time>
      </trkpt>
      <trkpt lat="44.26027" lon="3.46184">
        <ele>979.2</ele>
        <time>2020-08-25T13:40:43.000Z</time>
      </trkpt>
      <trkpt lat="44.26026" lon="3.46186">
        <ele>979.4</ele>
        <time>2020-08-25T13:40:44.000Z</time>
      </trkpt>
      <trkpt lat="44.26025" lon="3.46186">
        <ele>979.5</ele>
        <time>2020-08-25T13:40:45.000Z</time>
      </trkpt>
      <trkpt lat="44.26024" lon="3.46187">
        <ele>979.6</ele>
        <time>2020-08-25T13:40:47.000Z</time>
      </trkpt>
      <trkpt lat="44.26023" lon="3.46188">
        <ele>979.7</ele>
        <time>2020-08-25T13:40:48.000Z</time>
      </trkpt>
      <trkpt lat="44.26021" lon="3.46189">
        <ele>979.9</ele>
        <time>2020-08-25T13:40:50.000Z</time>
      </trkpt>
      <trkpt lat="44.2602" lon="3.46189">
        <ele>980</ele>
        <time>2020-08-25T13:40:51.000Z</time>
      </trkpt>
      <trkpt lat="44.26019" lon="3.4619">
        <ele>980.1</ele>
        <time>2020-08-25T13:40:52.000Z</time>
      </trkpt>
      <trkpt lat="44.26018" lon="3.4619">
        <ele>980.3</ele>
        <time>2020-08-25T13:40:54.000Z</time>
      </trkpt>
      <trkpt lat="44.26017" lon="3.46191">
        <ele>980.5</ele>
        <time>2020-08-25T13:40:55.000Z</time>
      </trkpt>
      <trkpt lat="44.26015" lon="3.46192">
        <ele>980.6</ele>
        <time>2020-08-25T13:40:57.000Z</time>
      </trkpt>
      <trkpt lat="44.26014" lon="3.46192">
        <ele>980.8</ele>
        <time>2020-08-25T13:40:58.000Z</time>
      </trkpt>
      <trkpt lat="44.26012" lon="3.46193">
        <ele>981</ele>
        <time>2020-08-25T13:41:00.000Z</time>
      </trkpt>
      <trkpt lat="44.26011" lon="3.46193">
        <ele>981.1</ele>
        <time>2020-08-25T13:41:01.000Z</time>
      </trkpt>
      <trkpt lat="44.2601" lon="3.46194">
        <ele>981.3</ele>
        <time>2020-08-25T13:41:02.000Z</time>
      </trkpt>
      <trkpt lat="44.26009" lon="3.46195">
        <ele>981.4</ele>
        <time>2020-08-25T13:41:04.000Z</time>
      </trkpt>
      <trkpt lat="44.26008" lon="3.46196">
        <ele>981.6</ele>
        <time>2020-08-25T13:41:05.000Z</time>
      </trkpt>
      <trkpt lat="44.26007" lon="3.46197">
        <ele>981.7</ele>
        <time>2020-08-25T13:41:06.000Z</time>
      </trkpt>
      <trkpt lat="44.26006" lon="3.46198">
        <ele>981.9</ele>
        <time>2020-08-25T13:41:07.000Z</time>
      </trkpt>
      <trkpt lat="44.26004" lon="3.46199">
        <ele>982.2</ele>
        <time>2020-08-25T13:41:09.000Z</time>
      </trkpt>
      <trkpt lat="44.26003" lon="3.462">
        <ele>982.3</ele>
        <time>2020-08-25T13:41:10.000Z</time>
      </trkpt>
      <trkpt lat="44.26002" lon="3.462">
        <ele>982.4</ele>
        <time>2020-08-25T13:41:11.000Z</time>
      </trkpt>
      <trkpt lat="44.26001" lon="3.46201">
        <ele>982.5</ele>
        <time>2020-08-25T13:41:12.000Z</time>
      </trkpt>
      <trkpt lat="44.26001" lon="3.46202">
        <ele>982.6</ele>
        <time>2020-08-25T13:41:14.000Z</time>
      </trkpt>
      <trkpt lat="44.25999" lon="3.46203">
        <ele>982.8</ele>
        <time>2020-08-25T13:41:15.000Z</time>
      </trkpt>
      <trkpt lat="44.25999" lon="3.46204">
        <ele>982.9</ele>
        <time>2020-08-25T13:41:16.000Z</time>
      </trkpt>
      <trkpt lat="44.25998" lon="3.46204">
        <ele>983.1</ele>
        <time>2020-08-25T13:41:17.000Z</time>
      </trkpt>
      <trkpt lat="44.25997" lon="3.46205">
        <ele>983.2</ele>
        <time>2020-08-25T13:41:19.000Z</time>
      </trkpt>
      <trkpt lat="44.25995" lon="3.46206">
        <ele>983.4</ele>
        <time>2020-08-25T13:41:20.000Z</time>
      </trkpt>
      <trkpt lat="44.25993" lon="3.46208">
        <ele>983.7</ele>
        <time>2020-08-25T13:41:22.000Z</time>
      </trkpt>
      <trkpt lat="44.25992" lon="3.46208">
        <ele>983.8</ele>
        <time>2020-08-25T13:41:23.000Z</time>
      </trkpt>
      <trkpt lat="44.25991" lon="3.46209">
        <ele>984</ele>
        <time>2020-08-25T13:41:24.000Z</time>
      </trkpt>
      <trkpt lat="44.25991" lon="3.4621">
        <ele>984.1</ele>
        <time>2020-08-25T13:41:25.000Z</time>
      </trkpt>
      <trkpt lat="44.2599" lon="3.4621">
        <ele>984.2</ele>
        <time>2020-08-25T13:41:26.000Z</time>
      </trkpt>
      <trkpt lat="44.25988" lon="3.46213">
        <ele>984.5</ele>
        <time>2020-08-25T13:41:28.000Z</time>
      </trkpt>
      <trkpt lat="44.25988" lon="3.46214">
        <ele>984.6</ele>
        <time>2020-08-25T13:41:29.000Z</time>
      </trkpt>
      <trkpt lat="44.25987" lon="3.46214">
        <ele>984.7</ele>
        <time>2020-08-25T13:41:30.000Z</time>
      </trkpt>
      <trkpt lat="44.25986" lon="3.46216">
        <ele>984.9</ele>
        <time>2020-08-25T13:41:32.000Z</time>
      </trkpt>
      <trkpt lat="44.25985" lon="3.46216">
        <ele>985.1</ele>
        <time>2020-08-25T13:41:33.000Z</time>
      </trkpt>
      <trkpt lat="44.25984" lon="3.46217">
        <ele>985.2</ele>
        <time>2020-08-25T13:41:34.000Z</time>
      </trkpt>
      <trkpt lat="44.25983" lon="3.46217">
        <ele>985.3</ele>
        <time>2020-08-25T13:41:35.000Z</time>
      </trkpt>
      <trkpt lat="44.25982" lon="3.46218">
        <ele>985.5</ele>
        <time>2020-08-25T13:41:36.000Z</time>
      </trkpt>
      <trkpt lat="44.25981" lon="3.46219">
        <ele>985.6</ele>
        <time>2020-08-25T13:41:37.000Z</time>
      </trkpt>
      <trkpt lat="44.2598" lon="3.4622">
        <ele>985.8</ele>
        <time>2020-08-25T13:41:39.000Z</time>
      </trkpt>
      <trkpt lat="44.25979" lon="3.46221">
        <ele>985.9</ele>
        <time>2020-08-25T13:41:40.000Z</time>
      </trkpt>
      <trkpt lat="44.25978" lon="3.46222">
        <ele>986.1</ele>
        <time>2020-08-25T13:41:42.000Z</time>
      </trkpt>
      <trkpt lat="44.25976" lon="3.46222">
        <ele>986.3</ele>
        <time>2020-08-25T13:41:43.000Z</time>
      </trkpt>
      <trkpt lat="44.25975" lon="3.46223">
        <ele>986.5</ele>
        <time>2020-08-25T13:41:44.000Z</time>
      </trkpt>
      <trkpt lat="44.25974" lon="3.46223">
        <ele>986.6</ele>
        <time>2020-08-25T13:41:45.000Z</time>
      </trkpt>
      <trkpt lat="44.25973" lon="3.46224">
        <ele>986.7</ele>
        <time>2020-08-25T13:41:47.000Z</time>
      </trkpt>
      <trkpt lat="44.25972" lon="3.46224">
        <ele>986.8</ele>
        <time>2020-08-25T13:41:48.000Z</time>
      </trkpt>
      <trkpt lat="44.25971" lon="3.46225">
        <ele>986.9</ele>
        <time>2020-08-25T13:41:49.000Z</time>
      </trkpt>
      <trkpt lat="44.2597" lon="3.46225">
        <ele>987</ele>
        <time>2020-08-25T13:41:51.000Z</time>
      </trkpt>
      <trkpt lat="44.25969" lon="3.46225">
        <ele>987.1</ele>
        <time>2020-08-25T13:41:52.000Z</time>
      </trkpt>
      <trkpt lat="44.25969" lon="3.46226">
        <ele>987.2</ele>
        <time>2020-08-25T13:41:54.000Z</time>
      </trkpt>
      <trkpt lat="44.25967" lon="3.46226">
        <ele>987.4</ele>
        <time>2020-08-25T13:41:55.000Z</time>
      </trkpt>
      <trkpt lat="44.25966" lon="3.46226">
        <ele>987.5</ele>
        <time>2020-08-25T13:41:56.000Z</time>
      </trkpt>
      <trkpt lat="44.25965" lon="3.46227">
        <ele>987.6</ele>
        <time>2020-08-25T13:41:57.000Z</time>
      </trkpt>
      <trkpt lat="44.25963" lon="3.46227">
        <ele>987.8</ele>
        <time>2020-08-25T13:41:58.000Z</time>
      </trkpt>
      <trkpt lat="44.25962" lon="3.46228">
        <ele>987.9</ele>
        <time>2020-08-25T13:41:59.000Z</time>
      </trkpt>
      <trkpt lat="44.25961" lon="3.46227">
        <ele>988</ele>
        <time>2020-08-25T13:42:01.000Z</time>
      </trkpt>
      <trkpt lat="44.25961" lon="3.46227">
        <ele>988</ele>
        <time>2020-08-25T13:42:02.000Z</time>
      </trkpt>
      <trkpt lat="44.25961" lon="3.46227">
        <ele>988.1</ele>
        <time>2020-08-25T13:42:04.000Z</time>
      </trkpt>
      <trkpt lat="44.25961" lon="3.46227">
        <ele>988.1</ele>
        <time>2020-08-25T13:42:05.000Z</time>
      </trkpt>
      <trkpt lat="44.25962" lon="3.46227">
        <ele>988.2</ele>
        <time>2020-08-25T13:42:07.000Z</time>
      </trkpt>
      <trkpt lat="44.25962" lon="3.46227">
        <ele>988.2</ele>
        <time>2020-08-25T13:42:09.000Z</time>
      </trkpt>
      <trkpt lat="44.25963" lon="3.46227">
        <ele>988.3</ele>
        <time>2020-08-25T13:42:11.000Z</time>
      </trkpt>
      <trkpt lat="44.2596" lon="3.46228">
        <ele>988.5</ele>
        <time>2020-08-25T13:42:24.000Z</time>
      </trkpt>
      <trkpt lat="44.25959" lon="3.46229">
        <ele>988.6</ele>
        <time>2020-08-25T13:42:26.000Z</time>
      </trkpt>
      <trkpt lat="44.25959" lon="3.46229">
        <ele>988.6</ele>
        <time>2020-08-25T13:42:27.000Z</time>
      </trkpt>
      <trkpt lat="44.25958" lon="3.46228">
        <ele>988.5</ele>
        <time>2020-08-25T13:42:28.000Z</time>
      </trkpt>
      <trkpt lat="44.25956" lon="3.46227">
        <ele>988.3</ele>
        <time>2020-08-25T13:42:30.000Z</time>
      </trkpt>
      <trkpt lat="44.25952" lon="3.46227">
        <ele>988</ele>
        <time>2020-08-25T13:42:31.000Z</time>
      </trkpt>
      <trkpt lat="44.2595" lon="3.46226">
        <ele>987.8</ele>
        <time>2020-08-25T13:42:32.000Z</time>
      </trkpt>
      <trkpt lat="44.25946" lon="3.46224">
        <ele>987.4</ele>
        <time>2020-08-25T13:42:34.000Z</time>
      </trkpt>
      <trkpt lat="44.25943" lon="3.46222">
        <ele>986.9</ele>
        <time>2020-08-25T13:42:35.000Z</time>
      </trkpt>
      <trkpt lat="44.25916" lon="3.46218">
        <ele>984.2</ele>
        <time>2020-08-25T13:42:37.000Z</time>
      </trkpt>
      <trkpt lat="44.25907" lon="3.46218">
        <ele>983.6</ele>
        <time>2020-08-25T13:42:38.000Z</time>
      </trkpt>
      <trkpt lat="44.25898" lon="3.46219">
        <ele>982.9</ele>
        <time>2020-08-25T13:42:39.000Z</time>
      </trkpt>
      <trkpt lat="44.2589" lon="3.4622">
        <ele>982.5</ele>
        <time>2020-08-25T13:42:40.000Z</time>
      </trkpt>
      <trkpt lat="44.25875" lon="3.46219">
        <ele>981.8</ele>
        <time>2020-08-25T13:42:42.000Z</time>
      </trkpt>
      <trkpt lat="44.25867" lon="3.46218">
        <ele>981.5</ele>
        <time>2020-08-25T13:42:43.000Z</time>
      </trkpt>
      <trkpt lat="44.25853" lon="3.46215">
        <ele>980.9</ele>
        <time>2020-08-25T13:42:45.000Z</time>
      </trkpt>
      <trkpt lat="44.25846" lon="3.46213">
        <ele>980.7</ele>
        <time>2020-08-25T13:42:46.000Z</time>
      </trkpt>
      <trkpt lat="44.25835" lon="3.46211">
        <ele>980.3</ele>
        <time>2020-08-25T13:42:48.000Z</time>
      </trkpt>
      <trkpt lat="44.25823" lon="3.46207">
        <ele>979.9</ele>
        <time>2020-08-25T13:42:50.000Z</time>
      </trkpt>
      <trkpt lat="44.25816" lon="3.46206">
        <ele>979.9</ele>
        <time>2020-08-25T13:42:51.000Z</time>
      </trkpt>
      <trkpt lat="44.25804" lon="3.46204">
        <ele>979.8</ele>
        <time>2020-08-25T13:42:53.000Z</time>
      </trkpt>
      <trkpt lat="44.25798" lon="3.46203">
        <ele>979.9</ele>
        <time>2020-08-25T13:42:54.000Z</time>
      </trkpt>
      <trkpt lat="44.25792" lon="3.46202">
        <ele>980</ele>
        <time>2020-08-25T13:42:55.000Z</time>
      </trkpt>
      <trkpt lat="44.25782" lon="3.46201">
        <ele>980.2</ele>
        <time>2020-08-25T13:42:57.000Z</time>
      </trkpt>
      <trkpt lat="44.25775" lon="3.46201">
        <ele>980.3</ele>
        <time>2020-08-25T13:42:59.000Z</time>
      </trkpt>
      <trkpt lat="44.25769" lon="3.462">
        <ele>980.4</ele>
        <time>2020-08-25T13:43:01.000Z</time>
      </trkpt>
      <trkpt lat="44.25764" lon="3.462">
        <ele>980.5</ele>
        <time>2020-08-25T13:43:03.000Z</time>
      </trkpt>
      <trkpt lat="44.25761" lon="3.462">
        <ele>980.5</ele>
        <time>2020-08-25T13:43:04.000Z</time>
      </trkpt>
      <trkpt lat="44.2576" lon="3.462">
        <ele>980.6</ele>
        <time>2020-08-25T13:43:05.000Z</time>
      </trkpt>
      <trkpt lat="44.2576" lon="3.46203">
        <ele>980.6</ele>
        <time>2020-08-25T13:43:07.000Z</time>
      </trkpt>
      <trkpt lat="44.25762" lon="3.46205">
        <ele>980.6</ele>
        <time>2020-08-25T13:43:08.000Z</time>
      </trkpt>
      <trkpt lat="44.25761" lon="3.46206">
        <ele>980.6</ele>
        <time>2020-08-25T13:43:09.000Z</time>
      </trkpt>
      <trkpt lat="44.25759" lon="3.46205">
        <ele>980.7</ele>
        <time>2020-08-25T13:43:10.000Z</time>
      </trkpt>
      <trkpt lat="44.25754" lon="3.46205">
        <ele>980.7</ele>
        <time>2020-08-25T13:43:12.000Z</time>
      </trkpt>
      <trkpt lat="44.25751" lon="3.46203">
        <ele>980.8</ele>
        <time>2020-08-25T13:43:13.000Z</time>
      </trkpt>
      <trkpt lat="44.25748" lon="3.46202">
        <ele>980.8</ele>
        <time>2020-08-25T13:43:14.000Z</time>
      </trkpt>
      <trkpt lat="44.25742" lon="3.462">
        <ele>980.8</ele>
        <time>2020-08-25T13:43:16.000Z</time>
      </trkpt>
      <trkpt lat="44.25734" lon="3.462">
        <ele>980.7</ele>
        <time>2020-08-25T13:43:17.000Z</time>
      </trkpt>
      <trkpt lat="44.25727" lon="3.462">
        <ele>980.8</ele>
        <time>2020-08-25T13:43:18.000Z</time>
      </trkpt>
      <trkpt lat="44.25721" lon="3.462">
        <ele>980.9</ele>
        <time>2020-08-25T13:43:19.000Z</time>
      </trkpt>
      <trkpt lat="44.25712" lon="3.46201">
        <ele>981.1</ele>
        <time>2020-08-25T13:43:21.000Z</time>
      </trkpt>
      <trkpt lat="44.25706" lon="3.46202">
        <ele>981.2</ele>
        <time>2020-08-25T13:43:23.000Z</time>
      </trkpt>
      <trkpt lat="44.25701" lon="3.46203">
        <ele>981.3</ele>
        <time>2020-08-25T13:43:24.000Z</time>
      </trkpt>
      <trkpt lat="44.25695" lon="3.46204">
        <ele>981.4</ele>
        <time>2020-08-25T13:43:26.000Z</time>
      </trkpt>
      <trkpt lat="44.2569" lon="3.46205">
        <ele>981.5</ele>
        <time>2020-08-25T13:43:27.000Z</time>
      </trkpt>
      <trkpt lat="44.25686" lon="3.46206">
        <ele>981.6</ele>
        <time>2020-08-25T13:43:28.000Z</time>
      </trkpt>
      <trkpt lat="44.25682" lon="3.46207">
        <ele>981.8</ele>
        <time>2020-08-25T13:43:30.000Z</time>
      </trkpt>
      <trkpt lat="44.25677" lon="3.46207">
        <ele>981.9</ele>
        <time>2020-08-25T13:43:31.000Z</time>
      </trkpt>
      <trkpt lat="44.25672" lon="3.46208">
        <ele>982.1</ele>
        <time>2020-08-25T13:43:33.000Z</time>
      </trkpt>
      <trkpt lat="44.25668" lon="3.46209">
        <ele>982.3</ele>
        <time>2020-08-25T13:43:34.000Z</time>
      </trkpt>
      <trkpt lat="44.25666" lon="3.4621">
        <ele>982.3</ele>
        <time>2020-08-25T13:43:35.000Z</time>
      </trkpt>
      <trkpt lat="44.25661" lon="3.46209">
        <ele>982.5</ele>
        <time>2020-08-25T13:43:37.000Z</time>
      </trkpt>
      <trkpt lat="44.25659" lon="3.46209">
        <ele>982.6</ele>
        <time>2020-08-25T13:43:38.000Z</time>
      </trkpt>
      <trkpt lat="44.25654" lon="3.46209">
        <ele>982.8</ele>
        <time>2020-08-25T13:43:40.000Z</time>
      </trkpt>
      <trkpt lat="44.25651" lon="3.46208">
        <ele>982.9</ele>
        <time>2020-08-25T13:43:41.000Z</time>
      </trkpt>
      <trkpt lat="44.2565" lon="3.46208">
        <ele>983</ele>
        <time>2020-08-25T13:43:42.000Z</time>
      </trkpt>
      <trkpt lat="44.25645" lon="3.46207">
        <ele>983.1</ele>
        <time>2020-08-25T13:43:44.000Z</time>
      </trkpt>
      <trkpt lat="44.25641" lon="3.46206">
        <ele>983.2</ele>
        <time>2020-08-25T13:43:45.000Z</time>
      </trkpt>
      <trkpt lat="44.2564" lon="3.46206">
        <ele>983.2</ele>
        <time>2020-08-25T13:43:46.000Z</time>
      </trkpt>
      <trkpt lat="44.25637" lon="3.46205">
        <ele>983.3</ele>
        <time>2020-08-25T13:43:47.000Z</time>
      </trkpt>
      <trkpt lat="44.25632" lon="3.46204">
        <ele>983.4</ele>
        <time>2020-08-25T13:43:49.000Z</time>
      </trkpt>
      <trkpt lat="44.25627" lon="3.46203">
        <ele>983.6</ele>
        <time>2020-08-25T13:43:51.000Z</time>
      </trkpt>
      <trkpt lat="44.25624" lon="3.46203">
        <ele>983.8</ele>
        <time>2020-08-25T13:43:52.000Z</time>
      </trkpt>
      <trkpt lat="44.25622" lon="3.46203">
        <ele>983.8</ele>
        <time>2020-08-25T13:43:53.000Z</time>
      </trkpt>
      <trkpt lat="44.25617" lon="3.46202">
        <ele>984</ele>
        <time>2020-08-25T13:43:55.000Z</time>
      </trkpt>
      <trkpt lat="44.25612" lon="3.46201">
        <ele>984.2</ele>
        <time>2020-08-25T13:43:57.000Z</time>
      </trkpt>
      <trkpt lat="44.2561" lon="3.462">
        <ele>984.3</ele>
        <time>2020-08-25T13:43:58.000Z</time>
      </trkpt>
      <trkpt lat="44.25606" lon="3.46199">
        <ele>984.4</ele>
        <time>2020-08-25T13:44:00.000Z</time>
      </trkpt>
      <trkpt lat="44.25602" lon="3.46199">
        <ele>984.6</ele>
        <time>2020-08-25T13:44:01.000Z</time>
      </trkpt>
      <trkpt lat="44.25601" lon="3.46198">
        <ele>984.6</ele>
        <time>2020-08-25T13:44:02.000Z</time>
      </trkpt>
      <trkpt lat="44.25597" lon="3.46198">
        <ele>984.8</ele>
        <time>2020-08-25T13:44:04.000Z</time>
      </trkpt>
      <trkpt lat="44.25595" lon="3.46198">
        <ele>984.9</ele>
        <time>2020-08-25T13:44:05.000Z</time>
      </trkpt>
      <trkpt lat="44.25592" lon="3.46197">
        <ele>985</ele>
        <time>2020-08-25T13:44:07.000Z</time>
      </trkpt>
      <trkpt lat="44.25589" lon="3.46196">
        <ele>985.1</ele>
        <time>2020-08-25T13:44:08.000Z</time>
      </trkpt>
      <trkpt lat="44.25587" lon="3.46196">
        <ele>985.2</ele>
        <time>2020-08-25T13:44:09.000Z</time>
      </trkpt>
      <trkpt lat="44.25583" lon="3.46195">
        <ele>985.4</ele>
        <time>2020-08-25T13:44:11.000Z</time>
      </trkpt>
      <trkpt lat="44.2558" lon="3.46194">
        <ele>985.5</ele>
        <time>2020-08-25T13:44:12.000Z</time>
      </trkpt>
      <trkpt lat="44.25579" lon="3.46193">
        <ele>985.6</ele>
        <time>2020-08-25T13:44:13.000Z</time>
      </trkpt>
      <trkpt lat="44.25576" lon="3.46192">
        <ele>985.7</ele>
        <time>2020-08-25T13:44:14.000Z</time>
      </trkpt>
      <trkpt lat="44.25572" lon="3.4619">
        <ele>985.9</ele>
        <time>2020-08-25T13:44:16.000Z</time>
      </trkpt>
      <trkpt lat="44.2557" lon="3.46189">
        <ele>986</ele>
        <time>2020-08-25T13:44:17.000Z</time>
      </trkpt>
      <trkpt lat="44.25565" lon="3.46187">
        <ele>986.1</ele>
        <time>2020-08-25T13:44:19.000Z</time>
      </trkpt>
      <trkpt lat="44.25564" lon="3.46186">
        <ele>986.2</ele>
        <time>2020-08-25T13:44:20.000Z</time>
      </trkpt>
      <trkpt lat="44.25563" lon="3.46185">
        <ele>986.2</ele>
        <time>2020-08-25T13:44:21.000Z</time>
      </trkpt>
      <trkpt lat="44.25559" lon="3.46184">
        <ele>986.4</ele>
        <time>2020-08-25T13:44:22.000Z</time>
      </trkpt>
      <trkpt lat="44.25556" lon="3.46182">
        <ele>986.5</ele>
        <time>2020-08-25T13:44:24.000Z</time>
      </trkpt>
      <trkpt lat="44.25553" lon="3.46181">
        <ele>986.6</ele>
        <time>2020-08-25T13:44:25.000Z</time>
      </trkpt>
      <trkpt lat="44.25549" lon="3.46178">
        <ele>986.7</ele>
        <time>2020-08-25T13:44:26.000Z</time>
      </trkpt>
      <trkpt lat="44.25548" lon="3.46178">
        <ele>986.8</ele>
        <time>2020-08-25T13:44:27.000Z</time>
      </trkpt>
      <trkpt lat="44.25546" lon="3.46175">
        <ele>986.9</ele>
        <time>2020-08-25T13:44:29.000Z</time>
      </trkpt>
      <trkpt lat="44.25542" lon="3.46173">
        <ele>987.1</ele>
        <time>2020-08-25T13:44:30.000Z</time>
      </trkpt>
      <trkpt lat="44.25538" lon="3.46171">
        <ele>987.4</ele>
        <time>2020-08-25T13:44:32.000Z</time>
      </trkpt>
      <trkpt lat="44.25537" lon="3.4617">
        <ele>987.4</ele>
        <time>2020-08-25T13:44:33.000Z</time>
      </trkpt>
      <trkpt lat="44.25535" lon="3.4617">
        <ele>987.5</ele>
        <time>2020-08-25T13:44:34.000Z</time>
      </trkpt>
      <trkpt lat="44.25533" lon="3.46168">
        <ele>987.7</ele>
        <time>2020-08-25T13:44:35.000Z</time>
      </trkpt>
      <trkpt lat="44.25532" lon="3.46168">
        <ele>987.8</ele>
        <time>2020-08-25T13:44:36.000Z</time>
      </trkpt>
      <trkpt lat="44.25529" lon="3.46166">
        <ele>988</ele>
        <time>2020-08-25T13:44:38.000Z</time>
      </trkpt>
      <trkpt lat="44.25528" lon="3.46165">
        <ele>988.1</ele>
        <time>2020-08-25T13:44:39.000Z</time>
      </trkpt>
      <trkpt lat="44.25526" lon="3.46163">
        <ele>988.3</ele>
        <time>2020-08-25T13:44:40.000Z</time>
      </trkpt>
      <trkpt lat="44.25525" lon="3.46162">
        <ele>988.3</ele>
        <time>2020-08-25T13:44:41.000Z</time>
      </trkpt>
      <trkpt lat="44.25522" lon="3.46161">
        <ele>988.5</ele>
        <time>2020-08-25T13:44:43.000Z</time>
      </trkpt>
      <trkpt lat="44.2552" lon="3.46159">
        <ele>988.7</ele>
        <time>2020-08-25T13:44:44.000Z</time>
      </trkpt>
      <trkpt lat="44.25517" lon="3.46159">
        <ele>988.8</ele>
        <time>2020-08-25T13:44:46.000Z</time>
      </trkpt>
      <trkpt lat="44.25514" lon="3.46158">
        <ele>988.9</ele>
        <time>2020-08-25T13:44:47.000Z</time>
      </trkpt>
      <trkpt lat="44.25513" lon="3.46157">
        <ele>989</ele>
        <time>2020-08-25T13:44:48.000Z</time>
      </trkpt>
      <trkpt lat="44.2551" lon="3.46157">
        <ele>989</ele>
        <time>2020-08-25T13:44:49.000Z</time>
      </trkpt>
      <trkpt lat="44.25507" lon="3.46156">
        <ele>989.1</ele>
        <time>2020-08-25T13:44:51.000Z</time>
      </trkpt>
      <trkpt lat="44.25506" lon="3.46155">
        <ele>989.2</ele>
        <time>2020-08-25T13:44:52.000Z</time>
      </trkpt>
      <trkpt lat="44.25503" lon="3.46153">
        <ele>989.3</ele>
        <time>2020-08-25T13:44:54.000Z</time>
      </trkpt>
      <trkpt lat="44.255" lon="3.46153">
        <ele>989.3</ele>
        <time>2020-08-25T13:44:55.000Z</time>
      </trkpt>
      <trkpt lat="44.25499" lon="3.46152">
        <ele>989.3</ele>
        <time>2020-08-25T13:44:56.000Z</time>
      </trkpt>
      <trkpt lat="44.25496" lon="3.46152">
        <ele>989.4</ele>
        <time>2020-08-25T13:44:58.000Z</time>
      </trkpt>
      <trkpt lat="44.25494" lon="3.46153">
        <ele>989.4</ele>
        <time>2020-08-25T13:44:59.000Z</time>
      </trkpt>
      <trkpt lat="44.25493" lon="3.46152">
        <ele>989.4</ele>
        <time>2020-08-25T13:45:00.000Z</time>
      </trkpt>
      <trkpt lat="44.2549" lon="3.46153">
        <ele>989.4</ele>
        <time>2020-08-25T13:45:02.000Z</time>
      </trkpt>
      <trkpt lat="44.25489" lon="3.46152">
        <ele>989.4</ele>
        <time>2020-08-25T13:45:03.000Z</time>
      </trkpt>
      <trkpt lat="44.25486" lon="3.46152">
        <ele>989.4</ele>
        <time>2020-08-25T13:45:04.000Z</time>
      </trkpt>
      <trkpt lat="44.25485" lon="3.46152">
        <ele>989.4</ele>
        <time>2020-08-25T13:45:05.000Z</time>
      </trkpt>
      <trkpt lat="44.25483" lon="3.46153">
        <ele>989.4</ele>
        <time>2020-08-25T13:45:06.000Z</time>
      </trkpt>
      <trkpt lat="44.2548" lon="3.46152">
        <ele>989.4</ele>
        <time>2020-08-25T13:45:08.000Z</time>
      </trkpt>
      <trkpt lat="44.25478" lon="3.46152">
        <ele>989.4</ele>
        <time>2020-08-25T13:45:09.000Z</time>
      </trkpt>
      <trkpt lat="44.25474" lon="3.46152">
        <ele>989.4</ele>
        <time>2020-08-25T13:45:11.000Z</time>
      </trkpt>
      <trkpt lat="44.25471" lon="3.46151">
        <ele>989.3</ele>
        <time>2020-08-25T13:45:12.000Z</time>
      </trkpt>
      <trkpt lat="44.25468" lon="3.46152">
        <ele>989.3</ele>
        <time>2020-08-25T13:45:13.000Z</time>
      </trkpt>
      <trkpt lat="44.25465" lon="3.46152">
        <ele>989.3</ele>
        <time>2020-08-25T13:45:14.000Z</time>
      </trkpt>
      <trkpt lat="44.25462" lon="3.46152">
        <ele>989.3</ele>
        <time>2020-08-25T13:45:15.000Z</time>
      </trkpt>
      <trkpt lat="44.25457" lon="3.46151">
        <ele>989.3</ele>
        <time>2020-08-25T13:45:17.000Z</time>
      </trkpt>
      <trkpt lat="44.25455" lon="3.46151">
        <ele>989.3</ele>
        <time>2020-08-25T13:45:18.000Z</time>
      </trkpt>
      <trkpt lat="44.25451" lon="3.4615">
        <ele>989.3</ele>
        <time>2020-08-25T13:45:20.000Z</time>
      </trkpt>
      <trkpt lat="44.25447" lon="3.46149">
        <ele>989.3</ele>
        <time>2020-08-25T13:45:21.000Z</time>
      </trkpt>
      <trkpt lat="44.25445" lon="3.46148">
        <ele>989.3</ele>
        <time>2020-08-25T13:45:22.000Z</time>
      </trkpt>
      <trkpt lat="44.25441" lon="3.46147">
        <ele>989.3</ele>
        <time>2020-08-25T13:45:24.000Z</time>
      </trkpt>
      <trkpt lat="44.25438" lon="3.46148">
        <ele>989.3</ele>
        <time>2020-08-25T13:45:25.000Z</time>
      </trkpt>
      <trkpt lat="44.25435" lon="3.46148">
        <ele>989.3</ele>
        <time>2020-08-25T13:45:26.000Z</time>
      </trkpt>
      <trkpt lat="44.2543" lon="3.46149">
        <ele>989.4</ele>
        <time>2020-08-25T13:45:28.000Z</time>
      </trkpt>
      <trkpt lat="44.25427" lon="3.4615">
        <ele>989.4</ele>
        <time>2020-08-25T13:45:29.000Z</time>
      </trkpt>
      <trkpt lat="44.25423" lon="3.46151">
        <ele>989.5</ele>
        <time>2020-08-25T13:45:30.000Z</time>
      </trkpt>
      <trkpt lat="44.25418" lon="3.46152">
        <ele>989.7</ele>
        <time>2020-08-25T13:45:32.000Z</time>
      </trkpt>
      <trkpt lat="44.25414" lon="3.46153">
        <ele>989.8</ele>
        <time>2020-08-25T13:45:33.000Z</time>
      </trkpt>
      <trkpt lat="44.25411" lon="3.46154">
        <ele>989.9</ele>
        <time>2020-08-25T13:45:35.000Z</time>
      </trkpt>
      <trkpt lat="44.25407" lon="3.46155">
        <ele>990</ele>
        <time>2020-08-25T13:45:36.000Z</time>
      </trkpt>
      <trkpt lat="44.25404" lon="3.46156">
        <ele>990</ele>
        <time>2020-08-25T13:45:37.000Z</time>
      </trkpt>
      <trkpt lat="44.254" lon="3.46159">
        <ele>990.1</ele>
        <time>2020-08-25T13:45:39.000Z</time>
      </trkpt>
      <trkpt lat="44.25396" lon="3.46161">
        <ele>990.2</ele>
        <time>2020-08-25T13:45:40.000Z</time>
      </trkpt>
      <trkpt lat="44.25392" lon="3.46162">
        <ele>990.2</ele>
        <time>2020-08-25T13:45:42.000Z</time>
      </trkpt>
      <trkpt lat="44.25389" lon="3.46163">
        <ele>990.3</ele>
        <time>2020-08-25T13:45:43.000Z</time>
      </trkpt>
      <trkpt lat="44.25385" lon="3.46165">
        <ele>990.3</ele>
        <time>2020-08-25T13:45:45.000Z</time>
      </trkpt>
      <trkpt lat="44.25381" lon="3.46166">
        <ele>990.2</ele>
        <time>2020-08-25T13:45:46.000Z</time>
      </trkpt>
      <trkpt lat="44.25378" lon="3.46167">
        <ele>990.2</ele>
        <time>2020-08-25T13:45:47.000Z</time>
      </trkpt>
      <trkpt lat="44.25376" lon="3.46169">
        <ele>990.2</ele>
        <time>2020-08-25T13:45:48.000Z</time>
      </trkpt>
      <trkpt lat="44.25372" lon="3.46172">
        <ele>990.1</ele>
        <time>2020-08-25T13:45:50.000Z</time>
      </trkpt>
      <trkpt lat="44.25369" lon="3.46174">
        <ele>990</ele>
        <time>2020-08-25T13:45:51.000Z</time>
      </trkpt>
      <trkpt lat="44.25364" lon="3.46176">
        <ele>990</ele>
        <time>2020-08-25T13:45:53.000Z</time>
      </trkpt>
      <trkpt lat="44.25358" lon="3.46179">
        <ele>989.9</ele>
        <time>2020-08-25T13:45:55.000Z</time>
      </trkpt>
      <trkpt lat="44.25354" lon="3.46182">
        <ele>990</ele>
        <time>2020-08-25T13:45:56.000Z</time>
      </trkpt>
      <trkpt lat="44.2535" lon="3.46184">
        <ele>990</ele>
        <time>2020-08-25T13:45:57.000Z</time>
      </trkpt>
      <trkpt lat="44.25347" lon="3.46187">
        <ele>990.1</ele>
        <time>2020-08-25T13:45:59.000Z</time>
      </trkpt>
      <trkpt lat="44.25343" lon="3.4619">
        <ele>990.2</ele>
        <time>2020-08-25T13:46:00.000Z</time>
      </trkpt>
      <trkpt lat="44.25341" lon="3.46193">
        <ele>990.3</ele>
        <time>2020-08-25T13:46:01.000Z</time>
      </trkpt>
      <trkpt lat="44.25338" lon="3.46195">
        <ele>990.3</ele>
        <time>2020-08-25T13:46:02.000Z</time>
      </trkpt>
      <trkpt lat="44.25335" lon="3.46198">
        <ele>990.4</ele>
        <time>2020-08-25T13:46:03.000Z</time>
      </trkpt>
      <trkpt lat="44.2533" lon="3.462">
        <ele>990.5</ele>
        <time>2020-08-25T13:46:05.000Z</time>
      </trkpt>
      <trkpt lat="44.25325" lon="3.46202">
        <ele>990.6</ele>
        <time>2020-08-25T13:46:07.000Z</time>
      </trkpt>
      <trkpt lat="44.25321" lon="3.46204">
        <ele>990.6</ele>
        <time>2020-08-25T13:46:08.000Z</time>
      </trkpt>
      <trkpt lat="44.25318" lon="3.46207">
        <ele>990.7</ele>
        <time>2020-08-25T13:46:09.000Z</time>
      </trkpt>
      <trkpt lat="44.25313" lon="3.46211">
        <ele>990.8</ele>
        <time>2020-08-25T13:46:11.000Z</time>
      </trkpt>
      <trkpt lat="44.25309" lon="3.46214">
        <ele>990.9</ele>
        <time>2020-08-25T13:46:13.000Z</time>
      </trkpt>
      <trkpt lat="44.25305" lon="3.46217">
        <ele>991</ele>
        <time>2020-08-25T13:46:14.000Z</time>
      </trkpt>
      <trkpt lat="44.25303" lon="3.46218">
        <ele>991.1</ele>
        <time>2020-08-25T13:46:15.000Z</time>
      </trkpt>
      <trkpt lat="44.25301" lon="3.4622">
        <ele>991.1</ele>
        <time>2020-08-25T13:46:16.000Z</time>
      </trkpt>
      <trkpt lat="44.25297" lon="3.46224">
        <ele>991.3</ele>
        <time>2020-08-25T13:46:18.000Z</time>
      </trkpt>
      <trkpt lat="44.25294" lon="3.46226">
        <ele>991.3</ele>
        <time>2020-08-25T13:46:19.000Z</time>
      </trkpt>
      <trkpt lat="44.25291" lon="3.46229">
        <ele>991.4</ele>
        <time>2020-08-25T13:46:20.000Z</time>
      </trkpt>
      <trkpt lat="44.25289" lon="3.46231">
        <ele>991.5</ele>
        <time>2020-08-25T13:46:21.000Z</time>
      </trkpt>
      <trkpt lat="44.25285" lon="3.46234">
        <ele>991.6</ele>
        <time>2020-08-25T13:46:22.000Z</time>
      </trkpt>
      <trkpt lat="44.25282" lon="3.46237">
        <ele>991.7</ele>
        <time>2020-08-25T13:46:23.000Z</time>
      </trkpt>
      <trkpt lat="44.25279" lon="3.4624">
        <ele>991.7</ele>
        <time>2020-08-25T13:46:25.000Z</time>
      </trkpt>
      <trkpt lat="44.25276" lon="3.46242">
        <ele>991.8</ele>
        <time>2020-08-25T13:46:26.000Z</time>
      </trkpt>
      <trkpt lat="44.25274" lon="3.46245">
        <ele>991.8</ele>
        <time>2020-08-25T13:46:27.000Z</time>
      </trkpt>
      <trkpt lat="44.25272" lon="3.46248">
        <ele>991.8</ele>
        <time>2020-08-25T13:46:28.000Z</time>
      </trkpt>
      <trkpt lat="44.25269" lon="3.46251">
        <ele>991.7</ele>
        <time>2020-08-25T13:46:29.000Z</time>
      </trkpt>
      <trkpt lat="44.25267" lon="3.46254">
        <ele>991.6</ele>
        <time>2020-08-25T13:46:30.000Z</time>
      </trkpt>
      <trkpt lat="44.25264" lon="3.46256">
        <ele>991.5</ele>
        <time>2020-08-25T13:46:32.000Z</time>
      </trkpt>
      <trkpt lat="44.2526" lon="3.46259">
        <ele>991.3</ele>
        <time>2020-08-25T13:46:33.000Z</time>
      </trkpt>
      <trkpt lat="44.25257" lon="3.46261">
        <ele>991.4</ele>
        <time>2020-08-25T13:46:34.000Z</time>
      </trkpt>
      <trkpt lat="44.25254" lon="3.46263">
        <ele>991.4</ele>
        <time>2020-08-25T13:46:35.000Z</time>
      </trkpt>
      <trkpt lat="44.25252" lon="3.46266">
        <ele>991.5</ele>
        <time>2020-08-25T13:46:36.000Z</time>
      </trkpt>
      <trkpt lat="44.25249" lon="3.46269">
        <ele>991.6</ele>
        <time>2020-08-25T13:46:37.000Z</time>
      </trkpt>
      <trkpt lat="44.25247" lon="3.46272">
        <ele>991.6</ele>
        <time>2020-08-25T13:46:38.000Z</time>
      </trkpt>
      <trkpt lat="44.25243" lon="3.46276">
        <ele>991.7</ele>
        <time>2020-08-25T13:46:40.000Z</time>
      </trkpt>
      <trkpt lat="44.25241" lon="3.46279">
        <ele>991.8</ele>
        <time>2020-08-25T13:46:41.000Z</time>
      </trkpt>
      <trkpt lat="44.25239" lon="3.46282">
        <ele>991.8</ele>
        <time>2020-08-25T13:46:42.000Z</time>
      </trkpt>
      <trkpt lat="44.25237" lon="3.46285">
        <ele>991.9</ele>
        <time>2020-08-25T13:46:44.000Z</time>
      </trkpt>
      <trkpt lat="44.25235" lon="3.46288">
        <ele>992</ele>
        <time>2020-08-25T13:46:45.000Z</time>
      </trkpt>
      <trkpt lat="44.25233" lon="3.46292">
        <ele>992.2</ele>
        <time>2020-08-25T13:46:46.000Z</time>
      </trkpt>
      <trkpt lat="44.25232" lon="3.46294">
        <ele>992.2</ele>
        <time>2020-08-25T13:46:47.000Z</time>
      </trkpt>
      <trkpt lat="44.25229" lon="3.46298">
        <ele>992.4</ele>
        <time>2020-08-25T13:46:49.000Z</time>
      </trkpt>
      <trkpt lat="44.25228" lon="3.463">
        <ele>992.5</ele>
        <time>2020-08-25T13:46:50.000Z</time>
      </trkpt>
      <trkpt lat="44.25224" lon="3.46303">
        <ele>992.7</ele>
        <time>2020-08-25T13:46:52.000Z</time>
      </trkpt>
      <trkpt lat="44.25219" lon="3.46304">
        <ele>992.8</ele>
        <time>2020-08-25T13:46:53.000Z</time>
      </trkpt>
      <trkpt lat="44.25216" lon="3.46303">
        <ele>992.9</ele>
        <time>2020-08-25T13:46:54.000Z</time>
      </trkpt>
      <trkpt lat="44.25212" lon="3.46302">
        <ele>993</ele>
        <time>2020-08-25T13:46:56.000Z</time>
      </trkpt>
      <trkpt lat="44.25208" lon="3.463">
        <ele>993.1</ele>
        <time>2020-08-25T13:46:57.000Z</time>
      </trkpt>
      <trkpt lat="44.25205" lon="3.463">
        <ele>993.1</ele>
        <time>2020-08-25T13:46:58.000Z</time>
      </trkpt>
      <trkpt lat="44.25202" lon="3.463">
        <ele>993.1</ele>
        <time>2020-08-25T13:46:59.000Z</time>
      </trkpt>
      <trkpt lat="44.25198" lon="3.463">
        <ele>993.1</ele>
        <time>2020-08-25T13:47:00.000Z</time>
      </trkpt>
      <trkpt lat="44.25197" lon="3.463">
        <ele>993.1</ele>
        <time>2020-08-25T13:47:01.000Z</time>
      </trkpt>
      <trkpt lat="44.25194" lon="3.46301">
        <ele>993.1</ele>
        <time>2020-08-25T13:47:02.000Z</time>
      </trkpt>
      <trkpt lat="44.25191" lon="3.46303">
        <ele>993.1</ele>
        <time>2020-08-25T13:47:04.000Z</time>
      </trkpt>
      <trkpt lat="44.25188" lon="3.46304">
        <ele>993.1</ele>
        <time>2020-08-25T13:47:05.000Z</time>
      </trkpt>
      <trkpt lat="44.25185" lon="3.46306">
        <ele>993.1</ele>
        <time>2020-08-25T13:47:06.000Z</time>
      </trkpt>
      <trkpt lat="44.25185" lon="3.46306">
        <ele>993.1</ele>
        <time>2020-08-25T13:47:07.000Z</time>
      </trkpt>
      <trkpt lat="44.25182" lon="3.46306">
        <ele>993.1</ele>
        <time>2020-08-25T13:47:09.000Z</time>
      </trkpt>
      <trkpt lat="44.25182" lon="3.46306">
        <ele>993.1</ele>
        <time>2020-08-25T13:47:11.000Z</time>
      </trkpt>
      <trkpt lat="44.25183" lon="3.46306">
        <ele>993.1</ele>
        <time>2020-08-25T13:47:13.000Z</time>
      </trkpt>
      <trkpt lat="44.25183" lon="3.46306">
        <ele>993.1</ele>
        <time>2020-08-25T13:47:14.000Z</time>
      </trkpt>
      <trkpt lat="44.25183" lon="3.46305">
        <ele>993.1</ele>
        <time>2020-08-25T13:47:16.000Z</time>
      </trkpt>
      <trkpt lat="44.25183" lon="3.46305">
        <ele>993.1</ele>
        <time>2020-08-25T13:47:18.000Z</time>
      </trkpt>
      <trkpt lat="44.25183" lon="3.46306">
        <ele>993.1</ele>
        <time>2020-08-25T13:47:19.000Z</time>
      </trkpt>
      <trkpt lat="44.25179" lon="3.4631">
        <ele>993.2</ele>
        <time>2020-08-25T13:50:53.000Z</time>
      </trkpt>
      <trkpt lat="44.25178" lon="3.46311">
        <ele>993.2</ele>
        <time>2020-08-25T13:50:55.000Z</time>
      </trkpt>
      <trkpt lat="44.25178" lon="3.46311">
        <ele>993.2</ele>
        <time>2020-08-25T13:50:56.000Z</time>
      </trkpt>
      <trkpt lat="44.25178" lon="3.46312">
        <ele>993.2</ele>
        <time>2020-08-25T13:50:58.000Z</time>
      </trkpt>
      <trkpt lat="44.25177" lon="3.46312">
        <ele>993.2</ele>
        <time>2020-08-25T13:51:00.000Z</time>
      </trkpt>
      <trkpt lat="44.25177" lon="3.46312">
        <ele>993.3</ele>
        <time>2020-08-25T13:51:02.000Z</time>
      </trkpt>
      <trkpt lat="44.25177" lon="3.46311">
        <ele>993.3</ele>
        <time>2020-08-25T13:51:03.000Z</time>
      </trkpt>
      <trkpt lat="44.25177" lon="3.4631">
        <ele>993.3</ele>
        <time>2020-08-25T13:51:04.000Z</time>
      </trkpt>
      <trkpt lat="44.25176" lon="3.4631">
        <ele>993.4</ele>
        <time>2020-08-25T13:51:06.000Z</time>
      </trkpt>
      <trkpt lat="44.25175" lon="3.46311">
        <ele>993.4</ele>
        <time>2020-08-25T13:51:07.000Z</time>
      </trkpt>
      <trkpt lat="44.25174" lon="3.46312">
        <ele>993.5</ele>
        <time>2020-08-25T13:51:09.000Z</time>
      </trkpt>
      <trkpt lat="44.25173" lon="3.46312">
        <ele>993.5</ele>
        <time>2020-08-25T13:51:10.000Z</time>
      </trkpt>
      <trkpt lat="44.25172" lon="3.46314">
        <ele>993.6</ele>
        <time>2020-08-25T13:51:12.000Z</time>
      </trkpt>
      <trkpt lat="44.2517" lon="3.46315">
        <ele>993.6</ele>
        <time>2020-08-25T13:51:14.000Z</time>
      </trkpt>
      <trkpt lat="44.25169" lon="3.46316">
        <ele>993.7</ele>
        <time>2020-08-25T13:51:15.000Z</time>
      </trkpt>
      <trkpt lat="44.25167" lon="3.46317">
        <ele>993.8</ele>
        <time>2020-08-25T13:51:17.000Z</time>
      </trkpt>
      <trkpt lat="44.25166" lon="3.46318">
        <ele>993.9</ele>
        <time>2020-08-25T13:51:18.000Z</time>
      </trkpt>
      <trkpt lat="44.25162" lon="3.4632">
        <ele>994.1</ele>
        <time>2020-08-25T13:51:21.000Z</time>
      </trkpt>
      <trkpt lat="44.25161" lon="3.4632">
        <ele>994.2</ele>
        <time>2020-08-25T13:51:22.000Z</time>
      </trkpt>
      <trkpt lat="44.25159" lon="3.46321">
        <ele>994.3</ele>
        <time>2020-08-25T13:51:23.000Z</time>
      </trkpt>
      <trkpt lat="44.25158" lon="3.46322">
        <ele>994.4</ele>
        <time>2020-08-25T13:51:24.000Z</time>
      </trkpt>
      <trkpt lat="44.25156" lon="3.46322">
        <ele>994.5</ele>
        <time>2020-08-25T13:51:26.000Z</time>
      </trkpt>
      <trkpt lat="44.25154" lon="3.46323">
        <ele>994.7</ele>
        <time>2020-08-25T13:51:27.000Z</time>
      </trkpt>
      <trkpt lat="44.25152" lon="3.46324">
        <ele>994.8</ele>
        <time>2020-08-25T13:51:29.000Z</time>
      </trkpt>
      <trkpt lat="44.25151" lon="3.46324">
        <ele>994.9</ele>
        <time>2020-08-25T13:51:30.000Z</time>
      </trkpt>
      <trkpt lat="44.2515" lon="3.46325">
        <ele>995</ele>
        <time>2020-08-25T13:51:31.000Z</time>
      </trkpt>
      <trkpt lat="44.25149" lon="3.46326">
        <ele>995.1</ele>
        <time>2020-08-25T13:51:32.000Z</time>
      </trkpt>
      <trkpt lat="44.25147" lon="3.46327">
        <ele>995.2</ele>
        <time>2020-08-25T13:51:33.000Z</time>
      </trkpt>
      <trkpt lat="44.25146" lon="3.46327">
        <ele>995.3</ele>
        <time>2020-08-25T13:51:35.000Z</time>
      </trkpt>
      <trkpt lat="44.25145" lon="3.46327">
        <ele>995.3</ele>
        <time>2020-08-25T13:51:36.000Z</time>
      </trkpt>
      <trkpt lat="44.25143" lon="3.46328">
        <ele>995.5</ele>
        <time>2020-08-25T13:51:37.000Z</time>
      </trkpt>
      <trkpt lat="44.25142" lon="3.46328">
        <ele>995.5</ele>
        <time>2020-08-25T13:51:38.000Z</time>
      </trkpt>
      <trkpt lat="44.25142" lon="3.46328">
        <ele>995.6</ele>
        <time>2020-08-25T13:51:40.000Z</time>
      </trkpt>
      <trkpt lat="44.25141" lon="3.46328">
        <ele>995.6</ele>
        <time>2020-08-25T13:51:41.000Z</time>
      </trkpt>
      <trkpt lat="44.2514" lon="3.46329">
        <ele>995.7</ele>
        <time>2020-08-25T13:51:42.000Z</time>
      </trkpt>
      <trkpt lat="44.25139" lon="3.46329">
        <ele>995.7</ele>
        <time>2020-08-25T13:51:44.000Z</time>
      </trkpt>
      <trkpt lat="44.25139" lon="3.46329">
        <ele>995.8</ele>
        <time>2020-08-25T13:51:45.000Z</time>
      </trkpt>
      <trkpt lat="44.25137" lon="3.4633">
        <ele>995.9</ele>
        <time>2020-08-25T13:51:46.000Z</time>
      </trkpt>
      <trkpt lat="44.25136" lon="3.46331">
        <ele>995.9</ele>
        <time>2020-08-25T13:51:47.000Z</time>
      </trkpt>
      <trkpt lat="44.25134" lon="3.46331">
        <ele>996</ele>
        <time>2020-08-25T13:51:49.000Z</time>
      </trkpt>
      <trkpt lat="44.25133" lon="3.46331">
        <ele>996.1</ele>
        <time>2020-08-25T13:51:50.000Z</time>
      </trkpt>
      <trkpt lat="44.25131" lon="3.46331">
        <ele>996.2</ele>
        <time>2020-08-25T13:51:52.000Z</time>
      </trkpt>
      <trkpt lat="44.2513" lon="3.46332">
        <ele>996.3</ele>
        <time>2020-08-25T13:51:53.000Z</time>
      </trkpt>
      <trkpt lat="44.25129" lon="3.46332">
        <ele>996.4</ele>
        <time>2020-08-25T13:51:55.000Z</time>
      </trkpt>
      <trkpt lat="44.25128" lon="3.46333">
        <ele>996.4</ele>
        <time>2020-08-25T13:51:56.000Z</time>
      </trkpt>
      <trkpt lat="44.25128" lon="3.46333">
        <ele>996.5</ele>
        <time>2020-08-25T13:51:57.000Z</time>
      </trkpt>
      <trkpt lat="44.25126" lon="3.46334">
        <ele>996.6</ele>
        <time>2020-08-25T13:51:58.000Z</time>
      </trkpt>
      <trkpt lat="44.25125" lon="3.46335">
        <ele>996.7</ele>
        <time>2020-08-25T13:52:00.000Z</time>
      </trkpt>
      <trkpt lat="44.25124" lon="3.46335">
        <ele>996.8</ele>
        <time>2020-08-25T13:52:02.000Z</time>
      </trkpt>
      <trkpt lat="44.25123" lon="3.46336">
        <ele>996.8</ele>
        <time>2020-08-25T13:52:04.000Z</time>
      </trkpt>
      <trkpt lat="44.25122" lon="3.46336">
        <ele>996.9</ele>
        <time>2020-08-25T13:52:05.000Z</time>
      </trkpt>
      <trkpt lat="44.25121" lon="3.46337">
        <ele>997</ele>
        <time>2020-08-25T13:52:06.000Z</time>
      </trkpt>
      <trkpt lat="44.2512" lon="3.46337">
        <ele>997</ele>
        <time>2020-08-25T13:52:07.000Z</time>
      </trkpt>
      <trkpt lat="44.25119" lon="3.46338">
        <ele>997.1</ele>
        <time>2020-08-25T13:52:09.000Z</time>
      </trkpt>
      <trkpt lat="44.25118" lon="3.46339">
        <ele>997.2</ele>
        <time>2020-08-25T13:52:10.000Z</time>
      </trkpt>
      <trkpt lat="44.25116" lon="3.4634">
        <ele>997.3</ele>
        <time>2020-08-25T13:52:11.000Z</time>
      </trkpt>
      <trkpt lat="44.25115" lon="3.46341">
        <ele>997.4</ele>
        <time>2020-08-25T13:52:12.000Z</time>
      </trkpt>
      <trkpt lat="44.25114" lon="3.46342">
        <ele>997.5</ele>
        <time>2020-08-25T13:52:13.000Z</time>
      </trkpt>
      <trkpt lat="44.25113" lon="3.46342">
        <ele>997.6</ele>
        <time>2020-08-25T13:52:14.000Z</time>
      </trkpt>
      <trkpt lat="44.25111" lon="3.46342">
        <ele>997.8</ele>
        <time>2020-08-25T13:52:16.000Z</time>
      </trkpt>
      <trkpt lat="44.2511" lon="3.46342">
        <ele>997.9</ele>
        <time>2020-08-25T13:52:18.000Z</time>
      </trkpt>
      <trkpt lat="44.25109" lon="3.46343">
        <ele>998</ele>
        <time>2020-08-25T13:52:19.000Z</time>
      </trkpt>
      <trkpt lat="44.25108" lon="3.46343">
        <ele>998</ele>
        <time>2020-08-25T13:52:20.000Z</time>
      </trkpt>
      <trkpt lat="44.25107" lon="3.46343">
        <ele>998.1</ele>
        <time>2020-08-25T13:52:21.000Z</time>
      </trkpt>
      <trkpt lat="44.25105" lon="3.46344">
        <ele>998.3</ele>
        <time>2020-08-25T13:52:23.000Z</time>
      </trkpt>
      <trkpt lat="44.25104" lon="3.46344">
        <ele>998.4</ele>
        <time>2020-08-25T13:52:24.000Z</time>
      </trkpt>
      <trkpt lat="44.25103" lon="3.46344">
        <ele>998.5</ele>
        <time>2020-08-25T13:52:26.000Z</time>
      </trkpt>
      <trkpt lat="44.25102" lon="3.46345">
        <ele>998.6</ele>
        <time>2020-08-25T13:52:27.000Z</time>
      </trkpt>
      <trkpt lat="44.25101" lon="3.46346">
        <ele>998.7</ele>
        <time>2020-08-25T13:52:28.000Z</time>
      </trkpt>
      <trkpt lat="44.251" lon="3.46347">
        <ele>998.8</ele>
        <time>2020-08-25T13:52:29.000Z</time>
      </trkpt>
      <trkpt lat="44.25099" lon="3.46347">
        <ele>998.9</ele>
        <time>2020-08-25T13:52:31.000Z</time>
      </trkpt>
      <trkpt lat="44.25098" lon="3.46347">
        <ele>999</ele>
        <time>2020-08-25T13:52:32.000Z</time>
      </trkpt>
      <trkpt lat="44.25097" lon="3.46348">
        <ele>999.1</ele>
        <time>2020-08-25T13:52:33.000Z</time>
      </trkpt>
      <trkpt lat="44.25095" lon="3.46348">
        <ele>999.3</ele>
        <time>2020-08-25T13:52:35.000Z</time>
      </trkpt>
      <trkpt lat="44.25094" lon="3.46349">
        <ele>999.5</ele>
        <time>2020-08-25T13:52:36.000Z</time>
      </trkpt>
      <trkpt lat="44.25093" lon="3.4635">
        <ele>999.6</ele>
        <time>2020-08-25T13:52:37.000Z</time>
      </trkpt>
      <trkpt lat="44.25091" lon="3.4635">
        <ele>999.7</ele>
        <time>2020-08-25T13:52:39.000Z</time>
      </trkpt>
      <trkpt lat="44.2509" lon="3.4635">
        <ele>999.8</ele>
        <time>2020-08-25T13:52:40.000Z</time>
      </trkpt>
      <trkpt lat="44.25088" lon="3.46351">
        <ele>1000.1</ele>
        <time>2020-08-25T13:52:42.000Z</time>
      </trkpt>
      <trkpt lat="44.25087" lon="3.46352">
        <ele>1000.2</ele>
        <time>2020-08-25T13:52:43.000Z</time>
      </trkpt>
      <trkpt lat="44.25086" lon="3.46352">
        <ele>1000.3</ele>
        <time>2020-08-25T13:52:44.000Z</time>
      </trkpt>
      <trkpt lat="44.25085" lon="3.46352">
        <ele>1000.4</ele>
        <time>2020-08-25T13:52:45.000Z</time>
      </trkpt>
      <trkpt lat="44.25084" lon="3.46353">
        <ele>1000.5</ele>
        <time>2020-08-25T13:52:46.000Z</time>
      </trkpt>
      <trkpt lat="44.25082" lon="3.46353">
        <ele>1000.7</ele>
        <time>2020-08-25T13:52:48.000Z</time>
      </trkpt>
      <trkpt lat="44.25081" lon="3.46353">
        <ele>1000.8</ele>
        <time>2020-08-25T13:52:49.000Z</time>
      </trkpt>
      <trkpt lat="44.2508" lon="3.46354">
        <ele>1000.9</ele>
        <time>2020-08-25T13:52:50.000Z</time>
      </trkpt>
      <trkpt lat="44.25079" lon="3.46354">
        <ele>1001</ele>
        <time>2020-08-25T13:52:52.000Z</time>
      </trkpt>
      <trkpt lat="44.25078" lon="3.46355">
        <ele>1001.1</ele>
        <time>2020-08-25T13:52:53.000Z</time>
      </trkpt>
      <trkpt lat="44.25076" lon="3.46355">
        <ele>1001.3</ele>
        <time>2020-08-25T13:52:54.000Z</time>
      </trkpt>
      <trkpt lat="44.25075" lon="3.46355">
        <ele>1001.4</ele>
        <time>2020-08-25T13:52:56.000Z</time>
      </trkpt>
      <trkpt lat="44.25074" lon="3.46356">
        <ele>1001.5</ele>
        <time>2020-08-25T13:52:57.000Z</time>
      </trkpt>
      <trkpt lat="44.25072" lon="3.46357">
        <ele>1001.7</ele>
        <time>2020-08-25T13:52:59.000Z</time>
      </trkpt>
      <trkpt lat="44.25071" lon="3.46358">
        <ele>1001.8</ele>
        <time>2020-08-25T13:53:00.000Z</time>
      </trkpt>
      <trkpt lat="44.2507" lon="3.46359">
        <ele>1001.9</ele>
        <time>2020-08-25T13:53:01.000Z</time>
      </trkpt>
      <trkpt lat="44.25068" lon="3.46359">
        <ele>1002.1</ele>
        <time>2020-08-25T13:53:02.000Z</time>
      </trkpt>
      <trkpt lat="44.25067" lon="3.46359">
        <ele>1002.2</ele>
        <time>2020-08-25T13:53:03.000Z</time>
      </trkpt>
      <trkpt lat="44.25067" lon="3.4636">
        <ele>1002.3</ele>
        <time>2020-08-25T13:53:04.000Z</time>
      </trkpt>
      <trkpt lat="44.25066" lon="3.4636">
        <ele>1002.4</ele>
        <time>2020-08-25T13:53:06.000Z</time>
      </trkpt>
      <trkpt lat="44.25065" lon="3.4636">
        <ele>1002.5</ele>
        <time>2020-08-25T13:53:07.000Z</time>
      </trkpt>
      <trkpt lat="44.25064" lon="3.4636">
        <ele>1002.5</ele>
        <time>2020-08-25T13:53:09.000Z</time>
      </trkpt>
      <trkpt lat="44.25063" lon="3.46361">
        <ele>1002.6</ele>
        <time>2020-08-25T13:53:10.000Z</time>
      </trkpt>
      <trkpt lat="44.25062" lon="3.46361">
        <ele>1002.7</ele>
        <time>2020-08-25T13:53:11.000Z</time>
      </trkpt>
      <trkpt lat="44.25062" lon="3.46362">
        <ele>1002.8</ele>
        <time>2020-08-25T13:53:12.000Z</time>
      </trkpt>
      <trkpt lat="44.2506" lon="3.46363">
        <ele>1003</ele>
        <time>2020-08-25T13:53:14.000Z</time>
      </trkpt>
      <trkpt lat="44.2506" lon="3.46363">
        <ele>1003</ele>
        <time>2020-08-25T13:53:15.000Z</time>
      </trkpt>
      <trkpt lat="44.25059" lon="3.46363">
        <ele>1003.1</ele>
        <time>2020-08-25T13:53:16.000Z</time>
      </trkpt>
      <trkpt lat="44.25058" lon="3.46364">
        <ele>1003.2</ele>
        <time>2020-08-25T13:53:18.000Z</time>
      </trkpt>
      <trkpt lat="44.25057" lon="3.46364">
        <ele>1003.3</ele>
        <time>2020-08-25T13:53:19.000Z</time>
      </trkpt>
      <trkpt lat="44.25057" lon="3.46364">
        <ele>1003.3</ele>
        <time>2020-08-25T13:53:20.000Z</time>
      </trkpt>
      <trkpt lat="44.25058" lon="3.46364">
        <ele>1003.4</ele>
        <time>2020-08-25T13:53:22.000Z</time>
      </trkpt>
      <trkpt lat="44.25058" lon="3.46363">
        <ele>1003.4</ele>
        <time>2020-08-25T13:53:23.000Z</time>
      </trkpt>
      <trkpt lat="44.25058" lon="3.46363">
        <ele>1003.5</ele>
        <time>2020-08-25T13:53:25.000Z</time>
      </trkpt>
      <trkpt lat="44.25058" lon="3.46363">
        <ele>1003.5</ele>
        <time>2020-08-25T13:53:27.000Z</time>
      </trkpt>
      <trkpt lat="44.25058" lon="3.46363">
        <ele>1003.5</ele>
        <time>2020-08-25T13:53:29.000Z</time>
      </trkpt>
      <trkpt lat="44.25059" lon="3.46363">
        <ele>1003.6</ele>
        <time>2020-08-25T13:53:30.000Z</time>
      </trkpt>
      <trkpt lat="44.25059" lon="3.46363">
        <ele>1003.6</ele>
        <time>2020-08-25T13:53:31.000Z</time>
      </trkpt>
      <trkpt lat="44.25059" lon="3.46362">
        <ele>1003.6</ele>
        <time>2020-08-25T13:53:33.000Z</time>
      </trkpt>
      <trkpt lat="44.25059" lon="3.46362">
        <ele>1003.6</ele>
        <time>2020-08-25T13:53:35.000Z</time>
      </trkpt>
      <trkpt lat="44.25059" lon="3.46362">
        <ele>1003.6</ele>
        <time>2020-08-25T13:53:36.000Z</time>
      </trkpt>
      <trkpt lat="44.25059" lon="3.46363">
        <ele>1003.7</ele>
        <time>2020-08-25T13:53:38.000Z</time>
      </trkpt>
      <trkpt lat="44.25059" lon="3.46363">
        <ele>1003.7</ele>
        <time>2020-08-25T13:53:40.000Z</time>
      </trkpt>
      <trkpt lat="44.25059" lon="3.46363">
        <ele>1003.7</ele>
        <time>2020-08-25T13:53:41.000Z</time>
      </trkpt>
      <trkpt lat="44.25057" lon="3.46365">
        <ele>1004</ele>
        <time>2020-08-25T13:54:03.000Z</time>
      </trkpt>
      <trkpt lat="44.25056" lon="3.46366">
        <ele>1004.1</ele>
        <time>2020-08-25T13:54:04.000Z</time>
      </trkpt>
      <trkpt lat="44.25055" lon="3.46367">
        <ele>1004.2</ele>
        <time>2020-08-25T13:54:06.000Z</time>
      </trkpt>
      <trkpt lat="44.25054" lon="3.46367">
        <ele>1004.3</ele>
        <time>2020-08-25T13:54:07.000Z</time>
      </trkpt>
      <trkpt lat="44.25053" lon="3.46367">
        <ele>1004.5</ele>
        <time>2020-08-25T13:54:08.000Z</time>
      </trkpt>
      <trkpt lat="44.25051" lon="3.46367">
        <ele>1004.6</ele>
        <time>2020-08-25T13:54:10.000Z</time>
      </trkpt>
      <trkpt lat="44.25049" lon="3.46368">
        <ele>1004.8</ele>
        <time>2020-08-25T13:54:11.000Z</time>
      </trkpt>
      <trkpt lat="44.25048" lon="3.46368">
        <ele>1004.9</ele>
        <time>2020-08-25T13:54:12.000Z</time>
      </trkpt>
      <trkpt lat="44.25046" lon="3.46368">
        <ele>1005</ele>
        <time>2020-08-25T13:54:14.000Z</time>
      </trkpt>
      <trkpt lat="44.25045" lon="3.46368">
        <ele>1005.1</ele>
        <time>2020-08-25T13:54:15.000Z</time>
      </trkpt>
      <trkpt lat="44.25043" lon="3.46368">
        <ele>1005.3</ele>
        <time>2020-08-25T13:54:17.000Z</time>
      </trkpt>
      <trkpt lat="44.25042" lon="3.46369">
        <ele>1005.4</ele>
        <time>2020-08-25T13:54:18.000Z</time>
      </trkpt>
      <trkpt lat="44.25041" lon="3.46369">
        <ele>1005.5</ele>
        <time>2020-08-25T13:54:19.000Z</time>
      </trkpt>
      <trkpt lat="44.2504" lon="3.46369">
        <ele>1005.6</ele>
        <time>2020-08-25T13:54:21.000Z</time>
      </trkpt>
      <trkpt lat="44.25038" lon="3.46369">
        <ele>1005.8</ele>
        <time>2020-08-25T13:54:23.000Z</time>
      </trkpt>
      <trkpt lat="44.25036" lon="3.46369">
        <ele>1006</ele>
        <time>2020-08-25T13:54:25.000Z</time>
      </trkpt>
      <trkpt lat="44.25036" lon="3.4637">
        <ele>1006</ele>
        <time>2020-08-25T13:54:26.000Z</time>
      </trkpt>
      <trkpt lat="44.25035" lon="3.4637">
        <ele>1006.1</ele>
        <time>2020-08-25T13:54:28.000Z</time>
      </trkpt>
      <trkpt lat="44.25033" lon="3.46371">
        <ele>1006.3</ele>
        <time>2020-08-25T13:54:29.000Z</time>
      </trkpt>
      <trkpt lat="44.25033" lon="3.46371">
        <ele>1006.4</ele>
        <time>2020-08-25T13:54:30.000Z</time>
      </trkpt>
      <trkpt lat="44.25032" lon="3.46372">
        <ele>1006.5</ele>
        <time>2020-08-25T13:54:31.000Z</time>
      </trkpt>
      <trkpt lat="44.2503" lon="3.46373">
        <ele>1006.7</ele>
        <time>2020-08-25T13:54:33.000Z</time>
      </trkpt>
      <trkpt lat="44.2503" lon="3.46373">
        <ele>1006.7</ele>
        <time>2020-08-25T13:54:34.000Z</time>
      </trkpt>
      <trkpt lat="44.25029" lon="3.46374">
        <ele>1006.9</ele>
        <time>2020-08-25T13:54:36.000Z</time>
      </trkpt>
      <trkpt lat="44.25028" lon="3.46374">
        <ele>1007</ele>
        <time>2020-08-25T13:54:37.000Z</time>
      </trkpt>
      <trkpt lat="44.25027" lon="3.46374">
        <ele>1007.1</ele>
        <time>2020-08-25T13:54:38.000Z</time>
      </trkpt>
      <trkpt lat="44.25026" lon="3.46375">
        <ele>1007.2</ele>
        <time>2020-08-25T13:54:39.000Z</time>
      </trkpt>
      <trkpt lat="44.25025" lon="3.46375">
        <ele>1007.3</ele>
        <time>2020-08-25T13:54:41.000Z</time>
      </trkpt>
      <trkpt lat="44.25024" lon="3.46376">
        <ele>1007.4</ele>
        <time>2020-08-25T13:54:42.000Z</time>
      </trkpt>
      <trkpt lat="44.25025" lon="3.46375">
        <ele>1007.5</ele>
        <time>2020-08-25T13:54:43.000Z</time>
      </trkpt>
      <trkpt lat="44.25025" lon="3.46375">
        <ele>1007.5</ele>
        <time>2020-08-25T13:54:44.000Z</time>
      </trkpt>
      <trkpt lat="44.25025" lon="3.46376">
        <ele>1007.6</ele>
        <time>2020-08-25T13:54:46.000Z</time>
      </trkpt>
      <trkpt lat="44.25024" lon="3.46376">
        <ele>1007.7</ele>
        <time>2020-08-25T13:54:47.000Z</time>
      </trkpt>
      <trkpt lat="44.25023" lon="3.46377">
        <ele>1007.9</ele>
        <time>2020-08-25T13:54:48.000Z</time>
      </trkpt>
      <trkpt lat="44.25023" lon="3.46377">
        <ele>1007.9</ele>
        <time>2020-08-25T13:54:49.000Z</time>
      </trkpt>
      <trkpt lat="44.25022" lon="3.46377">
        <ele>1008</ele>
        <time>2020-08-25T13:54:51.000Z</time>
      </trkpt>
      <trkpt lat="44.25021" lon="3.46377">
        <ele>1008.1</ele>
        <time>2020-08-25T13:54:53.000Z</time>
      </trkpt>
      <trkpt lat="44.2502" lon="3.46377">
        <ele>1008.2</ele>
        <time>2020-08-25T13:54:54.000Z</time>
      </trkpt>
      <trkpt lat="44.25019" lon="3.46377">
        <ele>1008.3</ele>
        <time>2020-08-25T13:54:55.000Z</time>
      </trkpt>
      <trkpt lat="44.25019" lon="3.46377">
        <ele>1008.4</ele>
        <time>2020-08-25T13:54:56.000Z</time>
      </trkpt>
      <trkpt lat="44.25017" lon="3.46377">
        <ele>1008.6</ele>
        <time>2020-08-25T13:54:58.000Z</time>
      </trkpt>
      <trkpt lat="44.25017" lon="3.46377">
        <ele>1008.7</ele>
        <time>2020-08-25T13:55:00.000Z</time>
      </trkpt>
      <trkpt lat="44.25017" lon="3.46377">
        <ele>1008.7</ele>
        <time>2020-08-25T13:55:01.000Z</time>
      </trkpt>
      <trkpt lat="44.25017" lon="3.46377">
        <ele>1008.7</ele>
        <time>2020-08-25T13:55:03.000Z</time>
      </trkpt>
      <trkpt lat="44.25017" lon="3.46378">
        <ele>1008.8</ele>
        <time>2020-08-25T13:55:05.000Z</time>
      </trkpt>
      <trkpt lat="44.25015" lon="3.46378">
        <ele>1009</ele>
        <time>2020-08-25T13:55:06.000Z</time>
      </trkpt>
      <trkpt lat="44.25014" lon="3.46379">
        <ele>1009.2</ele>
        <time>2020-08-25T13:55:08.000Z</time>
      </trkpt>
      <trkpt lat="44.25013" lon="3.46379">
        <ele>1009.3</ele>
        <time>2020-08-25T13:55:09.000Z</time>
      </trkpt>
      <trkpt lat="44.25012" lon="3.46379">
        <ele>1009.4</ele>
        <time>2020-08-25T13:55:11.000Z</time>
      </trkpt>
      <trkpt lat="44.25012" lon="3.4638">
        <ele>1009.5</ele>
        <time>2020-08-25T13:55:12.000Z</time>
      </trkpt>
      <trkpt lat="44.25011" lon="3.4638">
        <ele>1009.6</ele>
        <time>2020-08-25T13:55:13.000Z</time>
      </trkpt>
      <trkpt lat="44.25011" lon="3.4638">
        <ele>1009.7</ele>
        <time>2020-08-25T13:55:15.000Z</time>
      </trkpt>
      <trkpt lat="44.25011" lon="3.4638">
        <ele>1009.7</ele>
        <time>2020-08-25T13:55:16.000Z</time>
      </trkpt>
      <trkpt lat="44.25012" lon="3.4638">
        <ele>1009.8</ele>
        <time>2020-08-25T13:55:18.000Z</time>
      </trkpt>
      <trkpt lat="44.25012" lon="3.46379">
        <ele>1009.9</ele>
        <time>2020-08-25T13:55:20.000Z</time>
      </trkpt>
      <trkpt lat="44.25012" lon="3.4638">
        <ele>1009.9</ele>
        <time>2020-08-25T13:55:21.000Z</time>
      </trkpt>
      <trkpt lat="44.25011" lon="3.4638">
        <ele>1010</ele>
        <time>2020-08-25T13:55:22.000Z</time>
      </trkpt>
      <trkpt lat="44.2501" lon="3.4638">
        <ele>1010.1</ele>
        <time>2020-08-25T13:55:23.000Z</time>
      </trkpt>
      <trkpt lat="44.2501" lon="3.4638">
        <ele>1010.2</ele>
        <time>2020-08-25T13:55:24.000Z</time>
      </trkpt>
      <trkpt lat="44.25009" lon="3.46381">
        <ele>1010.4</ele>
        <time>2020-08-25T13:55:26.000Z</time>
      </trkpt>
      <trkpt lat="44.25008" lon="3.46382">
        <ele>1010.5</ele>
        <time>2020-08-25T13:55:27.000Z</time>
      </trkpt>
      <trkpt lat="44.25006" lon="3.46382">
        <ele>1010.7</ele>
        <time>2020-08-25T13:55:29.000Z</time>
      </trkpt>
      <trkpt lat="44.25006" lon="3.46382">
        <ele>1010.8</ele>
        <time>2020-08-25T13:55:30.000Z</time>
      </trkpt>
      <trkpt lat="44.25005" lon="3.46381">
        <ele>1010.9</ele>
        <time>2020-08-25T13:55:31.000Z</time>
      </trkpt>
      <trkpt lat="44.25003" lon="3.46382">
        <ele>1011.1</ele>
        <time>2020-08-25T13:55:33.000Z</time>
      </trkpt>
      <trkpt lat="44.25003" lon="3.46382">
        <ele>1011.2</ele>
        <time>2020-08-25T13:55:34.000Z</time>
      </trkpt>
      <trkpt lat="44.25002" lon="3.46382">
        <ele>1011.3</ele>
        <time>2020-08-25T13:55:36.000Z</time>
      </trkpt>
      <trkpt lat="44.25001" lon="3.46383">
        <ele>1011.5</ele>
        <time>2020-08-25T13:55:37.000Z</time>
      </trkpt>
      <trkpt lat="44.25" lon="3.46384">
        <ele>1011.6</ele>
        <time>2020-08-25T13:55:38.000Z</time>
      </trkpt>
      <trkpt lat="44.24999" lon="3.46384">
        <ele>1011.7</ele>
        <time>2020-08-25T13:55:40.000Z</time>
      </trkpt>
      <trkpt lat="44.24999" lon="3.46385">
        <ele>1011.8</ele>
        <time>2020-08-25T13:55:41.000Z</time>
      </trkpt>
      <trkpt lat="44.24999" lon="3.46385">
        <ele>1011.9</ele>
        <time>2020-08-25T13:55:42.000Z</time>
      </trkpt>
      <trkpt lat="44.24998" lon="3.46386">
        <ele>1011.9</ele>
        <time>2020-08-25T13:55:43.000Z</time>
      </trkpt>
      <trkpt lat="44.24998" lon="3.46386">
        <ele>1012.1</ele>
        <time>2020-08-25T13:55:44.000Z</time>
      </trkpt>
      <trkpt lat="44.24996" lon="3.46388">
        <ele>1012.3</ele>
        <time>2020-08-25T13:55:46.000Z</time>
      </trkpt>
      <trkpt lat="44.24995" lon="3.46388">
        <ele>1012.5</ele>
        <time>2020-08-25T13:55:47.000Z</time>
      </trkpt>
      <trkpt lat="44.24994" lon="3.46388">
        <ele>1012.6</ele>
        <time>2020-08-25T13:55:48.000Z</time>
      </trkpt>
      <trkpt lat="44.24993" lon="3.46388">
        <ele>1012.7</ele>
        <time>2020-08-25T13:55:50.000Z</time>
      </trkpt>
      <trkpt lat="44.24992" lon="3.46388">
        <ele>1012.8</ele>
        <time>2020-08-25T13:55:51.000Z</time>
      </trkpt>
      <trkpt lat="44.24991" lon="3.4639">
        <ele>1013</ele>
        <time>2020-08-25T13:55:53.000Z</time>
      </trkpt>
      <trkpt lat="44.24991" lon="3.4639">
        <ele>1013.1</ele>
        <time>2020-08-25T13:55:54.000Z</time>
      </trkpt>
      <trkpt lat="44.2499" lon="3.46391">
        <ele>1013.3</ele>
        <time>2020-08-25T13:55:55.000Z</time>
      </trkpt>
      <trkpt lat="44.2499" lon="3.46391">
        <ele>1013.4</ele>
        <time>2020-08-25T13:55:57.000Z</time>
      </trkpt>
      <trkpt lat="44.24989" lon="3.46393">
        <ele>1013.6</ele>
        <time>2020-08-25T13:55:58.000Z</time>
      </trkpt>
      <trkpt lat="44.24988" lon="3.46393">
        <ele>1013.7</ele>
        <time>2020-08-25T13:55:59.000Z</time>
      </trkpt>
      <trkpt lat="44.24987" lon="3.46394">
        <ele>1013.8</ele>
        <time>2020-08-25T13:56:00.000Z</time>
      </trkpt>
      <trkpt lat="44.24986" lon="3.46395">
        <ele>1013.9</ele>
        <time>2020-08-25T13:56:02.000Z</time>
      </trkpt>
      <trkpt lat="44.24986" lon="3.46395">
        <ele>1014</ele>
        <time>2020-08-25T13:56:03.000Z</time>
      </trkpt>
      <trkpt lat="44.24985" lon="3.46397">
        <ele>1014.2</ele>
        <time>2020-08-25T13:56:05.000Z</time>
      </trkpt>
      <trkpt lat="44.24985" lon="3.46398">
        <ele>1014.3</ele>
        <time>2020-08-25T13:56:06.000Z</time>
      </trkpt>
      <trkpt lat="44.24984" lon="3.46399">
        <ele>1014.4</ele>
        <time>2020-08-25T13:56:07.000Z</time>
      </trkpt>
      <trkpt lat="44.24984" lon="3.46399">
        <ele>1014.5</ele>
        <time>2020-08-25T13:56:08.000Z</time>
      </trkpt>
      <trkpt lat="44.24984" lon="3.46399">
        <ele>1014.6</ele>
        <time>2020-08-25T13:56:10.000Z</time>
      </trkpt>
      <trkpt lat="44.24983" lon="3.464">
        <ele>1014.7</ele>
        <time>2020-08-25T13:56:11.000Z</time>
      </trkpt>
      <trkpt lat="44.24982" lon="3.464">
        <ele>1014.8</ele>
        <time>2020-08-25T13:56:12.000Z</time>
      </trkpt>
      <trkpt lat="44.24982" lon="3.46401">
        <ele>1014.9</ele>
        <time>2020-08-25T13:56:13.000Z</time>
      </trkpt>
      <trkpt lat="44.24981" lon="3.46401">
        <ele>1015</ele>
        <time>2020-08-25T13:56:15.000Z</time>
      </trkpt>
      <trkpt lat="44.2498" lon="3.46401">
        <ele>1015.2</ele>
        <time>2020-08-25T13:56:16.000Z</time>
      </trkpt>
      <trkpt lat="44.24979" lon="3.46402">
        <ele>1015.2</ele>
        <time>2020-08-25T13:56:17.000Z</time>
      </trkpt>
      <trkpt lat="44.24979" lon="3.46402">
        <ele>1015.3</ele>
        <time>2020-08-25T13:56:19.000Z</time>
      </trkpt>
      <trkpt lat="44.24978" lon="3.46403">
        <ele>1015.4</ele>
        <time>2020-08-25T13:56:21.000Z</time>
      </trkpt>
      <trkpt lat="44.24978" lon="3.46404">
        <ele>1015.6</ele>
        <time>2020-08-25T13:56:22.000Z</time>
      </trkpt>
      <trkpt lat="44.24977" lon="3.46404">
        <ele>1015.7</ele>
        <time>2020-08-25T13:56:23.000Z</time>
      </trkpt>
      <trkpt lat="44.24976" lon="3.46405">
        <ele>1015.8</ele>
        <time>2020-08-25T13:56:24.000Z</time>
      </trkpt>
      <trkpt lat="44.24976" lon="3.46405">
        <ele>1015.9</ele>
        <time>2020-08-25T13:56:26.000Z</time>
      </trkpt>
      <trkpt lat="44.24975" lon="3.46406">
        <ele>1016</ele>
        <time>2020-08-25T13:56:27.000Z</time>
      </trkpt>
      <trkpt lat="44.24974" lon="3.46407">
        <ele>1016.2</ele>
        <time>2020-08-25T13:56:28.000Z</time>
      </trkpt>
      <trkpt lat="44.24973" lon="3.46408">
        <ele>1016.4</ele>
        <time>2020-08-25T13:56:30.000Z</time>
      </trkpt>
      <trkpt lat="44.24973" lon="3.46409">
        <ele>1016.5</ele>
        <time>2020-08-25T13:56:31.000Z</time>
      </trkpt>
      <trkpt lat="44.24972" lon="3.4641">
        <ele>1016.6</ele>
        <time>2020-08-25T13:56:32.000Z</time>
      </trkpt>
      <trkpt lat="44.24972" lon="3.4641">
        <ele>1016.7</ele>
        <time>2020-08-25T13:56:33.000Z</time>
      </trkpt>
      <trkpt lat="44.24971" lon="3.46411">
        <ele>1016.8</ele>
        <time>2020-08-25T13:56:35.000Z</time>
      </trkpt>
      <trkpt lat="44.2497" lon="3.46412">
        <ele>1017.1</ele>
        <time>2020-08-25T13:56:36.000Z</time>
      </trkpt>
      <trkpt lat="44.2497" lon="3.46412">
        <ele>1017.1</ele>
        <time>2020-08-25T13:56:37.000Z</time>
      </trkpt>
      <trkpt lat="44.24969" lon="3.46412">
        <ele>1017.2</ele>
        <time>2020-08-25T13:56:39.000Z</time>
      </trkpt>
      <trkpt lat="44.24969" lon="3.46413">
        <ele>1017.3</ele>
        <time>2020-08-25T13:56:40.000Z</time>
      </trkpt>
      <trkpt lat="44.24968" lon="3.46413">
        <ele>1017.4</ele>
        <time>2020-08-25T13:56:41.000Z</time>
      </trkpt>
      <trkpt lat="44.24968" lon="3.46413">
        <ele>1017.5</ele>
        <time>2020-08-25T13:56:43.000Z</time>
      </trkpt>
      <trkpt lat="44.24967" lon="3.46414">
        <ele>1017.6</ele>
        <time>2020-08-25T13:56:44.000Z</time>
      </trkpt>
      <trkpt lat="44.24967" lon="3.46414">
        <ele>1017.7</ele>
        <time>2020-08-25T13:56:45.000Z</time>
      </trkpt>
      <trkpt lat="44.24966" lon="3.46415">
        <ele>1017.8</ele>
        <time>2020-08-25T13:56:46.000Z</time>
      </trkpt>
      <trkpt lat="44.24966" lon="3.46415">
        <ele>1017.9</ele>
        <time>2020-08-25T13:56:48.000Z</time>
      </trkpt>
      <trkpt lat="44.24965" lon="3.46416">
        <ele>1018</ele>
        <time>2020-08-25T13:56:50.000Z</time>
      </trkpt>
      <trkpt lat="44.24965" lon="3.46416">
        <ele>1018.1</ele>
        <time>2020-08-25T13:56:52.000Z</time>
      </trkpt>
      <trkpt lat="44.24964" lon="3.46416">
        <ele>1018.1</ele>
        <time>2020-08-25T13:56:53.000Z</time>
      </trkpt>
      <trkpt lat="44.24963" lon="3.46416">
        <ele>1018.3</ele>
        <time>2020-08-25T13:56:55.000Z</time>
      </trkpt>
      <trkpt lat="44.24963" lon="3.46416">
        <ele>1018.4</ele>
        <time>2020-08-25T13:56:56.000Z</time>
      </trkpt>
      <trkpt lat="44.24962" lon="3.46417">
        <ele>1018.6</ele>
        <time>2020-08-25T13:56:58.000Z</time>
      </trkpt>
      <trkpt lat="44.24961" lon="3.46418">
        <ele>1018.7</ele>
        <time>2020-08-25T13:56:59.000Z</time>
      </trkpt>
      <trkpt lat="44.24961" lon="3.46419">
        <ele>1018.8</ele>
        <time>2020-08-25T13:57:00.000Z</time>
      </trkpt>
      <trkpt lat="44.2496" lon="3.4642">
        <ele>1019</ele>
        <time>2020-08-25T13:57:01.000Z</time>
      </trkpt>
      <trkpt lat="44.24959" lon="3.46421">
        <ele>1019.3</ele>
        <time>2020-08-25T13:57:03.000Z</time>
      </trkpt>
      <trkpt lat="44.24958" lon="3.46422">
        <ele>1019.4</ele>
        <time>2020-08-25T13:57:04.000Z</time>
      </trkpt>
      <trkpt lat="44.24957" lon="3.46423">
        <ele>1019.6</ele>
        <time>2020-08-25T13:57:05.000Z</time>
      </trkpt>
      <trkpt lat="44.24956" lon="3.46423">
        <ele>1019.8</ele>
        <time>2020-08-25T13:57:07.000Z</time>
      </trkpt>
      <trkpt lat="44.24955" lon="3.46424">
        <ele>1020.1</ele>
        <time>2020-08-25T13:57:08.000Z</time>
      </trkpt>
      <trkpt lat="44.24954" lon="3.46424">
        <ele>1020.1</ele>
        <time>2020-08-25T13:57:09.000Z</time>
      </trkpt>
      <trkpt lat="44.24954" lon="3.46425">
        <ele>1020.3</ele>
        <time>2020-08-25T13:57:11.000Z</time>
      </trkpt>
      <trkpt lat="44.24953" lon="3.46426">
        <ele>1020.4</ele>
        <time>2020-08-25T13:57:12.000Z</time>
      </trkpt>
      <trkpt lat="44.24952" lon="3.46426">
        <ele>1020.6</ele>
        <time>2020-08-25T13:57:13.000Z</time>
      </trkpt>
      <trkpt lat="44.24952" lon="3.46427">
        <ele>1020.7</ele>
        <time>2020-08-25T13:57:15.000Z</time>
      </trkpt>
      <trkpt lat="44.24951" lon="3.46427">
        <ele>1020.8</ele>
        <time>2020-08-25T13:57:16.000Z</time>
      </trkpt>
      <trkpt lat="44.2495" lon="3.46428">
        <ele>1021</ele>
        <time>2020-08-25T13:57:17.000Z</time>
      </trkpt>
      <trkpt lat="44.2495" lon="3.46428">
        <ele>1021.1</ele>
        <time>2020-08-25T13:57:19.000Z</time>
      </trkpt>
      <trkpt lat="44.24949" lon="3.46429">
        <ele>1021.2</ele>
        <time>2020-08-25T13:57:20.000Z</time>
      </trkpt>
      <trkpt lat="44.24948" lon="3.46429">
        <ele>1021.4</ele>
        <time>2020-08-25T13:57:21.000Z</time>
      </trkpt>
      <trkpt lat="44.24948" lon="3.4643">
        <ele>1021.5</ele>
        <time>2020-08-25T13:57:22.000Z</time>
      </trkpt>
      <trkpt lat="44.24946" lon="3.4643">
        <ele>1021.8</ele>
        <time>2020-08-25T13:57:24.000Z</time>
      </trkpt>
      <trkpt lat="44.24945" lon="3.4643">
        <ele>1021.9</ele>
        <time>2020-08-25T13:57:26.000Z</time>
      </trkpt>
      <trkpt lat="44.24945" lon="3.46431">
        <ele>1022.1</ele>
        <time>2020-08-25T13:57:28.000Z</time>
      </trkpt>
      <trkpt lat="44.24944" lon="3.46431">
        <ele>1022.2</ele>
        <time>2020-08-25T13:57:29.000Z</time>
      </trkpt>
      <trkpt lat="44.24943" lon="3.46431">
        <ele>1022.4</ele>
        <time>2020-08-25T13:57:31.000Z</time>
      </trkpt>
      <trkpt lat="44.24942" lon="3.46432">
        <ele>1022.5</ele>
        <time>2020-08-25T13:57:32.000Z</time>
      </trkpt>
      <trkpt lat="44.24941" lon="3.46432">
        <ele>1022.8</ele>
        <time>2020-08-25T13:57:33.000Z</time>
      </trkpt>
      <trkpt lat="44.24939" lon="3.46433">
        <ele>1023</ele>
        <time>2020-08-25T13:57:35.000Z</time>
      </trkpt>
      <trkpt lat="44.24939" lon="3.46433">
        <ele>1023.1</ele>
        <time>2020-08-25T13:57:36.000Z</time>
      </trkpt>
      <trkpt lat="44.24938" lon="3.46434">
        <ele>1023.3</ele>
        <time>2020-08-25T13:57:37.000Z</time>
      </trkpt>
      <trkpt lat="44.24937" lon="3.46434">
        <ele>1023.4</ele>
        <time>2020-08-25T13:57:39.000Z</time>
      </trkpt>
      <trkpt lat="44.24935" lon="3.46434">
        <ele>1023.7</ele>
        <time>2020-08-25T13:57:41.000Z</time>
      </trkpt>
      <trkpt lat="44.24934" lon="3.46435">
        <ele>1023.8</ele>
        <time>2020-08-25T13:57:42.000Z</time>
      </trkpt>
      <trkpt lat="44.24934" lon="3.46435">
        <ele>1023.9</ele>
        <time>2020-08-25T13:57:43.000Z</time>
      </trkpt>
      <trkpt lat="44.24932" lon="3.46436">
        <ele>1024.2</ele>
        <time>2020-08-25T13:57:45.000Z</time>
      </trkpt>
      <trkpt lat="44.2493" lon="3.46437">
        <ele>1024.4</ele>
        <time>2020-08-25T13:57:46.000Z</time>
      </trkpt>
      <trkpt lat="44.24929" lon="3.46438">
        <ele>1024.7</ele>
        <time>2020-08-25T13:57:48.000Z</time>
      </trkpt>
      <trkpt lat="44.24928" lon="3.46438">
        <ele>1024.8</ele>
        <time>2020-08-25T13:57:49.000Z</time>
      </trkpt>
      <trkpt lat="44.24927" lon="3.46438">
        <ele>1024.9</ele>
        <time>2020-08-25T13:57:51.000Z</time>
      </trkpt>
      <trkpt lat="44.24926" lon="3.46439">
        <ele>1025.1</ele>
        <time>2020-08-25T13:57:52.000Z</time>
      </trkpt>
      <trkpt lat="44.24925" lon="3.4644">
        <ele>1025.3</ele>
        <time>2020-08-25T13:57:53.000Z</time>
      </trkpt>
      <trkpt lat="44.24924" lon="3.4644">
        <ele>1025.4</ele>
        <time>2020-08-25T13:57:55.000Z</time>
      </trkpt>
      <trkpt lat="44.24924" lon="3.46441">
        <ele>1025.5</ele>
        <time>2020-08-25T13:57:56.000Z</time>
      </trkpt>
      <trkpt lat="44.24923" lon="3.46441">
        <ele>1025.6</ele>
        <time>2020-08-25T13:57:57.000Z</time>
      </trkpt>
      <trkpt lat="44.24921" lon="3.46442">
        <ele>1025.9</ele>
        <time>2020-08-25T13:57:59.000Z</time>
      </trkpt>
      <trkpt lat="44.2492" lon="3.46443">
        <ele>1026.1</ele>
        <time>2020-08-25T13:58:00.000Z</time>
      </trkpt>
      <trkpt lat="44.2492" lon="3.46443">
        <ele>1026.2</ele>
        <time>2020-08-25T13:58:01.000Z</time>
      </trkpt>
      <trkpt lat="44.24919" lon="3.46444">
        <ele>1026.4</ele>
        <time>2020-08-25T13:58:02.000Z</time>
      </trkpt>
      <trkpt lat="44.24918" lon="3.46445">
        <ele>1026.5</ele>
        <time>2020-08-25T13:58:03.000Z</time>
      </trkpt>
      <trkpt lat="44.24917" lon="3.46446">
        <ele>1026.7</ele>
        <time>2020-08-25T13:58:04.000Z</time>
      </trkpt>
      <trkpt lat="44.24916" lon="3.46447">
        <ele>1026.9</ele>
        <time>2020-08-25T13:58:05.000Z</time>
      </trkpt>
      <trkpt lat="44.24915" lon="3.46448">
        <ele>1027.1</ele>
        <time>2020-08-25T13:58:07.000Z</time>
      </trkpt>
      <trkpt lat="44.24914" lon="3.46448">
        <ele>1027.2</ele>
        <time>2020-08-25T13:58:08.000Z</time>
      </trkpt>
      <trkpt lat="44.24914" lon="3.46449">
        <ele>1027.3</ele>
        <time>2020-08-25T13:58:09.000Z</time>
      </trkpt>
      <trkpt lat="44.24913" lon="3.4645">
        <ele>1027.5</ele>
        <time>2020-08-25T13:58:10.000Z</time>
      </trkpt>
      <trkpt lat="44.24911" lon="3.46451">
        <ele>1027.8</ele>
        <time>2020-08-25T13:58:12.000Z</time>
      </trkpt>
      <trkpt lat="44.2491" lon="3.46453">
        <ele>1027.9</ele>
        <time>2020-08-25T13:58:13.000Z</time>
      </trkpt>
      <trkpt lat="44.2491" lon="3.46453">
        <ele>1028</ele>
        <time>2020-08-25T13:58:15.000Z</time>
      </trkpt>
      <trkpt lat="44.24909" lon="3.46454">
        <ele>1028.2</ele>
        <time>2020-08-25T13:58:16.000Z</time>
      </trkpt>
      <trkpt lat="44.24909" lon="3.46455">
        <ele>1028.3</ele>
        <time>2020-08-25T13:58:17.000Z</time>
      </trkpt>
      <trkpt lat="44.24907" lon="3.46456">
        <ele>1028.5</ele>
        <time>2020-08-25T13:58:19.000Z</time>
      </trkpt>
      <trkpt lat="44.24906" lon="3.46457">
        <ele>1028.6</ele>
        <time>2020-08-25T13:58:20.000Z</time>
      </trkpt>
      <trkpt lat="44.24906" lon="3.46458">
        <ele>1028.7</ele>
        <time>2020-08-25T13:58:22.000Z</time>
      </trkpt>
      <trkpt lat="44.24905" lon="3.46458">
        <ele>1028.8</ele>
        <time>2020-08-25T13:58:23.000Z</time>
      </trkpt>
      <trkpt lat="44.24905" lon="3.46459">
        <ele>1028.8</ele>
        <time>2020-08-25T13:58:24.000Z</time>
      </trkpt>
      <trkpt lat="44.24904" lon="3.46459">
        <ele>1028.9</ele>
        <time>2020-08-25T13:58:25.000Z</time>
      </trkpt>
      <trkpt lat="44.24904" lon="3.4646">
        <ele>1029</ele>
        <time>2020-08-25T13:58:27.000Z</time>
      </trkpt>
      <trkpt lat="44.24903" lon="3.46461">
        <ele>1029.1</ele>
        <time>2020-08-25T13:58:28.000Z</time>
      </trkpt>
      <trkpt lat="44.24902" lon="3.46461">
        <ele>1029.2</ele>
        <time>2020-08-25T13:58:29.000Z</time>
      </trkpt>
      <trkpt lat="44.24901" lon="3.46462">
        <ele>1029.4</ele>
        <time>2020-08-25T13:58:30.000Z</time>
      </trkpt>
      <trkpt lat="44.249" lon="3.46463">
        <ele>1029.5</ele>
        <time>2020-08-25T13:58:32.000Z</time>
      </trkpt>
      <trkpt lat="44.24899" lon="3.46464">
        <ele>1029.6</ele>
        <time>2020-08-25T13:58:34.000Z</time>
      </trkpt>
      <trkpt lat="44.24899" lon="3.46465">
        <ele>1029.7</ele>
        <time>2020-08-25T13:58:35.000Z</time>
      </trkpt>
      <trkpt lat="44.24898" lon="3.46467">
        <ele>1029.9</ele>
        <time>2020-08-25T13:58:36.000Z</time>
      </trkpt>
      <trkpt lat="44.24897" lon="3.46468">
        <ele>1030</ele>
        <time>2020-08-25T13:58:37.000Z</time>
      </trkpt>
      <trkpt lat="44.24896" lon="3.46469">
        <ele>1030.1</ele>
        <time>2020-08-25T13:58:38.000Z</time>
      </trkpt>
      <trkpt lat="44.24896" lon="3.46469">
        <ele>1030.2</ele>
        <time>2020-08-25T13:58:39.000Z</time>
      </trkpt>
      <trkpt lat="44.24895" lon="3.4647">
        <ele>1030.3</ele>
        <time>2020-08-25T13:58:41.000Z</time>
      </trkpt>
      <trkpt lat="44.24895" lon="3.46471">
        <ele>1030.3</ele>
        <time>2020-08-25T13:58:42.000Z</time>
      </trkpt>
      <trkpt lat="44.24894" lon="3.46471">
        <ele>1030.4</ele>
        <time>2020-08-25T13:58:43.000Z</time>
      </trkpt>
      <trkpt lat="44.24893" lon="3.46472">
        <ele>1030.6</ele>
        <time>2020-08-25T13:58:45.000Z</time>
      </trkpt>
      <trkpt lat="44.24892" lon="3.46473">
        <ele>1030.7</ele>
        <time>2020-08-25T13:58:47.000Z</time>
      </trkpt>
      <trkpt lat="44.24891" lon="3.46473">
        <ele>1030.8</ele>
        <time>2020-08-25T13:58:48.000Z</time>
      </trkpt>
      <trkpt lat="44.2489" lon="3.46473">
        <ele>1030.8</ele>
        <time>2020-08-25T13:58:50.000Z</time>
      </trkpt>
      <trkpt lat="44.2489" lon="3.46474">
        <ele>1030.9</ele>
        <time>2020-08-25T13:58:51.000Z</time>
      </trkpt>
      <trkpt lat="44.24889" lon="3.46475">
        <ele>1031</ele>
        <time>2020-08-25T13:58:52.000Z</time>
      </trkpt>
      <trkpt lat="44.24887" lon="3.46476">
        <ele>1031.2</ele>
        <time>2020-08-25T13:58:54.000Z</time>
      </trkpt>
      <trkpt lat="44.24887" lon="3.46477">
        <ele>1031.3</ele>
        <time>2020-08-25T13:58:56.000Z</time>
      </trkpt>
      <trkpt lat="44.24886" lon="3.46477">
        <ele>1031.3</ele>
        <time>2020-08-25T13:58:57.000Z</time>
      </trkpt>
      <trkpt lat="44.24886" lon="3.46477">
        <ele>1031.4</ele>
        <time>2020-08-25T13:58:58.000Z</time>
      </trkpt>
      <trkpt lat="44.24885" lon="3.46478">
        <ele>1031.5</ele>
        <time>2020-08-25T13:59:00.000Z</time>
      </trkpt>
      <trkpt lat="44.24885" lon="3.46478">
        <ele>1031.5</ele>
        <time>2020-08-25T13:59:01.000Z</time>
      </trkpt>
      <trkpt lat="44.24884" lon="3.46478">
        <ele>1031.6</ele>
        <time>2020-08-25T13:59:02.000Z</time>
      </trkpt>
      <trkpt lat="44.24883" lon="3.46479">
        <ele>1031.7</ele>
        <time>2020-08-25T13:59:04.000Z</time>
      </trkpt>
      <trkpt lat="44.24883" lon="3.46479">
        <ele>1031.7</ele>
        <time>2020-08-25T13:59:06.000Z</time>
      </trkpt>
      <trkpt lat="44.24882" lon="3.46479">
        <ele>1031.8</ele>
        <time>2020-08-25T13:59:07.000Z</time>
      </trkpt>
      <trkpt lat="44.24882" lon="3.46479">
        <ele>1031.9</ele>
        <time>2020-08-25T13:59:09.000Z</time>
      </trkpt>
      <trkpt lat="44.24881" lon="3.4648">
        <ele>1031.9</ele>
        <time>2020-08-25T13:59:11.000Z</time>
      </trkpt>
      <trkpt lat="44.24881" lon="3.4648">
        <ele>1032</ele>
        <time>2020-08-25T13:59:12.000Z</time>
      </trkpt>
      <trkpt lat="44.2488" lon="3.4648">
        <ele>1032</ele>
        <time>2020-08-25T13:59:13.000Z</time>
      </trkpt>
      <trkpt lat="44.24879" lon="3.46481">
        <ele>1032.1</ele>
        <time>2020-08-25T13:59:15.000Z</time>
      </trkpt>
      <trkpt lat="44.24878" lon="3.46482">
        <ele>1032.2</ele>
        <time>2020-08-25T13:59:16.000Z</time>
      </trkpt>
      <trkpt lat="44.24878" lon="3.46482">
        <ele>1032.3</ele>
        <time>2020-08-25T13:59:17.000Z</time>
      </trkpt>
      <trkpt lat="44.24876" lon="3.46484">
        <ele>1032.5</ele>
        <time>2020-08-25T13:59:19.000Z</time>
      </trkpt>
      <trkpt lat="44.24876" lon="3.46485">
        <ele>1032.6</ele>
        <time>2020-08-25T13:59:21.000Z</time>
      </trkpt>
      <trkpt lat="44.24875" lon="3.46485">
        <ele>1032.7</ele>
        <time>2020-08-25T13:59:22.000Z</time>
      </trkpt>
      <trkpt lat="44.24875" lon="3.46486">
        <ele>1032.7</ele>
        <time>2020-08-25T13:59:23.000Z</time>
      </trkpt>
      <trkpt lat="44.24874" lon="3.46487">
        <ele>1032.8</ele>
        <time>2020-08-25T13:59:25.000Z</time>
      </trkpt>
      <trkpt lat="44.24873" lon="3.46489">
        <ele>1033</ele>
        <time>2020-08-25T13:59:26.000Z</time>
      </trkpt>
      <trkpt lat="44.24873" lon="3.4649">
        <ele>1033</ele>
        <time>2020-08-25T13:59:28.000Z</time>
      </trkpt>
      <trkpt lat="44.24872" lon="3.4649">
        <ele>1033.2</ele>
        <time>2020-08-25T13:59:29.000Z</time>
      </trkpt>
      <trkpt lat="44.24871" lon="3.46492">
        <ele>1033.3</ele>
        <time>2020-08-25T13:59:31.000Z</time>
      </trkpt>
      <trkpt lat="44.24869" lon="3.46493">
        <ele>1033.5</ele>
        <time>2020-08-25T13:59:32.000Z</time>
      </trkpt>
      <trkpt lat="44.24869" lon="3.46493">
        <ele>1033.6</ele>
        <time>2020-08-25T13:59:33.000Z</time>
      </trkpt>
      <trkpt lat="44.24867" lon="3.46493">
        <ele>1033.8</ele>
        <time>2020-08-25T13:59:35.000Z</time>
      </trkpt>
      <trkpt lat="44.24867" lon="3.46494">
        <ele>1033.8</ele>
        <time>2020-08-25T13:59:36.000Z</time>
      </trkpt>
      <trkpt lat="44.24866" lon="3.46495">
        <ele>1033.9</ele>
        <time>2020-08-25T13:59:38.000Z</time>
      </trkpt>
      <trkpt lat="44.24866" lon="3.46495">
        <ele>1034</ele>
        <time>2020-08-25T13:59:40.000Z</time>
      </trkpt>
      <trkpt lat="44.24866" lon="3.46496">
        <ele>1034.1</ele>
        <time>2020-08-25T13:59:41.000Z</time>
      </trkpt>
      <trkpt lat="44.24866" lon="3.46497">
        <ele>1034.1</ele>
        <time>2020-08-25T13:59:42.000Z</time>
      </trkpt>
      <trkpt lat="44.24866" lon="3.46497">
        <ele>1034.2</ele>
        <time>2020-08-25T13:59:43.000Z</time>
      </trkpt>
      <trkpt lat="44.24866" lon="3.46497">
        <ele>1034.2</ele>
        <time>2020-08-25T13:59:44.000Z</time>
      </trkpt>
      <trkpt lat="44.24866" lon="3.46497">
        <ele>1034.2</ele>
        <time>2020-08-25T13:59:45.000Z</time>
      </trkpt>
      <trkpt lat="44.24866" lon="3.46497">
        <ele>1034.3</ele>
        <time>2020-08-25T13:59:47.000Z</time>
      </trkpt>
      <trkpt lat="44.24866" lon="3.46497">
        <ele>1034.3</ele>
        <time>2020-08-25T13:59:49.000Z</time>
      </trkpt>
      <trkpt lat="44.24866" lon="3.46497">
        <ele>1034.3</ele>
        <time>2020-08-25T13:59:51.000Z</time>
      </trkpt>
      <trkpt lat="44.24866" lon="3.46497">
        <ele>1034.3</ele>
        <time>2020-08-25T13:59:53.000Z</time>
      </trkpt>
      <trkpt lat="44.24863" lon="3.46498">
        <ele>1034.7</ele>
        <time>2020-08-25T14:01:22.000Z</time>
      </trkpt>
      <trkpt lat="44.24862" lon="3.46498">
        <ele>1034.8</ele>
        <time>2020-08-25T14:01:23.000Z</time>
      </trkpt>
      <trkpt lat="44.24861" lon="3.46499">
        <ele>1034.9</ele>
        <time>2020-08-25T14:01:24.000Z</time>
      </trkpt>
      <trkpt lat="44.24861" lon="3.46499">
        <ele>1035</ele>
        <time>2020-08-25T14:01:25.000Z</time>
      </trkpt>
      <trkpt lat="44.24861" lon="3.465">
        <ele>1035.1</ele>
        <time>2020-08-25T14:01:27.000Z</time>
      </trkpt>
      <trkpt lat="44.24861" lon="3.46501">
        <ele>1035.1</ele>
        <time>2020-08-25T14:01:28.000Z</time>
      </trkpt>
      <trkpt lat="44.24861" lon="3.46502">
        <ele>1035.2</ele>
        <time>2020-08-25T14:01:30.000Z</time>
      </trkpt>
      <trkpt lat="44.24861" lon="3.46503">
        <ele>1035.3</ele>
        <time>2020-08-25T14:01:31.000Z</time>
      </trkpt>
      <trkpt lat="44.2486" lon="3.46504">
        <ele>1035.4</ele>
        <time>2020-08-25T14:01:33.000Z</time>
      </trkpt>
      <trkpt lat="44.24858" lon="3.46507">
        <ele>1035.7</ele>
        <time>2020-08-25T14:01:35.000Z</time>
      </trkpt>
      <trkpt lat="44.24857" lon="3.46509">
        <ele>1035.9</ele>
        <time>2020-08-25T14:01:37.000Z</time>
      </trkpt>
      <trkpt lat="44.24856" lon="3.4651">
        <ele>1036.1</ele>
        <time>2020-08-25T14:01:38.000Z</time>
      </trkpt>
      <trkpt lat="44.24855" lon="3.46511">
        <ele>1036.2</ele>
        <time>2020-08-25T14:01:39.000Z</time>
      </trkpt>
      <trkpt lat="44.24854" lon="3.46513">
        <ele>1036.4</ele>
        <time>2020-08-25T14:01:41.000Z</time>
      </trkpt>
      <trkpt lat="44.24854" lon="3.46513">
        <ele>1036.5</ele>
        <time>2020-08-25T14:01:42.000Z</time>
      </trkpt>
      <trkpt lat="44.24853" lon="3.46514">
        <ele>1036.6</ele>
        <time>2020-08-25T14:01:43.000Z</time>
      </trkpt>
      <trkpt lat="44.24852" lon="3.46515">
        <ele>1036.8</ele>
        <time>2020-08-25T14:01:45.000Z</time>
      </trkpt>
      <trkpt lat="44.24851" lon="3.46516">
        <ele>1036.9</ele>
        <time>2020-08-25T14:01:46.000Z</time>
      </trkpt>
      <trkpt lat="44.24849" lon="3.46517">
        <ele>1037.1</ele>
        <time>2020-08-25T14:01:48.000Z</time>
      </trkpt>
      <trkpt lat="44.24849" lon="3.46517">
        <ele>1037.1</ele>
        <time>2020-08-25T14:01:49.000Z</time>
      </trkpt>
      <trkpt lat="44.24849" lon="3.46518">
        <ele>1037.3</ele>
        <time>2020-08-25T14:01:51.000Z</time>
      </trkpt>
      <trkpt lat="44.24848" lon="3.46519">
        <ele>1037.4</ele>
        <time>2020-08-25T14:01:52.000Z</time>
      </trkpt>
      <trkpt lat="44.24848" lon="3.4652">
        <ele>1037.5</ele>
        <time>2020-08-25T14:01:54.000Z</time>
      </trkpt>
      <trkpt lat="44.24847" lon="3.46522">
        <ele>1037.7</ele>
        <time>2020-08-25T14:01:55.000Z</time>
      </trkpt>
      <trkpt lat="44.24846" lon="3.46523">
        <ele>1037.8</ele>
        <time>2020-08-25T14:01:57.000Z</time>
      </trkpt>
      <trkpt lat="44.24846" lon="3.46524">
        <ele>1037.9</ele>
        <time>2020-08-25T14:01:58.000Z</time>
      </trkpt>
      <trkpt lat="44.24846" lon="3.46524">
        <ele>1037.9</ele>
        <time>2020-08-25T14:01:59.000Z</time>
      </trkpt>
      <trkpt lat="44.24845" lon="3.46524">
        <ele>1038</ele>
        <time>2020-08-25T14:02:01.000Z</time>
      </trkpt>
      <trkpt lat="44.24845" lon="3.46524">
        <ele>1038.2</ele>
        <time>2020-08-25T14:02:03.000Z</time>
      </trkpt>
      <trkpt lat="44.24844" lon="3.46525">
        <ele>1038.3</ele>
        <time>2020-08-25T14:02:05.000Z</time>
      </trkpt>
      <trkpt lat="44.24843" lon="3.46526">
        <ele>1038.6</ele>
        <time>2020-08-25T14:02:07.000Z</time>
      </trkpt>
      <trkpt lat="44.24842" lon="3.46526">
        <ele>1038.7</ele>
        <time>2020-08-25T14:02:09.000Z</time>
      </trkpt>
      <trkpt lat="44.24842" lon="3.46526">
        <ele>1038.8</ele>
        <time>2020-08-25T14:02:10.000Z</time>
      </trkpt>
      <trkpt lat="44.24841" lon="3.46527">
        <ele>1038.9</ele>
        <time>2020-08-25T14:02:11.000Z</time>
      </trkpt>
      <trkpt lat="44.2484" lon="3.46527">
        <ele>1039.2</ele>
        <time>2020-08-25T14:02:13.000Z</time>
      </trkpt>
      <trkpt lat="44.24839" lon="3.46528">
        <ele>1039.4</ele>
        <time>2020-08-25T14:02:14.000Z</time>
      </trkpt>
      <trkpt lat="44.24839" lon="3.46528">
        <ele>1039.5</ele>
        <time>2020-08-25T14:02:15.000Z</time>
      </trkpt>
      <trkpt lat="44.24838" lon="3.46528">
        <ele>1039.7</ele>
        <time>2020-08-25T14:02:17.000Z</time>
      </trkpt>
      <trkpt lat="44.24838" lon="3.46528">
        <ele>1039.7</ele>
        <time>2020-08-25T14:02:18.000Z</time>
      </trkpt>
      <trkpt lat="44.24838" lon="3.46529">
        <ele>1039.9</ele>
        <time>2020-08-25T14:02:19.000Z</time>
      </trkpt>
      <trkpt lat="44.24836" lon="3.46529">
        <ele>1040.2</ele>
        <time>2020-08-25T14:02:21.000Z</time>
      </trkpt>
      <trkpt lat="44.24836" lon="3.46529">
        <ele>1040.3</ele>
        <time>2020-08-25T14:02:22.000Z</time>
      </trkpt>
      <trkpt lat="44.24836" lon="3.4653">
        <ele>1040.4</ele>
        <time>2020-08-25T14:02:24.000Z</time>
      </trkpt>
      <trkpt lat="44.24835" lon="3.4653">
        <ele>1040.6</ele>
        <time>2020-08-25T14:02:25.000Z</time>
      </trkpt>
      <trkpt lat="44.24834" lon="3.4653">
        <ele>1040.7</ele>
        <time>2020-08-25T14:02:26.000Z</time>
      </trkpt>
      <trkpt lat="44.24834" lon="3.4653">
        <ele>1040.8</ele>
        <time>2020-08-25T14:02:28.000Z</time>
      </trkpt>
      <trkpt lat="44.24834" lon="3.4653">
        <ele>1040.8</ele>
        <time>2020-08-25T14:02:30.000Z</time>
      </trkpt>
      <trkpt lat="44.24834" lon="3.4653">
        <ele>1040.9</ele>
        <time>2020-08-25T14:02:31.000Z</time>
      </trkpt>
      <trkpt lat="44.24834" lon="3.46531">
        <ele>1041.1</ele>
        <time>2020-08-25T14:02:32.000Z</time>
      </trkpt>
      <trkpt lat="44.24832" lon="3.46532">
        <ele>1041.4</ele>
        <time>2020-08-25T14:02:33.000Z</time>
      </trkpt>
      <trkpt lat="44.24831" lon="3.46532">
        <ele>1041.5</ele>
        <time>2020-08-25T14:02:35.000Z</time>
      </trkpt>
      <trkpt lat="44.24831" lon="3.46533">
        <ele>1041.7</ele>
        <time>2020-08-25T14:02:36.000Z</time>
      </trkpt>
      <trkpt lat="44.2483" lon="3.46533">
        <ele>1041.8</ele>
        <time>2020-08-25T14:02:37.000Z</time>
      </trkpt>
      <trkpt lat="44.2483" lon="3.46534">
        <ele>1042.1</ele>
        <time>2020-08-25T14:02:38.000Z</time>
      </trkpt>
      <trkpt lat="44.24828" lon="3.46534">
        <ele>1042.3</ele>
        <time>2020-08-25T14:02:40.000Z</time>
      </trkpt>
      <trkpt lat="44.24828" lon="3.46534">
        <ele>1042.4</ele>
        <time>2020-08-25T14:02:42.000Z</time>
      </trkpt>
      <trkpt lat="44.24829" lon="3.46534">
        <ele>1042.4</ele>
        <time>2020-08-25T14:02:43.000Z</time>
      </trkpt>
      <trkpt lat="44.24828" lon="3.46534">
        <ele>1042.6</ele>
        <time>2020-08-25T14:02:44.000Z</time>
      </trkpt>
      <trkpt lat="44.24828" lon="3.46535">
        <ele>1042.7</ele>
        <time>2020-08-25T14:02:46.000Z</time>
      </trkpt>
      <trkpt lat="44.24827" lon="3.46535">
        <ele>1042.8</ele>
        <time>2020-08-25T14:02:47.000Z</time>
      </trkpt>
      <trkpt lat="44.24827" lon="3.46535">
        <ele>1043</ele>
        <time>2020-08-25T14:02:48.000Z</time>
      </trkpt>
      <trkpt lat="44.24826" lon="3.46536">
        <ele>1043.1</ele>
        <time>2020-08-25T14:02:49.000Z</time>
      </trkpt>
      <trkpt lat="44.24826" lon="3.46536">
        <ele>1043.2</ele>
        <time>2020-08-25T14:02:50.000Z</time>
      </trkpt>
      <trkpt lat="44.24825" lon="3.46536">
        <ele>1043.4</ele>
        <time>2020-08-25T14:02:52.000Z</time>
      </trkpt>
      <trkpt lat="44.24824" lon="3.46536">
        <ele>1043.6</ele>
        <time>2020-08-25T14:02:54.000Z</time>
      </trkpt>
      <trkpt lat="44.24823" lon="3.46537">
        <ele>1043.7</ele>
        <time>2020-08-25T14:02:56.000Z</time>
      </trkpt>
      <trkpt lat="44.24822" lon="3.46538">
        <ele>1043.9</ele>
        <time>2020-08-25T14:02:58.000Z</time>
      </trkpt>
      <trkpt lat="44.24822" lon="3.46538">
        <ele>1044.1</ele>
        <time>2020-08-25T14:02:59.000Z</time>
      </trkpt>
      <trkpt lat="44.24822" lon="3.46539">
        <ele>1044.2</ele>
        <time>2020-08-25T14:03:01.000Z</time>
      </trkpt>
      <trkpt lat="44.24821" lon="3.46539">
        <ele>1044.4</ele>
        <time>2020-08-25T14:03:02.000Z</time>
      </trkpt>
      <trkpt lat="44.2482" lon="3.4654">
        <ele>1044.5</ele>
        <time>2020-08-25T14:03:03.000Z</time>
      </trkpt>
      <trkpt lat="44.24818" lon="3.4654">
        <ele>1044.8</ele>
        <time>2020-08-25T14:03:05.000Z</time>
      </trkpt>
      <trkpt lat="44.24817" lon="3.46541">
        <ele>1045.1</ele>
        <time>2020-08-25T14:03:06.000Z</time>
      </trkpt>
      <trkpt lat="44.24816" lon="3.46542">
        <ele>1045.2</ele>
        <time>2020-08-25T14:03:08.000Z</time>
      </trkpt>
      <trkpt lat="44.24816" lon="3.46542">
        <ele>1045.3</ele>
        <time>2020-08-25T14:03:09.000Z</time>
      </trkpt>
      <trkpt lat="44.24816" lon="3.46542">
        <ele>1045.4</ele>
        <time>2020-08-25T14:03:11.000Z</time>
      </trkpt>
      <trkpt lat="44.24815" lon="3.46542">
        <ele>1045.6</ele>
        <time>2020-08-25T14:03:12.000Z</time>
      </trkpt>
      <trkpt lat="44.24814" lon="3.46543">
        <ele>1045.7</ele>
        <time>2020-08-25T14:03:14.000Z</time>
      </trkpt>
      <trkpt lat="44.24814" lon="3.46543">
        <ele>1045.8</ele>
        <time>2020-08-25T14:03:15.000Z</time>
      </trkpt>
      <trkpt lat="44.24813" lon="3.46544">
        <ele>1045.9</ele>
        <time>2020-08-25T14:03:16.000Z</time>
      </trkpt>
      <trkpt lat="44.24812" lon="3.46544">
        <ele>1046.2</ele>
        <time>2020-08-25T14:03:17.000Z</time>
      </trkpt>
      <trkpt lat="44.24811" lon="3.46545">
        <ele>1046.3</ele>
        <time>2020-08-25T14:03:19.000Z</time>
      </trkpt>
      <trkpt lat="44.2481" lon="3.46545">
        <ele>1046.6</ele>
        <time>2020-08-25T14:03:20.000Z</time>
      </trkpt>
      <trkpt lat="44.24809" lon="3.46546">
        <ele>1046.7</ele>
        <time>2020-08-25T14:03:22.000Z</time>
      </trkpt>
      <trkpt lat="44.24809" lon="3.46546">
        <ele>1047</ele>
        <time>2020-08-25T14:03:23.000Z</time>
      </trkpt>
      <trkpt lat="44.24806" lon="3.46548">
        <ele>1047.4</ele>
        <time>2020-08-25T14:03:25.000Z</time>
      </trkpt>
      <trkpt lat="44.24805" lon="3.46549">
        <ele>1047.6</ele>
        <time>2020-08-25T14:03:27.000Z</time>
      </trkpt>
      <trkpt lat="44.24804" lon="3.46549">
        <ele>1047.8</ele>
        <time>2020-08-25T14:03:28.000Z</time>
      </trkpt>
      <trkpt lat="44.24803" lon="3.4655">
        <ele>1048</ele>
        <time>2020-08-25T14:03:30.000Z</time>
      </trkpt>
      <trkpt lat="44.24802" lon="3.4655">
        <ele>1048.2</ele>
        <time>2020-08-25T14:03:31.000Z</time>
      </trkpt>
      <trkpt lat="44.24802" lon="3.4655">
        <ele>1048.3</ele>
        <time>2020-08-25T14:03:32.000Z</time>
      </trkpt>
      <trkpt lat="44.24802" lon="3.4655">
        <ele>1048.4</ele>
        <time>2020-08-25T14:03:33.000Z</time>
      </trkpt>
      <trkpt lat="44.24801" lon="3.4655">
        <ele>1048.6</ele>
        <time>2020-08-25T14:03:35.000Z</time>
      </trkpt>
      <trkpt lat="44.24801" lon="3.4655">
        <ele>1048.6</ele>
        <time>2020-08-25T14:03:37.000Z</time>
      </trkpt>
      <trkpt lat="44.24799" lon="3.46551">
        <ele>1048.9</ele>
        <time>2020-08-25T14:03:38.000Z</time>
      </trkpt>
      <trkpt lat="44.24798" lon="3.46551">
        <ele>1049.2</ele>
        <time>2020-08-25T14:03:39.000Z</time>
      </trkpt>
      <trkpt lat="44.24797" lon="3.46552">
        <ele>1049.4</ele>
        <time>2020-08-25T14:03:41.000Z</time>
      </trkpt>
      <trkpt lat="44.24797" lon="3.46553">
        <ele>1049.6</ele>
        <time>2020-08-25T14:03:42.000Z</time>
      </trkpt>
      <trkpt lat="44.24795" lon="3.46553">
        <ele>1049.8</ele>
        <time>2020-08-25T14:03:44.000Z</time>
      </trkpt>
      <trkpt lat="44.24795" lon="3.46554">
        <ele>1049.9</ele>
        <time>2020-08-25T14:03:45.000Z</time>
      </trkpt>
      <trkpt lat="44.24794" lon="3.46554">
        <ele>1050.2</ele>
        <time>2020-08-25T14:03:46.000Z</time>
      </trkpt>
      <trkpt lat="44.24793" lon="3.46555">
        <ele>1050.4</ele>
        <time>2020-08-25T14:03:48.000Z</time>
      </trkpt>
      <trkpt lat="44.24792" lon="3.46556">
        <ele>1050.8</ele>
        <time>2020-08-25T14:03:49.000Z</time>
      </trkpt>
      <trkpt lat="44.24791" lon="3.46557">
        <ele>1050.9</ele>
        <time>2020-08-25T14:03:50.000Z</time>
      </trkpt>
      <trkpt lat="44.2479" lon="3.46559">
        <ele>1051.2</ele>
        <time>2020-08-25T14:03:52.000Z</time>
      </trkpt>
      <trkpt lat="44.24789" lon="3.4656">
        <ele>1051.5</ele>
        <time>2020-08-25T14:03:53.000Z</time>
      </trkpt>
      <trkpt lat="44.24787" lon="3.46562">
        <ele>1051.9</ele>
        <time>2020-08-25T14:03:55.000Z</time>
      </trkpt>
      <trkpt lat="44.24786" lon="3.46563">
        <ele>1052.2</ele>
        <time>2020-08-25T14:03:56.000Z</time>
      </trkpt>
      <trkpt lat="44.24785" lon="3.46563">
        <ele>1052.4</ele>
        <time>2020-08-25T14:03:57.000Z</time>
      </trkpt>
      <trkpt lat="44.24784" lon="3.46565">
        <ele>1052.7</ele>
        <time>2020-08-25T14:03:59.000Z</time>
      </trkpt>
      <trkpt lat="44.24783" lon="3.46565">
        <ele>1052.9</ele>
        <time>2020-08-25T14:04:00.000Z</time>
      </trkpt>
      <trkpt lat="44.24782" lon="3.46565">
        <ele>1053.2</ele>
        <time>2020-08-25T14:04:01.000Z</time>
      </trkpt>
      <trkpt lat="44.2478" lon="3.46565">
        <ele>1053.5</ele>
        <time>2020-08-25T14:04:02.000Z</time>
      </trkpt>
      <trkpt lat="44.24779" lon="3.46565">
        <ele>1053.8</ele>
        <time>2020-08-25T14:04:04.000Z</time>
      </trkpt>
      <trkpt lat="44.24778" lon="3.46566">
        <ele>1054.1</ele>
        <time>2020-08-25T14:04:05.000Z</time>
      </trkpt>
      <trkpt lat="44.24774" lon="3.46568">
        <ele>1054.8</ele>
        <time>2020-08-25T14:04:07.000Z</time>
      </trkpt>
      <trkpt lat="44.24773" lon="3.46569">
        <ele>1055.1</ele>
        <time>2020-08-25T14:04:08.000Z</time>
      </trkpt>
      <trkpt lat="44.24773" lon="3.4657">
        <ele>1055.2</ele>
        <time>2020-08-25T14:04:09.000Z</time>
      </trkpt>
      <trkpt lat="44.24772" lon="3.46571">
        <ele>1055.5</ele>
        <time>2020-08-25T14:04:10.000Z</time>
      </trkpt>
      <trkpt lat="44.24771" lon="3.46572">
        <ele>1055.7</ele>
        <time>2020-08-25T14:04:12.000Z</time>
      </trkpt>
      <trkpt lat="44.2477" lon="3.46574">
        <ele>1056.1</ele>
        <time>2020-08-25T14:04:13.000Z</time>
      </trkpt>
      <trkpt lat="44.24768" lon="3.46575">
        <ele>1056.5</ele>
        <time>2020-08-25T14:04:14.000Z</time>
      </trkpt>
      <trkpt lat="44.24767" lon="3.46576">
        <ele>1056.7</ele>
        <time>2020-08-25T14:04:15.000Z</time>
      </trkpt>
      <trkpt lat="44.24765" lon="3.46577">
        <ele>1057.2</ele>
        <time>2020-08-25T14:04:17.000Z</time>
      </trkpt>
      <trkpt lat="44.24764" lon="3.46578">
        <ele>1057.5</ele>
        <time>2020-08-25T14:04:19.000Z</time>
      </trkpt>
      <trkpt lat="44.24762" lon="3.46579">
        <ele>1057.7</ele>
        <time>2020-08-25T14:04:20.000Z</time>
      </trkpt>
      <trkpt lat="44.24761" lon="3.4658">
        <ele>1058</ele>
        <time>2020-08-25T14:04:21.000Z</time>
      </trkpt>
      <trkpt lat="44.2476" lon="3.46581">
        <ele>1058.3</ele>
        <time>2020-08-25T14:04:22.000Z</time>
      </trkpt>
      <trkpt lat="44.24758" lon="3.46582">
        <ele>1058.5</ele>
        <time>2020-08-25T14:04:24.000Z</time>
      </trkpt>
      <trkpt lat="44.24757" lon="3.46583">
        <ele>1058.7</ele>
        <time>2020-08-25T14:04:25.000Z</time>
      </trkpt>
      <trkpt lat="44.24754" lon="3.46585">
        <ele>1059.1</ele>
        <time>2020-08-25T14:04:27.000Z</time>
      </trkpt>
      <trkpt lat="44.24754" lon="3.46586">
        <ele>1059.2</ele>
        <time>2020-08-25T14:04:28.000Z</time>
      </trkpt>
      <trkpt lat="44.24754" lon="3.46587">
        <ele>1059.2</ele>
        <time>2020-08-25T14:04:29.000Z</time>
      </trkpt>
      <trkpt lat="44.24754" lon="3.46587">
        <ele>1059.3</ele>
        <time>2020-08-25T14:04:30.000Z</time>
      </trkpt>
      <trkpt lat="44.24753" lon="3.46587">
        <ele>1059.3</ele>
        <time>2020-08-25T14:04:31.000Z</time>
      </trkpt>
      <trkpt lat="44.24754" lon="3.46587">
        <ele>1059.3</ele>
        <time>2020-08-25T14:04:33.000Z</time>
      </trkpt>
      <trkpt lat="44.24754" lon="3.46587">
        <ele>1059.3</ele>
        <time>2020-08-25T14:04:35.000Z</time>
      </trkpt>
      <trkpt lat="44.24754" lon="3.46587">
        <ele>1059.4</ele>
        <time>2020-08-25T14:04:37.000Z</time>
      </trkpt>
      <trkpt lat="44.24754" lon="3.46587">
        <ele>1059.4</ele>
        <time>2020-08-25T14:04:39.000Z</time>
      </trkpt>
      <trkpt lat="44.24754" lon="3.46587">
        <ele>1059.4</ele>
        <time>2020-08-25T14:04:41.000Z</time>
      </trkpt>
      <trkpt lat="44.24754" lon="3.46587">
        <ele>1059.4</ele>
        <time>2020-08-25T14:04:42.000Z</time>
      </trkpt>
      <trkpt lat="44.24754" lon="3.46586">
        <ele>1059.4</ele>
        <time>2020-08-25T14:04:44.000Z</time>
      </trkpt>
      <trkpt lat="44.24759" lon="3.46582">
        <ele>1060</ele>
        <time>2020-08-25T14:13:06.000Z</time>
      </trkpt>
      <trkpt lat="44.2476" lon="3.46581">
        <ele>1060.1</ele>
        <time>2020-08-25T14:13:08.000Z</time>
      </trkpt>
      <trkpt lat="44.24761" lon="3.46579">
        <ele>1060.2</ele>
        <time>2020-08-25T14:13:09.000Z</time>
      </trkpt>
      <trkpt lat="44.24762" lon="3.46577">
        <ele>1060.4</ele>
        <time>2020-08-25T14:13:11.000Z</time>
      </trkpt>
      <trkpt lat="44.24763" lon="3.46576">
        <ele>1060.5</ele>
        <time>2020-08-25T14:13:12.000Z</time>
      </trkpt>
      <trkpt lat="44.24764" lon="3.46574">
        <ele>1060.6</ele>
        <time>2020-08-25T14:13:13.000Z</time>
      </trkpt>
      <trkpt lat="44.24766" lon="3.46572">
        <ele>1060.8</ele>
        <time>2020-08-25T14:13:15.000Z</time>
      </trkpt>
      <trkpt lat="44.24767" lon="3.46571">
        <ele>1060.9</ele>
        <time>2020-08-25T14:13:16.000Z</time>
      </trkpt>
      <trkpt lat="44.24768" lon="3.4657">
        <ele>1061</ele>
        <time>2020-08-25T14:13:17.000Z</time>
      </trkpt>
      <trkpt lat="44.24771" lon="3.46567">
        <ele>1061.2</ele>
        <time>2020-08-25T14:13:18.000Z</time>
      </trkpt>
      <trkpt lat="44.24772" lon="3.46566">
        <ele>1061.3</ele>
        <time>2020-08-25T14:13:19.000Z</time>
      </trkpt>
      <trkpt lat="44.24775" lon="3.46564">
        <ele>1061.6</ele>
        <time>2020-08-25T14:13:21.000Z</time>
      </trkpt>
      <trkpt lat="44.24776" lon="3.46564">
        <ele>1061.7</ele>
        <time>2020-08-25T14:13:22.000Z</time>
      </trkpt>
      <trkpt lat="44.24779" lon="3.46562">
        <ele>1061.9</ele>
        <time>2020-08-25T14:13:23.000Z</time>
      </trkpt>
      <trkpt lat="44.24779" lon="3.46562">
        <ele>1062</ele>
        <time>2020-08-25T14:13:24.000Z</time>
      </trkpt>
      <trkpt lat="44.24782" lon="3.46561">
        <ele>1062.2</ele>
        <time>2020-08-25T14:13:25.000Z</time>
      </trkpt>
      <trkpt lat="44.24783" lon="3.4656">
        <ele>1062.2</ele>
        <time>2020-08-25T14:13:27.000Z</time>
      </trkpt>
      <trkpt lat="44.24784" lon="3.4656">
        <ele>1062.3</ele>
        <time>2020-08-25T14:13:28.000Z</time>
      </trkpt>
      <trkpt lat="44.24785" lon="3.46559">
        <ele>1062.4</ele>
        <time>2020-08-25T14:13:29.000Z</time>
      </trkpt>
      <trkpt lat="44.24787" lon="3.46557">
        <ele>1062.6</ele>
        <time>2020-08-25T14:13:30.000Z</time>
      </trkpt>
      <trkpt lat="44.24788" lon="3.46556">
        <ele>1062.7</ele>
        <time>2020-08-25T14:13:32.000Z</time>
      </trkpt>
      <trkpt lat="44.24789" lon="3.46555">
        <ele>1062.8</ele>
        <time>2020-08-25T14:13:33.000Z</time>
      </trkpt>
      <trkpt lat="44.2479" lon="3.46554">
        <ele>1062.8</ele>
        <time>2020-08-25T14:13:34.000Z</time>
      </trkpt>
      <trkpt lat="44.24792" lon="3.46553">
        <ele>1062.9</ele>
        <time>2020-08-25T14:13:35.000Z</time>
      </trkpt>
      <trkpt lat="44.24795" lon="3.46553">
        <ele>1063.1</ele>
        <time>2020-08-25T14:13:37.000Z</time>
      </trkpt>
      <trkpt lat="44.24796" lon="3.46552">
        <ele>1063.1</ele>
        <time>2020-08-25T14:13:38.000Z</time>
      </trkpt>
      <trkpt lat="44.24796" lon="3.46553">
        <ele>1063.1</ele>
        <time>2020-08-25T14:13:39.000Z</time>
      </trkpt>
      <trkpt lat="44.24796" lon="3.46554">
        <ele>1063.2</ele>
        <time>2020-08-25T14:13:42.000Z</time>
      </trkpt>
      <trkpt lat="44.24796" lon="3.46554">
        <ele>1063.2</ele>
        <time>2020-08-25T14:13:44.000Z</time>
      </trkpt>
      <trkpt lat="44.24796" lon="3.46555">
        <ele>1063.2</ele>
        <time>2020-08-25T14:13:45.000Z</time>
      </trkpt>
      <trkpt lat="44.24796" lon="3.46556">
        <ele>1063.2</ele>
        <time>2020-08-25T14:13:47.000Z</time>
      </trkpt>
      <trkpt lat="44.24795" lon="3.46556">
        <ele>1063.2</ele>
        <time>2020-08-25T14:13:48.000Z</time>
      </trkpt>
      <trkpt lat="44.24795" lon="3.46557">
        <ele>1063.3</ele>
        <time>2020-08-25T14:13:49.000Z</time>
      </trkpt>
      <trkpt lat="44.24795" lon="3.46558">
        <ele>1063.3</ele>
        <time>2020-08-25T14:13:51.000Z</time>
      </trkpt>
      <trkpt lat="44.24795" lon="3.46558">
        <ele>1063.3</ele>
        <time>2020-08-25T14:13:52.000Z</time>
      </trkpt>
      <trkpt lat="44.24794" lon="3.46559">
        <ele>1063.3</ele>
        <time>2020-08-25T14:13:54.000Z</time>
      </trkpt>
      <trkpt lat="44.24794" lon="3.4656">
        <ele>1063.3</ele>
        <time>2020-08-25T14:13:55.000Z</time>
      </trkpt>
      <trkpt lat="44.24794" lon="3.4656">
        <ele>1063.3</ele>
        <time>2020-08-25T14:13:57.000Z</time>
      </trkpt>
      <trkpt lat="44.24794" lon="3.46561">
        <ele>1063.3</ele>
        <time>2020-08-25T14:14:07.000Z</time>
      </trkpt>
      <trkpt lat="44.24794" lon="3.46562">
        <ele>1063.4</ele>
        <time>2020-08-25T14:14:08.000Z</time>
      </trkpt>
      <trkpt lat="44.24793" lon="3.46562">
        <ele>1063.4</ele>
        <time>2020-08-25T14:14:10.000Z</time>
      </trkpt>
      <trkpt lat="44.24793" lon="3.46563">
        <ele>1063.4</ele>
        <time>2020-08-25T14:14:11.000Z</time>
      </trkpt>
      <trkpt lat="44.24793" lon="3.46564">
        <ele>1063.4</ele>
        <time>2020-08-25T14:14:12.000Z</time>
      </trkpt>
      <trkpt lat="44.24791" lon="3.46564">
        <ele>1063.5</ele>
        <time>2020-08-25T14:14:13.000Z</time>
      </trkpt>
      <trkpt lat="44.2479" lon="3.46565">
        <ele>1063.5</ele>
        <time>2020-08-25T14:14:15.000Z</time>
      </trkpt>
      <trkpt lat="44.24789" lon="3.46565">
        <ele>1063.5</ele>
        <time>2020-08-25T14:14:16.000Z</time>
      </trkpt>
      <trkpt lat="44.24787" lon="3.46566">
        <ele>1063.5</ele>
        <time>2020-08-25T14:14:17.000Z</time>
      </trkpt>
      <trkpt lat="44.24785" lon="3.46567">
        <ele>1063.6</ele>
        <time>2020-08-25T14:14:18.000Z</time>
      </trkpt>
      <trkpt lat="44.24784" lon="3.46567">
        <ele>1063.6</ele>
        <time>2020-08-25T14:14:20.000Z</time>
      </trkpt>
      <trkpt lat="44.24784" lon="3.46566">
        <ele>1063.6</ele>
        <time>2020-08-25T14:14:21.000Z</time>
      </trkpt>
      <trkpt lat="44.24783" lon="3.46565">
        <ele>1063.6</ele>
        <time>2020-08-25T14:14:23.000Z</time>
      </trkpt>
      <trkpt lat="44.24782" lon="3.46566">
        <ele>1063.7</ele>
        <time>2020-08-25T14:14:24.000Z</time>
      </trkpt>
      <trkpt lat="44.2478" lon="3.46567">
        <ele>1063.7</ele>
        <time>2020-08-25T14:14:26.000Z</time>
      </trkpt>
      <trkpt lat="44.24779" lon="3.46568">
        <ele>1063.7</ele>
        <time>2020-08-25T14:14:28.000Z</time>
      </trkpt>
      <trkpt lat="44.24777" lon="3.46569">
        <ele>1063.8</ele>
        <time>2020-08-25T14:14:29.000Z</time>
      </trkpt>
      <trkpt lat="44.24775" lon="3.46571">
        <ele>1063.8</ele>
        <time>2020-08-25T14:14:31.000Z</time>
      </trkpt>
      <trkpt lat="44.24774" lon="3.46572">
        <ele>1063.8</ele>
        <time>2020-08-25T14:14:32.000Z</time>
      </trkpt>
      <trkpt lat="44.24772" lon="3.46573">
        <ele>1063.9</ele>
        <time>2020-08-25T14:14:34.000Z</time>
      </trkpt>
      <trkpt lat="44.24771" lon="3.46574">
        <ele>1063.9</ele>
        <time>2020-08-25T14:14:35.000Z</time>
      </trkpt>
      <trkpt lat="44.2477" lon="3.46575">
        <ele>1063.9</ele>
        <time>2020-08-25T14:14:36.000Z</time>
      </trkpt>
      <trkpt lat="44.24768" lon="3.46576">
        <ele>1064</ele>
        <time>2020-08-25T14:14:37.000Z</time>
      </trkpt>
      <trkpt lat="44.24765" lon="3.46578">
        <ele>1064</ele>
        <time>2020-08-25T14:14:39.000Z</time>
      </trkpt>
      <trkpt lat="44.24764" lon="3.46578">
        <ele>1064</ele>
        <time>2020-08-25T14:14:40.000Z</time>
      </trkpt>
      <trkpt lat="44.24763" lon="3.46579">
        <ele>1064.1</ele>
        <time>2020-08-25T14:14:41.000Z</time>
      </trkpt>
      <trkpt lat="44.24761" lon="3.46579">
        <ele>1064.1</ele>
        <time>2020-08-25T14:14:43.000Z</time>
      </trkpt>
      <trkpt lat="44.2476" lon="3.4658">
        <ele>1064.1</ele>
        <time>2020-08-25T14:14:44.000Z</time>
      </trkpt>
      <trkpt lat="44.24758" lon="3.46581">
        <ele>1064.2</ele>
        <time>2020-08-25T14:14:45.000Z</time>
      </trkpt>
      <trkpt lat="44.24757" lon="3.46581">
        <ele>1064.2</ele>
        <time>2020-08-25T14:14:46.000Z</time>
      </trkpt>
      <trkpt lat="44.24756" lon="3.46581">
        <ele>1064.2</ele>
        <time>2020-08-25T14:14:47.000Z</time>
      </trkpt>
      <trkpt lat="44.24755" lon="3.46581">
        <ele>1064.2</ele>
        <time>2020-08-25T14:14:48.000Z</time>
      </trkpt>
      <trkpt lat="44.24754" lon="3.46582">
        <ele>1064.3</ele>
        <time>2020-08-25T14:14:50.000Z</time>
      </trkpt>
      <trkpt lat="44.24752" lon="3.46582">
        <ele>1064.3</ele>
        <time>2020-08-25T14:14:51.000Z</time>
      </trkpt>
      <trkpt lat="44.24751" lon="3.46582">
        <ele>1064.3</ele>
        <time>2020-08-25T14:14:52.000Z</time>
      </trkpt>
      <trkpt lat="44.24751" lon="3.46583">
        <ele>1064.3</ele>
        <time>2020-08-25T14:14:54.000Z</time>
      </trkpt>
      <trkpt lat="44.2475" lon="3.46583">
        <ele>1064.3</ele>
        <time>2020-08-25T14:14:55.000Z</time>
      </trkpt>
      <trkpt lat="44.2475" lon="3.46583">
        <ele>1064.3</ele>
        <time>2020-08-25T14:14:56.000Z</time>
      </trkpt>
      <trkpt lat="44.24749" lon="3.46582">
        <ele>1064.3</ele>
        <time>2020-08-25T14:14:58.000Z</time>
      </trkpt>
      <trkpt lat="44.24749" lon="3.46582">
        <ele>1064.4</ele>
        <time>2020-08-25T14:14:59.000Z</time>
      </trkpt>
      <trkpt lat="44.24749" lon="3.46581">
        <ele>1064.4</ele>
        <time>2020-08-25T14:15:01.000Z</time>
      </trkpt>
      <trkpt lat="44.2475" lon="3.46581">
        <ele>1064.4</ele>
        <time>2020-08-25T14:15:02.000Z</time>
      </trkpt>
      <trkpt lat="44.2475" lon="3.4658">
        <ele>1064.4</ele>
        <time>2020-08-25T14:15:03.000Z</time>
      </trkpt>
      <trkpt lat="44.24751" lon="3.4658">
        <ele>1064.4</ele>
        <time>2020-08-25T14:15:05.000Z</time>
      </trkpt>
      <trkpt lat="44.24751" lon="3.46579">
        <ele>1064.4</ele>
        <time>2020-08-25T14:15:06.000Z</time>
      </trkpt>
      <trkpt lat="44.24751" lon="3.46579">
        <ele>1064.4</ele>
        <time>2020-08-25T14:15:08.000Z</time>
      </trkpt>
      <trkpt lat="44.24751" lon="3.46579">
        <ele>1064.4</ele>
        <time>2020-08-25T14:15:09.000Z</time>
      </trkpt>
      <trkpt lat="44.24751" lon="3.4658">
        <ele>1064.4</ele>
        <time>2020-08-25T14:15:11.000Z</time>
      </trkpt>
      <trkpt lat="44.24751" lon="3.4658">
        <ele>1064.4</ele>
        <time>2020-08-25T14:15:13.000Z</time>
      </trkpt>
      <trkpt lat="44.24749" lon="3.46589">
        <ele>1064.5</ele>
        <time>2020-08-25T14:32:42.000Z</time>
      </trkpt>
      <trkpt lat="44.24749" lon="3.4659">
        <ele>1064.5</ele>
        <time>2020-08-25T14:32:43.000Z</time>
      </trkpt>
      <trkpt lat="44.24747" lon="3.46593">
        <ele>1064.5</ele>
        <time>2020-08-25T14:32:45.000Z</time>
      </trkpt>
      <trkpt lat="44.24746" lon="3.46595">
        <ele>1064.5</ele>
        <time>2020-08-25T14:32:46.000Z</time>
      </trkpt>
      <trkpt lat="44.24744" lon="3.46596">
        <ele>1064.5</ele>
        <time>2020-08-25T14:32:47.000Z</time>
      </trkpt>
      <trkpt lat="44.24742" lon="3.46599">
        <ele>1064.5</ele>
        <time>2020-08-25T14:32:49.000Z</time>
      </trkpt>
      <trkpt lat="44.2474" lon="3.46603">
        <ele>1064.4</ele>
        <time>2020-08-25T14:32:50.000Z</time>
      </trkpt>
      <trkpt lat="44.24737" lon="3.46607">
        <ele>1064.3</ele>
        <time>2020-08-25T14:32:52.000Z</time>
      </trkpt>
      <trkpt lat="44.24735" lon="3.4661">
        <ele>1064.3</ele>
        <time>2020-08-25T14:32:53.000Z</time>
      </trkpt>
      <trkpt lat="44.2473" lon="3.4662">
        <ele>1064.1</ele>
        <time>2020-08-25T14:32:55.000Z</time>
      </trkpt>
      <trkpt lat="44.24727" lon="3.46625">
        <ele>1063.9</ele>
        <time>2020-08-25T14:32:56.000Z</time>
      </trkpt>
      <trkpt lat="44.24725" lon="3.46629">
        <ele>1063.8</ele>
        <time>2020-08-25T14:32:58.000Z</time>
      </trkpt>
      <trkpt lat="44.24723" lon="3.46634">
        <ele>1063.8</ele>
        <time>2020-08-25T14:32:59.000Z</time>
      </trkpt>
      <trkpt lat="44.24722" lon="3.46638">
        <ele>1063.7</ele>
        <time>2020-08-25T14:33:00.000Z</time>
      </trkpt>
      <trkpt lat="44.24719" lon="3.46644">
        <ele>1063.7</ele>
        <time>2020-08-25T14:33:02.000Z</time>
      </trkpt>
      <trkpt lat="44.24718" lon="3.46648">
        <ele>1063.6</ele>
        <time>2020-08-25T14:33:03.000Z</time>
      </trkpt>
      <trkpt lat="44.24716" lon="3.46651">
        <ele>1063.6</ele>
        <time>2020-08-25T14:33:04.000Z</time>
      </trkpt>
      <trkpt lat="44.24714" lon="3.46656">
        <ele>1063.7</ele>
        <time>2020-08-25T14:33:05.000Z</time>
      </trkpt>
      <trkpt lat="44.24712" lon="3.46659">
        <ele>1063.7</ele>
        <time>2020-08-25T14:33:07.000Z</time>
      </trkpt>
      <trkpt lat="44.24711" lon="3.46663">
        <ele>1063.7</ele>
        <time>2020-08-25T14:33:08.000Z</time>
      </trkpt>
      <trkpt lat="44.24709" lon="3.46667">
        <ele>1063.8</ele>
        <time>2020-08-25T14:33:09.000Z</time>
      </trkpt>
      <trkpt lat="44.24708" lon="3.46673">
        <ele>1063.9</ele>
        <time>2020-08-25T14:33:11.000Z</time>
      </trkpt>
      <trkpt lat="44.24706" lon="3.46678">
        <ele>1063.9</ele>
        <time>2020-08-25T14:33:12.000Z</time>
      </trkpt>
      <trkpt lat="44.24705" lon="3.46682">
        <ele>1063.9</ele>
        <time>2020-08-25T14:33:13.000Z</time>
      </trkpt>
      <trkpt lat="44.24702" lon="3.46686">
        <ele>1064</ele>
        <time>2020-08-25T14:33:14.000Z</time>
      </trkpt>
      <trkpt lat="44.247" lon="3.4669">
        <ele>1064</ele>
        <time>2020-08-25T14:33:16.000Z</time>
      </trkpt>
      <trkpt lat="44.24697" lon="3.46693">
        <ele>1064</ele>
        <time>2020-08-25T14:33:17.000Z</time>
      </trkpt>
      <trkpt lat="44.24694" lon="3.46697">
        <ele>1064</ele>
        <time>2020-08-25T14:33:19.000Z</time>
      </trkpt>
      <trkpt lat="44.24691" lon="3.467">
        <ele>1064</ele>
        <time>2020-08-25T14:33:20.000Z</time>
      </trkpt>
      <trkpt lat="44.24688" lon="3.46703">
        <ele>1064</ele>
        <time>2020-08-25T14:33:21.000Z</time>
      </trkpt>
      <trkpt lat="44.24685" lon="3.46706">
        <ele>1063.9</ele>
        <time>2020-08-25T14:33:22.000Z</time>
      </trkpt>
      <trkpt lat="44.24682" lon="3.46712">
        <ele>1063.8</ele>
        <time>2020-08-25T14:33:24.000Z</time>
      </trkpt>
      <trkpt lat="44.24679" lon="3.46718">
        <ele>1063.6</ele>
        <time>2020-08-25T14:33:25.000Z</time>
      </trkpt>
      <trkpt lat="44.24678" lon="3.46724">
        <ele>1063.5</ele>
        <time>2020-08-25T14:33:26.000Z</time>
      </trkpt>
      <trkpt lat="44.24678" lon="3.46732">
        <ele>1063.3</ele>
        <time>2020-08-25T14:33:28.000Z</time>
      </trkpt>
      <trkpt lat="44.24679" lon="3.46739">
        <ele>1063.2</ele>
        <time>2020-08-25T14:33:29.000Z</time>
      </trkpt>
      <trkpt lat="44.2468" lon="3.46746">
        <ele>1063</ele>
        <time>2020-08-25T14:33:30.000Z</time>
      </trkpt>
      <trkpt lat="44.2468" lon="3.46757">
        <ele>1062.8</ele>
        <time>2020-08-25T14:33:31.000Z</time>
      </trkpt>
      <trkpt lat="44.24676" lon="3.46774">
        <ele>1062.4</ele>
        <time>2020-08-25T14:33:33.000Z</time>
      </trkpt>
      <trkpt lat="44.2467" lon="3.46786">
        <ele>1062.2</ele>
        <time>2020-08-25T14:33:35.000Z</time>
      </trkpt>
      <trkpt lat="44.24663" lon="3.46796">
        <ele>1062.1</ele>
        <time>2020-08-25T14:33:37.000Z</time>
      </trkpt>
      <trkpt lat="44.24661" lon="3.46801">
        <ele>1062.1</ele>
        <time>2020-08-25T14:33:38.000Z</time>
      </trkpt>
      <trkpt lat="44.24657" lon="3.46809">
        <ele>1062.1</ele>
        <time>2020-08-25T14:33:40.000Z</time>
      </trkpt>
      <trkpt lat="44.24655" lon="3.46813">
        <ele>1062.2</ele>
        <time>2020-08-25T14:33:41.000Z</time>
      </trkpt>
      <trkpt lat="44.24654" lon="3.46815">
        <ele>1062.2</ele>
        <time>2020-08-25T14:33:42.000Z</time>
      </trkpt>
      <trkpt lat="44.24651" lon="3.46821">
        <ele>1062.2</ele>
        <time>2020-08-25T14:33:43.000Z</time>
      </trkpt>
      <trkpt lat="44.24649" lon="3.46828">
        <ele>1062.1</ele>
        <time>2020-08-25T14:33:45.000Z</time>
      </trkpt>
      <trkpt lat="44.24649" lon="3.46833">
        <ele>1062.1</ele>
        <time>2020-08-25T14:33:46.000Z</time>
      </trkpt>
      <trkpt lat="44.24652" lon="3.46837">
        <ele>1061.9</ele>
        <time>2020-08-25T14:33:48.000Z</time>
      </trkpt>
      <trkpt lat="44.24654" lon="3.46839">
        <ele>1061.8</ele>
        <time>2020-08-25T14:33:49.000Z</time>
      </trkpt>
      <trkpt lat="44.24658" lon="3.46845">
        <ele>1061.5</ele>
        <time>2020-08-25T14:33:51.000Z</time>
      </trkpt>
      <trkpt lat="44.24657" lon="3.46852">
        <ele>1061.3</ele>
        <time>2020-08-25T14:33:52.000Z</time>
      </trkpt>
      <trkpt lat="44.24654" lon="3.46858">
        <ele>1061.1</ele>
        <time>2020-08-25T14:33:53.000Z</time>
      </trkpt>
      <trkpt lat="44.24652" lon="3.46862">
        <ele>1060.9</ele>
        <time>2020-08-25T14:33:55.000Z</time>
      </trkpt>
      <trkpt lat="44.2465" lon="3.46865">
        <ele>1060.7</ele>
        <time>2020-08-25T14:33:56.000Z</time>
      </trkpt>
      <trkpt lat="44.24646" lon="3.46871">
        <ele>1060.4</ele>
        <time>2020-08-25T14:33:58.000Z</time>
      </trkpt>
      <trkpt lat="44.24643" lon="3.46879">
        <ele>1060.1</ele>
        <time>2020-08-25T14:33:59.000Z</time>
      </trkpt>
      <trkpt lat="44.2464" lon="3.46887">
        <ele>1059.8</ele>
        <time>2020-08-25T14:34:00.000Z</time>
      </trkpt>
      <trkpt lat="44.24634" lon="3.469">
        <ele>1059.4</ele>
        <time>2020-08-25T14:34:02.000Z</time>
      </trkpt>
      <trkpt lat="44.24627" lon="3.46911">
        <ele>1059.1</ele>
        <time>2020-08-25T14:34:04.000Z</time>
      </trkpt>
      <trkpt lat="44.24623" lon="3.46916">
        <ele>1059</ele>
        <time>2020-08-25T14:34:05.000Z</time>
      </trkpt>
      <trkpt lat="44.24616" lon="3.46925">
        <ele>1059.1</ele>
        <time>2020-08-25T14:34:07.000Z</time>
      </trkpt>
      <trkpt lat="44.2461" lon="3.46931">
        <ele>1059.3</ele>
        <time>2020-08-25T14:34:09.000Z</time>
      </trkpt>
      <trkpt lat="44.24604" lon="3.46935">
        <ele>1059.5</ele>
        <time>2020-08-25T14:34:11.000Z</time>
      </trkpt>
      <trkpt lat="44.24601" lon="3.46938">
        <ele>1059.7</ele>
        <time>2020-08-25T14:34:12.000Z</time>
      </trkpt>
      <trkpt lat="44.24598" lon="3.4694">
        <ele>1059.8</ele>
        <time>2020-08-25T14:34:13.000Z</time>
      </trkpt>
      <trkpt lat="44.24594" lon="3.46943">
        <ele>1059.9</ele>
        <time>2020-08-25T14:34:14.000Z</time>
      </trkpt>
      <trkpt lat="44.24592" lon="3.46945">
        <ele>1059.9</ele>
        <time>2020-08-25T14:34:16.000Z</time>
      </trkpt>
      <trkpt lat="44.24589" lon="3.46947">
        <ele>1059.9</ele>
        <time>2020-08-25T14:34:17.000Z</time>
      </trkpt>
      <trkpt lat="44.24587" lon="3.46949">
        <ele>1059.9</ele>
        <time>2020-08-25T14:34:18.000Z</time>
      </trkpt>
      <trkpt lat="44.24584" lon="3.46952">
        <ele>1059.9</ele>
        <time>2020-08-25T14:34:19.000Z</time>
      </trkpt>
      <trkpt lat="44.24583" lon="3.46953">
        <ele>1059.9</ele>
        <time>2020-08-25T14:34:20.000Z</time>
      </trkpt>
      <trkpt lat="44.24579" lon="3.46957">
        <ele>1059.9</ele>
        <time>2020-08-25T14:34:21.000Z</time>
      </trkpt>
      <trkpt lat="44.24578" lon="3.46958">
        <ele>1059.9</ele>
        <time>2020-08-25T14:34:22.000Z</time>
      </trkpt>
      <trkpt lat="44.24575" lon="3.46962">
        <ele>1059.9</ele>
        <time>2020-08-25T14:34:24.000Z</time>
      </trkpt>
      <trkpt lat="44.24572" lon="3.46965">
        <ele>1060</ele>
        <time>2020-08-25T14:34:25.000Z</time>
      </trkpt>
      <trkpt lat="44.2457" lon="3.46968">
        <ele>1060</ele>
        <time>2020-08-25T14:34:26.000Z</time>
      </trkpt>
      <trkpt lat="44.24567" lon="3.46973">
        <ele>1060.1</ele>
        <time>2020-08-25T14:34:28.000Z</time>
      </trkpt>
      <trkpt lat="44.24565" lon="3.46977">
        <ele>1060.2</ele>
        <time>2020-08-25T14:34:29.000Z</time>
      </trkpt>
      <trkpt lat="44.24563" lon="3.46979">
        <ele>1060.3</ele>
        <time>2020-08-25T14:34:30.000Z</time>
      </trkpt>
      <trkpt lat="44.24559" lon="3.46984">
        <ele>1060.5</ele>
        <time>2020-08-25T14:34:32.000Z</time>
      </trkpt>
      <trkpt lat="44.24556" lon="3.46986">
        <ele>1060.7</ele>
        <time>2020-08-25T14:34:33.000Z</time>
      </trkpt>
      <trkpt lat="44.24554" lon="3.46987">
        <ele>1060.8</ele>
        <time>2020-08-25T14:34:34.000Z</time>
      </trkpt>
      <trkpt lat="44.24551" lon="3.46989">
        <ele>1060.9</ele>
        <time>2020-08-25T14:34:36.000Z</time>
      </trkpt>
      <trkpt lat="44.24549" lon="3.4699">
        <ele>1061</ele>
        <time>2020-08-25T14:34:37.000Z</time>
      </trkpt>
      <trkpt lat="44.24545" lon="3.46992">
        <ele>1061.2</ele>
        <time>2020-08-25T14:34:38.000Z</time>
      </trkpt>
      <trkpt lat="44.24545" lon="3.46993">
        <ele>1061.2</ele>
        <time>2020-08-25T14:34:39.000Z</time>
      </trkpt>
      <trkpt lat="44.24542" lon="3.46995">
        <ele>1061.4</ele>
        <time>2020-08-25T14:34:41.000Z</time>
      </trkpt>
      <trkpt lat="44.24541" lon="3.46996">
        <ele>1061.5</ele>
        <time>2020-08-25T14:34:42.000Z</time>
      </trkpt>
      <trkpt lat="44.24539" lon="3.46998">
        <ele>1061.6</ele>
        <time>2020-08-25T14:34:43.000Z</time>
      </trkpt>
      <trkpt lat="44.24538" lon="3.47">
        <ele>1061.7</ele>
        <time>2020-08-25T14:34:44.000Z</time>
      </trkpt>
      <trkpt lat="44.24536" lon="3.47001">
        <ele>1061.8</ele>
        <time>2020-08-25T14:34:46.000Z</time>
      </trkpt>
      <trkpt lat="44.24535" lon="3.47002">
        <ele>1061.8</ele>
        <time>2020-08-25T14:34:47.000Z</time>
      </trkpt>
      <trkpt lat="44.24534" lon="3.47003">
        <ele>1061.9</ele>
        <time>2020-08-25T14:34:48.000Z</time>
      </trkpt>
      <trkpt lat="44.24531" lon="3.47005">
        <ele>1062</ele>
        <time>2020-08-25T14:34:49.000Z</time>
      </trkpt>
      <trkpt lat="44.2453" lon="3.47006">
        <ele>1062.1</ele>
        <time>2020-08-25T14:34:50.000Z</time>
      </trkpt>
      <trkpt lat="44.24528" lon="3.47007">
        <ele>1062.2</ele>
        <time>2020-08-25T14:34:51.000Z</time>
      </trkpt>
      <trkpt lat="44.24527" lon="3.47008">
        <ele>1062.2</ele>
        <time>2020-08-25T14:34:52.000Z</time>
      </trkpt>
      <trkpt lat="44.24526" lon="3.47009">
        <ele>1062.3</ele>
        <time>2020-08-25T14:34:54.000Z</time>
      </trkpt>
      <trkpt lat="44.24525" lon="3.4701">
        <ele>1062.4</ele>
        <time>2020-08-25T14:34:55.000Z</time>
      </trkpt>
      <trkpt lat="44.24523" lon="3.47012">
        <ele>1062.4</ele>
        <time>2020-08-25T14:34:56.000Z</time>
      </trkpt>
      <trkpt lat="44.24521" lon="3.47013">
        <ele>1062.5</ele>
        <time>2020-08-25T14:34:58.000Z</time>
      </trkpt>
      <trkpt lat="44.24517" lon="3.47016">
        <ele>1062.7</ele>
        <time>2020-08-25T14:35:00.000Z</time>
      </trkpt>
      <trkpt lat="44.24515" lon="3.47018">
        <ele>1062.8</ele>
        <time>2020-08-25T14:35:02.000Z</time>
      </trkpt>
      <trkpt lat="44.24514" lon="3.47019">
        <ele>1062.9</ele>
        <time>2020-08-25T14:35:03.000Z</time>
      </trkpt>
      <trkpt lat="44.24513" lon="3.4702">
        <ele>1063</ele>
        <time>2020-08-25T14:35:04.000Z</time>
      </trkpt>
      <trkpt lat="44.24511" lon="3.47023">
        <ele>1063.1</ele>
        <time>2020-08-25T14:35:06.000Z</time>
      </trkpt>
      <trkpt lat="44.24509" lon="3.47025">
        <ele>1063.2</ele>
        <time>2020-08-25T14:35:07.000Z</time>
      </trkpt>
      <trkpt lat="44.24506" lon="3.47025">
        <ele>1063.4</ele>
        <time>2020-08-25T14:35:09.000Z</time>
      </trkpt>
      <trkpt lat="44.24506" lon="3.47026">
        <ele>1063.5</ele>
        <time>2020-08-25T14:35:11.000Z</time>
      </trkpt>
      <trkpt lat="44.24505" lon="3.47026">
        <ele>1063.5</ele>
        <time>2020-08-25T14:35:13.000Z</time>
      </trkpt>
      <trkpt lat="44.24503" lon="3.47027">
        <ele>1063.6</ele>
        <time>2020-08-25T14:35:14.000Z</time>
      </trkpt>
      <trkpt lat="44.24502" lon="3.47028">
        <ele>1063.7</ele>
        <time>2020-08-25T14:35:15.000Z</time>
      </trkpt>
      <trkpt lat="44.245" lon="3.47029">
        <ele>1063.9</ele>
        <time>2020-08-25T14:35:16.000Z</time>
      </trkpt>
      <trkpt lat="44.24498" lon="3.4703">
        <ele>1064.1</ele>
        <time>2020-08-25T14:35:18.000Z</time>
      </trkpt>
      <trkpt lat="44.24497" lon="3.4703">
        <ele>1064.2</ele>
        <time>2020-08-25T14:35:19.000Z</time>
      </trkpt>
      <trkpt lat="44.24495" lon="3.47031">
        <ele>1064.3</ele>
        <time>2020-08-25T14:35:20.000Z</time>
      </trkpt>
      <trkpt lat="44.24494" lon="3.47032">
        <ele>1064.4</ele>
        <time>2020-08-25T14:35:21.000Z</time>
      </trkpt>
      <trkpt lat="44.24493" lon="3.47032">
        <ele>1064.5</ele>
        <time>2020-08-25T14:35:23.000Z</time>
      </trkpt>
      <trkpt lat="44.24492" lon="3.47034">
        <ele>1064.7</ele>
        <time>2020-08-25T14:35:24.000Z</time>
      </trkpt>
      <trkpt lat="44.2449" lon="3.47036">
        <ele>1064.9</ele>
        <time>2020-08-25T14:35:26.000Z</time>
      </trkpt>
      <trkpt lat="44.24489" lon="3.47037">
        <ele>1065</ele>
        <time>2020-08-25T14:35:28.000Z</time>
      </trkpt>
      <trkpt lat="44.24488" lon="3.4704">
        <ele>1065.3</ele>
        <time>2020-08-25T14:35:29.000Z</time>
      </trkpt>
      <trkpt lat="44.24487" lon="3.47041">
        <ele>1065.4</ele>
        <time>2020-08-25T14:35:31.000Z</time>
      </trkpt>
      <trkpt lat="44.24487" lon="3.47042">
        <ele>1065.5</ele>
        <time>2020-08-25T14:35:32.000Z</time>
      </trkpt>
      <trkpt lat="44.24486" lon="3.47043">
        <ele>1065.6</ele>
        <time>2020-08-25T14:35:34.000Z</time>
      </trkpt>
      <trkpt lat="44.24484" lon="3.47043">
        <ele>1065.8</ele>
        <time>2020-08-25T14:35:35.000Z</time>
      </trkpt>
      <trkpt lat="44.24483" lon="3.47044">
        <ele>1065.9</ele>
        <time>2020-08-25T14:35:37.000Z</time>
      </trkpt>
      <trkpt lat="44.24482" lon="3.47044">
        <ele>1066.1</ele>
        <time>2020-08-25T14:35:38.000Z</time>
      </trkpt>
      <trkpt lat="44.24481" lon="3.47045">
        <ele>1066.2</ele>
        <time>2020-08-25T14:35:40.000Z</time>
      </trkpt>
      <trkpt lat="44.24481" lon="3.47045">
        <ele>1066.2</ele>
        <time>2020-08-25T14:35:42.000Z</time>
      </trkpt>
      <trkpt lat="44.2448" lon="3.47045">
        <ele>1066.3</ele>
        <time>2020-08-25T14:35:43.000Z</time>
      </trkpt>
      <trkpt lat="44.2448" lon="3.47045">
        <ele>1066.3</ele>
        <time>2020-08-25T14:35:45.000Z</time>
      </trkpt>
      <trkpt lat="44.2448" lon="3.47046">
        <ele>1066.4</ele>
        <time>2020-08-25T14:35:47.000Z</time>
      </trkpt>
      <trkpt lat="44.24479" lon="3.47046">
        <ele>1066.4</ele>
        <time>2020-08-25T14:35:48.000Z</time>
      </trkpt>
      <trkpt lat="44.24478" lon="3.47049">
        <ele>1066.7</ele>
        <time>2020-08-25T14:36:02.000Z</time>
      </trkpt>
      <trkpt lat="44.24477" lon="3.47051">
        <ele>1066.9</ele>
        <time>2020-08-25T14:36:04.000Z</time>
      </trkpt>
      <trkpt lat="44.24476" lon="3.47053">
        <ele>1067.1</ele>
        <time>2020-08-25T14:36:05.000Z</time>
      </trkpt>
      <trkpt lat="44.24475" lon="3.47054">
        <ele>1067.3</ele>
        <time>2020-08-25T14:36:07.000Z</time>
      </trkpt>
      <trkpt lat="44.24474" lon="3.47056">
        <ele>1067.5</ele>
        <time>2020-08-25T14:36:08.000Z</time>
      </trkpt>
      <trkpt lat="44.24474" lon="3.47057">
        <ele>1067.6</ele>
        <time>2020-08-25T14:36:09.000Z</time>
      </trkpt>
      <trkpt lat="44.24472" lon="3.4706">
        <ele>1067.9</ele>
        <time>2020-08-25T14:36:11.000Z</time>
      </trkpt>
      <trkpt lat="44.24471" lon="3.47062">
        <ele>1068.1</ele>
        <time>2020-08-25T14:36:13.000Z</time>
      </trkpt>
      <trkpt lat="44.2447" lon="3.47063">
        <ele>1068.3</ele>
        <time>2020-08-25T14:36:14.000Z</time>
      </trkpt>
      <trkpt lat="44.24468" lon="3.47065">
        <ele>1068.5</ele>
        <time>2020-08-25T14:36:15.000Z</time>
      </trkpt>
      <trkpt lat="44.24467" lon="3.47065">
        <ele>1068.6</ele>
        <time>2020-08-25T14:36:16.000Z</time>
      </trkpt>
      <trkpt lat="44.24466" lon="3.47066">
        <ele>1068.7</ele>
        <time>2020-08-25T14:36:17.000Z</time>
      </trkpt>
      <trkpt lat="44.24465" lon="3.47066">
        <ele>1068.9</ele>
        <time>2020-08-25T14:36:19.000Z</time>
      </trkpt>
      <trkpt lat="44.24463" lon="3.47067">
        <ele>1069.1</ele>
        <time>2020-08-25T14:36:20.000Z</time>
      </trkpt>
      <trkpt lat="44.24462" lon="3.47068">
        <ele>1069.2</ele>
        <time>2020-08-25T14:36:21.000Z</time>
      </trkpt>
      <trkpt lat="44.24461" lon="3.47068">
        <ele>1069.3</ele>
        <time>2020-08-25T14:36:22.000Z</time>
      </trkpt>
      <trkpt lat="44.24459" lon="3.47069">
        <ele>1069.5</ele>
        <time>2020-08-25T14:36:24.000Z</time>
      </trkpt>
      <trkpt lat="44.24458" lon="3.4707">
        <ele>1069.7</ele>
        <time>2020-08-25T14:36:25.000Z</time>
      </trkpt>
      <trkpt lat="44.24457" lon="3.47071">
        <ele>1069.8</ele>
        <time>2020-08-25T14:36:26.000Z</time>
      </trkpt>
      <trkpt lat="44.24456" lon="3.47072">
        <ele>1070</ele>
        <time>2020-08-25T14:36:28.000Z</time>
      </trkpt>
      <trkpt lat="44.24454" lon="3.47074">
        <ele>1070.1</ele>
        <time>2020-08-25T14:36:29.000Z</time>
      </trkpt>
      <trkpt lat="44.24453" lon="3.47074">
        <ele>1070.3</ele>
        <time>2020-08-25T14:36:31.000Z</time>
      </trkpt>
      <trkpt lat="44.24453" lon="3.47075">
        <ele>1070.4</ele>
        <time>2020-08-25T14:36:32.000Z</time>
      </trkpt>
      <trkpt lat="44.24451" lon="3.47077">
        <ele>1070.5</ele>
        <time>2020-08-25T14:36:34.000Z</time>
      </trkpt>
      <trkpt lat="44.24451" lon="3.47078">
        <ele>1070.7</ele>
        <time>2020-08-25T14:36:35.000Z</time>
      </trkpt>
      <trkpt lat="44.24449" lon="3.47079">
        <ele>1070.8</ele>
        <time>2020-08-25T14:36:37.000Z</time>
      </trkpt>
      <trkpt lat="44.24448" lon="3.4708">
        <ele>1071</ele>
        <time>2020-08-25T14:36:38.000Z</time>
      </trkpt>
      <trkpt lat="44.24446" lon="3.47082">
        <ele>1071.2</ele>
        <time>2020-08-25T14:36:39.000Z</time>
      </trkpt>
      <trkpt lat="44.24445" lon="3.47083">
        <ele>1071.3</ele>
        <time>2020-08-25T14:36:41.000Z</time>
      </trkpt>
      <trkpt lat="44.24444" lon="3.47084">
        <ele>1071.5</ele>
        <time>2020-08-25T14:36:43.000Z</time>
      </trkpt>
      <trkpt lat="44.24443" lon="3.47085">
        <ele>1071.6</ele>
        <time>2020-08-25T14:36:44.000Z</time>
      </trkpt>
      <trkpt lat="44.24442" lon="3.47086">
        <ele>1071.7</ele>
        <time>2020-08-25T14:36:46.000Z</time>
      </trkpt>
      <trkpt lat="44.24441" lon="3.47087">
        <ele>1071.8</ele>
        <time>2020-08-25T14:36:47.000Z</time>
      </trkpt>
      <trkpt lat="44.2444" lon="3.47087">
        <ele>1071.9</ele>
        <time>2020-08-25T14:36:49.000Z</time>
      </trkpt>
      <trkpt lat="44.24439" lon="3.47088">
        <ele>1072.1</ele>
        <time>2020-08-25T14:36:50.000Z</time>
      </trkpt>
      <trkpt lat="44.24438" lon="3.47089">
        <ele>1072.2</ele>
        <time>2020-08-25T14:36:51.000Z</time>
      </trkpt>
      <trkpt lat="44.24436" lon="3.4709">
        <ele>1072.4</ele>
        <time>2020-08-25T14:36:53.000Z</time>
      </trkpt>
      <trkpt lat="44.24435" lon="3.47091">
        <ele>1072.6</ele>
        <time>2020-08-25T14:36:54.000Z</time>
      </trkpt>
      <trkpt lat="44.24435" lon="3.47091">
        <ele>1072.6</ele>
        <time>2020-08-25T14:36:55.000Z</time>
      </trkpt>
      <trkpt lat="44.24434" lon="3.47092">
        <ele>1072.7</ele>
        <time>2020-08-25T14:36:56.000Z</time>
      </trkpt>
      <trkpt lat="44.24433" lon="3.47093">
        <ele>1072.9</ele>
        <time>2020-08-25T14:36:57.000Z</time>
      </trkpt>
      <trkpt lat="44.24432" lon="3.47093">
        <ele>1073</ele>
        <time>2020-08-25T14:36:58.000Z</time>
      </trkpt>
      <trkpt lat="44.24431" lon="3.47094">
        <ele>1073.1</ele>
        <time>2020-08-25T14:37:00.000Z</time>
      </trkpt>
      <trkpt lat="44.2443" lon="3.47094">
        <ele>1073.2</ele>
        <time>2020-08-25T14:37:01.000Z</time>
      </trkpt>
      <trkpt lat="44.24429" lon="3.47095">
        <ele>1073.4</ele>
        <time>2020-08-25T14:37:02.000Z</time>
      </trkpt>
      <trkpt lat="44.24427" lon="3.47095">
        <ele>1073.5</ele>
        <time>2020-08-25T14:37:04.000Z</time>
      </trkpt>
      <trkpt lat="44.24426" lon="3.47096">
        <ele>1073.7</ele>
        <time>2020-08-25T14:37:05.000Z</time>
      </trkpt>
      <trkpt lat="44.24426" lon="3.47096">
        <ele>1073.7</ele>
        <time>2020-08-25T14:37:06.000Z</time>
      </trkpt>
      <trkpt lat="44.24425" lon="3.47096">
        <ele>1073.8</ele>
        <time>2020-08-25T14:37:08.000Z</time>
      </trkpt>
      <trkpt lat="44.24424" lon="3.47096">
        <ele>1073.9</ele>
        <time>2020-08-25T14:37:10.000Z</time>
      </trkpt>
      <trkpt lat="44.24423" lon="3.47097">
        <ele>1074.1</ele>
        <time>2020-08-25T14:37:11.000Z</time>
      </trkpt>
      <trkpt lat="44.24422" lon="3.47098">
        <ele>1074.2</ele>
        <time>2020-08-25T14:37:12.000Z</time>
      </trkpt>
      <trkpt lat="44.24421" lon="3.47099">
        <ele>1074.4</ele>
        <time>2020-08-25T14:37:13.000Z</time>
      </trkpt>
      <trkpt lat="44.24419" lon="3.471">
        <ele>1074.7</ele>
        <time>2020-08-25T14:37:15.000Z</time>
      </trkpt>
      <trkpt lat="44.24417" lon="3.47101">
        <ele>1075</ele>
        <time>2020-08-25T14:37:17.000Z</time>
      </trkpt>
      <trkpt lat="44.24416" lon="3.47102">
        <ele>1075.3</ele>
        <time>2020-08-25T14:37:19.000Z</time>
      </trkpt>
      <trkpt lat="44.24414" lon="3.47103">
        <ele>1075.5</ele>
        <time>2020-08-25T14:37:20.000Z</time>
      </trkpt>
      <trkpt lat="44.24413" lon="3.47104">
        <ele>1075.7</ele>
        <time>2020-08-25T14:37:21.000Z</time>
      </trkpt>
      <trkpt lat="44.24411" lon="3.47105">
        <ele>1076.1</ele>
        <time>2020-08-25T14:37:23.000Z</time>
      </trkpt>
      <trkpt lat="44.24409" lon="3.47106">
        <ele>1076.3</ele>
        <time>2020-08-25T14:37:25.000Z</time>
      </trkpt>
      <trkpt lat="44.24407" lon="3.47106">
        <ele>1076.6</ele>
        <time>2020-08-25T14:37:27.000Z</time>
      </trkpt>
      <trkpt lat="44.24406" lon="3.47107">
        <ele>1076.7</ele>
        <time>2020-08-25T14:37:28.000Z</time>
      </trkpt>
      <trkpt lat="44.24404" lon="3.47108">
        <ele>1077.1</ele>
        <time>2020-08-25T14:37:30.000Z</time>
      </trkpt>
      <trkpt lat="44.24404" lon="3.47109">
        <ele>1077.2</ele>
        <time>2020-08-25T14:37:31.000Z</time>
      </trkpt>
      <trkpt lat="44.24403" lon="3.47109">
        <ele>1077.3</ele>
        <time>2020-08-25T14:37:32.000Z</time>
      </trkpt>
      <trkpt lat="44.24403" lon="3.47109">
        <ele>1077.4</ele>
        <time>2020-08-25T14:37:34.000Z</time>
      </trkpt>
      <trkpt lat="44.24402" lon="3.47109">
        <ele>1077.5</ele>
        <time>2020-08-25T14:37:35.000Z</time>
      </trkpt>
      <trkpt lat="44.24401" lon="3.4711">
        <ele>1077.6</ele>
        <time>2020-08-25T14:37:36.000Z</time>
      </trkpt>
      <trkpt lat="44.244" lon="3.4711">
        <ele>1077.9</ele>
        <time>2020-08-25T14:37:38.000Z</time>
      </trkpt>
      <trkpt lat="44.24399" lon="3.47111">
        <ele>1078</ele>
        <time>2020-08-25T14:37:40.000Z</time>
      </trkpt>
      <trkpt lat="44.24398" lon="3.47111">
        <ele>1078.2</ele>
        <time>2020-08-25T14:37:41.000Z</time>
      </trkpt>
      <trkpt lat="44.24397" lon="3.47112">
        <ele>1078.4</ele>
        <time>2020-08-25T14:37:42.000Z</time>
      </trkpt>
      <trkpt lat="44.24396" lon="3.47113">
        <ele>1078.6</ele>
        <time>2020-08-25T14:37:44.000Z</time>
      </trkpt>
      <trkpt lat="44.24395" lon="3.47113">
        <ele>1078.8</ele>
        <time>2020-08-25T14:37:45.000Z</time>
      </trkpt>
      <trkpt lat="44.24395" lon="3.47113">
        <ele>1078.8</ele>
        <time>2020-08-25T14:37:46.000Z</time>
      </trkpt>
      <trkpt lat="44.24394" lon="3.47114">
        <ele>1079</ele>
        <time>2020-08-25T14:37:48.000Z</time>
      </trkpt>
      <trkpt lat="44.24394" lon="3.47114">
        <ele>1079.1</ele>
        <time>2020-08-25T14:37:49.000Z</time>
      </trkpt>
      <trkpt lat="44.24392" lon="3.47115">
        <ele>1079.4</ele>
        <time>2020-08-25T14:37:51.000Z</time>
      </trkpt>
      <trkpt lat="44.24391" lon="3.47115">
        <ele>1079.5</ele>
        <time>2020-08-25T14:37:52.000Z</time>
      </trkpt>
      <trkpt lat="44.24391" lon="3.47115">
        <ele>1079.6</ele>
        <time>2020-08-25T14:37:53.000Z</time>
      </trkpt>
      <trkpt lat="44.2439" lon="3.47116">
        <ele>1079.9</ele>
        <time>2020-08-25T14:37:54.000Z</time>
      </trkpt>
      <trkpt lat="44.24389" lon="3.47118">
        <ele>1080.8</ele>
        <time>2020-08-25T14:37:56.000Z</time>
      </trkpt>
      <trkpt lat="44.24388" lon="3.47119">
        <ele>1081</ele>
        <time>2020-08-25T14:37:57.000Z</time>
      </trkpt>
      <trkpt lat="44.24387" lon="3.47121">
        <ele>1081.3</ele>
        <time>2020-08-25T14:37:59.000Z</time>
      </trkpt>
      <trkpt lat="44.24386" lon="3.47121">
        <ele>1081.4</ele>
        <time>2020-08-25T14:38:00.000Z</time>
      </trkpt>
      <trkpt lat="44.24385" lon="3.47123">
        <ele>1081.8</ele>
        <time>2020-08-25T14:38:01.000Z</time>
      </trkpt>
      <trkpt lat="44.24384" lon="3.47124">
        <ele>1082</ele>
        <time>2020-08-25T14:38:02.000Z</time>
      </trkpt>
      <trkpt lat="44.24383" lon="3.47125">
        <ele>1082.2</ele>
        <time>2020-08-25T14:38:03.000Z</time>
      </trkpt>
      <trkpt lat="44.24382" lon="3.47126">
        <ele>1082.5</ele>
        <time>2020-08-25T14:38:05.000Z</time>
      </trkpt>
      <trkpt lat="44.24382" lon="3.47127">
        <ele>1082.6</ele>
        <time>2020-08-25T14:38:07.000Z</time>
      </trkpt>
      <trkpt lat="44.24381" lon="3.47128">
        <ele>1082.8</ele>
        <time>2020-08-25T14:38:09.000Z</time>
      </trkpt>
      <trkpt lat="44.2438" lon="3.47128">
        <ele>1082.9</ele>
        <time>2020-08-25T14:38:10.000Z</time>
      </trkpt>
      <trkpt lat="44.2438" lon="3.47128">
        <ele>1082.9</ele>
        <time>2020-08-25T14:38:12.000Z</time>
      </trkpt>
      <trkpt lat="44.2438" lon="3.47129">
        <ele>1083</ele>
        <time>2020-08-25T14:38:13.000Z</time>
      </trkpt>
      <trkpt lat="44.2438" lon="3.47129">
        <ele>1083.1</ele>
        <time>2020-08-25T14:38:14.000Z</time>
      </trkpt>
      <trkpt lat="44.24379" lon="3.4713">
        <ele>1083.3</ele>
        <time>2020-08-25T14:38:15.000Z</time>
      </trkpt>
      <trkpt lat="44.24379" lon="3.4713">
        <ele>1083.4</ele>
        <time>2020-08-25T14:38:17.000Z</time>
      </trkpt>
      <trkpt lat="44.24378" lon="3.47131">
        <ele>1083.6</ele>
        <time>2020-08-25T14:38:18.000Z</time>
      </trkpt>
      <trkpt lat="44.24378" lon="3.47133">
        <ele>1083.9</ele>
        <time>2020-08-25T14:38:20.000Z</time>
      </trkpt>
      <trkpt lat="44.24369" lon="3.47144">
        <ele>1086.4</ele>
        <time>2020-08-25T14:38:37.000Z</time>
      </trkpt>
      <trkpt lat="44.24368" lon="3.47146">
        <ele>1086.7</ele>
        <time>2020-08-25T14:38:38.000Z</time>
      </trkpt>
      <trkpt lat="44.24367" lon="3.47147">
        <ele>1087</ele>
        <time>2020-08-25T14:38:40.000Z</time>
      </trkpt>
      <trkpt lat="44.24367" lon="3.47147">
        <ele>1087</ele>
        <time>2020-08-25T14:38:41.000Z</time>
      </trkpt>
      <trkpt lat="44.24367" lon="3.47148">
        <ele>1087.2</ele>
        <time>2020-08-25T14:38:43.000Z</time>
      </trkpt>
      <trkpt lat="44.24367" lon="3.47148">
        <ele>1087.3</ele>
        <time>2020-08-25T14:38:44.000Z</time>
      </trkpt>
      <trkpt lat="44.24366" lon="3.47149">
        <ele>1087.4</ele>
        <time>2020-08-25T14:38:45.000Z</time>
      </trkpt>
      <trkpt lat="44.24365" lon="3.4715">
        <ele>1087.7</ele>
        <time>2020-08-25T14:38:47.000Z</time>
      </trkpt>
      <trkpt lat="44.24364" lon="3.4715">
        <ele>1087.8</ele>
        <time>2020-08-25T14:38:48.000Z</time>
      </trkpt>
      <trkpt lat="44.24364" lon="3.47151">
        <ele>1088</ele>
        <time>2020-08-25T14:38:50.000Z</time>
      </trkpt>
      <trkpt lat="44.24363" lon="3.47151">
        <ele>1088.1</ele>
        <time>2020-08-25T14:38:51.000Z</time>
      </trkpt>
      <trkpt lat="44.24362" lon="3.47152">
        <ele>1088.3</ele>
        <time>2020-08-25T14:38:53.000Z</time>
      </trkpt>
      <trkpt lat="44.24362" lon="3.47152">
        <ele>1088.5</ele>
        <time>2020-08-25T14:38:54.000Z</time>
      </trkpt>
      <trkpt lat="44.24361" lon="3.47153">
        <ele>1088.7</ele>
        <time>2020-08-25T14:38:56.000Z</time>
      </trkpt>
      <trkpt lat="44.24352" lon="3.47159">
        <ele>1090.6</ele>
        <time>2020-08-25T14:39:11.000Z</time>
      </trkpt>
      <trkpt lat="44.24351" lon="3.47161">
        <ele>1090.9</ele>
        <time>2020-08-25T14:39:13.000Z</time>
      </trkpt>
      <trkpt lat="44.24351" lon="3.47161">
        <ele>1091.1</ele>
        <time>2020-08-25T14:39:14.000Z</time>
      </trkpt>
      <trkpt lat="44.2435" lon="3.47162">
        <ele>1091.2</ele>
        <time>2020-08-25T14:39:15.000Z</time>
      </trkpt>
      <trkpt lat="44.2435" lon="3.47163">
        <ele>1091.4</ele>
        <time>2020-08-25T14:39:16.000Z</time>
      </trkpt>
      <trkpt lat="44.24348" lon="3.47164">
        <ele>1091.7</ele>
        <time>2020-08-25T14:39:18.000Z</time>
      </trkpt>
      <trkpt lat="44.24348" lon="3.47165">
        <ele>1091.8</ele>
        <time>2020-08-25T14:39:20.000Z</time>
      </trkpt>
      <trkpt lat="44.24347" lon="3.47166">
        <ele>1092</ele>
        <time>2020-08-25T14:39:21.000Z</time>
      </trkpt>
      <trkpt lat="44.24346" lon="3.47166">
        <ele>1092.2</ele>
        <time>2020-08-25T14:39:23.000Z</time>
      </trkpt>
      <trkpt lat="44.24346" lon="3.47167">
        <ele>1092.4</ele>
        <time>2020-08-25T14:39:24.000Z</time>
      </trkpt>
      <trkpt lat="44.24345" lon="3.47167">
        <ele>1092.5</ele>
        <time>2020-08-25T14:39:25.000Z</time>
      </trkpt>
      <trkpt lat="44.24345" lon="3.47168">
        <ele>1092.7</ele>
        <time>2020-08-25T14:39:27.000Z</time>
      </trkpt>
      <trkpt lat="44.24344" lon="3.47168">
        <ele>1092.8</ele>
        <time>2020-08-25T14:39:28.000Z</time>
      </trkpt>
      <trkpt lat="44.24344" lon="3.47169">
        <ele>1092.9</ele>
        <time>2020-08-25T14:39:30.000Z</time>
      </trkpt>
      <trkpt lat="44.24343" lon="3.47169">
        <ele>1093</ele>
        <time>2020-08-25T14:39:31.000Z</time>
      </trkpt>
      <trkpt lat="44.24342" lon="3.4717">
        <ele>1093.3</ele>
        <time>2020-08-25T14:39:33.000Z</time>
      </trkpt>
      <trkpt lat="44.24341" lon="3.47171">
        <ele>1093.5</ele>
        <time>2020-08-25T14:39:35.000Z</time>
      </trkpt>
      <trkpt lat="44.24341" lon="3.47172">
        <ele>1093.7</ele>
        <time>2020-08-25T14:39:37.000Z</time>
      </trkpt>
      <trkpt lat="44.2434" lon="3.47173">
        <ele>1093.9</ele>
        <time>2020-08-25T14:39:38.000Z</time>
      </trkpt>
      <trkpt lat="44.24339" lon="3.47174">
        <ele>1094.2</ele>
        <time>2020-08-25T14:39:40.000Z</time>
      </trkpt>
      <trkpt lat="44.24339" lon="3.47176">
        <ele>1094.4</ele>
        <time>2020-08-25T14:39:41.000Z</time>
      </trkpt>
      <trkpt lat="44.24338" lon="3.47177">
        <ele>1094.7</ele>
        <time>2020-08-25T14:39:42.000Z</time>
      </trkpt>
      <trkpt lat="44.24337" lon="3.47178">
        <ele>1094.9</ele>
        <time>2020-08-25T14:39:43.000Z</time>
      </trkpt>
      <trkpt lat="44.24336" lon="3.47179">
        <ele>1095.1</ele>
        <time>2020-08-25T14:39:45.000Z</time>
      </trkpt>
      <trkpt lat="44.24336" lon="3.4718">
        <ele>1095.3</ele>
        <time>2020-08-25T14:39:46.000Z</time>
      </trkpt>
      <trkpt lat="44.24335" lon="3.47182">
        <ele>1095.6</ele>
        <time>2020-08-25T14:39:48.000Z</time>
      </trkpt>
      <trkpt lat="44.24334" lon="3.47182">
        <ele>1095.8</ele>
        <time>2020-08-25T14:39:50.000Z</time>
      </trkpt>
      <trkpt lat="44.24333" lon="3.47183">
        <ele>1095.9</ele>
        <time>2020-08-25T14:39:51.000Z</time>
      </trkpt>
      <trkpt lat="44.24333" lon="3.47183">
        <ele>1096</ele>
        <time>2020-08-25T14:39:52.000Z</time>
      </trkpt>
      <trkpt lat="44.24332" lon="3.47184">
        <ele>1096.2</ele>
        <time>2020-08-25T14:39:54.000Z</time>
      </trkpt>
      <trkpt lat="44.24332" lon="3.47184">
        <ele>1096.3</ele>
        <time>2020-08-25T14:39:55.000Z</time>
      </trkpt>
      <trkpt lat="44.24331" lon="3.47185">
        <ele>1096.5</ele>
        <time>2020-08-25T14:39:57.000Z</time>
      </trkpt>
      <trkpt lat="44.2433" lon="3.47185">
        <ele>1096.6</ele>
        <time>2020-08-25T14:39:58.000Z</time>
      </trkpt>
      <trkpt lat="44.2433" lon="3.47186">
        <ele>1096.7</ele>
        <time>2020-08-25T14:39:59.000Z</time>
      </trkpt>
      <trkpt lat="44.24329" lon="3.47186">
        <ele>1097</ele>
        <time>2020-08-25T14:40:01.000Z</time>
      </trkpt>
      <trkpt lat="44.24328" lon="3.47187">
        <ele>1097.3</ele>
        <time>2020-08-25T14:40:03.000Z</time>
      </trkpt>
      <trkpt lat="44.24327" lon="3.47188">
        <ele>1097.5</ele>
        <time>2020-08-25T14:40:05.000Z</time>
      </trkpt>
      <trkpt lat="44.24326" lon="3.47189">
        <ele>1097.6</ele>
        <time>2020-08-25T14:40:06.000Z</time>
      </trkpt>
      <trkpt lat="44.24325" lon="3.47189">
        <ele>1097.8</ele>
        <time>2020-08-25T14:40:07.000Z</time>
      </trkpt>
      <trkpt lat="44.24324" lon="3.4719">
        <ele>1098</ele>
        <time>2020-08-25T14:40:09.000Z</time>
      </trkpt>
      <trkpt lat="44.24324" lon="3.4719">
        <ele>1098.1</ele>
        <time>2020-08-25T14:40:10.000Z</time>
      </trkpt>
      <trkpt lat="44.24323" lon="3.4719">
        <ele>1098.2</ele>
        <time>2020-08-25T14:40:12.000Z</time>
      </trkpt>
      <trkpt lat="44.24322" lon="3.47191">
        <ele>1098.4</ele>
        <time>2020-08-25T14:40:13.000Z</time>
      </trkpt>
      <trkpt lat="44.24322" lon="3.47191">
        <ele>1098.6</ele>
        <time>2020-08-25T14:40:14.000Z</time>
      </trkpt>
      <trkpt lat="44.24321" lon="3.47192">
        <ele>1098.7</ele>
        <time>2020-08-25T14:40:15.000Z</time>
      </trkpt>
      <trkpt lat="44.2432" lon="3.47192">
        <ele>1099</ele>
        <time>2020-08-25T14:40:17.000Z</time>
      </trkpt>
      <trkpt lat="44.24319" lon="3.47193">
        <ele>1099.2</ele>
        <time>2020-08-25T14:40:18.000Z</time>
      </trkpt>
      <trkpt lat="44.24317" lon="3.47194">
        <ele>1099.5</ele>
        <time>2020-08-25T14:40:20.000Z</time>
      </trkpt>
      <trkpt lat="44.24316" lon="3.47195">
        <ele>1099.7</ele>
        <time>2020-08-25T14:40:21.000Z</time>
      </trkpt>
      <trkpt lat="44.24315" lon="3.47197">
        <ele>1100.1</ele>
        <time>2020-08-25T14:40:23.000Z</time>
      </trkpt>
      <trkpt lat="44.24314" lon="3.47198">
        <ele>1100.2</ele>
        <time>2020-08-25T14:40:24.000Z</time>
      </trkpt>
      <trkpt lat="44.24313" lon="3.47199">
        <ele>1100.4</ele>
        <time>2020-08-25T14:40:25.000Z</time>
      </trkpt>
      <trkpt lat="44.24312" lon="3.47199">
        <ele>1100.6</ele>
        <time>2020-08-25T14:40:26.000Z</time>
      </trkpt>
      <trkpt lat="44.24311" lon="3.47201">
        <ele>1100.9</ele>
        <time>2020-08-25T14:40:28.000Z</time>
      </trkpt>
      <trkpt lat="44.24311" lon="3.47202">
        <ele>1101.1</ele>
        <time>2020-08-25T14:40:29.000Z</time>
      </trkpt>
      <trkpt lat="44.2431" lon="3.47203">
        <ele>1101.3</ele>
        <time>2020-08-25T14:40:31.000Z</time>
      </trkpt>
      <trkpt lat="44.24309" lon="3.47203">
        <ele>1101.4</ele>
        <time>2020-08-25T14:40:32.000Z</time>
      </trkpt>
      <trkpt lat="44.24307" lon="3.47204">
        <ele>1101.7</ele>
        <time>2020-08-25T14:40:34.000Z</time>
      </trkpt>
      <trkpt lat="44.24307" lon="3.47204">
        <ele>1101.8</ele>
        <time>2020-08-25T14:40:35.000Z</time>
      </trkpt>
      <trkpt lat="44.24306" lon="3.47205">
        <ele>1102</ele>
        <time>2020-08-25T14:40:36.000Z</time>
      </trkpt>
      <trkpt lat="44.24304" lon="3.47206">
        <ele>1102.3</ele>
        <time>2020-08-25T14:40:38.000Z</time>
      </trkpt>
      <trkpt lat="44.24304" lon="3.47207">
        <ele>1102.4</ele>
        <time>2020-08-25T14:40:39.000Z</time>
      </trkpt>
      <trkpt lat="44.24303" lon="3.47207">
        <ele>1102.5</ele>
        <time>2020-08-25T14:40:41.000Z</time>
      </trkpt>
      <trkpt lat="44.24302" lon="3.47208">
        <ele>1102.6</ele>
        <time>2020-08-25T14:40:42.000Z</time>
      </trkpt>
      <trkpt lat="44.24302" lon="3.47209">
        <ele>1102.8</ele>
        <time>2020-08-25T14:40:43.000Z</time>
      </trkpt>
      <trkpt lat="44.24301" lon="3.47209">
        <ele>1102.9</ele>
        <time>2020-08-25T14:40:45.000Z</time>
      </trkpt>
      <trkpt lat="44.24301" lon="3.4721">
        <ele>1103</ele>
        <time>2020-08-25T14:40:46.000Z</time>
      </trkpt>
      <trkpt lat="44.243" lon="3.4721">
        <ele>1103.1</ele>
        <time>2020-08-25T14:40:47.000Z</time>
      </trkpt>
      <trkpt lat="44.243" lon="3.47211">
        <ele>1103.2</ele>
        <time>2020-08-25T14:40:49.000Z</time>
      </trkpt>
      <trkpt lat="44.24299" lon="3.47211">
        <ele>1103.3</ele>
        <time>2020-08-25T14:40:51.000Z</time>
      </trkpt>
      <trkpt lat="44.24298" lon="3.47212">
        <ele>1103.4</ele>
        <time>2020-08-25T14:40:52.000Z</time>
      </trkpt>
      <trkpt lat="44.24298" lon="3.47212">
        <ele>1103.5</ele>
        <time>2020-08-25T14:40:54.000Z</time>
      </trkpt>
      <trkpt lat="44.24297" lon="3.47213">
        <ele>1103.6</ele>
        <time>2020-08-25T14:40:55.000Z</time>
      </trkpt>
      <trkpt lat="44.24297" lon="3.47213">
        <ele>1103.7</ele>
        <time>2020-08-25T14:41:01.000Z</time>
      </trkpt>
      <trkpt lat="44.24296" lon="3.47214">
        <ele>1103.8</ele>
        <time>2020-08-25T14:41:02.000Z</time>
      </trkpt>
      <trkpt lat="44.24296" lon="3.47214">
        <ele>1103.9</ele>
        <time>2020-08-25T14:41:04.000Z</time>
      </trkpt>
      <trkpt lat="44.24295" lon="3.47215">
        <ele>1104</ele>
        <time>2020-08-25T14:41:05.000Z</time>
      </trkpt>
      <trkpt lat="44.24293" lon="3.47216">
        <ele>1104.2</ele>
        <time>2020-08-25T14:41:07.000Z</time>
      </trkpt>
      <trkpt lat="44.24292" lon="3.47216">
        <ele>1104.4</ele>
        <time>2020-08-25T14:41:08.000Z</time>
      </trkpt>
      <trkpt lat="44.24291" lon="3.47216">
        <ele>1104.6</ele>
        <time>2020-08-25T14:41:09.000Z</time>
      </trkpt>
      <trkpt lat="44.24289" lon="3.47217">
        <ele>1104.8</ele>
        <time>2020-08-25T14:41:11.000Z</time>
      </trkpt>
      <trkpt lat="44.24288" lon="3.47217">
        <ele>1104.9</ele>
        <time>2020-08-25T14:41:12.000Z</time>
      </trkpt>
      <trkpt lat="44.24287" lon="3.47218">
        <ele>1105.1</ele>
        <time>2020-08-25T14:41:13.000Z</time>
      </trkpt>
      <trkpt lat="44.24286" lon="3.47218">
        <ele>1105.2</ele>
        <time>2020-08-25T14:41:14.000Z</time>
      </trkpt>
      <trkpt lat="44.24285" lon="3.47219">
        <ele>1105.3</ele>
        <time>2020-08-25T14:41:15.000Z</time>
      </trkpt>
      <trkpt lat="44.24283" lon="3.47219">
        <ele>1105.5</ele>
        <time>2020-08-25T14:41:17.000Z</time>
      </trkpt>
      <trkpt lat="44.24282" lon="3.4722">
        <ele>1105.6</ele>
        <time>2020-08-25T14:41:18.000Z</time>
      </trkpt>
      <trkpt lat="44.24281" lon="3.4722">
        <ele>1105.7</ele>
        <time>2020-08-25T14:41:19.000Z</time>
      </trkpt>
      <trkpt lat="44.2428" lon="3.47221">
        <ele>1105.8</ele>
        <time>2020-08-25T14:41:20.000Z</time>
      </trkpt>
      <trkpt lat="44.24279" lon="3.47222">
        <ele>1105.9</ele>
        <time>2020-08-25T14:41:21.000Z</time>
      </trkpt>
      <trkpt lat="44.24278" lon="3.47223">
        <ele>1106</ele>
        <time>2020-08-25T14:41:22.000Z</time>
      </trkpt>
      <trkpt lat="44.24277" lon="3.47223">
        <ele>1106.2</ele>
        <time>2020-08-25T14:41:24.000Z</time>
      </trkpt>
      <trkpt lat="44.24276" lon="3.47224">
        <ele>1106.3</ele>
        <time>2020-08-25T14:41:25.000Z</time>
      </trkpt>
      <trkpt lat="44.24276" lon="3.47225">
        <ele>1106.4</ele>
        <time>2020-08-25T14:41:26.000Z</time>
      </trkpt>
      <trkpt lat="44.24275" lon="3.47226">
        <ele>1106.5</ele>
        <time>2020-08-25T14:41:27.000Z</time>
      </trkpt>
      <trkpt lat="44.24273" lon="3.47227">
        <ele>1106.6</ele>
        <time>2020-08-25T14:41:29.000Z</time>
      </trkpt>
      <trkpt lat="44.24272" lon="3.47228">
        <ele>1106.7</ele>
        <time>2020-08-25T14:41:31.000Z</time>
      </trkpt>
      <trkpt lat="44.24271" lon="3.47229">
        <ele>1106.7</ele>
        <time>2020-08-25T14:41:33.000Z</time>
      </trkpt>
      <trkpt lat="44.2427" lon="3.47228">
        <ele>1106.7</ele>
        <time>2020-08-25T14:41:34.000Z</time>
      </trkpt>
      <trkpt lat="44.24269" lon="3.47228">
        <ele>1106.8</ele>
        <time>2020-08-25T14:41:35.000Z</time>
      </trkpt>
      <trkpt lat="44.24269" lon="3.47228">
        <ele>1106.8</ele>
        <time>2020-08-25T14:41:36.000Z</time>
      </trkpt>
      <trkpt lat="44.24268" lon="3.47229">
        <ele>1106.8</ele>
        <time>2020-08-25T14:41:38.000Z</time>
      </trkpt>
      <trkpt lat="44.24267" lon="3.47229">
        <ele>1106.9</ele>
        <time>2020-08-25T14:41:39.000Z</time>
      </trkpt>
      <trkpt lat="44.24265" lon="3.47229">
        <ele>1106.9</ele>
        <time>2020-08-25T14:41:40.000Z</time>
      </trkpt>
      <trkpt lat="44.24265" lon="3.47229">
        <ele>1107</ele>
        <time>2020-08-25T14:41:41.000Z</time>
      </trkpt>
      <trkpt lat="44.24264" lon="3.47229">
        <ele>1107</ele>
        <time>2020-08-25T14:41:43.000Z</time>
      </trkpt>
      <trkpt lat="44.24263" lon="3.47229">
        <ele>1107</ele>
        <time>2020-08-25T14:41:45.000Z</time>
      </trkpt>
      <trkpt lat="44.24262" lon="3.47229">
        <ele>1107.1</ele>
        <time>2020-08-25T14:41:47.000Z</time>
      </trkpt>
      <trkpt lat="44.24261" lon="3.47229">
        <ele>1107.1</ele>
        <time>2020-08-25T14:41:49.000Z</time>
      </trkpt>
      <trkpt lat="44.2426" lon="3.47229">
        <ele>1107.2</ele>
        <time>2020-08-25T14:41:50.000Z</time>
      </trkpt>
      <trkpt lat="44.24259" lon="3.47229">
        <ele>1107.2</ele>
        <time>2020-08-25T14:41:52.000Z</time>
      </trkpt>
      <trkpt lat="44.24258" lon="3.47229">
        <ele>1107.2</ele>
        <time>2020-08-25T14:41:57.000Z</time>
      </trkpt>
      <trkpt lat="44.24257" lon="3.47229">
        <ele>1107.3</ele>
        <time>2020-08-25T14:41:58.000Z</time>
      </trkpt>
      <trkpt lat="44.24256" lon="3.47229">
        <ele>1107.3</ele>
        <time>2020-08-25T14:42:00.000Z</time>
      </trkpt>
      <trkpt lat="44.24255" lon="3.47229">
        <ele>1107.4</ele>
        <time>2020-08-25T14:42:01.000Z</time>
      </trkpt>
      <trkpt lat="44.24254" lon="3.47229">
        <ele>1107.4</ele>
        <time>2020-08-25T14:42:02.000Z</time>
      </trkpt>
      <trkpt lat="44.24253" lon="3.47229">
        <ele>1107.5</ele>
        <time>2020-08-25T14:42:03.000Z</time>
      </trkpt>
      <trkpt lat="44.24251" lon="3.47229">
        <ele>1107.6</ele>
        <time>2020-08-25T14:42:05.000Z</time>
      </trkpt>
      <trkpt lat="44.24247" lon="3.47228">
        <ele>1107.7</ele>
        <time>2020-08-25T14:42:06.000Z</time>
      </trkpt>
      <trkpt lat="44.24246" lon="3.47228">
        <ele>1107.8</ele>
        <time>2020-08-25T14:42:07.000Z</time>
      </trkpt>
      <trkpt lat="44.24243" lon="3.47228">
        <ele>1107.9</ele>
        <time>2020-08-25T14:42:09.000Z</time>
      </trkpt>
      <trkpt lat="44.24239" lon="3.47227">
        <ele>1108.1</ele>
        <time>2020-08-25T14:42:10.000Z</time>
      </trkpt>
      <trkpt lat="44.24236" lon="3.47227">
        <ele>1108.2</ele>
        <time>2020-08-25T14:42:11.000Z</time>
      </trkpt>
      <trkpt lat="44.24231" lon="3.47226">
        <ele>1108.4</ele>
        <time>2020-08-25T14:42:13.000Z</time>
      </trkpt>
      <trkpt lat="44.24229" lon="3.47226">
        <ele>1108.5</ele>
        <time>2020-08-25T14:42:14.000Z</time>
      </trkpt>
      <trkpt lat="44.24225" lon="3.47226">
        <ele>1108.6</ele>
        <time>2020-08-25T14:42:15.000Z</time>
      </trkpt>
      <trkpt lat="44.24223" lon="3.47226">
        <ele>1108.7</ele>
        <time>2020-08-25T14:42:16.000Z</time>
      </trkpt>
      <trkpt lat="44.2422" lon="3.47226">
        <ele>1108.8</ele>
        <time>2020-08-25T14:42:18.000Z</time>
      </trkpt>
      <trkpt lat="44.24217" lon="3.47226">
        <ele>1108.9</ele>
        <time>2020-08-25T14:42:19.000Z</time>
      </trkpt>
      <trkpt lat="44.24214" lon="3.47227">
        <ele>1108.9</ele>
        <time>2020-08-25T14:42:20.000Z</time>
      </trkpt>
      <trkpt lat="44.2421" lon="3.47228">
        <ele>1109</ele>
        <time>2020-08-25T14:42:21.000Z</time>
      </trkpt>
      <trkpt lat="44.24205" lon="3.47229">
        <ele>1109.2</ele>
        <time>2020-08-25T14:42:23.000Z</time>
      </trkpt>
      <trkpt lat="44.24202" lon="3.4723">
        <ele>1109.3</ele>
        <time>2020-08-25T14:42:24.000Z</time>
      </trkpt>
      <trkpt lat="44.24198" lon="3.47232">
        <ele>1109.4</ele>
        <time>2020-08-25T14:42:26.000Z</time>
      </trkpt>
      <trkpt lat="44.24195" lon="3.47234">
        <ele>1109.6</ele>
        <time>2020-08-25T14:42:27.000Z</time>
      </trkpt>
      <trkpt lat="44.24191" lon="3.47236">
        <ele>1109.7</ele>
        <time>2020-08-25T14:42:29.000Z</time>
      </trkpt>
      <trkpt lat="44.24187" lon="3.47238">
        <ele>1109.9</ele>
        <time>2020-08-25T14:42:30.000Z</time>
      </trkpt>
      <trkpt lat="44.24185" lon="3.47239">
        <ele>1110</ele>
        <time>2020-08-25T14:42:31.000Z</time>
      </trkpt>
      <trkpt lat="44.2418" lon="3.47241">
        <ele>1110.2</ele>
        <time>2020-08-25T14:42:33.000Z</time>
      </trkpt>
      <trkpt lat="44.24177" lon="3.47243">
        <ele>1110.4</ele>
        <time>2020-08-25T14:42:34.000Z</time>
      </trkpt>
      <trkpt lat="44.24173" lon="3.47245">
        <ele>1110.7</ele>
        <time>2020-08-25T14:42:36.000Z</time>
      </trkpt>
      <trkpt lat="44.24171" lon="3.47247">
        <ele>1110.9</ele>
        <time>2020-08-25T14:42:37.000Z</time>
      </trkpt>
      <trkpt lat="44.24167" lon="3.47249">
        <ele>1111.2</ele>
        <time>2020-08-25T14:42:38.000Z</time>
      </trkpt>
      <trkpt lat="44.24166" lon="3.47249">
        <ele>1111.3</ele>
        <time>2020-08-25T14:42:39.000Z</time>
      </trkpt>
      <trkpt lat="44.24163" lon="3.47251">
        <ele>1111.6</ele>
        <time>2020-08-25T14:42:41.000Z</time>
      </trkpt>
      <trkpt lat="44.24159" lon="3.47253">
        <ele>1112</ele>
        <time>2020-08-25T14:42:42.000Z</time>
      </trkpt>
      <trkpt lat="44.24158" lon="3.47253">
        <ele>1112.1</ele>
        <time>2020-08-25T14:42:43.000Z</time>
      </trkpt>
      <trkpt lat="44.24156" lon="3.47254">
        <ele>1112.3</ele>
        <time>2020-08-25T14:42:44.000Z</time>
      </trkpt>
      <trkpt lat="44.24153" lon="3.47255">
        <ele>1112.6</ele>
        <time>2020-08-25T14:42:46.000Z</time>
      </trkpt>
      <trkpt lat="44.24151" lon="3.47256">
        <ele>1112.8</ele>
        <time>2020-08-25T14:42:47.000Z</time>
      </trkpt>
      <trkpt lat="44.24148" lon="3.47257">
        <ele>1113.1</ele>
        <time>2020-08-25T14:42:48.000Z</time>
      </trkpt>
      <trkpt lat="44.24147" lon="3.47258">
        <ele>1113.2</ele>
        <time>2020-08-25T14:42:49.000Z</time>
      </trkpt>
      <trkpt lat="44.24144" lon="3.47259">
        <ele>1113.5</ele>
        <time>2020-08-25T14:42:51.000Z</time>
      </trkpt>
      <trkpt lat="44.24142" lon="3.47259">
        <ele>1113.6</ele>
        <time>2020-08-25T14:42:52.000Z</time>
      </trkpt>
      <trkpt lat="44.24139" lon="3.47261">
        <ele>1113.9</ele>
        <time>2020-08-25T14:42:53.000Z</time>
      </trkpt>
      <trkpt lat="44.24138" lon="3.47261">
        <ele>1114</ele>
        <time>2020-08-25T14:42:54.000Z</time>
      </trkpt>
      <trkpt lat="44.24136" lon="3.47262">
        <ele>1114.3</ele>
        <time>2020-08-25T14:42:55.000Z</time>
      </trkpt>
      <trkpt lat="44.24133" lon="3.47263">
        <ele>1114.4</ele>
        <time>2020-08-25T14:42:57.000Z</time>
      </trkpt>
      <trkpt lat="44.2413" lon="3.47264">
        <ele>1114.7</ele>
        <time>2020-08-25T14:42:58.000Z</time>
      </trkpt>
      <trkpt lat="44.24129" lon="3.47264">
        <ele>1114.8</ele>
        <time>2020-08-25T14:42:59.000Z</time>
      </trkpt>
      <trkpt lat="44.24125" lon="3.47266">
        <ele>1115.1</ele>
        <time>2020-08-25T14:43:01.000Z</time>
      </trkpt>
      <trkpt lat="44.24124" lon="3.47267">
        <ele>1115.2</ele>
        <time>2020-08-25T14:43:02.000Z</time>
      </trkpt>
      <trkpt lat="44.24123" lon="3.47268">
        <ele>1115.2</ele>
        <time>2020-08-25T14:43:03.000Z</time>
      </trkpt>
      <trkpt lat="44.2412" lon="3.47269">
        <ele>1115.4</ele>
        <time>2020-08-25T14:43:05.000Z</time>
      </trkpt>
      <trkpt lat="44.24117" lon="3.4727">
        <ele>1115.5</ele>
        <time>2020-08-25T14:43:06.000Z</time>
      </trkpt>
      <trkpt lat="44.24115" lon="3.47272">
        <ele>1115.6</ele>
        <time>2020-08-25T14:43:07.000Z</time>
      </trkpt>
      <trkpt lat="44.24111" lon="3.47273">
        <ele>1115.6</ele>
        <time>2020-08-25T14:43:09.000Z</time>
      </trkpt>
      <trkpt lat="44.24109" lon="3.47274">
        <ele>1115.7</ele>
        <time>2020-08-25T14:43:10.000Z</time>
      </trkpt>
      <trkpt lat="44.24106" lon="3.47275">
        <ele>1115.7</ele>
        <time>2020-08-25T14:43:11.000Z</time>
      </trkpt>
      <trkpt lat="44.24102" lon="3.47276">
        <ele>1115.7</ele>
        <time>2020-08-25T14:43:12.000Z</time>
      </trkpt>
      <trkpt lat="44.24101" lon="3.47276">
        <ele>1115.8</ele>
        <time>2020-08-25T14:43:13.000Z</time>
      </trkpt>
      <trkpt lat="44.24097" lon="3.47278">
        <ele>1115.8</ele>
        <time>2020-08-25T14:43:15.000Z</time>
      </trkpt>
      <trkpt lat="44.24096" lon="3.47278">
        <ele>1115.8</ele>
        <time>2020-08-25T14:43:16.000Z</time>
      </trkpt>
      <trkpt lat="44.24093" lon="3.47279">
        <ele>1116</ele>
        <time>2020-08-25T14:43:17.000Z</time>
      </trkpt>
      <trkpt lat="44.24091" lon="3.4728">
        <ele>1116.3</ele>
        <time>2020-08-25T14:43:19.000Z</time>
      </trkpt>
      <trkpt lat="44.24088" lon="3.4728">
        <ele>1116.6</ele>
        <time>2020-08-25T14:43:20.000Z</time>
      </trkpt>
      <trkpt lat="44.24085" lon="3.4728">
        <ele>1117</ele>
        <time>2020-08-25T14:43:22.000Z</time>
      </trkpt>
      <trkpt lat="44.24084" lon="3.4728">
        <ele>1117.2</ele>
        <time>2020-08-25T14:43:23.000Z</time>
      </trkpt>
      <trkpt lat="44.24082" lon="3.4728">
        <ele>1117.4</ele>
        <time>2020-08-25T14:43:25.000Z</time>
      </trkpt>
      <trkpt lat="44.24078" lon="3.4728">
        <ele>1117.8</ele>
        <time>2020-08-25T14:43:26.000Z</time>
      </trkpt>
      <trkpt lat="44.24077" lon="3.4728">
        <ele>1117.9</ele>
        <time>2020-08-25T14:43:27.000Z</time>
      </trkpt>
      <trkpt lat="44.24075" lon="3.4728">
        <ele>1118</ele>
        <time>2020-08-25T14:43:28.000Z</time>
      </trkpt>
      <trkpt lat="44.24074" lon="3.47279">
        <ele>1118.2</ele>
        <time>2020-08-25T14:43:30.000Z</time>
      </trkpt>
      <trkpt lat="44.24071" lon="3.47279">
        <ele>1118.4</ele>
        <time>2020-08-25T14:43:31.000Z</time>
      </trkpt>
      <trkpt lat="44.2407" lon="3.47279">
        <ele>1118.5</ele>
        <time>2020-08-25T14:43:32.000Z</time>
      </trkpt>
      <trkpt lat="44.24067" lon="3.47278">
        <ele>1118.7</ele>
        <time>2020-08-25T14:43:33.000Z</time>
      </trkpt>
      <trkpt lat="44.24066" lon="3.47278">
        <ele>1118.7</ele>
        <time>2020-08-25T14:43:34.000Z</time>
      </trkpt>
      <trkpt lat="44.24064" lon="3.47278">
        <ele>1118.8</ele>
        <time>2020-08-25T14:43:35.000Z</time>
      </trkpt>
      <trkpt lat="44.24061" lon="3.47278">
        <ele>1118.9</ele>
        <time>2020-08-25T14:43:37.000Z</time>
      </trkpt>
      <trkpt lat="44.24058" lon="3.47278">
        <ele>1119</ele>
        <time>2020-08-25T14:43:38.000Z</time>
      </trkpt>
      <trkpt lat="44.24055" lon="3.47278">
        <ele>1119.1</ele>
        <time>2020-08-25T14:43:39.000Z</time>
      </trkpt>
      <trkpt lat="44.2405" lon="3.47278">
        <ele>1119.2</ele>
        <time>2020-08-25T14:43:41.000Z</time>
      </trkpt>
      <trkpt lat="44.24045" lon="3.47278">
        <ele>1119.2</ele>
        <time>2020-08-25T14:43:42.000Z</time>
      </trkpt>
      <trkpt lat="44.2404" lon="3.47278">
        <ele>1119.3</ele>
        <time>2020-08-25T14:43:43.000Z</time>
      </trkpt>
      <trkpt lat="44.24036" lon="3.47279">
        <ele>1119.4</ele>
        <time>2020-08-25T14:43:45.000Z</time>
      </trkpt>
      <trkpt lat="44.24031" lon="3.47279">
        <ele>1119.4</ele>
        <time>2020-08-25T14:43:46.000Z</time>
      </trkpt>
      <trkpt lat="44.24027" lon="3.4728">
        <ele>1119.5</ele>
        <time>2020-08-25T14:43:47.000Z</time>
      </trkpt>
      <trkpt lat="44.24019" lon="3.47281">
        <ele>1119.5</ele>
        <time>2020-08-25T14:43:49.000Z</time>
      </trkpt>
      <trkpt lat="44.24014" lon="3.47281">
        <ele>1119.5</ele>
        <time>2020-08-25T14:43:50.000Z</time>
      </trkpt>
      <trkpt lat="44.24009" lon="3.47282">
        <ele>1119.5</ele>
        <time>2020-08-25T14:43:51.000Z</time>
      </trkpt>
      <trkpt lat="44.24002" lon="3.47283">
        <ele>1119.6</ele>
        <time>2020-08-25T14:43:52.000Z</time>
      </trkpt>
      <trkpt lat="44.23996" lon="3.47284">
        <ele>1119.7</ele>
        <time>2020-08-25T14:43:53.000Z</time>
      </trkpt>
      <trkpt lat="44.2399" lon="3.47285">
        <ele>1119.9</ele>
        <time>2020-08-25T14:43:54.000Z</time>
      </trkpt>
      <trkpt lat="44.23979" lon="3.47284">
        <ele>1120.4</ele>
        <time>2020-08-25T14:43:56.000Z</time>
      </trkpt>
      <trkpt lat="44.23972" lon="3.47284">
        <ele>1120.8</ele>
        <time>2020-08-25T14:43:58.000Z</time>
      </trkpt>
      <trkpt lat="44.23967" lon="3.47282">
        <ele>1121.1</ele>
        <time>2020-08-25T14:44:00.000Z</time>
      </trkpt>
      <trkpt lat="44.23963" lon="3.4728">
        <ele>1121.4</ele>
        <time>2020-08-25T14:44:01.000Z</time>
      </trkpt>
      <trkpt lat="44.23959" lon="3.47279">
        <ele>1121.5</ele>
        <time>2020-08-25T14:44:02.000Z</time>
      </trkpt>
      <trkpt lat="44.23953" lon="3.47277">
        <ele>1121.4</ele>
        <time>2020-08-25T14:44:04.000Z</time>
      </trkpt>
      <trkpt lat="44.23949" lon="3.47276">
        <ele>1121.3</ele>
        <time>2020-08-25T14:44:05.000Z</time>
      </trkpt>
      <trkpt lat="44.23945" lon="3.47275">
        <ele>1121.3</ele>
        <time>2020-08-25T14:44:06.000Z</time>
      </trkpt>
      <trkpt lat="44.2394" lon="3.47274">
        <ele>1121.4</ele>
        <time>2020-08-25T14:44:08.000Z</time>
      </trkpt>
      <trkpt lat="44.23937" lon="3.47274">
        <ele>1121.5</ele>
        <time>2020-08-25T14:44:09.000Z</time>
      </trkpt>
      <trkpt lat="44.23934" lon="3.47273">
        <ele>1121.6</ele>
        <time>2020-08-25T14:44:10.000Z</time>
      </trkpt>
      <trkpt lat="44.2393" lon="3.47272">
        <ele>1121.7</ele>
        <time>2020-08-25T14:44:11.000Z</time>
      </trkpt>
      <trkpt lat="44.23927" lon="3.47271">
        <ele>1121.8</ele>
        <time>2020-08-25T14:44:13.000Z</time>
      </trkpt>
      <trkpt lat="44.23925" lon="3.47271">
        <ele>1122</ele>
        <time>2020-08-25T14:44:14.000Z</time>
      </trkpt>
      <trkpt lat="44.23921" lon="3.47269">
        <ele>1122.2</ele>
        <time>2020-08-25T14:44:15.000Z</time>
      </trkpt>
      <trkpt lat="44.23919" lon="3.47269">
        <ele>1122.3</ele>
        <time>2020-08-25T14:44:16.000Z</time>
      </trkpt>
      <trkpt lat="44.23917" lon="3.47269">
        <ele>1122.4</ele>
        <time>2020-08-25T14:44:17.000Z</time>
      </trkpt>
      <trkpt lat="44.23913" lon="3.47269">
        <ele>1122.6</ele>
        <time>2020-08-25T14:44:19.000Z</time>
      </trkpt>
      <trkpt lat="44.2391" lon="3.47268">
        <ele>1122.7</ele>
        <time>2020-08-25T14:44:20.000Z</time>
      </trkpt>
      <trkpt lat="44.23907" lon="3.47269">
        <ele>1122.9</ele>
        <time>2020-08-25T14:44:21.000Z</time>
      </trkpt>
      <trkpt lat="44.23905" lon="3.47269">
        <ele>1123</ele>
        <time>2020-08-25T14:44:22.000Z</time>
      </trkpt>
      <trkpt lat="44.23901" lon="3.47269">
        <ele>1123.1</ele>
        <time>2020-08-25T14:44:24.000Z</time>
      </trkpt>
      <trkpt lat="44.23898" lon="3.47269">
        <ele>1123.2</ele>
        <time>2020-08-25T14:44:25.000Z</time>
      </trkpt>
      <trkpt lat="44.23894" lon="3.4727">
        <ele>1123.4</ele>
        <time>2020-08-25T14:44:26.000Z</time>
      </trkpt>
      <trkpt lat="44.23893" lon="3.4727">
        <ele>1123.4</ele>
        <time>2020-08-25T14:44:27.000Z</time>
      </trkpt>
      <trkpt lat="44.2389" lon="3.47271">
        <ele>1123.5</ele>
        <time>2020-08-25T14:44:29.000Z</time>
      </trkpt>
      <trkpt lat="44.23887" lon="3.47272">
        <ele>1123.5</ele>
        <time>2020-08-25T14:44:30.000Z</time>
      </trkpt>
      <trkpt lat="44.23883" lon="3.47273">
        <ele>1123.6</ele>
        <time>2020-08-25T14:44:32.000Z</time>
      </trkpt>
      <trkpt lat="44.2388" lon="3.47273">
        <ele>1123.6</ele>
        <time>2020-08-25T14:44:33.000Z</time>
      </trkpt>
      <trkpt lat="44.23877" lon="3.47274">
        <ele>1123.7</ele>
        <time>2020-08-25T14:44:34.000Z</time>
      </trkpt>
      <trkpt lat="44.23874" lon="3.47275">
        <ele>1123.7</ele>
        <time>2020-08-25T14:44:35.000Z</time>
      </trkpt>
      <trkpt lat="44.23869" lon="3.47277">
        <ele>1123.8</ele>
        <time>2020-08-25T14:44:37.000Z</time>
      </trkpt>
      <trkpt lat="44.23867" lon="3.47278">
        <ele>1123.8</ele>
        <time>2020-08-25T14:44:39.000Z</time>
      </trkpt>
      <trkpt lat="44.23865" lon="3.47279">
        <ele>1123.9</ele>
        <time>2020-08-25T14:44:40.000Z</time>
      </trkpt>
      <trkpt lat="44.23863" lon="3.4728">
        <ele>1123.9</ele>
        <time>2020-08-25T14:44:41.000Z</time>
      </trkpt>
      <trkpt lat="44.23861" lon="3.4728">
        <ele>1123.9</ele>
        <time>2020-08-25T14:44:42.000Z</time>
      </trkpt>
      <trkpt lat="44.23859" lon="3.47281">
        <ele>1124</ele>
        <time>2020-08-25T14:44:44.000Z</time>
      </trkpt>
      <trkpt lat="44.23856" lon="3.47283">
        <ele>1124</ele>
        <time>2020-08-25T14:44:45.000Z</time>
      </trkpt>
      <trkpt lat="44.23854" lon="3.47284">
        <ele>1124</ele>
        <time>2020-08-25T14:44:46.000Z</time>
      </trkpt>
      <trkpt lat="44.2385" lon="3.47286">
        <ele>1124</ele>
        <time>2020-08-25T14:44:48.000Z</time>
      </trkpt>
      <trkpt lat="44.23847" lon="3.47287">
        <ele>1124</ele>
        <time>2020-08-25T14:44:49.000Z</time>
      </trkpt>
      <trkpt lat="44.23845" lon="3.47288">
        <ele>1124</ele>
        <time>2020-08-25T14:44:50.000Z</time>
      </trkpt>
      <trkpt lat="44.23843" lon="3.47289">
        <ele>1124</ele>
        <time>2020-08-25T14:44:51.000Z</time>
      </trkpt>
      <trkpt lat="44.23838" lon="3.47291">
        <ele>1124</ele>
        <time>2020-08-25T14:44:53.000Z</time>
      </trkpt>
      <trkpt lat="44.23836" lon="3.47292">
        <ele>1124</ele>
        <time>2020-08-25T14:44:54.000Z</time>
      </trkpt>
      <trkpt lat="44.23834" lon="3.47293">
        <ele>1124</ele>
        <time>2020-08-25T14:44:55.000Z</time>
      </trkpt>
      <trkpt lat="44.23831" lon="3.47295">
        <ele>1124.1</ele>
        <time>2020-08-25T14:44:57.000Z</time>
      </trkpt>
      <trkpt lat="44.23828" lon="3.47297">
        <ele>1124.1</ele>
        <time>2020-08-25T14:44:58.000Z</time>
      </trkpt>
      <trkpt lat="44.23825" lon="3.47298">
        <ele>1124.1</ele>
        <time>2020-08-25T14:44:59.000Z</time>
      </trkpt>
      <trkpt lat="44.23821" lon="3.473">
        <ele>1124.1</ele>
        <time>2020-08-25T14:45:01.000Z</time>
      </trkpt>
      <trkpt lat="44.23818" lon="3.47301">
        <ele>1124.1</ele>
        <time>2020-08-25T14:45:02.000Z</time>
      </trkpt>
      <trkpt lat="44.23815" lon="3.47303">
        <ele>1124.1</ele>
        <time>2020-08-25T14:45:04.000Z</time>
      </trkpt>
      <trkpt lat="44.23812" lon="3.47304">
        <ele>1124.2</ele>
        <time>2020-08-25T14:45:05.000Z</time>
      </trkpt>
      <trkpt lat="44.23808" lon="3.47306">
        <ele>1124.2</ele>
        <time>2020-08-25T14:45:07.000Z</time>
      </trkpt>
      <trkpt lat="44.23806" lon="3.47307">
        <ele>1124.3</ele>
        <time>2020-08-25T14:45:08.000Z</time>
      </trkpt>
      <trkpt lat="44.23801" lon="3.47309">
        <ele>1124.4</ele>
        <time>2020-08-25T14:45:10.000Z</time>
      </trkpt>
      <trkpt lat="44.23798" lon="3.4731">
        <ele>1124.5</ele>
        <time>2020-08-25T14:45:11.000Z</time>
      </trkpt>
      <trkpt lat="44.23795" lon="3.47311">
        <ele>1124.6</ele>
        <time>2020-08-25T14:45:13.000Z</time>
      </trkpt>
      <trkpt lat="44.2379" lon="3.47313">
        <ele>1124.7</ele>
        <time>2020-08-25T14:45:14.000Z</time>
      </trkpt>
      <trkpt lat="44.23789" lon="3.47313">
        <ele>1124.7</ele>
        <time>2020-08-25T14:45:15.000Z</time>
      </trkpt>
      <trkpt lat="44.23786" lon="3.47314">
        <ele>1124.9</ele>
        <time>2020-08-25T14:45:16.000Z</time>
      </trkpt>
      <trkpt lat="44.23781" lon="3.47315">
        <ele>1125.1</ele>
        <time>2020-08-25T14:45:18.000Z</time>
      </trkpt>
      <trkpt lat="44.23778" lon="3.47316">
        <ele>1125.3</ele>
        <time>2020-08-25T14:45:19.000Z</time>
      </trkpt>
      <trkpt lat="44.23775" lon="3.47316">
        <ele>1125.5</ele>
        <time>2020-08-25T14:45:20.000Z</time>
      </trkpt>
      <trkpt lat="44.23773" lon="3.47317">
        <ele>1125.8</ele>
        <time>2020-08-25T14:45:22.000Z</time>
      </trkpt>
      <trkpt lat="44.2377" lon="3.47318">
        <ele>1126</ele>
        <time>2020-08-25T14:45:23.000Z</time>
      </trkpt>
      <trkpt lat="44.23766" lon="3.47318">
        <ele>1126.3</ele>
        <time>2020-08-25T14:45:24.000Z</time>
      </trkpt>
      <trkpt lat="44.23765" lon="3.47319">
        <ele>1126.4</ele>
        <time>2020-08-25T14:45:25.000Z</time>
      </trkpt>
      <trkpt lat="44.2376" lon="3.4732">
        <ele>1126.8</ele>
        <time>2020-08-25T14:45:27.000Z</time>
      </trkpt>
      <trkpt lat="44.23759" lon="3.4732">
        <ele>1126.9</ele>
        <time>2020-08-25T14:45:28.000Z</time>
      </trkpt>
      <trkpt lat="44.23757" lon="3.4732">
        <ele>1127</ele>
        <time>2020-08-25T14:45:29.000Z</time>
      </trkpt>
      <trkpt lat="44.23755" lon="3.4732">
        <ele>1127.2</ele>
        <time>2020-08-25T14:45:30.000Z</time>
      </trkpt>
      <trkpt lat="44.23752" lon="3.47321">
        <ele>1127.4</ele>
        <time>2020-08-25T14:45:32.000Z</time>
      </trkpt>
      <trkpt lat="44.2375" lon="3.47321">
        <ele>1127.6</ele>
        <time>2020-08-25T14:45:33.000Z</time>
      </trkpt>
      <trkpt lat="44.23747" lon="3.47321">
        <ele>1127.9</ele>
        <time>2020-08-25T14:45:35.000Z</time>
      </trkpt>
      <trkpt lat="44.23743" lon="3.47321">
        <ele>1128.2</ele>
        <time>2020-08-25T14:45:36.000Z</time>
      </trkpt>
      <trkpt lat="44.23742" lon="3.4732">
        <ele>1128.3</ele>
        <time>2020-08-25T14:45:37.000Z</time>
      </trkpt>
      <trkpt lat="44.23739" lon="3.4732">
        <ele>1128.5</ele>
        <time>2020-08-25T14:45:39.000Z</time>
      </trkpt>
      <trkpt lat="44.23738" lon="3.47321">
        <ele>1128.6</ele>
        <time>2020-08-25T14:45:40.000Z</time>
      </trkpt>
      <trkpt lat="44.23735" lon="3.4732">
        <ele>1128.8</ele>
        <time>2020-08-25T14:45:41.000Z</time>
      </trkpt>
      <trkpt lat="44.23733" lon="3.47321">
        <ele>1129.1</ele>
        <time>2020-08-25T14:45:43.000Z</time>
      </trkpt>
      <trkpt lat="44.23729" lon="3.47321">
        <ele>1129.3</ele>
        <time>2020-08-25T14:45:45.000Z</time>
      </trkpt>
      <trkpt lat="44.23726" lon="3.47321">
        <ele>1129.5</ele>
        <time>2020-08-25T14:45:46.000Z</time>
      </trkpt>
      <trkpt lat="44.23724" lon="3.47322">
        <ele>1129.7</ele>
        <time>2020-08-25T14:45:47.000Z</time>
      </trkpt>
      <trkpt lat="44.23721" lon="3.47322">
        <ele>1129.9</ele>
        <time>2020-08-25T14:45:49.000Z</time>
      </trkpt>
      <trkpt lat="44.2372" lon="3.47322">
        <ele>1130</ele>
        <time>2020-08-25T14:45:50.000Z</time>
      </trkpt>
      <trkpt lat="44.23717" lon="3.47322">
        <ele>1130.2</ele>
        <time>2020-08-25T14:45:51.000Z</time>
      </trkpt>
      <trkpt lat="44.23716" lon="3.47322">
        <ele>1130.2</ele>
        <time>2020-08-25T14:45:52.000Z</time>
      </trkpt>
      <trkpt lat="44.23713" lon="3.47322">
        <ele>1130.4</ele>
        <time>2020-08-25T14:45:53.000Z</time>
      </trkpt>
      <trkpt lat="44.23712" lon="3.47322">
        <ele>1130.4</ele>
        <time>2020-08-25T14:45:54.000Z</time>
      </trkpt>
      <trkpt lat="44.2371" lon="3.47322">
        <ele>1130.5</ele>
        <time>2020-08-25T14:45:55.000Z</time>
      </trkpt>
      <trkpt lat="44.23708" lon="3.47322">
        <ele>1130.6</ele>
        <time>2020-08-25T14:45:57.000Z</time>
      </trkpt>
      <trkpt lat="44.23704" lon="3.47323">
        <ele>1130.8</ele>
        <time>2020-08-25T14:45:58.000Z</time>
      </trkpt>
      <trkpt lat="44.23703" lon="3.47323">
        <ele>1130.9</ele>
        <time>2020-08-25T14:45:59.000Z</time>
      </trkpt>
      <trkpt lat="44.23701" lon="3.47324">
        <ele>1131</ele>
        <time>2020-08-25T14:46:00.000Z</time>
      </trkpt>
      <trkpt lat="44.23698" lon="3.47324">
        <ele>1131.1</ele>
        <time>2020-08-25T14:46:02.000Z</time>
      </trkpt>
      <trkpt lat="44.23694" lon="3.47325">
        <ele>1131.3</ele>
        <time>2020-08-25T14:46:03.000Z</time>
      </trkpt>
      <trkpt lat="44.23693" lon="3.47325">
        <ele>1131.4</ele>
        <time>2020-08-25T14:46:04.000Z</time>
      </trkpt>
      <trkpt lat="44.23688" lon="3.47326">
        <ele>1131.7</ele>
        <time>2020-08-25T14:46:06.000Z</time>
      </trkpt>
      <trkpt lat="44.23686" lon="3.47327">
        <ele>1131.8</ele>
        <time>2020-08-25T14:46:07.000Z</time>
      </trkpt>
      <trkpt lat="44.23684" lon="3.47328">
        <ele>1131.8</ele>
        <time>2020-08-25T14:46:08.000Z</time>
      </trkpt>
      <trkpt lat="44.23682" lon="3.47329">
        <ele>1132</ele>
        <time>2020-08-25T14:46:09.000Z</time>
      </trkpt>
      <trkpt lat="44.2368" lon="3.47329">
        <ele>1132</ele>
        <time>2020-08-25T14:46:10.000Z</time>
      </trkpt>
      <trkpt lat="44.23677" lon="3.47331">
        <ele>1132.1</ele>
        <time>2020-08-25T14:46:12.000Z</time>
      </trkpt>
      <trkpt lat="44.23674" lon="3.47331">
        <ele>1132.2</ele>
        <time>2020-08-25T14:46:13.000Z</time>
      </trkpt>
      <trkpt lat="44.2367" lon="3.47333">
        <ele>1132.4</ele>
        <time>2020-08-25T14:46:14.000Z</time>
      </trkpt>
      <trkpt lat="44.23669" lon="3.47333">
        <ele>1132.4</ele>
        <time>2020-08-25T14:46:15.000Z</time>
      </trkpt>
      <trkpt lat="44.23667" lon="3.47334">
        <ele>1132.4</ele>
        <time>2020-08-25T14:46:16.000Z</time>
      </trkpt>
      <trkpt lat="44.23663" lon="3.47335">
        <ele>1132.5</ele>
        <time>2020-08-25T14:46:18.000Z</time>
      </trkpt>
      <trkpt lat="44.23659" lon="3.47338">
        <ele>1132.6</ele>
        <time>2020-08-25T14:46:19.000Z</time>
      </trkpt>
      <trkpt lat="44.23653" lon="3.4734">
        <ele>1132.8</ele>
        <time>2020-08-25T14:46:20.000Z</time>
      </trkpt>
      <trkpt lat="44.23648" lon="3.47342">
        <ele>1132.9</ele>
        <time>2020-08-25T14:46:22.000Z</time>
      </trkpt>
      <trkpt lat="44.23645" lon="3.47343">
        <ele>1133.1</ele>
        <time>2020-08-25T14:46:23.000Z</time>
      </trkpt>
      <trkpt lat="44.23642" lon="3.47344">
        <ele>1133.2</ele>
        <time>2020-08-25T14:46:25.000Z</time>
      </trkpt>
      <trkpt lat="44.23639" lon="3.47345">
        <ele>1133.4</ele>
        <time>2020-08-25T14:46:26.000Z</time>
      </trkpt>
      <trkpt lat="44.23637" lon="3.47346">
        <ele>1133.5</ele>
        <time>2020-08-25T14:46:27.000Z</time>
      </trkpt>
      <trkpt lat="44.23636" lon="3.47346">
        <ele>1133.6</ele>
        <time>2020-08-25T14:46:28.000Z</time>
      </trkpt>
      <trkpt lat="44.23632" lon="3.47347">
        <ele>1133.8</ele>
        <time>2020-08-25T14:46:30.000Z</time>
      </trkpt>
      <trkpt lat="44.23631" lon="3.47348">
        <ele>1133.9</ele>
        <time>2020-08-25T14:46:31.000Z</time>
      </trkpt>
      <trkpt lat="44.23627" lon="3.4735">
        <ele>1134.1</ele>
        <time>2020-08-25T14:46:33.000Z</time>
      </trkpt>
      <trkpt lat="44.23624" lon="3.47352">
        <ele>1134.3</ele>
        <time>2020-08-25T14:46:34.000Z</time>
      </trkpt>
      <trkpt lat="44.23622" lon="3.47353">
        <ele>1134.4</ele>
        <time>2020-08-25T14:46:35.000Z</time>
      </trkpt>
      <trkpt lat="44.2362" lon="3.47355">
        <ele>1134.5</ele>
        <time>2020-08-25T14:46:36.000Z</time>
      </trkpt>
      <trkpt lat="44.23618" lon="3.47357">
        <ele>1134.6</ele>
        <time>2020-08-25T14:46:37.000Z</time>
      </trkpt>
      <trkpt lat="44.23616" lon="3.47357">
        <ele>1134.7</ele>
        <time>2020-08-25T14:46:39.000Z</time>
      </trkpt>
      <trkpt lat="44.23613" lon="3.47359">
        <ele>1134.8</ele>
        <time>2020-08-25T14:46:40.000Z</time>
      </trkpt>
      <trkpt lat="44.23612" lon="3.47359">
        <ele>1134.8</ele>
        <time>2020-08-25T14:46:41.000Z</time>
      </trkpt>
      <trkpt lat="44.2361" lon="3.4736">
        <ele>1134.8</ele>
        <time>2020-08-25T14:46:42.000Z</time>
      </trkpt>
      <trkpt lat="44.23609" lon="3.4736">
        <ele>1134.9</ele>
        <time>2020-08-25T14:46:43.000Z</time>
      </trkpt>
      <trkpt lat="44.23607" lon="3.47361">
        <ele>1134.9</ele>
        <time>2020-08-25T14:46:44.000Z</time>
      </trkpt>
      <trkpt lat="44.23604" lon="3.47362">
        <ele>1135</ele>
        <time>2020-08-25T14:46:46.000Z</time>
      </trkpt>
      <trkpt lat="44.23601" lon="3.47363">
        <ele>1135</ele>
        <time>2020-08-25T14:46:47.000Z</time>
      </trkpt>
      <trkpt lat="44.236" lon="3.47363">
        <ele>1135.1</ele>
        <time>2020-08-25T14:46:48.000Z</time>
      </trkpt>
      <trkpt lat="44.23596" lon="3.47364">
        <ele>1135.1</ele>
        <time>2020-08-25T14:46:49.000Z</time>
      </trkpt>
      <trkpt lat="44.23595" lon="3.47364">
        <ele>1135.1</ele>
        <time>2020-08-25T14:46:50.000Z</time>
      </trkpt>
      <trkpt lat="44.23593" lon="3.47365">
        <ele>1135.2</ele>
        <time>2020-08-25T14:46:51.000Z</time>
      </trkpt>
      <trkpt lat="44.23591" lon="3.47366">
        <ele>1135.2</ele>
        <time>2020-08-25T14:46:53.000Z</time>
      </trkpt>
      <trkpt lat="44.23587" lon="3.47367">
        <ele>1135.2</ele>
        <time>2020-08-25T14:46:54.000Z</time>
      </trkpt>
      <trkpt lat="44.23583" lon="3.47369">
        <ele>1135.3</ele>
        <time>2020-08-25T14:46:56.000Z</time>
      </trkpt>
      <trkpt lat="44.2358" lon="3.47371">
        <ele>1135.3</ele>
        <time>2020-08-25T14:46:57.000Z</time>
      </trkpt>
      <trkpt lat="44.23576" lon="3.47373">
        <ele>1135.3</ele>
        <time>2020-08-25T14:46:59.000Z</time>
      </trkpt>
      <trkpt lat="44.23571" lon="3.47376">
        <ele>1135.4</ele>
        <time>2020-08-25T14:47:00.000Z</time>
      </trkpt>
      <trkpt lat="44.23565" lon="3.47379">
        <ele>1135.5</ele>
        <time>2020-08-25T14:47:01.000Z</time>
      </trkpt>
      <trkpt lat="44.23561" lon="3.47381">
        <ele>1135.7</ele>
        <time>2020-08-25T14:47:02.000Z</time>
      </trkpt>
      <trkpt lat="44.23555" lon="3.47384">
        <ele>1135.9</ele>
        <time>2020-08-25T14:47:04.000Z</time>
      </trkpt>
      <trkpt lat="44.23552" lon="3.47385">
        <ele>1136</ele>
        <time>2020-08-25T14:47:05.000Z</time>
      </trkpt>
      <trkpt lat="44.23549" lon="3.47387">
        <ele>1136.2</ele>
        <time>2020-08-25T14:47:06.000Z</time>
      </trkpt>
      <trkpt lat="44.23546" lon="3.47389">
        <ele>1136.3</ele>
        <time>2020-08-25T14:47:07.000Z</time>
      </trkpt>
      <trkpt lat="44.23543" lon="3.4739">
        <ele>1136.4</ele>
        <time>2020-08-25T14:47:08.000Z</time>
      </trkpt>
      <trkpt lat="44.23539" lon="3.47392">
        <ele>1136.5</ele>
        <time>2020-08-25T14:47:10.000Z</time>
      </trkpt>
      <trkpt lat="44.23537" lon="3.47393">
        <ele>1136.5</ele>
        <time>2020-08-25T14:47:11.000Z</time>
      </trkpt>
      <trkpt lat="44.23533" lon="3.47394">
        <ele>1136.6</ele>
        <time>2020-08-25T14:47:12.000Z</time>
      </trkpt>
      <trkpt lat="44.2353" lon="3.47394">
        <ele>1136.7</ele>
        <time>2020-08-25T14:47:13.000Z</time>
      </trkpt>
      <trkpt lat="44.23527" lon="3.47395">
        <ele>1136.7</ele>
        <time>2020-08-25T14:47:15.000Z</time>
      </trkpt>
      <trkpt lat="44.23523" lon="3.47396">
        <ele>1136.8</ele>
        <time>2020-08-25T14:47:16.000Z</time>
      </trkpt>
      <trkpt lat="44.23519" lon="3.47398">
        <ele>1136.8</ele>
        <time>2020-08-25T14:47:18.000Z</time>
      </trkpt>
      <trkpt lat="44.23515" lon="3.47398">
        <ele>1136.9</ele>
        <time>2020-08-25T14:47:19.000Z</time>
      </trkpt>
      <trkpt lat="44.23511" lon="3.474">
        <ele>1136.9</ele>
        <time>2020-08-25T14:47:21.000Z</time>
      </trkpt>
      <trkpt lat="44.23508" lon="3.47401">
        <ele>1136.9</ele>
        <time>2020-08-25T14:47:22.000Z</time>
      </trkpt>
      <trkpt lat="44.23505" lon="3.47402">
        <ele>1137</ele>
        <time>2020-08-25T14:47:23.000Z</time>
      </trkpt>
      <trkpt lat="44.23501" lon="3.47404">
        <ele>1137</ele>
        <time>2020-08-25T14:47:25.000Z</time>
      </trkpt>
      <trkpt lat="44.23498" lon="3.47404">
        <ele>1137</ele>
        <time>2020-08-25T14:47:26.000Z</time>
      </trkpt>
      <trkpt lat="44.23494" lon="3.47405">
        <ele>1137.1</ele>
        <time>2020-08-25T14:47:28.000Z</time>
      </trkpt>
      <trkpt lat="44.23493" lon="3.47406">
        <ele>1137.1</ele>
        <time>2020-08-25T14:47:29.000Z</time>
      </trkpt>
      <trkpt lat="44.23491" lon="3.47407">
        <ele>1137.2</ele>
        <time>2020-08-25T14:47:30.000Z</time>
      </trkpt>
      <trkpt lat="44.23488" lon="3.47408">
        <ele>1137.3</ele>
        <time>2020-08-25T14:47:32.000Z</time>
      </trkpt>
      <trkpt lat="44.23486" lon="3.4741">
        <ele>1137.3</ele>
        <time>2020-08-25T14:47:33.000Z</time>
      </trkpt>
      <trkpt lat="44.23485" lon="3.4741">
        <ele>1137.4</ele>
        <time>2020-08-25T14:47:34.000Z</time>
      </trkpt>
      <trkpt lat="44.23481" lon="3.47412">
        <ele>1137.5</ele>
        <time>2020-08-25T14:47:36.000Z</time>
      </trkpt>
      <trkpt lat="44.23479" lon="3.47413">
        <ele>1137.5</ele>
        <time>2020-08-25T14:47:37.000Z</time>
      </trkpt>
      <trkpt lat="44.23477" lon="3.47414">
        <ele>1137.6</ele>
        <time>2020-08-25T14:47:38.000Z</time>
      </trkpt>
      <trkpt lat="44.23474" lon="3.47415">
        <ele>1137.7</ele>
        <time>2020-08-25T14:47:40.000Z</time>
      </trkpt>
      <trkpt lat="44.23469" lon="3.47418">
        <ele>1137.9</ele>
        <time>2020-08-25T14:47:41.000Z</time>
      </trkpt>
      <trkpt lat="44.23463" lon="3.47421">
        <ele>1138.1</ele>
        <time>2020-08-25T14:47:42.000Z</time>
      </trkpt>
      <trkpt lat="44.23458" lon="3.47423">
        <ele>1138.2</ele>
        <time>2020-08-25T14:47:44.000Z</time>
      </trkpt>
      <trkpt lat="44.23455" lon="3.47425">
        <ele>1138.4</ele>
        <time>2020-08-25T14:47:45.000Z</time>
      </trkpt>
      <trkpt lat="44.23452" lon="3.47427">
        <ele>1138.5</ele>
        <time>2020-08-25T14:47:46.000Z</time>
      </trkpt>
      <trkpt lat="44.23448" lon="3.47428">
        <ele>1138.6</ele>
        <time>2020-08-25T14:47:48.000Z</time>
      </trkpt>
      <trkpt lat="44.23445" lon="3.47429">
        <ele>1138.8</ele>
        <time>2020-08-25T14:47:49.000Z</time>
      </trkpt>
      <trkpt lat="44.23442" lon="3.47429">
        <ele>1138.9</ele>
        <time>2020-08-25T14:47:50.000Z</time>
      </trkpt>
      <trkpt lat="44.23439" lon="3.4743">
        <ele>1138.9</ele>
        <time>2020-08-25T14:47:51.000Z</time>
      </trkpt>
      <trkpt lat="44.23436" lon="3.47431">
        <ele>1139</ele>
        <time>2020-08-25T14:47:53.000Z</time>
      </trkpt>
      <trkpt lat="44.23433" lon="3.47433">
        <ele>1139.1</ele>
        <time>2020-08-25T14:47:54.000Z</time>
      </trkpt>
      <trkpt lat="44.23429" lon="3.47434">
        <ele>1139.1</ele>
        <time>2020-08-25T14:47:55.000Z</time>
      </trkpt>
      <trkpt lat="44.23426" lon="3.47435">
        <ele>1139.2</ele>
        <time>2020-08-25T14:47:57.000Z</time>
      </trkpt>
      <trkpt lat="44.23421" lon="3.47437">
        <ele>1139.4</ele>
        <time>2020-08-25T14:47:58.000Z</time>
      </trkpt>
      <trkpt lat="44.23418" lon="3.47438">
        <ele>1139.5</ele>
        <time>2020-08-25T14:48:00.000Z</time>
      </trkpt>
      <trkpt lat="44.23414" lon="3.4744">
        <ele>1139.7</ele>
        <time>2020-08-25T14:48:01.000Z</time>
      </trkpt>
      <trkpt lat="44.23409" lon="3.47443">
        <ele>1139.8</ele>
        <time>2020-08-25T14:48:03.000Z</time>
      </trkpt>
      <trkpt lat="44.23406" lon="3.47445">
        <ele>1140</ele>
        <time>2020-08-25T14:48:04.000Z</time>
      </trkpt>
      <trkpt lat="44.23402" lon="3.47447">
        <ele>1140.1</ele>
        <time>2020-08-25T14:48:05.000Z</time>
      </trkpt>
      <trkpt lat="44.23398" lon="3.47449">
        <ele>1140.3</ele>
        <time>2020-08-25T14:48:07.000Z</time>
      </trkpt>
      <trkpt lat="44.23394" lon="3.47452">
        <ele>1140.5</ele>
        <time>2020-08-25T14:48:08.000Z</time>
      </trkpt>
      <trkpt lat="44.23391" lon="3.47455">
        <ele>1140.7</ele>
        <time>2020-08-25T14:48:09.000Z</time>
      </trkpt>
      <trkpt lat="44.23387" lon="3.47459">
        <ele>1141</ele>
        <time>2020-08-25T14:48:11.000Z</time>
      </trkpt>
      <trkpt lat="44.23384" lon="3.47461">
        <ele>1141.2</ele>
        <time>2020-08-25T14:48:12.000Z</time>
      </trkpt>
      <trkpt lat="44.23383" lon="3.47462">
        <ele>1141.3</ele>
        <time>2020-08-25T14:48:13.000Z</time>
      </trkpt>
      <trkpt lat="44.2338" lon="3.47465">
        <ele>1141.6</ele>
        <time>2020-08-25T14:48:15.000Z</time>
      </trkpt>
      <trkpt lat="44.23377" lon="3.47467">
        <ele>1141.8</ele>
        <time>2020-08-25T14:48:16.000Z</time>
      </trkpt>
      <trkpt lat="44.23375" lon="3.47469">
        <ele>1142</ele>
        <time>2020-08-25T14:48:17.000Z</time>
      </trkpt>
      <trkpt lat="44.23371" lon="3.47471">
        <ele>1142.2</ele>
        <time>2020-08-25T14:48:19.000Z</time>
      </trkpt>
      <trkpt lat="44.23369" lon="3.47473">
        <ele>1142.4</ele>
        <time>2020-08-25T14:48:20.000Z</time>
      </trkpt>
      <trkpt lat="44.23365" lon="3.47476">
        <ele>1142.5</ele>
        <time>2020-08-25T14:48:21.000Z</time>
      </trkpt>
      <trkpt lat="44.23363" lon="3.47479">
        <ele>1142.6</ele>
        <time>2020-08-25T14:48:22.000Z</time>
      </trkpt>
      <trkpt lat="44.23359" lon="3.47481">
        <ele>1142.7</ele>
        <time>2020-08-25T14:48:24.000Z</time>
      </trkpt>
      <trkpt lat="44.23358" lon="3.47482">
        <ele>1142.8</ele>
        <time>2020-08-25T14:48:25.000Z</time>
      </trkpt>
      <trkpt lat="44.23357" lon="3.47483">
        <ele>1142.8</ele>
        <time>2020-08-25T14:48:26.000Z</time>
      </trkpt>
      <trkpt lat="44.23355" lon="3.47484">
        <ele>1142.8</ele>
        <time>2020-08-25T14:48:27.000Z</time>
      </trkpt>
      <trkpt lat="44.23352" lon="3.47487">
        <ele>1142.9</ele>
        <time>2020-08-25T14:48:29.000Z</time>
      </trkpt>
      <trkpt lat="44.2335" lon="3.4749">
        <ele>1143</ele>
        <time>2020-08-25T14:48:30.000Z</time>
      </trkpt>
      <trkpt lat="44.23349" lon="3.47491">
        <ele>1143</ele>
        <time>2020-08-25T14:48:31.000Z</time>
      </trkpt>
      <trkpt lat="44.23346" lon="3.47492">
        <ele>1143</ele>
        <time>2020-08-25T14:48:32.000Z</time>
      </trkpt>
      <trkpt lat="44.23344" lon="3.47493">
        <ele>1143</ele>
        <time>2020-08-25T14:48:34.000Z</time>
      </trkpt>
      <trkpt lat="44.23341" lon="3.47495">
        <ele>1143</ele>
        <time>2020-08-25T14:48:35.000Z</time>
      </trkpt>
      <trkpt lat="44.23338" lon="3.47496">
        <ele>1143</ele>
        <time>2020-08-25T14:48:37.000Z</time>
      </trkpt>
      <trkpt lat="44.23335" lon="3.47497">
        <ele>1142.9</ele>
        <time>2020-08-25T14:48:38.000Z</time>
      </trkpt>
      <trkpt lat="44.23333" lon="3.47499">
        <ele>1142.9</ele>
        <time>2020-08-25T14:48:40.000Z</time>
      </trkpt>
      <trkpt lat="44.23331" lon="3.475">
        <ele>1142.8</ele>
        <time>2020-08-25T14:48:41.000Z</time>
      </trkpt>
      <trkpt lat="44.23329" lon="3.47501">
        <ele>1142.8</ele>
        <time>2020-08-25T14:48:42.000Z</time>
      </trkpt>
      <trkpt lat="44.23326" lon="3.47503">
        <ele>1142.7</ele>
        <time>2020-08-25T14:48:44.000Z</time>
      </trkpt>
      <trkpt lat="44.23325" lon="3.47504">
        <ele>1142.7</ele>
        <time>2020-08-25T14:48:45.000Z</time>
      </trkpt>
      <trkpt lat="44.23323" lon="3.47507">
        <ele>1142.6</ele>
        <time>2020-08-25T14:48:46.000Z</time>
      </trkpt>
      <trkpt lat="44.23323" lon="3.47508">
        <ele>1142.6</ele>
        <time>2020-08-25T14:48:47.000Z</time>
      </trkpt>
      <trkpt lat="44.23321" lon="3.47509">
        <ele>1142.5</ele>
        <time>2020-08-25T14:48:48.000Z</time>
      </trkpt>
      <trkpt lat="44.23319" lon="3.47511">
        <ele>1142.5</ele>
        <time>2020-08-25T14:48:50.000Z</time>
      </trkpt>
      <trkpt lat="44.23319" lon="3.47511">
        <ele>1142.5</ele>
        <time>2020-08-25T14:48:51.000Z</time>
      </trkpt>
      <trkpt lat="44.23319" lon="3.4751">
        <ele>1142.5</ele>
        <time>2020-08-25T14:48:52.000Z</time>
      </trkpt>
      <trkpt lat="44.2332" lon="3.4751">
        <ele>1142.5</ele>
        <time>2020-08-25T14:48:53.000Z</time>
      </trkpt>
      <trkpt lat="44.2332" lon="3.47509">
        <ele>1142.4</ele>
        <time>2020-08-25T14:48:55.000Z</time>
      </trkpt>
      <trkpt lat="44.2332" lon="3.47509">
        <ele>1142.4</ele>
        <time>2020-08-25T14:48:56.000Z</time>
      </trkpt>
      <trkpt lat="44.2332" lon="3.47509">
        <ele>1142.4</ele>
        <time>2020-08-25T14:48:58.000Z</time>
      </trkpt>
      <trkpt lat="44.23319" lon="3.4751">
        <ele>1142.4</ele>
        <time>2020-08-25T14:48:59.000Z</time>
      </trkpt>
      <trkpt lat="44.23318" lon="3.47512">
        <ele>1142.3</ele>
        <time>2020-08-25T14:49:00.000Z</time>
      </trkpt>
      <trkpt lat="44.23316" lon="3.47514">
        <ele>1142.2</ele>
        <time>2020-08-25T14:49:02.000Z</time>
      </trkpt>
      <trkpt lat="44.23313" lon="3.47516">
        <ele>1142</ele>
        <time>2020-08-25T14:49:03.000Z</time>
      </trkpt>
      <trkpt lat="44.23312" lon="3.47517">
        <ele>1142</ele>
        <time>2020-08-25T14:49:04.000Z</time>
      </trkpt>
      <trkpt lat="44.23309" lon="3.47519">
        <ele>1141.8</ele>
        <time>2020-08-25T14:49:06.000Z</time>
      </trkpt>
      <trkpt lat="44.23308" lon="3.4752">
        <ele>1141.7</ele>
        <time>2020-08-25T14:49:07.000Z</time>
      </trkpt>
      <trkpt lat="44.23305" lon="3.47524">
        <ele>1141.6</ele>
        <time>2020-08-25T14:49:08.000Z</time>
      </trkpt>
      <trkpt lat="44.23303" lon="3.47529">
        <ele>1141.4</ele>
        <time>2020-08-25T14:49:10.000Z</time>
      </trkpt>
      <trkpt lat="44.23298" lon="3.4754">
        <ele>1140.8</ele>
        <time>2020-08-25T14:49:11.000Z</time>
      </trkpt>
      <trkpt lat="44.23294" lon="3.47553">
        <ele>1140.3</ele>
        <time>2020-08-25T14:49:12.000Z</time>
      </trkpt>
      <trkpt lat="44.2329" lon="3.47563">
        <ele>1139.9</ele>
        <time>2020-08-25T14:49:13.000Z</time>
      </trkpt>
      <trkpt lat="44.23283" lon="3.47579">
        <ele>1139.3</ele>
        <time>2020-08-25T14:49:15.000Z</time>
      </trkpt>
      <trkpt lat="44.23279" lon="3.47586">
        <ele>1139.1</ele>
        <time>2020-08-25T14:49:16.000Z</time>
      </trkpt>
      <trkpt lat="44.23276" lon="3.47592">
        <ele>1138.9</ele>
        <time>2020-08-25T14:49:17.000Z</time>
      </trkpt>
      <trkpt lat="44.23269" lon="3.47602">
        <ele>1138.7</ele>
        <time>2020-08-25T14:49:19.000Z</time>
      </trkpt>
      <trkpt lat="44.23266" lon="3.47608">
        <ele>1138.7</ele>
        <time>2020-08-25T14:49:21.000Z</time>
      </trkpt>
      <trkpt lat="44.23262" lon="3.47611">
        <ele>1138.7</ele>
        <time>2020-08-25T14:49:22.000Z</time>
      </trkpt>
      <trkpt lat="44.23258" lon="3.47614">
        <ele>1138.7</ele>
        <time>2020-08-25T14:49:23.000Z</time>
      </trkpt>
      <trkpt lat="44.23252" lon="3.47619">
        <ele>1138.6</ele>
        <time>2020-08-25T14:49:25.000Z</time>
      </trkpt>
      <trkpt lat="44.23247" lon="3.47625">
        <ele>1138.6</ele>
        <time>2020-08-25T14:49:27.000Z</time>
      </trkpt>
      <trkpt lat="44.23243" lon="3.47628">
        <ele>1138.5</ele>
        <time>2020-08-25T14:49:28.000Z</time>
      </trkpt>
      <trkpt lat="44.23239" lon="3.47632">
        <ele>1138.5</ele>
        <time>2020-08-25T14:49:29.000Z</time>
      </trkpt>
      <trkpt lat="44.23234" lon="3.47637">
        <ele>1138.4</ele>
        <time>2020-08-25T14:49:31.000Z</time>
      </trkpt>
      <trkpt lat="44.23229" lon="3.47641">
        <ele>1138.4</ele>
        <time>2020-08-25T14:49:32.000Z</time>
      </trkpt>
      <trkpt lat="44.23225" lon="3.47647">
        <ele>1138.4</ele>
        <time>2020-08-25T14:49:33.000Z</time>
      </trkpt>
      <trkpt lat="44.23221" lon="3.47652">
        <ele>1138.3</ele>
        <time>2020-08-25T14:49:34.000Z</time>
      </trkpt>
      <trkpt lat="44.23216" lon="3.47656">
        <ele>1138.3</ele>
        <time>2020-08-25T14:49:35.000Z</time>
      </trkpt>
      <trkpt lat="44.23211" lon="3.47661">
        <ele>1138.1</ele>
        <time>2020-08-25T14:49:36.000Z</time>
      </trkpt>
      <trkpt lat="44.23206" lon="3.47665">
        <ele>1138</ele>
        <time>2020-08-25T14:49:37.000Z</time>
      </trkpt>
      <trkpt lat="44.23197" lon="3.47671">
        <ele>1137.7</ele>
        <time>2020-08-25T14:49:39.000Z</time>
      </trkpt>
      <trkpt lat="44.23186" lon="3.47677">
        <ele>1137.4</ele>
        <time>2020-08-25T14:49:41.000Z</time>
      </trkpt>
      <trkpt lat="44.2318" lon="3.4768">
        <ele>1137.4</ele>
        <time>2020-08-25T14:49:42.000Z</time>
      </trkpt>
      <trkpt lat="44.23169" lon="3.47686">
        <ele>1137.3</ele>
        <time>2020-08-25T14:49:44.000Z</time>
      </trkpt>
      <trkpt lat="44.23158" lon="3.47691">
        <ele>1137.4</ele>
        <time>2020-08-25T14:49:46.000Z</time>
      </trkpt>
      <trkpt lat="44.23153" lon="3.47692">
        <ele>1137.6</ele>
        <time>2020-08-25T14:49:47.000Z</time>
      </trkpt>
      <trkpt lat="44.23142" lon="3.47694">
        <ele>1137.8</ele>
        <time>2020-08-25T14:49:49.000Z</time>
      </trkpt>
      <trkpt lat="44.23131" lon="3.47695">
        <ele>1137.9</ele>
        <time>2020-08-25T14:49:51.000Z</time>
      </trkpt>
      <trkpt lat="44.2312" lon="3.47696">
        <ele>1138</ele>
        <time>2020-08-25T14:49:53.000Z</time>
      </trkpt>
      <trkpt lat="44.23114" lon="3.47696">
        <ele>1138.1</ele>
        <time>2020-08-25T14:49:54.000Z</time>
      </trkpt>
      <trkpt lat="44.23103" lon="3.47696">
        <ele>1138.3</ele>
        <time>2020-08-25T14:49:56.000Z</time>
      </trkpt>
      <trkpt lat="44.2309" lon="3.47698">
        <ele>1138.8</ele>
        <time>2020-08-25T14:49:58.000Z</time>
      </trkpt>
      <trkpt lat="44.23079" lon="3.47703">
        <ele>1139.2</ele>
        <time>2020-08-25T14:50:00.000Z</time>
      </trkpt>
      <trkpt lat="44.23069" lon="3.47707">
        <ele>1139.6</ele>
        <time>2020-08-25T14:50:02.000Z</time>
      </trkpt>
      <trkpt lat="44.23064" lon="3.47708">
        <ele>1139.8</ele>
        <time>2020-08-25T14:50:03.000Z</time>
      </trkpt>
      <trkpt lat="44.23054" lon="3.47711">
        <ele>1140.1</ele>
        <time>2020-08-25T14:50:05.000Z</time>
      </trkpt>
      <trkpt lat="44.23049" lon="3.47713">
        <ele>1140.2</ele>
        <time>2020-08-25T14:50:06.000Z</time>
      </trkpt>
      <trkpt lat="44.23039" lon="3.47714">
        <ele>1140.6</ele>
        <time>2020-08-25T14:50:08.000Z</time>
      </trkpt>
      <trkpt lat="44.23034" lon="3.47715">
        <ele>1140.7</ele>
        <time>2020-08-25T14:50:09.000Z</time>
      </trkpt>
      <trkpt lat="44.23024" lon="3.47718">
        <ele>1141</ele>
        <time>2020-08-25T14:50:11.000Z</time>
      </trkpt>
      <trkpt lat="44.23015" lon="3.47723">
        <ele>1141</ele>
        <time>2020-08-25T14:50:13.000Z</time>
      </trkpt>
      <trkpt lat="44.23005" lon="3.47727">
        <ele>1140.9</ele>
        <time>2020-08-25T14:50:15.000Z</time>
      </trkpt>
      <trkpt lat="44.23001" lon="3.47729">
        <ele>1140.8</ele>
        <time>2020-08-25T14:50:16.000Z</time>
      </trkpt>
      <trkpt lat="44.22996" lon="3.4773">
        <ele>1140.7</ele>
        <time>2020-08-25T14:50:17.000Z</time>
      </trkpt>
      <trkpt lat="44.2299" lon="3.4773">
        <ele>1140.5</ele>
        <time>2020-08-25T14:50:19.000Z</time>
      </trkpt>
      <trkpt lat="44.22982" lon="3.4773">
        <ele>1140.1</ele>
        <time>2020-08-25T14:50:21.000Z</time>
      </trkpt>
      <trkpt lat="44.22979" lon="3.4773">
        <ele>1139.9</ele>
        <time>2020-08-25T14:50:22.000Z</time>
      </trkpt>
      <trkpt lat="44.22971" lon="3.47729">
        <ele>1139.5</ele>
        <time>2020-08-25T14:50:24.000Z</time>
      </trkpt>
      <trkpt lat="44.22961" lon="3.47726">
        <ele>1138.9</ele>
        <time>2020-08-25T14:50:26.000Z</time>
      </trkpt>
      <trkpt lat="44.2295" lon="3.47723">
        <ele>1138.2</ele>
        <time>2020-08-25T14:50:28.000Z</time>
      </trkpt>
      <trkpt lat="44.22939" lon="3.47719">
        <ele>1137.4</ele>
        <time>2020-08-25T14:50:30.000Z</time>
      </trkpt>
      <trkpt lat="44.22929" lon="3.47714">
        <ele>1136.9</ele>
        <time>2020-08-25T14:50:32.000Z</time>
      </trkpt>
      <trkpt lat="44.22923" lon="3.47712">
        <ele>1136.7</ele>
        <time>2020-08-25T14:50:34.000Z</time>
      </trkpt>
      <trkpt lat="44.2292" lon="3.47714">
        <ele>1136.7</ele>
        <time>2020-08-25T14:50:35.000Z</time>
      </trkpt>
      <trkpt lat="44.22915" lon="3.47708">
        <ele>1136.6</ele>
        <time>2020-08-25T14:50:37.000Z</time>
      </trkpt>
      <trkpt lat="44.22913" lon="3.47706">
        <ele>1136.6</ele>
        <time>2020-08-25T14:50:38.000Z</time>
      </trkpt>
      <trkpt lat="44.22913" lon="3.47706">
        <ele>1136.6</ele>
        <time>2020-08-25T14:50:40.000Z</time>
      </trkpt>
      <trkpt lat="44.22913" lon="3.47705">
        <ele>1136.6</ele>
        <time>2020-08-25T14:50:41.000Z</time>
      </trkpt>
      <trkpt lat="44.22913" lon="3.47705">
        <ele>1136.6</ele>
        <time>2020-08-25T14:50:43.000Z</time>
      </trkpt>
      <trkpt lat="44.22913" lon="3.47704">
        <ele>1136.6</ele>
        <time>2020-08-25T14:50:44.000Z</time>
      </trkpt>
      <trkpt lat="44.22912" lon="3.47704">
        <ele>1136.6</ele>
        <time>2020-08-25T14:50:45.000Z</time>
      </trkpt>
      <trkpt lat="44.22912" lon="3.47703">
        <ele>1136.6</ele>
        <time>2020-08-25T14:50:46.000Z</time>
      </trkpt>
      <trkpt lat="44.22912" lon="3.47703">
        <ele>1136.5</ele>
        <time>2020-08-25T14:50:48.000Z</time>
      </trkpt>
      <trkpt lat="44.22912" lon="3.47702">
        <ele>1136.5</ele>
        <time>2020-08-25T14:50:49.000Z</time>
      </trkpt>
      <trkpt lat="44.22911" lon="3.47701">
        <ele>1136.5</ele>
        <time>2020-08-25T14:50:50.000Z</time>
      </trkpt>
      <trkpt lat="44.22908" lon="3.477">
        <ele>1136.4</ele>
        <time>2020-08-25T14:50:51.000Z</time>
      </trkpt>
      <trkpt lat="44.22907" lon="3.47699">
        <ele>1136.4</ele>
        <time>2020-08-25T14:50:52.000Z</time>
      </trkpt>
      <trkpt lat="44.22902" lon="3.47697">
        <ele>1136.3</ele>
        <time>2020-08-25T14:50:54.000Z</time>
      </trkpt>
      <trkpt lat="44.229" lon="3.47696">
        <ele>1136.2</ele>
        <time>2020-08-25T14:50:55.000Z</time>
      </trkpt>
      <trkpt lat="44.22899" lon="3.47695">
        <ele>1136.1</ele>
        <time>2020-08-25T14:50:56.000Z</time>
      </trkpt>
      <trkpt lat="44.22896" lon="3.47693">
        <ele>1136</ele>
        <time>2020-08-25T14:50:57.000Z</time>
      </trkpt>
      <trkpt lat="44.22894" lon="3.47691">
        <ele>1136</ele>
        <time>2020-08-25T14:50:58.000Z</time>
      </trkpt>
      <trkpt lat="44.22893" lon="3.47691">
        <ele>1135.9</ele>
        <time>2020-08-25T14:51:00.000Z</time>
      </trkpt>
      <trkpt lat="44.22893" lon="3.4769">
        <ele>1135.9</ele>
        <time>2020-08-25T14:51:01.000Z</time>
      </trkpt>
      <trkpt lat="44.22893" lon="3.47689">
        <ele>1135.9</ele>
        <time>2020-08-25T14:51:02.000Z</time>
      </trkpt>
      <trkpt lat="44.22893" lon="3.47689">
        <ele>1135.9</ele>
        <time>2020-08-25T14:51:04.000Z</time>
      </trkpt>
      <trkpt lat="44.22893" lon="3.47688">
        <ele>1135.9</ele>
        <time>2020-08-25T14:51:05.000Z</time>
      </trkpt>
      <trkpt lat="44.22893" lon="3.47688">
        <ele>1135.9</ele>
        <time>2020-08-25T14:51:07.000Z</time>
      </trkpt>
      <trkpt lat="44.22893" lon="3.47688">
        <ele>1135.9</ele>
        <time>2020-08-25T14:51:09.000Z</time>
      </trkpt>
      <trkpt lat="44.22887" lon="3.47688">
        <ele>1135.6</ele>
        <time>2020-08-25T14:51:32.000Z</time>
      </trkpt>
      <trkpt lat="44.22884" lon="3.47686">
        <ele>1135.4</ele>
        <time>2020-08-25T14:51:33.000Z</time>
      </trkpt>
      <trkpt lat="44.2288" lon="3.47685">
        <ele>1135.2</ele>
        <time>2020-08-25T14:51:34.000Z</time>
      </trkpt>
      <trkpt lat="44.22876" lon="3.47684">
        <ele>1134.9</ele>
        <time>2020-08-25T14:51:35.000Z</time>
      </trkpt>
      <trkpt lat="44.22867" lon="3.47683">
        <ele>1134.3</ele>
        <time>2020-08-25T14:51:37.000Z</time>
      </trkpt>
      <trkpt lat="44.22862" lon="3.47684">
        <ele>1134</ele>
        <time>2020-08-25T14:51:38.000Z</time>
      </trkpt>
      <trkpt lat="44.22857" lon="3.47685">
        <ele>1133.7</ele>
        <time>2020-08-25T14:51:39.000Z</time>
      </trkpt>
      <trkpt lat="44.22852" lon="3.47685">
        <ele>1133.4</ele>
        <time>2020-08-25T14:51:40.000Z</time>
      </trkpt>
      <trkpt lat="44.22841" lon="3.47687">
        <ele>1132.8</ele>
        <time>2020-08-25T14:51:42.000Z</time>
      </trkpt>
      <trkpt lat="44.22835" lon="3.47688">
        <ele>1132.5</ele>
        <time>2020-08-25T14:51:43.000Z</time>
      </trkpt>
      <trkpt lat="44.22829" lon="3.47689">
        <ele>1132.1</ele>
        <time>2020-08-25T14:51:44.000Z</time>
      </trkpt>
      <trkpt lat="44.22818" lon="3.4769">
        <ele>1131.3</ele>
        <time>2020-08-25T14:51:46.000Z</time>
      </trkpt>
      <trkpt lat="44.22812" lon="3.47691">
        <ele>1130.9</ele>
        <time>2020-08-25T14:51:47.000Z</time>
      </trkpt>
      <trkpt lat="44.228" lon="3.47693">
        <ele>1130.2</ele>
        <time>2020-08-25T14:51:49.000Z</time>
      </trkpt>
      <trkpt lat="44.22789" lon="3.47696">
        <ele>1129.7</ele>
        <time>2020-08-25T14:51:51.000Z</time>
      </trkpt>
      <trkpt lat="44.22778" lon="3.47701">
        <ele>1129.2</ele>
        <time>2020-08-25T14:51:53.000Z</time>
      </trkpt>
      <trkpt lat="44.22772" lon="3.47704">
        <ele>1128.9</ele>
        <time>2020-08-25T14:51:54.000Z</time>
      </trkpt>
      <trkpt lat="44.22762" lon="3.4771">
        <ele>1128.4</ele>
        <time>2020-08-25T14:51:56.000Z</time>
      </trkpt>
      <trkpt lat="44.22751" lon="3.47717">
        <ele>1127.6</ele>
        <time>2020-08-25T14:51:58.000Z</time>
      </trkpt>
      <trkpt lat="44.22741" lon="3.47724">
        <ele>1126.6</ele>
        <time>2020-08-25T14:52:00.000Z</time>
      </trkpt>
      <trkpt lat="44.2273" lon="3.47732">
        <ele>1125.5</ele>
        <time>2020-08-25T14:52:02.000Z</time>
      </trkpt>
      <trkpt lat="44.22725" lon="3.47736">
        <ele>1124.8</ele>
        <time>2020-08-25T14:52:03.000Z</time>
      </trkpt>
      <trkpt lat="44.2272" lon="3.47741">
        <ele>1124.2</ele>
        <time>2020-08-25T14:52:04.000Z</time>
      </trkpt>
      <trkpt lat="44.2271" lon="3.47753">
        <ele>1122.9</ele>
        <time>2020-08-25T14:52:06.000Z</time>
      </trkpt>
      <trkpt lat="44.227" lon="3.47766">
        <ele>1121.5</ele>
        <time>2020-08-25T14:52:08.000Z</time>
      </trkpt>
      <trkpt lat="44.22694" lon="3.47774">
        <ele>1120.8</ele>
        <time>2020-08-25T14:52:09.000Z</time>
      </trkpt>
      <trkpt lat="44.22685" lon="3.47789">
        <ele>1119.6</ele>
        <time>2020-08-25T14:52:11.000Z</time>
      </trkpt>
      <trkpt lat="44.2268" lon="3.47798">
        <ele>1119.1</ele>
        <time>2020-08-25T14:52:12.000Z</time>
      </trkpt>
      <trkpt lat="44.22676" lon="3.47806">
        <ele>1118.6</ele>
        <time>2020-08-25T14:52:13.000Z</time>
      </trkpt>
      <trkpt lat="44.2267" lon="3.47822">
        <ele>1117.7</ele>
        <time>2020-08-25T14:52:15.000Z</time>
      </trkpt>
      <trkpt lat="44.22666" lon="3.4783">
        <ele>1117.3</ele>
        <time>2020-08-25T14:52:16.000Z</time>
      </trkpt>
      <trkpt lat="44.2266" lon="3.47837">
        <ele>1116.9</ele>
        <time>2020-08-25T14:52:17.000Z</time>
      </trkpt>
      <trkpt lat="44.22648" lon="3.47839">
        <ele>1116.5</ele>
        <time>2020-08-25T14:52:19.000Z</time>
      </trkpt>
      <trkpt lat="44.22642" lon="3.4784">
        <ele>1116.3</ele>
        <time>2020-08-25T14:52:20.000Z</time>
      </trkpt>
      <trkpt lat="44.22631" lon="3.47842">
        <ele>1116.2</ele>
        <time>2020-08-25T14:52:22.000Z</time>
      </trkpt>
      <trkpt lat="44.22626" lon="3.47843">
        <ele>1116.1</ele>
        <time>2020-08-25T14:52:23.000Z</time>
      </trkpt>
      <trkpt lat="44.22616" lon="3.47846">
        <ele>1115.9</ele>
        <time>2020-08-25T14:52:25.000Z</time>
      </trkpt>
      <trkpt lat="44.22605" lon="3.47851">
        <ele>1115.6</ele>
        <time>2020-08-25T14:52:27.000Z</time>
      </trkpt>
      <trkpt lat="44.22595" lon="3.47858">
        <ele>1115.2</ele>
        <time>2020-08-25T14:52:29.000Z</time>
      </trkpt>
      <trkpt lat="44.2259" lon="3.47862">
        <ele>1114.8</ele>
        <time>2020-08-25T14:52:30.000Z</time>
      </trkpt>
      <trkpt lat="44.22585" lon="3.47865">
        <ele>1114.4</ele>
        <time>2020-08-25T14:52:31.000Z</time>
      </trkpt>
      <trkpt lat="44.22573" lon="3.4787">
        <ele>1113.4</ele>
        <time>2020-08-25T14:52:33.000Z</time>
      </trkpt>
      <trkpt lat="44.22567" lon="3.47872">
        <ele>1113.1</ele>
        <time>2020-08-25T14:52:34.000Z</time>
      </trkpt>
      <trkpt lat="44.22556" lon="3.47878">
        <ele>1112.8</ele>
        <time>2020-08-25T14:52:36.000Z</time>
      </trkpt>
      <trkpt lat="44.2255" lon="3.4788">
        <ele>1112.8</ele>
        <time>2020-08-25T14:52:37.000Z</time>
      </trkpt>
      <trkpt lat="44.2254" lon="3.47882">
        <ele>1113.2</ele>
        <time>2020-08-25T14:52:39.000Z</time>
      </trkpt>
      <trkpt lat="44.22534" lon="3.47882">
        <ele>1113.6</ele>
        <time>2020-08-25T14:52:41.000Z</time>
      </trkpt>
      <trkpt lat="44.22532" lon="3.47881">
        <ele>1113.7</ele>
        <time>2020-08-25T14:52:42.000Z</time>
      </trkpt>
      <trkpt lat="44.22531" lon="3.47881">
        <ele>1113.8</ele>
        <time>2020-08-25T14:52:43.000Z</time>
      </trkpt>
      <trkpt lat="44.22528" lon="3.47881">
        <ele>1114</ele>
        <time>2020-08-25T14:52:45.000Z</time>
      </trkpt>
      <trkpt lat="44.22524" lon="3.47881">
        <ele>1114.2</ele>
        <time>2020-08-25T14:52:46.000Z</time>
      </trkpt>
      <trkpt lat="44.22527" lon="3.47883">
        <ele>1114.3</ele>
        <time>2020-08-25T14:52:48.000Z</time>
      </trkpt>
      <trkpt lat="44.22527" lon="3.47883">
        <ele>1114.3</ele>
        <time>2020-08-25T14:52:49.000Z</time>
      </trkpt>
      <trkpt lat="44.22524" lon="3.47883">
        <ele>1114.4</ele>
        <time>2020-08-25T14:52:50.000Z</time>
      </trkpt>
      <trkpt lat="44.2252" lon="3.47883">
        <ele>1114.4</ele>
        <time>2020-08-25T14:52:52.000Z</time>
      </trkpt>
      <trkpt lat="44.22515" lon="3.47883">
        <ele>1114.4</ele>
        <time>2020-08-25T14:52:53.000Z</time>
      </trkpt>
      <trkpt lat="44.22513" lon="3.47882">
        <ele>1114.3</ele>
        <time>2020-08-25T14:52:54.000Z</time>
      </trkpt>
      <trkpt lat="44.22508" lon="3.47881">
        <ele>1114.2</ele>
        <time>2020-08-25T14:52:56.000Z</time>
      </trkpt>
      <trkpt lat="44.22503" lon="3.47881">
        <ele>1114.1</ele>
        <time>2020-08-25T14:52:57.000Z</time>
      </trkpt>
      <trkpt lat="44.22498" lon="3.4788">
        <ele>1113.9</ele>
        <time>2020-08-25T14:52:58.000Z</time>
      </trkpt>
      <trkpt lat="44.22492" lon="3.47879">
        <ele>1113.7</ele>
        <time>2020-08-25T14:52:59.000Z</time>
      </trkpt>
      <trkpt lat="44.22486" lon="3.47878">
        <ele>1113.5</ele>
        <time>2020-08-25T14:53:01.000Z</time>
      </trkpt>
      <trkpt lat="44.22481" lon="3.47879">
        <ele>1113.5</ele>
        <time>2020-08-25T14:53:02.000Z</time>
      </trkpt>
      <trkpt lat="44.22477" lon="3.47879">
        <ele>1113.4</ele>
        <time>2020-08-25T14:53:03.000Z</time>
      </trkpt>
      <trkpt lat="44.22472" lon="3.47879">
        <ele>1113.3</ele>
        <time>2020-08-25T14:53:05.000Z</time>
      </trkpt>
      <trkpt lat="44.22468" lon="3.47879">
        <ele>1113.2</ele>
        <time>2020-08-25T14:53:06.000Z</time>
      </trkpt>
      <trkpt lat="44.22464" lon="3.47879">
        <ele>1113</ele>
        <time>2020-08-25T14:53:07.000Z</time>
      </trkpt>
      <trkpt lat="44.2246" lon="3.47879">
        <ele>1112.9</ele>
        <time>2020-08-25T14:53:08.000Z</time>
      </trkpt>
      <trkpt lat="44.22454" lon="3.47879">
        <ele>1112.7</ele>
        <time>2020-08-25T14:53:10.000Z</time>
      </trkpt>
      <trkpt lat="44.22451" lon="3.47878">
        <ele>1112.6</ele>
        <time>2020-08-25T14:53:11.000Z</time>
      </trkpt>
      <trkpt lat="44.22447" lon="3.47878">
        <ele>1112.5</ele>
        <time>2020-08-25T14:53:12.000Z</time>
      </trkpt>
      <trkpt lat="44.22441" lon="3.47879">
        <ele>1112.3</ele>
        <time>2020-08-25T14:53:14.000Z</time>
      </trkpt>
      <trkpt lat="44.22437" lon="3.47879">
        <ele>1112.2</ele>
        <time>2020-08-25T14:53:15.000Z</time>
      </trkpt>
      <trkpt lat="44.22434" lon="3.47879">
        <ele>1112.2</ele>
        <time>2020-08-25T14:53:16.000Z</time>
      </trkpt>
      <trkpt lat="44.22429" lon="3.47879">
        <ele>1112.2</ele>
        <time>2020-08-25T14:53:17.000Z</time>
      </trkpt>
      <trkpt lat="44.22425" lon="3.47879">
        <ele>1112.2</ele>
        <time>2020-08-25T14:53:19.000Z</time>
      </trkpt>
      <trkpt lat="44.2242" lon="3.47879">
        <ele>1112.2</ele>
        <time>2020-08-25T14:53:20.000Z</time>
      </trkpt>
      <trkpt lat="44.22415" lon="3.47879">
        <ele>1112.3</ele>
        <time>2020-08-25T14:53:22.000Z</time>
      </trkpt>
      <trkpt lat="44.2241" lon="3.4788">
        <ele>1112.4</ele>
        <time>2020-08-25T14:53:23.000Z</time>
      </trkpt>
      <trkpt lat="44.22404" lon="3.4788">
        <ele>1112.3</ele>
        <time>2020-08-25T14:53:25.000Z</time>
      </trkpt>
      <trkpt lat="44.224" lon="3.4788">
        <ele>1112.2</ele>
        <time>2020-08-25T14:53:26.000Z</time>
      </trkpt>
      <trkpt lat="44.22394" lon="3.47881">
        <ele>1112</ele>
        <time>2020-08-25T14:53:28.000Z</time>
      </trkpt>
      <trkpt lat="44.22391" lon="3.47881">
        <ele>1111.9</ele>
        <time>2020-08-25T14:53:29.000Z</time>
      </trkpt>
      <trkpt lat="44.22387" lon="3.47881">
        <ele>1111.7</ele>
        <time>2020-08-25T14:53:30.000Z</time>
      </trkpt>
      <trkpt lat="44.22383" lon="3.47881">
        <ele>1111.5</ele>
        <time>2020-08-25T14:53:31.000Z</time>
      </trkpt>
      <trkpt lat="44.22379" lon="3.47881">
        <ele>1111.4</ele>
        <time>2020-08-25T14:53:32.000Z</time>
      </trkpt>
      <trkpt lat="44.22375" lon="3.47881">
        <ele>1111.1</ele>
        <time>2020-08-25T14:53:33.000Z</time>
      </trkpt>
      <trkpt lat="44.22371" lon="3.47881">
        <ele>1110.9</ele>
        <time>2020-08-25T14:53:35.000Z</time>
      </trkpt>
      <trkpt lat="44.22366" lon="3.47881">
        <ele>1110.5</ele>
        <time>2020-08-25T14:53:36.000Z</time>
      </trkpt>
      <trkpt lat="44.22362" lon="3.47881">
        <ele>1110.2</ele>
        <time>2020-08-25T14:53:37.000Z</time>
      </trkpt>
      <trkpt lat="44.22351" lon="3.47883">
        <ele>1109.1</ele>
        <time>2020-08-25T14:53:39.000Z</time>
      </trkpt>
      <trkpt lat="44.22345" lon="3.47884">
        <ele>1108.6</ele>
        <time>2020-08-25T14:53:40.000Z</time>
      </trkpt>
      <trkpt lat="44.22334" lon="3.47889">
        <ele>1107.6</ele>
        <time>2020-08-25T14:53:42.000Z</time>
      </trkpt>
      <trkpt lat="44.22329" lon="3.47893">
        <ele>1107.4</ele>
        <time>2020-08-25T14:53:43.000Z</time>
      </trkpt>
      <trkpt lat="44.22321" lon="3.47903">
        <ele>1106.9</ele>
        <time>2020-08-25T14:53:45.000Z</time>
      </trkpt>
      <trkpt lat="44.22316" lon="3.47909">
        <ele>1106.6</ele>
        <time>2020-08-25T14:53:46.000Z</time>
      </trkpt>
      <trkpt lat="44.22312" lon="3.47914">
        <ele>1106.2</ele>
        <time>2020-08-25T14:53:47.000Z</time>
      </trkpt>
      <trkpt lat="44.22304" lon="3.47926">
        <ele>1105.5</ele>
        <time>2020-08-25T14:53:49.000Z</time>
      </trkpt>
      <trkpt lat="44.223" lon="3.47932">
        <ele>1105</ele>
        <time>2020-08-25T14:53:50.000Z</time>
      </trkpt>
      <trkpt lat="44.2229" lon="3.47945">
        <ele>1103.7</ele>
        <time>2020-08-25T14:53:52.000Z</time>
      </trkpt>
      <trkpt lat="44.2228" lon="3.47956">
        <ele>1102.5</ele>
        <time>2020-08-25T14:53:54.000Z</time>
      </trkpt>
      <trkpt lat="44.22268" lon="3.47965">
        <ele>1102.1</ele>
        <time>2020-08-25T14:53:56.000Z</time>
      </trkpt>
      <trkpt lat="44.22263" lon="3.47969">
        <ele>1101.8</ele>
        <time>2020-08-25T14:53:57.000Z</time>
      </trkpt>
      <trkpt lat="44.22258" lon="3.47973">
        <ele>1101.5</ele>
        <time>2020-08-25T14:53:58.000Z</time>
      </trkpt>
      <trkpt lat="44.22253" lon="3.47976">
        <ele>1101.1</ele>
        <time>2020-08-25T14:53:59.000Z</time>
      </trkpt>
      <trkpt lat="44.22242" lon="3.47981">
        <ele>1100.3</ele>
        <time>2020-08-25T14:54:01.000Z</time>
      </trkpt>
      <trkpt lat="44.22237" lon="3.47983">
        <ele>1100</ele>
        <time>2020-08-25T14:54:02.000Z</time>
      </trkpt>
      <trkpt lat="44.22232" lon="3.47985">
        <ele>1099.7</ele>
        <time>2020-08-25T14:54:03.000Z</time>
      </trkpt>
      <trkpt lat="44.22227" lon="3.47989">
        <ele>1099.3</ele>
        <time>2020-08-25T14:54:05.000Z</time>
      </trkpt>
      <trkpt lat="44.2222" lon="3.47993">
        <ele>1098.6</ele>
        <time>2020-08-25T14:54:07.000Z</time>
      </trkpt>
      <trkpt lat="44.22216" lon="3.47995">
        <ele>1098.2</ele>
        <time>2020-08-25T14:54:08.000Z</time>
      </trkpt>
      <trkpt lat="44.22207" lon="3.47998">
        <ele>1097.3</ele>
        <time>2020-08-25T14:54:10.000Z</time>
      </trkpt>
      <trkpt lat="44.22204" lon="3.48">
        <ele>1096.9</ele>
        <time>2020-08-25T14:54:12.000Z</time>
      </trkpt>
      <trkpt lat="44.222" lon="3.48003">
        <ele>1096.4</ele>
        <time>2020-08-25T14:54:13.000Z</time>
      </trkpt>
      <trkpt lat="44.22194" lon="3.48005">
        <ele>1095.9</ele>
        <time>2020-08-25T14:54:14.000Z</time>
      </trkpt>
      <trkpt lat="44.22189" lon="3.48008">
        <ele>1095.3</ele>
        <time>2020-08-25T14:54:15.000Z</time>
      </trkpt>
      <trkpt lat="44.22178" lon="3.48013">
        <ele>1094.3</ele>
        <time>2020-08-25T14:54:17.000Z</time>
      </trkpt>
      <trkpt lat="44.22174" lon="3.48016">
        <ele>1093.9</ele>
        <time>2020-08-25T14:54:18.000Z</time>
      </trkpt>
      <trkpt lat="44.22171" lon="3.48018">
        <ele>1093.6</ele>
        <time>2020-08-25T14:54:19.000Z</time>
      </trkpt>
      <trkpt lat="44.22163" lon="3.48024">
        <ele>1092.8</ele>
        <time>2020-08-25T14:54:21.000Z</time>
      </trkpt>
      <trkpt lat="44.2216" lon="3.48028">
        <ele>1092.5</ele>
        <time>2020-08-25T14:54:22.000Z</time>
      </trkpt>
      <trkpt lat="44.22156" lon="3.48033">
        <ele>1091.9</ele>
        <time>2020-08-25T14:54:24.000Z</time>
      </trkpt>
      <trkpt lat="44.22153" lon="3.4804">
        <ele>1091.5</ele>
        <time>2020-08-25T14:54:25.000Z</time>
      </trkpt>
      <trkpt lat="44.2215" lon="3.48047">
        <ele>1091</ele>
        <time>2020-08-25T14:54:26.000Z</time>
      </trkpt>
      <trkpt lat="44.22147" lon="3.48054">
        <ele>1090.6</ele>
        <time>2020-08-25T14:54:27.000Z</time>
      </trkpt>
      <trkpt lat="44.22143" lon="3.48062">
        <ele>1090</ele>
        <time>2020-08-25T14:54:29.000Z</time>
      </trkpt>
      <trkpt lat="44.22141" lon="3.48066">
        <ele>1089.7</ele>
        <time>2020-08-25T14:54:30.000Z</time>
      </trkpt>
      <trkpt lat="44.22139" lon="3.4807">
        <ele>1089.4</ele>
        <time>2020-08-25T14:54:31.000Z</time>
      </trkpt>
      <trkpt lat="44.22138" lon="3.48073">
        <ele>1089.1</ele>
        <time>2020-08-25T14:54:32.000Z</time>
      </trkpt>
      <trkpt lat="44.22136" lon="3.48078">
        <ele>1089.1</ele>
        <time>2020-08-25T14:54:33.000Z</time>
      </trkpt>
      <trkpt lat="44.22134" lon="3.48083">
        <ele>1089.1</ele>
        <time>2020-08-25T14:54:35.000Z</time>
      </trkpt>
      <trkpt lat="44.22132" lon="3.4809">
        <ele>1088.9</ele>
        <time>2020-08-25T14:54:36.000Z</time>
      </trkpt>
      <trkpt lat="44.22131" lon="3.48094">
        <ele>1088.8</ele>
        <time>2020-08-25T14:54:37.000Z</time>
      </trkpt>
      <trkpt lat="44.22129" lon="3.48099">
        <ele>1088.6</ele>
        <time>2020-08-25T14:54:39.000Z</time>
      </trkpt>
      <trkpt lat="44.22127" lon="3.48102">
        <ele>1088.5</ele>
        <time>2020-08-25T14:54:40.000Z</time>
      </trkpt>
      <trkpt lat="44.22126" lon="3.48102">
        <ele>1088.5</ele>
        <time>2020-08-25T14:54:42.000Z</time>
      </trkpt>
      <trkpt lat="44.22127" lon="3.48101">
        <ele>1088.5</ele>
        <time>2020-08-25T14:54:43.000Z</time>
      </trkpt>
      <trkpt lat="44.22127" lon="3.481">
        <ele>1088.5</ele>
        <time>2020-08-25T14:54:44.000Z</time>
      </trkpt>
      <trkpt lat="44.22127" lon="3.48099">
        <ele>1088.4</ele>
        <time>2020-08-25T14:54:46.000Z</time>
      </trkpt>
      <trkpt lat="44.22127" lon="3.48099">
        <ele>1088.4</ele>
        <time>2020-08-25T14:54:47.000Z</time>
      </trkpt>
      <trkpt lat="44.22127" lon="3.48098">
        <ele>1088.4</ele>
        <time>2020-08-25T14:54:49.000Z</time>
      </trkpt>
      <trkpt lat="44.22127" lon="3.48098">
        <ele>1088.4</ele>
        <time>2020-08-25T14:54:50.000Z</time>
      </trkpt>
      <trkpt lat="44.22124" lon="3.481">
        <ele>1088.4</ele>
        <time>2020-08-25T14:57:18.000Z</time>
      </trkpt>
      <trkpt lat="44.22122" lon="3.48101">
        <ele>1088.4</ele>
        <time>2020-08-25T14:57:19.000Z</time>
      </trkpt>
      <trkpt lat="44.22117" lon="3.48104">
        <ele>1088.4</ele>
        <time>2020-08-25T14:57:21.000Z</time>
      </trkpt>
      <trkpt lat="44.22115" lon="3.48106">
        <ele>1088.4</ele>
        <time>2020-08-25T14:57:22.000Z</time>
      </trkpt>
      <trkpt lat="44.2211" lon="3.48111">
        <ele>1088.5</ele>
        <time>2020-08-25T14:57:23.000Z</time>
      </trkpt>
      <trkpt lat="44.22107" lon="3.48113">
        <ele>1088.6</ele>
        <time>2020-08-25T14:57:25.000Z</time>
      </trkpt>
      <trkpt lat="44.22106" lon="3.48113">
        <ele>1088.6</ele>
        <time>2020-08-25T14:57:26.000Z</time>
      </trkpt>
      <trkpt lat="44.22105" lon="3.48109">
        <ele>1088.7</ele>
        <time>2020-08-25T14:57:28.000Z</time>
      </trkpt>
      <trkpt lat="44.22101" lon="3.4811">
        <ele>1088.9</ele>
        <time>2020-08-25T14:57:29.000Z</time>
      </trkpt>
      <trkpt lat="44.221" lon="3.48114">
        <ele>1089</ele>
        <time>2020-08-25T14:57:31.000Z</time>
      </trkpt>
      <trkpt lat="44.22099" lon="3.48115">
        <ele>1089.1</ele>
        <time>2020-08-25T14:57:32.000Z</time>
      </trkpt>
      <trkpt lat="44.22098" lon="3.48118">
        <ele>1089.2</ele>
        <time>2020-08-25T14:57:33.000Z</time>
      </trkpt>
      <trkpt lat="44.22096" lon="3.48121">
        <ele>1089.3</ele>
        <time>2020-08-25T14:57:34.000Z</time>
      </trkpt>
      <trkpt lat="44.22091" lon="3.48129">
        <ele>1089.6</ele>
        <time>2020-08-25T14:57:36.000Z</time>
      </trkpt>
      <trkpt lat="44.22086" lon="3.48134">
        <ele>1089.7</ele>
        <time>2020-08-25T14:57:37.000Z</time>
      </trkpt>
      <trkpt lat="44.22083" lon="3.48137">
        <ele>1089.8</ele>
        <time>2020-08-25T14:57:38.000Z</time>
      </trkpt>
      <trkpt lat="44.22081" lon="3.4814">
        <ele>1089.9</ele>
        <time>2020-08-25T14:57:40.000Z</time>
      </trkpt>
      <trkpt lat="44.22079" lon="3.48143">
        <ele>1089.9</ele>
        <time>2020-08-25T14:57:41.000Z</time>
      </trkpt>
      <trkpt lat="44.22076" lon="3.48146">
        <ele>1089.8</ele>
        <time>2020-08-25T14:57:42.000Z</time>
      </trkpt>
      <trkpt lat="44.22073" lon="3.48151">
        <ele>1089.7</ele>
        <time>2020-08-25T14:57:44.000Z</time>
      </trkpt>
      <trkpt lat="44.2207" lon="3.48154">
        <ele>1089.5</ele>
        <time>2020-08-25T14:57:45.000Z</time>
      </trkpt>
      <trkpt lat="44.22066" lon="3.48157">
        <ele>1089.3</ele>
        <time>2020-08-25T14:57:46.000Z</time>
      </trkpt>
      <trkpt lat="44.22063" lon="3.4816">
        <ele>1089.1</ele>
        <time>2020-08-25T14:57:47.000Z</time>
      </trkpt>
      <trkpt lat="44.2206" lon="3.48163">
        <ele>1089</ele>
        <time>2020-08-25T14:57:48.000Z</time>
      </trkpt>
      <trkpt lat="44.22055" lon="3.48168">
        <ele>1088.7</ele>
        <time>2020-08-25T14:57:50.000Z</time>
      </trkpt>
      <trkpt lat="44.22052" lon="3.48172">
        <ele>1088.5</ele>
        <time>2020-08-25T14:57:51.000Z</time>
      </trkpt>
      <trkpt lat="44.22046" lon="3.48179">
        <ele>1088</ele>
        <time>2020-08-25T14:57:52.000Z</time>
      </trkpt>
      <trkpt lat="44.22039" lon="3.4819">
        <ele>1087.4</ele>
        <time>2020-08-25T14:57:54.000Z</time>
      </trkpt>
      <trkpt lat="44.22035" lon="3.48196">
        <ele>1087.2</ele>
        <time>2020-08-25T14:57:55.000Z</time>
      </trkpt>
      <trkpt lat="44.22028" lon="3.48211">
        <ele>1086.9</ele>
        <time>2020-08-25T14:57:57.000Z</time>
      </trkpt>
      <trkpt lat="44.22022" lon="3.48227">
        <ele>1086.8</ele>
        <time>2020-08-25T14:57:59.000Z</time>
      </trkpt>
      <trkpt lat="44.22016" lon="3.48241">
        <ele>1086.8</ele>
        <time>2020-08-25T14:58:01.000Z</time>
      </trkpt>
      <trkpt lat="44.22012" lon="3.48254">
        <ele>1086.9</ele>
        <time>2020-08-25T14:58:03.000Z</time>
      </trkpt>
      <trkpt lat="44.22009" lon="3.4826">
        <ele>1087</ele>
        <time>2020-08-25T14:58:04.000Z</time>
      </trkpt>
      <trkpt lat="44.22006" lon="3.48269">
        <ele>1087.2</ele>
        <time>2020-08-25T14:58:06.000Z</time>
      </trkpt>
      <trkpt lat="44.22004" lon="3.48277">
        <ele>1087.3</ele>
        <time>2020-08-25T14:58:08.000Z</time>
      </trkpt>
      <trkpt lat="44.22003" lon="3.48281">
        <ele>1087.4</ele>
        <time>2020-08-25T14:58:09.000Z</time>
      </trkpt>
      <trkpt lat="44.22001" lon="3.4829">
        <ele>1087.4</ele>
        <time>2020-08-25T14:58:11.000Z</time>
      </trkpt>
      <trkpt lat="44.22003" lon="3.48295">
        <ele>1087.4</ele>
        <time>2020-08-25T14:58:13.000Z</time>
      </trkpt>
      <trkpt lat="44.22002" lon="3.48299">
        <ele>1087.4</ele>
        <time>2020-08-25T14:58:14.000Z</time>
      </trkpt>
      <trkpt lat="44.22002" lon="3.48306">
        <ele>1087.3</ele>
        <time>2020-08-25T14:58:15.000Z</time>
      </trkpt>
      <trkpt lat="44.22002" lon="3.48316">
        <ele>1087.1</ele>
        <time>2020-08-25T14:58:17.000Z</time>
      </trkpt>
      <trkpt lat="44.22" lon="3.48322">
        <ele>1086.9</ele>
        <time>2020-08-25T14:58:18.000Z</time>
      </trkpt>
      <trkpt lat="44.21999" lon="3.4833">
        <ele>1086.5</ele>
        <time>2020-08-25T14:58:20.000Z</time>
      </trkpt>
      <trkpt lat="44.21997" lon="3.48336">
        <ele>1086.1</ele>
        <time>2020-08-25T14:58:21.000Z</time>
      </trkpt>
      <trkpt lat="44.21997" lon="3.48349">
        <ele>1085.2</ele>
        <time>2020-08-25T14:58:22.000Z</time>
      </trkpt>
      <trkpt lat="44.21996" lon="3.48368">
        <ele>1083.9</ele>
        <time>2020-08-25T14:58:24.000Z</time>
      </trkpt>
      <trkpt lat="44.21993" lon="3.48389">
        <ele>1082.7</ele>
        <time>2020-08-25T14:58:26.000Z</time>
      </trkpt>
      <trkpt lat="44.2199" lon="3.484">
        <ele>1082.3</ele>
        <time>2020-08-25T14:58:27.000Z</time>
      </trkpt>
      <trkpt lat="44.21984" lon="3.48421">
        <ele>1081.9</ele>
        <time>2020-08-25T14:58:29.000Z</time>
      </trkpt>
      <trkpt lat="44.2198" lon="3.4843">
        <ele>1081.9</ele>
        <time>2020-08-25T14:58:30.000Z</time>
      </trkpt>
      <trkpt lat="44.21974" lon="3.48449">
        <ele>1082</ele>
        <time>2020-08-25T14:58:32.000Z</time>
      </trkpt>
      <trkpt lat="44.21974" lon="3.48458">
        <ele>1082.1</ele>
        <time>2020-08-25T14:58:33.000Z</time>
      </trkpt>
      <trkpt lat="44.21974" lon="3.48467">
        <ele>1082.3</ele>
        <time>2020-08-25T14:58:34.000Z</time>
      </trkpt>
      <trkpt lat="44.21975" lon="3.48475">
        <ele>1082.5</ele>
        <time>2020-08-25T14:58:35.000Z</time>
      </trkpt>
      <trkpt lat="44.21977" lon="3.48483">
        <ele>1082.8</ele>
        <time>2020-08-25T14:58:36.000Z</time>
      </trkpt>
      <trkpt lat="44.2198" lon="3.48496">
        <ele>1083.4</ele>
        <time>2020-08-25T14:58:38.000Z</time>
      </trkpt>
      <trkpt lat="44.21984" lon="3.48507">
        <ele>1083.9</ele>
        <time>2020-08-25T14:58:40.000Z</time>
      </trkpt>
      <trkpt lat="44.21988" lon="3.48515">
        <ele>1084.3</ele>
        <time>2020-08-25T14:58:42.000Z</time>
      </trkpt>
      <trkpt lat="44.21993" lon="3.48526">
        <ele>1084.8</ele>
        <time>2020-08-25T14:58:44.000Z</time>
      </trkpt>
      <trkpt lat="44.21997" lon="3.48536">
        <ele>1085.3</ele>
        <time>2020-08-25T14:58:46.000Z</time>
      </trkpt>
      <trkpt lat="44.22001" lon="3.48541">
        <ele>1085.7</ele>
        <time>2020-08-25T14:58:48.000Z</time>
      </trkpt>
      <trkpt lat="44.22004" lon="3.48549">
        <ele>1086.2</ele>
        <time>2020-08-25T14:58:49.000Z</time>
      </trkpt>
      <trkpt lat="44.22005" lon="3.48556">
        <ele>1086.7</ele>
        <time>2020-08-25T14:58:50.000Z</time>
      </trkpt>
      <trkpt lat="44.22008" lon="3.48563">
        <ele>1087.3</ele>
        <time>2020-08-25T14:58:52.000Z</time>
      </trkpt>
      <trkpt lat="44.22012" lon="3.48567">
        <ele>1087.7</ele>
        <time>2020-08-25T14:58:53.000Z</time>
      </trkpt>
      <trkpt lat="44.22015" lon="3.4857">
        <ele>1088.1</ele>
        <time>2020-08-25T14:58:54.000Z</time>
      </trkpt>
      <trkpt lat="44.22019" lon="3.48575">
        <ele>1088.5</ele>
        <time>2020-08-25T14:58:56.000Z</time>
      </trkpt>
      <trkpt lat="44.22021" lon="3.48578">
        <ele>1088.8</ele>
        <time>2020-08-25T14:58:57.000Z</time>
      </trkpt>
      <trkpt lat="44.22024" lon="3.48581">
        <ele>1089.1</ele>
        <time>2020-08-25T14:58:58.000Z</time>
      </trkpt>
      <trkpt lat="44.22026" lon="3.48584">
        <ele>1089.4</ele>
        <time>2020-08-25T14:58:59.000Z</time>
      </trkpt>
      <trkpt lat="44.2203" lon="3.48589">
        <ele>1089.8</ele>
        <time>2020-08-25T14:59:01.000Z</time>
      </trkpt>
      <trkpt lat="44.22032" lon="3.48592">
        <ele>1090</ele>
        <time>2020-08-25T14:59:02.000Z</time>
      </trkpt>
      <trkpt lat="44.22034" lon="3.48595">
        <ele>1090.3</ele>
        <time>2020-08-25T14:59:04.000Z</time>
      </trkpt>
      <trkpt lat="44.22036" lon="3.48599">
        <ele>1090.5</ele>
        <time>2020-08-25T14:59:05.000Z</time>
      </trkpt>
      <trkpt lat="44.22038" lon="3.48603">
        <ele>1090.8</ele>
        <time>2020-08-25T14:59:07.000Z</time>
      </trkpt>
      <trkpt lat="44.22039" lon="3.48607">
        <ele>1091</ele>
        <time>2020-08-25T14:59:08.000Z</time>
      </trkpt>
      <trkpt lat="44.22041" lon="3.48611">
        <ele>1091.2</ele>
        <time>2020-08-25T14:59:10.000Z</time>
      </trkpt>
      <trkpt lat="44.22042" lon="3.48614">
        <ele>1091.3</ele>
        <time>2020-08-25T14:59:11.000Z</time>
      </trkpt>
      <trkpt lat="44.22043" lon="3.48618">
        <ele>1091.5</ele>
        <time>2020-08-25T14:59:13.000Z</time>
      </trkpt>
      <trkpt lat="44.22045" lon="3.48624">
        <ele>1091.7</ele>
        <time>2020-08-25T14:59:15.000Z</time>
      </trkpt>
      <trkpt lat="44.22045" lon="3.48626">
        <ele>1091.8</ele>
        <time>2020-08-25T14:59:16.000Z</time>
      </trkpt>
      <trkpt lat="44.22046" lon="3.48628">
        <ele>1091.9</ele>
        <time>2020-08-25T14:59:17.000Z</time>
      </trkpt>
      <trkpt lat="44.22047" lon="3.48634">
        <ele>1092</ele>
        <time>2020-08-25T14:59:19.000Z</time>
      </trkpt>
      <trkpt lat="44.22047" lon="3.48636">
        <ele>1092.1</ele>
        <time>2020-08-25T14:59:20.000Z</time>
      </trkpt>
      <trkpt lat="44.22048" lon="3.48639">
        <ele>1092.1</ele>
        <time>2020-08-25T14:59:21.000Z</time>
      </trkpt>
      <trkpt lat="44.22048" lon="3.48643">
        <ele>1092.2</ele>
        <time>2020-08-25T14:59:22.000Z</time>
      </trkpt>
      <trkpt lat="44.22048" lon="3.48648">
        <ele>1092.3</ele>
        <time>2020-08-25T14:59:24.000Z</time>
      </trkpt>
      <trkpt lat="44.22047" lon="3.4865">
        <ele>1092.3</ele>
        <time>2020-08-25T14:59:25.000Z</time>
      </trkpt>
      <trkpt lat="44.22047" lon="3.48652">
        <ele>1092.3</ele>
        <time>2020-08-25T14:59:26.000Z</time>
      </trkpt>
      <trkpt lat="44.22046" lon="3.48657">
        <ele>1092.3</ele>
        <time>2020-08-25T14:59:28.000Z</time>
      </trkpt>
      <trkpt lat="44.22046" lon="3.48662">
        <ele>1092.2</ele>
        <time>2020-08-25T14:59:30.000Z</time>
      </trkpt>
      <trkpt lat="44.22044" lon="3.48668">
        <ele>1092.1</ele>
        <time>2020-08-25T14:59:31.000Z</time>
      </trkpt>
      <trkpt lat="44.22042" lon="3.48673">
        <ele>1092</ele>
        <time>2020-08-25T14:59:32.000Z</time>
      </trkpt>
      <trkpt lat="44.22037" lon="3.4868">
        <ele>1091.8</ele>
        <time>2020-08-25T14:59:33.000Z</time>
      </trkpt>
      <trkpt lat="44.22032" lon="3.48683">
        <ele>1091.6</ele>
        <time>2020-08-25T14:59:35.000Z</time>
      </trkpt>
      <trkpt lat="44.22028" lon="3.48686">
        <ele>1091.4</ele>
        <time>2020-08-25T14:59:36.000Z</time>
      </trkpt>
      <trkpt lat="44.22021" lon="3.48691">
        <ele>1091.1</ele>
        <time>2020-08-25T14:59:37.000Z</time>
      </trkpt>
      <trkpt lat="44.22016" lon="3.48694">
        <ele>1090.9</ele>
        <time>2020-08-25T14:59:38.000Z</time>
      </trkpt>
      <trkpt lat="44.22011" lon="3.48692">
        <ele>1090.8</ele>
        <time>2020-08-25T14:59:39.000Z</time>
      </trkpt>
      <trkpt lat="44.22007" lon="3.48691">
        <ele>1090.7</ele>
        <time>2020-08-25T14:59:41.000Z</time>
      </trkpt>
      <trkpt lat="44.22003" lon="3.4869">
        <ele>1090.7</ele>
        <time>2020-08-25T14:59:42.000Z</time>
      </trkpt>
      <trkpt lat="44.22002" lon="3.4869">
        <ele>1090.7</ele>
        <time>2020-08-25T14:59:43.000Z</time>
      </trkpt>
      <trkpt lat="44.22003" lon="3.48691">
        <ele>1090.7</ele>
        <time>2020-08-25T14:59:45.000Z</time>
      </trkpt>
      <trkpt lat="44.22004" lon="3.48691">
        <ele>1090.7</ele>
        <time>2020-08-25T14:59:46.000Z</time>
      </trkpt>
      <trkpt lat="44.22005" lon="3.48692">
        <ele>1090.7</ele>
        <time>2020-08-25T14:59:48.000Z</time>
      </trkpt>
      <trkpt lat="44.22005" lon="3.48692">
        <ele>1090.7</ele>
        <time>2020-08-25T14:59:50.000Z</time>
      </trkpt>
      <trkpt lat="44.22006" lon="3.48692">
        <ele>1090.7</ele>
        <time>2020-08-25T14:59:52.000Z</time>
      </trkpt>
      <trkpt lat="44.22004" lon="3.48688">
        <ele>1090.7</ele>
        <time>2020-08-25T15:00:03.000Z</time>
      </trkpt>
      <trkpt lat="44.22003" lon="3.48686">
        <ele>1090.7</ele>
        <time>2020-08-25T15:00:05.000Z</time>
      </trkpt>
      <trkpt lat="44.22003" lon="3.48684">
        <ele>1090.7</ele>
        <time>2020-08-25T15:00:06.000Z</time>
      </trkpt>
      <trkpt lat="44.22003" lon="3.48682">
        <ele>1090.7</ele>
        <time>2020-08-25T15:00:07.000Z</time>
      </trkpt>
      <trkpt lat="44.22002" lon="3.48678">
        <ele>1090.7</ele>
        <time>2020-08-25T15:00:09.000Z</time>
      </trkpt>
      <trkpt lat="44.22001" lon="3.48674">
        <ele>1090.7</ele>
        <time>2020-08-25T15:00:10.000Z</time>
      </trkpt>
      <trkpt lat="44.22" lon="3.48672">
        <ele>1090.7</ele>
        <time>2020-08-25T15:00:11.000Z</time>
      </trkpt>
      <trkpt lat="44.22" lon="3.48667">
        <ele>1090.7</ele>
        <time>2020-08-25T15:00:13.000Z</time>
      </trkpt>
      <trkpt lat="44.21997" lon="3.48662">
        <ele>1090.8</ele>
        <time>2020-08-25T15:00:14.000Z</time>
      </trkpt>
      <trkpt lat="44.21995" lon="3.48656">
        <ele>1090.8</ele>
        <time>2020-08-25T15:00:16.000Z</time>
      </trkpt>
      <trkpt lat="44.21993" lon="3.48652">
        <ele>1090.8</ele>
        <time>2020-08-25T15:00:17.000Z</time>
      </trkpt>
      <trkpt lat="44.21991" lon="3.48649">
        <ele>1090.9</ele>
        <time>2020-08-25T15:00:18.000Z</time>
      </trkpt>
      <trkpt lat="44.21989" lon="3.48645">
        <ele>1090.9</ele>
        <time>2020-08-25T15:00:19.000Z</time>
      </trkpt>
      <trkpt lat="44.21988" lon="3.48643">
        <ele>1090.9</ele>
        <time>2020-08-25T15:00:20.000Z</time>
      </trkpt>
      <trkpt lat="44.21987" lon="3.4864">
        <ele>1091</ele>
        <time>2020-08-25T15:00:21.000Z</time>
      </trkpt>
      <trkpt lat="44.21985" lon="3.48636">
        <ele>1091.1</ele>
        <time>2020-08-25T15:00:23.000Z</time>
      </trkpt>
      <trkpt lat="44.21984" lon="3.48634">
        <ele>1091.1</ele>
        <time>2020-08-25T15:00:24.000Z</time>
      </trkpt>
      <trkpt lat="44.21982" lon="3.4863">
        <ele>1091.2</ele>
        <time>2020-08-25T15:00:25.000Z</time>
      </trkpt>
      <trkpt lat="44.21981" lon="3.48629">
        <ele>1091.2</ele>
        <time>2020-08-25T15:00:26.000Z</time>
      </trkpt>
      <trkpt lat="44.21979" lon="3.48625">
        <ele>1091.3</ele>
        <time>2020-08-25T15:00:27.000Z</time>
      </trkpt>
      <trkpt lat="44.21978" lon="3.48624">
        <ele>1091.3</ele>
        <time>2020-08-25T15:00:28.000Z</time>
      </trkpt>
      <trkpt lat="44.21977" lon="3.48622">
        <ele>1091.4</ele>
        <time>2020-08-25T15:00:29.000Z</time>
      </trkpt>
      <trkpt lat="44.21975" lon="3.48619">
        <ele>1091.5</ele>
        <time>2020-08-25T15:00:31.000Z</time>
      </trkpt>
      <trkpt lat="44.21973" lon="3.48616">
        <ele>1091.5</ele>
        <time>2020-08-25T15:00:32.000Z</time>
      </trkpt>
      <trkpt lat="44.21971" lon="3.48613">
        <ele>1091.6</ele>
        <time>2020-08-25T15:00:33.000Z</time>
      </trkpt>
      <trkpt lat="44.21968" lon="3.48608">
        <ele>1091.7</ele>
        <time>2020-08-25T15:00:35.000Z</time>
      </trkpt>
      <trkpt lat="44.21966" lon="3.48607">
        <ele>1091.7</ele>
        <time>2020-08-25T15:00:36.000Z</time>
      </trkpt>
      <trkpt lat="44.21965" lon="3.48605">
        <ele>1091.7</ele>
        <time>2020-08-25T15:00:37.000Z</time>
      </trkpt>
      <trkpt lat="44.21962" lon="3.48602">
        <ele>1091.8</ele>
        <time>2020-08-25T15:00:38.000Z</time>
      </trkpt>
      <trkpt lat="44.21961" lon="3.486">
        <ele>1091.8</ele>
        <time>2020-08-25T15:00:39.000Z</time>
      </trkpt>
      <trkpt lat="44.21958" lon="3.48597">
        <ele>1091.7</ele>
        <time>2020-08-25T15:00:41.000Z</time>
      </trkpt>
      <trkpt lat="44.21956" lon="3.48596">
        <ele>1091.7</ele>
        <time>2020-08-25T15:00:42.000Z</time>
      </trkpt>
      <trkpt lat="44.21954" lon="3.48594">
        <ele>1091.8</ele>
        <time>2020-08-25T15:00:43.000Z</time>
      </trkpt>
      <trkpt lat="44.21952" lon="3.48592">
        <ele>1091.9</ele>
        <time>2020-08-25T15:00:45.000Z</time>
      </trkpt>
      <trkpt lat="44.21949" lon="3.48589">
        <ele>1092.1</ele>
        <time>2020-08-25T15:00:46.000Z</time>
      </trkpt>
      <trkpt lat="44.21949" lon="3.48589">
        <ele>1092.2</ele>
        <time>2020-08-25T15:00:47.000Z</time>
      </trkpt>
      <trkpt lat="44.21945" lon="3.48584">
        <ele>1092.5</ele>
        <time>2020-08-25T15:00:49.000Z</time>
      </trkpt>
      <trkpt lat="44.21942" lon="3.4858">
        <ele>1092.7</ele>
        <time>2020-08-25T15:00:50.000Z</time>
      </trkpt>
      <trkpt lat="44.21941" lon="3.48579">
        <ele>1092.8</ele>
        <time>2020-08-25T15:00:51.000Z</time>
      </trkpt>
      <trkpt lat="44.21938" lon="3.48574">
        <ele>1093.1</ele>
        <time>2020-08-25T15:00:53.000Z</time>
      </trkpt>
      <trkpt lat="44.21938" lon="3.48573">
        <ele>1093.2</ele>
        <time>2020-08-25T15:00:54.000Z</time>
      </trkpt>
      <trkpt lat="44.21937" lon="3.48572">
        <ele>1093.3</ele>
        <time>2020-08-25T15:00:55.000Z</time>
      </trkpt>
      <trkpt lat="44.21934" lon="3.48568">
        <ele>1093.6</ele>
        <time>2020-08-25T15:00:57.000Z</time>
      </trkpt>
      <trkpt lat="44.21932" lon="3.48567">
        <ele>1093.7</ele>
        <time>2020-08-25T15:00:58.000Z</time>
      </trkpt>
      <trkpt lat="44.2193" lon="3.48564">
        <ele>1093.9</ele>
        <time>2020-08-25T15:00:59.000Z</time>
      </trkpt>
      <trkpt lat="44.21929" lon="3.48563">
        <ele>1094</ele>
        <time>2020-08-25T15:01:00.000Z</time>
      </trkpt>
      <trkpt lat="44.21926" lon="3.4856">
        <ele>1094.2</ele>
        <time>2020-08-25T15:01:02.000Z</time>
      </trkpt>
      <trkpt lat="44.21923" lon="3.48557">
        <ele>1094.5</ele>
        <time>2020-08-25T15:01:04.000Z</time>
      </trkpt>
      <trkpt lat="44.21921" lon="3.48555">
        <ele>1094.6</ele>
        <time>2020-08-25T15:01:05.000Z</time>
      </trkpt>
      <trkpt lat="44.2192" lon="3.48554">
        <ele>1094.7</ele>
        <time>2020-08-25T15:01:06.000Z</time>
      </trkpt>
      <trkpt lat="44.21918" lon="3.48552">
        <ele>1095</ele>
        <time>2020-08-25T15:01:08.000Z</time>
      </trkpt>
      <trkpt lat="44.21916" lon="3.48551">
        <ele>1095.1</ele>
        <time>2020-08-25T15:01:09.000Z</time>
      </trkpt>
      <trkpt lat="44.21914" lon="3.48549">
        <ele>1095.3</ele>
        <time>2020-08-25T15:01:11.000Z</time>
      </trkpt>
      <trkpt lat="44.21912" lon="3.48547">
        <ele>1095.5</ele>
        <time>2020-08-25T15:01:12.000Z</time>
      </trkpt>
      <trkpt lat="44.21911" lon="3.48547">
        <ele>1095.6</ele>
        <time>2020-08-25T15:01:13.000Z</time>
      </trkpt>
      <trkpt lat="44.21909" lon="3.48545">
        <ele>1095.8</ele>
        <time>2020-08-25T15:01:14.000Z</time>
      </trkpt>
      <trkpt lat="44.21905" lon="3.48543">
        <ele>1096</ele>
        <time>2020-08-25T15:01:16.000Z</time>
      </trkpt>
      <trkpt lat="44.21903" lon="3.48542">
        <ele>1096.1</ele>
        <time>2020-08-25T15:01:17.000Z</time>
      </trkpt>
      <trkpt lat="44.21902" lon="3.48541">
        <ele>1096.2</ele>
        <time>2020-08-25T15:01:18.000Z</time>
      </trkpt>
      <trkpt lat="44.21898" lon="3.48538">
        <ele>1096.4</ele>
        <time>2020-08-25T15:01:20.000Z</time>
      </trkpt>
      <trkpt lat="44.21897" lon="3.48537">
        <ele>1096.4</ele>
        <time>2020-08-25T15:01:21.000Z</time>
      </trkpt>
      <trkpt lat="44.21895" lon="3.48536">
        <ele>1096.5</ele>
        <time>2020-08-25T15:01:22.000Z</time>
      </trkpt>
      <trkpt lat="44.21891" lon="3.48533">
        <ele>1096.5</ele>
        <time>2020-08-25T15:01:24.000Z</time>
      </trkpt>
      <trkpt lat="44.21889" lon="3.48532">
        <ele>1096.6</ele>
        <time>2020-08-25T15:01:25.000Z</time>
      </trkpt>
      <trkpt lat="44.21888" lon="3.48532">
        <ele>1096.6</ele>
        <time>2020-08-25T15:01:26.000Z</time>
      </trkpt>
      <trkpt lat="44.21885" lon="3.48529">
        <ele>1096.6</ele>
        <time>2020-08-25T15:01:28.000Z</time>
      </trkpt>
      <trkpt lat="44.21882" lon="3.48526">
        <ele>1096.7</ele>
        <time>2020-08-25T15:01:29.000Z</time>
      </trkpt>
      <trkpt lat="44.2188" lon="3.48524">
        <ele>1096.8</ele>
        <time>2020-08-25T15:01:30.000Z</time>
      </trkpt>
      <trkpt lat="44.21877" lon="3.48522">
        <ele>1096.9</ele>
        <time>2020-08-25T15:01:31.000Z</time>
      </trkpt>
      <trkpt lat="44.21876" lon="3.48521">
        <ele>1097</ele>
        <time>2020-08-25T15:01:32.000Z</time>
      </trkpt>
      <trkpt lat="44.21873" lon="3.48518">
        <ele>1097.1</ele>
        <time>2020-08-25T15:01:33.000Z</time>
      </trkpt>
      <trkpt lat="44.21872" lon="3.48517">
        <ele>1097.1</ele>
        <time>2020-08-25T15:01:34.000Z</time>
      </trkpt>
      <trkpt lat="44.21869" lon="3.48514">
        <ele>1097.3</ele>
        <time>2020-08-25T15:01:36.000Z</time>
      </trkpt>
      <trkpt lat="44.21868" lon="3.48514">
        <ele>1097.3</ele>
        <time>2020-08-25T15:01:37.000Z</time>
      </trkpt>
      <trkpt lat="44.21865" lon="3.48512">
        <ele>1097.4</ele>
        <time>2020-08-25T15:01:38.000Z</time>
      </trkpt>
      <trkpt lat="44.21861" lon="3.48509">
        <ele>1097.5</ele>
        <time>2020-08-25T15:01:40.000Z</time>
      </trkpt>
      <trkpt lat="44.21858" lon="3.48507">
        <ele>1097.5</ele>
        <time>2020-08-25T15:01:41.000Z</time>
      </trkpt>
      <trkpt lat="44.21854" lon="3.48505">
        <ele>1097.5</ele>
        <time>2020-08-25T15:01:42.000Z</time>
      </trkpt>
      <trkpt lat="44.21853" lon="3.48504">
        <ele>1097.5</ele>
        <time>2020-08-25T15:01:43.000Z</time>
      </trkpt>
      <trkpt lat="44.2185" lon="3.48502">
        <ele>1097.5</ele>
        <time>2020-08-25T15:01:45.000Z</time>
      </trkpt>
      <trkpt lat="44.21847" lon="3.48499">
        <ele>1097.4</ele>
        <time>2020-08-25T15:01:46.000Z</time>
      </trkpt>
      <trkpt lat="44.21844" lon="3.48497">
        <ele>1097.4</ele>
        <time>2020-08-25T15:01:47.000Z</time>
      </trkpt>
      <trkpt lat="44.21842" lon="3.48496">
        <ele>1097.4</ele>
        <time>2020-08-25T15:01:48.000Z</time>
      </trkpt>
      <trkpt lat="44.21839" lon="3.48494">
        <ele>1097.5</ele>
        <time>2020-08-25T15:01:49.000Z</time>
      </trkpt>
      <trkpt lat="44.21836" lon="3.48492">
        <ele>1097.5</ele>
        <time>2020-08-25T15:01:50.000Z</time>
      </trkpt>
      <trkpt lat="44.21833" lon="3.48489">
        <ele>1097.6</ele>
        <time>2020-08-25T15:01:52.000Z</time>
      </trkpt>
      <trkpt lat="44.21829" lon="3.48487">
        <ele>1097.8</ele>
        <time>2020-08-25T15:01:53.000Z</time>
      </trkpt>
      <trkpt lat="44.21827" lon="3.48485">
        <ele>1097.9</ele>
        <time>2020-08-25T15:01:55.000Z</time>
      </trkpt>
      <trkpt lat="44.21824" lon="3.48483">
        <ele>1098</ele>
        <time>2020-08-25T15:01:56.000Z</time>
      </trkpt>
      <trkpt lat="44.21822" lon="3.4848">
        <ele>1098.1</ele>
        <time>2020-08-25T15:01:57.000Z</time>
      </trkpt>
      <trkpt lat="44.2182" lon="3.48478">
        <ele>1098.2</ele>
        <time>2020-08-25T15:01:58.000Z</time>
      </trkpt>
      <trkpt lat="44.21817" lon="3.48476">
        <ele>1098.4</ele>
        <time>2020-08-25T15:02:00.000Z</time>
      </trkpt>
      <trkpt lat="44.21814" lon="3.48474">
        <ele>1098.5</ele>
        <time>2020-08-25T15:02:01.000Z</time>
      </trkpt>
      <trkpt lat="44.21814" lon="3.48473">
        <ele>1098.6</ele>
        <time>2020-08-25T15:02:02.000Z</time>
      </trkpt>
      <trkpt lat="44.21811" lon="3.48471">
        <ele>1098.7</ele>
        <time>2020-08-25T15:02:03.000Z</time>
      </trkpt>
      <trkpt lat="44.2181" lon="3.4847">
        <ele>1098.8</ele>
        <time>2020-08-25T15:02:04.000Z</time>
      </trkpt>
      <trkpt lat="44.21808" lon="3.48469">
        <ele>1098.9</ele>
        <time>2020-08-25T15:02:05.000Z</time>
      </trkpt>
      <trkpt lat="44.21806" lon="3.48468">
        <ele>1099.1</ele>
        <time>2020-08-25T15:02:07.000Z</time>
      </trkpt>
      <trkpt lat="44.21804" lon="3.48466">
        <ele>1099.3</ele>
        <time>2020-08-25T15:02:08.000Z</time>
      </trkpt>
      <trkpt lat="44.21803" lon="3.48465">
        <ele>1099.4</ele>
        <time>2020-08-25T15:02:09.000Z</time>
      </trkpt>
      <trkpt lat="44.21801" lon="3.48463">
        <ele>1099.6</ele>
        <time>2020-08-25T15:02:11.000Z</time>
      </trkpt>
      <trkpt lat="44.218" lon="3.48462">
        <ele>1099.7</ele>
        <time>2020-08-25T15:02:12.000Z</time>
      </trkpt>
      <trkpt lat="44.21797" lon="3.4846">
        <ele>1100</ele>
        <time>2020-08-25T15:02:13.000Z</time>
      </trkpt>
      <trkpt lat="44.21796" lon="3.48459">
        <ele>1100.1</ele>
        <time>2020-08-25T15:02:14.000Z</time>
      </trkpt>
      <trkpt lat="44.21794" lon="3.48457">
        <ele>1100.4</ele>
        <time>2020-08-25T15:02:15.000Z</time>
      </trkpt>
      <trkpt lat="44.21793" lon="3.48457">
        <ele>1100.5</ele>
        <time>2020-08-25T15:02:16.000Z</time>
      </trkpt>
      <trkpt lat="44.21791" lon="3.48455">
        <ele>1100.9</ele>
        <time>2020-08-25T15:02:18.000Z</time>
      </trkpt>
      <trkpt lat="44.2179" lon="3.48455">
        <ele>1101</ele>
        <time>2020-08-25T15:02:19.000Z</time>
      </trkpt>
      <trkpt lat="44.21788" lon="3.48453">
        <ele>1101.2</ele>
        <time>2020-08-25T15:02:20.000Z</time>
      </trkpt>
      <trkpt lat="44.21786" lon="3.48451">
        <ele>1101.4</ele>
        <time>2020-08-25T15:02:22.000Z</time>
      </trkpt>
      <trkpt lat="44.21785" lon="3.4845">
        <ele>1101.6</ele>
        <time>2020-08-25T15:02:23.000Z</time>
      </trkpt>
      <trkpt lat="44.21783" lon="3.4845">
        <ele>1101.8</ele>
        <time>2020-08-25T15:02:25.000Z</time>
      </trkpt>
      <trkpt lat="44.21782" lon="3.48448">
        <ele>1101.9</ele>
        <time>2020-08-25T15:02:26.000Z</time>
      </trkpt>
      <trkpt lat="44.2178" lon="3.48447">
        <ele>1102.1</ele>
        <time>2020-08-25T15:02:27.000Z</time>
      </trkpt>
      <trkpt lat="44.21778" lon="3.48444">
        <ele>1102.4</ele>
        <time>2020-08-25T15:02:28.000Z</time>
      </trkpt>
      <trkpt lat="44.21777" lon="3.48444">
        <ele>1102.5</ele>
        <time>2020-08-25T15:02:29.000Z</time>
      </trkpt>
      <trkpt lat="44.21774" lon="3.4844">
        <ele>1103</ele>
        <time>2020-08-25T15:02:31.000Z</time>
      </trkpt>
      <trkpt lat="44.21773" lon="3.48439">
        <ele>1103.2</ele>
        <time>2020-08-25T15:02:33.000Z</time>
      </trkpt>
      <trkpt lat="44.21772" lon="3.48437">
        <ele>1103.3</ele>
        <time>2020-08-25T15:02:34.000Z</time>
      </trkpt>
      <trkpt lat="44.21769" lon="3.48434">
        <ele>1103.7</ele>
        <time>2020-08-25T15:02:36.000Z</time>
      </trkpt>
      <trkpt lat="44.21768" lon="3.48434">
        <ele>1103.8</ele>
        <time>2020-08-25T15:02:37.000Z</time>
      </trkpt>
      <trkpt lat="44.21767" lon="3.48432">
        <ele>1104</ele>
        <time>2020-08-25T15:02:38.000Z</time>
      </trkpt>
      <trkpt lat="44.21766" lon="3.4843">
        <ele>1104.1</ele>
        <time>2020-08-25T15:02:39.000Z</time>
      </trkpt>
      <trkpt lat="44.21764" lon="3.48427">
        <ele>1104.4</ele>
        <time>2020-08-25T15:02:41.000Z</time>
      </trkpt>
      <trkpt lat="44.21763" lon="3.48426">
        <ele>1104.5</ele>
        <time>2020-08-25T15:02:42.000Z</time>
      </trkpt>
      <trkpt lat="44.21763" lon="3.48424">
        <ele>1104.6</ele>
        <time>2020-08-25T15:02:43.000Z</time>
      </trkpt>
      <trkpt lat="44.21762" lon="3.48422">
        <ele>1104.8</ele>
        <time>2020-08-25T15:02:45.000Z</time>
      </trkpt>
      <trkpt lat="44.21761" lon="3.48419">
        <ele>1104.9</ele>
        <time>2020-08-25T15:02:46.000Z</time>
      </trkpt>
      <trkpt lat="44.21761" lon="3.48418">
        <ele>1105</ele>
        <time>2020-08-25T15:02:47.000Z</time>
      </trkpt>
      <trkpt lat="44.21759" lon="3.48414">
        <ele>1105.2</ele>
        <time>2020-08-25T15:02:49.000Z</time>
      </trkpt>
      <trkpt lat="44.21759" lon="3.48413">
        <ele>1105.2</ele>
        <time>2020-08-25T15:02:50.000Z</time>
      </trkpt>
      <trkpt lat="44.21758" lon="3.48411">
        <ele>1105.3</ele>
        <time>2020-08-25T15:02:51.000Z</time>
      </trkpt>
      <trkpt lat="44.21757" lon="3.48407">
        <ele>1105.4</ele>
        <time>2020-08-25T15:02:53.000Z</time>
      </trkpt>
      <trkpt lat="44.21756" lon="3.48404">
        <ele>1105.4</ele>
        <time>2020-08-25T15:02:54.000Z</time>
      </trkpt>
      <trkpt lat="44.21754" lon="3.48401">
        <ele>1105.4</ele>
        <time>2020-08-25T15:02:56.000Z</time>
      </trkpt>
      <trkpt lat="44.21752" lon="3.48398">
        <ele>1105.3</ele>
        <time>2020-08-25T15:02:57.000Z</time>
      </trkpt>
      <trkpt lat="44.21749" lon="3.48393">
        <ele>1105.1</ele>
        <time>2020-08-25T15:02:58.000Z</time>
      </trkpt>
      <trkpt lat="44.21744" lon="3.48386">
        <ele>1104.5</ele>
        <time>2020-08-25T15:03:00.000Z</time>
      </trkpt>
      <trkpt lat="44.21741" lon="3.48381">
        <ele>1104</ele>
        <time>2020-08-25T15:03:01.000Z</time>
      </trkpt>
      <trkpt lat="44.21739" lon="3.48374">
        <ele>1103.3</ele>
        <time>2020-08-25T15:03:02.000Z</time>
      </trkpt>
      <trkpt lat="44.2174" lon="3.48357">
        <ele>1101.3</ele>
        <time>2020-08-25T15:03:04.000Z</time>
      </trkpt>
      <trkpt lat="44.21741" lon="3.4835">
        <ele>1100.5</ele>
        <time>2020-08-25T15:03:05.000Z</time>
      </trkpt>
      <trkpt lat="44.21743" lon="3.48343">
        <ele>1099.9</ele>
        <time>2020-08-25T15:03:06.000Z</time>
      </trkpt>
      <trkpt lat="44.21743" lon="3.48334">
        <ele>1099</ele>
        <time>2020-08-25T15:03:08.000Z</time>
      </trkpt>
      <trkpt lat="44.21739" lon="3.48325">
        <ele>1098.1</ele>
        <time>2020-08-25T15:03:09.000Z</time>
      </trkpt>
      <trkpt lat="44.21737" lon="3.4831">
        <ele>1096.9</ele>
        <time>2020-08-25T15:03:11.000Z</time>
      </trkpt>
      <trkpt lat="44.21739" lon="3.48293">
        <ele>1096.5</ele>
        <time>2020-08-25T15:03:13.000Z</time>
      </trkpt>
      <trkpt lat="44.21739" lon="3.48278">
        <ele>1096.5</ele>
        <time>2020-08-25T15:03:15.000Z</time>
      </trkpt>
      <trkpt lat="44.21733" lon="3.48272">
        <ele>1096.5</ele>
        <time>2020-08-25T15:03:17.000Z</time>
      </trkpt>
      <trkpt lat="44.21729" lon="3.48269">
        <ele>1096.6</ele>
        <time>2020-08-25T15:03:19.000Z</time>
      </trkpt>
      <trkpt lat="44.21726" lon="3.48267">
        <ele>1096.7</ele>
        <time>2020-08-25T15:03:20.000Z</time>
      </trkpt>
      <trkpt lat="44.21722" lon="3.48263">
        <ele>1096.8</ele>
        <time>2020-08-25T15:03:21.000Z</time>
      </trkpt>
      <trkpt lat="44.2172" lon="3.48259">
        <ele>1096.8</ele>
        <time>2020-08-25T15:03:22.000Z</time>
      </trkpt>
      <trkpt lat="44.21719" lon="3.48254">
        <ele>1096.9</ele>
        <time>2020-08-25T15:03:23.000Z</time>
      </trkpt>
      <trkpt lat="44.21717" lon="3.4825">
        <ele>1097</ele>
        <time>2020-08-25T15:03:24.000Z</time>
      </trkpt>
      <trkpt lat="44.21715" lon="3.48244">
        <ele>1097</ele>
        <time>2020-08-25T15:03:25.000Z</time>
      </trkpt>
      <trkpt lat="44.21713" lon="3.48237">
        <ele>1097.1</ele>
        <time>2020-08-25T15:03:27.000Z</time>
      </trkpt>
      <trkpt lat="44.21712" lon="3.48232">
        <ele>1097.1</ele>
        <time>2020-08-25T15:03:28.000Z</time>
      </trkpt>
      <trkpt lat="44.21711" lon="3.48226">
        <ele>1097.1</ele>
        <time>2020-08-25T15:03:29.000Z</time>
      </trkpt>
      <trkpt lat="44.2171" lon="3.48222">
        <ele>1097.1</ele>
        <time>2020-08-25T15:03:30.000Z</time>
      </trkpt>
      <trkpt lat="44.21709" lon="3.48217">
        <ele>1097.1</ele>
        <time>2020-08-25T15:03:32.000Z</time>
      </trkpt>
      <trkpt lat="44.21707" lon="3.48213">
        <ele>1097.1</ele>
        <time>2020-08-25T15:03:33.000Z</time>
      </trkpt>
      <trkpt lat="44.21706" lon="3.48209">
        <ele>1097.1</ele>
        <time>2020-08-25T15:03:34.000Z</time>
      </trkpt>
      <trkpt lat="44.21704" lon="3.48203">
        <ele>1097</ele>
        <time>2020-08-25T15:03:36.000Z</time>
      </trkpt>
      <trkpt lat="44.21702" lon="3.48199">
        <ele>1096.9</ele>
        <time>2020-08-25T15:03:37.000Z</time>
      </trkpt>
      <trkpt lat="44.21701" lon="3.48195">
        <ele>1096.8</ele>
        <time>2020-08-25T15:03:38.000Z</time>
      </trkpt>
      <trkpt lat="44.21699" lon="3.48192">
        <ele>1096.6</ele>
        <time>2020-08-25T15:03:40.000Z</time>
      </trkpt>
      <trkpt lat="44.217" lon="3.48192">
        <ele>1096.6</ele>
        <time>2020-08-25T15:03:41.000Z</time>
      </trkpt>
      <trkpt lat="44.217" lon="3.48193">
        <ele>1096.6</ele>
        <time>2020-08-25T15:03:42.000Z</time>
      </trkpt>
      <trkpt lat="44.217" lon="3.48194">
        <ele>1096.5</ele>
        <time>2020-08-25T15:03:44.000Z</time>
      </trkpt>
      <trkpt lat="44.21701" lon="3.48194">
        <ele>1096.5</ele>
        <time>2020-08-25T15:03:46.000Z</time>
      </trkpt>
      <trkpt lat="44.21701" lon="3.48194">
        <ele>1096.5</ele>
        <time>2020-08-25T15:03:47.000Z</time>
      </trkpt>
      <trkpt lat="44.21701" lon="3.48194">
        <ele>1096.5</ele>
        <time>2020-08-25T15:03:49.000Z</time>
      </trkpt>
      <trkpt lat="44.21697" lon="3.48188">
        <ele>1096</ele>
        <time>2020-08-25T15:04:12.000Z</time>
      </trkpt>
      <trkpt lat="44.21696" lon="3.48187">
        <ele>1095.9</ele>
        <time>2020-08-25T15:04:14.000Z</time>
      </trkpt>
      <trkpt lat="44.21695" lon="3.48185">
        <ele>1095.7</ele>
        <time>2020-08-25T15:04:15.000Z</time>
      </trkpt>
      <trkpt lat="44.21692" lon="3.48182">
        <ele>1095.4</ele>
        <time>2020-08-25T15:04:16.000Z</time>
      </trkpt>
      <trkpt lat="44.21682" lon="3.48175">
        <ele>1094.1</ele>
        <time>2020-08-25T15:04:17.000Z</time>
      </trkpt>
      <trkpt lat="44.21677" lon="3.48168">
        <ele>1093.4</ele>
        <time>2020-08-25T15:04:18.000Z</time>
      </trkpt>
      <trkpt lat="44.21672" lon="3.48152">
        <ele>1092.2</ele>
        <time>2020-08-25T15:04:20.000Z</time>
      </trkpt>
      <trkpt lat="44.21671" lon="3.48144">
        <ele>1091.7</ele>
        <time>2020-08-25T15:04:21.000Z</time>
      </trkpt>
      <trkpt lat="44.21669" lon="3.48127">
        <ele>1090.6</ele>
        <time>2020-08-25T15:04:23.000Z</time>
      </trkpt>
      <trkpt lat="44.2167" lon="3.48118">
        <ele>1090.1</ele>
        <time>2020-08-25T15:04:24.000Z</time>
      </trkpt>
      <trkpt lat="44.2167" lon="3.48108">
        <ele>1089.7</ele>
        <time>2020-08-25T15:04:25.000Z</time>
      </trkpt>
      <trkpt lat="44.21672" lon="3.48089">
        <ele>1088.5</ele>
        <time>2020-08-25T15:04:27.000Z</time>
      </trkpt>
      <trkpt lat="44.21673" lon="3.48068">
        <ele>1086.8</ele>
        <time>2020-08-25T15:04:29.000Z</time>
      </trkpt>
      <trkpt lat="44.21669" lon="3.48044">
        <ele>1084.9</ele>
        <time>2020-08-25T15:04:31.000Z</time>
      </trkpt>
      <trkpt lat="44.21662" lon="3.48021">
        <ele>1083.3</ele>
        <time>2020-08-25T15:04:33.000Z</time>
      </trkpt>
      <trkpt lat="44.21657" lon="3.4801">
        <ele>1082.7</ele>
        <time>2020-08-25T15:04:34.000Z</time>
      </trkpt>
      <trkpt lat="44.21647" lon="3.47998">
        <ele>1081.8</ele>
        <time>2020-08-25T15:04:36.000Z</time>
      </trkpt>
      <trkpt lat="44.21638" lon="3.47991">
        <ele>1081.1</ele>
        <time>2020-08-25T15:04:38.000Z</time>
      </trkpt>
      <trkpt lat="44.21633" lon="3.47987">
        <ele>1080.7</ele>
        <time>2020-08-25T15:04:39.000Z</time>
      </trkpt>
      <trkpt lat="44.21628" lon="3.47981">
        <ele>1080.2</ele>
        <time>2020-08-25T15:04:40.000Z</time>
      </trkpt>
      <trkpt lat="44.21619" lon="3.47968">
        <ele>1079</ele>
        <time>2020-08-25T15:04:42.000Z</time>
      </trkpt>
      <trkpt lat="44.21611" lon="3.47953">
        <ele>1077.3</ele>
        <time>2020-08-25T15:04:44.000Z</time>
      </trkpt>
      <trkpt lat="44.216" lon="3.47939">
        <ele>1075.7</ele>
        <time>2020-08-25T15:04:46.000Z</time>
      </trkpt>
      <trkpt lat="44.21593" lon="3.47932">
        <ele>1074.9</ele>
        <time>2020-08-25T15:04:47.000Z</time>
      </trkpt>
      <trkpt lat="44.2158" lon="3.4792">
        <ele>1073.4</ele>
        <time>2020-08-25T15:04:49.000Z</time>
      </trkpt>
      <trkpt lat="44.21568" lon="3.47913">
        <ele>1072.3</ele>
        <time>2020-08-25T15:04:51.000Z</time>
      </trkpt>
      <trkpt lat="44.21562" lon="3.47909">
        <ele>1071.6</ele>
        <time>2020-08-25T15:04:52.000Z</time>
      </trkpt>
      <trkpt lat="44.21553" lon="3.479">
        <ele>1070.4</ele>
        <time>2020-08-25T15:04:54.000Z</time>
      </trkpt>
      <trkpt lat="44.21547" lon="3.47895">
        <ele>1069.9</ele>
        <time>2020-08-25T15:04:55.000Z</time>
      </trkpt>
      <trkpt lat="44.21536" lon="3.47887">
        <ele>1068.4</ele>
        <time>2020-08-25T15:04:57.000Z</time>
      </trkpt>
      <trkpt lat="44.21531" lon="3.47883">
        <ele>1067.4</ele>
        <time>2020-08-25T15:04:58.000Z</time>
      </trkpt>
      <trkpt lat="44.21521" lon="3.47875">
        <ele>1065.6</ele>
        <time>2020-08-25T15:05:00.000Z</time>
      </trkpt>
      <trkpt lat="44.21515" lon="3.47871">
        <ele>1064.6</ele>
        <time>2020-08-25T15:05:01.000Z</time>
      </trkpt>
      <trkpt lat="44.215" lon="3.47864">
        <ele>1062.6</ele>
        <time>2020-08-25T15:05:03.000Z</time>
      </trkpt>
      <trkpt lat="44.21484" lon="3.47858">
        <ele>1060.5</ele>
        <time>2020-08-25T15:05:05.000Z</time>
      </trkpt>
      <trkpt lat="44.21475" lon="3.47855">
        <ele>1059.9</ele>
        <time>2020-08-25T15:05:06.000Z</time>
      </trkpt>
      <trkpt lat="44.21467" lon="3.47853">
        <ele>1059.4</ele>
        <time>2020-08-25T15:05:07.000Z</time>
      </trkpt>
      <trkpt lat="44.21453" lon="3.47839">
        <ele>1058.3</ele>
        <time>2020-08-25T15:05:09.000Z</time>
      </trkpt>
      <trkpt lat="44.21445" lon="3.4782">
        <ele>1057.9</ele>
        <time>2020-08-25T15:05:11.000Z</time>
      </trkpt>
      <trkpt lat="44.2144" lon="3.47812">
        <ele>1057.9</ele>
        <time>2020-08-25T15:05:12.000Z</time>
      </trkpt>
      <trkpt lat="44.21429" lon="3.47806">
        <ele>1057.6</ele>
        <time>2020-08-25T15:05:14.000Z</time>
      </trkpt>
      <trkpt lat="44.21419" lon="3.47797">
        <ele>1056.8</ele>
        <time>2020-08-25T15:05:16.000Z</time>
      </trkpt>
      <trkpt lat="44.21413" lon="3.47781">
        <ele>1056.1</ele>
        <time>2020-08-25T15:05:18.000Z</time>
      </trkpt>
      <trkpt lat="44.21409" lon="3.47774">
        <ele>1055.7</ele>
        <time>2020-08-25T15:05:19.000Z</time>
      </trkpt>
      <trkpt lat="44.21405" lon="3.4777">
        <ele>1055.3</ele>
        <time>2020-08-25T15:05:20.000Z</time>
      </trkpt>
      <trkpt lat="44.21393" lon="3.47766">
        <ele>1054.4</ele>
        <time>2020-08-25T15:05:22.000Z</time>
      </trkpt>
      <trkpt lat="44.21387" lon="3.47764">
        <ele>1053.8</ele>
        <time>2020-08-25T15:05:23.000Z</time>
      </trkpt>
      <trkpt lat="44.21374" lon="3.47758">
        <ele>1052.9</ele>
        <time>2020-08-25T15:05:25.000Z</time>
      </trkpt>
      <trkpt lat="44.21367" lon="3.47756">
        <ele>1052.6</ele>
        <time>2020-08-25T15:05:26.000Z</time>
      </trkpt>
      <trkpt lat="44.21353" lon="3.4775">
        <ele>1051.6</ele>
        <time>2020-08-25T15:05:28.000Z</time>
      </trkpt>
      <trkpt lat="44.2134" lon="3.47735">
        <ele>1050.2</ele>
        <time>2020-08-25T15:05:30.000Z</time>
      </trkpt>
      <trkpt lat="44.21335" lon="3.47726">
        <ele>1049.5</ele>
        <time>2020-08-25T15:05:31.000Z</time>
      </trkpt>
      <trkpt lat="44.21329" lon="3.47715">
        <ele>1048.9</ele>
        <time>2020-08-25T15:05:32.000Z</time>
      </trkpt>
      <trkpt lat="44.21319" lon="3.47699">
        <ele>1048.1</ele>
        <time>2020-08-25T15:05:34.000Z</time>
      </trkpt>
      <trkpt lat="44.21313" lon="3.4769">
        <ele>1047.8</ele>
        <time>2020-08-25T15:05:35.000Z</time>
      </trkpt>
      <trkpt lat="44.21304" lon="3.47676">
        <ele>1047.5</ele>
        <time>2020-08-25T15:05:37.000Z</time>
      </trkpt>
      <trkpt lat="44.21295" lon="3.4766">
        <ele>1047.3</ele>
        <time>2020-08-25T15:05:39.000Z</time>
      </trkpt>
      <trkpt lat="44.21285" lon="3.47644">
        <ele>1047.2</ele>
        <time>2020-08-25T15:05:41.000Z</time>
      </trkpt>
      <trkpt lat="44.21275" lon="3.47626">
        <ele>1046.9</ele>
        <time>2020-08-25T15:05:43.000Z</time>
      </trkpt>
      <trkpt lat="44.21264" lon="3.47609">
        <ele>1046.5</ele>
        <time>2020-08-25T15:05:45.000Z</time>
      </trkpt>
      <trkpt lat="44.21253" lon="3.47591">
        <ele>1045.9</ele>
        <time>2020-08-25T15:05:47.000Z</time>
      </trkpt>
      <trkpt lat="44.21248" lon="3.47582">
        <ele>1045.6</ele>
        <time>2020-08-25T15:05:48.000Z</time>
      </trkpt>
      <trkpt lat="44.21239" lon="3.47563">
        <ele>1045.4</ele>
        <time>2020-08-25T15:05:50.000Z</time>
      </trkpt>
      <trkpt lat="44.21235" lon="3.47554">
        <ele>1045.4</ele>
        <time>2020-08-25T15:05:51.000Z</time>
      </trkpt>
      <trkpt lat="44.21232" lon="3.47545">
        <ele>1045.3</ele>
        <time>2020-08-25T15:05:52.000Z</time>
      </trkpt>
      <trkpt lat="44.21224" lon="3.47528">
        <ele>1044.9</ele>
        <time>2020-08-25T15:05:54.000Z</time>
      </trkpt>
      <trkpt lat="44.21216" lon="3.47516">
        <ele>1044.5</ele>
        <time>2020-08-25T15:05:56.000Z</time>
      </trkpt>
      <trkpt lat="44.21212" lon="3.47509">
        <ele>1044.3</ele>
        <time>2020-08-25T15:05:57.000Z</time>
      </trkpt>
      <trkpt lat="44.21208" lon="3.47503">
        <ele>1044</ele>
        <time>2020-08-25T15:05:58.000Z</time>
      </trkpt>
      <trkpt lat="44.212" lon="3.47488">
        <ele>1043.3</ele>
        <time>2020-08-25T15:06:00.000Z</time>
      </trkpt>
      <trkpt lat="44.21195" lon="3.4748">
        <ele>1042.9</ele>
        <time>2020-08-25T15:06:01.000Z</time>
      </trkpt>
      <trkpt lat="44.21191" lon="3.47472">
        <ele>1042.6</ele>
        <time>2020-08-25T15:06:02.000Z</time>
      </trkpt>
      <trkpt lat="44.21183" lon="3.47455">
        <ele>1042.1</ele>
        <time>2020-08-25T15:06:04.000Z</time>
      </trkpt>
      <trkpt lat="44.2118" lon="3.47447">
        <ele>1041.9</ele>
        <time>2020-08-25T15:06:05.000Z</time>
      </trkpt>
      <trkpt lat="44.21176" lon="3.47435">
        <ele>1041.8</ele>
        <time>2020-08-25T15:06:07.000Z</time>
      </trkpt>
      <trkpt lat="44.21175" lon="3.47431">
        <ele>1041.9</ele>
        <time>2020-08-25T15:06:08.000Z</time>
      </trkpt>
      <trkpt lat="44.21174" lon="3.47423">
        <ele>1042</ele>
        <time>2020-08-25T15:06:10.000Z</time>
      </trkpt>
      <trkpt lat="44.21173" lon="3.47421">
        <ele>1042.1</ele>
        <time>2020-08-25T15:06:11.000Z</time>
      </trkpt>
      <trkpt lat="44.21172" lon="3.47415">
        <ele>1042.2</ele>
        <time>2020-08-25T15:06:13.000Z</time>
      </trkpt>
      <trkpt lat="44.21171" lon="3.47413">
        <ele>1042.2</ele>
        <time>2020-08-25T15:06:14.000Z</time>
      </trkpt>
      <trkpt lat="44.21169" lon="3.47414">
        <ele>1042.2</ele>
        <time>2020-08-25T15:06:16.000Z</time>
      </trkpt>
      <trkpt lat="44.2117" lon="3.47416">
        <ele>1042.2</ele>
        <time>2020-08-25T15:06:17.000Z</time>
      </trkpt>
      <trkpt lat="44.2117" lon="3.47419">
        <ele>1042.2</ele>
        <time>2020-08-25T15:06:18.000Z</time>
      </trkpt>
      <trkpt lat="44.21169" lon="3.4742">
        <ele>1042.2</ele>
        <time>2020-08-25T15:06:19.000Z</time>
      </trkpt>
      <trkpt lat="44.21167" lon="3.47424">
        <ele>1042.3</ele>
        <time>2020-08-25T15:06:21.000Z</time>
      </trkpt>
      <trkpt lat="44.21165" lon="3.47426">
        <ele>1042.3</ele>
        <time>2020-08-25T15:06:22.000Z</time>
      </trkpt>
      <trkpt lat="44.21163" lon="3.47429">
        <ele>1042.3</ele>
        <time>2020-08-25T15:06:24.000Z</time>
      </trkpt>
      <trkpt lat="44.2116" lon="3.47433">
        <ele>1042.3</ele>
        <time>2020-08-25T15:06:25.000Z</time>
      </trkpt>
      <trkpt lat="44.21153" lon="3.4744">
        <ele>1042.3</ele>
        <time>2020-08-25T15:06:27.000Z</time>
      </trkpt>
      <trkpt lat="44.21148" lon="3.47446">
        <ele>1042.3</ele>
        <time>2020-08-25T15:06:28.000Z</time>
      </trkpt>
      <trkpt lat="44.21144" lon="3.4745">
        <ele>1042.3</ele>
        <time>2020-08-25T15:06:29.000Z</time>
      </trkpt>
      <trkpt lat="44.21141" lon="3.47454">
        <ele>1042.3</ele>
        <time>2020-08-25T15:06:30.000Z</time>
      </trkpt>
      <trkpt lat="44.21137" lon="3.47459">
        <ele>1042.4</ele>
        <time>2020-08-25T15:06:32.000Z</time>
      </trkpt>
      <trkpt lat="44.21136" lon="3.4746">
        <ele>1042.4</ele>
        <time>2020-08-25T15:06:33.000Z</time>
      </trkpt>
      <trkpt lat="44.21137" lon="3.47459">
        <ele>1042.4</ele>
        <time>2020-08-25T15:06:35.000Z</time>
      </trkpt>
      <trkpt lat="44.21137" lon="3.47459">
        <ele>1042.5</ele>
        <time>2020-08-25T15:06:37.000Z</time>
      </trkpt>
      <trkpt lat="44.21138" lon="3.47458">
        <ele>1042.5</ele>
        <time>2020-08-25T15:06:39.000Z</time>
      </trkpt>
      <trkpt lat="44.21138" lon="3.47458">
        <ele>1042.5</ele>
        <time>2020-08-25T15:06:41.000Z</time>
      </trkpt>
      <trkpt lat="44.21138" lon="3.47458">
        <ele>1042.5</ele>
        <time>2020-08-25T15:06:43.000Z</time>
      </trkpt>
      <trkpt lat="44.21135" lon="3.47462">
        <ele>1042.5</ele>
        <time>2020-08-25T15:07:09.000Z</time>
      </trkpt>
      <trkpt lat="44.21132" lon="3.47466">
        <ele>1042.6</ele>
        <time>2020-08-25T15:07:11.000Z</time>
      </trkpt>
      <trkpt lat="44.21131" lon="3.47467">
        <ele>1042.6</ele>
        <time>2020-08-25T15:07:12.000Z</time>
      </trkpt>
      <trkpt lat="44.2113" lon="3.47471">
        <ele>1042.7</ele>
        <time>2020-08-25T15:07:14.000Z</time>
      </trkpt>
      <trkpt lat="44.21129" lon="3.47471">
        <ele>1042.7</ele>
        <time>2020-08-25T15:07:15.000Z</time>
      </trkpt>
      <trkpt lat="44.21129" lon="3.47471">
        <ele>1042.7</ele>
        <time>2020-08-25T15:07:16.000Z</time>
      </trkpt>
      <trkpt lat="44.21129" lon="3.4747">
        <ele>1042.7</ele>
        <time>2020-08-25T15:07:17.000Z</time>
      </trkpt>
      <trkpt lat="44.21129" lon="3.47469">
        <ele>1042.8</ele>
        <time>2020-08-25T15:07:20.000Z</time>
      </trkpt>
      <trkpt lat="44.21129" lon="3.47469">
        <ele>1042.8</ele>
        <time>2020-08-25T15:07:22.000Z</time>
      </trkpt>
      <trkpt lat="44.21129" lon="3.47469">
        <ele>1042.8</ele>
        <time>2020-08-25T15:07:23.000Z</time>
      </trkpt>
      <trkpt lat="44.21129" lon="3.47469">
        <ele>1042.8</ele>
        <time>2020-08-25T15:07:25.000Z</time>
      </trkpt>
      <trkpt lat="44.21129" lon="3.47477">
        <ele>1042.8</ele>
        <time>2020-08-25T15:19:05.000Z</time>
      </trkpt>
      <trkpt lat="44.21129" lon="3.47478">
        <ele>1042.9</ele>
        <time>2020-08-25T15:19:06.000Z</time>
      </trkpt>
      <trkpt lat="44.21127" lon="3.4748">
        <ele>1042.9</ele>
        <time>2020-08-25T15:19:08.000Z</time>
      </trkpt>
      <trkpt lat="44.21125" lon="3.47482">
        <ele>1042.9</ele>
        <time>2020-08-25T15:19:09.000Z</time>
      </trkpt>
      <trkpt lat="44.2112" lon="3.47485">
        <ele>1043</ele>
        <time>2020-08-25T15:19:11.000Z</time>
      </trkpt>
      <trkpt lat="44.21116" lon="3.47488">
        <ele>1043.1</ele>
        <time>2020-08-25T15:19:12.000Z</time>
      </trkpt>
      <trkpt lat="44.21115" lon="3.4749">
        <ele>1043.1</ele>
        <time>2020-08-25T15:19:13.000Z</time>
      </trkpt>
      <trkpt lat="44.21112" lon="3.47492">
        <ele>1043.2</ele>
        <time>2020-08-25T15:19:14.000Z</time>
      </trkpt>
      <trkpt lat="44.21103" lon="3.475">
        <ele>1043.5</ele>
        <time>2020-08-25T15:19:16.000Z</time>
      </trkpt>
      <trkpt lat="44.21098" lon="3.47503">
        <ele>1043.6</ele>
        <time>2020-08-25T15:19:17.000Z</time>
      </trkpt>
      <trkpt lat="44.21094" lon="3.47506">
        <ele>1043.7</ele>
        <time>2020-08-25T15:19:18.000Z</time>
      </trkpt>
      <trkpt lat="44.21091" lon="3.47508">
        <ele>1043.7</ele>
        <time>2020-08-25T15:19:19.000Z</time>
      </trkpt>
      <trkpt lat="44.21087" lon="3.47511">
        <ele>1043.8</ele>
        <time>2020-08-25T15:19:20.000Z</time>
      </trkpt>
      <trkpt lat="44.21085" lon="3.47513">
        <ele>1043.8</ele>
        <time>2020-08-25T15:19:21.000Z</time>
      </trkpt>
      <trkpt lat="44.21082" lon="3.47516">
        <ele>1043.8</ele>
        <time>2020-08-25T15:19:23.000Z</time>
      </trkpt>
      <trkpt lat="44.21078" lon="3.47518">
        <ele>1044</ele>
        <time>2020-08-25T15:19:25.000Z</time>
      </trkpt>
      <trkpt lat="44.21076" lon="3.4752">
        <ele>1044.1</ele>
        <time>2020-08-25T15:19:26.000Z</time>
      </trkpt>
      <trkpt lat="44.21075" lon="3.4752">
        <ele>1044.2</ele>
        <time>2020-08-25T15:19:27.000Z</time>
      </trkpt>
      <trkpt lat="44.21073" lon="3.47523">
        <ele>1044.3</ele>
        <time>2020-08-25T15:19:28.000Z</time>
      </trkpt>
      <trkpt lat="44.2107" lon="3.47523">
        <ele>1044.3</ele>
        <time>2020-08-25T15:19:30.000Z</time>
      </trkpt>
      <trkpt lat="44.21068" lon="3.47524">
        <ele>1044.3</ele>
        <time>2020-08-25T15:19:31.000Z</time>
      </trkpt>
      <trkpt lat="44.21066" lon="3.47526">
        <ele>1044.3</ele>
        <time>2020-08-25T15:19:33.000Z</time>
      </trkpt>
      <trkpt lat="44.21063" lon="3.47529">
        <ele>1044.3</ele>
        <time>2020-08-25T15:19:34.000Z</time>
      </trkpt>
      <trkpt lat="44.21061" lon="3.4753">
        <ele>1044.3</ele>
        <time>2020-08-25T15:19:35.000Z</time>
      </trkpt>
      <trkpt lat="44.21057" lon="3.47532">
        <ele>1044.2</ele>
        <time>2020-08-25T15:19:37.000Z</time>
      </trkpt>
      <trkpt lat="44.21053" lon="3.47533">
        <ele>1044.2</ele>
        <time>2020-08-25T15:19:39.000Z</time>
      </trkpt>
      <trkpt lat="44.21049" lon="3.47534">
        <ele>1044.2</ele>
        <time>2020-08-25T15:19:40.000Z</time>
      </trkpt>
      <trkpt lat="44.21048" lon="3.47534">
        <ele>1044.2</ele>
        <time>2020-08-25T15:19:41.000Z</time>
      </trkpt>
      <trkpt lat="44.21046" lon="3.47533">
        <ele>1044.2</ele>
        <time>2020-08-25T15:19:42.000Z</time>
      </trkpt>
      <trkpt lat="44.21042" lon="3.47533">
        <ele>1044.2</ele>
        <time>2020-08-25T15:19:44.000Z</time>
      </trkpt>
      <trkpt lat="44.21038" lon="3.47533">
        <ele>1044.2</ele>
        <time>2020-08-25T15:19:45.000Z</time>
      </trkpt>
      <trkpt lat="44.21034" lon="3.47533">
        <ele>1044.1</ele>
        <time>2020-08-25T15:19:46.000Z</time>
      </trkpt>
      <trkpt lat="44.21029" lon="3.47534">
        <ele>1044</ele>
        <time>2020-08-25T15:19:48.000Z</time>
      </trkpt>
      <trkpt lat="44.21025" lon="3.47535">
        <ele>1043.9</ele>
        <time>2020-08-25T15:19:49.000Z</time>
      </trkpt>
      <trkpt lat="44.21021" lon="3.47536">
        <ele>1043.8</ele>
        <time>2020-08-25T15:19:50.000Z</time>
      </trkpt>
      <trkpt lat="44.21018" lon="3.47537">
        <ele>1043.7</ele>
        <time>2020-08-25T15:19:51.000Z</time>
      </trkpt>
      <trkpt lat="44.21014" lon="3.47538">
        <ele>1043.5</ele>
        <time>2020-08-25T15:19:52.000Z</time>
      </trkpt>
      <trkpt lat="44.2101" lon="3.47539">
        <ele>1043.4</ele>
        <time>2020-08-25T15:19:53.000Z</time>
      </trkpt>
      <trkpt lat="44.21007" lon="3.4754">
        <ele>1043.3</ele>
        <time>2020-08-25T15:19:55.000Z</time>
      </trkpt>
      <trkpt lat="44.21002" lon="3.47542">
        <ele>1043.3</ele>
        <time>2020-08-25T15:19:56.000Z</time>
      </trkpt>
      <trkpt lat="44.20998" lon="3.47544">
        <ele>1043.3</ele>
        <time>2020-08-25T15:19:58.000Z</time>
      </trkpt>
      <trkpt lat="44.20993" lon="3.47546">
        <ele>1043.3</ele>
        <time>2020-08-25T15:19:59.000Z</time>
      </trkpt>
      <trkpt lat="44.2099" lon="3.47547">
        <ele>1043.2</ele>
        <time>2020-08-25T15:20:00.000Z</time>
      </trkpt>
      <trkpt lat="44.20986" lon="3.47548">
        <ele>1043.2</ele>
        <time>2020-08-25T15:20:01.000Z</time>
      </trkpt>
      <trkpt lat="44.20982" lon="3.47549">
        <ele>1043.1</ele>
        <time>2020-08-25T15:20:03.000Z</time>
      </trkpt>
      <trkpt lat="44.20978" lon="3.4755">
        <ele>1043.1</ele>
        <time>2020-08-25T15:20:04.000Z</time>
      </trkpt>
      <trkpt lat="44.20974" lon="3.47551">
        <ele>1043</ele>
        <time>2020-08-25T15:20:05.000Z</time>
      </trkpt>
      <trkpt lat="44.20969" lon="3.47552">
        <ele>1043</ele>
        <time>2020-08-25T15:20:07.000Z</time>
      </trkpt>
      <trkpt lat="44.20967" lon="3.47553">
        <ele>1042.9</ele>
        <time>2020-08-25T15:20:08.000Z</time>
      </trkpt>
      <trkpt lat="44.20963" lon="3.47554">
        <ele>1042.9</ele>
        <time>2020-08-25T15:20:10.000Z</time>
      </trkpt>
      <trkpt lat="44.2096" lon="3.47555">
        <ele>1042.8</ele>
        <time>2020-08-25T15:20:11.000Z</time>
      </trkpt>
      <trkpt lat="44.20957" lon="3.47556">
        <ele>1042.8</ele>
        <time>2020-08-25T15:20:13.000Z</time>
      </trkpt>
      <trkpt lat="44.20954" lon="3.47557">
        <ele>1042.7</ele>
        <time>2020-08-25T15:20:14.000Z</time>
      </trkpt>
      <trkpt lat="44.20952" lon="3.47557">
        <ele>1042.7</ele>
        <time>2020-08-25T15:20:15.000Z</time>
      </trkpt>
      <trkpt lat="44.20948" lon="3.47559">
        <ele>1042.5</ele>
        <time>2020-08-25T15:20:17.000Z</time>
      </trkpt>
      <trkpt lat="44.20944" lon="3.4756">
        <ele>1042.5</ele>
        <time>2020-08-25T15:20:18.000Z</time>
      </trkpt>
      <trkpt lat="44.20943" lon="3.4756">
        <ele>1042.4</ele>
        <time>2020-08-25T15:20:19.000Z</time>
      </trkpt>
      <trkpt lat="44.20939" lon="3.47559">
        <ele>1042.4</ele>
        <time>2020-08-25T15:20:21.000Z</time>
      </trkpt>
      <trkpt lat="44.20938" lon="3.47559">
        <ele>1042.4</ele>
        <time>2020-08-25T15:20:22.000Z</time>
      </trkpt>
      <trkpt lat="44.20934" lon="3.4756">
        <ele>1042.4</ele>
        <time>2020-08-25T15:20:23.000Z</time>
      </trkpt>
      <trkpt lat="44.20933" lon="3.4756">
        <ele>1042.4</ele>
        <time>2020-08-25T15:20:24.000Z</time>
      </trkpt>
      <trkpt lat="44.20929" lon="3.4756">
        <ele>1042.4</ele>
        <time>2020-08-25T15:20:25.000Z</time>
      </trkpt>
      <trkpt lat="44.20928" lon="3.47561">
        <ele>1042.4</ele>
        <time>2020-08-25T15:20:26.000Z</time>
      </trkpt>
      <trkpt lat="44.20925" lon="3.47561">
        <ele>1042.4</ele>
        <time>2020-08-25T15:20:27.000Z</time>
      </trkpt>
      <trkpt lat="44.20921" lon="3.47561">
        <ele>1042.3</ele>
        <time>2020-08-25T15:20:29.000Z</time>
      </trkpt>
      <trkpt lat="44.2092" lon="3.47561">
        <ele>1042.3</ele>
        <time>2020-08-25T15:20:30.000Z</time>
      </trkpt>
      <trkpt lat="44.20917" lon="3.47562">
        <ele>1042.3</ele>
        <time>2020-08-25T15:20:31.000Z</time>
      </trkpt>
      <trkpt lat="44.20913" lon="3.47564">
        <ele>1042.1</ele>
        <time>2020-08-25T15:20:33.000Z</time>
      </trkpt>
      <trkpt lat="44.20911" lon="3.47565">
        <ele>1042.1</ele>
        <time>2020-08-25T15:20:34.000Z</time>
      </trkpt>
      <trkpt lat="44.20907" lon="3.47566">
        <ele>1041.9</ele>
        <time>2020-08-25T15:20:36.000Z</time>
      </trkpt>
      <trkpt lat="44.20903" lon="3.47567">
        <ele>1041.7</ele>
        <time>2020-08-25T15:20:37.000Z</time>
      </trkpt>
      <trkpt lat="44.20902" lon="3.47567">
        <ele>1041.6</ele>
        <time>2020-08-25T15:20:38.000Z</time>
      </trkpt>
      <trkpt lat="44.20899" lon="3.47568">
        <ele>1041.4</ele>
        <time>2020-08-25T15:20:39.000Z</time>
      </trkpt>
      <trkpt lat="44.20897" lon="3.47569">
        <ele>1041.2</ele>
        <time>2020-08-25T15:20:40.000Z</time>
      </trkpt>
      <trkpt lat="44.20893" lon="3.47571">
        <ele>1040.9</ele>
        <time>2020-08-25T15:20:41.000Z</time>
      </trkpt>
      <trkpt lat="44.20888" lon="3.47573">
        <ele>1040.4</ele>
        <time>2020-08-25T15:20:43.000Z</time>
      </trkpt>
      <trkpt lat="44.20883" lon="3.47574">
        <ele>1039.9</ele>
        <time>2020-08-25T15:20:45.000Z</time>
      </trkpt>
      <trkpt lat="44.20879" lon="3.47572">
        <ele>1039.4</ele>
        <time>2020-08-25T15:20:46.000Z</time>
      </trkpt>
      <trkpt lat="44.20877" lon="3.47569">
        <ele>1039</ele>
        <time>2020-08-25T15:20:47.000Z</time>
      </trkpt>
      <trkpt lat="44.20873" lon="3.47565">
        <ele>1038.4</ele>
        <time>2020-08-25T15:20:49.000Z</time>
      </trkpt>
      <trkpt lat="44.20872" lon="3.47561">
        <ele>1038</ele>
        <time>2020-08-25T15:20:50.000Z</time>
      </trkpt>
      <trkpt lat="44.20871" lon="3.4756">
        <ele>1037.9</ele>
        <time>2020-08-25T15:20:51.000Z</time>
      </trkpt>
      <trkpt lat="44.20871" lon="3.4756">
        <ele>1037.9</ele>
        <time>2020-08-25T15:20:52.000Z</time>
      </trkpt>
      <trkpt lat="44.20872" lon="3.47561">
        <ele>1037.8</ele>
        <time>2020-08-25T15:20:53.000Z</time>
      </trkpt>
      <trkpt lat="44.20872" lon="3.47562">
        <ele>1037.7</ele>
        <time>2020-08-25T15:20:54.000Z</time>
      </trkpt>
      <trkpt lat="44.20872" lon="3.47562">
        <ele>1037.6</ele>
        <time>2020-08-25T15:20:55.000Z</time>
      </trkpt>
      <trkpt lat="44.20872" lon="3.47561">
        <ele>1037.4</ele>
        <time>2020-08-25T15:20:57.000Z</time>
      </trkpt>
      <trkpt lat="44.20871" lon="3.4756">
        <ele>1037.3</ele>
        <time>2020-08-25T15:20:58.000Z</time>
      </trkpt>
      <trkpt lat="44.2087" lon="3.47559">
        <ele>1037.2</ele>
        <time>2020-08-25T15:20:59.000Z</time>
      </trkpt>
      <trkpt lat="44.20867" lon="3.47557">
        <ele>1037</ele>
        <time>2020-08-25T15:21:01.000Z</time>
      </trkpt>
      <trkpt lat="44.20865" lon="3.47553">
        <ele>1036.7</ele>
        <time>2020-08-25T15:21:02.000Z</time>
      </trkpt>
      <trkpt lat="44.20865" lon="3.47552">
        <ele>1036.6</ele>
        <time>2020-08-25T15:21:03.000Z</time>
      </trkpt>
      <trkpt lat="44.20863" lon="3.47549">
        <ele>1036.4</ele>
        <time>2020-08-25T15:21:04.000Z</time>
      </trkpt>
      <trkpt lat="44.20858" lon="3.47539">
        <ele>1035.8</ele>
        <time>2020-08-25T15:21:06.000Z</time>
      </trkpt>
      <trkpt lat="44.20857" lon="3.47535">
        <ele>1035.5</ele>
        <time>2020-08-25T15:21:07.000Z</time>
      </trkpt>
      <trkpt lat="44.20851" lon="3.47524">
        <ele>1034.8</ele>
        <time>2020-08-25T15:21:09.000Z</time>
      </trkpt>
      <trkpt lat="44.20847" lon="3.47515">
        <ele>1034.3</ele>
        <time>2020-08-25T15:21:11.000Z</time>
      </trkpt>
      <trkpt lat="44.20843" lon="3.47506">
        <ele>1033.9</ele>
        <time>2020-08-25T15:21:12.000Z</time>
      </trkpt>
      <trkpt lat="44.20838" lon="3.47498">
        <ele>1033.5</ele>
        <time>2020-08-25T15:21:13.000Z</time>
      </trkpt>
      <trkpt lat="44.20833" lon="3.47488">
        <ele>1032.9</ele>
        <time>2020-08-25T15:21:15.000Z</time>
      </trkpt>
      <trkpt lat="44.20829" lon="3.4748">
        <ele>1032.3</ele>
        <time>2020-08-25T15:21:16.000Z</time>
      </trkpt>
      <trkpt lat="44.20826" lon="3.47474">
        <ele>1031.9</ele>
        <time>2020-08-25T15:21:18.000Z</time>
      </trkpt>
      <trkpt lat="44.20823" lon="3.4747">
        <ele>1031.6</ele>
        <time>2020-08-25T15:21:19.000Z</time>
      </trkpt>
      <trkpt lat="44.2082" lon="3.47464">
        <ele>1031.2</ele>
        <time>2020-08-25T15:21:20.000Z</time>
      </trkpt>
      <trkpt lat="44.20817" lon="3.47457">
        <ele>1030.8</ele>
        <time>2020-08-25T15:21:22.000Z</time>
      </trkpt>
      <trkpt lat="44.20815" lon="3.47454">
        <ele>1030.5</ele>
        <time>2020-08-25T15:21:24.000Z</time>
      </trkpt>
      <trkpt lat="44.20813" lon="3.47451">
        <ele>1030.3</ele>
        <time>2020-08-25T15:21:25.000Z</time>
      </trkpt>
      <trkpt lat="44.20811" lon="3.47448">
        <ele>1030.1</ele>
        <time>2020-08-25T15:21:26.000Z</time>
      </trkpt>
      <trkpt lat="44.20809" lon="3.47443">
        <ele>1029.8</ele>
        <time>2020-08-25T15:21:27.000Z</time>
      </trkpt>
      <trkpt lat="44.20807" lon="3.47437">
        <ele>1029.3</ele>
        <time>2020-08-25T15:21:29.000Z</time>
      </trkpt>
      <trkpt lat="44.20805" lon="3.47432">
        <ele>1028.9</ele>
        <time>2020-08-25T15:21:30.000Z</time>
      </trkpt>
      <trkpt lat="44.20803" lon="3.47425">
        <ele>1028.4</ele>
        <time>2020-08-25T15:21:31.000Z</time>
      </trkpt>
      <trkpt lat="44.20803" lon="3.47417">
        <ele>1027.8</ele>
        <time>2020-08-25T15:21:33.000Z</time>
      </trkpt>
      <trkpt lat="44.20802" lon="3.47412">
        <ele>1027.5</ele>
        <time>2020-08-25T15:21:34.000Z</time>
      </trkpt>
      <trkpt lat="44.20801" lon="3.47406">
        <ele>1027.1</ele>
        <time>2020-08-25T15:21:36.000Z</time>
      </trkpt>
      <trkpt lat="44.208" lon="3.47407">
        <ele>1026.9</ele>
        <time>2020-08-25T15:21:37.000Z</time>
      </trkpt>
      <trkpt lat="44.20798" lon="3.4741">
        <ele>1026.7</ele>
        <time>2020-08-25T15:21:39.000Z</time>
      </trkpt>
      <trkpt lat="44.20798" lon="3.47416">
        <ele>1026.3</ele>
        <time>2020-08-25T15:21:40.000Z</time>
      </trkpt>
      <trkpt lat="44.20798" lon="3.47421">
        <ele>1026</ele>
        <time>2020-08-25T15:21:41.000Z</time>
      </trkpt>
      <trkpt lat="44.20797" lon="3.47429">
        <ele>1025.5</ele>
        <time>2020-08-25T15:21:43.000Z</time>
      </trkpt>
      <trkpt lat="44.20796" lon="3.47435">
        <ele>1025.2</ele>
        <time>2020-08-25T15:21:44.000Z</time>
      </trkpt>
      <trkpt lat="44.20796" lon="3.47442">
        <ele>1024.8</ele>
        <time>2020-08-25T15:21:45.000Z</time>
      </trkpt>
      <trkpt lat="44.20797" lon="3.47448">
        <ele>1024.4</ele>
        <time>2020-08-25T15:21:46.000Z</time>
      </trkpt>
      <trkpt lat="44.20798" lon="3.47457">
        <ele>1023.7</ele>
        <time>2020-08-25T15:21:48.000Z</time>
      </trkpt>
      <trkpt lat="44.20801" lon="3.47467">
        <ele>1022.9</ele>
        <time>2020-08-25T15:21:49.000Z</time>
      </trkpt>
      <trkpt lat="44.20803" lon="3.47478">
        <ele>1022.1</ele>
        <time>2020-08-25T15:21:51.000Z</time>
      </trkpt>
      <trkpt lat="44.20806" lon="3.47487">
        <ele>1021.4</ele>
        <time>2020-08-25T15:21:53.000Z</time>
      </trkpt>
      <trkpt lat="44.20807" lon="3.47492">
        <ele>1021</ele>
        <time>2020-08-25T15:21:54.000Z</time>
      </trkpt>
      <trkpt lat="44.20808" lon="3.47496">
        <ele>1020.6</ele>
        <time>2020-08-25T15:21:56.000Z</time>
      </trkpt>
      <trkpt lat="44.20809" lon="3.47501">
        <ele>1020.2</ele>
        <time>2020-08-25T15:21:57.000Z</time>
      </trkpt>
      <trkpt lat="44.2081" lon="3.47506">
        <ele>1019.7</ele>
        <time>2020-08-25T15:21:58.000Z</time>
      </trkpt>
      <trkpt lat="44.20811" lon="3.47512">
        <ele>1019.1</ele>
        <time>2020-08-25T15:22:00.000Z</time>
      </trkpt>
      <trkpt lat="44.20812" lon="3.4752">
        <ele>1018.5</ele>
        <time>2020-08-25T15:22:01.000Z</time>
      </trkpt>
      <trkpt lat="44.20812" lon="3.47525">
        <ele>1018.1</ele>
        <time>2020-08-25T15:22:02.000Z</time>
      </trkpt>
      <trkpt lat="44.20812" lon="3.47529">
        <ele>1017.8</ele>
        <time>2020-08-25T15:22:03.000Z</time>
      </trkpt>
      <trkpt lat="44.20811" lon="3.47538">
        <ele>1017</ele>
        <time>2020-08-25T15:22:05.000Z</time>
      </trkpt>
      <trkpt lat="44.20811" lon="3.47543">
        <ele>1016.6</ele>
        <time>2020-08-25T15:22:06.000Z</time>
      </trkpt>
      <trkpt lat="44.20809" lon="3.4755">
        <ele>1015.9</ele>
        <time>2020-08-25T15:22:07.000Z</time>
      </trkpt>
      <trkpt lat="44.20807" lon="3.47557">
        <ele>1015.3</ele>
        <time>2020-08-25T15:22:08.000Z</time>
      </trkpt>
      <trkpt lat="44.20803" lon="3.47566">
        <ele>1014.6</ele>
        <time>2020-08-25T15:22:10.000Z</time>
      </trkpt>
      <trkpt lat="44.20799" lon="3.47569">
        <ele>1014.2</ele>
        <time>2020-08-25T15:22:11.000Z</time>
      </trkpt>
      <trkpt lat="44.20797" lon="3.47574">
        <ele>1013.7</ele>
        <time>2020-08-25T15:22:12.000Z</time>
      </trkpt>
      <trkpt lat="44.20793" lon="3.4758">
        <ele>1013</ele>
        <time>2020-08-25T15:22:14.000Z</time>
      </trkpt>
      <trkpt lat="44.20789" lon="3.47585">
        <ele>1012.4</ele>
        <time>2020-08-25T15:22:15.000Z</time>
      </trkpt>
      <trkpt lat="44.20783" lon="3.47592">
        <ele>1011.3</ele>
        <time>2020-08-25T15:22:16.000Z</time>
      </trkpt>
      <trkpt lat="44.2078" lon="3.47597">
        <ele>1010.5</ele>
        <time>2020-08-25T15:22:17.000Z</time>
      </trkpt>
      <trkpt lat="44.20777" lon="3.47603">
        <ele>1009.8</ele>
        <time>2020-08-25T15:22:18.000Z</time>
      </trkpt>
      <trkpt lat="44.20775" lon="3.47608">
        <ele>1009.2</ele>
        <time>2020-08-25T15:22:19.000Z</time>
      </trkpt>
      <trkpt lat="44.20772" lon="3.47613">
        <ele>1008.6</ele>
        <time>2020-08-25T15:22:20.000Z</time>
      </trkpt>
      <trkpt lat="44.2077" lon="3.4761">
        <ele>1008.3</ele>
        <time>2020-08-25T15:22:22.000Z</time>
      </trkpt>
      <trkpt lat="44.20771" lon="3.47608">
        <ele>1008.1</ele>
        <time>2020-08-25T15:22:23.000Z</time>
      </trkpt>
      <trkpt lat="44.20772" lon="3.47604">
        <ele>1007.6</ele>
        <time>2020-08-25T15:22:25.000Z</time>
      </trkpt>
      <trkpt lat="44.20772" lon="3.47603">
        <ele>1007.5</ele>
        <time>2020-08-25T15:22:27.000Z</time>
      </trkpt>
      <trkpt lat="44.20772" lon="3.47603">
        <ele>1007.4</ele>
        <time>2020-08-25T15:22:28.000Z</time>
      </trkpt>
      <trkpt lat="44.20771" lon="3.47603">
        <ele>1007.4</ele>
        <time>2020-08-25T15:22:30.000Z</time>
      </trkpt>
      <trkpt lat="44.20771" lon="3.47603">
        <ele>1007.3</ele>
        <time>2020-08-25T15:22:32.000Z</time>
      </trkpt>
      <trkpt lat="44.20771" lon="3.47603">
        <ele>1007.3</ele>
        <time>2020-08-25T15:22:34.000Z</time>
      </trkpt>
      <trkpt lat="44.20771" lon="3.47604">
        <ele>1007.3</ele>
        <time>2020-08-25T15:22:36.000Z</time>
      </trkpt>
      <trkpt lat="44.20775" lon="3.47601">
        <ele>1006.7</ele>
        <time>2020-08-25T15:23:24.000Z</time>
      </trkpt>
      <trkpt lat="44.20775" lon="3.47599">
        <ele>1006.5</ele>
        <time>2020-08-25T15:23:26.000Z</time>
      </trkpt>
      <trkpt lat="44.20776" lon="3.47596">
        <ele>1006.1</ele>
        <time>2020-08-25T15:23:27.000Z</time>
      </trkpt>
      <trkpt lat="44.20777" lon="3.47592">
        <ele>1005.6</ele>
        <time>2020-08-25T15:23:28.000Z</time>
      </trkpt>
      <trkpt lat="44.20778" lon="3.47587">
        <ele>1005</ele>
        <time>2020-08-25T15:23:29.000Z</time>
      </trkpt>
      <trkpt lat="44.20781" lon="3.47578">
        <ele>1003.9</ele>
        <time>2020-08-25T15:23:31.000Z</time>
      </trkpt>
      <trkpt lat="44.20781" lon="3.47573">
        <ele>1003.2</ele>
        <time>2020-08-25T15:23:32.000Z</time>
      </trkpt>
      <trkpt lat="44.20783" lon="3.47566">
        <ele>1002.5</ele>
        <time>2020-08-25T15:23:33.000Z</time>
      </trkpt>
      <trkpt lat="44.20784" lon="3.47557">
        <ele>1001.7</ele>
        <time>2020-08-25T15:23:34.000Z</time>
      </trkpt>
      <trkpt lat="44.20784" lon="3.47551">
        <ele>1001.2</ele>
        <time>2020-08-25T15:23:35.000Z</time>
      </trkpt>
      <trkpt lat="44.20784" lon="3.47546">
        <ele>1000.8</ele>
        <time>2020-08-25T15:23:37.000Z</time>
      </trkpt>
      <trkpt lat="44.20783" lon="3.4754">
        <ele>1000.3</ele>
        <time>2020-08-25T15:23:39.000Z</time>
      </trkpt>
      <trkpt lat="44.20782" lon="3.47538">
        <ele>1000.1</ele>
        <time>2020-08-25T15:23:40.000Z</time>
      </trkpt>
      <trkpt lat="44.2078" lon="3.47536">
        <ele>999.8</ele>
        <time>2020-08-25T15:23:42.000Z</time>
      </trkpt>
      <trkpt lat="44.20778" lon="3.47532">
        <ele>999.3</ele>
        <time>2020-08-25T15:23:43.000Z</time>
      </trkpt>
      <trkpt lat="44.20777" lon="3.47531">
        <ele>999.1</ele>
        <time>2020-08-25T15:23:44.000Z</time>
      </trkpt>
      <trkpt lat="44.20775" lon="3.47528">
        <ele>998.8</ele>
        <time>2020-08-25T15:23:45.000Z</time>
      </trkpt>
      <trkpt lat="44.20773" lon="3.47526">
        <ele>998.5</ele>
        <time>2020-08-25T15:23:47.000Z</time>
      </trkpt>
      <trkpt lat="44.20771" lon="3.47523">
        <ele>998</ele>
        <time>2020-08-25T15:23:48.000Z</time>
      </trkpt>
      <trkpt lat="44.2077" lon="3.47522">
        <ele>997.9</ele>
        <time>2020-08-25T15:23:49.000Z</time>
      </trkpt>
      <trkpt lat="44.20768" lon="3.4752">
        <ele>997.6</ele>
        <time>2020-08-25T15:23:50.000Z</time>
      </trkpt>
      <trkpt lat="44.20765" lon="3.47516">
        <ele>997.1</ele>
        <time>2020-08-25T15:23:52.000Z</time>
      </trkpt>
      <trkpt lat="44.20763" lon="3.47514">
        <ele>996.8</ele>
        <time>2020-08-25T15:23:53.000Z</time>
      </trkpt>
      <trkpt lat="44.20759" lon="3.47511">
        <ele>996.3</ele>
        <time>2020-08-25T15:23:55.000Z</time>
      </trkpt>
      <trkpt lat="44.20755" lon="3.47507">
        <ele>995.7</ele>
        <time>2020-08-25T15:23:56.000Z</time>
      </trkpt>
      <trkpt lat="44.20752" lon="3.47504">
        <ele>995.4</ele>
        <time>2020-08-25T15:23:57.000Z</time>
      </trkpt>
      <trkpt lat="44.20752" lon="3.47503">
        <ele>995.3</ele>
        <time>2020-08-25T15:23:58.000Z</time>
      </trkpt>
      <trkpt lat="44.20749" lon="3.475">
        <ele>994.9</ele>
        <time>2020-08-25T15:23:59.000Z</time>
      </trkpt>
      <trkpt lat="44.20746" lon="3.47496">
        <ele>994.3</ele>
        <time>2020-08-25T15:24:01.000Z</time>
      </trkpt>
      <trkpt lat="44.2074" lon="3.47487">
        <ele>992.8</ele>
        <time>2020-08-25T15:24:02.000Z</time>
      </trkpt>
      <trkpt lat="44.20735" lon="3.4748">
        <ele>991.4</ele>
        <time>2020-08-25T15:24:04.000Z</time>
      </trkpt>
      <trkpt lat="44.20732" lon="3.47475">
        <ele>990.3</ele>
        <time>2020-08-25T15:24:05.000Z</time>
      </trkpt>
      <trkpt lat="44.2073" lon="3.47471">
        <ele>989.6</ele>
        <time>2020-08-25T15:24:06.000Z</time>
      </trkpt>
      <trkpt lat="44.20728" lon="3.47467">
        <ele>988.8</ele>
        <time>2020-08-25T15:24:07.000Z</time>
      </trkpt>
      <trkpt lat="44.20724" lon="3.47461">
        <ele>987.6</ele>
        <time>2020-08-25T15:24:09.000Z</time>
      </trkpt>
      <trkpt lat="44.20721" lon="3.47456">
        <ele>986.6</ele>
        <time>2020-08-25T15:24:11.000Z</time>
      </trkpt>
      <trkpt lat="44.20719" lon="3.47452">
        <ele>985.8</ele>
        <time>2020-08-25T15:24:12.000Z</time>
      </trkpt>
      <trkpt lat="44.20718" lon="3.47447">
        <ele>985</ele>
        <time>2020-08-25T15:24:13.000Z</time>
      </trkpt>
      <trkpt lat="44.20716" lon="3.47442">
        <ele>984</ele>
        <time>2020-08-25T15:24:14.000Z</time>
      </trkpt>
      <trkpt lat="44.20713" lon="3.47433">
        <ele>982.9</ele>
        <time>2020-08-25T15:24:16.000Z</time>
      </trkpt>
      <trkpt lat="44.20712" lon="3.47428">
        <ele>982.3</ele>
        <time>2020-08-25T15:24:17.000Z</time>
      </trkpt>
      <trkpt lat="44.20712" lon="3.47423">
        <ele>981.7</ele>
        <time>2020-08-25T15:24:18.000Z</time>
      </trkpt>
      <trkpt lat="44.20711" lon="3.4742">
        <ele>981.3</ele>
        <time>2020-08-25T15:24:20.000Z</time>
      </trkpt>
      <trkpt lat="44.2071" lon="3.47417">
        <ele>981</ele>
        <time>2020-08-25T15:24:21.000Z</time>
      </trkpt>
      <trkpt lat="44.2071" lon="3.47417">
        <ele>981</ele>
        <time>2020-08-25T15:24:23.000Z</time>
      </trkpt>
      <trkpt lat="44.2071" lon="3.47417">
        <ele>981</ele>
        <time>2020-08-25T15:24:24.000Z</time>
      </trkpt>
      <trkpt lat="44.2071" lon="3.47417">
        <ele>980.9</ele>
        <time>2020-08-25T15:24:26.000Z</time>
      </trkpt>
      <trkpt lat="44.20709" lon="3.47416">
        <ele>980.7</ele>
        <time>2020-08-25T15:24:27.000Z</time>
      </trkpt>
      <trkpt lat="44.20708" lon="3.47413">
        <ele>980.3</ele>
        <time>2020-08-25T15:24:28.000Z</time>
      </trkpt>
      <trkpt lat="44.20708" lon="3.47413">
        <ele>980.2</ele>
        <time>2020-08-25T15:24:29.000Z</time>
      </trkpt>
      <trkpt lat="44.20707" lon="3.47412">
        <ele>979.9</ele>
        <time>2020-08-25T15:24:30.000Z</time>
      </trkpt>
      <trkpt lat="44.20706" lon="3.47411">
        <ele>979.7</ele>
        <time>2020-08-25T15:24:32.000Z</time>
      </trkpt>
      <trkpt lat="44.20705" lon="3.4741">
        <ele>979.5</ele>
        <time>2020-08-25T15:24:33.000Z</time>
      </trkpt>
      <trkpt lat="44.20705" lon="3.4741">
        <ele>979.3</ele>
        <time>2020-08-25T15:24:34.000Z</time>
      </trkpt>
      <trkpt lat="44.20704" lon="3.47409">
        <ele>979</ele>
        <time>2020-08-25T15:24:36.000Z</time>
      </trkpt>
      <trkpt lat="44.20703" lon="3.47409">
        <ele>978.9</ele>
        <time>2020-08-25T15:24:38.000Z</time>
      </trkpt>
      <trkpt lat="44.20703" lon="3.47408">
        <ele>978.8</ele>
        <time>2020-08-25T15:24:39.000Z</time>
      </trkpt>
      <trkpt lat="44.20702" lon="3.47408">
        <ele>978.6</ele>
        <time>2020-08-25T15:24:41.000Z</time>
      </trkpt>
      <trkpt lat="44.20702" lon="3.47408">
        <ele>978.5</ele>
        <time>2020-08-25T15:24:42.000Z</time>
      </trkpt>
      <trkpt lat="44.20701" lon="3.47408">
        <ele>978.3</ele>
        <time>2020-08-25T15:24:43.000Z</time>
      </trkpt>
      <trkpt lat="44.20699" lon="3.47406">
        <ele>977.5</ele>
        <time>2020-08-25T15:24:46.000Z</time>
      </trkpt>
      <trkpt lat="44.20697" lon="3.47403">
        <ele>976.8</ele>
        <time>2020-08-25T15:24:47.000Z</time>
      </trkpt>
      <trkpt lat="44.20696" lon="3.47402">
        <ele>976.5</ele>
        <time>2020-08-25T15:24:48.000Z</time>
      </trkpt>
      <trkpt lat="44.20696" lon="3.474">
        <ele>976</ele>
        <time>2020-08-25T15:24:49.000Z</time>
      </trkpt>
      <trkpt lat="44.20695" lon="3.47398">
        <ele>975.7</ele>
        <time>2020-08-25T15:24:51.000Z</time>
      </trkpt>
      <trkpt lat="44.20695" lon="3.47397">
        <ele>975.4</ele>
        <time>2020-08-25T15:24:52.000Z</time>
      </trkpt>
      <trkpt lat="44.20695" lon="3.47396">
        <ele>975.1</ele>
        <time>2020-08-25T15:24:54.000Z</time>
      </trkpt>
      <trkpt lat="44.20694" lon="3.47394">
        <ele>974.8</ele>
        <time>2020-08-25T15:24:55.000Z</time>
      </trkpt>
      <trkpt lat="44.20694" lon="3.47393">
        <ele>974.6</ele>
        <time>2020-08-25T15:24:56.000Z</time>
      </trkpt>
      <trkpt lat="44.20693" lon="3.47389">
        <ele>973.9</ele>
        <time>2020-08-25T15:24:57.000Z</time>
      </trkpt>
      <trkpt lat="44.2069" lon="3.47382">
        <ele>972.8</ele>
        <time>2020-08-25T15:24:59.000Z</time>
      </trkpt>
      <trkpt lat="44.20689" lon="3.47381">
        <ele>972.5</ele>
        <time>2020-08-25T15:25:00.000Z</time>
      </trkpt>
      <trkpt lat="44.20686" lon="3.47377">
        <ele>971.9</ele>
        <time>2020-08-25T15:25:02.000Z</time>
      </trkpt>
      <trkpt lat="44.20682" lon="3.47371">
        <ele>970.8</ele>
        <time>2020-08-25T15:25:03.000Z</time>
      </trkpt>
      <trkpt lat="44.20679" lon="3.47365">
        <ele>969.7</ele>
        <time>2020-08-25T15:25:04.000Z</time>
      </trkpt>
      <trkpt lat="44.20675" lon="3.4736">
        <ele>968.7</ele>
        <time>2020-08-25T15:25:05.000Z</time>
      </trkpt>
      <trkpt lat="44.20672" lon="3.47355">
        <ele>967.6</ele>
        <time>2020-08-25T15:25:06.000Z</time>
      </trkpt>
      <trkpt lat="44.20669" lon="3.47349">
        <ele>966.7</ele>
        <time>2020-08-25T15:25:08.000Z</time>
      </trkpt>
      <trkpt lat="44.20666" lon="3.47343">
        <ele>965.7</ele>
        <time>2020-08-25T15:25:09.000Z</time>
      </trkpt>
      <trkpt lat="44.20662" lon="3.47335">
        <ele>964.6</ele>
        <time>2020-08-25T15:25:11.000Z</time>
      </trkpt>
      <trkpt lat="44.20658" lon="3.47328">
        <ele>963.8</ele>
        <time>2020-08-25T15:25:13.000Z</time>
      </trkpt>
      <trkpt lat="44.20654" lon="3.47318">
        <ele>962.6</ele>
        <time>2020-08-25T15:25:14.000Z</time>
      </trkpt>
      <trkpt lat="44.2065" lon="3.47307">
        <ele>961.3</ele>
        <time>2020-08-25T15:25:16.000Z</time>
      </trkpt>
      <trkpt lat="44.20652" lon="3.47306">
        <ele>961</ele>
        <time>2020-08-25T15:25:17.000Z</time>
      </trkpt>
      <trkpt lat="44.20648" lon="3.47299">
        <ele>960</ele>
        <time>2020-08-25T15:25:19.000Z</time>
      </trkpt>
      <trkpt lat="44.20644" lon="3.47291">
        <ele>958.7</ele>
        <time>2020-08-25T15:25:20.000Z</time>
      </trkpt>
      <trkpt lat="44.20642" lon="3.47286">
        <ele>957.9</ele>
        <time>2020-08-25T15:25:21.000Z</time>
      </trkpt>
      <trkpt lat="44.20639" lon="3.47276">
        <ele>956.5</ele>
        <time>2020-08-25T15:25:23.000Z</time>
      </trkpt>
      <trkpt lat="44.20637" lon="3.4727">
        <ele>955.9</ele>
        <time>2020-08-25T15:25:24.000Z</time>
      </trkpt>
      <trkpt lat="44.20636" lon="3.47265">
        <ele>955.2</ele>
        <time>2020-08-25T15:25:25.000Z</time>
      </trkpt>
      <trkpt lat="44.20633" lon="3.47255">
        <ele>954</ele>
        <time>2020-08-25T15:25:27.000Z</time>
      </trkpt>
      <trkpt lat="44.2063" lon="3.47249">
        <ele>953.3</ele>
        <time>2020-08-25T15:25:28.000Z</time>
      </trkpt>
      <trkpt lat="44.20627" lon="3.47244">
        <ele>952.6</ele>
        <time>2020-08-25T15:25:29.000Z</time>
      </trkpt>
      <trkpt lat="44.20625" lon="3.47238">
        <ele>951.9</ele>
        <time>2020-08-25T15:25:30.000Z</time>
      </trkpt>
      <trkpt lat="44.20623" lon="3.47232">
        <ele>951.2</ele>
        <time>2020-08-25T15:25:31.000Z</time>
      </trkpt>
      <trkpt lat="44.2062" lon="3.47225">
        <ele>950.4</ele>
        <time>2020-08-25T15:25:32.000Z</time>
      </trkpt>
      <trkpt lat="44.20617" lon="3.47218">
        <ele>949.6</ele>
        <time>2020-08-25T15:25:34.000Z</time>
      </trkpt>
      <trkpt lat="44.20615" lon="3.47212">
        <ele>948.8</ele>
        <time>2020-08-25T15:25:35.000Z</time>
      </trkpt>
      <trkpt lat="44.20613" lon="3.47206">
        <ele>948.2</ele>
        <time>2020-08-25T15:25:36.000Z</time>
      </trkpt>
      <trkpt lat="44.2061" lon="3.47198">
        <ele>947.4</ele>
        <time>2020-08-25T15:25:38.000Z</time>
      </trkpt>
      <trkpt lat="44.2061" lon="3.47193">
        <ele>947</ele>
        <time>2020-08-25T15:25:39.000Z</time>
      </trkpt>
      <trkpt lat="44.20609" lon="3.47188">
        <ele>946.5</ele>
        <time>2020-08-25T15:25:40.000Z</time>
      </trkpt>
      <trkpt lat="44.20609" lon="3.47183">
        <ele>946</ele>
        <time>2020-08-25T15:25:42.000Z</time>
      </trkpt>
      <trkpt lat="44.20609" lon="3.47184">
        <ele>945.9</ele>
        <time>2020-08-25T15:25:44.000Z</time>
      </trkpt>
      <trkpt lat="44.2061" lon="3.47186">
        <ele>945.7</ele>
        <time>2020-08-25T15:25:46.000Z</time>
      </trkpt>
      <trkpt lat="44.2061" lon="3.47186">
        <ele>945.6</ele>
        <time>2020-08-25T15:25:47.000Z</time>
      </trkpt>
      <trkpt lat="44.2061" lon="3.47187">
        <ele>945.6</ele>
        <time>2020-08-25T15:25:48.000Z</time>
      </trkpt>
      <trkpt lat="44.20609" lon="3.47187">
        <ele>945.5</ele>
        <time>2020-08-25T15:25:49.000Z</time>
      </trkpt>
      <trkpt lat="44.20609" lon="3.47186">
        <ele>945.3</ele>
        <time>2020-08-25T15:25:51.000Z</time>
      </trkpt>
      <trkpt lat="44.20608" lon="3.47184">
        <ele>945.1</ele>
        <time>2020-08-25T15:25:52.000Z</time>
      </trkpt>
      <trkpt lat="44.20608" lon="3.47182">
        <ele>945</ele>
        <time>2020-08-25T15:25:53.000Z</time>
      </trkpt>
      <trkpt lat="44.20608" lon="3.4718">
        <ele>944.7</ele>
        <time>2020-08-25T15:25:55.000Z</time>
      </trkpt>
      <trkpt lat="44.20608" lon="3.47179">
        <ele>944.5</ele>
        <time>2020-08-25T15:25:57.000Z</time>
      </trkpt>
      <trkpt lat="44.20608" lon="3.47178">
        <ele>944.4</ele>
        <time>2020-08-25T15:25:58.000Z</time>
      </trkpt>
      <trkpt lat="44.20607" lon="3.47176">
        <ele>944.2</ele>
        <time>2020-08-25T15:25:59.000Z</time>
      </trkpt>
      <trkpt lat="44.20607" lon="3.47175">
        <ele>944</ele>
        <time>2020-08-25T15:26:00.000Z</time>
      </trkpt>
      <trkpt lat="44.20607" lon="3.47174">
        <ele>943.9</ele>
        <time>2020-08-25T15:26:02.000Z</time>
      </trkpt>
      <trkpt lat="44.20606" lon="3.47173">
        <ele>943.8</ele>
        <time>2020-08-25T15:26:03.000Z</time>
      </trkpt>
      <trkpt lat="44.20605" lon="3.47171">
        <ele>943.5</ele>
        <time>2020-08-25T15:26:04.000Z</time>
      </trkpt>
      <trkpt lat="44.20604" lon="3.4717">
        <ele>943.3</ele>
        <time>2020-08-25T15:26:05.000Z</time>
      </trkpt>
      <trkpt lat="44.20603" lon="3.47168">
        <ele>943</ele>
        <time>2020-08-25T15:26:07.000Z</time>
      </trkpt>
      <trkpt lat="44.20603" lon="3.47168">
        <ele>942.9</ele>
        <time>2020-08-25T15:26:09.000Z</time>
      </trkpt>
      <trkpt lat="44.20601" lon="3.47166">
        <ele>942.5</ele>
        <time>2020-08-25T15:26:11.000Z</time>
      </trkpt>
      <trkpt lat="44.206" lon="3.47165">
        <ele>942.2</ele>
        <time>2020-08-25T15:26:12.000Z</time>
      </trkpt>
      <trkpt lat="44.20599" lon="3.47164">
        <ele>942</ele>
        <time>2020-08-25T15:26:13.000Z</time>
      </trkpt>
      <trkpt lat="44.20598" lon="3.47161">
        <ele>941.6</ele>
        <time>2020-08-25T15:26:15.000Z</time>
      </trkpt>
      <trkpt lat="44.20597" lon="3.47159">
        <ele>941.3</ele>
        <time>2020-08-25T15:26:16.000Z</time>
      </trkpt>
      <trkpt lat="44.20597" lon="3.47159">
        <ele>941</ele>
        <time>2020-08-25T15:26:18.000Z</time>
      </trkpt>
      <trkpt lat="44.20596" lon="3.47159">
        <ele>941</ele>
        <time>2020-08-25T15:26:19.000Z</time>
      </trkpt>
      <trkpt lat="44.20594" lon="3.47157">
        <ele>940.8</ele>
        <time>2020-08-25T15:26:21.000Z</time>
      </trkpt>
      <trkpt lat="44.20592" lon="3.47154">
        <ele>940.6</ele>
        <time>2020-08-25T15:26:22.000Z</time>
      </trkpt>
      <trkpt lat="44.2059" lon="3.47152">
        <ele>940.4</ele>
        <time>2020-08-25T15:26:23.000Z</time>
      </trkpt>
      <trkpt lat="44.20589" lon="3.47151">
        <ele>940.3</ele>
        <time>2020-08-25T15:26:24.000Z</time>
      </trkpt>
      <trkpt lat="44.20586" lon="3.4715">
        <ele>940</ele>
        <time>2020-08-25T15:26:26.000Z</time>
      </trkpt>
      <trkpt lat="44.20582" lon="3.4715">
        <ele>939.6</ele>
        <time>2020-08-25T15:26:27.000Z</time>
      </trkpt>
      <trkpt lat="44.20578" lon="3.47147">
        <ele>939</ele>
        <time>2020-08-25T15:26:29.000Z</time>
      </trkpt>
      <trkpt lat="44.20575" lon="3.47145">
        <ele>938.7</ele>
        <time>2020-08-25T15:26:30.000Z</time>
      </trkpt>
      <trkpt lat="44.20572" lon="3.47144">
        <ele>938.2</ele>
        <time>2020-08-25T15:26:31.000Z</time>
      </trkpt>
      <trkpt lat="44.20569" lon="3.47143">
        <ele>937.8</ele>
        <time>2020-08-25T15:26:32.000Z</time>
      </trkpt>
      <trkpt lat="44.20565" lon="3.47142">
        <ele>937.3</ele>
        <time>2020-08-25T15:26:33.000Z</time>
      </trkpt>
      <trkpt lat="44.20562" lon="3.47141">
        <ele>936.8</ele>
        <time>2020-08-25T15:26:35.000Z</time>
      </trkpt>
      <trkpt lat="44.20558" lon="3.47141">
        <ele>936.2</ele>
        <time>2020-08-25T15:26:36.000Z</time>
      </trkpt>
      <trkpt lat="44.2055" lon="3.47139">
        <ele>935.2</ele>
        <time>2020-08-25T15:26:37.000Z</time>
      </trkpt>
      <trkpt lat="44.20542" lon="3.47138">
        <ele>933.9</ele>
        <time>2020-08-25T15:26:39.000Z</time>
      </trkpt>
      <trkpt lat="44.20538" lon="3.47137">
        <ele>933.2</ele>
        <time>2020-08-25T15:26:40.000Z</time>
      </trkpt>
      <trkpt lat="44.20533" lon="3.47137">
        <ele>932</ele>
        <time>2020-08-25T15:26:42.000Z</time>
      </trkpt>
      <trkpt lat="44.20524" lon="3.47141">
        <ele>929.7</ele>
        <time>2020-08-25T15:26:43.000Z</time>
      </trkpt>
      <trkpt lat="44.20518" lon="3.47142">
        <ele>928.5</ele>
        <time>2020-08-25T15:26:44.000Z</time>
      </trkpt>
      <trkpt lat="44.20507" lon="3.4714">
        <ele>926.7</ele>
        <time>2020-08-25T15:26:46.000Z</time>
      </trkpt>
      <trkpt lat="44.20504" lon="3.47139">
        <ele>926.3</ele>
        <time>2020-08-25T15:26:47.000Z</time>
      </trkpt>
      <trkpt lat="44.205" lon="3.47137">
        <ele>925.6</ele>
        <time>2020-08-25T15:26:49.000Z</time>
      </trkpt>
      <trkpt lat="44.20498" lon="3.47139">
        <ele>925.1</ele>
        <time>2020-08-25T15:26:50.000Z</time>
      </trkpt>
      <trkpt lat="44.20495" lon="3.47139">
        <ele>924.7</ele>
        <time>2020-08-25T15:26:51.000Z</time>
      </trkpt>
      <trkpt lat="44.20491" lon="3.47139">
        <ele>923.9</ele>
        <time>2020-08-25T15:26:52.000Z</time>
      </trkpt>
      <trkpt lat="44.20483" lon="3.4714">
        <ele>922.6</ele>
        <time>2020-08-25T15:26:54.000Z</time>
      </trkpt>
      <trkpt lat="44.20477" lon="3.47141">
        <ele>921.6</ele>
        <time>2020-08-25T15:26:55.000Z</time>
      </trkpt>
      <trkpt lat="44.20472" lon="3.47142">
        <ele>920.8</ele>
        <time>2020-08-25T15:26:56.000Z</time>
      </trkpt>
      <trkpt lat="44.20467" lon="3.47143">
        <ele>919.9</ele>
        <time>2020-08-25T15:26:58.000Z</time>
      </trkpt>
      <trkpt lat="44.20463" lon="3.47144">
        <ele>919.1</ele>
        <time>2020-08-25T15:26:59.000Z</time>
      </trkpt>
      <trkpt lat="44.20458" lon="3.47144">
        <ele>918.4</ele>
        <time>2020-08-25T15:27:00.000Z</time>
      </trkpt>
      <trkpt lat="44.20454" lon="3.47144">
        <ele>917.6</ele>
        <time>2020-08-25T15:27:01.000Z</time>
      </trkpt>
      <trkpt lat="44.20447" lon="3.47143">
        <ele>916.3</ele>
        <time>2020-08-25T15:27:02.000Z</time>
      </trkpt>
      <trkpt lat="44.20442" lon="3.4714">
        <ele>915.5</ele>
        <time>2020-08-25T15:27:03.000Z</time>
      </trkpt>
      <trkpt lat="44.20436" lon="3.47138">
        <ele>914.6</ele>
        <time>2020-08-25T15:27:05.000Z</time>
      </trkpt>
      <trkpt lat="44.20433" lon="3.47137">
        <ele>914.1</ele>
        <time>2020-08-25T15:27:06.000Z</time>
      </trkpt>
      <trkpt lat="44.20427" lon="3.47135">
        <ele>913.2</ele>
        <time>2020-08-25T15:27:07.000Z</time>
      </trkpt>
      <trkpt lat="44.20421" lon="3.47133">
        <ele>912.4</ele>
        <time>2020-08-25T15:27:09.000Z</time>
      </trkpt>
      <trkpt lat="44.20416" lon="3.47132">
        <ele>911.8</ele>
        <time>2020-08-25T15:27:10.000Z</time>
      </trkpt>
      <trkpt lat="44.20411" lon="3.47131">
        <ele>911.1</ele>
        <time>2020-08-25T15:27:11.000Z</time>
      </trkpt>
      <trkpt lat="44.20397" lon="3.47128">
        <ele>909</ele>
        <time>2020-08-25T15:27:13.000Z</time>
      </trkpt>
      <trkpt lat="44.20389" lon="3.47126">
        <ele>907.9</ele>
        <time>2020-08-25T15:27:14.000Z</time>
      </trkpt>
      <trkpt lat="44.20375" lon="3.47119">
        <ele>905.5</ele>
        <time>2020-08-25T15:27:16.000Z</time>
      </trkpt>
      <trkpt lat="44.20363" lon="3.4711">
        <ele>903.1</ele>
        <time>2020-08-25T15:27:18.000Z</time>
      </trkpt>
      <trkpt lat="44.20357" lon="3.47104">
        <ele>901.9</ele>
        <time>2020-08-25T15:27:19.000Z</time>
      </trkpt>
      <trkpt lat="44.20348" lon="3.47092">
        <ele>900</ele>
        <time>2020-08-25T15:27:21.000Z</time>
      </trkpt>
      <trkpt lat="44.20341" lon="3.47082">
        <ele>898.4</ele>
        <time>2020-08-25T15:27:23.000Z</time>
      </trkpt>
      <trkpt lat="44.20335" lon="3.47072">
        <ele>897.2</ele>
        <time>2020-08-25T15:27:25.000Z</time>
      </trkpt>
      <trkpt lat="44.2033" lon="3.47065">
        <ele>896.2</ele>
        <time>2020-08-25T15:27:27.000Z</time>
      </trkpt>
      <trkpt lat="44.20328" lon="3.4706">
        <ele>895.5</ele>
        <time>2020-08-25T15:27:28.000Z</time>
      </trkpt>
      <trkpt lat="44.20325" lon="3.47054">
        <ele>894.7</ele>
        <time>2020-08-25T15:27:29.000Z</time>
      </trkpt>
      <trkpt lat="44.20322" lon="3.47049">
        <ele>894</ele>
        <time>2020-08-25T15:27:30.000Z</time>
      </trkpt>
      <trkpt lat="44.20319" lon="3.4704">
        <ele>893.1</ele>
        <time>2020-08-25T15:27:32.000Z</time>
      </trkpt>
      <trkpt lat="44.20318" lon="3.47038">
        <ele>892.9</ele>
        <time>2020-08-25T15:27:33.000Z</time>
      </trkpt>
      <trkpt lat="44.20314" lon="3.47035">
        <ele>892.3</ele>
        <time>2020-08-25T15:27:35.000Z</time>
      </trkpt>
      <trkpt lat="44.20311" lon="3.47034">
        <ele>891.8</ele>
        <time>2020-08-25T15:27:36.000Z</time>
      </trkpt>
      <trkpt lat="44.20307" lon="3.47035">
        <ele>890.9</ele>
        <time>2020-08-25T15:27:38.000Z</time>
      </trkpt>
      <trkpt lat="44.20302" lon="3.47033">
        <ele>889.9</ele>
        <time>2020-08-25T15:27:39.000Z</time>
      </trkpt>
      <trkpt lat="44.20299" lon="3.4703">
        <ele>888.9</ele>
        <time>2020-08-25T15:27:40.000Z</time>
      </trkpt>
      <trkpt lat="44.20295" lon="3.47027">
        <ele>888</ele>
        <time>2020-08-25T15:27:41.000Z</time>
      </trkpt>
      <trkpt lat="44.20288" lon="3.47022">
        <ele>886.7</ele>
        <time>2020-08-25T15:27:43.000Z</time>
      </trkpt>
      <trkpt lat="44.20285" lon="3.4702">
        <ele>886</ele>
        <time>2020-08-25T15:27:44.000Z</time>
      </trkpt>
      <trkpt lat="44.20281" lon="3.47017">
        <ele>885.4</ele>
        <time>2020-08-25T15:27:46.000Z</time>
      </trkpt>
      <trkpt lat="44.20276" lon="3.47015">
        <ele>884.7</ele>
        <time>2020-08-25T15:27:47.000Z</time>
      </trkpt>
      <trkpt lat="44.2027" lon="3.47012">
        <ele>883.9</ele>
        <time>2020-08-25T15:27:49.000Z</time>
      </trkpt>
      <trkpt lat="44.20264" lon="3.47007">
        <ele>883.3</ele>
        <time>2020-08-25T15:27:50.000Z</time>
      </trkpt>
      <trkpt lat="44.20259" lon="3.47004">
        <ele>882.8</ele>
        <time>2020-08-25T15:27:51.000Z</time>
      </trkpt>
      <trkpt lat="44.20249" lon="3.47003">
        <ele>881.8</ele>
        <time>2020-08-25T15:27:53.000Z</time>
      </trkpt>
      <trkpt lat="44.20244" lon="3.47003">
        <ele>881.2</ele>
        <time>2020-08-25T15:27:54.000Z</time>
      </trkpt>
      <trkpt lat="44.20232" lon="3.47004">
        <ele>879.9</ele>
        <time>2020-08-25T15:27:56.000Z</time>
      </trkpt>
      <trkpt lat="44.20225" lon="3.47004">
        <ele>879.3</ele>
        <time>2020-08-25T15:27:57.000Z</time>
      </trkpt>
      <trkpt lat="44.20215" lon="3.47004">
        <ele>878.3</ele>
        <time>2020-08-25T15:27:59.000Z</time>
      </trkpt>
      <trkpt lat="44.20209" lon="3.47004">
        <ele>877.7</ele>
        <time>2020-08-25T15:28:00.000Z</time>
      </trkpt>
      <trkpt lat="44.20202" lon="3.47005">
        <ele>876.6</ele>
        <time>2020-08-25T15:28:02.000Z</time>
      </trkpt>
      <trkpt lat="44.20198" lon="3.47004">
        <ele>876</ele>
        <time>2020-08-25T15:28:03.000Z</time>
      </trkpt>
      <trkpt lat="44.20198" lon="3.47003">
        <ele>875.7</ele>
        <time>2020-08-25T15:28:04.000Z</time>
      </trkpt>
      <trkpt lat="44.20196" lon="3.47002">
        <ele>875.4</ele>
        <time>2020-08-25T15:28:05.000Z</time>
      </trkpt>
      <trkpt lat="44.20197" lon="3.47002">
        <ele>875.3</ele>
        <time>2020-08-25T15:28:07.000Z</time>
      </trkpt>
      <trkpt lat="44.20198" lon="3.47003">
        <ele>875</ele>
        <time>2020-08-25T15:28:09.000Z</time>
      </trkpt>
      <trkpt lat="44.20199" lon="3.47002">
        <ele>874.9</ele>
        <time>2020-08-25T15:28:10.000Z</time>
      </trkpt>
      <trkpt lat="44.20198" lon="3.47">
        <ele>874.6</ele>
        <time>2020-08-25T15:28:11.000Z</time>
      </trkpt>
      <trkpt lat="44.20198" lon="3.47">
        <ele>874.6</ele>
        <time>2020-08-25T15:28:12.000Z</time>
      </trkpt>
      <trkpt lat="44.20198" lon="3.47">
        <ele>874.5</ele>
        <time>2020-08-25T15:28:14.000Z</time>
      </trkpt>
      <trkpt lat="44.20198" lon="3.46999">
        <ele>874.4</ele>
        <time>2020-08-25T15:28:16.000Z</time>
      </trkpt>
      <trkpt lat="44.20198" lon="3.46999">
        <ele>874.3</ele>
        <time>2020-08-25T15:28:17.000Z</time>
      </trkpt>
      <trkpt lat="44.20198" lon="3.46998">
        <ele>874.2</ele>
        <time>2020-08-25T15:28:18.000Z</time>
      </trkpt>
      <trkpt lat="44.20197" lon="3.46997">
        <ele>874</ele>
        <time>2020-08-25T15:28:20.000Z</time>
      </trkpt>
      <trkpt lat="44.20195" lon="3.46997">
        <ele>873.6</ele>
        <time>2020-08-25T15:28:22.000Z</time>
      </trkpt>
      <trkpt lat="44.20194" lon="3.46997">
        <ele>873.5</ele>
        <time>2020-08-25T15:28:23.000Z</time>
      </trkpt>
      <trkpt lat="44.20194" lon="3.46997">
        <ele>873.5</ele>
        <time>2020-08-25T15:28:24.000Z</time>
      </trkpt>
      <trkpt lat="44.20194" lon="3.46997">
        <ele>873.4</ele>
        <time>2020-08-25T15:28:26.000Z</time>
      </trkpt>
      <trkpt lat="44.20195" lon="3.46997">
        <ele>873.4</ele>
        <time>2020-08-25T15:28:28.000Z</time>
      </trkpt>
      <trkpt lat="44.20195" lon="3.46998">
        <ele>873.4</ele>
        <time>2020-08-25T15:28:30.000Z</time>
      </trkpt>
      <trkpt lat="44.20195" lon="3.46998">
        <ele>873.3</ele>
        <time>2020-08-25T15:28:32.000Z</time>
      </trkpt>
      <trkpt lat="44.20195" lon="3.46998">
        <ele>873.3</ele>
        <time>2020-08-25T15:28:34.000Z</time>
      </trkpt>
      <trkpt lat="44.20195" lon="3.46998">
        <ele>873.3</ele>
        <time>2020-08-25T15:28:35.000Z</time>
      </trkpt>
      <trkpt lat="44.20195" lon="3.46998">
        <ele>873.3</ele>
        <time>2020-08-25T15:28:36.000Z</time>
      </trkpt>
      <trkpt lat="44.20195" lon="3.46998">
        <ele>873.2</ele>
        <time>2020-08-25T15:28:37.000Z</time>
      </trkpt>
      <trkpt lat="44.20195" lon="3.46998">
        <ele>873.2</ele>
        <time>2020-08-25T15:28:39.000Z</time>
      </trkpt>
      <trkpt lat="44.20195" lon="3.46998">
        <ele>873.2</ele>
        <time>2020-08-25T15:28:40.000Z</time>
      </trkpt>
      <trkpt lat="44.20195" lon="3.46998">
        <ele>873.1</ele>
        <time>2020-08-25T15:28:42.000Z</time>
      </trkpt>
      <trkpt lat="44.20195" lon="3.46998">
        <ele>873.1</ele>
        <time>2020-08-25T15:28:44.000Z</time>
      </trkpt>
      <trkpt lat="44.20195" lon="3.46998">
        <ele>873.1</ele>
        <time>2020-08-25T15:28:46.000Z</time>
      </trkpt>
      <trkpt lat="44.20195" lon="3.46998">
        <ele>873.1</ele>
        <time>2020-08-25T15:28:47.000Z</time>
      </trkpt>
      <trkpt lat="44.20195" lon="3.46998">
        <ele>873.1</ele>
        <time>2020-08-25T15:28:48.000Z</time>
      </trkpt>
      <trkpt lat="44.20195" lon="3.46998">
        <ele>873.1</ele>
        <time>2020-08-25T15:28:49.000Z</time>
      </trkpt>
      <trkpt lat="44.20195" lon="3.46998">
        <ele>873.1</ele>
        <time>2020-08-25T15:28:51.000Z</time>
      </trkpt>
      <trkpt lat="44.20195" lon="3.46998">
        <ele>873.1</ele>
        <time>2020-08-25T15:28:52.000Z</time>
      </trkpt>
      <trkpt lat="44.20195" lon="3.46998">
        <ele>873.1</ele>
        <time>2020-08-25T15:28:54.000Z</time>
      </trkpt>
      <trkpt lat="44.20195" lon="3.46998">
        <ele>873.1</ele>
        <time>2020-08-25T15:28:56.000Z</time>
      </trkpt>
      <trkpt lat="44.20195" lon="3.46998">
        <ele>873.1</ele>
        <time>2020-08-25T15:28:58.000Z</time>
      </trkpt>
      <trkpt lat="44.20195" lon="3.46998">
        <ele>873.1</ele>
        <time>2020-08-25T15:29:00.000Z</time>
      </trkpt>
      <trkpt lat="44.20195" lon="3.46998">
        <ele>873.1</ele>
        <time>2020-08-25T15:29:01.000Z</time>
      </trkpt>
      <trkpt lat="44.20195" lon="3.46998">
        <ele>873.1</ele>
        <time>2020-08-25T15:29:03.000Z</time>
      </trkpt>
      <trkpt lat="44.20195" lon="3.46998">
        <ele>873.1</ele>
        <time>2020-08-25T15:29:04.000Z</time>
      </trkpt>
      <trkpt lat="44.20195" lon="3.46998">
        <ele>873.1</ele>
        <time>2020-08-25T15:29:05.000Z</time>
      </trkpt>
      <trkpt lat="44.20195" lon="3.46998">
        <ele>873.1</ele>
        <time>2020-08-25T15:29:06.000Z</time>
      </trkpt>
      <trkpt lat="44.20195" lon="3.46998">
        <ele>873.1</ele>
        <time>2020-08-25T15:29:08.000Z</time>
      </trkpt>
      <trkpt lat="44.20195" lon="3.46998">
        <ele>873.1</ele>
        <time>2020-08-25T15:29:09.000Z</time>
      </trkpt>
      <trkpt lat="44.20195" lon="3.46998">
        <ele>873.1</ele>
        <time>2020-08-25T15:29:11.000Z</time>
      </trkpt>
      <trkpt lat="44.20195" lon="3.46999">
        <ele>873</ele>
        <time>2020-08-25T15:29:12.000Z</time>
      </trkpt>
      <trkpt lat="44.20194" lon="3.46999">
        <ele>872.8</ele>
        <time>2020-08-25T15:29:13.000Z</time>
      </trkpt>
      <trkpt lat="44.20194" lon="3.47">
        <ele>872.7</ele>
        <time>2020-08-25T15:29:15.000Z</time>
      </trkpt>
      <trkpt lat="44.20194" lon="3.47">
        <ele>872.7</ele>
        <time>2020-08-25T15:29:17.000Z</time>
      </trkpt>
      <trkpt lat="44.20194" lon="3.47">
        <ele>872.7</ele>
        <time>2020-08-25T15:29:19.000Z</time>
      </trkpt>
      <trkpt lat="44.20194" lon="3.47">
        <ele>872.7</ele>
        <time>2020-08-25T15:29:20.000Z</time>
      </trkpt>
      <trkpt lat="44.20194" lon="3.47">
        <ele>872.7</ele>
        <time>2020-08-25T15:29:22.000Z</time>
      </trkpt>
      <trkpt lat="44.20192" lon="3.47">
        <ele>872.5</ele>
        <time>2020-08-25T15:32:18.000Z</time>
      </trkpt>
      <trkpt lat="44.20186" lon="3.46999">
        <ele>871.7</ele>
        <time>2020-08-25T15:32:20.000Z</time>
      </trkpt>
      <trkpt lat="44.20177" lon="3.47">
        <ele>870.8</ele>
        <time>2020-08-25T15:32:22.000Z</time>
      </trkpt>
      <trkpt lat="44.20166" lon="3.47002">
        <ele>869.8</ele>
        <time>2020-08-25T15:32:24.000Z</time>
      </trkpt>
      <trkpt lat="44.20156" lon="3.47007">
        <ele>868.3</ele>
        <time>2020-08-25T15:32:26.000Z</time>
      </trkpt>
      <trkpt lat="44.20146" lon="3.47003">
        <ele>866.8</ele>
        <time>2020-08-25T15:32:28.000Z</time>
      </trkpt>
      <trkpt lat="44.20141" lon="3.47001">
        <ele>866.2</ele>
        <time>2020-08-25T15:32:29.000Z</time>
      </trkpt>
      <trkpt lat="44.20132" lon="3.46995">
        <ele>865</ele>
        <time>2020-08-25T15:32:31.000Z</time>
      </trkpt>
      <trkpt lat="44.20129" lon="3.46991">
        <ele>864.4</ele>
        <time>2020-08-25T15:32:32.000Z</time>
      </trkpt>
      <trkpt lat="44.20126" lon="3.4698">
        <ele>863</ele>
        <time>2020-08-25T15:32:34.000Z</time>
      </trkpt>
      <trkpt lat="44.20126" lon="3.46973">
        <ele>862</ele>
        <time>2020-08-25T15:32:35.000Z</time>
      </trkpt>
      <trkpt lat="44.20133" lon="3.46962">
        <ele>860.3</ele>
        <time>2020-08-25T15:32:37.000Z</time>
      </trkpt>
      <trkpt lat="44.20142" lon="3.46957">
        <ele>859</ele>
        <time>2020-08-25T15:32:39.000Z</time>
      </trkpt>
      <trkpt lat="44.20153" lon="3.4695">
        <ele>857.6</ele>
        <time>2020-08-25T15:32:41.000Z</time>
      </trkpt>
      <trkpt lat="44.20167" lon="3.46942">
        <ele>856.4</ele>
        <time>2020-08-25T15:32:43.000Z</time>
      </trkpt>
      <trkpt lat="44.20176" lon="3.46932">
        <ele>855.2</ele>
        <time>2020-08-25T15:32:45.000Z</time>
      </trkpt>
      <trkpt lat="44.20178" lon="3.46926">
        <ele>854.6</ele>
        <time>2020-08-25T15:32:46.000Z</time>
      </trkpt>
      <trkpt lat="44.20175" lon="3.46916">
        <ele>853.6</ele>
        <time>2020-08-25T15:32:48.000Z</time>
      </trkpt>
      <trkpt lat="44.20168" lon="3.4691">
        <ele>852.5</ele>
        <time>2020-08-25T15:32:50.000Z</time>
      </trkpt>
      <trkpt lat="44.20157" lon="3.46904">
        <ele>851.2</ele>
        <time>2020-08-25T15:32:52.000Z</time>
      </trkpt>
      <trkpt lat="44.20148" lon="3.46897">
        <ele>850.2</ele>
        <time>2020-08-25T15:32:54.000Z</time>
      </trkpt>
      <trkpt lat="44.20141" lon="3.46888">
        <ele>849.3</ele>
        <time>2020-08-25T15:32:56.000Z</time>
      </trkpt>
      <trkpt lat="44.20138" lon="3.46883">
        <ele>848.7</ele>
        <time>2020-08-25T15:32:57.000Z</time>
      </trkpt>
      <trkpt lat="44.20131" lon="3.46874">
        <ele>847.2</ele>
        <time>2020-08-25T15:32:59.000Z</time>
      </trkpt>
      <trkpt lat="44.20128" lon="3.46868">
        <ele>846.4</ele>
        <time>2020-08-25T15:33:00.000Z</time>
      </trkpt>
      <trkpt lat="44.20121" lon="3.46858">
        <ele>844.9</ele>
        <time>2020-08-25T15:33:02.000Z</time>
      </trkpt>
      <trkpt lat="44.20117" lon="3.46853">
        <ele>844.3</ele>
        <time>2020-08-25T15:33:03.000Z</time>
      </trkpt>
      <trkpt lat="44.20112" lon="3.46848">
        <ele>843.9</ele>
        <time>2020-08-25T15:33:04.000Z</time>
      </trkpt>
      <trkpt lat="44.20103" lon="3.4684">
        <ele>843</ele>
        <time>2020-08-25T15:33:06.000Z</time>
      </trkpt>
      <trkpt lat="44.20093" lon="3.46834">
        <ele>841.9</ele>
        <time>2020-08-25T15:33:08.000Z</time>
      </trkpt>
      <trkpt lat="44.20089" lon="3.46831">
        <ele>841.2</ele>
        <time>2020-08-25T15:33:09.000Z</time>
      </trkpt>
      <trkpt lat="44.20085" lon="3.46827">
        <ele>840.6</ele>
        <time>2020-08-25T15:33:10.000Z</time>
      </trkpt>
      <trkpt lat="44.20082" lon="3.46822">
        <ele>839.9</ele>
        <time>2020-08-25T15:33:11.000Z</time>
      </trkpt>
      <trkpt lat="44.20079" lon="3.46811">
        <ele>839</ele>
        <time>2020-08-25T15:33:13.000Z</time>
      </trkpt>
      <trkpt lat="44.20074" lon="3.46798">
        <ele>838</ele>
        <time>2020-08-25T15:33:15.000Z</time>
      </trkpt>
      <trkpt lat="44.2007" lon="3.46784">
        <ele>836.8</ele>
        <time>2020-08-25T15:33:17.000Z</time>
      </trkpt>
      <trkpt lat="44.20065" lon="3.46769">
        <ele>835.6</ele>
        <time>2020-08-25T15:33:19.000Z</time>
      </trkpt>
      <trkpt lat="44.20062" lon="3.46755">
        <ele>834.6</ele>
        <time>2020-08-25T15:33:21.000Z</time>
      </trkpt>
      <trkpt lat="44.2006" lon="3.46744">
        <ele>834.1</ele>
        <time>2020-08-25T15:33:23.000Z</time>
      </trkpt>
      <trkpt lat="44.20058" lon="3.46739">
        <ele>833.8</ele>
        <time>2020-08-25T15:33:24.000Z</time>
      </trkpt>
      <trkpt lat="44.20058" lon="3.46735">
        <ele>833.5</ele>
        <time>2020-08-25T15:33:25.000Z</time>
      </trkpt>
      <trkpt lat="44.20055" lon="3.4673">
        <ele>833</ele>
        <time>2020-08-25T15:33:27.000Z</time>
      </trkpt>
      <trkpt lat="44.20051" lon="3.46727">
        <ele>832.5</ele>
        <time>2020-08-25T15:33:28.000Z</time>
      </trkpt>
      <trkpt lat="44.20045" lon="3.46721">
        <ele>831.6</ele>
        <time>2020-08-25T15:33:29.000Z</time>
      </trkpt>
      <trkpt lat="44.20037" lon="3.46712">
        <ele>829.9</ele>
        <time>2020-08-25T15:33:31.000Z</time>
      </trkpt>
      <trkpt lat="44.20032" lon="3.46707">
        <ele>829</ele>
        <time>2020-08-25T15:33:32.000Z</time>
      </trkpt>
      <trkpt lat="44.20024" lon="3.46699">
        <ele>827.6</ele>
        <time>2020-08-25T15:33:34.000Z</time>
      </trkpt>
      <trkpt lat="44.2002" lon="3.46694">
        <ele>827.1</ele>
        <time>2020-08-25T15:33:35.000Z</time>
      </trkpt>
      <trkpt lat="44.20012" lon="3.46683">
        <ele>825.7</ele>
        <time>2020-08-25T15:33:37.000Z</time>
      </trkpt>
      <trkpt lat="44.20004" lon="3.46667">
        <ele>824.5</ele>
        <time>2020-08-25T15:33:39.000Z</time>
      </trkpt>
      <trkpt lat="44.19997" lon="3.46649">
        <ele>823.2</ele>
        <time>2020-08-25T15:33:41.000Z</time>
      </trkpt>
      <trkpt lat="44.19994" lon="3.46641">
        <ele>822.4</ele>
        <time>2020-08-25T15:33:42.000Z</time>
      </trkpt>
      <trkpt lat="44.19987" lon="3.46626">
        <ele>822</ele>
        <time>2020-08-25T15:33:44.000Z</time>
      </trkpt>
      <trkpt lat="44.19981" lon="3.46611">
        <ele>820.7</ele>
        <time>2020-08-25T15:33:46.000Z</time>
      </trkpt>
      <trkpt lat="44.19973" lon="3.46595">
        <ele>819.1</ele>
        <time>2020-08-25T15:33:48.000Z</time>
      </trkpt>
      <trkpt lat="44.19969" lon="3.46586">
        <ele>818.2</ele>
        <time>2020-08-25T15:33:49.000Z</time>
      </trkpt>
      <trkpt lat="44.19962" lon="3.4657">
        <ele>816</ele>
        <time>2020-08-25T15:33:51.000Z</time>
      </trkpt>
      <trkpt lat="44.19956" lon="3.46557">
        <ele>814.4</ele>
        <time>2020-08-25T15:33:53.000Z</time>
      </trkpt>
      <trkpt lat="44.19952" lon="3.46547">
        <ele>813</ele>
        <time>2020-08-25T15:33:55.000Z</time>
      </trkpt>
      <trkpt lat="44.19946" lon="3.46538">
        <ele>811.6</ele>
        <time>2020-08-25T15:33:57.000Z</time>
      </trkpt>
      <trkpt lat="44.19939" lon="3.46528">
        <ele>810</ele>
        <time>2020-08-25T15:33:59.000Z</time>
      </trkpt>
      <trkpt lat="44.19934" lon="3.46514">
        <ele>808.1</ele>
        <time>2020-08-25T15:34:01.000Z</time>
      </trkpt>
      <trkpt lat="44.1993" lon="3.46501">
        <ele>806.5</ele>
        <time>2020-08-25T15:34:03.000Z</time>
      </trkpt>
      <trkpt lat="44.19928" lon="3.46495">
        <ele>805.6</ele>
        <time>2020-08-25T15:34:04.000Z</time>
      </trkpt>
      <trkpt lat="44.19926" lon="3.46488">
        <ele>804.7</ele>
        <time>2020-08-25T15:34:06.000Z</time>
      </trkpt>
      <trkpt lat="44.19925" lon="3.46484">
        <ele>804.3</ele>
        <time>2020-08-25T15:34:08.000Z</time>
      </trkpt>
      <trkpt lat="44.19925" lon="3.46484">
        <ele>804.3</ele>
        <time>2020-08-25T15:34:10.000Z</time>
      </trkpt>
      <trkpt lat="44.19925" lon="3.46484">
        <ele>804.3</ele>
        <time>2020-08-25T15:34:11.000Z</time>
      </trkpt>
      <trkpt lat="44.19925" lon="3.46483">
        <ele>804.2</ele>
        <time>2020-08-25T15:34:13.000Z</time>
      </trkpt>
      <trkpt lat="44.19925" lon="3.4648">
        <ele>803.9</ele>
        <time>2020-08-25T15:34:14.000Z</time>
      </trkpt>
      <trkpt lat="44.19924" lon="3.46472">
        <ele>803.1</ele>
        <time>2020-08-25T15:34:16.000Z</time>
      </trkpt>
      <trkpt lat="44.19922" lon="3.46468">
        <ele>802.5</ele>
        <time>2020-08-25T15:34:17.000Z</time>
      </trkpt>
      <trkpt lat="44.19917" lon="3.46458">
        <ele>801.4</ele>
        <time>2020-08-25T15:34:18.000Z</time>
      </trkpt>
      <trkpt lat="44.19914" lon="3.46453">
        <ele>800.8</ele>
        <time>2020-08-25T15:34:19.000Z</time>
      </trkpt>
      <trkpt lat="44.19912" lon="3.46446">
        <ele>800.2</ele>
        <time>2020-08-25T15:34:21.000Z</time>
      </trkpt>
      <trkpt lat="44.19908" lon="3.46441">
        <ele>799.6</ele>
        <time>2020-08-25T15:34:22.000Z</time>
      </trkpt>
      <trkpt lat="44.19899" lon="3.46427">
        <ele>797.9</ele>
        <time>2020-08-25T15:34:24.000Z</time>
      </trkpt>
      <trkpt lat="44.19895" lon="3.4642">
        <ele>797.2</ele>
        <time>2020-08-25T15:34:25.000Z</time>
      </trkpt>
      <trkpt lat="44.19886" lon="3.46404">
        <ele>795.7</ele>
        <time>2020-08-25T15:34:27.000Z</time>
      </trkpt>
      <trkpt lat="44.19879" lon="3.46384">
        <ele>794.3</ele>
        <time>2020-08-25T15:34:29.000Z</time>
      </trkpt>
      <trkpt lat="44.19871" lon="3.46362">
        <ele>792.4</ele>
        <time>2020-08-25T15:34:31.000Z</time>
      </trkpt>
      <trkpt lat="44.19864" lon="3.46341">
        <ele>790.9</ele>
        <time>2020-08-25T15:34:33.000Z</time>
      </trkpt>
      <trkpt lat="44.19857" lon="3.46323">
        <ele>789.7</ele>
        <time>2020-08-25T15:34:35.000Z</time>
      </trkpt>
      <trkpt lat="44.19854" lon="3.46314">
        <ele>789</ele>
        <time>2020-08-25T15:34:36.000Z</time>
      </trkpt>
      <trkpt lat="44.19848" lon="3.46296">
        <ele>787.4</ele>
        <time>2020-08-25T15:34:38.000Z</time>
      </trkpt>
      <trkpt lat="44.19844" lon="3.46288">
        <ele>786.5</ele>
        <time>2020-08-25T15:34:39.000Z</time>
      </trkpt>
      <trkpt lat="44.19839" lon="3.46272">
        <ele>785.2</ele>
        <time>2020-08-25T15:34:41.000Z</time>
      </trkpt>
      <trkpt lat="44.19836" lon="3.46264">
        <ele>784.5</ele>
        <time>2020-08-25T15:34:42.000Z</time>
      </trkpt>
      <trkpt lat="44.19833" lon="3.46256">
        <ele>783.6</ele>
        <time>2020-08-25T15:34:43.000Z</time>
      </trkpt>
      <trkpt lat="44.19825" lon="3.46237">
        <ele>781.6</ele>
        <time>2020-08-25T15:34:45.000Z</time>
      </trkpt>
      <trkpt lat="44.19821" lon="3.46228">
        <ele>780.6</ele>
        <time>2020-08-25T15:34:46.000Z</time>
      </trkpt>
      <trkpt lat="44.19814" lon="3.46212">
        <ele>779.1</ele>
        <time>2020-08-25T15:34:48.000Z</time>
      </trkpt>
      <trkpt lat="44.19811" lon="3.46205">
        <ele>778.6</ele>
        <time>2020-08-25T15:34:49.000Z</time>
      </trkpt>
      <trkpt lat="44.19805" lon="3.46193">
        <ele>777.6</ele>
        <time>2020-08-25T15:34:51.000Z</time>
      </trkpt>
      <trkpt lat="44.198" lon="3.46179">
        <ele>776.4</ele>
        <time>2020-08-25T15:34:53.000Z</time>
      </trkpt>
      <trkpt lat="44.19797" lon="3.46172">
        <ele>775.6</ele>
        <time>2020-08-25T15:34:54.000Z</time>
      </trkpt>
      <trkpt lat="44.19791" lon="3.46159">
        <ele>773.7</ele>
        <time>2020-08-25T15:34:56.000Z</time>
      </trkpt>
      <trkpt lat="44.19788" lon="3.46153">
        <ele>772.8</ele>
        <time>2020-08-25T15:34:57.000Z</time>
      </trkpt>
      <trkpt lat="44.19784" lon="3.46141">
        <ele>772</ele>
        <time>2020-08-25T15:34:59.000Z</time>
      </trkpt>
      <trkpt lat="44.19782" lon="3.46135">
        <ele>772</ele>
        <time>2020-08-25T15:35:00.000Z</time>
      </trkpt>
      <trkpt lat="44.19778" lon="3.46125">
        <ele>772.1</ele>
        <time>2020-08-25T15:35:02.000Z</time>
      </trkpt>
      <trkpt lat="44.19776" lon="3.4612">
        <ele>772.1</ele>
        <time>2020-08-25T15:35:03.000Z</time>
      </trkpt>
      <trkpt lat="44.19772" lon="3.4611">
        <ele>772.1</ele>
        <time>2020-08-25T15:35:05.000Z</time>
      </trkpt>
      <trkpt lat="44.19769" lon="3.46105">
        <ele>772.1</ele>
        <time>2020-08-25T15:35:06.000Z</time>
      </trkpt>
      <trkpt lat="44.19766" lon="3.46101">
        <ele>772.2</ele>
        <time>2020-08-25T15:35:07.000Z</time>
      </trkpt>
      <trkpt lat="44.19763" lon="3.46098">
        <ele>772.2</ele>
        <time>2020-08-25T15:35:08.000Z</time>
      </trkpt>
      <trkpt lat="44.1976" lon="3.46095">
        <ele>772.1</ele>
        <time>2020-08-25T15:35:10.000Z</time>
      </trkpt>
      <trkpt lat="44.19758" lon="3.46091">
        <ele>772.1</ele>
        <time>2020-08-25T15:35:11.000Z</time>
      </trkpt>
      <trkpt lat="44.19758" lon="3.46088">
        <ele>772</ele>
        <time>2020-08-25T15:35:12.000Z</time>
      </trkpt>
      <trkpt lat="44.19758" lon="3.46087">
        <ele>772</ele>
        <time>2020-08-25T15:35:13.000Z</time>
      </trkpt>
      <trkpt lat="44.19759" lon="3.46088">
        <ele>772</ele>
        <time>2020-08-25T15:35:15.000Z</time>
      </trkpt>
      <trkpt lat="44.19759" lon="3.46089">
        <ele>772</ele>
        <time>2020-08-25T15:35:16.000Z</time>
      </trkpt>
      <trkpt lat="44.19759" lon="3.46089">
        <ele>772</ele>
        <time>2020-08-25T15:35:18.000Z</time>
      </trkpt>
      <trkpt lat="44.19759" lon="3.46089">
        <ele>772</ele>
        <time>2020-08-25T15:35:20.000Z</time>
      </trkpt>
      <trkpt lat="44.19759" lon="3.46089">
        <ele>772</ele>
        <time>2020-08-25T15:35:22.000Z</time>
      </trkpt>
      <trkpt lat="44.19762" lon="3.46083">
        <ele>771.9</ele>
        <time>2020-08-25T15:36:17.000Z</time>
      </trkpt>
      <trkpt lat="44.19763" lon="3.46076">
        <ele>771.7</ele>
        <time>2020-08-25T15:36:19.000Z</time>
      </trkpt>
      <trkpt lat="44.19762" lon="3.46072">
        <ele>771.7</ele>
        <time>2020-08-25T15:36:20.000Z</time>
      </trkpt>
      <trkpt lat="44.19761" lon="3.46068">
        <ele>771.6</ele>
        <time>2020-08-25T15:36:21.000Z</time>
      </trkpt>
      <trkpt lat="44.19764" lon="3.46067">
        <ele>771.5</ele>
        <time>2020-08-25T15:36:23.000Z</time>
      </trkpt>
      <trkpt lat="44.19766" lon="3.46066">
        <ele>771.5</ele>
        <time>2020-08-25T15:36:24.000Z</time>
      </trkpt>
      <trkpt lat="44.19766" lon="3.46064">
        <ele>771.5</ele>
        <time>2020-08-25T15:36:25.000Z</time>
      </trkpt>
      <trkpt lat="44.19765" lon="3.46058">
        <ele>771.3</ele>
        <time>2020-08-25T15:36:27.000Z</time>
      </trkpt>
      <trkpt lat="44.19763" lon="3.46053">
        <ele>771.2</ele>
        <time>2020-08-25T15:36:28.000Z</time>
      </trkpt>
      <trkpt lat="44.19757" lon="3.46035">
        <ele>770.8</ele>
        <time>2020-08-25T15:36:29.000Z</time>
      </trkpt>
      <trkpt lat="44.19755" lon="3.46022">
        <ele>770.5</ele>
        <time>2020-08-25T15:36:30.000Z</time>
      </trkpt>
      <trkpt lat="44.19752" lon="3.46003">
        <ele>770</ele>
        <time>2020-08-25T15:36:32.000Z</time>
      </trkpt>
      <trkpt lat="44.1975" lon="3.45986">
        <ele>769.6</ele>
        <time>2020-08-25T15:36:34.000Z</time>
      </trkpt>
      <trkpt lat="44.19749" lon="3.45978">
        <ele>769.5</ele>
        <time>2020-08-25T15:36:35.000Z</time>
      </trkpt>
      <trkpt lat="44.19747" lon="3.45962">
        <ele>769.3</ele>
        <time>2020-08-25T15:36:37.000Z</time>
      </trkpt>
      <trkpt lat="44.19746" lon="3.45954">
        <ele>769.1</ele>
        <time>2020-08-25T15:36:38.000Z</time>
      </trkpt>
      <trkpt lat="44.19744" lon="3.45946">
        <ele>769</ele>
        <time>2020-08-25T15:36:39.000Z</time>
      </trkpt>
      <trkpt lat="44.19742" lon="3.45931">
        <ele>768.8</ele>
        <time>2020-08-25T15:36:41.000Z</time>
      </trkpt>
      <trkpt lat="44.1974" lon="3.45924">
        <ele>768.7</ele>
        <time>2020-08-25T15:36:42.000Z</time>
      </trkpt>
      <trkpt lat="44.19739" lon="3.45916">
        <ele>768.6</ele>
        <time>2020-08-25T15:36:43.000Z</time>
      </trkpt>
      <trkpt lat="44.19736" lon="3.45909">
        <ele>768.5</ele>
        <time>2020-08-25T15:36:44.000Z</time>
      </trkpt>
      <trkpt lat="44.19729" lon="3.45896">
        <ele>768.4</ele>
        <time>2020-08-25T15:36:46.000Z</time>
      </trkpt>
      <trkpt lat="44.19725" lon="3.45889">
        <ele>768.4</ele>
        <time>2020-08-25T15:36:47.000Z</time>
      </trkpt>
      <trkpt lat="44.19717" lon="3.45875">
        <ele>768.2</ele>
        <time>2020-08-25T15:36:49.000Z</time>
      </trkpt>
      <trkpt lat="44.19712" lon="3.45866">
        <ele>768.1</ele>
        <time>2020-08-25T15:36:50.000Z</time>
      </trkpt>
      <trkpt lat="44.19708" lon="3.45858">
        <ele>768.1</ele>
        <time>2020-08-25T15:36:51.000Z</time>
      </trkpt>
      <trkpt lat="44.19703" lon="3.4585">
        <ele>768.1</ele>
        <time>2020-08-25T15:36:52.000Z</time>
      </trkpt>
      <trkpt lat="44.19695" lon="3.45833">
        <ele>768</ele>
        <time>2020-08-25T15:36:54.000Z</time>
      </trkpt>
      <trkpt lat="44.19688" lon="3.45815">
        <ele>767.9</ele>
        <time>2020-08-25T15:36:56.000Z</time>
      </trkpt>
      <trkpt lat="44.19686" lon="3.45805">
        <ele>767.9</ele>
        <time>2020-08-25T15:36:57.000Z</time>
      </trkpt>
      <trkpt lat="44.19681" lon="3.45786">
        <ele>767.9</ele>
        <time>2020-08-25T15:36:59.000Z</time>
      </trkpt>
      <trkpt lat="44.19679" lon="3.45777">
        <ele>767.9</ele>
        <time>2020-08-25T15:37:00.000Z</time>
      </trkpt>
      <trkpt lat="44.19677" lon="3.45768">
        <ele>768</ele>
        <time>2020-08-25T15:37:01.000Z</time>
      </trkpt>
      <trkpt lat="44.19675" lon="3.4575">
        <ele>768.1</ele>
        <time>2020-08-25T15:37:03.000Z</time>
      </trkpt>
      <trkpt lat="44.19674" lon="3.45732">
        <ele>768.1</ele>
        <time>2020-08-25T15:37:05.000Z</time>
      </trkpt>
      <trkpt lat="44.19674" lon="3.45723">
        <ele>768.1</ele>
        <time>2020-08-25T15:37:06.000Z</time>
      </trkpt>
      <trkpt lat="44.19674" lon="3.45714">
        <ele>768.2</ele>
        <time>2020-08-25T15:37:07.000Z</time>
      </trkpt>
      <trkpt lat="44.19674" lon="3.45696">
        <ele>768.2</ele>
        <time>2020-08-25T15:37:09.000Z</time>
      </trkpt>
      <trkpt lat="44.19675" lon="3.45679">
        <ele>768.2</ele>
        <time>2020-08-25T15:37:11.000Z</time>
      </trkpt>
      <trkpt lat="44.19677" lon="3.45662">
        <ele>768.4</ele>
        <time>2020-08-25T15:37:13.000Z</time>
      </trkpt>
      <trkpt lat="44.19677" lon="3.45653">
        <ele>768.5</ele>
        <time>2020-08-25T15:37:14.000Z</time>
      </trkpt>
      <trkpt lat="44.19679" lon="3.45645">
        <ele>768.5</ele>
        <time>2020-08-25T15:37:15.000Z</time>
      </trkpt>
      <trkpt lat="44.19681" lon="3.45629">
        <ele>768.6</ele>
        <time>2020-08-25T15:37:17.000Z</time>
      </trkpt>
      <trkpt lat="44.19682" lon="3.4562">
        <ele>768.7</ele>
        <time>2020-08-25T15:37:18.000Z</time>
      </trkpt>
      <trkpt lat="44.19685" lon="3.45605">
        <ele>768.7</ele>
        <time>2020-08-25T15:37:20.000Z</time>
      </trkpt>
      <trkpt lat="44.19688" lon="3.4559">
        <ele>768.8</ele>
        <time>2020-08-25T15:37:22.000Z</time>
      </trkpt>
      <trkpt lat="44.19691" lon="3.45573">
        <ele>768.8</ele>
        <time>2020-08-25T15:37:24.000Z</time>
      </trkpt>
      <trkpt lat="44.19692" lon="3.45564">
        <ele>768.8</ele>
        <time>2020-08-25T15:37:25.000Z</time>
      </trkpt>
      <trkpt lat="44.19695" lon="3.45547">
        <ele>768.8</ele>
        <time>2020-08-25T15:37:27.000Z</time>
      </trkpt>
      <trkpt lat="44.19697" lon="3.45539">
        <ele>768.8</ele>
        <time>2020-08-25T15:37:28.000Z</time>
      </trkpt>
      <trkpt lat="44.19699" lon="3.4553">
        <ele>768.8</ele>
        <time>2020-08-25T15:37:29.000Z</time>
      </trkpt>
      <trkpt lat="44.19701" lon="3.45523">
        <ele>768.8</ele>
        <time>2020-08-25T15:37:30.000Z</time>
      </trkpt>
      <trkpt lat="44.19706" lon="3.45508">
        <ele>768.8</ele>
        <time>2020-08-25T15:37:32.000Z</time>
      </trkpt>
      <trkpt lat="44.19709" lon="3.45501">
        <ele>768.7</ele>
        <time>2020-08-25T15:37:33.000Z</time>
      </trkpt>
      <trkpt lat="44.19712" lon="3.45494">
        <ele>768.6</ele>
        <time>2020-08-25T15:37:34.000Z</time>
      </trkpt>
      <trkpt lat="44.19717" lon="3.45481">
        <ele>768.3</ele>
        <time>2020-08-25T15:37:36.000Z</time>
      </trkpt>
      <trkpt lat="44.19719" lon="3.45473">
        <ele>768.2</ele>
        <time>2020-08-25T15:37:37.000Z</time>
      </trkpt>
      <trkpt lat="44.19722" lon="3.45466">
        <ele>768</ele>
        <time>2020-08-25T15:37:38.000Z</time>
      </trkpt>
      <trkpt lat="44.19726" lon="3.45448">
        <ele>767.5</ele>
        <time>2020-08-25T15:37:40.000Z</time>
      </trkpt>
      <trkpt lat="44.19728" lon="3.45439">
        <ele>767.2</ele>
        <time>2020-08-25T15:37:41.000Z</time>
      </trkpt>
      <trkpt lat="44.19731" lon="3.45419">
        <ele>766.7</ele>
        <time>2020-08-25T15:37:43.000Z</time>
      </trkpt>
      <trkpt lat="44.19732" lon="3.45409">
        <ele>766.4</ele>
        <time>2020-08-25T15:37:44.000Z</time>
      </trkpt>
      <trkpt lat="44.19737" lon="3.45389">
        <ele>765.7</ele>
        <time>2020-08-25T15:37:46.000Z</time>
      </trkpt>
      <trkpt lat="44.19744" lon="3.45369">
        <ele>764.9</ele>
        <time>2020-08-25T15:37:48.000Z</time>
      </trkpt>
      <trkpt lat="44.19748" lon="3.45359">
        <ele>764.6</ele>
        <time>2020-08-25T15:37:49.000Z</time>
      </trkpt>
      <trkpt lat="44.19751" lon="3.45349">
        <ele>764.2</ele>
        <time>2020-08-25T15:37:50.000Z</time>
      </trkpt>
      <trkpt lat="44.19756" lon="3.45327">
        <ele>763.5</ele>
        <time>2020-08-25T15:37:52.000Z</time>
      </trkpt>
      <trkpt lat="44.19759" lon="3.45303">
        <ele>762.7</ele>
        <time>2020-08-25T15:37:54.000Z</time>
      </trkpt>
      <trkpt lat="44.19761" lon="3.45291">
        <ele>762.3</ele>
        <time>2020-08-25T15:37:55.000Z</time>
      </trkpt>
      <trkpt lat="44.19764" lon="3.45268">
        <ele>761.6</ele>
        <time>2020-08-25T15:37:57.000Z</time>
      </trkpt>
      <trkpt lat="44.19766" lon="3.45256">
        <ele>761.2</ele>
        <time>2020-08-25T15:37:58.000Z</time>
      </trkpt>
      <trkpt lat="44.19769" lon="3.45233">
        <ele>760.5</ele>
        <time>2020-08-25T15:38:00.000Z</time>
      </trkpt>
      <trkpt lat="44.19773" lon="3.4521">
        <ele>759.9</ele>
        <time>2020-08-25T15:38:02.000Z</time>
      </trkpt>
      <trkpt lat="44.19775" lon="3.45198">
        <ele>759.6</ele>
        <time>2020-08-25T15:38:03.000Z</time>
      </trkpt>
      <trkpt lat="44.1978" lon="3.45176">
        <ele>759.2</ele>
        <time>2020-08-25T15:38:05.000Z</time>
      </trkpt>
      <trkpt lat="44.19782" lon="3.45165">
        <ele>759.1</ele>
        <time>2020-08-25T15:38:06.000Z</time>
      </trkpt>
      <trkpt lat="44.19787" lon="3.45143">
        <ele>758.9</ele>
        <time>2020-08-25T15:38:08.000Z</time>
      </trkpt>
      <trkpt lat="44.19789" lon="3.4512">
        <ele>758.7</ele>
        <time>2020-08-25T15:38:10.000Z</time>
      </trkpt>
      <trkpt lat="44.19787" lon="3.45097">
        <ele>758.3</ele>
        <time>2020-08-25T15:38:12.000Z</time>
      </trkpt>
      <trkpt lat="44.19784" lon="3.45073">
        <ele>757.9</ele>
        <time>2020-08-25T15:38:14.000Z</time>
      </trkpt>
      <trkpt lat="44.19781" lon="3.45061">
        <ele>757.7</ele>
        <time>2020-08-25T15:38:15.000Z</time>
      </trkpt>
      <trkpt lat="44.19775" lon="3.45039">
        <ele>757.4</ele>
        <time>2020-08-25T15:38:17.000Z</time>
      </trkpt>
      <trkpt lat="44.1977" lon="3.45018">
        <ele>757.1</ele>
        <time>2020-08-25T15:38:19.000Z</time>
      </trkpt>
      <trkpt lat="44.19768" lon="3.45006">
        <ele>757</ele>
        <time>2020-08-25T15:38:20.000Z</time>
      </trkpt>
      <trkpt lat="44.19767" lon="3.44995">
        <ele>756.9</ele>
        <time>2020-08-25T15:38:21.000Z</time>
      </trkpt>
      <trkpt lat="44.19767" lon="3.44983">
        <ele>756.9</ele>
        <time>2020-08-25T15:38:22.000Z</time>
      </trkpt>
      <trkpt lat="44.1977" lon="3.44961">
        <ele>756.7</ele>
        <time>2020-08-25T15:38:24.000Z</time>
      </trkpt>
      <trkpt lat="44.19772" lon="3.4495">
        <ele>756.7</ele>
        <time>2020-08-25T15:38:25.000Z</time>
      </trkpt>
      <trkpt lat="44.19776" lon="3.44931">
        <ele>756.6</ele>
        <time>2020-08-25T15:38:27.000Z</time>
      </trkpt>
      <trkpt lat="44.19782" lon="3.4491">
        <ele>756.6</ele>
        <time>2020-08-25T15:38:29.000Z</time>
      </trkpt>
      <trkpt lat="44.19787" lon="3.44889">
        <ele>756.6</ele>
        <time>2020-08-25T15:38:31.000Z</time>
      </trkpt>
      <trkpt lat="44.1979" lon="3.4488">
        <ele>756.6</ele>
        <time>2020-08-25T15:38:32.000Z</time>
      </trkpt>
      <trkpt lat="44.19794" lon="3.44871">
        <ele>756.6</ele>
        <time>2020-08-25T15:38:33.000Z</time>
      </trkpt>
      <trkpt lat="44.198" lon="3.44852">
        <ele>756.6</ele>
        <time>2020-08-25T15:38:35.000Z</time>
      </trkpt>
      <trkpt lat="44.19802" lon="3.44843">
        <ele>756.5</ele>
        <time>2020-08-25T15:38:36.000Z</time>
      </trkpt>
      <trkpt lat="44.19804" lon="3.44833">
        <ele>756.5</ele>
        <time>2020-08-25T15:38:37.000Z</time>
      </trkpt>
      <trkpt lat="44.19805" lon="3.44812">
        <ele>756.3</ele>
        <time>2020-08-25T15:38:39.000Z</time>
      </trkpt>
      <trkpt lat="44.19806" lon="3.44802">
        <ele>756.2</ele>
        <time>2020-08-25T15:38:40.000Z</time>
      </trkpt>
      <trkpt lat="44.19807" lon="3.44791">
        <ele>756.1</ele>
        <time>2020-08-25T15:38:41.000Z</time>
      </trkpt>
      <trkpt lat="44.19806" lon="3.4477">
        <ele>755.9</ele>
        <time>2020-08-25T15:38:43.000Z</time>
      </trkpt>
      <trkpt lat="44.19803" lon="3.44749">
        <ele>755.8</ele>
        <time>2020-08-25T15:38:45.000Z</time>
      </trkpt>
      <trkpt lat="44.19799" lon="3.44728">
        <ele>755.7</ele>
        <time>2020-08-25T15:38:47.000Z</time>
      </trkpt>
      <trkpt lat="44.19797" lon="3.44718">
        <ele>755.6</ele>
        <time>2020-08-25T15:38:48.000Z</time>
      </trkpt>
      <trkpt lat="44.19792" lon="3.44697">
        <ele>755.6</ele>
        <time>2020-08-25T15:38:50.000Z</time>
      </trkpt>
      <trkpt lat="44.19787" lon="3.44676">
        <ele>755.5</ele>
        <time>2020-08-25T15:38:52.000Z</time>
      </trkpt>
      <trkpt lat="44.19784" lon="3.44666">
        <ele>755.5</ele>
        <time>2020-08-25T15:38:53.000Z</time>
      </trkpt>
      <trkpt lat="44.19779" lon="3.44646">
        <ele>755.6</ele>
        <time>2020-08-25T15:38:55.000Z</time>
      </trkpt>
      <trkpt lat="44.19773" lon="3.44627">
        <ele>755.8</ele>
        <time>2020-08-25T15:38:57.000Z</time>
      </trkpt>
      <trkpt lat="44.1977" lon="3.44618">
        <ele>755.8</ele>
        <time>2020-08-25T15:38:58.000Z</time>
      </trkpt>
      <trkpt lat="44.19765" lon="3.446">
        <ele>755.9</ele>
        <time>2020-08-25T15:39:00.000Z</time>
      </trkpt>
      <trkpt lat="44.1976" lon="3.44584">
        <ele>755.8</ele>
        <time>2020-08-25T15:39:02.000Z</time>
      </trkpt>
      <trkpt lat="44.19755" lon="3.44567">
        <ele>755.7</ele>
        <time>2020-08-25T15:39:04.000Z</time>
      </trkpt>
      <trkpt lat="44.19753" lon="3.44558">
        <ele>755.6</ele>
        <time>2020-08-25T15:39:05.000Z</time>
      </trkpt>
      <trkpt lat="44.19751" lon="3.44549">
        <ele>755.5</ele>
        <time>2020-08-25T15:39:06.000Z</time>
      </trkpt>
      <trkpt lat="44.19749" lon="3.4454">
        <ele>755.3</ele>
        <time>2020-08-25T15:39:07.000Z</time>
      </trkpt>
      <trkpt lat="44.19745" lon="3.44521">
        <ele>754.9</ele>
        <time>2020-08-25T15:39:09.000Z</time>
      </trkpt>
      <trkpt lat="44.19743" lon="3.44511">
        <ele>754.7</ele>
        <time>2020-08-25T15:39:10.000Z</time>
      </trkpt>
      <trkpt lat="44.19739" lon="3.44492">
        <ele>754.5</ele>
        <time>2020-08-25T15:39:12.000Z</time>
      </trkpt>
      <trkpt lat="44.19737" lon="3.44482">
        <ele>754.3</ele>
        <time>2020-08-25T15:39:13.000Z</time>
      </trkpt>
      <trkpt lat="44.19732" lon="3.44462">
        <ele>754</ele>
        <time>2020-08-25T15:39:15.000Z</time>
      </trkpt>
      <trkpt lat="44.19725" lon="3.44443">
        <ele>753.7</ele>
        <time>2020-08-25T15:39:17.000Z</time>
      </trkpt>
      <trkpt lat="44.19715" lon="3.44425">
        <ele>753.5</ele>
        <time>2020-08-25T15:39:19.000Z</time>
      </trkpt>
      <trkpt lat="44.19708" lon="3.44405">
        <ele>753.2</ele>
        <time>2020-08-25T15:39:21.000Z</time>
      </trkpt>
      <trkpt lat="44.19702" lon="3.44383">
        <ele>752.5</ele>
        <time>2020-08-25T15:39:23.000Z</time>
      </trkpt>
      <trkpt lat="44.197" lon="3.44371">
        <ele>752.1</ele>
        <time>2020-08-25T15:39:24.000Z</time>
      </trkpt>
      <trkpt lat="44.19696" lon="3.44359">
        <ele>751.7</ele>
        <time>2020-08-25T15:39:25.000Z</time>
      </trkpt>
      <trkpt lat="44.19691" lon="3.44348">
        <ele>751.3</ele>
        <time>2020-08-25T15:39:26.000Z</time>
      </trkpt>
      <trkpt lat="44.1968" lon="3.44328">
        <ele>750.6</ele>
        <time>2020-08-25T15:39:28.000Z</time>
      </trkpt>
      <trkpt lat="44.19666" lon="3.44309">
        <ele>749.9</ele>
        <time>2020-08-25T15:39:30.000Z</time>
      </trkpt>
      <trkpt lat="44.19659" lon="3.44302">
        <ele>749.6</ele>
        <time>2020-08-25T15:39:31.000Z</time>
      </trkpt>
      <trkpt lat="44.1965" lon="3.44295">
        <ele>749.4</ele>
        <time>2020-08-25T15:39:32.000Z</time>
      </trkpt>
      <trkpt lat="44.19642" lon="3.44287">
        <ele>749.1</ele>
        <time>2020-08-25T15:39:33.000Z</time>
      </trkpt>
      <trkpt lat="44.19625" lon="3.44275">
        <ele>748.6</ele>
        <time>2020-08-25T15:39:35.000Z</time>
      </trkpt>
      <trkpt lat="44.19609" lon="3.44262">
        <ele>748.1</ele>
        <time>2020-08-25T15:39:37.000Z</time>
      </trkpt>
      <trkpt lat="44.19601" lon="3.44255">
        <ele>747.8</ele>
        <time>2020-08-25T15:39:38.000Z</time>
      </trkpt>
      <trkpt lat="44.19584" lon="3.44241">
        <ele>747.2</ele>
        <time>2020-08-25T15:39:40.000Z</time>
      </trkpt>
      <trkpt lat="44.19568" lon="3.44228">
        <ele>746.7</ele>
        <time>2020-08-25T15:39:42.000Z</time>
      </trkpt>
      <trkpt lat="44.19551" lon="3.44215">
        <ele>746.2</ele>
        <time>2020-08-25T15:39:44.000Z</time>
      </trkpt>
      <trkpt lat="44.19534" lon="3.44203">
        <ele>745.9</ele>
        <time>2020-08-25T15:39:46.000Z</time>
      </trkpt>
      <trkpt lat="44.19526" lon="3.44198">
        <ele>745.7</ele>
        <time>2020-08-25T15:39:47.000Z</time>
      </trkpt>
      <trkpt lat="44.19508" lon="3.4419">
        <ele>745.5</ele>
        <time>2020-08-25T15:39:49.000Z</time>
      </trkpt>
      <trkpt lat="44.19498" lon="3.44186">
        <ele>745.4</ele>
        <time>2020-08-25T15:39:50.000Z</time>
      </trkpt>
      <trkpt lat="44.19489" lon="3.44182">
        <ele>745.2</ele>
        <time>2020-08-25T15:39:51.000Z</time>
      </trkpt>
      <trkpt lat="44.19471" lon="3.44174">
        <ele>744.9</ele>
        <time>2020-08-25T15:39:53.000Z</time>
      </trkpt>
      <trkpt lat="44.19462" lon="3.44169">
        <ele>744.8</ele>
        <time>2020-08-25T15:39:54.000Z</time>
      </trkpt>
      <trkpt lat="44.19445" lon="3.4416">
        <ele>744.5</ele>
        <time>2020-08-25T15:39:56.000Z</time>
      </trkpt>
      <trkpt lat="44.19428" lon="3.4415">
        <ele>744.2</ele>
        <time>2020-08-25T15:39:58.000Z</time>
      </trkpt>
      <trkpt lat="44.1942" lon="3.44142">
        <ele>744</ele>
        <time>2020-08-25T15:39:59.000Z</time>
      </trkpt>
      <trkpt lat="44.19403" lon="3.44128">
        <ele>743.5</ele>
        <time>2020-08-25T15:40:01.000Z</time>
      </trkpt>
      <trkpt lat="44.19384" lon="3.44116">
        <ele>743.2</ele>
        <time>2020-08-25T15:40:03.000Z</time>
      </trkpt>
      <trkpt lat="44.19375" lon="3.4411">
        <ele>743</ele>
        <time>2020-08-25T15:40:04.000Z</time>
      </trkpt>
      <trkpt lat="44.19355" lon="3.44103">
        <ele>742.6</ele>
        <time>2020-08-25T15:40:06.000Z</time>
      </trkpt>
      <trkpt lat="44.19335" lon="3.44101">
        <ele>742</ele>
        <time>2020-08-25T15:40:08.000Z</time>
      </trkpt>
      <trkpt lat="44.19315" lon="3.44097">
        <ele>741.6</ele>
        <time>2020-08-25T15:40:10.000Z</time>
      </trkpt>
      <trkpt lat="44.19305" lon="3.44095">
        <ele>741.3</ele>
        <time>2020-08-25T15:40:11.000Z</time>
      </trkpt>
      <trkpt lat="44.19295" lon="3.44092">
        <ele>741.2</ele>
        <time>2020-08-25T15:40:12.000Z</time>
      </trkpt>
      <trkpt lat="44.19285" lon="3.44089">
        <ele>741</ele>
        <time>2020-08-25T15:40:13.000Z</time>
      </trkpt>
      <trkpt lat="44.19267" lon="3.44082">
        <ele>740.5</ele>
        <time>2020-08-25T15:40:15.000Z</time>
      </trkpt>
      <trkpt lat="44.19249" lon="3.44073">
        <ele>740</ele>
        <time>2020-08-25T15:40:17.000Z</time>
      </trkpt>
      <trkpt lat="44.19231" lon="3.44064">
        <ele>739.5</ele>
        <time>2020-08-25T15:40:19.000Z</time>
      </trkpt>
      <trkpt lat="44.19222" lon="3.4406">
        <ele>739.2</ele>
        <time>2020-08-25T15:40:20.000Z</time>
      </trkpt>
      <trkpt lat="44.19205" lon="3.44052">
        <ele>738.8</ele>
        <time>2020-08-25T15:40:22.000Z</time>
      </trkpt>
      <trkpt lat="44.19196" lon="3.44048">
        <ele>738.6</ele>
        <time>2020-08-25T15:40:23.000Z</time>
      </trkpt>
      <trkpt lat="44.19178" lon="3.44039">
        <ele>738.2</ele>
        <time>2020-08-25T15:40:25.000Z</time>
      </trkpt>
      <trkpt lat="44.19169" lon="3.44035">
        <ele>738.1</ele>
        <time>2020-08-25T15:40:26.000Z</time>
      </trkpt>
      <trkpt lat="44.19152" lon="3.44026">
        <ele>737.9</ele>
        <time>2020-08-25T15:40:28.000Z</time>
      </trkpt>
      <trkpt lat="44.19136" lon="3.44012">
        <ele>737.8</ele>
        <time>2020-08-25T15:40:30.000Z</time>
      </trkpt>
      <trkpt lat="44.19129" lon="3.44005">
        <ele>737.7</ele>
        <time>2020-08-25T15:40:31.000Z</time>
      </trkpt>
      <trkpt lat="44.19116" lon="3.4399">
        <ele>737.5</ele>
        <time>2020-08-25T15:40:33.000Z</time>
      </trkpt>
      <trkpt lat="44.19109" lon="3.43984">
        <ele>737.4</ele>
        <time>2020-08-25T15:40:34.000Z</time>
      </trkpt>
      <trkpt lat="44.19095" lon="3.43972">
        <ele>736.9</ele>
        <time>2020-08-25T15:40:36.000Z</time>
      </trkpt>
      <trkpt lat="44.19088" lon="3.43967">
        <ele>736.6</ele>
        <time>2020-08-25T15:40:37.000Z</time>
      </trkpt>
      <trkpt lat="44.19081" lon="3.43962">
        <ele>736.3</ele>
        <time>2020-08-25T15:40:38.000Z</time>
      </trkpt>
      <trkpt lat="44.19073" lon="3.43957">
        <ele>735.9</ele>
        <time>2020-08-25T15:40:39.000Z</time>
      </trkpt>
      <trkpt lat="44.19065" lon="3.43952">
        <ele>735.6</ele>
        <time>2020-08-25T15:40:40.000Z</time>
      </trkpt>
      <trkpt lat="44.19049" lon="3.43942">
        <ele>734.9</ele>
        <time>2020-08-25T15:40:42.000Z</time>
      </trkpt>
      <trkpt lat="44.19039" lon="3.43937">
        <ele>734.5</ele>
        <time>2020-08-25T15:40:43.000Z</time>
      </trkpt>
      <trkpt lat="44.19021" lon="3.43928">
        <ele>733.9</ele>
        <time>2020-08-25T15:40:45.000Z</time>
      </trkpt>
      <trkpt lat="44.19011" lon="3.43923">
        <ele>733.7</ele>
        <time>2020-08-25T15:40:46.000Z</time>
      </trkpt>
      <trkpt lat="44.18992" lon="3.43915">
        <ele>733.3</ele>
        <time>2020-08-25T15:40:48.000Z</time>
      </trkpt>
      <trkpt lat="44.18973" lon="3.43909">
        <ele>732.8</ele>
        <time>2020-08-25T15:40:50.000Z</time>
      </trkpt>
      <trkpt lat="44.18955" lon="3.43905">
        <ele>732.5</ele>
        <time>2020-08-25T15:40:52.000Z</time>
      </trkpt>
      <trkpt lat="44.18937" lon="3.43905">
        <ele>732.2</ele>
        <time>2020-08-25T15:40:54.000Z</time>
      </trkpt>
      <trkpt lat="44.1892" lon="3.43908">
        <ele>731.9</ele>
        <time>2020-08-25T15:40:56.000Z</time>
      </trkpt>
      <trkpt lat="44.1891" lon="3.4391">
        <ele>731.6</ele>
        <time>2020-08-25T15:40:57.000Z</time>
      </trkpt>
      <trkpt lat="44.18892" lon="3.43909">
        <ele>731</ele>
        <time>2020-08-25T15:40:59.000Z</time>
      </trkpt>
      <trkpt lat="44.18882" lon="3.43907">
        <ele>730.7</ele>
        <time>2020-08-25T15:41:00.000Z</time>
      </trkpt>
      <trkpt lat="44.18872" lon="3.43905">
        <ele>730.4</ele>
        <time>2020-08-25T15:41:01.000Z</time>
      </trkpt>
      <trkpt lat="44.18854" lon="3.43899">
        <ele>729.6</ele>
        <time>2020-08-25T15:41:03.000Z</time>
      </trkpt>
      <trkpt lat="44.18835" lon="3.43893">
        <ele>729.1</ele>
        <time>2020-08-25T15:41:05.000Z</time>
      </trkpt>
      <trkpt lat="44.18815" lon="3.43888">
        <ele>728.6</ele>
        <time>2020-08-25T15:41:07.000Z</time>
      </trkpt>
      <trkpt lat="44.18805" lon="3.43886">
        <ele>728.2</ele>
        <time>2020-08-25T15:41:08.000Z</time>
      </trkpt>
      <trkpt lat="44.18785" lon="3.43883">
        <ele>727.5</ele>
        <time>2020-08-25T15:41:10.000Z</time>
      </trkpt>
      <trkpt lat="44.18774" lon="3.43883">
        <ele>727.2</ele>
        <time>2020-08-25T15:41:11.000Z</time>
      </trkpt>
      <trkpt lat="44.18753" lon="3.43883">
        <ele>726.6</ele>
        <time>2020-08-25T15:41:13.000Z</time>
      </trkpt>
      <trkpt lat="44.18733" lon="3.43884">
        <ele>726</ele>
        <time>2020-08-25T15:41:15.000Z</time>
      </trkpt>
      <trkpt lat="44.18713" lon="3.43882">
        <ele>725.9</ele>
        <time>2020-08-25T15:41:17.000Z</time>
      </trkpt>
      <trkpt lat="44.18696" lon="3.43874">
        <ele>725.9</ele>
        <time>2020-08-25T15:41:19.000Z</time>
      </trkpt>
      <trkpt lat="44.18687" lon="3.43868">
        <ele>725.9</ele>
        <time>2020-08-25T15:41:20.000Z</time>
      </trkpt>
      <trkpt lat="44.18672" lon="3.43855">
        <ele>725.8</ele>
        <time>2020-08-25T15:41:22.000Z</time>
      </trkpt>
      <trkpt lat="44.18656" lon="3.43842">
        <ele>725.6</ele>
        <time>2020-08-25T15:41:24.000Z</time>
      </trkpt>
      <trkpt lat="44.18641" lon="3.43829">
        <ele>725.5</ele>
        <time>2020-08-25T15:41:26.000Z</time>
      </trkpt>
      <trkpt lat="44.18626" lon="3.43818">
        <ele>725.3</ele>
        <time>2020-08-25T15:41:28.000Z</time>
      </trkpt>
      <trkpt lat="44.18611" lon="3.43807">
        <ele>725.1</ele>
        <time>2020-08-25T15:41:30.000Z</time>
      </trkpt>
      <trkpt lat="44.18604" lon="3.43801">
        <ele>725</ele>
        <time>2020-08-25T15:41:31.000Z</time>
      </trkpt>
      <trkpt lat="44.18597" lon="3.43795">
        <ele>725</ele>
        <time>2020-08-25T15:41:32.000Z</time>
      </trkpt>
      <trkpt lat="44.18582" lon="3.43783">
        <ele>725</ele>
        <time>2020-08-25T15:41:34.000Z</time>
      </trkpt>
      <trkpt lat="44.18575" lon="3.43777">
        <ele>725.1</ele>
        <time>2020-08-25T15:41:35.000Z</time>
      </trkpt>
      <trkpt lat="44.18561" lon="3.43764">
        <ele>725.1</ele>
        <time>2020-08-25T15:41:37.000Z</time>
      </trkpt>
      <trkpt lat="44.18548" lon="3.43751">
        <ele>725.1</ele>
        <time>2020-08-25T15:41:39.000Z</time>
      </trkpt>
      <trkpt lat="44.18535" lon="3.4374">
        <ele>725.1</ele>
        <time>2020-08-25T15:41:41.000Z</time>
      </trkpt>
      <trkpt lat="44.18523" lon="3.43728">
        <ele>725.2</ele>
        <time>2020-08-25T15:41:43.000Z</time>
      </trkpt>
      <trkpt lat="44.18511" lon="3.43717">
        <ele>725.1</ele>
        <time>2020-08-25T15:41:45.000Z</time>
      </trkpt>
      <trkpt lat="44.185" lon="3.43707">
        <ele>725</ele>
        <time>2020-08-25T15:41:47.000Z</time>
      </trkpt>
      <trkpt lat="44.18495" lon="3.43701">
        <ele>725</ele>
        <time>2020-08-25T15:41:48.000Z</time>
      </trkpt>
      <trkpt lat="44.18484" lon="3.4369">
        <ele>724.9</ele>
        <time>2020-08-25T15:41:50.000Z</time>
      </trkpt>
      <trkpt lat="44.18479" lon="3.43684">
        <ele>724.9</ele>
        <time>2020-08-25T15:41:51.000Z</time>
      </trkpt>
      <trkpt lat="44.18473" lon="3.43678">
        <ele>724.9</ele>
        <time>2020-08-25T15:41:52.000Z</time>
      </trkpt>
      <trkpt lat="44.18464" lon="3.43664">
        <ele>725.1</ele>
        <time>2020-08-25T15:41:54.000Z</time>
      </trkpt>
      <trkpt lat="44.1846" lon="3.43657">
        <ele>725.2</ele>
        <time>2020-08-25T15:41:55.000Z</time>
      </trkpt>
      <trkpt lat="44.18454" lon="3.43642">
        <ele>725.7</ele>
        <time>2020-08-25T15:41:57.000Z</time>
      </trkpt>
      <trkpt lat="44.18449" lon="3.43628">
        <ele>726.4</ele>
        <time>2020-08-25T15:41:59.000Z</time>
      </trkpt>
      <trkpt lat="44.18447" lon="3.43622">
        <ele>726.9</ele>
        <time>2020-08-25T15:42:00.000Z</time>
      </trkpt>
      <trkpt lat="44.18442" lon="3.43611">
        <ele>727.9</ele>
        <time>2020-08-25T15:42:02.000Z</time>
      </trkpt>
      <trkpt lat="44.18441" lon="3.43606">
        <ele>728.3</ele>
        <time>2020-08-25T15:42:03.000Z</time>
      </trkpt>
      <trkpt lat="44.18437" lon="3.43596">
        <ele>729.2</ele>
        <time>2020-08-25T15:42:05.000Z</time>
      </trkpt>
      <trkpt lat="44.18435" lon="3.43589">
        <ele>729.9</ele>
        <time>2020-08-25T15:42:07.000Z</time>
      </trkpt>
      <trkpt lat="44.18434" lon="3.43585">
        <ele>730.2</ele>
        <time>2020-08-25T15:42:08.000Z</time>
      </trkpt>
      <trkpt lat="44.18431" lon="3.43578">
        <ele>730.9</ele>
        <time>2020-08-25T15:42:10.000Z</time>
      </trkpt>
      <trkpt lat="44.18429" lon="3.43572">
        <ele>731.4</ele>
        <time>2020-08-25T15:42:12.000Z</time>
      </trkpt>
      <trkpt lat="44.18428" lon="3.43569">
        <ele>731.7</ele>
        <time>2020-08-25T15:42:13.000Z</time>
      </trkpt>
      <trkpt lat="44.18426" lon="3.43564">
        <ele>732.1</ele>
        <time>2020-08-25T15:42:15.000Z</time>
      </trkpt>
      <trkpt lat="44.18424" lon="3.4356">
        <ele>732.5</ele>
        <time>2020-08-25T15:42:16.000Z</time>
      </trkpt>
      <trkpt lat="44.18422" lon="3.43557">
        <ele>732.7</ele>
        <time>2020-08-25T15:42:17.000Z</time>
      </trkpt>
      <trkpt lat="44.18419" lon="3.43551">
        <ele>733.1</ele>
        <time>2020-08-25T15:42:19.000Z</time>
      </trkpt>
      <trkpt lat="44.18416" lon="3.43544">
        <ele>733.4</ele>
        <time>2020-08-25T15:42:21.000Z</time>
      </trkpt>
      <trkpt lat="44.18414" lon="3.4354">
        <ele>733.6</ele>
        <time>2020-08-25T15:42:22.000Z</time>
      </trkpt>
      <trkpt lat="44.1841" lon="3.43534">
        <ele>734</ele>
        <time>2020-08-25T15:42:24.000Z</time>
      </trkpt>
      <trkpt lat="44.18406" lon="3.43527">
        <ele>734.2</ele>
        <time>2020-08-25T15:42:26.000Z</time>
      </trkpt>
      <trkpt lat="44.18403" lon="3.43519">
        <ele>734.4</ele>
        <time>2020-08-25T15:42:28.000Z</time>
      </trkpt>
      <trkpt lat="44.184" lon="3.43512">
        <ele>734.7</ele>
        <time>2020-08-25T15:42:30.000Z</time>
      </trkpt>
      <trkpt lat="44.18399" lon="3.43508">
        <ele>734.8</ele>
        <time>2020-08-25T15:42:31.000Z</time>
      </trkpt>
      <trkpt lat="44.18394" lon="3.43501">
        <ele>735.5</ele>
        <time>2020-08-25T15:42:33.000Z</time>
      </trkpt>
      <trkpt lat="44.18391" lon="3.43498">
        <ele>735.8</ele>
        <time>2020-08-25T15:42:34.000Z</time>
      </trkpt>
      <trkpt lat="44.18388" lon="3.43496">
        <ele>735.7</ele>
        <time>2020-08-25T15:42:35.000Z</time>
      </trkpt>
      <trkpt lat="44.18381" lon="3.43497">
        <ele>735.2</ele>
        <time>2020-08-25T15:42:37.000Z</time>
      </trkpt>
      <trkpt lat="44.18374" lon="3.43501">
        <ele>734.9</ele>
        <time>2020-08-25T15:42:39.000Z</time>
      </trkpt>
      <trkpt lat="44.1837" lon="3.43503">
        <ele>734.6</ele>
        <time>2020-08-25T15:42:40.000Z</time>
      </trkpt>
      <trkpt lat="44.18363" lon="3.43506">
        <ele>734.1</ele>
        <time>2020-08-25T15:42:42.000Z</time>
      </trkpt>
      <trkpt lat="44.18355" lon="3.435">
        <ele>733.6</ele>
        <time>2020-08-25T15:42:44.000Z</time>
      </trkpt>
      <trkpt lat="44.1835" lon="3.43497">
        <ele>733.3</ele>
        <time>2020-08-25T15:42:45.000Z</time>
      </trkpt>
      <trkpt lat="44.18341" lon="3.4349">
        <ele>732.5</ele>
        <time>2020-08-25T15:42:47.000Z</time>
      </trkpt>
      <trkpt lat="44.18335" lon="3.43487">
        <ele>732.1</ele>
        <time>2020-08-25T15:42:48.000Z</time>
      </trkpt>
      <trkpt lat="44.1833" lon="3.43483">
        <ele>731.8</ele>
        <time>2020-08-25T15:42:49.000Z</time>
      </trkpt>
      <trkpt lat="44.18318" lon="3.43475">
        <ele>731.1</ele>
        <time>2020-08-25T15:42:51.000Z</time>
      </trkpt>
      <trkpt lat="44.18308" lon="3.43467">
        <ele>730.4</ele>
        <time>2020-08-25T15:42:53.000Z</time>
      </trkpt>
      <trkpt lat="44.18303" lon="3.43462">
        <ele>730.1</ele>
        <time>2020-08-25T15:42:54.000Z</time>
      </trkpt>
      <trkpt lat="44.18297" lon="3.43458">
        <ele>729.8</ele>
        <time>2020-08-25T15:42:55.000Z</time>
      </trkpt>
      <trkpt lat="44.18286" lon="3.4345">
        <ele>729.1</ele>
        <time>2020-08-25T15:42:57.000Z</time>
      </trkpt>
      <trkpt lat="44.18281" lon="3.43446">
        <ele>728.7</ele>
        <time>2020-08-25T15:42:58.000Z</time>
      </trkpt>
      <trkpt lat="44.18268" lon="3.43437">
        <ele>727.9</ele>
        <time>2020-08-25T15:43:00.000Z</time>
      </trkpt>
      <trkpt lat="44.18255" lon="3.43429">
        <ele>727</ele>
        <time>2020-08-25T15:43:02.000Z</time>
      </trkpt>
      <trkpt lat="44.18241" lon="3.43419">
        <ele>726.1</ele>
        <time>2020-08-25T15:43:04.000Z</time>
      </trkpt>
      <trkpt lat="44.18227" lon="3.43407">
        <ele>725</ele>
        <time>2020-08-25T15:43:06.000Z</time>
      </trkpt>
      <trkpt lat="44.18219" lon="3.434">
        <ele>724.5</ele>
        <time>2020-08-25T15:43:07.000Z</time>
      </trkpt>
      <trkpt lat="44.18206" lon="3.43382">
        <ele>723.4</ele>
        <time>2020-08-25T15:43:09.000Z</time>
      </trkpt>
      <trkpt lat="44.18199" lon="3.43372">
        <ele>722.8</ele>
        <time>2020-08-25T15:43:10.000Z</time>
      </trkpt>
      <trkpt lat="44.18185" lon="3.43353">
        <ele>721.6</ele>
        <time>2020-08-25T15:43:12.000Z</time>
      </trkpt>
      <trkpt lat="44.18178" lon="3.43343">
        <ele>721</ele>
        <time>2020-08-25T15:43:13.000Z</time>
      </trkpt>
      <trkpt lat="44.18163" lon="3.43323">
        <ele>719.8</ele>
        <time>2020-08-25T15:43:15.000Z</time>
      </trkpt>
      <trkpt lat="44.18156" lon="3.43312">
        <ele>719.1</ele>
        <time>2020-08-25T15:43:16.000Z</time>
      </trkpt>
      <trkpt lat="44.1814" lon="3.4329">
        <ele>717.6</ele>
        <time>2020-08-25T15:43:18.000Z</time>
      </trkpt>
      <trkpt lat="44.18129" lon="3.43265">
        <ele>716.5</ele>
        <time>2020-08-25T15:43:20.000Z</time>
      </trkpt>
      <trkpt lat="44.18123" lon="3.43235">
        <ele>715.3</ele>
        <time>2020-08-25T15:43:22.000Z</time>
      </trkpt>
      <trkpt lat="44.18121" lon="3.43219">
        <ele>714.7</ele>
        <time>2020-08-25T15:43:23.000Z</time>
      </trkpt>
      <trkpt lat="44.18119" lon="3.43203">
        <ele>714</ele>
        <time>2020-08-25T15:43:24.000Z</time>
      </trkpt>
      <trkpt lat="44.18114" lon="3.43174">
        <ele>713</ele>
        <time>2020-08-25T15:43:26.000Z</time>
      </trkpt>
      <trkpt lat="44.18111" lon="3.43161">
        <ele>712.5</ele>
        <time>2020-08-25T15:43:27.000Z</time>
      </trkpt>
      <trkpt lat="44.18105" lon="3.43139">
        <ele>711.6</ele>
        <time>2020-08-25T15:43:29.000Z</time>
      </trkpt>
      <trkpt lat="44.18093" lon="3.43122">
        <ele>709.7</ele>
        <time>2020-08-25T15:43:31.000Z</time>
      </trkpt>
      <trkpt lat="44.18076" lon="3.4311">
        <ele>707.8</ele>
        <time>2020-08-25T15:43:33.000Z</time>
      </trkpt>
      <trkpt lat="44.18058" lon="3.43101">
        <ele>707</ele>
        <time>2020-08-25T15:43:35.000Z</time>
      </trkpt>
      <trkpt lat="44.1804" lon="3.43092">
        <ele>706.3</ele>
        <time>2020-08-25T15:43:37.000Z</time>
      </trkpt>
      <trkpt lat="44.18032" lon="3.43087">
        <ele>706</ele>
        <time>2020-08-25T15:43:38.000Z</time>
      </trkpt>
      <trkpt lat="44.18024" lon="3.43083">
        <ele>705.6</ele>
        <time>2020-08-25T15:43:39.000Z</time>
      </trkpt>
      <trkpt lat="44.18008" lon="3.43075">
        <ele>705</ele>
        <time>2020-08-25T15:43:41.000Z</time>
      </trkpt>
      <trkpt lat="44.17999" lon="3.4307">
        <ele>704.7</ele>
        <time>2020-08-25T15:43:42.000Z</time>
      </trkpt>
      <trkpt lat="44.17991" lon="3.43065">
        <ele>704.4</ele>
        <time>2020-08-25T15:43:43.000Z</time>
      </trkpt>
      <trkpt lat="44.17976" lon="3.43056">
        <ele>704.4</ele>
        <time>2020-08-25T15:43:45.000Z</time>
      </trkpt>
      <trkpt lat="44.17961" lon="3.43047">
        <ele>704.6</ele>
        <time>2020-08-25T15:43:47.000Z</time>
      </trkpt>
      <trkpt lat="44.17953" lon="3.43042">
        <ele>704.8</ele>
        <time>2020-08-25T15:43:48.000Z</time>
      </trkpt>
      <trkpt lat="44.17942" lon="3.43034">
        <ele>704.8</ele>
        <time>2020-08-25T15:43:50.000Z</time>
      </trkpt>
      <trkpt lat="44.17934" lon="3.43028">
        <ele>704.8</ele>
        <time>2020-08-25T15:43:52.000Z</time>
      </trkpt>
      <trkpt lat="44.1793" lon="3.43015">
        <ele>704.8</ele>
        <time>2020-08-25T15:43:54.000Z</time>
      </trkpt>
      <trkpt lat="44.17931" lon="3.43007">
        <ele>704.9</ele>
        <time>2020-08-25T15:43:55.000Z</time>
      </trkpt>
      <trkpt lat="44.17935" lon="3.42993">
        <ele>704.9</ele>
        <time>2020-08-25T15:43:57.000Z</time>
      </trkpt>
      <trkpt lat="44.17939" lon="3.4298">
        <ele>705</ele>
        <time>2020-08-25T15:43:59.000Z</time>
      </trkpt>
      <trkpt lat="44.17942" lon="3.42968">
        <ele>705</ele>
        <time>2020-08-25T15:44:01.000Z</time>
      </trkpt>
      <trkpt lat="44.17939" lon="3.42962">
        <ele>705</ele>
        <time>2020-08-25T15:44:02.000Z</time>
      </trkpt>
      <trkpt lat="44.1793" lon="3.42954">
        <ele>704.9</ele>
        <time>2020-08-25T15:44:04.000Z</time>
      </trkpt>
      <trkpt lat="44.17923" lon="3.42951">
        <ele>705</ele>
        <time>2020-08-25T15:44:05.000Z</time>
      </trkpt>
      <trkpt lat="44.17912" lon="3.42943">
        <ele>705.2</ele>
        <time>2020-08-25T15:44:07.000Z</time>
      </trkpt>
      <trkpt lat="44.17906" lon="3.42939">
        <ele>705.4</ele>
        <time>2020-08-25T15:44:08.000Z</time>
      </trkpt>
      <trkpt lat="44.17894" lon="3.4293">
        <ele>705.6</ele>
        <time>2020-08-25T15:44:10.000Z</time>
      </trkpt>
      <trkpt lat="44.17889" lon="3.42926">
        <ele>705.9</ele>
        <time>2020-08-25T15:44:11.000Z</time>
      </trkpt>
      <trkpt lat="44.17878" lon="3.42921">
        <ele>706.4</ele>
        <time>2020-08-25T15:44:13.000Z</time>
      </trkpt>
      <trkpt lat="44.1787" lon="3.42916">
        <ele>706.8</ele>
        <time>2020-08-25T15:44:15.000Z</time>
      </trkpt>
      <trkpt lat="44.17869" lon="3.42916">
        <ele>706.8</ele>
        <time>2020-08-25T15:44:17.000Z</time>
      </trkpt>
      <trkpt lat="44.1787" lon="3.42916">
        <ele>706.8</ele>
        <time>2020-08-25T15:44:19.000Z</time>
      </trkpt>
      <trkpt lat="44.1787" lon="3.42916">
        <ele>706.8</ele>
        <time>2020-08-25T15:44:20.000Z</time>
      </trkpt>
      <trkpt lat="44.1787" lon="3.42916">
        <ele>706.8</ele>
        <time>2020-08-25T15:44:22.000Z</time>
      </trkpt>
      <trkpt lat="44.1787" lon="3.42917">
        <ele>706.8</ele>
        <time>2020-08-25T15:44:23.000Z</time>
      </trkpt>
      <trkpt lat="44.1787" lon="3.42917">
        <ele>706.8</ele>
        <time>2020-08-25T15:44:24.000Z</time>
      </trkpt>
      <trkpt lat="44.1787" lon="3.42917">
        <ele>706.8</ele>
        <time>2020-08-25T15:44:26.000Z</time>
      </trkpt>
    </trkseg>
  </trk>
</gpx>